<?xml version='1.0' encoding='UTF-8'?><gpx version="1.1" creator="JPX - https://github.com/jenetics/jpx" xmlns="http://www.topografix.com/GPX/1/1"><trk><trkseg><trkpt lat="45.4266459" lon="11.8835469"><ele>15.0</ele><time>2026-04-18T07:44:58.823Z</time></trkpt><trkpt lat="45.4265953" lon="11.8836391"><ele>15.0</ele><time>2026-04-18T07:45:37.823Z</time></trkpt><trkpt lat="45.4265445" lon="11.8837713"><ele>15.0</ele><time>2026-04-18T07:45:39.823Z</time></trkpt><trkpt lat="45.4264834" lon="11.8839081"><ele>15.0</ele><time>2026-04-18T07:45:41.823Z</time></trkpt><trkpt lat="45.4264232" lon="11.8840548"><ele>15.0</ele><time>2026-04-18T07:45:43.823Z</time></trkpt><trkpt lat="45.4263584" lon="11.8842114"><ele>15.0</ele><time>2026-04-18T07:45:45.823Z</time></trkpt><trkpt lat="45.4262961" lon="11.8843532"><ele>15.0</ele><time>2026-04-18T07:45:47.823Z</time></trkpt><trkpt lat="45.4262576" lon="11.8844754"><ele>15.0</ele><time>2026-04-18T07:45:49.823Z</time></trkpt><trkpt lat="45.4262875" lon="11.8845849"><ele>15.0</ele><time>2026-04-18T07:45:51.823Z</time></trkpt><trkpt lat="45.4264039" lon="11.8846609"><ele>15.0</ele><time>2026-04-18T07:45:53.823Z</time></trkpt><trkpt lat="45.426464" lon="11.8847156"><ele>15.0</ele><time>2026-04-18T07:45:54.823Z</time></trkpt><trkpt lat="45.4265556" lon="11.8847921"><ele>15.0</ele><time>2026-04-18T07:45:56.823Z</time></trkpt><trkpt lat="45.4266232" lon="11.8848508"><ele>15.0</ele><time>2026-04-18T07:45:58.823Z</time></trkpt><trkpt lat="45.4266809" lon="11.8848895"><ele>15.0</ele><time>2026-04-18T07:46:01.823Z</time></trkpt><trkpt lat="45.4267484" lon="11.8848593"><ele>15.0</ele><time>2026-04-18T07:46:05.823Z</time></trkpt><trkpt lat="45.4267938" lon="11.8847307"><ele>15.0</ele><time>2026-04-18T07:46:07.823Z</time></trkpt><trkpt lat="45.4268298" lon="11.884656"><ele>15.0</ele><time>2026-04-18T07:46:08.823Z</time></trkpt><trkpt lat="45.4268936" lon="11.8845054"><ele>15.0</ele><time>2026-04-18T07:46:10.823Z</time></trkpt><trkpt lat="45.4269252" lon="11.8844178"><ele>15.0</ele><time>2026-04-18T07:46:11.823Z</time></trkpt><trkpt lat="45.4269608" lon="11.8843245"><ele>15.0</ele><time>2026-04-18T07:46:12.823Z</time></trkpt><trkpt lat="45.4270014" lon="11.8842268"><ele>15.0</ele><time>2026-04-18T07:46:13.823Z</time></trkpt><trkpt lat="45.4270442" lon="11.8841259"><ele>15.0</ele><time>2026-04-18T07:46:14.823Z</time></trkpt><trkpt lat="45.4270905" lon="11.8840184"><ele>15.0</ele><time>2026-04-18T07:46:15.823Z</time></trkpt><trkpt lat="45.4271376" lon="11.8839066"><ele>15.0</ele><time>2026-04-18T07:46:16.823Z</time></trkpt><trkpt lat="45.4271812" lon="11.8837978"><ele>15.0</ele><time>2026-04-18T07:46:17.823Z</time></trkpt><trkpt lat="45.4272182" lon="11.8836975"><ele>15.0</ele><time>2026-04-18T07:46:18.823Z</time></trkpt><trkpt lat="45.4272509" lon="11.8836105"><ele>15.0</ele><time>2026-04-18T07:46:19.823Z</time></trkpt><trkpt lat="45.4273174" lon="11.8834861"><ele>15.0</ele><time>2026-04-18T07:46:21.823Z</time></trkpt><trkpt lat="45.427366" lon="11.8833636"><ele>14.833333333333334</ele><time>2026-04-18T07:46:23.823Z</time></trkpt><trkpt lat="45.4273975" lon="11.8832685"><ele>14.666666666666668</ele><time>2026-04-18T07:46:24.824Z</time></trkpt><trkpt lat="45.4274307" lon="11.8831648"><ele>14.5</ele><time>2026-04-18T07:46:25.824Z</time></trkpt><trkpt lat="45.4274593" lon="11.8830625"><ele>14.333333333333334</ele><time>2026-04-18T07:46:26.823Z</time></trkpt><trkpt lat="45.4274951" lon="11.8829722"><ele>14.166666666666668</ele><time>2026-04-18T07:46:27.823Z</time></trkpt><trkpt lat="45.4275264" lon="11.8828712"><ele>14.0</ele><time>2026-04-18T07:46:28.823Z</time></trkpt><trkpt lat="45.4275614" lon="11.8827662"><ele>14.0</ele><time>2026-04-18T07:46:29.823Z</time></trkpt><trkpt lat="45.4276027" lon="11.8826564"><ele>13.999999999999998</ele><time>2026-04-18T07:46:30.823Z</time></trkpt><trkpt lat="45.4276485" lon="11.882544"><ele>13.999999999999998</ele><time>2026-04-18T07:46:31.823Z</time></trkpt><trkpt lat="45.4276962" lon="11.8824253"><ele>14.0</ele><time>2026-04-18T07:46:32.823Z</time></trkpt><trkpt lat="45.4277432" lon="11.8822989"><ele>14.0</ele><time>2026-04-18T07:46:33.823Z</time></trkpt><trkpt lat="45.4277944" lon="11.8821775"><ele>13.799999999999999</ele><time>2026-04-18T07:46:34.823Z</time></trkpt><trkpt lat="45.4278495" lon="11.882055"><ele>13.599999999999998</ele><time>2026-04-18T07:46:35.823Z</time></trkpt><trkpt lat="45.427898" lon="11.8819454"><ele>13.4</ele><time>2026-04-18T07:46:36.823Z</time></trkpt><trkpt lat="45.4279453" lon="11.8818333"><ele>13.2</ele><time>2026-04-18T07:46:37.823Z</time></trkpt><trkpt lat="45.4279977" lon="11.881719"><ele>13.0</ele><time>2026-04-18T07:46:38.823Z</time></trkpt><trkpt lat="45.4280448" lon="11.8816059"><ele>12.999999999999998</ele><time>2026-04-18T07:46:39.823Z</time></trkpt><trkpt lat="45.4280917" lon="11.8814892"><ele>13.0</ele><time>2026-04-18T07:46:40.823Z</time></trkpt><trkpt lat="45.4281362" lon="11.8813765"><ele>13.0</ele><time>2026-04-18T07:46:41.823Z</time></trkpt><trkpt lat="45.4281743" lon="11.8812646"><ele>13.0</ele><time>2026-04-18T07:46:42.823Z</time></trkpt><trkpt lat="45.4282106" lon="11.8811652"><ele>12.999999999999998</ele><time>2026-04-18T07:46:43.823Z</time></trkpt><trkpt lat="45.4282399" lon="11.8810763"><ele>13.0</ele><time>2026-04-18T07:46:44.823Z</time></trkpt><trkpt lat="45.428291" lon="11.880957"><ele>13.166666666666666</ele><time>2026-04-18T07:46:46.823Z</time></trkpt><trkpt lat="45.4282882" lon="11.8808664"><ele>13.333333333333332</ele><time>2026-04-18T07:46:48.823Z</time></trkpt><trkpt lat="45.4282056" lon="11.8807745"><ele>13.5</ele><time>2026-04-18T07:46:50.823Z</time></trkpt><trkpt lat="45.4281375" lon="11.8807276"><ele>13.666666666666668</ele><time>2026-04-18T07:46:51.823Z</time></trkpt><trkpt lat="45.4280622" lon="11.8806779"><ele>13.833333333333334</ele><time>2026-04-18T07:46:52.824Z</time></trkpt><trkpt lat="45.4279787" lon="11.880627"><ele>14.0</ele><time>2026-04-18T07:46:53.823Z</time></trkpt><trkpt lat="45.4278926" lon="11.8805741"><ele>14.000000000000002</ele><time>2026-04-18T07:46:54.823Z</time></trkpt><trkpt lat="45.4278138" lon="11.8805144"><ele>14.0</ele><time>2026-04-18T07:46:55.823Z</time></trkpt><trkpt lat="45.4277445" lon="11.8804627"><ele>14.0</ele><time>2026-04-18T07:46:56.823Z</time></trkpt><trkpt lat="45.4276553" lon="11.880386"><ele>14.0</ele><time>2026-04-18T07:46:58.823Z</time></trkpt><trkpt lat="45.4275964" lon="11.8802979"><ele>14.000000000000002</ele><time>2026-04-18T07:47:01.823Z</time></trkpt><trkpt lat="45.4276087" lon="11.8801734"><ele>14.0</ele><time>2026-04-18T07:47:03.823Z</time></trkpt><trkpt lat="45.4276554" lon="11.880007"><ele>13.333333333333334</ele><time>2026-04-18T07:47:05.823Z</time></trkpt><trkpt lat="45.4276768" lon="11.8799138"><ele>12.666666666666668</ele><time>2026-04-18T07:47:06.823Z</time></trkpt><trkpt lat="45.4277001" lon="11.8798114"><ele>12.0</ele><time>2026-04-18T07:47:07.823Z</time></trkpt><trkpt lat="45.4277185" lon="11.8797141"><ele>11.333333333333334</ele><time>2026-04-18T07:47:08.823Z</time></trkpt><trkpt lat="45.4277489" lon="11.8795615"><ele>10.666666666666668</ele><time>2026-04-18T07:47:10.823Z</time></trkpt><trkpt lat="45.4278005" lon="11.8794417"><ele>10.0</ele><time>2026-04-18T07:47:12.823Z</time></trkpt><trkpt lat="45.4278991" lon="11.8794154"><ele>10.166666666666668</ele><time>2026-04-18T07:47:14.823Z</time></trkpt><trkpt lat="45.4279996" lon="11.8794537"><ele>10.333333333333334</ele><time>2026-04-18T07:47:16.823Z</time></trkpt><trkpt lat="45.4280705" lon="11.8795321"><ele>10.5</ele><time>2026-04-18T07:47:18.823Z</time></trkpt><trkpt lat="45.4281219" lon="11.8796126"><ele>10.666666666666666</ele><time>2026-04-18T07:47:20.823Z</time></trkpt><trkpt lat="45.4282018" lon="11.8796674"><ele>10.833333333333332</ele><time>2026-04-18T07:47:23.823Z</time></trkpt><trkpt lat="45.4282669" lon="11.879674"><ele>11.0</ele><time>2026-04-18T07:50:30.823Z</time></trkpt><trkpt lat="45.428328" lon="11.8796227"><ele>11.0</ele><time>2026-04-18T07:50:33.823Z</time></trkpt><trkpt lat="45.4283151" lon="11.8795343"><ele>11.0</ele><time>2026-04-18T07:50:36.823Z</time></trkpt><trkpt lat="45.4282423" lon="11.8794582"><ele>11.0</ele><time>2026-04-18T07:50:38.823Z</time></trkpt><trkpt lat="45.4281696" lon="11.8794383"><ele>11.0</ele><time>2026-04-18T07:50:39.823Z</time></trkpt><trkpt lat="45.4280942" lon="11.879417"><ele>11.0</ele><time>2026-04-18T07:50:40.823Z</time></trkpt><trkpt lat="45.4280259" lon="11.8793887"><ele>11.0</ele><time>2026-04-18T07:50:41.823Z</time></trkpt><trkpt lat="45.4279601" lon="11.8793738"><ele>11.0</ele><time>2026-04-18T07:50:42.823Z</time></trkpt><trkpt lat="45.4278527" lon="11.8793468"><ele>11.0</ele><time>2026-04-18T07:50:44.823Z</time></trkpt><trkpt lat="45.4277789" lon="11.8793202"><ele>11.0</ele><time>2026-04-18T07:50:46.823Z</time></trkpt><trkpt lat="45.4276468" lon="11.8792513"><ele>11.0</ele><time>2026-04-18T07:50:48.823Z</time></trkpt><trkpt lat="45.4275941" lon="11.8791996"><ele>11.0</ele><time>2026-04-18T07:50:49.823Z</time></trkpt><trkpt lat="45.4275252" lon="11.8790967"><ele>11.0</ele><time>2026-04-18T07:50:51.823Z</time></trkpt><trkpt lat="45.4275498" lon="11.8790063"><ele>11.0</ele><time>2026-04-18T07:50:52.823Z</time></trkpt><trkpt lat="45.4276331" lon="11.8788163"><ele>11.0</ele><time>2026-04-18T07:50:53.823Z</time></trkpt><trkpt lat="45.4276878" lon="11.8786414"><ele>11.0</ele><time>2026-04-18T07:50:54.823Z</time></trkpt><trkpt lat="45.4277398" lon="11.8784781"><ele>11.0</ele><time>2026-04-18T07:50:55.824Z</time></trkpt><trkpt lat="45.4277882" lon="11.8782999"><ele>11.0</ele><time>2026-04-18T07:50:56.823Z</time></trkpt><trkpt lat="45.4278003" lon="11.8781052"><ele>11.0</ele><time>2026-04-18T07:50:57.823Z</time></trkpt><trkpt lat="45.4278461" lon="11.8779481"><ele>11.0</ele><time>2026-04-18T07:50:58.823Z</time></trkpt><trkpt lat="45.4279038" lon="11.877789"><ele>11.0</ele><time>2026-04-18T07:50:59.823Z</time></trkpt><trkpt lat="45.4279487" lon="11.877639"><ele>11.0</ele><time>2026-04-18T07:51:00.823Z</time></trkpt><trkpt lat="45.427967" lon="11.8774889"><ele>10.8</ele><time>2026-04-18T07:51:01.823Z</time></trkpt><trkpt lat="45.4279613" lon="11.8773562"><ele>10.600000000000001</ele><time>2026-04-18T07:51:02.823Z</time></trkpt><trkpt lat="45.4279335" lon="11.8772295"><ele>10.4</ele><time>2026-04-18T07:51:03.823Z</time></trkpt><trkpt lat="45.4279004" lon="11.8770877"><ele>10.2</ele><time>2026-04-18T07:51:04.823Z</time></trkpt><trkpt lat="45.4278605" lon="11.8769062"><ele>10.0</ele><time>2026-04-18T07:51:05.823Z</time></trkpt><trkpt lat="45.4278283" lon="11.8766781"><ele>10.0</ele><time>2026-04-18T07:51:06.823Z</time></trkpt><trkpt lat="45.4278039" lon="11.8764212"><ele>10.0</ele><time>2026-04-18T07:51:07.823Z</time></trkpt><trkpt lat="45.427783" lon="11.876168"><ele>10.0</ele><time>2026-04-18T07:51:08.823Z</time></trkpt><trkpt lat="45.4277637" lon="11.8759355"><ele>10.0</ele><time>2026-04-18T07:51:09.823Z</time></trkpt><trkpt lat="45.4277506" lon="11.8757253"><ele>10.0</ele><time>2026-04-18T07:51:10.823Z</time></trkpt><trkpt lat="45.4277484" lon="11.8755379"><ele>10.0</ele><time>2026-04-18T07:51:11.823Z</time></trkpt><trkpt lat="45.4277544" lon="11.875376"><ele>10.0</ele><time>2026-04-18T07:51:12.823Z</time></trkpt><trkpt lat="45.4277667" lon="11.8752476"><ele>10.4</ele><time>2026-04-18T07:51:13.823Z</time></trkpt><trkpt lat="45.4278099" lon="11.8750954"><ele>10.8</ele><time>2026-04-18T07:51:15.823Z</time></trkpt><trkpt lat="45.4278954" lon="11.8750054"><ele>11.2</ele><time>2026-04-18T07:51:17.823Z</time></trkpt><trkpt lat="45.4279895" lon="11.8748894"><ele>11.6</ele><time>2026-04-18T07:51:19.823Z</time></trkpt><trkpt lat="45.4280106" lon="11.8747994"><ele>12.0</ele><time>2026-04-18T07:51:20.824Z</time></trkpt><trkpt lat="45.4280005" lon="11.874695"><ele>12.0</ele><time>2026-04-18T07:51:21.824Z</time></trkpt><trkpt lat="45.4279555" lon="11.874602"><ele>12.0</ele><time>2026-04-18T07:51:22.823Z</time></trkpt><trkpt lat="45.4278831" lon="11.8745412"><ele>12.0</ele><time>2026-04-18T07:51:23.823Z</time></trkpt><trkpt lat="45.4277909" lon="11.874492"><ele>12.0</ele><time>2026-04-18T07:51:24.823Z</time></trkpt><trkpt lat="45.4277025" lon="11.8744443"><ele>12.0</ele><time>2026-04-18T07:51:25.823Z</time></trkpt><trkpt lat="45.4276078" lon="11.8743727"><ele>12.0</ele><time>2026-04-18T07:51:26.823Z</time></trkpt><trkpt lat="45.4275108" lon="11.8742782"><ele>12.0</ele><time>2026-04-18T07:51:27.823Z</time></trkpt><trkpt lat="45.4274097" lon="11.8741546"><ele>12.0</ele><time>2026-04-18T07:51:28.823Z</time></trkpt><trkpt lat="45.4273169" lon="11.8740018"><ele>12.0</ele><time>2026-04-18T07:51:29.823Z</time></trkpt><trkpt lat="45.4272242" lon="11.8738135"><ele>12.0</ele><time>2026-04-18T07:51:30.823Z</time></trkpt><trkpt lat="45.4271321" lon="11.8736117"><ele>12.0</ele><time>2026-04-18T07:51:31.823Z</time></trkpt><trkpt lat="45.4270434" lon="11.8733951"><ele>12.0</ele><time>2026-04-18T07:51:32.823Z</time></trkpt><trkpt lat="45.4269501" lon="11.873179"><ele>12.0</ele><time>2026-04-18T07:51:33.823Z</time></trkpt><trkpt lat="45.4268534" lon="11.8729608"><ele>12.0</ele><time>2026-04-18T07:51:34.823Z</time></trkpt><trkpt lat="45.4267618" lon="11.8727566"><ele>12.0</ele><time>2026-04-18T07:51:35.823Z</time></trkpt><trkpt lat="45.4266776" lon="11.8725667"><ele>12.0</ele><time>2026-04-18T07:51:36.823Z</time></trkpt><trkpt lat="45.4265902" lon="11.8724073"><ele>12.0</ele><time>2026-04-18T07:51:37.823Z</time></trkpt><trkpt lat="45.4265086" lon="11.8722768"><ele>12.0</ele><time>2026-04-18T07:51:38.823Z</time></trkpt><trkpt lat="45.4264505" lon="11.8721678"><ele>12.0</ele><time>2026-04-18T07:51:39.823Z</time></trkpt><trkpt lat="45.426401" lon="11.8720378"><ele>12.0</ele><time>2026-04-18T07:51:40.823Z</time></trkpt><trkpt lat="45.4263572" lon="11.8719003"><ele>12.0</ele><time>2026-04-18T07:51:41.823Z</time></trkpt><trkpt lat="45.4263006" lon="11.8717916"><ele>12.0</ele><time>2026-04-18T07:51:42.823Z</time></trkpt><trkpt lat="45.4262154" lon="11.8716943"><ele>12.0</ele><time>2026-04-18T07:51:43.823Z</time></trkpt><trkpt lat="45.4261243" lon="11.8715797"><ele>12.0</ele><time>2026-04-18T07:51:44.823Z</time></trkpt><trkpt lat="45.426008" lon="11.8714437"><ele>11.0</ele><time>2026-04-18T07:51:45.823Z</time></trkpt><trkpt lat="45.4258761" lon="11.871305"><ele>10.0</ele><time>2026-04-18T07:51:46.823Z</time></trkpt><trkpt lat="45.4257327" lon="11.8711745"><ele>9.0</ele><time>2026-04-18T07:51:47.823Z</time></trkpt><trkpt lat="45.4255819" lon="11.8710419"><ele>9.0</ele><time>2026-04-18T07:51:48.823Z</time></trkpt><trkpt lat="45.4254332" lon="11.8709064"><ele>9.0</ele><time>2026-04-18T07:51:49.823Z</time></trkpt><trkpt lat="45.4252996" lon="11.870778"><ele>9.0</ele><time>2026-04-18T07:51:50.823Z</time></trkpt><trkpt lat="45.4251698" lon="11.8706597"><ele>9.0</ele><time>2026-04-18T07:51:51.823Z</time></trkpt><trkpt lat="45.4250472" lon="11.8705451"><ele>9.0</ele><time>2026-04-18T07:51:52.823Z</time></trkpt><trkpt lat="45.4249265" lon="11.8704388"><ele>9.0</ele><time>2026-04-18T07:51:53.823Z</time></trkpt><trkpt lat="45.4248054" lon="11.8703466"><ele>9.0</ele><time>2026-04-18T07:51:54.823Z</time></trkpt><trkpt lat="45.424684" lon="11.8702605"><ele>9.0</ele><time>2026-04-18T07:51:55.823Z</time></trkpt><trkpt lat="45.4245512" lon="11.870177"><ele>9.0</ele><time>2026-04-18T07:51:56.823Z</time></trkpt><trkpt lat="45.424413" lon="11.8700957"><ele>9.0</ele><time>2026-04-18T07:51:57.823Z</time></trkpt><trkpt lat="45.4242685" lon="11.870037"><ele>9.0</ele><time>2026-04-18T07:51:58.823Z</time></trkpt><trkpt lat="45.4241315" lon="11.870001"><ele>9.0</ele><time>2026-04-18T07:51:59.823Z</time></trkpt><trkpt lat="45.4239985" lon="11.8699757"><ele>9.0</ele><time>2026-04-18T07:52:00.823Z</time></trkpt><trkpt lat="45.4238656" lon="11.8699529"><ele>9.0</ele><time>2026-04-18T07:52:01.823Z</time></trkpt><trkpt lat="45.4237303" lon="11.869931"><ele>9.0</ele><time>2026-04-18T07:52:02.823Z</time></trkpt><trkpt lat="45.423595" lon="11.8699192"><ele>9.25</ele><time>2026-04-18T07:52:03.824Z</time></trkpt><trkpt lat="45.4234559" lon="11.8699217"><ele>9.5</ele><time>2026-04-18T07:52:04.823Z</time></trkpt><trkpt lat="45.4233191" lon="11.8699331"><ele>9.75</ele><time>2026-04-18T07:52:05.823Z</time></trkpt><trkpt lat="45.4231899" lon="11.8699531"><ele>10.0</ele><time>2026-04-18T07:52:06.823Z</time></trkpt><trkpt lat="45.4230591" lon="11.8699834"><ele>10.0</ele><time>2026-04-18T07:52:07.823Z</time></trkpt><trkpt lat="45.4229321" lon="11.8700192"><ele>10.0</ele><time>2026-04-18T07:52:08.823Z</time></trkpt><trkpt lat="45.422809" lon="11.8700605"><ele>10.0</ele><time>2026-04-18T07:52:09.823Z</time></trkpt><trkpt lat="45.422695" lon="11.8701017"><ele>10.0</ele><time>2026-04-18T07:52:10.823Z</time></trkpt><trkpt lat="45.4225877" lon="11.8701472"><ele>10.0</ele><time>2026-04-18T07:52:11.823Z</time></trkpt><trkpt lat="45.4224804" lon="11.8701965"><ele>10.0</ele><time>2026-04-18T07:52:12.824Z</time></trkpt><trkpt lat="45.4223765" lon="11.8702432"><ele>10.0</ele><time>2026-04-18T07:52:13.823Z</time></trkpt><trkpt lat="45.4222811" lon="11.8702792"><ele>10.0</ele><time>2026-04-18T07:52:14.823Z</time></trkpt><trkpt lat="45.4221919" lon="11.8702962"><ele>10.0</ele><time>2026-04-18T07:52:15.823Z</time></trkpt><trkpt lat="45.422106" lon="11.8703062"><ele>10.166666666666668</ele><time>2026-04-18T07:52:16.823Z</time></trkpt><trkpt lat="45.4220355" lon="11.8703264"><ele>10.333333333333334</ele><time>2026-04-18T07:52:17.823Z</time></trkpt><trkpt lat="45.421917" lon="11.8703622"><ele>10.5</ele><time>2026-04-18T07:52:19.823Z</time></trkpt><trkpt lat="45.42185" lon="11.8703662"><ele>10.666666666666666</ele><time>2026-04-18T07:52:20.823Z</time></trkpt><trkpt lat="45.4217736" lon="11.8703742"><ele>10.833333333333332</ele><time>2026-04-18T07:52:21.823Z</time></trkpt><trkpt lat="45.4216857" lon="11.8704101"><ele>11.0</ele><time>2026-04-18T07:52:22.823Z</time></trkpt><trkpt lat="45.4215894" lon="11.8704871"><ele>11.0</ele><time>2026-04-18T07:52:23.823Z</time></trkpt><trkpt lat="45.4214821" lon="11.8705729"><ele>11.0</ele><time>2026-04-18T07:52:24.823Z</time></trkpt><trkpt lat="45.4213706" lon="11.8706521"><ele>11.0</ele><time>2026-04-18T07:52:25.824Z</time></trkpt><trkpt lat="45.4212626" lon="11.8707471"><ele>11.0</ele><time>2026-04-18T07:52:26.823Z</time></trkpt><trkpt lat="45.4211612" lon="11.8708661"><ele>11.25</ele><time>2026-04-18T07:52:27.823Z</time></trkpt><trkpt lat="45.4210719" lon="11.8710032"><ele>11.5</ele><time>2026-04-18T07:52:28.823Z</time></trkpt><trkpt lat="45.4209887" lon="11.871154"><ele>11.75</ele><time>2026-04-18T07:52:29.823Z</time></trkpt><trkpt lat="45.4209103" lon="11.8713108"><ele>12.0</ele><time>2026-04-18T07:52:30.823Z</time></trkpt><trkpt lat="45.4208373" lon="11.87147"><ele>12.0</ele><time>2026-04-18T07:52:31.823Z</time></trkpt><trkpt lat="45.4207648" lon="11.8716332"><ele>12.0</ele><time>2026-04-18T07:52:32.823Z</time></trkpt><trkpt lat="45.4206993" lon="11.8717837"><ele>12.0</ele><time>2026-04-18T07:52:33.823Z</time></trkpt><trkpt lat="45.420638" lon="11.8719176"><ele>12.0</ele><time>2026-04-18T07:52:34.823Z</time></trkpt><trkpt lat="45.4205696" lon="11.8720244"><ele>11.8</ele><time>2026-04-18T07:52:35.823Z</time></trkpt><trkpt lat="45.4204933" lon="11.8720937"><ele>11.6</ele><time>2026-04-18T07:52:36.823Z</time></trkpt><trkpt lat="45.4204076" lon="11.8721244"><ele>11.4</ele><time>2026-04-18T07:52:37.823Z</time></trkpt><trkpt lat="45.4203172" lon="11.8721077"><ele>11.200000000000001</ele><time>2026-04-18T07:52:38.823Z</time></trkpt><trkpt lat="45.4202197" lon="11.8720359"><ele>11.0</ele><time>2026-04-18T07:52:39.823Z</time></trkpt><trkpt lat="45.4201151" lon="11.8719407"><ele>10.75</ele><time>2026-04-18T07:52:40.823Z</time></trkpt><trkpt lat="45.4199959" lon="11.8718124"><ele>10.5</ele><time>2026-04-18T07:52:41.823Z</time></trkpt><trkpt lat="45.4198806" lon="11.8717086"><ele>10.25</ele><time>2026-04-18T07:52:42.823Z</time></trkpt><trkpt lat="45.4197713" lon="11.8716146"><ele>10.0</ele><time>2026-04-18T07:52:43.823Z</time></trkpt><trkpt lat="45.4196687" lon="11.8715168"><ele>9.75</ele><time>2026-04-18T07:52:44.823Z</time></trkpt><trkpt lat="45.4195727" lon="11.8714014"><ele>9.5</ele><time>2026-04-18T07:52:45.823Z</time></trkpt><trkpt lat="45.4194919" lon="11.8712613"><ele>9.25</ele><time>2026-04-18T07:52:46.823Z</time></trkpt><trkpt lat="45.4194274" lon="11.8711066"><ele>9.0</ele><time>2026-04-18T07:52:47.823Z</time></trkpt><trkpt lat="45.4193786" lon="11.8709295"><ele>9.0</ele><time>2026-04-18T07:52:48.823Z</time></trkpt><trkpt lat="45.4193494" lon="11.8707314"><ele>9.0</ele><time>2026-04-18T07:52:49.823Z</time></trkpt><trkpt lat="45.4193442" lon="11.8705255"><ele>9.0</ele><time>2026-04-18T07:52:50.823Z</time></trkpt><trkpt lat="45.4193628" lon="11.8703219"><ele>9.0</ele><time>2026-04-18T07:52:51.823Z</time></trkpt><trkpt lat="45.4193889" lon="11.8701327"><ele>9.0</ele><time>2026-04-18T07:52:52.823Z</time></trkpt><trkpt lat="45.4194095" lon="11.8699547"><ele>9.0</ele><time>2026-04-18T07:52:53.823Z</time></trkpt><trkpt lat="45.4194293" lon="11.8697796"><ele>9.0</ele><time>2026-04-18T07:52:54.823Z</time></trkpt><trkpt lat="45.4194486" lon="11.8696072"><ele>9.0</ele><time>2026-04-18T07:52:55.823Z</time></trkpt><trkpt lat="45.4194736" lon="11.869422"><ele>9.2</ele><time>2026-04-18T07:52:56.823Z</time></trkpt><trkpt lat="45.4194919" lon="11.8692362"><ele>9.4</ele><time>2026-04-18T07:52:57.823Z</time></trkpt><trkpt lat="45.4195027" lon="11.8690734"><ele>9.6</ele><time>2026-04-18T07:52:58.823Z</time></trkpt><trkpt lat="45.4195093" lon="11.8689382"><ele>9.8</ele><time>2026-04-18T07:52:59.823Z</time></trkpt><trkpt lat="45.4195123" lon="11.8688255"><ele>10.0</ele><time>2026-04-18T07:53:00.823Z</time></trkpt><trkpt lat="45.4195098" lon="11.8687236"><ele>10.0</ele><time>2026-04-18T07:53:01.823Z</time></trkpt><trkpt lat="45.4195043" lon="11.8685948"><ele>10.0</ele><time>2026-04-18T07:53:03.823Z</time></trkpt><trkpt lat="45.4195377" lon="11.8684322"><ele>10.0</ele><time>2026-04-18T07:53:10.823Z</time></trkpt><trkpt lat="45.4195465" lon="11.8683315"><ele>10.0</ele><time>2026-04-18T07:53:11.823Z</time></trkpt><trkpt lat="45.4195324" lon="11.8682392"><ele>10.0</ele><time>2026-04-18T07:53:12.823Z</time></trkpt><trkpt lat="45.4194968" lon="11.8681529"><ele>10.0</ele><time>2026-04-18T07:53:13.823Z</time></trkpt><trkpt lat="45.419441" lon="11.8680831"><ele>10.0</ele><time>2026-04-18T07:53:14.823Z</time></trkpt><trkpt lat="45.419369" lon="11.8680433"><ele>10.0</ele><time>2026-04-18T07:53:15.823Z</time></trkpt><trkpt lat="45.4192875" lon="11.8680242"><ele>10.0</ele><time>2026-04-18T07:53:16.823Z</time></trkpt><trkpt lat="45.4192047" lon="11.8680018"><ele>10.0</ele><time>2026-04-18T07:53:17.823Z</time></trkpt><trkpt lat="45.4191221" lon="11.8679602"><ele>10.0</ele><time>2026-04-18T07:53:18.823Z</time></trkpt><trkpt lat="45.419053" lon="11.8678881"><ele>10.0</ele><time>2026-04-18T07:53:19.823Z</time></trkpt><trkpt lat="45.4190003" lon="11.8677956"><ele>10.0</ele><time>2026-04-18T07:53:20.823Z</time></trkpt><trkpt lat="45.4189489" lon="11.8676891"><ele>10.0</ele><time>2026-04-18T07:53:21.823Z</time></trkpt><trkpt lat="45.4188827" lon="11.8675605"><ele>10.0</ele><time>2026-04-18T07:53:22.823Z</time></trkpt><trkpt lat="45.4187929" lon="11.8674144"><ele>10.0</ele><time>2026-04-18T07:53:23.823Z</time></trkpt><trkpt lat="45.4186826" lon="11.8672681"><ele>10.333333333333334</ele><time>2026-04-18T07:53:24.823Z</time></trkpt><trkpt lat="45.4185733" lon="11.8671303"><ele>10.666666666666666</ele><time>2026-04-18T07:53:25.823Z</time></trkpt><trkpt lat="45.4184556" lon="11.8669802"><ele>11.0</ele><time>2026-04-18T07:53:26.823Z</time></trkpt><trkpt lat="45.4183359" lon="11.8668324"><ele>10.75</ele><time>2026-04-18T07:53:27.823Z</time></trkpt><trkpt lat="45.4182235" lon="11.8666951"><ele>10.5</ele><time>2026-04-18T07:53:28.823Z</time></trkpt><trkpt lat="45.4181201" lon="11.8665618"><ele>10.25</ele><time>2026-04-18T07:53:29.823Z</time></trkpt><trkpt lat="45.4180232" lon="11.8664331"><ele>10.0</ele><time>2026-04-18T07:53:30.823Z</time></trkpt><trkpt lat="45.4179317" lon="11.8663103"><ele>10.4</ele><time>2026-04-18T07:53:31.823Z</time></trkpt><trkpt lat="45.4178552" lon="11.8661924"><ele>10.8</ele><time>2026-04-18T07:53:32.823Z</time></trkpt><trkpt lat="45.4177834" lon="11.8660773"><ele>11.2</ele><time>2026-04-18T07:53:33.824Z</time></trkpt><trkpt lat="45.4177204" lon="11.8659724"><ele>11.6</ele><time>2026-04-18T07:53:34.823Z</time></trkpt><trkpt lat="45.4176618" lon="11.8658749"><ele>12.0</ele><time>2026-04-18T07:53:35.824Z</time></trkpt><trkpt lat="45.4176099" lon="11.8657842"><ele>12.0</ele><time>2026-04-18T07:53:36.823Z</time></trkpt><trkpt lat="45.4175627" lon="11.8656934"><ele>12.0</ele><time>2026-04-18T07:53:37.824Z</time></trkpt><trkpt lat="45.4175144" lon="11.865595"><ele>12.0</ele><time>2026-04-18T07:53:38.823Z</time></trkpt><trkpt lat="45.4174779" lon="11.8655009"><ele>12.0</ele><time>2026-04-18T07:53:39.823Z</time></trkpt><trkpt lat="45.417458" lon="11.8654051"><ele>12.0</ele><time>2026-04-18T07:53:40.823Z</time></trkpt><trkpt lat="45.4174475" lon="11.8652344"><ele>12.0</ele><time>2026-04-18T07:53:42.823Z</time></trkpt><trkpt lat="45.4174091" lon="11.8651102"><ele>12.2</ele><time>2026-04-18T07:53:44.823Z</time></trkpt><trkpt lat="45.4173411" lon="11.865038"><ele>12.399999999999999</ele><time>2026-04-18T07:53:46.823Z</time></trkpt><trkpt lat="45.4172584" lon="11.8648923"><ele>12.600000000000001</ele><time>2026-04-18T07:53:48.824Z</time></trkpt><trkpt lat="45.4172137" lon="11.8647673"><ele>12.8</ele><time>2026-04-18T07:53:49.823Z</time></trkpt><trkpt lat="45.417177" lon="11.8646231"><ele>13.0</ele><time>2026-04-18T07:53:50.823Z</time></trkpt><trkpt lat="45.4171407" lon="11.8644999"><ele>12.8</ele><time>2026-04-18T07:53:51.824Z</time></trkpt><trkpt lat="45.4171174" lon="11.8644066"><ele>12.600000000000001</ele><time>2026-04-18T07:53:52.823Z</time></trkpt><trkpt lat="45.4171067" lon="11.8642581"><ele>12.399999999999999</ele><time>2026-04-18T07:53:54.823Z</time></trkpt><trkpt lat="45.4171277" lon="11.8640943"><ele>12.2</ele><time>2026-04-18T07:53:56.823Z</time></trkpt><trkpt lat="45.4170705" lon="11.8639919"><ele>12.0</ele><time>2026-04-18T07:53:58.824Z</time></trkpt><trkpt lat="45.4170255" lon="11.8639207"><ele>12.0</ele><time>2026-04-18T07:54:02.823Z</time></trkpt><trkpt lat="45.4169666" lon="11.8638167"><ele>12.0</ele><time>2026-04-18T07:54:04.823Z</time></trkpt><trkpt lat="45.4169163" lon="11.8636983"><ele>12.0</ele><time>2026-04-18T07:54:05.823Z</time></trkpt><trkpt lat="45.4168447" lon="11.8635542"><ele>12.0</ele><time>2026-04-18T07:54:06.823Z</time></trkpt><trkpt lat="45.4167391" lon="11.8634263"><ele>12.0</ele><time>2026-04-18T07:54:07.824Z</time></trkpt><trkpt lat="45.4166117" lon="11.8633394"><ele>12.0</ele><time>2026-04-18T07:54:08.823Z</time></trkpt><trkpt lat="45.4164793" lon="11.8632955"><ele>12.0</ele><time>2026-04-18T07:54:09.823Z</time></trkpt><trkpt lat="45.4163392" lon="11.8632944"><ele>12.0</ele><time>2026-04-18T07:54:10.823Z</time></trkpt><trkpt lat="45.4162091" lon="11.863342"><ele>12.0</ele><time>2026-04-18T07:54:11.823Z</time></trkpt><trkpt lat="45.4160791" lon="11.863403"><ele>12.0</ele><time>2026-04-18T07:54:12.823Z</time></trkpt><trkpt lat="45.4159764" lon="11.8635068"><ele>12.0</ele><time>2026-04-18T07:54:13.823Z</time></trkpt><trkpt lat="45.4158685" lon="11.8636074"><ele>12.0</ele><time>2026-04-18T07:54:14.823Z</time></trkpt><trkpt lat="45.4157595" lon="11.8637054"><ele>12.25</ele><time>2026-04-18T07:54:15.823Z</time></trkpt><trkpt lat="45.41565" lon="11.86381"><ele>12.5</ele><time>2026-04-18T07:54:16.824Z</time></trkpt><trkpt lat="45.4155448" lon="11.8639116"><ele>12.75</ele><time>2026-04-18T07:54:17.824Z</time></trkpt><trkpt lat="45.415444" lon="11.8639998"><ele>13.0</ele><time>2026-04-18T07:54:18.823Z</time></trkpt><trkpt lat="45.41534" lon="11.8640766"><ele>12.25</ele><time>2026-04-18T07:54:19.823Z</time></trkpt><trkpt lat="45.4152338" lon="11.8641321"><ele>11.5</ele><time>2026-04-18T07:54:20.823Z</time></trkpt><trkpt lat="45.4151243" lon="11.8641777"><ele>10.75</ele><time>2026-04-18T07:54:21.823Z</time></trkpt><trkpt lat="45.4150091" lon="11.8642084"><ele>10.0</ele><time>2026-04-18T07:54:22.823Z</time></trkpt><trkpt lat="45.4148936" lon="11.8642289"><ele>10.0</ele><time>2026-04-18T07:54:23.823Z</time></trkpt><trkpt lat="45.4147771" lon="11.8642349"><ele>10.0</ele><time>2026-04-18T07:54:24.823Z</time></trkpt><trkpt lat="45.4146653" lon="11.8642324"><ele>10.0</ele><time>2026-04-18T07:54:25.823Z</time></trkpt><trkpt lat="45.4145554" lon="11.8642311"><ele>10.0</ele><time>2026-04-18T07:54:26.824Z</time></trkpt><trkpt lat="45.414444" lon="11.8642269"><ele>10.25</ele><time>2026-04-18T07:54:27.823Z</time></trkpt><trkpt lat="45.4143155" lon="11.8642108"><ele>10.5</ele><time>2026-04-18T07:54:28.823Z</time></trkpt><trkpt lat="45.4141888" lon="11.8641862"><ele>10.75</ele><time>2026-04-18T07:54:29.823Z</time></trkpt><trkpt lat="45.4140535" lon="11.8641652"><ele>11.0</ele><time>2026-04-18T07:54:30.823Z</time></trkpt><trkpt lat="45.4139262" lon="11.8641523"><ele>11.0</ele><time>2026-04-18T07:54:31.823Z</time></trkpt><trkpt lat="45.4138116" lon="11.8641315"><ele>11.0</ele><time>2026-04-18T07:54:32.823Z</time></trkpt><trkpt lat="45.4136957" lon="11.8641191"><ele>11.0</ele><time>2026-04-18T07:54:33.823Z</time></trkpt><trkpt lat="45.4135816" lon="11.8641089"><ele>11.0</ele><time>2026-04-18T07:54:34.823Z</time></trkpt><trkpt lat="45.413475" lon="11.8640971"><ele>11.0</ele><time>2026-04-18T07:54:35.823Z</time></trkpt><trkpt lat="45.4133643" lon="11.8640849"><ele>11.0</ele><time>2026-04-18T07:54:36.823Z</time></trkpt><trkpt lat="45.4132569" lon="11.8640777"><ele>11.0</ele><time>2026-04-18T07:54:37.823Z</time></trkpt><trkpt lat="45.4131631" lon="11.864069"><ele>11.0</ele><time>2026-04-18T07:54:38.823Z</time></trkpt><trkpt lat="45.4130795" lon="11.8640578"><ele>11.0</ele><time>2026-04-18T07:54:39.823Z</time></trkpt><trkpt lat="45.4129994" lon="11.8640494"><ele>11.0</ele><time>2026-04-18T07:54:40.823Z</time></trkpt><trkpt lat="45.4129237" lon="11.8640429"><ele>11.0</ele><time>2026-04-18T07:54:41.823Z</time></trkpt><trkpt lat="45.4128446" lon="11.8640326"><ele>11.0</ele><time>2026-04-18T07:54:42.823Z</time></trkpt><trkpt lat="45.4127639" lon="11.8640271"><ele>11.0</ele><time>2026-04-18T07:54:43.823Z</time></trkpt><trkpt lat="45.4126814" lon="11.8640202"><ele>11.0</ele><time>2026-04-18T07:54:44.823Z</time></trkpt><trkpt lat="45.4125967" lon="11.8640177"><ele>11.0</ele><time>2026-04-18T07:54:45.823Z</time></trkpt><trkpt lat="45.4125147" lon="11.8640098"><ele>11.0</ele><time>2026-04-18T07:54:46.823Z</time></trkpt><trkpt lat="45.4124277" lon="11.8640017"><ele>11.0</ele><time>2026-04-18T07:54:47.823Z</time></trkpt><trkpt lat="45.4123417" lon="11.863991"><ele>11.0</ele><time>2026-04-18T07:54:48.823Z</time></trkpt><trkpt lat="45.4122706" lon="11.8639718"><ele>11.0</ele><time>2026-04-18T07:54:49.823Z</time></trkpt><trkpt lat="45.4121601" lon="11.863922"><ele>11.0</ele><time>2026-04-18T07:54:51.823Z</time></trkpt><trkpt lat="45.4120857" lon="11.8638507"><ele>11.4</ele><time>2026-04-18T07:54:53.823Z</time></trkpt><trkpt lat="45.4119997" lon="11.8637491"><ele>11.8</ele><time>2026-04-18T07:54:55.823Z</time></trkpt><trkpt lat="45.4119418" lon="11.8636688"><ele>12.200000000000001</ele><time>2026-04-18T07:54:58.823Z</time></trkpt><trkpt lat="45.4118938" lon="11.8635866"><ele>12.600000000000001</ele><time>2026-04-18T07:55:01.823Z</time></trkpt><trkpt lat="45.4118388" lon="11.8634996"><ele>13.0</ele><time>2026-04-18T07:55:03.823Z</time></trkpt><trkpt lat="45.4117821" lon="11.8633565"><ele>12.833333333333332</ele><time>2026-04-18T07:55:05.824Z</time></trkpt><trkpt lat="45.4117578" lon="11.8632602"><ele>12.666666666666666</ele><time>2026-04-18T07:55:06.823Z</time></trkpt><trkpt lat="45.4117383" lon="11.8631476"><ele>12.5</ele><time>2026-04-18T07:55:07.823Z</time></trkpt><trkpt lat="45.4117235" lon="11.8630272"><ele>12.333333333333332</ele><time>2026-04-18T07:55:08.823Z</time></trkpt><trkpt lat="45.4117075" lon="11.8628951"><ele>12.166666666666666</ele><time>2026-04-18T07:55:09.823Z</time></trkpt><trkpt lat="45.4116912" lon="11.8627534"><ele>12.0</ele><time>2026-04-18T07:55:10.823Z</time></trkpt><trkpt lat="45.4116782" lon="11.862613"><ele>12.0</ele><time>2026-04-18T07:55:11.823Z</time></trkpt><trkpt lat="45.4116652" lon="11.8624791"><ele>12.0</ele><time>2026-04-18T07:55:12.823Z</time></trkpt><trkpt lat="45.4116515" lon="11.8623479"><ele>12.0</ele><time>2026-04-18T07:55:13.823Z</time></trkpt><trkpt lat="45.4116411" lon="11.8622217"><ele>12.0</ele><time>2026-04-18T07:55:14.823Z</time></trkpt><trkpt lat="45.4116258" lon="11.8620893"><ele>12.0</ele><time>2026-04-18T07:55:15.824Z</time></trkpt><trkpt lat="45.4116118" lon="11.8619567"><ele>12.0</ele><time>2026-04-18T07:55:16.823Z</time></trkpt><trkpt lat="45.411595" lon="11.861823"><ele>12.0</ele><time>2026-04-18T07:55:17.823Z</time></trkpt><trkpt lat="45.4115803" lon="11.8616858"><ele>12.0</ele><time>2026-04-18T07:55:18.823Z</time></trkpt><trkpt lat="45.4115623" lon="11.8615402"><ele>12.0</ele><time>2026-04-18T07:55:19.823Z</time></trkpt><trkpt lat="45.4115461" lon="11.8613849"><ele>12.0</ele><time>2026-04-18T07:55:20.823Z</time></trkpt><trkpt lat="45.41153" lon="11.8612442"><ele>11.8</ele><time>2026-04-18T07:55:21.823Z</time></trkpt><trkpt lat="45.4115176" lon="11.8611032"><ele>11.6</ele><time>2026-04-18T07:55:22.823Z</time></trkpt><trkpt lat="45.4115058" lon="11.8609662"><ele>11.4</ele><time>2026-04-18T07:55:23.823Z</time></trkpt><trkpt lat="45.4114951" lon="11.8608418"><ele>11.200000000000001</ele><time>2026-04-18T07:55:24.823Z</time></trkpt><trkpt lat="45.4114874" lon="11.860718"><ele>11.0</ele><time>2026-04-18T07:55:25.823Z</time></trkpt><trkpt lat="45.4114957" lon="11.8605562"><ele>11.5</ele><time>2026-04-18T07:55:26.823Z</time></trkpt><trkpt lat="45.411503" lon="11.8603625"><ele>12.0</ele><time>2026-04-18T07:55:27.823Z</time></trkpt><trkpt lat="45.4115075" lon="11.8601743"><ele>12.5</ele><time>2026-04-18T07:55:28.823Z</time></trkpt><trkpt lat="45.4115074" lon="11.8600019"><ele>13.0</ele><time>2026-04-18T07:55:29.823Z</time></trkpt><trkpt lat="45.4115002" lon="11.8598332"><ele>13.0</ele><time>2026-04-18T07:55:30.823Z</time></trkpt><trkpt lat="45.411483" lon="11.8596706"><ele>13.0</ele><time>2026-04-18T07:55:31.823Z</time></trkpt><trkpt lat="45.4114587" lon="11.8595166"><ele>13.0</ele><time>2026-04-18T07:55:32.823Z</time></trkpt><trkpt lat="45.4114339" lon="11.8593698"><ele>13.0</ele><time>2026-04-18T07:55:33.823Z</time></trkpt><trkpt lat="45.4114096" lon="11.8592334"><ele>13.0</ele><time>2026-04-18T07:55:34.824Z</time></trkpt><trkpt lat="45.4113866" lon="11.859099"><ele>13.0</ele><time>2026-04-18T07:55:35.823Z</time></trkpt><trkpt lat="45.4113619" lon="11.8589637"><ele>13.0</ele><time>2026-04-18T07:55:36.823Z</time></trkpt><trkpt lat="45.4113361" lon="11.8588197"><ele>13.0</ele><time>2026-04-18T07:55:37.823Z</time></trkpt><trkpt lat="45.411314" lon="11.8586699"><ele>13.0</ele><time>2026-04-18T07:55:38.823Z</time></trkpt><trkpt lat="45.411294" lon="11.8585208"><ele>13.0</ele><time>2026-04-18T07:55:39.823Z</time></trkpt><trkpt lat="45.4112731" lon="11.858371"><ele>12.8</ele><time>2026-04-18T07:55:40.823Z</time></trkpt><trkpt lat="45.4112504" lon="11.8582235"><ele>12.600000000000001</ele><time>2026-04-18T07:55:41.823Z</time></trkpt><trkpt lat="45.4112278" lon="11.8580775"><ele>12.399999999999999</ele><time>2026-04-18T07:55:42.823Z</time></trkpt><trkpt lat="45.411203" lon="11.8579313"><ele>12.2</ele><time>2026-04-18T07:55:43.823Z</time></trkpt><trkpt lat="45.4111788" lon="11.8577872"><ele>12.0</ele><time>2026-04-18T07:55:44.823Z</time></trkpt><trkpt lat="45.4111551" lon="11.8576407"><ele>12.0</ele><time>2026-04-18T07:55:45.823Z</time></trkpt><trkpt lat="45.4111291" lon="11.8574899"><ele>12.0</ele><time>2026-04-18T07:55:46.823Z</time></trkpt><trkpt lat="45.4111011" lon="11.8573293"><ele>12.0</ele><time>2026-04-18T07:55:47.823Z</time></trkpt><trkpt lat="45.4110715" lon="11.8571603"><ele>12.0</ele><time>2026-04-18T07:55:48.823Z</time></trkpt><trkpt lat="45.4110426" lon="11.8569788"><ele>12.0</ele><time>2026-04-18T07:55:49.823Z</time></trkpt><trkpt lat="45.411008" lon="11.8567934"><ele>12.0</ele><time>2026-04-18T07:55:50.823Z</time></trkpt><trkpt lat="45.4109776" lon="11.8566028"><ele>12.0</ele><time>2026-04-18T07:55:51.823Z</time></trkpt><trkpt lat="45.4109453" lon="11.8564126"><ele>12.0</ele><time>2026-04-18T07:55:52.823Z</time></trkpt><trkpt lat="45.4109128" lon="11.8562241"><ele>12.75</ele><time>2026-04-18T07:55:53.823Z</time></trkpt><trkpt lat="45.4108835" lon="11.8560461"><ele>13.5</ele><time>2026-04-18T07:55:54.823Z</time></trkpt><trkpt lat="45.4108529" lon="11.8558621"><ele>14.25</ele><time>2026-04-18T07:55:55.823Z</time></trkpt><trkpt lat="45.4108177" lon="11.8556696"><ele>15.0</ele><time>2026-04-18T07:55:56.823Z</time></trkpt><trkpt lat="45.4107878" lon="11.85548"><ele>15.0</ele><time>2026-04-18T07:55:57.823Z</time></trkpt><trkpt lat="45.410757" lon="11.8552942"><ele>15.0</ele><time>2026-04-18T07:55:58.823Z</time></trkpt><trkpt lat="45.4107322" lon="11.8551074"><ele>15.0</ele><time>2026-04-18T07:55:59.823Z</time></trkpt><trkpt lat="45.4107129" lon="11.8549323"><ele>15.0</ele><time>2026-04-18T07:56:00.823Z</time></trkpt><trkpt lat="45.4107004" lon="11.8547612"><ele>15.0</ele><time>2026-04-18T07:56:01.823Z</time></trkpt><trkpt lat="45.4106858" lon="11.8545913"><ele>15.0</ele><time>2026-04-18T07:56:02.824Z</time></trkpt><trkpt lat="45.4106717" lon="11.8544195"><ele>15.0</ele><time>2026-04-18T07:56:03.823Z</time></trkpt><trkpt lat="45.4106561" lon="11.8542525"><ele>15.0</ele><time>2026-04-18T07:56:04.823Z</time></trkpt><trkpt lat="45.4106436" lon="11.8540934"><ele>15.0</ele><time>2026-04-18T07:56:05.823Z</time></trkpt><trkpt lat="45.4106335" lon="11.8539375"><ele>15.0</ele><time>2026-04-18T07:56:06.823Z</time></trkpt><trkpt lat="45.4106287" lon="11.8537836"><ele>15.0</ele><time>2026-04-18T07:56:07.823Z</time></trkpt><trkpt lat="45.4106284" lon="11.8536201"><ele>15.0</ele><time>2026-04-18T07:56:08.823Z</time></trkpt><trkpt lat="45.4106255" lon="11.8534478"><ele>15.0</ele><time>2026-04-18T07:56:09.824Z</time></trkpt><trkpt lat="45.4106205" lon="11.85328"><ele>15.0</ele><time>2026-04-18T07:56:10.823Z</time></trkpt><trkpt lat="45.4106194" lon="11.8531071"><ele>15.0</ele><time>2026-04-18T07:56:11.823Z</time></trkpt><trkpt lat="45.410621" lon="11.8529416"><ele>15.0</ele><time>2026-04-18T07:56:12.823Z</time></trkpt><trkpt lat="45.4106241" lon="11.8527803"><ele>14.6</ele><time>2026-04-18T07:56:13.823Z</time></trkpt><trkpt lat="45.4106294" lon="11.852614"><ele>14.2</ele><time>2026-04-18T07:56:14.823Z</time></trkpt><trkpt lat="45.4106313" lon="11.8524578"><ele>13.8</ele><time>2026-04-18T07:56:15.823Z</time></trkpt><trkpt lat="45.4106357" lon="11.8523038"><ele>13.4</ele><time>2026-04-18T07:56:16.823Z</time></trkpt><trkpt lat="45.4106365" lon="11.8521495"><ele>13.0</ele><time>2026-04-18T07:56:17.823Z</time></trkpt><trkpt lat="45.4106384" lon="11.8520006"><ele>13.0</ele><time>2026-04-18T07:56:18.824Z</time></trkpt><trkpt lat="45.4106389" lon="11.8518575"><ele>13.0</ele><time>2026-04-18T07:56:19.824Z</time></trkpt><trkpt lat="45.41064" lon="11.851713"><ele>13.0</ele><time>2026-04-18T07:56:20.823Z</time></trkpt><trkpt lat="45.4106438" lon="11.851568"><ele>13.0</ele><time>2026-04-18T07:56:21.823Z</time></trkpt><trkpt lat="45.4106464" lon="11.8514153"><ele>13.0</ele><time>2026-04-18T07:56:22.823Z</time></trkpt><trkpt lat="45.4106492" lon="11.8512578"><ele>12.5</ele><time>2026-04-18T07:56:23.823Z</time></trkpt><trkpt lat="45.4106543" lon="11.8510892"><ele>12.0</ele><time>2026-04-18T07:56:24.823Z</time></trkpt><trkpt lat="45.4106651" lon="11.8509233"><ele>11.5</ele><time>2026-04-18T07:56:25.823Z</time></trkpt><trkpt lat="45.410674" lon="11.8507597"><ele>11.0</ele><time>2026-04-18T07:56:26.823Z</time></trkpt><trkpt lat="45.4106844" lon="11.8506068"><ele>11.0</ele><time>2026-04-18T07:56:27.823Z</time></trkpt><trkpt lat="45.4106939" lon="11.8504661"><ele>11.0</ele><time>2026-04-18T07:56:28.823Z</time></trkpt><trkpt lat="45.4107087" lon="11.8503288"><ele>11.0</ele><time>2026-04-18T07:56:29.823Z</time></trkpt><trkpt lat="45.4107207" lon="11.8501881"><ele>11.0</ele><time>2026-04-18T07:56:30.823Z</time></trkpt><trkpt lat="45.4107371" lon="11.8500504"><ele>11.0</ele><time>2026-04-18T07:56:31.824Z</time></trkpt><trkpt lat="45.4107569" lon="11.8499132"><ele>11.4</ele><time>2026-04-18T07:56:32.823Z</time></trkpt><trkpt lat="45.4107845" lon="11.8497728"><ele>11.8</ele><time>2026-04-18T07:56:33.824Z</time></trkpt><trkpt lat="45.4108055" lon="11.8496302"><ele>12.200000000000001</ele><time>2026-04-18T07:56:34.823Z</time></trkpt><trkpt lat="45.4108194" lon="11.8494988"><ele>12.600000000000001</ele><time>2026-04-18T07:56:35.823Z</time></trkpt><trkpt lat="45.4108346" lon="11.8493696"><ele>13.0</ele><time>2026-04-18T07:56:36.823Z</time></trkpt><trkpt lat="45.4108463" lon="11.8492431"><ele>13.166666666666666</ele><time>2026-04-18T07:56:37.823Z</time></trkpt><trkpt lat="45.4108524" lon="11.8491242"><ele>13.333333333333332</ele><time>2026-04-18T07:56:38.823Z</time></trkpt><trkpt lat="45.4108546" lon="11.8490126"><ele>13.5</ele><time>2026-04-18T07:56:39.823Z</time></trkpt><trkpt lat="45.4108568" lon="11.8489078"><ele>13.666666666666668</ele><time>2026-04-18T07:56:40.823Z</time></trkpt><trkpt lat="45.4108615" lon="11.8488047"><ele>13.833333333333334</ele><time>2026-04-18T07:56:41.823Z</time></trkpt><trkpt lat="45.410873" lon="11.8486966"><ele>14.0</ele><time>2026-04-18T07:56:42.823Z</time></trkpt><trkpt lat="45.4108786" lon="11.8485835"><ele>13.6</ele><time>2026-04-18T07:56:43.823Z</time></trkpt><trkpt lat="45.4108881" lon="11.8484556"><ele>13.2</ele><time>2026-04-18T07:56:44.824Z</time></trkpt><trkpt lat="45.4109066" lon="11.8483269"><ele>12.799999999999999</ele><time>2026-04-18T07:56:45.824Z</time></trkpt><trkpt lat="45.4109421" lon="11.8481955"><ele>12.399999999999999</ele><time>2026-04-18T07:56:46.823Z</time></trkpt><trkpt lat="45.4109771" lon="11.8480663"><ele>12.0</ele><time>2026-04-18T07:56:47.823Z</time></trkpt><trkpt lat="45.4110071" lon="11.84793"><ele>12.0</ele><time>2026-04-18T07:56:48.823Z</time></trkpt><trkpt lat="45.4110289" lon="11.8477934"><ele>12.0</ele><time>2026-04-18T07:56:49.823Z</time></trkpt><trkpt lat="45.4110527" lon="11.847655"><ele>12.0</ele><time>2026-04-18T07:56:50.823Z</time></trkpt><trkpt lat="45.4110744" lon="11.8475147"><ele>12.0</ele><time>2026-04-18T07:56:51.823Z</time></trkpt><trkpt lat="45.4110941" lon="11.8473888"><ele>12.0</ele><time>2026-04-18T07:56:52.823Z</time></trkpt><trkpt lat="45.4111121" lon="11.847272"><ele>12.0</ele><time>2026-04-18T07:56:53.823Z</time></trkpt><trkpt lat="45.4111324" lon="11.84716"><ele>12.0</ele><time>2026-04-18T07:56:54.824Z</time></trkpt><trkpt lat="45.411151" lon="11.8470446"><ele>12.0</ele><time>2026-04-18T07:56:55.823Z</time></trkpt><trkpt lat="45.4111705" lon="11.846922"><ele>12.0</ele><time>2026-04-18T07:56:56.823Z</time></trkpt><trkpt lat="45.4111886" lon="11.8468051"><ele>12.0</ele><time>2026-04-18T07:56:57.823Z</time></trkpt><trkpt lat="45.4112022" lon="11.8467001"><ele>12.0</ele><time>2026-04-18T07:56:58.823Z</time></trkpt><trkpt lat="45.4112181" lon="11.8466124"><ele>12.0</ele><time>2026-04-18T07:56:59.823Z</time></trkpt><trkpt lat="45.4112337" lon="11.846487"><ele>12.0</ele><time>2026-04-18T07:57:01.823Z</time></trkpt><trkpt lat="45.4112476" lon="11.8463903"><ele>12.0</ele><time>2026-04-18T07:57:03.823Z</time></trkpt><trkpt lat="45.4112596" lon="11.8462949"><ele>12.0</ele><time>2026-04-18T07:57:05.823Z</time></trkpt><trkpt lat="45.4112796" lon="11.8461713"><ele>12.0</ele><time>2026-04-18T07:57:07.823Z</time></trkpt><trkpt lat="45.4112911" lon="11.8460365"><ele>12.0</ele><time>2026-04-18T07:57:09.823Z</time></trkpt><trkpt lat="45.4113056" lon="11.8458803"><ele>12.0</ele><time>2026-04-18T07:57:11.823Z</time></trkpt><trkpt lat="45.4113201" lon="11.8457497"><ele>12.0</ele><time>2026-04-18T07:57:13.823Z</time></trkpt><trkpt lat="45.4113337" lon="11.8456207"><ele>12.0</ele><time>2026-04-18T07:57:16.823Z</time></trkpt><trkpt lat="45.4113466" lon="11.845499"><ele>12.0</ele><time>2026-04-18T07:57:19.823Z</time></trkpt><trkpt lat="45.4113577" lon="11.8453861"><ele>12.0</ele><time>2026-04-18T07:57:21.823Z</time></trkpt><trkpt lat="45.4113721" lon="11.8452835"><ele>12.0</ele><time>2026-04-18T07:57:23.823Z</time></trkpt><trkpt lat="45.4113878" lon="11.8450798"><ele>11.8</ele><time>2026-04-18T07:57:25.823Z</time></trkpt><trkpt lat="45.4114038" lon="11.8449597"><ele>11.6</ele><time>2026-04-18T07:57:26.824Z</time></trkpt><trkpt lat="45.4114216" lon="11.8448232"><ele>11.4</ele><time>2026-04-18T07:57:27.823Z</time></trkpt><trkpt lat="45.4114375" lon="11.8446688"><ele>11.200000000000001</ele><time>2026-04-18T07:57:28.823Z</time></trkpt><trkpt lat="45.4114523" lon="11.844529"><ele>11.0</ele><time>2026-04-18T07:57:29.823Z</time></trkpt><trkpt lat="45.4114715" lon="11.844409"><ele>11.0</ele><time>2026-04-18T07:57:30.823Z</time></trkpt><trkpt lat="45.4114883" lon="11.8443013"><ele>11.0</ele><time>2026-04-18T07:57:31.823Z</time></trkpt><trkpt lat="45.4115086" lon="11.8441966"><ele>11.0</ele><time>2026-04-18T07:57:32.823Z</time></trkpt><trkpt lat="45.411527" lon="11.8440814"><ele>11.0</ele><time>2026-04-18T07:57:33.823Z</time></trkpt><trkpt lat="45.4115434" lon="11.8439498"><ele>11.0</ele><time>2026-04-18T07:57:34.823Z</time></trkpt><trkpt lat="45.4115608" lon="11.8438108"><ele>11.0</ele><time>2026-04-18T07:57:35.823Z</time></trkpt><trkpt lat="45.411583" lon="11.8436604"><ele>11.0</ele><time>2026-04-18T07:57:36.823Z</time></trkpt><trkpt lat="45.4116094" lon="11.8435042"><ele>11.0</ele><time>2026-04-18T07:57:37.823Z</time></trkpt><trkpt lat="45.411646" lon="11.8433429"><ele>11.0</ele><time>2026-04-18T07:57:38.823Z</time></trkpt><trkpt lat="45.4117046" lon="11.8431676"><ele>11.0</ele><time>2026-04-18T07:57:39.823Z</time></trkpt><trkpt lat="45.4117587" lon="11.8430019"><ele>11.200000000000001</ele><time>2026-04-18T07:57:40.823Z</time></trkpt><trkpt lat="45.4118072" lon="11.8428486"><ele>11.4</ele><time>2026-04-18T07:57:41.823Z</time></trkpt><trkpt lat="45.4118562" lon="11.8427174"><ele>11.6</ele><time>2026-04-18T07:57:42.823Z</time></trkpt><trkpt lat="45.4119036" lon="11.8425965"><ele>11.8</ele><time>2026-04-18T07:57:43.823Z</time></trkpt><trkpt lat="45.4119518" lon="11.842474"><ele>12.0</ele><time>2026-04-18T07:57:44.823Z</time></trkpt><trkpt lat="45.411996" lon="11.8423487"><ele>12.2</ele><time>2026-04-18T07:57:45.823Z</time></trkpt><trkpt lat="45.4120427" lon="11.8422227"><ele>12.399999999999999</ele><time>2026-04-18T07:57:46.823Z</time></trkpt><trkpt lat="45.4120907" lon="11.8420933"><ele>12.600000000000001</ele><time>2026-04-18T07:57:47.823Z</time></trkpt><trkpt lat="45.4121413" lon="11.8419634"><ele>12.8</ele><time>2026-04-18T07:57:48.823Z</time></trkpt><trkpt lat="45.4121857" lon="11.8418509"><ele>13.0</ele><time>2026-04-18T07:57:49.823Z</time></trkpt><trkpt lat="45.4122353" lon="11.8417288"><ele>13.2</ele><time>2026-04-18T07:57:50.823Z</time></trkpt><trkpt lat="45.4122866" lon="11.8416069"><ele>13.4</ele><time>2026-04-18T07:57:51.823Z</time></trkpt><trkpt lat="45.4123423" lon="11.8414773"><ele>13.599999999999998</ele><time>2026-04-18T07:57:52.824Z</time></trkpt><trkpt lat="45.412398" lon="11.8413428"><ele>13.799999999999999</ele><time>2026-04-18T07:57:53.823Z</time></trkpt><trkpt lat="45.4124584" lon="11.8412107"><ele>14.0</ele><time>2026-04-18T07:57:54.823Z</time></trkpt><trkpt lat="45.412517" lon="11.8410911"><ele>14.000000000000002</ele><time>2026-04-18T07:57:55.823Z</time></trkpt><trkpt lat="45.4125754" lon="11.8409821"><ele>14.0</ele><time>2026-04-18T07:57:56.823Z</time></trkpt><trkpt lat="45.4126257" lon="11.8408762"><ele>14.0</ele><time>2026-04-18T07:57:57.823Z</time></trkpt><trkpt lat="45.4126682" lon="11.8407787"><ele>14.0</ele><time>2026-04-18T07:57:58.823Z</time></trkpt><trkpt lat="45.4127077" lon="11.8406844"><ele>14.000000000000002</ele><time>2026-04-18T07:57:59.823Z</time></trkpt><trkpt lat="45.412748" lon="11.8405943"><ele>14.0</ele><time>2026-04-18T07:58:00.823Z</time></trkpt><trkpt lat="45.4127939" lon="11.840487"><ele>13.833333333333334</ele><time>2026-04-18T07:58:01.823Z</time></trkpt><trkpt lat="45.412834" lon="11.8403611"><ele>13.666666666666668</ele><time>2026-04-18T07:58:02.823Z</time></trkpt><trkpt lat="45.4128688" lon="11.8402418"><ele>13.5</ele><time>2026-04-18T07:58:03.823Z</time></trkpt><trkpt lat="45.4128939" lon="11.8401254"><ele>13.333333333333332</ele><time>2026-04-18T07:58:04.824Z</time></trkpt><trkpt lat="45.412918" lon="11.8400151"><ele>13.166666666666666</ele><time>2026-04-18T07:58:05.823Z</time></trkpt><trkpt lat="45.4129421" lon="11.8399004"><ele>13.0</ele><time>2026-04-18T07:58:06.823Z</time></trkpt><trkpt lat="45.4129692" lon="11.8397853"><ele>13.0</ele><time>2026-04-18T07:58:07.823Z</time></trkpt><trkpt lat="45.4130012" lon="11.8396633"><ele>13.0</ele><time>2026-04-18T07:58:08.823Z</time></trkpt><trkpt lat="45.4130356" lon="11.8395373"><ele>13.0</ele><time>2026-04-18T07:58:09.823Z</time></trkpt><trkpt lat="45.4130777" lon="11.8394079"><ele>13.0</ele><time>2026-04-18T07:58:10.823Z</time></trkpt><trkpt lat="45.4131199" lon="11.8392771"><ele>13.0</ele><time>2026-04-18T07:58:11.823Z</time></trkpt><trkpt lat="45.4131628" lon="11.8391417"><ele>13.0</ele><time>2026-04-18T07:58:12.824Z</time></trkpt><trkpt lat="45.4132001" lon="11.8390041"><ele>13.0</ele><time>2026-04-18T07:58:13.823Z</time></trkpt><trkpt lat="45.4132439" lon="11.8388709"><ele>13.0</ele><time>2026-04-18T07:58:14.823Z</time></trkpt><trkpt lat="45.4132934" lon="11.8387464"><ele>13.0</ele><time>2026-04-18T07:58:15.823Z</time></trkpt><trkpt lat="45.4133391" lon="11.8386228"><ele>13.0</ele><time>2026-04-18T07:58:16.823Z</time></trkpt><trkpt lat="45.4133803" lon="11.838502"><ele>13.2</ele><time>2026-04-18T07:58:17.823Z</time></trkpt><trkpt lat="45.4134237" lon="11.8383878"><ele>13.4</ele><time>2026-04-18T07:58:18.823Z</time></trkpt><trkpt lat="45.4134656" lon="11.8382695"><ele>13.599999999999998</ele><time>2026-04-18T07:58:19.823Z</time></trkpt><trkpt lat="45.4135106" lon="11.8381541"><ele>13.799999999999999</ele><time>2026-04-18T07:58:20.823Z</time></trkpt><trkpt lat="45.4135611" lon="11.8380292"><ele>14.0</ele><time>2026-04-18T07:58:21.823Z</time></trkpt><trkpt lat="45.4136119" lon="11.8379079"><ele>14.000000000000002</ele><time>2026-04-18T07:58:22.823Z</time></trkpt><trkpt lat="45.4136598" lon="11.8377972"><ele>14.0</ele><time>2026-04-18T07:58:23.823Z</time></trkpt><trkpt lat="45.4137052" lon="11.8376929"><ele>14.0</ele><time>2026-04-18T07:58:24.823Z</time></trkpt><trkpt lat="45.4137451" lon="11.8375969"><ele>14.0</ele><time>2026-04-18T07:58:25.823Z</time></trkpt><trkpt lat="45.4137864" lon="11.8374964"><ele>14.000000000000002</ele><time>2026-04-18T07:58:26.823Z</time></trkpt><trkpt lat="45.4138262" lon="11.8373965"><ele>14.0</ele><time>2026-04-18T07:58:27.823Z</time></trkpt><trkpt lat="45.4138687" lon="11.8372936"><ele>13.833333333333334</ele><time>2026-04-18T07:58:28.823Z</time></trkpt><trkpt lat="45.4139128" lon="11.8371845"><ele>13.666666666666668</ele><time>2026-04-18T07:58:29.823Z</time></trkpt><trkpt lat="45.4139501" lon="11.8370772"><ele>13.5</ele><time>2026-04-18T07:58:30.823Z</time></trkpt><trkpt lat="45.4139874" lon="11.8369765"><ele>13.333333333333332</ele><time>2026-04-18T07:58:31.823Z</time></trkpt><trkpt lat="45.4140239" lon="11.8368719"><ele>13.166666666666666</ele><time>2026-04-18T07:58:32.824Z</time></trkpt><trkpt lat="45.4140608" lon="11.8367649"><ele>13.0</ele><time>2026-04-18T07:58:33.823Z</time></trkpt><trkpt lat="45.4141015" lon="11.8366567"><ele>13.0</ele><time>2026-04-18T07:58:34.823Z</time></trkpt><trkpt lat="45.4141402" lon="11.8365337"><ele>13.0</ele><time>2026-04-18T07:58:35.823Z</time></trkpt><trkpt lat="45.4141793" lon="11.8364142"><ele>13.0</ele><time>2026-04-18T07:58:36.823Z</time></trkpt><trkpt lat="45.4142252" lon="11.8362989"><ele>13.0</ele><time>2026-04-18T07:58:37.823Z</time></trkpt><trkpt lat="45.4142702" lon="11.8361839"><ele>13.0</ele><time>2026-04-18T07:58:38.823Z</time></trkpt><trkpt lat="45.4143129" lon="11.8360757"><ele>12.999999999999998</ele><time>2026-04-18T07:58:39.823Z</time></trkpt><trkpt lat="45.4143524" lon="11.8359701"><ele>13.0</ele><time>2026-04-18T07:58:40.823Z</time></trkpt><trkpt lat="45.4143924" lon="11.8358766"><ele>13.0</ele><time>2026-04-18T07:58:41.823Z</time></trkpt><trkpt lat="45.4144307" lon="11.8357889"><ele>13.0</ele><time>2026-04-18T07:58:42.823Z</time></trkpt><trkpt lat="45.4144722" lon="11.8356838"><ele>12.999999999999998</ele><time>2026-04-18T07:58:43.823Z</time></trkpt><trkpt lat="45.414518" lon="11.8355525"><ele>13.0</ele><time>2026-04-18T07:58:44.823Z</time></trkpt><trkpt lat="45.4145613" lon="11.8354414"><ele>13.0</ele><time>2026-04-18T07:58:45.823Z</time></trkpt><trkpt lat="45.4146046" lon="11.8353406"><ele>13.0</ele><time>2026-04-18T07:58:46.823Z</time></trkpt><trkpt lat="45.4146347" lon="11.8352471"><ele>13.0</ele><time>2026-04-18T07:58:47.823Z</time></trkpt><trkpt lat="45.4146945" lon="11.8351057"><ele>13.0</ele><time>2026-04-18T07:58:49.823Z</time></trkpt><trkpt lat="45.4147395" lon="11.8349529"><ele>13.0</ele><time>2026-04-18T07:58:51.823Z</time></trkpt><trkpt lat="45.4147748" lon="11.8348452"><ele>12.999999999999998</ele><time>2026-04-18T07:58:52.823Z</time></trkpt><trkpt lat="45.4148144" lon="11.8347387"><ele>13.0</ele><time>2026-04-18T07:58:53.823Z</time></trkpt><trkpt lat="45.414849" lon="11.8346482"><ele>13.0</ele><time>2026-04-18T07:58:54.823Z</time></trkpt><trkpt lat="45.4148818" lon="11.8345659"><ele>13.0</ele><time>2026-04-18T07:58:55.823Z</time></trkpt><trkpt lat="45.4149191" lon="11.8344743"><ele>12.999999999999998</ele><time>2026-04-18T07:58:57.823Z</time></trkpt><trkpt lat="45.414974" lon="11.8343328"><ele>13.0</ele><time>2026-04-18T07:59:00.823Z</time></trkpt><trkpt lat="45.4150065" lon="11.8342476"><ele>13.166666666666666</ele><time>2026-04-18T07:59:02.823Z</time></trkpt><trkpt lat="45.4150422" lon="11.8341237"><ele>13.333333333333332</ele><time>2026-04-18T07:59:05.823Z</time></trkpt><trkpt lat="45.4150769" lon="11.8340142"><ele>13.5</ele><time>2026-04-18T07:59:08.823Z</time></trkpt><trkpt lat="45.4151224" lon="11.8338663"><ele>13.666666666666668</ele><time>2026-04-18T07:59:10.823Z</time></trkpt><trkpt lat="45.415158" lon="11.8337716"><ele>13.833333333333334</ele><time>2026-04-18T07:59:13.823Z</time></trkpt><trkpt lat="45.4151938" lon="11.8336798"><ele>14.0</ele><time>2026-04-18T07:59:15.823Z</time></trkpt><trkpt lat="45.415232" lon="11.8335613"><ele>14.166666666666668</ele><time>2026-04-18T07:59:17.823Z</time></trkpt><trkpt lat="45.4152591" lon="11.8334296"><ele>14.333333333333334</ele><time>2026-04-18T07:59:19.823Z</time></trkpt><trkpt lat="45.4152813" lon="11.8333439"><ele>14.5</ele><time>2026-04-18T07:59:21.823Z</time></trkpt><trkpt lat="45.4152713" lon="11.8332395"><ele>14.666666666666668</ele><time>2026-04-18T07:59:24.823Z</time></trkpt><trkpt lat="45.4153264" lon="11.8330746"><ele>14.833333333333334</ele><time>2026-04-18T07:59:26.823Z</time></trkpt><trkpt lat="45.4153484" lon="11.8329838"><ele>15.0</ele><time>2026-04-18T07:59:27.823Z</time></trkpt><trkpt lat="45.4153902" lon="11.8328526"><ele>15.0</ele><time>2026-04-18T07:59:29.823Z</time></trkpt><trkpt lat="45.4154313" lon="11.8327362"><ele>15.0</ele><time>2026-04-18T07:59:31.823Z</time></trkpt><trkpt lat="45.4154838" lon="11.8325936"><ele>15.0</ele><time>2026-04-18T07:59:33.823Z</time></trkpt><trkpt lat="45.4155157" lon="11.8325007"><ele>15.0</ele><time>2026-04-18T07:59:35.823Z</time></trkpt><trkpt lat="45.4155472" lon="11.8324201"><ele>15.0</ele><time>2026-04-18T07:59:37.824Z</time></trkpt><trkpt lat="45.4155792" lon="11.8323326"><ele>15.0</ele><time>2026-04-18T07:59:40.823Z</time></trkpt><trkpt lat="45.4156419" lon="11.8322529"><ele>14.833333333333334</ele><time>2026-04-18T08:00:15.823Z</time></trkpt><trkpt lat="45.4156842" lon="11.8321278"><ele>14.666666666666668</ele><time>2026-04-18T08:00:18.823Z</time></trkpt><trkpt lat="45.4157207" lon="11.8320361"><ele>14.5</ele><time>2026-04-18T08:00:21.823Z</time></trkpt><trkpt lat="45.4157534" lon="11.8319549"><ele>14.333333333333334</ele><time>2026-04-18T08:00:24.823Z</time></trkpt><trkpt lat="45.4157852" lon="11.8318646"><ele>14.166666666666668</ele><time>2026-04-18T08:00:28.823Z</time></trkpt><trkpt lat="45.4158201" lon="11.8317569"><ele>14.0</ele><time>2026-04-18T08:00:32.823Z</time></trkpt><trkpt lat="45.4158471" lon="11.8316714"><ele>13.833333333333334</ele><time>2026-04-18T08:00:35.823Z</time></trkpt><trkpt lat="45.415898" lon="11.8315533"><ele>13.666666666666668</ele><time>2026-04-18T08:00:38.823Z</time></trkpt><trkpt lat="45.4159332" lon="11.831452"><ele>13.5</ele><time>2026-04-18T08:00:40.823Z</time></trkpt><trkpt lat="45.4159606" lon="11.8313667"><ele>13.333333333333332</ele><time>2026-04-18T08:00:42.823Z</time></trkpt><trkpt lat="45.4159949" lon="11.8312765"><ele>13.166666666666666</ele><time>2026-04-18T08:00:45.823Z</time></trkpt><trkpt lat="45.4160268" lon="11.8311953"><ele>13.0</ele><time>2026-04-18T08:00:48.823Z</time></trkpt><trkpt lat="45.4160609" lon="11.8310975"><ele>12.999999999999998</ele><time>2026-04-18T08:00:51.823Z</time></trkpt><trkpt lat="45.416093" lon="11.8310073"><ele>13.0</ele><time>2026-04-18T08:00:53.823Z</time></trkpt><trkpt lat="45.4161265" lon="11.8309155"><ele>13.0</ele><time>2026-04-18T08:00:55.823Z</time></trkpt><trkpt lat="45.4161676" lon="11.8308127"><ele>13.0</ele><time>2026-04-18T08:00:57.823Z</time></trkpt><trkpt lat="45.416204" lon="11.8307286"><ele>12.999999999999998</ele><time>2026-04-18T08:00:59.823Z</time></trkpt><trkpt lat="45.4162511" lon="11.8306155"><ele>13.0</ele><time>2026-04-18T08:01:02.823Z</time></trkpt><trkpt lat="45.4162923" lon="11.8305147"><ele>13.166666666666666</ele><time>2026-04-18T08:01:04.823Z</time></trkpt><trkpt lat="45.4163259" lon="11.8304025"><ele>13.333333333333332</ele><time>2026-04-18T08:01:06.823Z</time></trkpt><trkpt lat="45.4163589" lon="11.8303159"><ele>13.5</ele><time>2026-04-18T08:01:08.823Z</time></trkpt><trkpt lat="45.4163907" lon="11.8302383"><ele>13.666666666666668</ele><time>2026-04-18T08:01:10.823Z</time></trkpt><trkpt lat="45.4164297" lon="11.8301362"><ele>13.833333333333334</ele><time>2026-04-18T08:01:12.823Z</time></trkpt><trkpt lat="45.4164578" lon="11.8300324"><ele>14.0</ele><time>2026-04-18T08:01:14.823Z</time></trkpt><trkpt lat="45.4164874" lon="11.829902"><ele>14.000000000000002</ele><time>2026-04-18T08:01:16.823Z</time></trkpt><trkpt lat="45.4165329" lon="11.8297615"><ele>14.0</ele><time>2026-04-18T08:01:18.824Z</time></trkpt><trkpt lat="45.4165916" lon="11.8296044"><ele>14.0</ele><time>2026-04-18T08:01:20.823Z</time></trkpt><trkpt lat="45.4166234" lon="11.8295135"><ele>14.0</ele><time>2026-04-18T08:01:21.823Z</time></trkpt><trkpt lat="45.4166577" lon="11.8294209"><ele>14.000000000000002</ele><time>2026-04-18T08:01:22.823Z</time></trkpt><trkpt lat="45.4166892" lon="11.8293428"><ele>14.0</ele><time>2026-04-18T08:01:23.823Z</time></trkpt><trkpt lat="45.4167225" lon="11.8292659"><ele>14.2</ele><time>2026-04-18T08:01:24.823Z</time></trkpt><trkpt lat="45.4167581" lon="11.8291819"><ele>14.399999999999999</ele><time>2026-04-18T08:01:25.823Z</time></trkpt><trkpt lat="45.416792" lon="11.8291006"><ele>14.6</ele><time>2026-04-18T08:01:26.824Z</time></trkpt><trkpt lat="45.4168398" lon="11.8289699"><ele>14.8</ele><time>2026-04-18T08:01:28.823Z</time></trkpt><trkpt lat="45.4168928" lon="11.8288315"><ele>15.0</ele><time>2026-04-18T08:01:30.823Z</time></trkpt><trkpt lat="45.4169398" lon="11.828699"><ele>15.0</ele><time>2026-04-18T08:01:32.823Z</time></trkpt><trkpt lat="45.4169769" lon="11.8285929"><ele>15.0</ele><time>2026-04-18T08:01:34.823Z</time></trkpt><trkpt lat="45.4170166" lon="11.8284897"><ele>15.0</ele><time>2026-04-18T08:01:36.823Z</time></trkpt><trkpt lat="45.4170461" lon="11.8283793"><ele>15.0</ele><time>2026-04-18T08:01:38.823Z</time></trkpt><trkpt lat="45.4170749" lon="11.8282738"><ele>15.0</ele><time>2026-04-18T08:01:40.823Z</time></trkpt><trkpt lat="45.4170979" lon="11.8281846"><ele>15.0</ele><time>2026-04-18T08:01:42.823Z</time></trkpt><trkpt lat="45.4171283" lon="11.8280896"><ele>14.8</ele><time>2026-04-18T08:01:44.824Z</time></trkpt><trkpt lat="45.4171628" lon="11.8279648"><ele>14.6</ele><time>2026-04-18T08:01:46.823Z</time></trkpt><trkpt lat="45.4171944" lon="11.8278558"><ele>14.399999999999999</ele><time>2026-04-18T08:01:49.823Z</time></trkpt><trkpt lat="45.417213" lon="11.8277322"><ele>14.2</ele><time>2026-04-18T08:01:52.823Z</time></trkpt><trkpt lat="45.4172442" lon="11.8275954"><ele>14.0</ele><time>2026-04-18T08:01:54.823Z</time></trkpt><trkpt lat="45.4172944" lon="11.8274343"><ele>14.000000000000002</ele><time>2026-04-18T08:01:56.823Z</time></trkpt><trkpt lat="45.4173205" lon="11.8273502"><ele>14.0</ele><time>2026-04-18T08:01:57.823Z</time></trkpt><trkpt lat="45.4173512" lon="11.8272651"><ele>14.0</ele><time>2026-04-18T08:01:58.823Z</time></trkpt><trkpt lat="45.4173813" lon="11.8271807"><ele>14.0</ele><time>2026-04-18T08:01:59.823Z</time></trkpt><trkpt lat="45.4174315" lon="11.8270148"><ele>14.000000000000002</ele><time>2026-04-18T08:02:01.823Z</time></trkpt><trkpt lat="45.4174807" lon="11.826854"><ele>14.0</ele><time>2026-04-18T08:02:03.823Z</time></trkpt><trkpt lat="45.417525" lon="11.8267112"><ele>14.166666666666668</ele><time>2026-04-18T08:02:05.823Z</time></trkpt><trkpt lat="45.4175578" lon="11.826629"><ele>14.333333333333334</ele><time>2026-04-18T08:02:06.823Z</time></trkpt><trkpt lat="45.4175893" lon="11.8265467"><ele>14.5</ele><time>2026-04-18T08:02:07.824Z</time></trkpt><trkpt lat="45.4176466" lon="11.826416"><ele>14.666666666666668</ele><time>2026-04-18T08:02:09.823Z</time></trkpt><trkpt lat="45.4176846" lon="11.8263164"><ele>14.833333333333334</ele><time>2026-04-18T08:02:11.823Z</time></trkpt><trkpt lat="45.4177229" lon="11.8262162"><ele>15.0</ele><time>2026-04-18T08:02:13.823Z</time></trkpt><trkpt lat="45.4177753" lon="11.8260791"><ele>15.25</ele><time>2026-04-18T08:02:15.823Z</time></trkpt><trkpt lat="45.417808" lon="11.8259708"><ele>15.5</ele><time>2026-04-18T08:02:16.823Z</time></trkpt><trkpt lat="45.4178618" lon="11.8258102"><ele>15.75</ele><time>2026-04-18T08:02:17.824Z</time></trkpt><trkpt lat="45.4179261" lon="11.8256318"><ele>16.0</ele><time>2026-04-18T08:02:18.823Z</time></trkpt><trkpt lat="45.4179853" lon="11.8254477"><ele>16.25</ele><time>2026-04-18T08:02:19.823Z</time></trkpt><trkpt lat="45.4180481" lon="11.8252847"><ele>16.5</ele><time>2026-04-18T08:02:20.823Z</time></trkpt><trkpt lat="45.4181135" lon="11.8251432"><ele>16.75</ele><time>2026-04-18T08:02:21.823Z</time></trkpt><trkpt lat="45.4181852" lon="11.8249725"><ele>17.0</ele><time>2026-04-18T08:02:22.823Z</time></trkpt><trkpt lat="45.4182477" lon="11.8247813"><ele>17.0</ele><time>2026-04-18T08:02:23.823Z</time></trkpt><trkpt lat="45.418302" lon="11.8246063"><ele>17.0</ele><time>2026-04-18T08:02:24.823Z</time></trkpt><trkpt lat="45.4183698" lon="11.8244143"><ele>17.0</ele><time>2026-04-18T08:02:25.823Z</time></trkpt><trkpt lat="45.4184426" lon="11.8242296"><ele>17.0</ele><time>2026-04-18T08:02:26.823Z</time></trkpt><trkpt lat="45.4185072" lon="11.8240622"><ele>16.75</ele><time>2026-04-18T08:02:27.823Z</time></trkpt><trkpt lat="45.418565" lon="11.823891"><ele>16.5</ele><time>2026-04-18T08:02:28.823Z</time></trkpt><trkpt lat="45.4186301" lon="11.823716"><ele>16.25</ele><time>2026-04-18T08:02:29.823Z</time></trkpt><trkpt lat="45.418691" lon="11.8235385"><ele>16.0</ele><time>2026-04-18T08:02:30.823Z</time></trkpt><trkpt lat="45.418751" lon="11.8233678"><ele>15.5</ele><time>2026-04-18T08:02:31.823Z</time></trkpt><trkpt lat="45.4188234" lon="11.8231874"><ele>15.0</ele><time>2026-04-18T08:02:32.823Z</time></trkpt><trkpt lat="45.4188853" lon="11.823016"><ele>14.5</ele><time>2026-04-18T08:02:33.823Z</time></trkpt><trkpt lat="45.4189484" lon="11.822838"><ele>14.0</ele><time>2026-04-18T08:02:34.823Z</time></trkpt><trkpt lat="45.4190135" lon="11.8226692"><ele>14.25</ele><time>2026-04-18T08:02:35.823Z</time></trkpt><trkpt lat="45.4190717" lon="11.8225097"><ele>14.5</ele><time>2026-04-18T08:02:36.823Z</time></trkpt><trkpt lat="45.4191253" lon="11.8223561"><ele>14.75</ele><time>2026-04-18T08:02:37.823Z</time></trkpt><trkpt lat="45.4191759" lon="11.8222"><ele>15.0</ele><time>2026-04-18T08:02:38.824Z</time></trkpt><trkpt lat="45.4192279" lon="11.8220438"><ele>15.0</ele><time>2026-04-18T08:02:39.823Z</time></trkpt><trkpt lat="45.4192716" lon="11.8218813"><ele>15.0</ele><time>2026-04-18T08:02:40.823Z</time></trkpt><trkpt lat="45.4193072" lon="11.8217368"><ele>15.0</ele><time>2026-04-18T08:02:41.823Z</time></trkpt><trkpt lat="45.4193436" lon="11.8216028"><ele>15.0</ele><time>2026-04-18T08:02:42.824Z</time></trkpt><trkpt lat="45.4193771" lon="11.8214675"><ele>15.0</ele><time>2026-04-18T08:02:43.823Z</time></trkpt><trkpt lat="45.4194106" lon="11.8213251"><ele>15.0</ele><time>2026-04-18T08:02:44.823Z</time></trkpt><trkpt lat="45.4194449" lon="11.8211529"><ele>15.0</ele><time>2026-04-18T08:02:45.823Z</time></trkpt><trkpt lat="45.4194876" lon="11.8209398"><ele>15.0</ele><time>2026-04-18T08:02:46.823Z</time></trkpt><trkpt lat="45.4195413" lon="11.8207182"><ele>15.0</ele><time>2026-04-18T08:02:47.823Z</time></trkpt><trkpt lat="45.4195864" lon="11.8205205"><ele>15.0</ele><time>2026-04-18T08:02:48.823Z</time></trkpt><trkpt lat="45.419627" lon="11.8203304"><ele>15.0</ele><time>2026-04-18T08:02:49.823Z</time></trkpt><trkpt lat="45.4196642" lon="11.8201525"><ele>15.0</ele><time>2026-04-18T08:02:50.824Z</time></trkpt><trkpt lat="45.4196979" lon="11.8199988"><ele>15.0</ele><time>2026-04-18T08:02:51.823Z</time></trkpt><trkpt lat="45.4197251" lon="11.8198816"><ele>15.0</ele><time>2026-04-18T08:02:52.823Z</time></trkpt><trkpt lat="45.4197589" lon="11.8197418"><ele>15.0</ele><time>2026-04-18T08:02:54.823Z</time></trkpt><trkpt lat="45.4197813" lon="11.8196441"><ele>15.0</ele><time>2026-04-18T08:02:56.824Z</time></trkpt><trkpt lat="45.4198421" lon="11.8193956"><ele>15.0</ele><time>2026-04-18T08:02:58.823Z</time></trkpt><trkpt lat="45.4198784" lon="11.8192353"><ele>15.25</ele><time>2026-04-18T08:02:59.823Z</time></trkpt><trkpt lat="45.4199208" lon="11.81904"><ele>15.5</ele><time>2026-04-18T08:03:00.823Z</time></trkpt><trkpt lat="45.4199614" lon="11.8188551"><ele>15.75</ele><time>2026-04-18T08:03:01.823Z</time></trkpt><trkpt lat="45.4199982" lon="11.8186898"><ele>16.0</ele><time>2026-04-18T08:03:02.823Z</time></trkpt><trkpt lat="45.4200321" lon="11.8185386"><ele>15.8</ele><time>2026-04-18T08:03:03.823Z</time></trkpt><trkpt lat="45.4200595" lon="11.8183984"><ele>15.600000000000001</ele><time>2026-04-18T08:03:04.823Z</time></trkpt><trkpt lat="45.4200977" lon="11.8182505"><ele>15.4</ele><time>2026-04-18T08:03:05.823Z</time></trkpt><trkpt lat="45.4201365" lon="11.8181084"><ele>15.2</ele><time>2026-04-18T08:03:06.823Z</time></trkpt><trkpt lat="45.4201701" lon="11.817979"><ele>15.0</ele><time>2026-04-18T08:03:07.823Z</time></trkpt><trkpt lat="45.4201903" lon="11.8178856"><ele>15.0</ele><time>2026-04-18T08:03:08.823Z</time></trkpt><trkpt lat="45.4202174" lon="11.8177754"><ele>15.0</ele><time>2026-04-18T08:03:10.823Z</time></trkpt><trkpt lat="45.4202464" lon="11.8176518"><ele>15.0</ele><time>2026-04-18T08:03:13.823Z</time></trkpt><trkpt lat="45.4202656" lon="11.8175636"><ele>15.0</ele><time>2026-04-18T08:03:15.823Z</time></trkpt><trkpt lat="45.4202944" lon="11.8174472"><ele>15.0</ele><time>2026-04-18T08:03:22.823Z</time></trkpt><trkpt lat="45.4203437" lon="11.8173327"><ele>15.0</ele><time>2026-04-18T08:03:25.823Z</time></trkpt><trkpt lat="45.4203983" lon="11.8171963"><ele>15.0</ele><time>2026-04-18T08:03:27.823Z</time></trkpt><trkpt lat="45.4204167" lon="11.8170513"><ele>15.0</ele><time>2026-04-18T08:03:29.823Z</time></trkpt><trkpt lat="45.420425" lon="11.8168823"><ele>15.0</ele><time>2026-04-18T08:03:31.823Z</time></trkpt><trkpt lat="45.4204305" lon="11.816791"><ele>15.0</ele><time>2026-04-18T08:03:32.824Z</time></trkpt><trkpt lat="45.4204401" lon="11.816693"><ele>15.0</ele><time>2026-04-18T08:03:33.823Z</time></trkpt><trkpt lat="45.4204537" lon="11.8165934"><ele>15.0</ele><time>2026-04-18T08:03:34.823Z</time></trkpt><trkpt lat="45.4204662" lon="11.8165008"><ele>15.0</ele><time>2026-04-18T08:03:35.823Z</time></trkpt><trkpt lat="45.4204976" lon="11.8163527"><ele>15.0</ele><time>2026-04-18T08:03:37.823Z</time></trkpt><trkpt lat="45.4204895" lon="11.8162397"><ele>15.0</ele><time>2026-04-18T08:03:39.823Z</time></trkpt><trkpt lat="45.4204492" lon="11.8161458"><ele>15.0</ele><time>2026-04-18T08:03:41.824Z</time></trkpt><trkpt lat="45.4204133" lon="11.8160682"><ele>15.0</ele><time>2026-04-18T08:03:43.823Z</time></trkpt><trkpt lat="45.4203927" lon="11.8159791"><ele>15.0</ele><time>2026-04-18T08:03:45.823Z</time></trkpt><trkpt lat="45.4203889" lon="11.8158894"><ele>14.8</ele><time>2026-04-18T08:03:47.823Z</time></trkpt><trkpt lat="45.4203954" lon="11.8157665"><ele>14.6</ele><time>2026-04-18T08:03:49.823Z</time></trkpt><trkpt lat="45.4204061" lon="11.8156326"><ele>14.399999999999999</ele><time>2026-04-18T08:03:51.823Z</time></trkpt><trkpt lat="45.420419" lon="11.8155132"><ele>14.2</ele><time>2026-04-18T08:03:53.823Z</time></trkpt><trkpt lat="45.4204344" lon="11.8153858"><ele>14.0</ele><time>2026-04-18T08:03:55.823Z</time></trkpt><trkpt lat="45.4204526" lon="11.8152237"><ele>14.25</ele><time>2026-04-18T08:03:57.823Z</time></trkpt><trkpt lat="45.4204826" lon="11.8150579"><ele>14.5</ele><time>2026-04-18T08:03:59.823Z</time></trkpt><trkpt lat="45.420511" lon="11.8149096"><ele>14.75</ele><time>2026-04-18T08:04:01.823Z</time></trkpt><trkpt lat="45.4205484" lon="11.8147525"><ele>15.0</ele><time>2026-04-18T08:04:03.823Z</time></trkpt><trkpt lat="45.4205825" lon="11.8145942"><ele>15.0</ele><time>2026-04-18T08:04:05.823Z</time></trkpt><trkpt lat="45.4206101" lon="11.8144234"><ele>15.0</ele><time>2026-04-18T08:04:07.823Z</time></trkpt><trkpt lat="45.4206255" lon="11.8143356"><ele>15.0</ele><time>2026-04-18T08:04:08.823Z</time></trkpt><trkpt lat="45.4206395" lon="11.8142473"><ele>15.0</ele><time>2026-04-18T08:04:09.823Z</time></trkpt><trkpt lat="45.4206585" lon="11.8141551"><ele>15.0</ele><time>2026-04-18T08:04:10.823Z</time></trkpt><trkpt lat="45.420675" lon="11.8140582"><ele>15.0</ele><time>2026-04-18T08:04:11.823Z</time></trkpt><trkpt lat="45.4206936" lon="11.8139557"><ele>15.166666666666666</ele><time>2026-04-18T08:04:12.823Z</time></trkpt><trkpt lat="45.4207144" lon="11.8138491"><ele>15.333333333333332</ele><time>2026-04-18T08:04:13.823Z</time></trkpt><trkpt lat="45.4207304" lon="11.8137522"><ele>15.5</ele><time>2026-04-18T08:04:14.823Z</time></trkpt><trkpt lat="45.4207478" lon="11.8136561"><ele>15.666666666666666</ele><time>2026-04-18T08:04:15.823Z</time></trkpt><trkpt lat="45.4207649" lon="11.813567"><ele>15.833333333333332</ele><time>2026-04-18T08:04:16.823Z</time></trkpt><trkpt lat="45.4207843" lon="11.8134773"><ele>16.0</ele><time>2026-04-18T08:04:17.823Z</time></trkpt><trkpt lat="45.4208257" lon="11.8133342"><ele>15.600000000000001</ele><time>2026-04-18T08:04:19.823Z</time></trkpt><trkpt lat="45.420865" lon="11.8132167"><ele>15.200000000000001</ele><time>2026-04-18T08:04:21.823Z</time></trkpt><trkpt lat="45.4208963" lon="11.8130596"><ele>14.799999999999999</ele><time>2026-04-18T08:04:23.823Z</time></trkpt><trkpt lat="45.4209163" lon="11.8129672"><ele>14.399999999999999</ele><time>2026-04-18T08:04:24.823Z</time></trkpt><trkpt lat="45.4209418" lon="11.8128049"><ele>14.0</ele><time>2026-04-18T08:04:26.823Z</time></trkpt><trkpt lat="45.4209704" lon="11.8126526"><ele>14.000000000000002</ele><time>2026-04-18T08:04:28.823Z</time></trkpt><trkpt lat="45.4210307" lon="11.8125105"><ele>14.0</ele><time>2026-04-18T08:04:30.823Z</time></trkpt><trkpt lat="45.4210584" lon="11.8124275"><ele>14.0</ele><time>2026-04-18T08:04:31.823Z</time></trkpt><trkpt lat="45.4210759" lon="11.8123378"><ele>14.0</ele><time>2026-04-18T08:04:32.823Z</time></trkpt><trkpt lat="45.4210712" lon="11.8122446"><ele>14.000000000000002</ele><time>2026-04-18T08:04:33.823Z</time></trkpt><trkpt lat="45.4210563" lon="11.8120933"><ele>14.0</ele><time>2026-04-18T08:04:35.823Z</time></trkpt><trkpt lat="45.4210684" lon="11.8119503"><ele>14.399999999999999</ele><time>2026-04-18T08:04:37.823Z</time></trkpt><trkpt lat="45.4210915" lon="11.8118015"><ele>14.799999999999999</ele><time>2026-04-18T08:04:39.823Z</time></trkpt><trkpt lat="45.4211167" lon="11.8116412"><ele>15.200000000000001</ele><time>2026-04-18T08:04:41.823Z</time></trkpt><trkpt lat="45.4211367" lon="11.8114923"><ele>15.600000000000001</ele><time>2026-04-18T08:04:43.823Z</time></trkpt><trkpt lat="45.4211561" lon="11.8113357"><ele>16.0</ele><time>2026-04-18T08:04:45.823Z</time></trkpt><trkpt lat="45.4211745" lon="11.8111756"><ele>15.999999999999998</ele><time>2026-04-18T08:04:47.823Z</time></trkpt><trkpt lat="45.4211986" lon="11.8110095"><ele>16.0</ele><time>2026-04-18T08:04:49.823Z</time></trkpt><trkpt lat="45.4212106" lon="11.8109194"><ele>16.0</ele><time>2026-04-18T08:04:50.823Z</time></trkpt><trkpt lat="45.4212206" lon="11.8108251"><ele>16.0</ele><time>2026-04-18T08:04:51.823Z</time></trkpt><trkpt lat="45.4212341" lon="11.8107345"><ele>15.999999999999998</ele><time>2026-04-18T08:04:52.823Z</time></trkpt><trkpt lat="45.421252" lon="11.8105783"><ele>16.0</ele><time>2026-04-18T08:04:54.823Z</time></trkpt><trkpt lat="45.4212609" lon="11.810413"><ele>15.833333333333332</ele><time>2026-04-18T08:04:56.823Z</time></trkpt><trkpt lat="45.4212735" lon="11.8103074"><ele>15.666666666666666</ele><time>2026-04-18T08:04:57.823Z</time></trkpt><trkpt lat="45.4212938" lon="11.8101959"><ele>15.5</ele><time>2026-04-18T08:04:58.823Z</time></trkpt><trkpt lat="45.4213134" lon="11.8100977"><ele>15.333333333333332</ele><time>2026-04-18T08:04:59.824Z</time></trkpt><trkpt lat="45.4213299" lon="11.8100057"><ele>15.166666666666666</ele><time>2026-04-18T08:05:00.823Z</time></trkpt><trkpt lat="45.4213597" lon="11.8098438"><ele>15.0</ele><time>2026-04-18T08:05:02.823Z</time></trkpt><trkpt lat="45.4213778" lon="11.809756"><ele>15.0</ele><time>2026-04-18T08:05:03.823Z</time></trkpt><trkpt lat="45.421395" lon="11.809647"><ele>15.0</ele><time>2026-04-18T08:05:04.823Z</time></trkpt><trkpt lat="45.421415" lon="11.8095069"><ele>15.0</ele><time>2026-04-18T08:05:05.823Z</time></trkpt><trkpt lat="45.4214315" lon="11.8093616"><ele>15.0</ele><time>2026-04-18T08:05:06.823Z</time></trkpt><trkpt lat="45.421454" lon="11.8092095"><ele>15.0</ele><time>2026-04-18T08:05:07.823Z</time></trkpt><trkpt lat="45.4214851" lon="11.8090227"><ele>14.666666666666668</ele><time>2026-04-18T08:05:08.823Z</time></trkpt><trkpt lat="45.4215359" lon="11.8088064"><ele>14.333333333333334</ele><time>2026-04-18T08:05:09.823Z</time></trkpt><trkpt lat="45.421585" lon="11.8085972"><ele>14.0</ele><time>2026-04-18T08:05:10.823Z</time></trkpt><trkpt lat="45.4216207" lon="11.8084058"><ele>14.0</ele><time>2026-04-18T08:05:11.823Z</time></trkpt><trkpt lat="45.4216492" lon="11.808226"><ele>14.0</ele><time>2026-04-18T08:05:12.823Z</time></trkpt><trkpt lat="45.4216797" lon="11.808041"><ele>14.0</ele><time>2026-04-18T08:05:13.823Z</time></trkpt><trkpt lat="45.4217088" lon="11.8078432"><ele>14.0</ele><time>2026-04-18T08:05:14.823Z</time></trkpt><trkpt lat="45.4217364" lon="11.8076397"><ele>14.25</ele><time>2026-04-18T08:05:15.823Z</time></trkpt><trkpt lat="45.4217679" lon="11.8074515"><ele>14.5</ele><time>2026-04-18T08:05:16.823Z</time></trkpt><trkpt lat="45.4217987" lon="11.8072678"><ele>14.75</ele><time>2026-04-18T08:05:17.823Z</time></trkpt><trkpt lat="45.4218274" lon="11.8070928"><ele>15.0</ele><time>2026-04-18T08:05:18.823Z</time></trkpt><trkpt lat="45.4218537" lon="11.8069225"><ele>15.0</ele><time>2026-04-18T08:05:19.823Z</time></trkpt><trkpt lat="45.4218817" lon="11.8067639"><ele>15.0</ele><time>2026-04-18T08:05:20.824Z</time></trkpt><trkpt lat="45.4219092" lon="11.8066007"><ele>15.0</ele><time>2026-04-18T08:05:21.823Z</time></trkpt><trkpt lat="45.4219376" lon="11.8064243"><ele>15.0</ele><time>2026-04-18T08:05:22.823Z</time></trkpt><trkpt lat="45.4219647" lon="11.8062408"><ele>15.0</ele><time>2026-04-18T08:05:23.823Z</time></trkpt><trkpt lat="45.4219924" lon="11.8060512"><ele>15.0</ele><time>2026-04-18T08:05:24.823Z</time></trkpt><trkpt lat="45.4220212" lon="11.8058636"><ele>15.0</ele><time>2026-04-18T08:05:25.823Z</time></trkpt><trkpt lat="45.4220492" lon="11.8056784"><ele>15.0</ele><time>2026-04-18T08:05:26.824Z</time></trkpt><trkpt lat="45.4220789" lon="11.805492"><ele>15.0</ele><time>2026-04-18T08:05:27.823Z</time></trkpt><trkpt lat="45.4221083" lon="11.8053117"><ele>15.0</ele><time>2026-04-18T08:05:28.823Z</time></trkpt><trkpt lat="45.4221387" lon="11.8051319"><ele>15.0</ele><time>2026-04-18T08:05:29.823Z</time></trkpt><trkpt lat="45.4221669" lon="11.8049566"><ele>15.0</ele><time>2026-04-18T08:05:30.823Z</time></trkpt><trkpt lat="45.4221943" lon="11.8047882"><ele>14.5</ele><time>2026-04-18T08:05:31.823Z</time></trkpt><trkpt lat="45.4222236" lon="11.8046231"><ele>14.0</ele><time>2026-04-18T08:05:32.823Z</time></trkpt><trkpt lat="45.4222559" lon="11.8044522"><ele>13.5</ele><time>2026-04-18T08:05:33.823Z</time></trkpt><trkpt lat="45.4222822" lon="11.804282"><ele>13.0</ele><time>2026-04-18T08:05:34.823Z</time></trkpt><trkpt lat="45.4223074" lon="11.804113"><ele>13.0</ele><time>2026-04-18T08:05:35.824Z</time></trkpt><trkpt lat="45.4223413" lon="11.8039228"><ele>13.0</ele><time>2026-04-18T08:05:36.823Z</time></trkpt><trkpt lat="45.42238" lon="11.8037161"><ele>13.0</ele><time>2026-04-18T08:05:37.823Z</time></trkpt><trkpt lat="45.4224219" lon="11.803497"><ele>13.0</ele><time>2026-04-18T08:05:38.824Z</time></trkpt><trkpt lat="45.4224593" lon="11.8032872"><ele>13.0</ele><time>2026-04-18T08:05:39.823Z</time></trkpt><trkpt lat="45.4224923" lon="11.8030955"><ele>13.0</ele><time>2026-04-18T08:05:40.824Z</time></trkpt><trkpt lat="45.4225249" lon="11.8029123"><ele>13.0</ele><time>2026-04-18T08:05:41.823Z</time></trkpt><trkpt lat="45.4225555" lon="11.8027354"><ele>13.0</ele><time>2026-04-18T08:05:42.823Z</time></trkpt><trkpt lat="45.422585" lon="11.8025586"><ele>13.0</ele><time>2026-04-18T08:05:43.823Z</time></trkpt><trkpt lat="45.4226143" lon="11.8023822"><ele>13.0</ele><time>2026-04-18T08:05:44.824Z</time></trkpt><trkpt lat="45.4226444" lon="11.8021963"><ele>13.0</ele><time>2026-04-18T08:05:45.823Z</time></trkpt><trkpt lat="45.4226742" lon="11.802008"><ele>13.0</ele><time>2026-04-18T08:05:46.824Z</time></trkpt><trkpt lat="45.4227073" lon="11.8018144"><ele>13.0</ele><time>2026-04-18T08:05:47.823Z</time></trkpt><trkpt lat="45.4227403" lon="11.8016166"><ele>13.0</ele><time>2026-04-18T08:05:48.823Z</time></trkpt><trkpt lat="45.4227738" lon="11.8014189"><ele>13.0</ele><time>2026-04-18T08:05:49.823Z</time></trkpt><trkpt lat="45.4228062" lon="11.8012164"><ele>13.0</ele><time>2026-04-18T08:05:50.823Z</time></trkpt><trkpt lat="45.4228353" lon="11.8010176"><ele>13.0</ele><time>2026-04-18T08:05:51.823Z</time></trkpt><trkpt lat="45.4228646" lon="11.8008248"><ele>13.0</ele><time>2026-04-18T08:05:52.823Z</time></trkpt><trkpt lat="45.4228948" lon="11.8006357"><ele>13.0</ele><time>2026-04-18T08:05:53.824Z</time></trkpt><trkpt lat="45.4229244" lon="11.8004471"><ele>13.0</ele><time>2026-04-18T08:05:54.823Z</time></trkpt><trkpt lat="45.4229566" lon="11.8002616"><ele>12.5</ele><time>2026-04-18T08:05:55.823Z</time></trkpt><trkpt lat="45.4229881" lon="11.8000831"><ele>12.0</ele><time>2026-04-18T08:05:56.823Z</time></trkpt><trkpt lat="45.4230241" lon="11.7999109"><ele>11.5</ele><time>2026-04-18T08:05:57.823Z</time></trkpt><trkpt lat="45.4230497" lon="11.7997623"><ele>11.0</ele><time>2026-04-18T08:05:58.823Z</time></trkpt><trkpt lat="45.4230735" lon="11.7996402"><ele>11.0</ele><time>2026-04-18T08:05:59.823Z</time></trkpt><trkpt lat="45.4230956" lon="11.7995271"><ele>11.0</ele><time>2026-04-18T08:06:00.823Z</time></trkpt><trkpt lat="45.423118" lon="11.7994241"><ele>11.0</ele><time>2026-04-18T08:06:01.823Z</time></trkpt><trkpt lat="45.4231411" lon="11.7993253"><ele>11.0</ele><time>2026-04-18T08:06:02.823Z</time></trkpt><trkpt lat="45.4231663" lon="11.7992181"><ele>11.0</ele><time>2026-04-18T08:06:03.823Z</time></trkpt><trkpt lat="45.4232056" lon="11.7990824"><ele>11.0</ele><time>2026-04-18T08:06:04.823Z</time></trkpt><trkpt lat="45.4232537" lon="11.7989229"><ele>11.5</ele><time>2026-04-18T08:06:05.823Z</time></trkpt><trkpt lat="45.4233021" lon="11.7987691"><ele>12.0</ele><time>2026-04-18T08:06:06.823Z</time></trkpt><trkpt lat="45.4233548" lon="11.7986141"><ele>12.5</ele><time>2026-04-18T08:06:07.823Z</time></trkpt><trkpt lat="45.4234156" lon="11.7984491"><ele>13.0</ele><time>2026-04-18T08:06:08.823Z</time></trkpt><trkpt lat="45.4234832" lon="11.7982834"><ele>13.0</ele><time>2026-04-18T08:06:09.823Z</time></trkpt><trkpt lat="45.4235573" lon="11.7981164"><ele>13.0</ele><time>2026-04-18T08:06:10.823Z</time></trkpt><trkpt lat="45.4236374" lon="11.7979598"><ele>13.0</ele><time>2026-04-18T08:06:11.823Z</time></trkpt><trkpt lat="45.4237282" lon="11.7977979"><ele>13.0</ele><time>2026-04-18T08:06:12.823Z</time></trkpt><trkpt lat="45.4238352" lon="11.79763"><ele>13.0</ele><time>2026-04-18T08:06:13.823Z</time></trkpt><trkpt lat="45.4239467" lon="11.7974709"><ele>13.0</ele><time>2026-04-18T08:06:14.823Z</time></trkpt><trkpt lat="45.4240509" lon="11.7973265"><ele>13.0</ele><time>2026-04-18T08:06:15.823Z</time></trkpt><trkpt lat="45.4241542" lon="11.7971799"><ele>13.0</ele><time>2026-04-18T08:06:16.823Z</time></trkpt><trkpt lat="45.4242672" lon="11.7970234"><ele>13.0</ele><time>2026-04-18T08:06:17.823Z</time></trkpt><trkpt lat="45.4243851" lon="11.7968539"><ele>13.0</ele><time>2026-04-18T08:06:18.823Z</time></trkpt><trkpt lat="45.4245047" lon="11.7966748"><ele>13.0</ele><time>2026-04-18T08:06:19.824Z</time></trkpt><trkpt lat="45.4246236" lon="11.7964852"><ele>13.0</ele><time>2026-04-18T08:06:20.824Z</time></trkpt><trkpt lat="45.424735" lon="11.7963036"><ele>13.0</ele><time>2026-04-18T08:06:21.823Z</time></trkpt><trkpt lat="45.4248376" lon="11.7961309"><ele>13.0</ele><time>2026-04-18T08:06:22.823Z</time></trkpt><trkpt lat="45.4249312" lon="11.7959625"><ele>12.75</ele><time>2026-04-18T08:06:23.823Z</time></trkpt><trkpt lat="45.4250206" lon="11.7957936"><ele>12.5</ele><time>2026-04-18T08:06:24.823Z</time></trkpt><trkpt lat="45.4251118" lon="11.7956199"><ele>12.25</ele><time>2026-04-18T08:06:25.823Z</time></trkpt><trkpt lat="45.4251974" lon="11.7954515"><ele>12.0</ele><time>2026-04-18T08:06:26.823Z</time></trkpt><trkpt lat="45.4252759" lon="11.7952881"><ele>12.0</ele><time>2026-04-18T08:06:27.823Z</time></trkpt><trkpt lat="45.4253469" lon="11.7951327"><ele>12.0</ele><time>2026-04-18T08:06:28.823Z</time></trkpt><trkpt lat="45.425412" lon="11.7949814"><ele>12.0</ele><time>2026-04-18T08:06:29.823Z</time></trkpt><trkpt lat="45.4254771" lon="11.7948339"><ele>12.0</ele><time>2026-04-18T08:06:30.824Z</time></trkpt><trkpt lat="45.4255382" lon="11.7946958"><ele>12.0</ele><time>2026-04-18T08:06:31.823Z</time></trkpt><trkpt lat="45.4255961" lon="11.7945642"><ele>12.0</ele><time>2026-04-18T08:06:32.823Z</time></trkpt><trkpt lat="45.4256528" lon="11.7944448"><ele>12.0</ele><time>2026-04-18T08:06:33.823Z</time></trkpt><trkpt lat="45.4257069" lon="11.7943301"><ele>12.0</ele><time>2026-04-18T08:06:34.823Z</time></trkpt><trkpt lat="45.4257611" lon="11.7942314"><ele>12.0</ele><time>2026-04-18T08:06:35.823Z</time></trkpt><trkpt lat="45.4258171" lon="11.79414"><ele>12.2</ele><time>2026-04-18T08:06:36.823Z</time></trkpt><trkpt lat="45.4258725" lon="11.7940657"><ele>12.399999999999999</ele><time>2026-04-18T08:06:37.823Z</time></trkpt><trkpt lat="45.4259194" lon="11.7940054"><ele>12.600000000000001</ele><time>2026-04-18T08:06:38.823Z</time></trkpt><trkpt lat="45.4260031" lon="11.7939402"><ele>12.8</ele><time>2026-04-18T08:06:40.823Z</time></trkpt><trkpt lat="45.4261038" lon="11.7939145"><ele>13.0</ele><time>2026-04-18T08:06:42.823Z</time></trkpt><trkpt lat="45.4262054" lon="11.7938059"><ele>13.0</ele><time>2026-04-18T08:06:44.823Z</time></trkpt><trkpt lat="45.4262388" lon="11.7936575"><ele>13.0</ele><time>2026-04-18T08:06:46.823Z</time></trkpt><trkpt lat="45.4262302" lon="11.7934731"><ele>13.0</ele><time>2026-04-18T08:06:48.823Z</time></trkpt><trkpt lat="45.4262256" lon="11.793366"><ele>13.0</ele><time>2026-04-18T08:06:49.823Z</time></trkpt><trkpt lat="45.4262259" lon="11.7932505"><ele>13.0</ele><time>2026-04-18T08:06:50.823Z</time></trkpt><trkpt lat="45.4262278" lon="11.7931276"><ele>13.2</ele><time>2026-04-18T08:06:51.823Z</time></trkpt><trkpt lat="45.4262327" lon="11.7930043"><ele>13.4</ele><time>2026-04-18T08:06:52.823Z</time></trkpt><trkpt lat="45.4262395" lon="11.7928788"><ele>13.599999999999998</ele><time>2026-04-18T08:06:53.823Z</time></trkpt><trkpt lat="45.4262464" lon="11.7927496"><ele>13.799999999999999</ele><time>2026-04-18T08:06:54.823Z</time></trkpt><trkpt lat="45.4262569" lon="11.7926143"><ele>14.0</ele><time>2026-04-18T08:06:55.823Z</time></trkpt><trkpt lat="45.42627" lon="11.792485"><ele>14.000000000000002</ele><time>2026-04-18T08:06:56.823Z</time></trkpt><trkpt lat="45.4262811" lon="11.7923632"><ele>14.0</ele><time>2026-04-18T08:06:57.823Z</time></trkpt><trkpt lat="45.4262923" lon="11.7922517"><ele>14.0</ele><time>2026-04-18T08:06:58.823Z</time></trkpt><trkpt lat="45.4262994" lon="11.7921443"><ele>14.0</ele><time>2026-04-18T08:06:59.823Z</time></trkpt><trkpt lat="45.4263084" lon="11.7920396"><ele>14.000000000000002</ele><time>2026-04-18T08:07:00.823Z</time></trkpt><trkpt lat="45.4263198" lon="11.7919313"><ele>14.0</ele><time>2026-04-18T08:07:01.824Z</time></trkpt><trkpt lat="45.4263291" lon="11.7918231"><ele>14.2</ele><time>2026-04-18T08:07:02.824Z</time></trkpt><trkpt lat="45.4263373" lon="11.7917279"><ele>14.399999999999999</ele><time>2026-04-18T08:07:03.824Z</time></trkpt><trkpt lat="45.4263422" lon="11.7916353"><ele>14.6</ele><time>2026-04-18T08:07:04.823Z</time></trkpt><trkpt lat="45.426351" lon="11.7914757"><ele>14.8</ele><time>2026-04-18T08:07:06.823Z</time></trkpt><trkpt lat="45.426357" lon="11.7913218"><ele>15.0</ele><time>2026-04-18T08:07:08.823Z</time></trkpt><trkpt lat="45.4263618" lon="11.7911794"><ele>15.0</ele><time>2026-04-18T08:07:10.823Z</time></trkpt><trkpt lat="45.426365" lon="11.7910315"><ele>15.0</ele><time>2026-04-18T08:07:12.823Z</time></trkpt><trkpt lat="45.4263807" lon="11.7908585"><ele>15.0</ele><time>2026-04-18T08:07:14.823Z</time></trkpt><trkpt lat="45.4263855" lon="11.7907629"><ele>15.0</ele><time>2026-04-18T08:07:15.824Z</time></trkpt><trkpt lat="45.4263936" lon="11.7906607"><ele>15.0</ele><time>2026-04-18T08:07:16.823Z</time></trkpt><trkpt lat="45.4264037" lon="11.7905558"><ele>15.0</ele><time>2026-04-18T08:07:17.823Z</time></trkpt><trkpt lat="45.4264147" lon="11.7904463"><ele>15.4</ele><time>2026-04-18T08:07:18.823Z</time></trkpt><trkpt lat="45.4264299" lon="11.7903306"><ele>15.8</ele><time>2026-04-18T08:07:19.823Z</time></trkpt><trkpt lat="45.4264449" lon="11.7902034"><ele>16.2</ele><time>2026-04-18T08:07:20.823Z</time></trkpt><trkpt lat="45.4264567" lon="11.7900712"><ele>16.6</ele><time>2026-04-18T08:07:21.823Z</time></trkpt><trkpt lat="45.4264673" lon="11.7899323"><ele>17.0</ele><time>2026-04-18T08:07:22.823Z</time></trkpt><trkpt lat="45.4264815" lon="11.7897864"><ele>17.0</ele><time>2026-04-18T08:07:23.823Z</time></trkpt><trkpt lat="45.4264942" lon="11.7896526"><ele>17.0</ele><time>2026-04-18T08:07:24.823Z</time></trkpt><trkpt lat="45.4265035" lon="11.7895323"><ele>17.0</ele><time>2026-04-18T08:07:25.823Z</time></trkpt><trkpt lat="45.4265126" lon="11.7894255"><ele>17.0</ele><time>2026-04-18T08:07:26.823Z</time></trkpt><trkpt lat="45.4265257" lon="11.7893251"><ele>17.0</ele><time>2026-04-18T08:07:27.823Z</time></trkpt><trkpt lat="45.4265406" lon="11.7892274"><ele>17.0</ele><time>2026-04-18T08:07:28.823Z</time></trkpt><trkpt lat="45.4265602" lon="11.7891215"><ele>17.0</ele><time>2026-04-18T08:07:29.823Z</time></trkpt><trkpt lat="45.4265741" lon="11.7890005"><ele>17.0</ele><time>2026-04-18T08:07:30.823Z</time></trkpt><trkpt lat="45.4265843" lon="11.7888754"><ele>17.0</ele><time>2026-04-18T08:07:31.823Z</time></trkpt><trkpt lat="45.4265968" lon="11.7887335"><ele>17.0</ele><time>2026-04-18T08:07:32.823Z</time></trkpt><trkpt lat="45.4266079" lon="11.7885889"><ele>17.0</ele><time>2026-04-18T08:07:33.823Z</time></trkpt><trkpt lat="45.426617" lon="11.7884551"><ele>17.0</ele><time>2026-04-18T08:07:34.823Z</time></trkpt><trkpt lat="45.4266258" lon="11.7883291"><ele>17.0</ele><time>2026-04-18T08:07:35.823Z</time></trkpt><trkpt lat="45.4266348" lon="11.7882129"><ele>17.0</ele><time>2026-04-18T08:07:36.823Z</time></trkpt><trkpt lat="45.4266453" lon="11.7881015"><ele>17.0</ele><time>2026-04-18T08:07:37.823Z</time></trkpt><trkpt lat="45.4266542" lon="11.7879654"><ele>17.0</ele><time>2026-04-18T08:07:38.823Z</time></trkpt><trkpt lat="45.4266653" lon="11.787812"><ele>17.0</ele><time>2026-04-18T08:07:39.823Z</time></trkpt><trkpt lat="45.4266799" lon="11.7876552"><ele>17.0</ele><time>2026-04-18T08:07:40.823Z</time></trkpt><trkpt lat="45.4266908" lon="11.7875137"><ele>17.0</ele><time>2026-04-18T08:07:41.823Z</time></trkpt><trkpt lat="45.4267002" lon="11.7873881"><ele>17.0</ele><time>2026-04-18T08:07:42.823Z</time></trkpt><trkpt lat="45.4267076" lon="11.787271"><ele>17.0</ele><time>2026-04-18T08:07:43.823Z</time></trkpt><trkpt lat="45.4267116" lon="11.7871525"><ele>17.0</ele><time>2026-04-18T08:07:44.823Z</time></trkpt><trkpt lat="45.4267235" lon="11.7870062"><ele>17.0</ele><time>2026-04-18T08:07:45.823Z</time></trkpt><trkpt lat="45.4267321" lon="11.7868707"><ele>17.0</ele><time>2026-04-18T08:07:46.823Z</time></trkpt><trkpt lat="45.4267394" lon="11.7867465"><ele>17.0</ele><time>2026-04-18T08:07:47.823Z</time></trkpt><trkpt lat="45.4267475" lon="11.7866334"><ele>17.0</ele><time>2026-04-18T08:07:48.823Z</time></trkpt><trkpt lat="45.4267538" lon="11.7865313"><ele>17.0</ele><time>2026-04-18T08:07:49.823Z</time></trkpt><trkpt lat="45.426776" lon="11.7864404"><ele>17.0</ele><time>2026-04-18T08:07:50.824Z</time></trkpt><trkpt lat="45.4268457" lon="11.7862939"><ele>17.0</ele><time>2026-04-18T08:07:52.823Z</time></trkpt><trkpt lat="45.4268799" lon="11.7862072"><ele>17.0</ele><time>2026-04-18T08:07:53.823Z</time></trkpt><trkpt lat="45.426891" lon="11.7861171"><ele>17.0</ele><time>2026-04-18T08:07:54.823Z</time></trkpt><trkpt lat="45.4268449" lon="11.7859333"><ele>17.0</ele><time>2026-04-18T08:07:56.823Z</time></trkpt><trkpt lat="45.4268205" lon="11.7858259"><ele>17.2</ele><time>2026-04-18T08:07:57.823Z</time></trkpt><trkpt lat="45.4268135" lon="11.7857007"><ele>17.4</ele><time>2026-04-18T08:07:58.823Z</time></trkpt><trkpt lat="45.4268223" lon="11.785541"><ele>17.6</ele><time>2026-04-18T08:07:59.823Z</time></trkpt><trkpt lat="45.4268432" lon="11.7853962"><ele>17.8</ele><time>2026-04-18T08:08:00.823Z</time></trkpt><trkpt lat="45.4268624" lon="11.7852615"><ele>18.0</ele><time>2026-04-18T08:08:01.824Z</time></trkpt><trkpt lat="45.4268846" lon="11.7851226"><ele>18.0</ele><time>2026-04-18T08:08:02.823Z</time></trkpt><trkpt lat="45.4269158" lon="11.7849813"><ele>18.0</ele><time>2026-04-18T08:08:03.824Z</time></trkpt><trkpt lat="45.4269487" lon="11.7848508"><ele>18.0</ele><time>2026-04-18T08:08:04.823Z</time></trkpt><trkpt lat="45.4269787" lon="11.7847348"><ele>18.0</ele><time>2026-04-18T08:08:05.823Z</time></trkpt><trkpt lat="45.4270122" lon="11.7846333"><ele>18.0</ele><time>2026-04-18T08:08:06.824Z</time></trkpt><trkpt lat="45.4270428" lon="11.7845457"><ele>18.0</ele><time>2026-04-18T08:08:07.823Z</time></trkpt><trkpt lat="45.4270996" lon="11.784389"><ele>17.833333333333332</ele><time>2026-04-18T08:08:09.823Z</time></trkpt><trkpt lat="45.4271407" lon="11.7842814"><ele>17.666666666666668</ele><time>2026-04-18T08:08:10.823Z</time></trkpt><trkpt lat="45.4271853" lon="11.7841724"><ele>17.5</ele><time>2026-04-18T08:08:11.823Z</time></trkpt><trkpt lat="45.4272256" lon="11.7840641"><ele>17.333333333333336</ele><time>2026-04-18T08:08:12.823Z</time></trkpt><trkpt lat="45.4272605" lon="11.7839432"><ele>17.166666666666668</ele><time>2026-04-18T08:08:13.823Z</time></trkpt><trkpt lat="45.4273008" lon="11.7838317"><ele>17.0</ele><time>2026-04-18T08:08:14.823Z</time></trkpt><trkpt lat="45.4273415" lon="11.783727"><ele>17.0</ele><time>2026-04-18T08:08:15.823Z</time></trkpt><trkpt lat="45.4273857" lon="11.7836355"><ele>17.0</ele><time>2026-04-18T08:08:16.823Z</time></trkpt><trkpt lat="45.4274484" lon="11.7835366"><ele>17.0</ele><time>2026-04-18T08:08:17.823Z</time></trkpt><trkpt lat="45.4275082" lon="11.7834448"><ele>17.0</ele><time>2026-04-18T08:08:18.824Z</time></trkpt><trkpt lat="45.4275705" lon="11.7833556"><ele>17.0</ele><time>2026-04-18T08:08:19.823Z</time></trkpt><trkpt lat="45.4276331" lon="11.7832652"><ele>17.0</ele><time>2026-04-18T08:08:20.823Z</time></trkpt><trkpt lat="45.4276989" lon="11.7831748"><ele>16.8</ele><time>2026-04-18T08:08:21.823Z</time></trkpt><trkpt lat="45.4277724" lon="11.7830659"><ele>16.6</ele><time>2026-04-18T08:08:22.823Z</time></trkpt><trkpt lat="45.4278551" lon="11.7829432"><ele>16.400000000000002</ele><time>2026-04-18T08:08:23.823Z</time></trkpt><trkpt lat="45.4279236" lon="11.7828363"><ele>16.2</ele><time>2026-04-18T08:08:24.823Z</time></trkpt><trkpt lat="45.4279909" lon="11.7827353"><ele>16.0</ele><time>2026-04-18T08:08:25.823Z</time></trkpt><trkpt lat="45.4280465" lon="11.7826483"><ele>15.666666666666666</ele><time>2026-04-18T08:08:26.824Z</time></trkpt><trkpt lat="45.4280965" lon="11.7825708"><ele>15.333333333333332</ele><time>2026-04-18T08:08:27.823Z</time></trkpt><trkpt lat="45.4281463" lon="11.7824983"><ele>15.0</ele><time>2026-04-18T08:08:28.823Z</time></trkpt><trkpt lat="45.4281931" lon="11.7824293"><ele>14.666666666666668</ele><time>2026-04-18T08:08:29.823Z</time></trkpt><trkpt lat="45.4282764" lon="11.7823024"><ele>14.333333333333334</ele><time>2026-04-18T08:08:31.823Z</time></trkpt><trkpt lat="45.4283272" lon="11.7821906"><ele>14.0</ele><time>2026-04-18T08:08:33.823Z</time></trkpt><trkpt lat="45.428285" lon="11.7820629"><ele>14.0</ele><time>2026-04-18T08:08:35.823Z</time></trkpt><trkpt lat="45.4282346" lon="11.7819873"><ele>13.999999999999998</ele><time>2026-04-18T08:08:36.823Z</time></trkpt><trkpt lat="45.4281778" lon="11.7818977"><ele>13.999999999999998</ele><time>2026-04-18T08:08:37.823Z</time></trkpt><trkpt lat="45.4281039" lon="11.7818062"><ele>14.0</ele><time>2026-04-18T08:08:38.823Z</time></trkpt><trkpt lat="45.4280248" lon="11.7817155"><ele>14.0</ele><time>2026-04-18T08:08:39.823Z</time></trkpt><trkpt lat="45.4279508" lon="11.7816264"><ele>14.399999999999999</ele><time>2026-04-18T08:08:40.823Z</time></trkpt><trkpt lat="45.427877" lon="11.7815421"><ele>14.799999999999999</ele><time>2026-04-18T08:08:41.823Z</time></trkpt><trkpt lat="45.4278026" lon="11.7814541"><ele>15.200000000000001</ele><time>2026-04-18T08:08:42.823Z</time></trkpt><trkpt lat="45.4277282" lon="11.781369"><ele>15.600000000000001</ele><time>2026-04-18T08:08:43.823Z</time></trkpt><trkpt lat="45.4276569" lon="11.7812778"><ele>16.0</ele><time>2026-04-18T08:08:44.823Z</time></trkpt><trkpt lat="45.4275813" lon="11.781184"><ele>16.0</ele><time>2026-04-18T08:08:45.823Z</time></trkpt><trkpt lat="45.4275032" lon="11.7810815"><ele>16.0</ele><time>2026-04-18T08:08:46.823Z</time></trkpt><trkpt lat="45.4274194" lon="11.7809809"><ele>16.0</ele><time>2026-04-18T08:08:47.823Z</time></trkpt><trkpt lat="45.4273294" lon="11.7808844"><ele>16.0</ele><time>2026-04-18T08:08:48.823Z</time></trkpt><trkpt lat="45.4272443" lon="11.7807797"><ele>16.0</ele><time>2026-04-18T08:08:49.823Z</time></trkpt><trkpt lat="45.4271568" lon="11.7806755"><ele>15.600000000000001</ele><time>2026-04-18T08:08:50.823Z</time></trkpt><trkpt lat="45.4270726" lon="11.7805714"><ele>15.200000000000001</ele><time>2026-04-18T08:08:51.823Z</time></trkpt><trkpt lat="45.4269899" lon="11.7804682"><ele>14.799999999999999</ele><time>2026-04-18T08:08:52.823Z</time></trkpt><trkpt lat="45.426903" lon="11.7803654"><ele>14.399999999999999</ele><time>2026-04-18T08:08:53.823Z</time></trkpt><trkpt lat="45.4268194" lon="11.7802656"><ele>14.0</ele><time>2026-04-18T08:08:54.823Z</time></trkpt><trkpt lat="45.4267326" lon="11.7801658"><ele>14.0</ele><time>2026-04-18T08:08:55.823Z</time></trkpt><trkpt lat="45.4266449" lon="11.780068"><ele>13.999999999999998</ele><time>2026-04-18T08:08:56.823Z</time></trkpt><trkpt lat="45.4265585" lon="11.7799696"><ele>13.999999999999998</ele><time>2026-04-18T08:08:57.823Z</time></trkpt><trkpt lat="45.4264716" lon="11.7798767"><ele>14.0</ele><time>2026-04-18T08:08:58.823Z</time></trkpt><trkpt lat="45.4263856" lon="11.7797845"><ele>14.0</ele><time>2026-04-18T08:08:59.823Z</time></trkpt><trkpt lat="45.4262974" lon="11.7796946"><ele>14.0</ele><time>2026-04-18T08:09:00.823Z</time></trkpt><trkpt lat="45.426208" lon="11.7796052"><ele>13.999999999999998</ele><time>2026-04-18T08:09:01.823Z</time></trkpt><trkpt lat="45.4261198" lon="11.7795124"><ele>13.999999999999998</ele><time>2026-04-18T08:09:02.823Z</time></trkpt><trkpt lat="45.4260368" lon="11.7794136"><ele>14.0</ele><time>2026-04-18T08:09:03.823Z</time></trkpt><trkpt lat="45.4259528" lon="11.7793199"><ele>14.0</ele><time>2026-04-18T08:09:04.823Z</time></trkpt><trkpt lat="45.425868" lon="11.7792294"><ele>14.2</ele><time>2026-04-18T08:09:05.823Z</time></trkpt><trkpt lat="45.4257821" lon="11.77914"><ele>14.399999999999999</ele><time>2026-04-18T08:09:06.823Z</time></trkpt><trkpt lat="45.4256955" lon="11.7790509"><ele>14.6</ele><time>2026-04-18T08:09:07.823Z</time></trkpt><trkpt lat="45.4256114" lon="11.7789608"><ele>14.8</ele><time>2026-04-18T08:09:08.823Z</time></trkpt><trkpt lat="45.4255238" lon="11.7788732"><ele>15.0</ele><time>2026-04-18T08:09:09.823Z</time></trkpt><trkpt lat="45.4254409" lon="11.7787807"><ele>15.0</ele><time>2026-04-18T08:09:10.823Z</time></trkpt><trkpt lat="45.4253544" lon="11.778691"><ele>15.0</ele><time>2026-04-18T08:09:11.824Z</time></trkpt><trkpt lat="45.4252668" lon="11.7785966"><ele>15.0</ele><time>2026-04-18T08:09:12.823Z</time></trkpt><trkpt lat="45.4251795" lon="11.7785035"><ele>15.0</ele><time>2026-04-18T08:09:13.823Z</time></trkpt><trkpt lat="45.4250896" lon="11.7784098"><ele>15.0</ele><time>2026-04-18T08:09:14.823Z</time></trkpt><trkpt lat="45.4249986" lon="11.7783188"><ele>15.0</ele><time>2026-04-18T08:09:15.823Z</time></trkpt><trkpt lat="45.4249095" lon="11.7782241"><ele>15.0</ele><time>2026-04-18T08:09:16.823Z</time></trkpt><trkpt lat="45.4248223" lon="11.7781302"><ele>15.0</ele><time>2026-04-18T08:09:17.823Z</time></trkpt><trkpt lat="45.4247341" lon="11.778041"><ele>15.0</ele><time>2026-04-18T08:09:18.823Z</time></trkpt><trkpt lat="45.424644" lon="11.7779465"><ele>15.0</ele><time>2026-04-18T08:09:19.823Z</time></trkpt><trkpt lat="45.4245579" lon="11.7778508"><ele>15.0</ele><time>2026-04-18T08:09:20.823Z</time></trkpt><trkpt lat="45.4244701" lon="11.7777545"><ele>15.0</ele><time>2026-04-18T08:09:21.823Z</time></trkpt><trkpt lat="45.4243813" lon="11.7776622"><ele>15.0</ele><time>2026-04-18T08:09:22.823Z</time></trkpt><trkpt lat="45.4242922" lon="11.7775705"><ele>15.0</ele><time>2026-04-18T08:09:23.823Z</time></trkpt><trkpt lat="45.4242044" lon="11.7774795"><ele>15.0</ele><time>2026-04-18T08:09:24.823Z</time></trkpt><trkpt lat="45.4241125" lon="11.7773851"><ele>15.0</ele><time>2026-04-18T08:09:25.823Z</time></trkpt><trkpt lat="45.4240226" lon="11.7772915"><ele>15.0</ele><time>2026-04-18T08:09:26.823Z</time></trkpt><trkpt lat="45.423933" lon="11.7771965"><ele>15.0</ele><time>2026-04-18T08:09:27.823Z</time></trkpt><trkpt lat="45.4238411" lon="11.777107"><ele>15.0</ele><time>2026-04-18T08:09:28.823Z</time></trkpt><trkpt lat="45.4237495" lon="11.7770116"><ele>15.0</ele><time>2026-04-18T08:09:29.823Z</time></trkpt><trkpt lat="45.4236581" lon="11.7769173"><ele>14.8</ele><time>2026-04-18T08:09:30.824Z</time></trkpt><trkpt lat="45.423568" lon="11.7768249"><ele>14.6</ele><time>2026-04-18T08:09:31.823Z</time></trkpt><trkpt lat="45.4234792" lon="11.7767297"><ele>14.399999999999999</ele><time>2026-04-18T08:09:32.823Z</time></trkpt><trkpt lat="45.4233887" lon="11.7766385"><ele>14.2</ele><time>2026-04-18T08:09:33.823Z</time></trkpt><trkpt lat="45.4232961" lon="11.7765396"><ele>14.0</ele><time>2026-04-18T08:09:34.823Z</time></trkpt><trkpt lat="45.4232015" lon="11.7764453"><ele>14.0</ele><time>2026-04-18T08:09:35.823Z</time></trkpt><trkpt lat="45.4231097" lon="11.7763456"><ele>14.0</ele><time>2026-04-18T08:09:36.823Z</time></trkpt><trkpt lat="45.4230165" lon="11.7762451"><ele>14.0</ele><time>2026-04-18T08:09:37.823Z</time></trkpt><trkpt lat="45.422924" lon="11.7761395"><ele>14.0</ele><time>2026-04-18T08:09:38.823Z</time></trkpt><trkpt lat="45.4228304" lon="11.776031"><ele>14.0</ele><time>2026-04-18T08:09:39.824Z</time></trkpt><trkpt lat="45.422736" lon="11.7759153"><ele>14.0</ele><time>2026-04-18T08:09:40.823Z</time></trkpt><trkpt lat="45.4226396" lon="11.7757985"><ele>14.0</ele><time>2026-04-18T08:09:41.823Z</time></trkpt><trkpt lat="45.4225449" lon="11.7756811"><ele>14.0</ele><time>2026-04-18T08:09:42.823Z</time></trkpt><trkpt lat="45.4224447" lon="11.7755669"><ele>14.0</ele><time>2026-04-18T08:09:43.823Z</time></trkpt><trkpt lat="45.4223453" lon="11.7754499"><ele>14.0</ele><time>2026-04-18T08:09:44.823Z</time></trkpt><trkpt lat="45.4222458" lon="11.7753302"><ele>14.0</ele><time>2026-04-18T08:09:45.823Z</time></trkpt><trkpt lat="45.4221504" lon="11.7752135"><ele>14.0</ele><time>2026-04-18T08:09:46.823Z</time></trkpt><trkpt lat="45.4220545" lon="11.7750945"><ele>14.5</ele><time>2026-04-18T08:09:47.823Z</time></trkpt><trkpt lat="45.4219582" lon="11.7749755"><ele>15.0</ele><time>2026-04-18T08:09:48.823Z</time></trkpt><trkpt lat="45.4218621" lon="11.774862"><ele>15.5</ele><time>2026-04-18T08:09:49.823Z</time></trkpt><trkpt lat="45.4217715" lon="11.774746"><ele>16.0</ele><time>2026-04-18T08:09:50.823Z</time></trkpt><trkpt lat="45.4216802" lon="11.7746334"><ele>16.0</ele><time>2026-04-18T08:09:51.823Z</time></trkpt><trkpt lat="45.4215969" lon="11.7745272"><ele>16.0</ele><time>2026-04-18T08:09:52.823Z</time></trkpt><trkpt lat="45.4215174" lon="11.7744315"><ele>16.0</ele><time>2026-04-18T08:09:53.823Z</time></trkpt><trkpt lat="45.4214459" lon="11.7743443"><ele>16.0</ele><time>2026-04-18T08:09:54.823Z</time></trkpt><trkpt lat="45.421381" lon="11.774263"><ele>16.0</ele><time>2026-04-18T08:09:55.823Z</time></trkpt><trkpt lat="45.4213219" lon="11.7741832"><ele>15.999999999999998</ele><time>2026-04-18T08:09:56.823Z</time></trkpt><trkpt lat="45.4212681" lon="11.7741103"><ele>16.0</ele><time>2026-04-18T08:09:57.823Z</time></trkpt><trkpt lat="45.4212123" lon="11.774042"><ele>16.0</ele><time>2026-04-18T08:09:58.823Z</time></trkpt><trkpt lat="45.4211568" lon="11.7739796"><ele>16.0</ele><time>2026-04-18T08:09:59.823Z</time></trkpt><trkpt lat="45.4210661" lon="11.7738821"><ele>15.999999999999998</ele><time>2026-04-18T08:10:01.823Z</time></trkpt><trkpt lat="45.4210142" lon="11.7737872"><ele>16.0</ele><time>2026-04-18T08:10:03.823Z</time></trkpt><trkpt lat="45.4209952" lon="11.7736967"><ele>16.0</ele><time>2026-04-18T08:10:05.823Z</time></trkpt><trkpt lat="45.4209948" lon="11.7735886"><ele>16.0</ele><time>2026-04-18T08:10:31.823Z</time></trkpt><trkpt lat="45.4210217" lon="11.7734184"><ele>16.0</ele><time>2026-04-18T08:10:33.823Z</time></trkpt><trkpt lat="45.4210464" lon="11.7733267"><ele>16.0</ele><time>2026-04-18T08:10:34.823Z</time></trkpt><trkpt lat="45.4210828" lon="11.7731662"><ele>16.0</ele><time>2026-04-18T08:10:36.823Z</time></trkpt><trkpt lat="45.4211315" lon="11.7730799"><ele>15.666666666666666</ele><time>2026-04-18T08:10:38.823Z</time></trkpt><trkpt lat="45.4211511" lon="11.7729828"><ele>15.333333333333332</ele><time>2026-04-18T08:12:01.823Z</time></trkpt><trkpt lat="45.4211507" lon="11.7728815"><ele>15.0</ele><time>2026-04-18T08:12:37.823Z</time></trkpt><trkpt lat="45.421169" lon="11.772791"><ele>14.666666666666668</ele><time>2026-04-18T08:12:38.823Z</time></trkpt><trkpt lat="45.4211948" lon="11.772679"><ele>14.333333333333334</ele><time>2026-04-18T08:12:39.823Z</time></trkpt><trkpt lat="45.4212262" lon="11.7725583"><ele>14.0</ele><time>2026-04-18T08:12:40.823Z</time></trkpt><trkpt lat="45.4212584" lon="11.7724168"><ele>14.0</ele><time>2026-04-18T08:12:41.823Z</time></trkpt><trkpt lat="45.4212967" lon="11.7722593"><ele>14.0</ele><time>2026-04-18T08:12:42.823Z</time></trkpt><trkpt lat="45.421336" lon="11.772097"><ele>14.0</ele><time>2026-04-18T08:12:43.823Z</time></trkpt><trkpt lat="45.421382" lon="11.771919"><ele>14.0</ele><time>2026-04-18T08:12:44.823Z</time></trkpt><trkpt lat="45.4214283" lon="11.7717312"><ele>14.0</ele><time>2026-04-18T08:12:45.823Z</time></trkpt><trkpt lat="45.4214803" lon="11.7715171"><ele>14.0</ele><time>2026-04-18T08:12:46.823Z</time></trkpt><trkpt lat="45.4215359" lon="11.7712779"><ele>14.0</ele><time>2026-04-18T08:12:47.823Z</time></trkpt><trkpt lat="45.4215917" lon="11.7710313"><ele>14.0</ele><time>2026-04-18T08:12:48.823Z</time></trkpt><trkpt lat="45.4216477" lon="11.7707936"><ele>14.0</ele><time>2026-04-18T08:12:49.823Z</time></trkpt><trkpt lat="45.4217009" lon="11.7705717"><ele>14.0</ele><time>2026-04-18T08:12:50.823Z</time></trkpt><trkpt lat="45.4217531" lon="11.7703625"><ele>14.2</ele><time>2026-04-18T08:12:51.823Z</time></trkpt><trkpt lat="45.4217989" lon="11.7701746"><ele>14.399999999999999</ele><time>2026-04-18T08:12:52.824Z</time></trkpt><trkpt lat="45.4218374" lon="11.7700251"><ele>14.6</ele><time>2026-04-18T08:12:53.823Z</time></trkpt><trkpt lat="45.4218667" lon="11.7699092"><ele>14.8</ele><time>2026-04-18T08:12:54.823Z</time></trkpt><trkpt lat="45.4218706" lon="11.7698153"><ele>15.0</ele><time>2026-04-18T08:12:55.823Z</time></trkpt><trkpt lat="45.4217806" lon="11.7696853"><ele>15.0</ele><time>2026-04-18T08:12:57.823Z</time></trkpt><trkpt lat="45.4216908" lon="11.7696139"><ele>15.0</ele><time>2026-04-18T08:12:58.823Z</time></trkpt><trkpt lat="45.4215989" lon="11.7695222"><ele>15.0</ele><time>2026-04-18T08:12:59.824Z</time></trkpt><trkpt lat="45.4215123" lon="11.7694269"><ele>15.0</ele><time>2026-04-18T08:13:00.823Z</time></trkpt><trkpt lat="45.4214126" lon="11.7693285"><ele>15.0</ele><time>2026-04-18T08:13:01.823Z</time></trkpt><trkpt lat="45.4213086" lon="11.7692216"><ele>14.75</ele><time>2026-04-18T08:13:02.823Z</time></trkpt><trkpt lat="45.4212" lon="11.7691189"><ele>14.5</ele><time>2026-04-18T08:13:03.823Z</time></trkpt><trkpt lat="45.4210928" lon="11.7690178"><ele>14.25</ele><time>2026-04-18T08:13:04.823Z</time></trkpt><trkpt lat="45.42099" lon="11.7689295"><ele>14.0</ele><time>2026-04-18T08:13:05.823Z</time></trkpt><trkpt lat="45.4208869" lon="11.7688577"><ele>14.0</ele><time>2026-04-18T08:13:06.823Z</time></trkpt><trkpt lat="45.4207719" lon="11.7688049"><ele>14.0</ele><time>2026-04-18T08:13:07.823Z</time></trkpt><trkpt lat="45.4206495" lon="11.7687596"><ele>14.0</ele><time>2026-04-18T08:13:08.823Z</time></trkpt><trkpt lat="45.4205163" lon="11.7687235"><ele>14.0</ele><time>2026-04-18T08:13:09.823Z</time></trkpt><trkpt lat="45.4203793" lon="11.7686895"><ele>13.666666666666668</ele><time>2026-04-18T08:13:10.823Z</time></trkpt><trkpt lat="45.4202344" lon="11.7686557"><ele>13.333333333333332</ele><time>2026-04-18T08:13:11.823Z</time></trkpt><trkpt lat="45.4200883" lon="11.7686145"><ele>13.0</ele><time>2026-04-18T08:13:12.823Z</time></trkpt><trkpt lat="45.4199363" lon="11.7685763"><ele>13.0</ele><time>2026-04-18T08:13:13.823Z</time></trkpt><trkpt lat="45.4197868" lon="11.7685449"><ele>13.0</ele><time>2026-04-18T08:13:14.823Z</time></trkpt><trkpt lat="45.4196438" lon="11.7685156"><ele>13.0</ele><time>2026-04-18T08:13:15.823Z</time></trkpt><trkpt lat="45.4195139" lon="11.768491"><ele>13.0</ele><time>2026-04-18T08:13:16.824Z</time></trkpt><trkpt lat="45.419389" lon="11.7684585"><ele>13.666666666666666</ele><time>2026-04-18T08:13:17.823Z</time></trkpt><trkpt lat="45.4192486" lon="11.7683954"><ele>14.333333333333332</ele><time>2026-04-18T08:13:18.823Z</time></trkpt><trkpt lat="45.4191105" lon="11.7682931"><ele>15.0</ele><time>2026-04-18T08:13:19.823Z</time></trkpt><trkpt lat="45.4189781" lon="11.7681646"><ele>15.0</ele><time>2026-04-18T08:13:20.823Z</time></trkpt><trkpt lat="45.4188536" lon="11.7680187"><ele>15.0</ele><time>2026-04-18T08:13:21.823Z</time></trkpt><trkpt lat="45.418732" lon="11.7678546"><ele>15.0</ele><time>2026-04-18T08:13:22.823Z</time></trkpt><trkpt lat="45.4186181" lon="11.7676705"><ele>15.0</ele><time>2026-04-18T08:13:23.823Z</time></trkpt><trkpt lat="45.4185118" lon="11.7674696"><ele>15.0</ele><time>2026-04-18T08:13:24.824Z</time></trkpt><trkpt lat="45.4184004" lon="11.7672539"><ele>15.0</ele><time>2026-04-18T08:13:25.823Z</time></trkpt><trkpt lat="45.418287" lon="11.7670257"><ele>15.0</ele><time>2026-04-18T08:13:26.823Z</time></trkpt><trkpt lat="45.4181733" lon="11.766791"><ele>15.0</ele><time>2026-04-18T08:13:27.823Z</time></trkpt><trkpt lat="45.4180657" lon="11.766535"><ele>15.0</ele><time>2026-04-18T08:13:28.823Z</time></trkpt><trkpt lat="45.4179641" lon="11.766268"><ele>14.666666666666668</ele><time>2026-04-18T08:13:29.823Z</time></trkpt><trkpt lat="45.4178679" lon="11.7660168"><ele>14.333333333333334</ele><time>2026-04-18T08:13:30.823Z</time></trkpt><trkpt lat="45.4177796" lon="11.765778"><ele>14.0</ele><time>2026-04-18T08:13:31.823Z</time></trkpt><trkpt lat="45.4176955" lon="11.7655579"><ele>14.0</ele><time>2026-04-18T08:13:32.823Z</time></trkpt><trkpt lat="45.4176168" lon="11.7653481"><ele>14.0</ele><time>2026-04-18T08:13:33.823Z</time></trkpt><trkpt lat="45.4175397" lon="11.7651242"><ele>14.0</ele><time>2026-04-18T08:13:34.823Z</time></trkpt><trkpt lat="45.4174717" lon="11.7648722"><ele>14.0</ele><time>2026-04-18T08:13:35.823Z</time></trkpt><trkpt lat="45.4174261" lon="11.7646193"><ele>14.0</ele><time>2026-04-18T08:13:36.823Z</time></trkpt><trkpt lat="45.4173883" lon="11.7643849"><ele>14.0</ele><time>2026-04-18T08:13:37.823Z</time></trkpt><trkpt lat="45.4173572" lon="11.7641832"><ele>14.2</ele><time>2026-04-18T08:13:38.823Z</time></trkpt><trkpt lat="45.4173319" lon="11.7640198"><ele>14.399999999999999</ele><time>2026-04-18T08:13:39.823Z</time></trkpt><trkpt lat="45.4172925" lon="11.7638785"><ele>14.6</ele><time>2026-04-18T08:13:40.823Z</time></trkpt><trkpt lat="45.4172246" lon="11.7637626"><ele>14.8</ele><time>2026-04-18T08:13:41.823Z</time></trkpt><trkpt lat="45.4171218" lon="11.763682"><ele>15.0</ele><time>2026-04-18T08:13:42.823Z</time></trkpt><trkpt lat="45.4169801" lon="11.7636348"><ele>15.0</ele><time>2026-04-18T08:13:43.823Z</time></trkpt><trkpt lat="45.416799" lon="11.7635919"><ele>15.0</ele><time>2026-04-18T08:13:44.823Z</time></trkpt><trkpt lat="45.4166291" lon="11.7635492"><ele>15.0</ele><time>2026-04-18T08:13:45.823Z</time></trkpt><trkpt lat="45.4164688" lon="11.7635144"><ele>15.0</ele><time>2026-04-18T08:13:46.823Z</time></trkpt><trkpt lat="45.4163234" lon="11.7634758"><ele>15.0</ele><time>2026-04-18T08:13:47.823Z</time></trkpt><trkpt lat="45.4161937" lon="11.763436"><ele>15.0</ele><time>2026-04-18T08:13:48.823Z</time></trkpt><trkpt lat="45.4160779" lon="11.7633729"><ele>15.0</ele><time>2026-04-18T08:13:49.823Z</time></trkpt><trkpt lat="45.4159824" lon="11.7632654"><ele>14.75</ele><time>2026-04-18T08:13:50.823Z</time></trkpt><trkpt lat="45.4159192" lon="11.7631291"><ele>14.5</ele><time>2026-04-18T08:13:51.823Z</time></trkpt><trkpt lat="45.4158892" lon="11.7629598"><ele>14.25</ele><time>2026-04-18T08:13:52.823Z</time></trkpt><trkpt lat="45.4159027" lon="11.7627649"><ele>14.0</ele><time>2026-04-18T08:13:53.823Z</time></trkpt><trkpt lat="45.4159304" lon="11.7625689"><ele>14.0</ele><time>2026-04-18T08:13:54.823Z</time></trkpt><trkpt lat="45.4159491" lon="11.7623933"><ele>14.0</ele><time>2026-04-18T08:13:55.824Z</time></trkpt><trkpt lat="45.4159365" lon="11.7622316"><ele>14.0</ele><time>2026-04-18T08:13:56.823Z</time></trkpt><trkpt lat="45.4158812" lon="11.7620888"><ele>14.0</ele><time>2026-04-18T08:13:57.823Z</time></trkpt><trkpt lat="45.4157767" lon="11.7619718"><ele>14.0</ele><time>2026-04-18T08:13:58.823Z</time></trkpt><trkpt lat="45.4156397" lon="11.7618524"><ele>14.0</ele><time>2026-04-18T08:13:59.823Z</time></trkpt><trkpt lat="45.4155034" lon="11.7617361"><ele>14.0</ele><time>2026-04-18T08:14:00.823Z</time></trkpt><trkpt lat="45.4153756" lon="11.7616287"><ele>14.0</ele><time>2026-04-18T08:14:01.823Z</time></trkpt><trkpt lat="45.4152587" lon="11.7615193"><ele>14.0</ele><time>2026-04-18T08:14:02.823Z</time></trkpt><trkpt lat="45.4151509" lon="11.7614033"><ele>14.0</ele><time>2026-04-18T08:14:03.823Z</time></trkpt><trkpt lat="45.4150499" lon="11.7612839"><ele>14.0</ele><time>2026-04-18T08:14:04.823Z</time></trkpt><trkpt lat="45.4149518" lon="11.7611496"><ele>14.25</ele><time>2026-04-18T08:14:05.823Z</time></trkpt><trkpt lat="45.4148641" lon="11.7609908"><ele>14.5</ele><time>2026-04-18T08:14:06.823Z</time></trkpt><trkpt lat="45.4147792" lon="11.7608198"><ele>14.75</ele><time>2026-04-18T08:14:07.823Z</time></trkpt><trkpt lat="45.4146899" lon="11.7606419"><ele>15.0</ele><time>2026-04-18T08:14:08.824Z</time></trkpt><trkpt lat="45.4146009" lon="11.7604531"><ele>15.0</ele><time>2026-04-18T08:14:09.823Z</time></trkpt><trkpt lat="45.4145128" lon="11.7602679"><ele>15.0</ele><time>2026-04-18T08:14:10.823Z</time></trkpt><trkpt lat="45.4144182" lon="11.7600748"><ele>15.0</ele><time>2026-04-18T08:14:11.823Z</time></trkpt><trkpt lat="45.4143198" lon="11.7598736"><ele>15.0</ele><time>2026-04-18T08:14:12.823Z</time></trkpt><trkpt lat="45.4142173" lon="11.7596767"><ele>15.0</ele><time>2026-04-18T08:14:13.824Z</time></trkpt><trkpt lat="45.4141141" lon="11.7594815"><ele>15.0</ele><time>2026-04-18T08:14:14.823Z</time></trkpt><trkpt lat="45.4140094" lon="11.7593096"><ele>15.0</ele><time>2026-04-18T08:14:15.823Z</time></trkpt><trkpt lat="45.4138997" lon="11.7591432"><ele>15.0</ele><time>2026-04-18T08:14:16.823Z</time></trkpt><trkpt lat="45.4137909" lon="11.758971"><ele>15.0</ele><time>2026-04-18T08:14:17.823Z</time></trkpt><trkpt lat="45.4136775" lon="11.7587983"><ele>15.0</ele><time>2026-04-18T08:14:18.823Z</time></trkpt><trkpt lat="45.4135611" lon="11.7586199"><ele>15.0</ele><time>2026-04-18T08:14:19.823Z</time></trkpt><trkpt lat="45.4134487" lon="11.7584344"><ele>15.0</ele><time>2026-04-18T08:14:20.823Z</time></trkpt><trkpt lat="45.4133496" lon="11.7582478"><ele>15.0</ele><time>2026-04-18T08:14:21.824Z</time></trkpt><trkpt lat="45.413261" lon="11.7580716"><ele>15.0</ele><time>2026-04-18T08:14:22.823Z</time></trkpt><trkpt lat="45.4131799" lon="11.7579118"><ele>15.0</ele><time>2026-04-18T08:14:23.823Z</time></trkpt><trkpt lat="45.4131103" lon="11.7577699"><ele>15.0</ele><time>2026-04-18T08:14:24.823Z</time></trkpt><trkpt lat="45.4130534" lon="11.7576582"><ele>14.8</ele><time>2026-04-18T08:14:25.823Z</time></trkpt><trkpt lat="45.4130197" lon="11.7575511"><ele>14.6</ele><time>2026-04-18T08:14:26.823Z</time></trkpt><trkpt lat="45.4130126" lon="11.7574476"><ele>14.399999999999999</ele><time>2026-04-18T08:14:27.823Z</time></trkpt><trkpt lat="45.4130408" lon="11.7573342"><ele>14.2</ele><time>2026-04-18T08:14:28.823Z</time></trkpt><trkpt lat="45.4131062" lon="11.757219"><ele>14.0</ele><time>2026-04-18T08:14:29.823Z</time></trkpt><trkpt lat="45.4132161" lon="11.7571151"><ele>14.0</ele><time>2026-04-18T08:14:30.823Z</time></trkpt><trkpt lat="45.4133295" lon="11.7570256"><ele>14.0</ele><time>2026-04-18T08:14:31.823Z</time></trkpt><trkpt lat="45.4134206" lon="11.7569302"><ele>14.0</ele><time>2026-04-18T08:14:32.823Z</time></trkpt><trkpt lat="45.4134921" lon="11.756801"><ele>14.0</ele><time>2026-04-18T08:14:33.823Z</time></trkpt><trkpt lat="45.4135209" lon="11.7566384"><ele>14.333333333333334</ele><time>2026-04-18T08:14:34.823Z</time></trkpt><trkpt lat="45.4135097" lon="11.7564336"><ele>14.666666666666668</ele><time>2026-04-18T08:14:35.823Z</time></trkpt><trkpt lat="45.4134633" lon="11.7561821"><ele>15.0</ele><time>2026-04-18T08:14:36.823Z</time></trkpt><trkpt lat="45.4134223" lon="11.7559473"><ele>15.0</ele><time>2026-04-18T08:14:37.823Z</time></trkpt><trkpt lat="45.413382" lon="11.755728"><ele>15.0</ele><time>2026-04-18T08:14:38.823Z</time></trkpt><trkpt lat="45.4133404" lon="11.7555273"><ele>15.0</ele><time>2026-04-18T08:14:39.823Z</time></trkpt><trkpt lat="45.4133042" lon="11.7553462"><ele>15.0</ele><time>2026-04-18T08:14:40.823Z</time></trkpt><trkpt lat="45.4132758" lon="11.7551505"><ele>15.0</ele><time>2026-04-18T08:14:41.823Z</time></trkpt><trkpt lat="45.4132741" lon="11.7549363"><ele>15.0</ele><time>2026-04-18T08:14:42.823Z</time></trkpt><trkpt lat="45.4132945" lon="11.7547118"><ele>15.0</ele><time>2026-04-18T08:14:43.823Z</time></trkpt><trkpt lat="45.4133258" lon="11.7544781"><ele>15.25</ele><time>2026-04-18T08:14:44.823Z</time></trkpt><trkpt lat="45.4133542" lon="11.7542644"><ele>15.5</ele><time>2026-04-18T08:14:45.824Z</time></trkpt><trkpt lat="45.413369" lon="11.7540761"><ele>15.75</ele><time>2026-04-18T08:14:46.823Z</time></trkpt><trkpt lat="45.4133746" lon="11.7538935"><ele>16.0</ele><time>2026-04-18T08:14:47.823Z</time></trkpt><trkpt lat="45.4133529" lon="11.7537224"><ele>16.0</ele><time>2026-04-18T08:14:48.823Z</time></trkpt><trkpt lat="45.4132864" lon="11.7535642"><ele>16.0</ele><time>2026-04-18T08:14:49.823Z</time></trkpt><trkpt lat="45.413179" lon="11.7534081"><ele>16.0</ele><time>2026-04-18T08:14:50.823Z</time></trkpt><trkpt lat="45.4130786" lon="11.7532776"><ele>16.0</ele><time>2026-04-18T08:14:51.823Z</time></trkpt><trkpt lat="45.4129907" lon="11.7531539"><ele>15.600000000000001</ele><time>2026-04-18T08:14:52.823Z</time></trkpt><trkpt lat="45.4129174" lon="11.7530531"><ele>15.200000000000001</ele><time>2026-04-18T08:14:53.823Z</time></trkpt><trkpt lat="45.4128615" lon="11.75296"><ele>14.799999999999999</ele><time>2026-04-18T08:14:54.823Z</time></trkpt><trkpt lat="45.4128214" lon="11.7528462"><ele>14.399999999999999</ele><time>2026-04-18T08:14:55.823Z</time></trkpt><trkpt lat="45.4128095" lon="11.7527008"><ele>14.0</ele><time>2026-04-18T08:14:56.823Z</time></trkpt><trkpt lat="45.4128248" lon="11.7525294"><ele>14.0</ele><time>2026-04-18T08:14:57.823Z</time></trkpt><trkpt lat="45.4128398" lon="11.7523581"><ele>14.0</ele><time>2026-04-18T08:14:58.823Z</time></trkpt><trkpt lat="45.4128456" lon="11.7522021"><ele>14.0</ele><time>2026-04-18T08:14:59.823Z</time></trkpt><trkpt lat="45.4128178" lon="11.7520616"><ele>14.0</ele><time>2026-04-18T08:15:00.823Z</time></trkpt><trkpt lat="45.4127495" lon="11.7519175"><ele>14.333333333333334</ele><time>2026-04-18T08:15:01.823Z</time></trkpt><trkpt lat="45.412631" lon="11.7517763"><ele>14.666666666666668</ele><time>2026-04-18T08:15:02.823Z</time></trkpt><trkpt lat="45.4125031" lon="11.7516321"><ele>15.0</ele><time>2026-04-18T08:15:03.823Z</time></trkpt><trkpt lat="45.4123715" lon="11.7514867"><ele>15.0</ele><time>2026-04-18T08:15:04.823Z</time></trkpt><trkpt lat="45.412244" lon="11.7513491"><ele>15.0</ele><time>2026-04-18T08:15:05.823Z</time></trkpt><trkpt lat="45.4121224" lon="11.7512223"><ele>15.0</ele><time>2026-04-18T08:15:06.823Z</time></trkpt><trkpt lat="45.4120101" lon="11.7510986"><ele>15.0</ele><time>2026-04-18T08:15:07.823Z</time></trkpt><trkpt lat="45.4119033" lon="11.7509812"><ele>15.0</ele><time>2026-04-18T08:15:08.823Z</time></trkpt><trkpt lat="45.4118002" lon="11.7508694"><ele>15.0</ele><time>2026-04-18T08:15:09.823Z</time></trkpt><trkpt lat="45.411695" lon="11.7507586"><ele>15.0</ele><time>2026-04-18T08:15:10.824Z</time></trkpt><trkpt lat="45.4115923" lon="11.7506504"><ele>15.0</ele><time>2026-04-18T08:15:11.823Z</time></trkpt><trkpt lat="45.4115153" lon="11.7505644"><ele>15.0</ele><time>2026-04-18T08:15:12.823Z</time></trkpt><trkpt lat="45.4114466" lon="11.7504886"><ele>15.0</ele><time>2026-04-18T08:15:13.823Z</time></trkpt><trkpt lat="45.411401" lon="11.7504029"><ele>15.0</ele><time>2026-04-18T08:15:14.823Z</time></trkpt><trkpt lat="45.4113745" lon="11.7502892"><ele>15.0</ele><time>2026-04-18T08:15:15.823Z</time></trkpt><trkpt lat="45.4113817" lon="11.7501392"><ele>15.0</ele><time>2026-04-18T08:15:16.824Z</time></trkpt><trkpt lat="45.4114171" lon="11.7499954"><ele>15.0</ele><time>2026-04-18T08:15:17.823Z</time></trkpt><trkpt lat="45.4114591" lon="11.7498691"><ele>15.0</ele><time>2026-04-18T08:15:18.823Z</time></trkpt><trkpt lat="45.4115044" lon="11.7497562"><ele>15.0</ele><time>2026-04-18T08:15:19.823Z</time></trkpt><trkpt lat="45.4115577" lon="11.749657"><ele>15.0</ele><time>2026-04-18T08:15:20.823Z</time></trkpt><trkpt lat="45.4116146" lon="11.7495593"><ele>15.0</ele><time>2026-04-18T08:15:21.823Z</time></trkpt><trkpt lat="45.4116902" lon="11.7494642"><ele>15.0</ele><time>2026-04-18T08:15:22.823Z</time></trkpt><trkpt lat="45.4117766" lon="11.749357"><ele>15.0</ele><time>2026-04-18T08:15:23.823Z</time></trkpt><trkpt lat="45.4118519" lon="11.7492615"><ele>15.0</ele><time>2026-04-18T08:15:24.823Z</time></trkpt><trkpt lat="45.4119277" lon="11.7491607"><ele>15.0</ele><time>2026-04-18T08:15:25.823Z</time></trkpt><trkpt lat="45.4120082" lon="11.7490661"><ele>14.8</ele><time>2026-04-18T08:15:26.823Z</time></trkpt><trkpt lat="45.4120715" lon="11.7489728"><ele>14.6</ele><time>2026-04-18T08:15:27.823Z</time></trkpt><trkpt lat="45.4121598" lon="11.7488642"><ele>14.399999999999999</ele><time>2026-04-18T08:15:28.823Z</time></trkpt><trkpt lat="45.4122442" lon="11.7487741"><ele>14.2</ele><time>2026-04-18T08:15:29.823Z</time></trkpt><trkpt lat="45.4123312" lon="11.7486775"><ele>14.0</ele><time>2026-04-18T08:15:30.823Z</time></trkpt><trkpt lat="45.4124207" lon="11.748579"><ele>14.0</ele><time>2026-04-18T08:15:31.823Z</time></trkpt><trkpt lat="45.412509" lon="11.7484857"><ele>14.0</ele><time>2026-04-18T08:15:32.823Z</time></trkpt><trkpt lat="45.4126073" lon="11.748383"><ele>14.0</ele><time>2026-04-18T08:15:33.823Z</time></trkpt><trkpt lat="45.4127106" lon="11.7482737"><ele>14.0</ele><time>2026-04-18T08:15:34.823Z</time></trkpt><trkpt lat="45.4128145" lon="11.7481596"><ele>14.0</ele><time>2026-04-18T08:15:35.823Z</time></trkpt><trkpt lat="45.4129197" lon="11.7480453"><ele>14.0</ele><time>2026-04-18T08:15:36.823Z</time></trkpt><trkpt lat="45.4130249" lon="11.7479316"><ele>14.0</ele><time>2026-04-18T08:15:37.823Z</time></trkpt><trkpt lat="45.4131304" lon="11.7478173"><ele>14.0</ele><time>2026-04-18T08:15:38.823Z</time></trkpt><trkpt lat="45.4132365" lon="11.747704"><ele>14.0</ele><time>2026-04-18T08:15:39.823Z</time></trkpt><trkpt lat="45.4133435" lon="11.7475886"><ele>14.0</ele><time>2026-04-18T08:15:40.823Z</time></trkpt><trkpt lat="45.4134545" lon="11.7474726"><ele>14.0</ele><time>2026-04-18T08:15:41.823Z</time></trkpt><trkpt lat="45.4135679" lon="11.7473517"><ele>14.0</ele><time>2026-04-18T08:15:42.823Z</time></trkpt><trkpt lat="45.41368" lon="11.7472362"><ele>14.0</ele><time>2026-04-18T08:15:43.823Z</time></trkpt><trkpt lat="45.4137792" lon="11.7471278"><ele>14.0</ele><time>2026-04-18T08:15:44.823Z</time></trkpt><trkpt lat="45.4138821" lon="11.7470119"><ele>14.0</ele><time>2026-04-18T08:15:45.823Z</time></trkpt><trkpt lat="45.4139885" lon="11.7469057"><ele>14.0</ele><time>2026-04-18T08:15:46.823Z</time></trkpt><trkpt lat="45.4141026" lon="11.7468339"><ele>13.75</ele><time>2026-04-18T08:15:47.823Z</time></trkpt><trkpt lat="45.4142201" lon="11.7467968"><ele>13.5</ele><time>2026-04-18T08:15:48.823Z</time></trkpt><trkpt lat="45.4143569" lon="11.7468241"><ele>13.25</ele><time>2026-04-18T08:15:49.823Z</time></trkpt><trkpt lat="45.4145105" lon="11.7468684"><ele>13.0</ele><time>2026-04-18T08:15:50.823Z</time></trkpt><trkpt lat="45.4146643" lon="11.7469165"><ele>13.75</ele><time>2026-04-18T08:15:51.823Z</time></trkpt><trkpt lat="45.4148043" lon="11.7469613"><ele>14.5</ele><time>2026-04-18T08:15:52.823Z</time></trkpt><trkpt lat="45.4149329" lon="11.7470029"><ele>15.25</ele><time>2026-04-18T08:15:53.823Z</time></trkpt><trkpt lat="45.4150535" lon="11.7470334"><ele>16.0</ele><time>2026-04-18T08:15:54.823Z</time></trkpt><trkpt lat="45.4151683" lon="11.747068"><ele>15.999999999999998</ele><time>2026-04-18T08:15:55.823Z</time></trkpt><trkpt lat="45.4152353" lon="11.747087"><ele>16.0</ele><time>2026-04-18T08:15:56.823Z</time></trkpt><trkpt lat="45.4153286" lon="11.7470842"><ele>16.0</ele><time>2026-04-18T08:15:58.823Z</time></trkpt><trkpt lat="45.4153795" lon="11.7470166"><ele>16.0</ele><time>2026-04-18T08:16:00.823Z</time></trkpt><trkpt lat="45.4153824" lon="11.7468392"><ele>15.999999999999998</ele><time>2026-04-18T08:16:02.823Z</time></trkpt><trkpt lat="45.4153775" lon="11.7467106"><ele>16.0</ele><time>2026-04-18T08:16:03.823Z</time></trkpt><trkpt lat="45.4153778" lon="11.7465733"><ele>16.0</ele><time>2026-04-18T08:16:04.823Z</time></trkpt><trkpt lat="45.415374" lon="11.746407"><ele>16.0</ele><time>2026-04-18T08:16:05.823Z</time></trkpt><trkpt lat="45.4153707" lon="11.7462313"><ele>16.0</ele><time>2026-04-18T08:16:06.823Z</time></trkpt><trkpt lat="45.4153644" lon="11.7460348"><ele>16.0</ele><time>2026-04-18T08:16:07.823Z</time></trkpt><trkpt lat="45.4153598" lon="11.7458301"><ele>15.25</ele><time>2026-04-18T08:16:08.823Z</time></trkpt><trkpt lat="45.415356" lon="11.7456432"><ele>14.5</ele><time>2026-04-18T08:16:09.824Z</time></trkpt><trkpt lat="45.4153532" lon="11.7454641"><ele>13.75</ele><time>2026-04-18T08:16:10.823Z</time></trkpt><trkpt lat="45.4153499" lon="11.7452888"><ele>13.0</ele><time>2026-04-18T08:16:11.823Z</time></trkpt><trkpt lat="45.415345" lon="11.7451212"><ele>12.8</ele><time>2026-04-18T08:16:12.824Z</time></trkpt><trkpt lat="45.4153433" lon="11.7449727"><ele>12.600000000000001</ele><time>2026-04-18T08:16:13.824Z</time></trkpt><trkpt lat="45.4153428" lon="11.7448359"><ele>12.399999999999999</ele><time>2026-04-18T08:16:14.823Z</time></trkpt><trkpt lat="45.4153384" lon="11.7447037"><ele>12.2</ele><time>2026-04-18T08:16:15.823Z</time></trkpt><trkpt lat="45.4153106" lon="11.7445562"><ele>12.0</ele><time>2026-04-18T08:16:16.823Z</time></trkpt><trkpt lat="45.4152408" lon="11.7443939"><ele>13.333333333333332</ele><time>2026-04-18T08:16:17.823Z</time></trkpt><trkpt lat="45.4151294" lon="11.744232"><ele>14.666666666666666</ele><time>2026-04-18T08:16:18.823Z</time></trkpt><trkpt lat="45.4150088" lon="11.7440792"><ele>16.0</ele><time>2026-04-18T08:16:19.823Z</time></trkpt><trkpt lat="45.4148938" lon="11.7439306"><ele>16.0</ele><time>2026-04-18T08:16:20.823Z</time></trkpt><trkpt lat="45.4147838" lon="11.7437913"><ele>16.0</ele><time>2026-04-18T08:16:21.823Z</time></trkpt><trkpt lat="45.414681" lon="11.7436602"><ele>16.0</ele><time>2026-04-18T08:16:22.823Z</time></trkpt><trkpt lat="45.4145797" lon="11.7435313"><ele>16.0</ele><time>2026-04-18T08:16:23.823Z</time></trkpt><trkpt lat="45.4144827" lon="11.7434018"><ele>15.75</ele><time>2026-04-18T08:16:24.823Z</time></trkpt><trkpt lat="45.4143831" lon="11.7432767"><ele>15.5</ele><time>2026-04-18T08:16:25.823Z</time></trkpt><trkpt lat="45.4142843" lon="11.7431486"><ele>15.25</ele><time>2026-04-18T08:16:26.823Z</time></trkpt><trkpt lat="45.4141849" lon="11.7430187"><ele>15.0</ele><time>2026-04-18T08:16:27.823Z</time></trkpt><trkpt lat="45.4140833" lon="11.742888"><ele>15.0</ele><time>2026-04-18T08:16:28.823Z</time></trkpt><trkpt lat="45.4139838" lon="11.7427583"><ele>15.0</ele><time>2026-04-18T08:16:29.823Z</time></trkpt><trkpt lat="45.4138858" lon="11.7426272"><ele>15.0</ele><time>2026-04-18T08:16:30.823Z</time></trkpt><trkpt lat="45.4137942" lon="11.7425044"><ele>15.0</ele><time>2026-04-18T08:16:31.823Z</time></trkpt><trkpt lat="45.4137117" lon="11.7423862"><ele>14.8</ele><time>2026-04-18T08:16:32.823Z</time></trkpt><trkpt lat="45.4136387" lon="11.742274"><ele>14.6</ele><time>2026-04-18T08:16:33.823Z</time></trkpt><trkpt lat="45.4135771" lon="11.7421593"><ele>14.399999999999999</ele><time>2026-04-18T08:16:34.823Z</time></trkpt><trkpt lat="45.4135216" lon="11.7420244"><ele>14.2</ele><time>2026-04-18T08:16:35.824Z</time></trkpt><trkpt lat="45.4134707" lon="11.7418754"><ele>14.0</ele><time>2026-04-18T08:16:36.823Z</time></trkpt><trkpt lat="45.413422" lon="11.7417262"><ele>14.333333333333334</ele><time>2026-04-18T08:16:37.823Z</time></trkpt><trkpt lat="45.4133761" lon="11.7415863"><ele>14.666666666666668</ele><time>2026-04-18T08:16:38.823Z</time></trkpt><trkpt lat="45.4133393" lon="11.7414774"><ele>15.0</ele><time>2026-04-18T08:16:39.823Z</time></trkpt><trkpt lat="45.4133058" lon="11.741375"><ele>15.333333333333332</ele><time>2026-04-18T08:16:40.823Z</time></trkpt><trkpt lat="45.4132962" lon="11.7412741"><ele>15.666666666666666</ele><time>2026-04-18T08:16:41.823Z</time></trkpt><trkpt lat="45.4133021" lon="11.741175"><ele>16.0</ele><time>2026-04-18T08:16:42.823Z</time></trkpt><trkpt lat="45.4132797" lon="11.7410855"><ele>16.6</ele><time>2026-04-18T08:16:43.823Z</time></trkpt><trkpt lat="45.4132183" lon="11.7410281"><ele>17.200000000000003</ele><time>2026-04-18T08:16:44.824Z</time></trkpt><trkpt lat="45.4131258" lon="11.7409786"><ele>17.799999999999997</ele><time>2026-04-18T08:16:45.823Z</time></trkpt><trkpt lat="45.4130238" lon="11.7409095"><ele>18.4</ele><time>2026-04-18T08:16:46.823Z</time></trkpt><trkpt lat="45.4129156" lon="11.7408407"><ele>19.0</ele><time>2026-04-18T08:16:47.824Z</time></trkpt><trkpt lat="45.4127869" lon="11.7407675"><ele>19.0</ele><time>2026-04-18T08:16:48.823Z</time></trkpt><trkpt lat="45.4126417" lon="11.7406792"><ele>19.0</ele><time>2026-04-18T08:16:49.823Z</time></trkpt><trkpt lat="45.4124835" lon="11.7405801"><ele>19.0</ele><time>2026-04-18T08:16:50.823Z</time></trkpt><trkpt lat="45.4123139" lon="11.740477"><ele>18.333333333333332</ele><time>2026-04-18T08:16:51.823Z</time></trkpt><trkpt lat="45.4121517" lon="11.7403761"><ele>17.666666666666668</ele><time>2026-04-18T08:16:52.823Z</time></trkpt><trkpt lat="45.4119993" lon="11.7402808"><ele>17.0</ele><time>2026-04-18T08:16:53.823Z</time></trkpt><trkpt lat="45.4118537" lon="11.7401858"><ele>16.333333333333336</ele><time>2026-04-18T08:16:54.823Z</time></trkpt><trkpt lat="45.411707" lon="11.7401015"><ele>15.666666666666668</ele><time>2026-04-18T08:16:55.823Z</time></trkpt><trkpt lat="45.4115661" lon="11.7400125"><ele>15.0</ele><time>2026-04-18T08:16:56.823Z</time></trkpt><trkpt lat="45.4114228" lon="11.7399222"><ele>15.333333333333332</ele><time>2026-04-18T08:16:57.823Z</time></trkpt><trkpt lat="45.4112764" lon="11.7398283"><ele>15.666666666666666</ele><time>2026-04-18T08:16:58.823Z</time></trkpt><trkpt lat="45.4111353" lon="11.739736"><ele>16.0</ele><time>2026-04-18T08:16:59.823Z</time></trkpt><trkpt lat="45.4109841" lon="11.7396396"><ele>16.0</ele><time>2026-04-18T08:17:00.823Z</time></trkpt><trkpt lat="45.4108351" lon="11.7395459"><ele>16.0</ele><time>2026-04-18T08:17:01.823Z</time></trkpt><trkpt lat="45.410694" lon="11.7394579"><ele>16.0</ele><time>2026-04-18T08:17:02.823Z</time></trkpt><trkpt lat="45.4105471" lon="11.7393658"><ele>16.0</ele><time>2026-04-18T08:17:03.823Z</time></trkpt><trkpt lat="45.4103951" lon="11.7392731"><ele>16.0</ele><time>2026-04-18T08:17:04.823Z</time></trkpt><trkpt lat="45.4102516" lon="11.739183"><ele>16.0</ele><time>2026-04-18T08:17:05.823Z</time></trkpt><trkpt lat="45.41011" lon="11.7391031"><ele>16.0</ele><time>2026-04-18T08:17:06.823Z</time></trkpt><trkpt lat="45.4099664" lon="11.7390178"><ele>16.0</ele><time>2026-04-18T08:17:07.823Z</time></trkpt><trkpt lat="45.4098317" lon="11.7389331"><ele>16.0</ele><time>2026-04-18T08:17:08.823Z</time></trkpt><trkpt lat="45.4097014" lon="11.7388548"><ele>16.0</ele><time>2026-04-18T08:17:09.823Z</time></trkpt><trkpt lat="45.4095827" lon="11.7387802"><ele>16.25</ele><time>2026-04-18T08:17:10.823Z</time></trkpt><trkpt lat="45.409456" lon="11.7387011"><ele>16.5</ele><time>2026-04-18T08:17:11.823Z</time></trkpt><trkpt lat="45.4093187" lon="11.7386146"><ele>16.75</ele><time>2026-04-18T08:17:12.824Z</time></trkpt><trkpt lat="45.4091875" lon="11.7385338"><ele>17.0</ele><time>2026-04-18T08:17:13.823Z</time></trkpt><trkpt lat="45.4090477" lon="11.7384495"><ele>17.0</ele><time>2026-04-18T08:17:14.823Z</time></trkpt><trkpt lat="45.4088938" lon="11.738347"><ele>17.0</ele><time>2026-04-18T08:17:15.823Z</time></trkpt><trkpt lat="45.4087389" lon="11.7382508"><ele>17.0</ele><time>2026-04-18T08:17:16.824Z</time></trkpt><trkpt lat="45.4085941" lon="11.7381615"><ele>17.0</ele><time>2026-04-18T08:17:17.823Z</time></trkpt><trkpt lat="45.40846" lon="11.738075"><ele>17.0</ele><time>2026-04-18T08:17:18.823Z</time></trkpt><trkpt lat="45.4083384" lon="11.7380028"><ele>17.0</ele><time>2026-04-18T08:17:19.823Z</time></trkpt><trkpt lat="45.4082388" lon="11.7379456"><ele>17.0</ele><time>2026-04-18T08:17:20.823Z</time></trkpt><trkpt lat="45.4081562" lon="11.7378973"><ele>17.0</ele><time>2026-04-18T08:17:21.824Z</time></trkpt><trkpt lat="45.4080934" lon="11.737864"><ele>17.0</ele><time>2026-04-18T08:17:22.823Z</time></trkpt><trkpt lat="45.4080217" lon="11.7378091"><ele>17.0</ele><time>2026-04-18T08:17:24.823Z</time></trkpt><trkpt lat="45.4080162" lon="11.7376678"><ele>17.0</ele><time>2026-04-18T08:17:48.823Z</time></trkpt><trkpt lat="45.4080474" lon="11.7375573"><ele>17.0</ele><time>2026-04-18T08:17:49.823Z</time></trkpt><trkpt lat="45.4080995" lon="11.7374079"><ele>17.0</ele><time>2026-04-18T08:17:50.823Z</time></trkpt><trkpt lat="45.4081544" lon="11.7372531"><ele>17.0</ele><time>2026-04-18T08:17:51.823Z</time></trkpt><trkpt lat="45.4082168" lon="11.7370967"><ele>17.0</ele><time>2026-04-18T08:17:52.823Z</time></trkpt><trkpt lat="45.4082968" lon="11.7369572"><ele>17.0</ele><time>2026-04-18T08:17:53.823Z</time></trkpt><trkpt lat="45.4083715" lon="11.7368157"><ele>17.0</ele><time>2026-04-18T08:17:54.823Z</time></trkpt><trkpt lat="45.4084457" lon="11.736677"><ele>17.0</ele><time>2026-04-18T08:17:55.823Z</time></trkpt><trkpt lat="45.4085245" lon="11.7365404"><ele>17.0</ele><time>2026-04-18T08:17:56.823Z</time></trkpt><trkpt lat="45.408613" lon="11.7363955"><ele>17.0</ele><time>2026-04-18T08:17:57.823Z</time></trkpt><trkpt lat="45.4087092" lon="11.7362347"><ele>17.0</ele><time>2026-04-18T08:17:58.824Z</time></trkpt><trkpt lat="45.4087972" lon="11.7360932"><ele>16.75</ele><time>2026-04-18T08:17:59.823Z</time></trkpt><trkpt lat="45.4088857" lon="11.7359532"><ele>16.5</ele><time>2026-04-18T08:18:00.823Z</time></trkpt><trkpt lat="45.408974" lon="11.7358082"><ele>16.25</ele><time>2026-04-18T08:18:01.823Z</time></trkpt><trkpt lat="45.4090584" lon="11.7356632"><ele>16.0</ele><time>2026-04-18T08:18:02.823Z</time></trkpt><trkpt lat="45.4091405" lon="11.7355301"><ele>16.0</ele><time>2026-04-18T08:18:03.823Z</time></trkpt><trkpt lat="45.4092178" lon="11.7353998"><ele>16.0</ele><time>2026-04-18T08:18:04.823Z</time></trkpt><trkpt lat="45.4092857" lon="11.7352821"><ele>16.0</ele><time>2026-04-18T08:18:05.823Z</time></trkpt><trkpt lat="45.4093503" lon="11.735168"><ele>16.0</ele><time>2026-04-18T08:18:06.823Z</time></trkpt><trkpt lat="45.4094148" lon="11.7350655"><ele>16.0</ele><time>2026-04-18T08:18:07.823Z</time></trkpt><trkpt lat="45.409481" lon="11.7349719"><ele>16.2</ele><time>2026-04-18T08:18:08.823Z</time></trkpt><trkpt lat="45.4095571" lon="11.7349009"><ele>16.400000000000002</ele><time>2026-04-18T08:18:09.823Z</time></trkpt><trkpt lat="45.4096444" lon="11.7348401"><ele>16.6</ele><time>2026-04-18T08:18:10.824Z</time></trkpt><trkpt lat="45.4097159" lon="11.7347434"><ele>16.8</ele><time>2026-04-18T08:18:11.824Z</time></trkpt><trkpt lat="45.4097655" lon="11.7346082"><ele>17.0</ele><time>2026-04-18T08:18:12.823Z</time></trkpt><trkpt lat="45.4098206" lon="11.7344596"><ele>17.0</ele><time>2026-04-18T08:18:13.823Z</time></trkpt><trkpt lat="45.4098859" lon="11.7343253"><ele>17.0</ele><time>2026-04-18T08:18:14.823Z</time></trkpt><trkpt lat="45.40996" lon="11.7341925"><ele>17.0</ele><time>2026-04-18T08:18:15.823Z</time></trkpt><trkpt lat="45.4100386" lon="11.7340585"><ele>17.0</ele><time>2026-04-18T08:18:16.823Z</time></trkpt><trkpt lat="45.4101214" lon="11.73393"><ele>17.0</ele><time>2026-04-18T08:18:17.823Z</time></trkpt><trkpt lat="45.410202" lon="11.7337963"><ele>17.0</ele><time>2026-04-18T08:18:18.823Z</time></trkpt><trkpt lat="45.4102872" lon="11.7336523"><ele>17.0</ele><time>2026-04-18T08:18:19.824Z</time></trkpt><trkpt lat="45.4103795" lon="11.7335024"><ele>17.0</ele><time>2026-04-18T08:18:20.824Z</time></trkpt><trkpt lat="45.4104719" lon="11.7333532"><ele>17.0</ele><time>2026-04-18T08:18:21.823Z</time></trkpt><trkpt lat="45.4105567" lon="11.7332066"><ele>17.0</ele><time>2026-04-18T08:18:22.823Z</time></trkpt><trkpt lat="45.4106336" lon="11.7330616"><ele>17.0</ele><time>2026-04-18T08:18:23.823Z</time></trkpt><trkpt lat="45.4107051" lon="11.7329245"><ele>17.0</ele><time>2026-04-18T08:18:24.823Z</time></trkpt><trkpt lat="45.410776" lon="11.7327855"><ele>16.5</ele><time>2026-04-18T08:18:25.823Z</time></trkpt><trkpt lat="45.4108446" lon="11.7326345"><ele>16.0</ele><time>2026-04-18T08:18:26.823Z</time></trkpt><trkpt lat="45.4109155" lon="11.7324614"><ele>15.5</ele><time>2026-04-18T08:18:27.823Z</time></trkpt><trkpt lat="45.4109872" lon="11.7322697"><ele>15.0</ele><time>2026-04-18T08:18:28.823Z</time></trkpt><trkpt lat="45.4110497" lon="11.7320859"><ele>15.0</ele><time>2026-04-18T08:18:29.824Z</time></trkpt><trkpt lat="45.4111086" lon="11.7318987"><ele>15.0</ele><time>2026-04-18T08:18:30.824Z</time></trkpt><trkpt lat="45.41117" lon="11.7317063"><ele>15.0</ele><time>2026-04-18T08:18:31.823Z</time></trkpt><trkpt lat="45.4112322" lon="11.7315099"><ele>15.0</ele><time>2026-04-18T08:18:32.823Z</time></trkpt><trkpt lat="45.4112933" lon="11.7313101"><ele>15.666666666666668</ele><time>2026-04-18T08:18:33.823Z</time></trkpt><trkpt lat="45.4113563" lon="11.7311074"><ele>16.333333333333336</ele><time>2026-04-18T08:18:34.823Z</time></trkpt><trkpt lat="45.4114257" lon="11.730898"><ele>17.0</ele><time>2026-04-18T08:18:35.823Z</time></trkpt><trkpt lat="45.4114917" lon="11.7306928"><ele>17.0</ele><time>2026-04-18T08:18:36.823Z</time></trkpt><trkpt lat="45.4115505" lon="11.7304955"><ele>17.0</ele><time>2026-04-18T08:18:37.823Z</time></trkpt><trkpt lat="45.4116038" lon="11.7303011"><ele>17.0</ele><time>2026-04-18T08:18:38.823Z</time></trkpt><trkpt lat="45.411652" lon="11.7301195"><ele>17.0</ele><time>2026-04-18T08:18:39.823Z</time></trkpt><trkpt lat="45.4116978" lon="11.7299428"><ele>17.0</ele><time>2026-04-18T08:18:40.823Z</time></trkpt><trkpt lat="45.4117397" lon="11.7297738"><ele>17.0</ele><time>2026-04-18T08:18:41.823Z</time></trkpt><trkpt lat="45.4117831" lon="11.7295959"><ele>17.0</ele><time>2026-04-18T08:18:42.823Z</time></trkpt><trkpt lat="45.4118215" lon="11.7294153"><ele>17.0</ele><time>2026-04-18T08:18:43.823Z</time></trkpt><trkpt lat="45.4118564" lon="11.7292334"><ele>17.0</ele><time>2026-04-18T08:18:44.823Z</time></trkpt><trkpt lat="45.4118925" lon="11.7290489"><ele>17.0</ele><time>2026-04-18T08:18:45.824Z</time></trkpt><trkpt lat="45.4119225" lon="11.7288623"><ele>17.0</ele><time>2026-04-18T08:18:46.823Z</time></trkpt><trkpt lat="45.4119412" lon="11.7286753"><ele>17.0</ele><time>2026-04-18T08:18:47.823Z</time></trkpt><trkpt lat="45.4119548" lon="11.7284888"><ele>16.5</ele><time>2026-04-18T08:18:48.823Z</time></trkpt><trkpt lat="45.4119655" lon="11.7283032"><ele>16.0</ele><time>2026-04-18T08:18:49.823Z</time></trkpt><trkpt lat="45.4119744" lon="11.7281186"><ele>15.5</ele><time>2026-04-18T08:18:50.823Z</time></trkpt><trkpt lat="45.4119838" lon="11.727932"><ele>15.0</ele><time>2026-04-18T08:18:51.823Z</time></trkpt><trkpt lat="45.4119883" lon="11.7277442"><ele>15.25</ele><time>2026-04-18T08:18:52.823Z</time></trkpt><trkpt lat="45.4119891" lon="11.72756"><ele>15.5</ele><time>2026-04-18T08:18:53.823Z</time></trkpt><trkpt lat="45.4119881" lon="11.7273735"><ele>15.75</ele><time>2026-04-18T08:18:54.823Z</time></trkpt><trkpt lat="45.4119872" lon="11.7271854"><ele>16.0</ele><time>2026-04-18T08:18:55.823Z</time></trkpt><trkpt lat="45.4119858" lon="11.7269955"><ele>15.75</ele><time>2026-04-18T08:18:56.823Z</time></trkpt><trkpt lat="45.4119733" lon="11.7268082"><ele>15.5</ele><time>2026-04-18T08:18:57.823Z</time></trkpt><trkpt lat="45.4119596" lon="11.7266165"><ele>15.25</ele><time>2026-04-18T08:18:58.823Z</time></trkpt><trkpt lat="45.4119468" lon="11.7264244"><ele>15.0</ele><time>2026-04-18T08:18:59.823Z</time></trkpt><trkpt lat="45.4119338" lon="11.7262292"><ele>15.25</ele><time>2026-04-18T08:19:00.823Z</time></trkpt><trkpt lat="45.4119186" lon="11.7260339"><ele>15.5</ele><time>2026-04-18T08:19:01.823Z</time></trkpt><trkpt lat="45.4118977" lon="11.7258358"><ele>15.75</ele><time>2026-04-18T08:19:02.823Z</time></trkpt><trkpt lat="45.4118718" lon="11.7256381"><ele>16.0</ele><time>2026-04-18T08:19:03.823Z</time></trkpt><trkpt lat="45.4118424" lon="11.725444"><ele>16.0</ele><time>2026-04-18T08:19:04.823Z</time></trkpt><trkpt lat="45.4118123" lon="11.7252563"><ele>16.0</ele><time>2026-04-18T08:19:05.823Z</time></trkpt><trkpt lat="45.4117793" lon="11.7250783"><ele>16.0</ele><time>2026-04-18T08:19:06.823Z</time></trkpt><trkpt lat="45.4117504" lon="11.7249079"><ele>16.0</ele><time>2026-04-18T08:19:07.823Z</time></trkpt><trkpt lat="45.4117225" lon="11.724745"><ele>15.75</ele><time>2026-04-18T08:19:08.823Z</time></trkpt><trkpt lat="45.4116972" lon="11.7245801"><ele>15.5</ele><time>2026-04-18T08:19:09.823Z</time></trkpt><trkpt lat="45.4116769" lon="11.7244066"><ele>15.25</ele><time>2026-04-18T08:19:10.823Z</time></trkpt><trkpt lat="45.4116629" lon="11.7242168"><ele>15.0</ele><time>2026-04-18T08:19:11.823Z</time></trkpt><trkpt lat="45.4116504" lon="11.7240417"><ele>15.4</ele><time>2026-04-18T08:19:12.823Z</time></trkpt><trkpt lat="45.41164" lon="11.7238784"><ele>15.8</ele><time>2026-04-18T08:19:13.823Z</time></trkpt><trkpt lat="45.4116298" lon="11.7237313"><ele>16.2</ele><time>2026-04-18T08:19:14.823Z</time></trkpt><trkpt lat="45.4116231" lon="11.7235979"><ele>16.6</ele><time>2026-04-18T08:19:15.823Z</time></trkpt><trkpt lat="45.4116195" lon="11.72347"><ele>17.0</ele><time>2026-04-18T08:19:16.823Z</time></trkpt><trkpt lat="45.4116135" lon="11.7233555"><ele>17.2</ele><time>2026-04-18T08:19:17.823Z</time></trkpt><trkpt lat="45.4116077" lon="11.7232536"><ele>17.4</ele><time>2026-04-18T08:19:18.823Z</time></trkpt><trkpt lat="45.4116056" lon="11.7231612"><ele>17.6</ele><time>2026-04-18T08:19:19.823Z</time></trkpt><trkpt lat="45.41161" lon="11.72301"><ele>17.8</ele><time>2026-04-18T08:19:21.823Z</time></trkpt><trkpt lat="45.4116463" lon="11.7229025"><ele>18.0</ele><time>2026-04-18T08:19:23.823Z</time></trkpt><trkpt lat="45.4117275" lon="11.7227436"><ele>17.666666666666668</ele><time>2026-04-18T08:19:25.823Z</time></trkpt><trkpt lat="45.4117322" lon="11.7226482"><ele>17.333333333333332</ele><time>2026-04-18T08:19:26.823Z</time></trkpt><trkpt lat="45.4117103" lon="11.722558"><ele>17.0</ele><time>2026-04-18T08:19:27.823Z</time></trkpt><trkpt lat="45.411669" lon="11.722483"><ele>16.666666666666664</ele><time>2026-04-18T08:19:28.823Z</time></trkpt><trkpt lat="45.4116336" lon="11.7223823"><ele>16.333333333333332</ele><time>2026-04-18T08:19:29.823Z</time></trkpt><trkpt lat="45.4116091" lon="11.722251"><ele>16.0</ele><time>2026-04-18T08:19:30.823Z</time></trkpt><trkpt lat="45.4115913" lon="11.7221132"><ele>16.0</ele><time>2026-04-18T08:19:31.823Z</time></trkpt><trkpt lat="45.4115822" lon="11.7219726"><ele>16.0</ele><time>2026-04-18T08:19:32.823Z</time></trkpt><trkpt lat="45.411578" lon="11.7218206"><ele>16.0</ele><time>2026-04-18T08:19:33.823Z</time></trkpt><trkpt lat="45.4115712" lon="11.7216615"><ele>16.0</ele><time>2026-04-18T08:19:34.823Z</time></trkpt><trkpt lat="45.411568" lon="11.721499"><ele>16.0</ele><time>2026-04-18T08:19:35.823Z</time></trkpt><trkpt lat="45.4115659" lon="11.7213312"><ele>15.75</ele><time>2026-04-18T08:19:36.823Z</time></trkpt><trkpt lat="45.4115601" lon="11.7211558"><ele>15.5</ele><time>2026-04-18T08:19:37.823Z</time></trkpt><trkpt lat="45.4115556" lon="11.720976"><ele>15.25</ele><time>2026-04-18T08:19:38.824Z</time></trkpt><trkpt lat="45.4115525" lon="11.7207912"><ele>15.0</ele><time>2026-04-18T08:19:39.824Z</time></trkpt><trkpt lat="45.4115502" lon="11.720617"><ele>15.0</ele><time>2026-04-18T08:19:40.823Z</time></trkpt><trkpt lat="45.4115493" lon="11.7204829"><ele>15.0</ele><time>2026-04-18T08:19:41.823Z</time></trkpt><trkpt lat="45.4115485" lon="11.7203767"><ele>15.0</ele><time>2026-04-18T08:19:42.823Z</time></trkpt><trkpt lat="45.4115479" lon="11.7202519"><ele>15.0</ele><time>2026-04-18T08:19:44.823Z</time></trkpt><trkpt lat="45.4115402" lon="11.7201093"><ele>15.0</ele><time>2026-04-18T08:19:47.823Z</time></trkpt><trkpt lat="45.4115341" lon="11.720014"><ele>15.0</ele><time>2026-04-18T08:19:48.823Z</time></trkpt><trkpt lat="45.4115229" lon="11.7198981"><ele>15.0</ele><time>2026-04-18T08:19:49.823Z</time></trkpt><trkpt lat="45.4115141" lon="11.7197578"><ele>15.0</ele><time>2026-04-18T08:19:50.823Z</time></trkpt><trkpt lat="45.4115085" lon="11.7196067"><ele>15.0</ele><time>2026-04-18T08:19:51.823Z</time></trkpt><trkpt lat="45.4115056" lon="11.7194516"><ele>15.0</ele><time>2026-04-18T08:19:52.823Z</time></trkpt><trkpt lat="45.4115048" lon="11.7193005"><ele>15.0</ele><time>2026-04-18T08:19:53.823Z</time></trkpt><trkpt lat="45.4115016" lon="11.7191495"><ele>15.25</ele><time>2026-04-18T08:19:54.823Z</time></trkpt><trkpt lat="45.4115001" lon="11.7189924"><ele>15.5</ele><time>2026-04-18T08:19:55.824Z</time></trkpt><trkpt lat="45.4114943" lon="11.7188353"><ele>15.75</ele><time>2026-04-18T08:19:56.823Z</time></trkpt><trkpt lat="45.4114904" lon="11.7186683"><ele>16.0</ele><time>2026-04-18T08:19:57.824Z</time></trkpt><trkpt lat="45.4114903" lon="11.7184822"><ele>16.0</ele><time>2026-04-18T08:19:58.823Z</time></trkpt><trkpt lat="45.4114879" lon="11.7182836"><ele>16.0</ele><time>2026-04-18T08:19:59.824Z</time></trkpt><trkpt lat="45.411484" lon="11.7180834"><ele>16.0</ele><time>2026-04-18T08:20:00.823Z</time></trkpt><trkpt lat="45.4114792" lon="11.7178753"><ele>16.0</ele><time>2026-04-18T08:20:01.823Z</time></trkpt><trkpt lat="45.4114726" lon="11.7176621"><ele>15.666666666666666</ele><time>2026-04-18T08:20:02.823Z</time></trkpt><trkpt lat="45.4114695" lon="11.7174391"><ele>15.333333333333332</ele><time>2026-04-18T08:20:03.823Z</time></trkpt><trkpt lat="45.4114641" lon="11.7172104"><ele>15.0</ele><time>2026-04-18T08:20:04.823Z</time></trkpt><trkpt lat="45.4114553" lon="11.7169716"><ele>15.0</ele><time>2026-04-18T08:20:05.823Z</time></trkpt><trkpt lat="45.4114495" lon="11.7167405"><ele>15.0</ele><time>2026-04-18T08:20:06.823Z</time></trkpt><trkpt lat="45.4114423" lon="11.7165163"><ele>15.0</ele><time>2026-04-18T08:20:07.823Z</time></trkpt><trkpt lat="45.4114392" lon="11.7162929"><ele>15.0</ele><time>2026-04-18T08:20:08.823Z</time></trkpt><trkpt lat="45.4114353" lon="11.7160703"><ele>15.0</ele><time>2026-04-18T08:20:09.823Z</time></trkpt><trkpt lat="45.4114318" lon="11.7158539"><ele>15.0</ele><time>2026-04-18T08:20:10.823Z</time></trkpt><trkpt lat="45.411428" lon="11.7156367"><ele>15.666666666666668</ele><time>2026-04-18T08:20:11.823Z</time></trkpt><trkpt lat="45.4114248" lon="11.7154225"><ele>16.333333333333336</ele><time>2026-04-18T08:20:12.823Z</time></trkpt><trkpt lat="45.4114283" lon="11.7151944"><ele>17.0</ele><time>2026-04-18T08:20:13.823Z</time></trkpt><trkpt lat="45.4114419" lon="11.7149577"><ele>17.333333333333336</ele><time>2026-04-18T08:20:14.823Z</time></trkpt><trkpt lat="45.4114641" lon="11.714719"><ele>17.666666666666668</ele><time>2026-04-18T08:20:15.823Z</time></trkpt><trkpt lat="45.4114934" lon="11.714475"><ele>18.0</ele><time>2026-04-18T08:20:16.823Z</time></trkpt><trkpt lat="45.4115183" lon="11.7142298"><ele>18.0</ele><time>2026-04-18T08:20:17.823Z</time></trkpt><trkpt lat="45.4115491" lon="11.7139853"><ele>18.0</ele><time>2026-04-18T08:20:18.823Z</time></trkpt><trkpt lat="45.4115779" lon="11.7137318"><ele>18.0</ele><time>2026-04-18T08:20:19.823Z</time></trkpt><trkpt lat="45.4116069" lon="11.7134511"><ele>17.666666666666668</ele><time>2026-04-18T08:20:20.823Z</time></trkpt><trkpt lat="45.4116452" lon="11.7131529"><ele>17.333333333333336</ele><time>2026-04-18T08:20:21.823Z</time></trkpt><trkpt lat="45.4116776" lon="11.7128586"><ele>17.0</ele><time>2026-04-18T08:20:22.823Z</time></trkpt><trkpt lat="45.4117125" lon="11.7125805"><ele>17.0</ele><time>2026-04-18T08:20:23.823Z</time></trkpt><trkpt lat="45.4117411" lon="11.7123126"><ele>17.0</ele><time>2026-04-18T08:20:24.823Z</time></trkpt><trkpt lat="45.4117501" lon="11.7120329"><ele>17.0</ele><time>2026-04-18T08:20:25.823Z</time></trkpt><trkpt lat="45.4117405" lon="11.7117454"><ele>17.0</ele><time>2026-04-18T08:20:26.823Z</time></trkpt><trkpt lat="45.4117221" lon="11.7114778"><ele>17.0</ele><time>2026-04-18T08:20:27.823Z</time></trkpt><trkpt lat="45.4116929" lon="11.7112316"><ele>17.0</ele><time>2026-04-18T08:20:28.823Z</time></trkpt><trkpt lat="45.4116494" lon="11.7110008"><ele>17.0</ele><time>2026-04-18T08:20:29.823Z</time></trkpt><trkpt lat="45.4115959" lon="11.7107663"><ele>17.0</ele><time>2026-04-18T08:20:30.823Z</time></trkpt><trkpt lat="45.4115361" lon="11.7105512"><ele>17.0</ele><time>2026-04-18T08:20:31.823Z</time></trkpt><trkpt lat="45.4114647" lon="11.7103606"><ele>17.0</ele><time>2026-04-18T08:20:32.823Z</time></trkpt><trkpt lat="45.4113902" lon="11.7101852"><ele>17.0</ele><time>2026-04-18T08:20:33.823Z</time></trkpt><trkpt lat="45.4113061" lon="11.7100135"><ele>17.0</ele><time>2026-04-18T08:20:34.823Z</time></trkpt><trkpt lat="45.4112095" lon="11.7098137"><ele>17.0</ele><time>2026-04-18T08:20:35.823Z</time></trkpt><trkpt lat="45.4110984" lon="11.7095934"><ele>17.0</ele><time>2026-04-18T08:20:36.824Z</time></trkpt><trkpt lat="45.4109683" lon="11.7093617"><ele>17.0</ele><time>2026-04-18T08:20:37.823Z</time></trkpt><trkpt lat="45.4108371" lon="11.7091421"><ele>17.0</ele><time>2026-04-18T08:20:38.823Z</time></trkpt><trkpt lat="45.4107125" lon="11.7089402"><ele>17.0</ele><time>2026-04-18T08:20:39.823Z</time></trkpt><trkpt lat="45.4105885" lon="11.7087438"><ele>17.0</ele><time>2026-04-18T08:20:40.823Z</time></trkpt><trkpt lat="45.4104679" lon="11.7085445"><ele>17.333333333333336</ele><time>2026-04-18T08:20:41.823Z</time></trkpt><trkpt lat="45.4103466" lon="11.7083412"><ele>17.666666666666668</ele><time>2026-04-18T08:20:42.823Z</time></trkpt><trkpt lat="45.4102305" lon="11.7081324"><ele>18.0</ele><time>2026-04-18T08:20:43.823Z</time></trkpt><trkpt lat="45.4101117" lon="11.7079187"><ele>17.666666666666668</ele><time>2026-04-18T08:20:44.823Z</time></trkpt><trkpt lat="45.4099968" lon="11.7076976"><ele>17.333333333333336</ele><time>2026-04-18T08:20:45.823Z</time></trkpt><trkpt lat="45.4098761" lon="11.7074779"><ele>17.0</ele><time>2026-04-18T08:20:46.823Z</time></trkpt><trkpt lat="45.4097601" lon="11.7072531"><ele>17.0</ele><time>2026-04-18T08:20:47.823Z</time></trkpt><trkpt lat="45.4096465" lon="11.7070289"><ele>17.0</ele><time>2026-04-18T08:20:48.823Z</time></trkpt><trkpt lat="45.4095344" lon="11.7067979"><ele>17.0</ele><time>2026-04-18T08:20:49.823Z</time></trkpt><trkpt lat="45.4094255" lon="11.7065703"><ele>17.333333333333336</ele><time>2026-04-18T08:20:50.823Z</time></trkpt><trkpt lat="45.4093166" lon="11.7063436"><ele>17.666666666666668</ele><time>2026-04-18T08:20:51.823Z</time></trkpt><trkpt lat="45.4092051" lon="11.7061236"><ele>18.0</ele><time>2026-04-18T08:20:52.823Z</time></trkpt><trkpt lat="45.4090888" lon="11.7059053"><ele>18.0</ele><time>2026-04-18T08:20:53.824Z</time></trkpt><trkpt lat="45.4089707" lon="11.7056911"><ele>18.0</ele><time>2026-04-18T08:20:54.823Z</time></trkpt><trkpt lat="45.4088538" lon="11.7054789"><ele>18.0</ele><time>2026-04-18T08:20:55.823Z</time></trkpt><trkpt lat="45.4087378" lon="11.7052689"><ele>18.0</ele><time>2026-04-18T08:20:56.823Z</time></trkpt><trkpt lat="45.4086225" lon="11.7050525"><ele>18.0</ele><time>2026-04-18T08:20:57.823Z</time></trkpt><trkpt lat="45.408504" lon="11.7048353"><ele>18.0</ele><time>2026-04-18T08:20:58.823Z</time></trkpt><trkpt lat="45.408385" lon="11.7046154"><ele>17.333333333333332</ele><time>2026-04-18T08:20:59.823Z</time></trkpt><trkpt lat="45.4082659" lon="11.7043927"><ele>16.666666666666664</ele><time>2026-04-18T08:21:00.823Z</time></trkpt><trkpt lat="45.4081508" lon="11.7041797"><ele>16.0</ele><time>2026-04-18T08:21:01.824Z</time></trkpt><trkpt lat="45.4080333" lon="11.7039573"><ele>16.333333333333332</ele><time>2026-04-18T08:21:02.823Z</time></trkpt><trkpt lat="45.4079098" lon="11.7037289"><ele>16.666666666666668</ele><time>2026-04-18T08:21:03.823Z</time></trkpt><trkpt lat="45.4077809" lon="11.7034969"><ele>17.0</ele><time>2026-04-18T08:21:04.823Z</time></trkpt><trkpt lat="45.4076546" lon="11.703259"><ele>17.0</ele><time>2026-04-18T08:21:05.823Z</time></trkpt><trkpt lat="45.4075247" lon="11.7030146"><ele>17.0</ele><time>2026-04-18T08:21:06.823Z</time></trkpt><trkpt lat="45.4073957" lon="11.7027707"><ele>17.0</ele><time>2026-04-18T08:21:07.823Z</time></trkpt><trkpt lat="45.4072754" lon="11.7025335"><ele>17.0</ele><time>2026-04-18T08:21:08.823Z</time></trkpt><trkpt lat="45.4071593" lon="11.7023129"><ele>17.0</ele><time>2026-04-18T08:21:09.823Z</time></trkpt><trkpt lat="45.4070447" lon="11.7021056"><ele>17.0</ele><time>2026-04-18T08:21:10.823Z</time></trkpt><trkpt lat="45.4069364" lon="11.7019033"><ele>17.0</ele><time>2026-04-18T08:21:11.823Z</time></trkpt><trkpt lat="45.4068311" lon="11.7017041"><ele>17.0</ele><time>2026-04-18T08:21:12.823Z</time></trkpt><trkpt lat="45.4067254" lon="11.7014977"><ele>17.0</ele><time>2026-04-18T08:21:13.823Z</time></trkpt><trkpt lat="45.4066183" lon="11.7012902"><ele>17.0</ele><time>2026-04-18T08:21:14.823Z</time></trkpt><trkpt lat="45.4065153" lon="11.7010914"><ele>17.0</ele><time>2026-04-18T08:21:15.823Z</time></trkpt><trkpt lat="45.4064139" lon="11.7008929"><ele>17.0</ele><time>2026-04-18T08:21:16.823Z</time></trkpt><trkpt lat="45.4063137" lon="11.7006964"><ele>17.0</ele><time>2026-04-18T08:21:17.824Z</time></trkpt><trkpt lat="45.4062129" lon="11.700497"><ele>17.0</ele><time>2026-04-18T08:21:18.823Z</time></trkpt><trkpt lat="45.40611" lon="11.7002971"><ele>17.0</ele><time>2026-04-18T08:21:19.823Z</time></trkpt><trkpt lat="45.4060068" lon="11.700102"><ele>17.0</ele><time>2026-04-18T08:21:20.823Z</time></trkpt><trkpt lat="45.4059035" lon="11.6999048"><ele>17.0</ele><time>2026-04-18T08:21:21.823Z</time></trkpt><trkpt lat="45.4058021" lon="11.6997099"><ele>17.0</ele><time>2026-04-18T08:21:22.823Z</time></trkpt><trkpt lat="45.4057006" lon="11.6995157"><ele>17.0</ele><time>2026-04-18T08:21:23.823Z</time></trkpt><trkpt lat="45.4056018" lon="11.6993274"><ele>17.0</ele><time>2026-04-18T08:21:24.823Z</time></trkpt><trkpt lat="45.4055074" lon="11.6991405"><ele>17.0</ele><time>2026-04-18T08:21:25.823Z</time></trkpt><trkpt lat="45.4054102" lon="11.6989552"><ele>17.0</ele><time>2026-04-18T08:21:26.823Z</time></trkpt><trkpt lat="45.4053149" lon="11.6987696"><ele>17.0</ele><time>2026-04-18T08:21:27.823Z</time></trkpt><trkpt lat="45.4052144" lon="11.6985875"><ele>17.0</ele><time>2026-04-18T08:21:28.823Z</time></trkpt><trkpt lat="45.405116" lon="11.6984057"><ele>17.0</ele><time>2026-04-18T08:21:29.823Z</time></trkpt><trkpt lat="45.4050182" lon="11.6982192"><ele>17.0</ele><time>2026-04-18T08:21:30.823Z</time></trkpt><trkpt lat="45.4049203" lon="11.6980349"><ele>17.0</ele><time>2026-04-18T08:21:31.823Z</time></trkpt><trkpt lat="45.4048224" lon="11.6978512"><ele>17.0</ele><time>2026-04-18T08:21:32.823Z</time></trkpt><trkpt lat="45.4047226" lon="11.6976605"><ele>17.0</ele><time>2026-04-18T08:21:33.823Z</time></trkpt><trkpt lat="45.4046234" lon="11.6974698"><ele>17.0</ele><time>2026-04-18T08:21:34.823Z</time></trkpt><trkpt lat="45.4045229" lon="11.6972806"><ele>16.333333333333336</ele><time>2026-04-18T08:21:35.823Z</time></trkpt><trkpt lat="45.4044211" lon="11.6970929"><ele>15.666666666666668</ele><time>2026-04-18T08:21:36.823Z</time></trkpt><trkpt lat="45.4043201" lon="11.6969103"><ele>15.0</ele><time>2026-04-18T08:21:37.823Z</time></trkpt><trkpt lat="45.4042221" lon="11.6967238"><ele>15.0</ele><time>2026-04-18T08:21:38.823Z</time></trkpt><trkpt lat="45.4041292" lon="11.6965414"><ele>15.0</ele><time>2026-04-18T08:21:39.823Z</time></trkpt><trkpt lat="45.4040354" lon="11.69636"><ele>15.0</ele><time>2026-04-18T08:21:40.823Z</time></trkpt><trkpt lat="45.4039424" lon="11.6961788"><ele>15.333333333333332</ele><time>2026-04-18T08:21:41.823Z</time></trkpt><trkpt lat="45.40385" lon="11.6960044"><ele>15.666666666666666</ele><time>2026-04-18T08:21:42.823Z</time></trkpt><trkpt lat="45.4037564" lon="11.6958317"><ele>16.0</ele><time>2026-04-18T08:21:43.823Z</time></trkpt><trkpt lat="45.4036675" lon="11.6956622"><ele>16.5</ele><time>2026-04-18T08:21:44.824Z</time></trkpt><trkpt lat="45.4035792" lon="11.6954951"><ele>17.0</ele><time>2026-04-18T08:21:45.823Z</time></trkpt><trkpt lat="45.4034928" lon="11.6953287"><ele>17.5</ele><time>2026-04-18T08:21:46.823Z</time></trkpt><trkpt lat="45.4034093" lon="11.6951648"><ele>18.0</ele><time>2026-04-18T08:21:47.823Z</time></trkpt><trkpt lat="45.4033235" lon="11.6950029"><ele>18.0</ele><time>2026-04-18T08:21:48.823Z</time></trkpt><trkpt lat="45.4032356" lon="11.6948407"><ele>18.0</ele><time>2026-04-18T08:21:49.823Z</time></trkpt><trkpt lat="45.4031539" lon="11.6946771"><ele>18.0</ele><time>2026-04-18T08:21:50.823Z</time></trkpt><trkpt lat="45.4030686" lon="11.6945256"><ele>18.0</ele><time>2026-04-18T08:21:51.823Z</time></trkpt><trkpt lat="45.4029888" lon="11.6943741"><ele>18.0</ele><time>2026-04-18T08:21:52.823Z</time></trkpt><trkpt lat="45.4029172" lon="11.6942281"><ele>18.0</ele><time>2026-04-18T08:21:53.823Z</time></trkpt><trkpt lat="45.4028421" lon="11.6940922"><ele>18.0</ele><time>2026-04-18T08:21:54.823Z</time></trkpt><trkpt lat="45.4027715" lon="11.6939578"><ele>18.0</ele><time>2026-04-18T08:21:55.823Z</time></trkpt><trkpt lat="45.4027039" lon="11.6938188"><ele>18.0</ele><time>2026-04-18T08:21:56.823Z</time></trkpt><trkpt lat="45.4026326" lon="11.6936877"><ele>18.0</ele><time>2026-04-18T08:21:57.823Z</time></trkpt><trkpt lat="45.4025664" lon="11.6935683"><ele>18.0</ele><time>2026-04-18T08:21:58.824Z</time></trkpt><trkpt lat="45.4025085" lon="11.693458"><ele>18.0</ele><time>2026-04-18T08:21:59.823Z</time></trkpt><trkpt lat="45.4024575" lon="11.6933641"><ele>18.0</ele><time>2026-04-18T08:22:00.823Z</time></trkpt><trkpt lat="45.4023865" lon="11.6932483"><ele>18.0</ele><time>2026-04-18T08:22:02.823Z</time></trkpt><trkpt lat="45.4023433" lon="11.6931825"><ele>18.0</ele><time>2026-04-18T08:22:05.823Z</time></trkpt><trkpt lat="45.4022824" lon="11.6930856"><ele>18.0</ele><time>2026-04-18T08:22:08.823Z</time></trkpt><trkpt lat="45.4022247" lon="11.6929454"><ele>18.0</ele><time>2026-04-18T08:22:10.823Z</time></trkpt><trkpt lat="45.4021928" lon="11.692798"><ele>18.0</ele><time>2026-04-18T08:22:12.823Z</time></trkpt><trkpt lat="45.4022027" lon="11.6926653"><ele>18.0</ele><time>2026-04-18T08:22:14.823Z</time></trkpt><trkpt lat="45.4022453" lon="11.6925135"><ele>18.0</ele><time>2026-04-18T08:22:16.823Z</time></trkpt><trkpt lat="45.402233" lon="11.6924224"><ele>18.0</ele><time>2026-04-18T08:22:17.823Z</time></trkpt><trkpt lat="45.4021371" lon="11.6923264"><ele>18.0</ele><time>2026-04-18T08:22:19.823Z</time></trkpt><trkpt lat="45.4020472" lon="11.6922964"><ele>18.0</ele><time>2026-04-18T08:22:20.823Z</time></trkpt><trkpt lat="45.4019418" lon="11.6922224"><ele>18.0</ele><time>2026-04-18T08:22:21.823Z</time></trkpt><trkpt lat="45.4018248" lon="11.6920861"><ele>18.0</ele><time>2026-04-18T08:22:22.823Z</time></trkpt><trkpt lat="45.4017174" lon="11.6919273"><ele>18.0</ele><time>2026-04-18T08:22:23.823Z</time></trkpt><trkpt lat="45.4016349" lon="11.6917938"><ele>18.0</ele><time>2026-04-18T08:22:24.823Z</time></trkpt><trkpt lat="45.4015772" lon="11.6916925"><ele>17.4</ele><time>2026-04-18T08:22:25.823Z</time></trkpt><trkpt lat="45.4015347" lon="11.6916189"><ele>16.8</ele><time>2026-04-18T08:22:26.824Z</time></trkpt><trkpt lat="45.4014749" lon="11.6915193"><ele>16.2</ele><time>2026-04-18T08:22:28.823Z</time></trkpt><trkpt lat="45.4014204" lon="11.6914331"><ele>15.6</ele><time>2026-04-18T08:22:30.823Z</time></trkpt><trkpt lat="45.4013729" lon="11.6913322"><ele>15.0</ele><time>2026-04-18T08:22:31.823Z</time></trkpt><trkpt lat="45.4012915" lon="11.6911778"><ele>15.0</ele><time>2026-04-18T08:22:32.823Z</time></trkpt><trkpt lat="45.4011798" lon="11.6909886"><ele>15.0</ele><time>2026-04-18T08:22:33.823Z</time></trkpt><trkpt lat="45.4010488" lon="11.6907382"><ele>15.0</ele><time>2026-04-18T08:22:34.823Z</time></trkpt><trkpt lat="45.4009177" lon="11.6904754"><ele>15.333333333333332</ele><time>2026-04-18T08:22:35.823Z</time></trkpt><trkpt lat="45.4007741" lon="11.6902204"><ele>15.666666666666666</ele><time>2026-04-18T08:22:36.823Z</time></trkpt><trkpt lat="45.4006475" lon="11.6899834"><ele>16.0</ele><time>2026-04-18T08:22:37.823Z</time></trkpt><trkpt lat="45.4005271" lon="11.6897565"><ele>15.666666666666666</ele><time>2026-04-18T08:22:38.823Z</time></trkpt><trkpt lat="45.4004124" lon="11.689542"><ele>15.333333333333332</ele><time>2026-04-18T08:22:39.823Z</time></trkpt><trkpt lat="45.4002879" lon="11.6893007"><ele>15.0</ele><time>2026-04-18T08:22:40.823Z</time></trkpt><trkpt lat="45.4001577" lon="11.6890487"><ele>15.5</ele><time>2026-04-18T08:22:41.823Z</time></trkpt><trkpt lat="45.4000119" lon="11.688786"><ele>16.0</ele><time>2026-04-18T08:22:42.823Z</time></trkpt><trkpt lat="45.3998706" lon="11.6885349"><ele>16.0</ele><time>2026-04-18T08:22:43.823Z</time></trkpt><trkpt lat="45.3997379" lon="11.6882912"><ele>16.0</ele><time>2026-04-18T08:22:44.823Z</time></trkpt><trkpt lat="45.3996042" lon="11.6880431"><ele>16.0</ele><time>2026-04-18T08:22:45.823Z</time></trkpt><trkpt lat="45.3994726" lon="11.6878057"><ele>15.0</ele><time>2026-04-18T08:22:46.823Z</time></trkpt><trkpt lat="45.3993439" lon="11.6875718"><ele>14.0</ele><time>2026-04-18T08:22:47.823Z</time></trkpt><trkpt lat="45.3992023" lon="11.6873269"><ele>13.0</ele><time>2026-04-18T08:22:48.823Z</time></trkpt><trkpt lat="45.3990475" lon="11.6870459"><ele>13.5</ele><time>2026-04-18T08:22:49.824Z</time></trkpt><trkpt lat="45.3988897" lon="11.6867373"><ele>14.0</ele><time>2026-04-18T08:22:50.823Z</time></trkpt><trkpt lat="45.3987339" lon="11.6864183"><ele>14.5</ele><time>2026-04-18T08:22:51.823Z</time></trkpt><trkpt lat="45.3985637" lon="11.6860932"><ele>15.0</ele><time>2026-04-18T08:22:52.823Z</time></trkpt><trkpt lat="45.3983972" lon="11.6857775"><ele>15.0</ele><time>2026-04-18T08:22:53.823Z</time></trkpt><trkpt lat="45.3982427" lon="11.6854801"><ele>15.0</ele><time>2026-04-18T08:22:54.823Z</time></trkpt><trkpt lat="45.3980948" lon="11.6851992"><ele>15.0</ele><time>2026-04-18T08:22:55.823Z</time></trkpt><trkpt lat="45.3979509" lon="11.6849207"><ele>15.0</ele><time>2026-04-18T08:22:56.823Z</time></trkpt><trkpt lat="45.3978027" lon="11.6846471"><ele>14.5</ele><time>2026-04-18T08:22:57.824Z</time></trkpt><trkpt lat="45.3976616" lon="11.6843816"><ele>14.0</ele><time>2026-04-18T08:22:58.823Z</time></trkpt><trkpt lat="45.3975265" lon="11.6841294"><ele>14.0</ele><time>2026-04-18T08:22:59.823Z</time></trkpt><trkpt lat="45.3973937" lon="11.6838834"><ele>14.0</ele><time>2026-04-18T08:23:00.823Z</time></trkpt><trkpt lat="45.3972681" lon="11.6836477"><ele>14.0</ele><time>2026-04-18T08:23:01.823Z</time></trkpt><trkpt lat="45.3971445" lon="11.683423"><ele>14.0</ele><time>2026-04-18T08:23:02.823Z</time></trkpt><trkpt lat="45.3970253" lon="11.683201"><ele>14.0</ele><time>2026-04-18T08:23:03.823Z</time></trkpt><trkpt lat="45.3969039" lon="11.6829804"><ele>14.0</ele><time>2026-04-18T08:23:04.823Z</time></trkpt><trkpt lat="45.3967787" lon="11.6827515"><ele>14.0</ele><time>2026-04-18T08:23:05.823Z</time></trkpt><trkpt lat="45.3966511" lon="11.6825209"><ele>14.0</ele><time>2026-04-18T08:23:06.823Z</time></trkpt><trkpt lat="45.3965136" lon="11.6822736"><ele>14.0</ele><time>2026-04-18T08:23:07.824Z</time></trkpt><trkpt lat="45.3963852" lon="11.682038"><ele>14.333333333333334</ele><time>2026-04-18T08:23:08.823Z</time></trkpt><trkpt lat="45.3962603" lon="11.6818065"><ele>14.666666666666668</ele><time>2026-04-18T08:23:09.823Z</time></trkpt><trkpt lat="45.3961389" lon="11.6815706"><ele>15.0</ele><time>2026-04-18T08:23:10.823Z</time></trkpt><trkpt lat="45.3960124" lon="11.6813346"><ele>15.0</ele><time>2026-04-18T08:23:11.823Z</time></trkpt><trkpt lat="45.3958853" lon="11.6811008"><ele>15.0</ele><time>2026-04-18T08:23:12.823Z</time></trkpt><trkpt lat="45.3957659" lon="11.680871"><ele>15.0</ele><time>2026-04-18T08:23:13.823Z</time></trkpt><trkpt lat="45.3956483" lon="11.6806493"><ele>15.0</ele><time>2026-04-18T08:23:14.824Z</time></trkpt><trkpt lat="45.3955333" lon="11.6804313"><ele>15.0</ele><time>2026-04-18T08:23:15.823Z</time></trkpt><trkpt lat="45.3954235" lon="11.6802192"><ele>15.0</ele><time>2026-04-18T08:23:16.823Z</time></trkpt><trkpt lat="45.3953229" lon="11.6800198"><ele>14.75</ele><time>2026-04-18T08:23:17.823Z</time></trkpt><trkpt lat="45.3952328" lon="11.6798361"><ele>14.5</ele><time>2026-04-18T08:23:18.823Z</time></trkpt><trkpt lat="45.3951517" lon="11.6796714"><ele>14.25</ele><time>2026-04-18T08:23:19.823Z</time></trkpt><trkpt lat="45.3950734" lon="11.6795205"><ele>14.0</ele><time>2026-04-18T08:23:20.823Z</time></trkpt><trkpt lat="45.3949916" lon="11.6793701"><ele>14.0</ele><time>2026-04-18T08:23:21.823Z</time></trkpt><trkpt lat="45.3949057" lon="11.679209"><ele>14.0</ele><time>2026-04-18T08:23:22.823Z</time></trkpt><trkpt lat="45.394821" lon="11.6790441"><ele>14.0</ele><time>2026-04-18T08:23:23.823Z</time></trkpt><trkpt lat="45.3947304" lon="11.6788753"><ele>14.0</ele><time>2026-04-18T08:23:24.823Z</time></trkpt><trkpt lat="45.3946335" lon="11.6786956"><ele>14.666666666666668</ele><time>2026-04-18T08:23:25.823Z</time></trkpt><trkpt lat="45.3945283" lon="11.6785041"><ele>15.333333333333332</ele><time>2026-04-18T08:23:26.823Z</time></trkpt><trkpt lat="45.3944151" lon="11.678307"><ele>16.0</ele><time>2026-04-18T08:23:27.823Z</time></trkpt><trkpt lat="45.394308" lon="11.6781101"><ele>16.0</ele><time>2026-04-18T08:23:28.823Z</time></trkpt><trkpt lat="45.3941999" lon="11.6779043"><ele>16.0</ele><time>2026-04-18T08:23:29.824Z</time></trkpt><trkpt lat="45.3940886" lon="11.677704"><ele>16.0</ele><time>2026-04-18T08:23:30.823Z</time></trkpt><trkpt lat="45.3939772" lon="11.6774966"><ele>16.333333333333332</ele><time>2026-04-18T08:23:31.823Z</time></trkpt><trkpt lat="45.393867" lon="11.6772823"><ele>16.666666666666668</ele><time>2026-04-18T08:23:32.823Z</time></trkpt><trkpt lat="45.3937631" lon="11.6770772"><ele>17.0</ele><time>2026-04-18T08:23:33.823Z</time></trkpt><trkpt lat="45.3936698" lon="11.6768824"><ele>17.0</ele><time>2026-04-18T08:23:34.823Z</time></trkpt><trkpt lat="45.3935896" lon="11.6766914"><ele>17.0</ele><time>2026-04-18T08:23:35.823Z</time></trkpt><trkpt lat="45.3935248" lon="11.6765053"><ele>17.0</ele><time>2026-04-18T08:23:36.823Z</time></trkpt><trkpt lat="45.3934697" lon="11.6763023"><ele>17.0</ele><time>2026-04-18T08:23:37.823Z</time></trkpt><trkpt lat="45.3934424" lon="11.6760568"><ele>17.0</ele><time>2026-04-18T08:23:38.823Z</time></trkpt><trkpt lat="45.3934451" lon="11.6757726"><ele>17.0</ele><time>2026-04-18T08:23:39.823Z</time></trkpt><trkpt lat="45.3934727" lon="11.6754622"><ele>18.0</ele><time>2026-04-18T08:23:40.823Z</time></trkpt><trkpt lat="45.3935215" lon="11.6751387"><ele>19.0</ele><time>2026-04-18T08:23:41.823Z</time></trkpt><trkpt lat="45.3935753" lon="11.6748003"><ele>19.0</ele><time>2026-04-18T08:23:42.823Z</time></trkpt><trkpt lat="45.3936226" lon="11.6744686"><ele>19.0</ele><time>2026-04-18T08:23:43.823Z</time></trkpt><trkpt lat="45.3936735" lon="11.6741551"><ele>18.666666666666664</ele><time>2026-04-18T08:23:44.823Z</time></trkpt><trkpt lat="45.3937181" lon="11.6738612"><ele>18.333333333333332</ele><time>2026-04-18T08:23:45.823Z</time></trkpt><trkpt lat="45.3937631" lon="11.6735744"><ele>18.0</ele><time>2026-04-18T08:23:46.823Z</time></trkpt><trkpt lat="45.3938114" lon="11.6732825"><ele>17.0</ele><time>2026-04-18T08:23:47.823Z</time></trkpt><trkpt lat="45.3938582" lon="11.6729942"><ele>16.0</ele><time>2026-04-18T08:23:48.823Z</time></trkpt><trkpt lat="45.3939045" lon="11.6727183"><ele>15.0</ele><time>2026-04-18T08:23:49.823Z</time></trkpt><trkpt lat="45.3939459" lon="11.6724574"><ele>15.0</ele><time>2026-04-18T08:23:50.823Z</time></trkpt><trkpt lat="45.3939833" lon="11.6721969"><ele>15.0</ele><time>2026-04-18T08:23:51.823Z</time></trkpt><trkpt lat="45.3940101" lon="11.6719352"><ele>15.0</ele><time>2026-04-18T08:23:52.823Z</time></trkpt><trkpt lat="45.3940277" lon="11.6716756"><ele>15.0</ele><time>2026-04-18T08:23:53.823Z</time></trkpt><trkpt lat="45.3940323" lon="11.6714151"><ele>15.0</ele><time>2026-04-18T08:23:54.823Z</time></trkpt><trkpt lat="45.3940287" lon="11.6711561"><ele>15.0</ele><time>2026-04-18T08:23:55.824Z</time></trkpt><trkpt lat="45.39402" lon="11.6709037"><ele>15.0</ele><time>2026-04-18T08:23:56.823Z</time></trkpt><trkpt lat="45.3940109" lon="11.6706403"><ele>15.0</ele><time>2026-04-18T08:23:57.823Z</time></trkpt><trkpt lat="45.3940021" lon="11.6703979"><ele>15.0</ele><time>2026-04-18T08:23:58.823Z</time></trkpt><trkpt lat="45.393993" lon="11.6701726"><ele>15.0</ele><time>2026-04-18T08:23:59.824Z</time></trkpt><trkpt lat="45.3939851" lon="11.6699648"><ele>15.0</ele><time>2026-04-18T08:24:00.823Z</time></trkpt><trkpt lat="45.3939786" lon="11.669764"><ele>15.0</ele><time>2026-04-18T08:24:01.823Z</time></trkpt><trkpt lat="45.3939705" lon="11.6695723"><ele>15.0</ele><time>2026-04-18T08:24:02.823Z</time></trkpt><trkpt lat="45.3939632" lon="11.6693895"><ele>15.0</ele><time>2026-04-18T08:24:03.823Z</time></trkpt><trkpt lat="45.3939566" lon="11.6692184"><ele>15.0</ele><time>2026-04-18T08:24:04.824Z</time></trkpt><trkpt lat="45.3939465" lon="11.6690479"><ele>15.0</ele><time>2026-04-18T08:24:05.823Z</time></trkpt><trkpt lat="45.3939364" lon="11.6688651"><ele>15.0</ele><time>2026-04-18T08:24:06.823Z</time></trkpt><trkpt lat="45.3939303" lon="11.6686836"><ele>15.0</ele><time>2026-04-18T08:24:07.823Z</time></trkpt><trkpt lat="45.3939266" lon="11.6685138"><ele>15.0</ele><time>2026-04-18T08:24:08.823Z</time></trkpt><trkpt lat="45.3939209" lon="11.6683563"><ele>15.0</ele><time>2026-04-18T08:24:09.823Z</time></trkpt><trkpt lat="45.3939123" lon="11.6682031"><ele>15.0</ele><time>2026-04-18T08:24:10.823Z</time></trkpt><trkpt lat="45.3939062" lon="11.6680563"><ele>15.0</ele><time>2026-04-18T08:24:11.823Z</time></trkpt><trkpt lat="45.393899" lon="11.667902"><ele>15.0</ele><time>2026-04-18T08:24:12.823Z</time></trkpt><trkpt lat="45.3938932" lon="11.6677445"><ele>15.0</ele><time>2026-04-18T08:24:13.823Z</time></trkpt><trkpt lat="45.3938848" lon="11.6676111"><ele>15.0</ele><time>2026-04-18T08:24:14.823Z</time></trkpt><trkpt lat="45.3938786" lon="11.6674948"><ele>15.0</ele><time>2026-04-18T08:24:15.823Z</time></trkpt><trkpt lat="45.393874" lon="11.6673838"><ele>15.0</ele><time>2026-04-18T08:24:16.824Z</time></trkpt><trkpt lat="45.3938682" lon="11.6672723"><ele>15.0</ele><time>2026-04-18T08:24:17.823Z</time></trkpt><trkpt lat="45.3938633" lon="11.6671519"><ele>15.0</ele><time>2026-04-18T08:24:18.823Z</time></trkpt><trkpt lat="45.3938615" lon="11.6670199"><ele>15.0</ele><time>2026-04-18T08:24:19.824Z</time></trkpt><trkpt lat="45.3938577" lon="11.6668775"><ele>15.0</ele><time>2026-04-18T08:24:20.823Z</time></trkpt><trkpt lat="45.3938498" lon="11.6667284"><ele>15.0</ele><time>2026-04-18T08:24:21.823Z</time></trkpt><trkpt lat="45.3938421" lon="11.666587"><ele>15.0</ele><time>2026-04-18T08:24:22.823Z</time></trkpt><trkpt lat="45.393835" lon="11.6664538"><ele>16.0</ele><time>2026-04-18T08:24:23.823Z</time></trkpt><trkpt lat="45.3938287" lon="11.6663307"><ele>17.0</ele><time>2026-04-18T08:24:24.823Z</time></trkpt><trkpt lat="45.3938239" lon="11.6662089"><ele>18.0</ele><time>2026-04-18T08:24:25.823Z</time></trkpt><trkpt lat="45.3938174" lon="11.6660785"><ele>19.0</ele><time>2026-04-18T08:24:26.823Z</time></trkpt><trkpt lat="45.3938088" lon="11.6659212"><ele>20.0</ele><time>2026-04-18T08:24:27.823Z</time></trkpt><trkpt lat="45.3938072" lon="11.665749"><ele>20.2</ele><time>2026-04-18T08:24:28.823Z</time></trkpt><trkpt lat="45.3938114" lon="11.6655869"><ele>20.4</ele><time>2026-04-18T08:24:29.823Z</time></trkpt><trkpt lat="45.3938158" lon="11.6654341"><ele>20.6</ele><time>2026-04-18T08:24:30.823Z</time></trkpt><trkpt lat="45.3938158" lon="11.6652777"><ele>20.8</ele><time>2026-04-18T08:24:31.823Z</time></trkpt><trkpt lat="45.3938078" lon="11.6651203"><ele>21.0</ele><time>2026-04-18T08:24:32.823Z</time></trkpt><trkpt lat="45.3937966" lon="11.6649564"><ele>21.0</ele><time>2026-04-18T08:24:33.823Z</time></trkpt><trkpt lat="45.3937852" lon="11.6647861"><ele>21.0</ele><time>2026-04-18T08:24:34.823Z</time></trkpt><trkpt lat="45.3937588" lon="11.6646103"><ele>21.0</ele><time>2026-04-18T08:24:35.823Z</time></trkpt><trkpt lat="45.3937094" lon="11.66444"><ele>21.0</ele><time>2026-04-18T08:24:36.823Z</time></trkpt><trkpt lat="45.3936543" lon="11.6642867"><ele>20.5</ele><time>2026-04-18T08:24:37.823Z</time></trkpt><trkpt lat="45.3935966" lon="11.6641319"><ele>20.0</ele><time>2026-04-18T08:24:38.823Z</time></trkpt><trkpt lat="45.3935328" lon="11.6639794"><ele>19.5</ele><time>2026-04-18T08:24:39.823Z</time></trkpt><trkpt lat="45.3934656" lon="11.6638234"><ele>19.0</ele><time>2026-04-18T08:24:40.824Z</time></trkpt><trkpt lat="45.3933897" lon="11.6636581"><ele>18.75</ele><time>2026-04-18T08:24:41.823Z</time></trkpt><trkpt lat="45.3933139" lon="11.6634838"><ele>18.5</ele><time>2026-04-18T08:24:42.823Z</time></trkpt><trkpt lat="45.393238" lon="11.6633186"><ele>18.25</ele><time>2026-04-18T08:24:43.823Z</time></trkpt><trkpt lat="45.3931696" lon="11.6631631"><ele>18.0</ele><time>2026-04-18T08:24:44.823Z</time></trkpt><trkpt lat="45.3931039" lon="11.6630162"><ele>18.0</ele><time>2026-04-18T08:24:45.823Z</time></trkpt><trkpt lat="45.3930413" lon="11.6628783"><ele>18.0</ele><time>2026-04-18T08:24:46.823Z</time></trkpt><trkpt lat="45.3929832" lon="11.6627377"><ele>18.0</ele><time>2026-04-18T08:24:47.823Z</time></trkpt><trkpt lat="45.3929247" lon="11.6625982"><ele>18.0</ele><time>2026-04-18T08:24:48.823Z</time></trkpt><trkpt lat="45.3928655" lon="11.6624582"><ele>17.5</ele><time>2026-04-18T08:24:49.823Z</time></trkpt><trkpt lat="45.3928071" lon="11.6623242"><ele>17.0</ele><time>2026-04-18T08:24:50.823Z</time></trkpt><trkpt lat="45.3927467" lon="11.6621933"><ele>16.5</ele><time>2026-04-18T08:24:51.823Z</time></trkpt><trkpt lat="45.3926731" lon="11.6620306"><ele>16.0</ele><time>2026-04-18T08:24:52.823Z</time></trkpt><trkpt lat="45.392597" lon="11.6618221"><ele>15.666666666666666</ele><time>2026-04-18T08:24:53.823Z</time></trkpt><trkpt lat="45.3925104" lon="11.6616243"><ele>15.333333333333332</ele><time>2026-04-18T08:24:54.823Z</time></trkpt><trkpt lat="45.3924295" lon="11.6614454"><ele>15.0</ele><time>2026-04-18T08:24:55.823Z</time></trkpt><trkpt lat="45.3923507" lon="11.6612815"><ele>15.0</ele><time>2026-04-18T08:24:56.823Z</time></trkpt><trkpt lat="45.3922784" lon="11.6611373"><ele>15.0</ele><time>2026-04-18T08:24:57.823Z</time></trkpt><trkpt lat="45.3922129" lon="11.660996"><ele>15.0</ele><time>2026-04-18T08:24:58.823Z</time></trkpt><trkpt lat="45.3921464" lon="11.6608643"><ele>15.0</ele><time>2026-04-18T08:24:59.823Z</time></trkpt><trkpt lat="45.3920743" lon="11.6607238"><ele>15.0</ele><time>2026-04-18T08:25:00.823Z</time></trkpt><trkpt lat="45.3920041" lon="11.6605797"><ele>15.0</ele><time>2026-04-18T08:25:01.823Z</time></trkpt><trkpt lat="45.3919362" lon="11.6604409"><ele>15.0</ele><time>2026-04-18T08:25:02.823Z</time></trkpt><trkpt lat="45.3918719" lon="11.6603095"><ele>15.0</ele><time>2026-04-18T08:25:03.823Z</time></trkpt><trkpt lat="45.3918108" lon="11.6601903"><ele>15.0</ele><time>2026-04-18T08:25:04.823Z</time></trkpt><trkpt lat="45.3917576" lon="11.6600806"><ele>15.0</ele><time>2026-04-18T08:25:05.823Z</time></trkpt><trkpt lat="45.3917062" lon="11.659986"><ele>15.0</ele><time>2026-04-18T08:25:06.823Z</time></trkpt><trkpt lat="45.391661" lon="11.6598988"><ele>15.0</ele><time>2026-04-18T08:25:07.823Z</time></trkpt><trkpt lat="45.3916091" lon="11.659797"><ele>15.0</ele><time>2026-04-18T08:25:08.823Z</time></trkpt><trkpt lat="45.391548" lon="11.6596762"><ele>15.0</ele><time>2026-04-18T08:25:09.823Z</time></trkpt><trkpt lat="45.391476" lon="11.6595441"><ele>15.0</ele><time>2026-04-18T08:25:10.823Z</time></trkpt><trkpt lat="45.3914103" lon="11.6594216"><ele>15.0</ele><time>2026-04-18T08:25:11.823Z</time></trkpt><trkpt lat="45.3913478" lon="11.6593104"><ele>15.0</ele><time>2026-04-18T08:25:12.823Z</time></trkpt><trkpt lat="45.3912851" lon="11.6591997"><ele>15.0</ele><time>2026-04-18T08:25:13.823Z</time></trkpt><trkpt lat="45.3912255" lon="11.6590843"><ele>15.0</ele><time>2026-04-18T08:25:14.823Z</time></trkpt><trkpt lat="45.3911684" lon="11.6589729"><ele>15.0</ele><time>2026-04-18T08:25:15.823Z</time></trkpt><trkpt lat="45.3911183" lon="11.6588731"><ele>15.0</ele><time>2026-04-18T08:25:16.823Z</time></trkpt><trkpt lat="45.3910715" lon="11.6587785"><ele>15.0</ele><time>2026-04-18T08:25:17.823Z</time></trkpt><trkpt lat="45.3910208" lon="11.65868"><ele>15.0</ele><time>2026-04-18T08:25:18.823Z</time></trkpt><trkpt lat="45.3909668" lon="11.6585685"><ele>15.0</ele><time>2026-04-18T08:25:19.823Z</time></trkpt><trkpt lat="45.3909097" lon="11.6584482"><ele>15.0</ele><time>2026-04-18T08:25:20.823Z</time></trkpt><trkpt lat="45.3908562" lon="11.6583342"><ele>15.0</ele><time>2026-04-18T08:25:21.823Z</time></trkpt><trkpt lat="45.3907999" lon="11.65823"><ele>15.0</ele><time>2026-04-18T08:25:22.823Z</time></trkpt><trkpt lat="45.3907435" lon="11.6581182"><ele>15.0</ele><time>2026-04-18T08:25:23.823Z</time></trkpt><trkpt lat="45.3906862" lon="11.6579991"><ele>15.0</ele><time>2026-04-18T08:25:24.823Z</time></trkpt><trkpt lat="45.3906255" lon="11.6578762"><ele>15.25</ele><time>2026-04-18T08:25:25.823Z</time></trkpt><trkpt lat="45.390562" lon="11.6577482"><ele>15.5</ele><time>2026-04-18T08:25:26.823Z</time></trkpt><trkpt lat="45.390496" lon="11.6576199"><ele>15.75</ele><time>2026-04-18T08:25:27.823Z</time></trkpt><trkpt lat="45.390427" lon="11.6574672"><ele>16.0</ele><time>2026-04-18T08:25:28.823Z</time></trkpt><trkpt lat="45.3903523" lon="11.657314"><ele>15.600000000000001</ele><time>2026-04-18T08:25:29.823Z</time></trkpt><trkpt lat="45.3902792" lon="11.6571836"><ele>15.200000000000001</ele><time>2026-04-18T08:25:30.823Z</time></trkpt><trkpt lat="45.3902089" lon="11.6570706"><ele>14.799999999999999</ele><time>2026-04-18T08:25:31.823Z</time></trkpt><trkpt lat="45.3901449" lon="11.6569653"><ele>14.399999999999999</ele><time>2026-04-18T08:25:32.823Z</time></trkpt><trkpt lat="45.3900759" lon="11.6568743"><ele>14.0</ele><time>2026-04-18T08:25:33.824Z</time></trkpt><trkpt lat="45.3900034" lon="11.6567857"><ele>14.0</ele><time>2026-04-18T08:25:34.823Z</time></trkpt><trkpt lat="45.3899375" lon="11.6567093"><ele>13.999999999999998</ele><time>2026-04-18T08:25:35.823Z</time></trkpt><trkpt lat="45.3898771" lon="11.656641"><ele>13.999999999999998</ele><time>2026-04-18T08:25:36.823Z</time></trkpt><trkpt lat="45.3898236" lon="11.6565803"><ele>14.0</ele><time>2026-04-18T08:25:37.823Z</time></trkpt><trkpt lat="45.3897269" lon="11.6564759"><ele>14.0</ele><time>2026-04-18T08:25:39.823Z</time></trkpt><trkpt lat="45.3896335" lon="11.656382"><ele>14.000000000000002</ele><time>2026-04-18T08:25:41.823Z</time></trkpt><trkpt lat="45.3895537" lon="11.6563016"><ele>14.0</ele><time>2026-04-18T08:25:43.823Z</time></trkpt><trkpt lat="45.3894813" lon="11.6562169"><ele>14.0</ele><time>2026-04-18T08:25:45.823Z</time></trkpt><trkpt lat="45.3894176" lon="11.6561184"><ele>14.0</ele><time>2026-04-18T08:25:47.824Z</time></trkpt><trkpt lat="45.3894005" lon="11.6560174"><ele>14.000000000000002</ele><time>2026-04-18T08:25:48.824Z</time></trkpt><trkpt lat="45.3893865" lon="11.6559143"><ele>14.0</ele><time>2026-04-18T08:25:49.823Z</time></trkpt><trkpt lat="45.3893598" lon="11.6558278"><ele>14.25</ele><time>2026-04-18T08:25:50.823Z</time></trkpt><trkpt lat="45.3892698" lon="11.655705"><ele>14.5</ele><time>2026-04-18T08:25:52.823Z</time></trkpt><trkpt lat="45.3891561" lon="11.6556854"><ele>14.75</ele><time>2026-04-18T08:25:54.823Z</time></trkpt><trkpt lat="45.3890563" lon="11.6556913"><ele>15.0</ele><time>2026-04-18T08:25:56.823Z</time></trkpt><trkpt lat="45.3889462" lon="11.6556422"><ele>15.0</ele><time>2026-04-18T08:25:58.823Z</time></trkpt><trkpt lat="45.3888836" lon="11.6555841"><ele>15.0</ele><time>2026-04-18T08:25:59.823Z</time></trkpt><trkpt lat="45.3888052" lon="11.6555011"><ele>15.0</ele><time>2026-04-18T08:26:00.823Z</time></trkpt><trkpt lat="45.388734" lon="11.6554213"><ele>15.0</ele><time>2026-04-18T08:26:01.823Z</time></trkpt><trkpt lat="45.3886612" lon="11.6553444"><ele>15.0</ele><time>2026-04-18T08:26:02.823Z</time></trkpt><trkpt lat="45.3885895" lon="11.6552757"><ele>15.0</ele><time>2026-04-18T08:26:03.823Z</time></trkpt><trkpt lat="45.3885176" lon="11.6552022"><ele>15.5</ele><time>2026-04-18T08:26:04.823Z</time></trkpt><trkpt lat="45.3884403" lon="11.6551244"><ele>16.0</ele><time>2026-04-18T08:26:05.823Z</time></trkpt><trkpt lat="45.3883368" lon="11.6550291"><ele>16.5</ele><time>2026-04-18T08:26:06.823Z</time></trkpt><trkpt lat="45.388225" lon="11.6549253"><ele>17.0</ele><time>2026-04-18T08:26:07.823Z</time></trkpt><trkpt lat="45.3881232" lon="11.6548163"><ele>17.0</ele><time>2026-04-18T08:26:08.823Z</time></trkpt><trkpt lat="45.3880219" lon="11.6547065"><ele>17.0</ele><time>2026-04-18T08:26:09.823Z</time></trkpt><trkpt lat="45.3879207" lon="11.654604"><ele>17.0</ele><time>2026-04-18T08:26:10.823Z</time></trkpt><trkpt lat="45.3878258" lon="11.6545151"><ele>17.0</ele><time>2026-04-18T08:26:11.823Z</time></trkpt><trkpt lat="45.38771" lon="11.6544248"><ele>17.25</ele><time>2026-04-18T08:26:12.823Z</time></trkpt><trkpt lat="45.3875945" lon="11.6543252"><ele>17.5</ele><time>2026-04-18T08:26:13.823Z</time></trkpt><trkpt lat="45.3874943" lon="11.6542205"><ele>17.75</ele><time>2026-04-18T08:26:14.823Z</time></trkpt><trkpt lat="45.3874008" lon="11.6541223"><ele>18.0</ele><time>2026-04-18T08:26:15.823Z</time></trkpt><trkpt lat="45.3873127" lon="11.6540383"><ele>18.0</ele><time>2026-04-18T08:26:16.824Z</time></trkpt><trkpt lat="45.3872337" lon="11.6539584"><ele>18.0</ele><time>2026-04-18T08:26:17.823Z</time></trkpt><trkpt lat="45.3871592" lon="11.6538891"><ele>18.0</ele><time>2026-04-18T08:26:18.823Z</time></trkpt><trkpt lat="45.3870861" lon="11.6538189"><ele>18.0</ele><time>2026-04-18T08:26:19.823Z</time></trkpt><trkpt lat="45.3870089" lon="11.653748"><ele>18.0</ele><time>2026-04-18T08:26:20.823Z</time></trkpt><trkpt lat="45.38693" lon="11.6536816"><ele>18.0</ele><time>2026-04-18T08:26:21.823Z</time></trkpt><trkpt lat="45.3868489" lon="11.6536165"><ele>18.0</ele><time>2026-04-18T08:26:22.823Z</time></trkpt><trkpt lat="45.3867724" lon="11.6535504"><ele>18.0</ele><time>2026-04-18T08:26:23.823Z</time></trkpt><trkpt lat="45.3866952" lon="11.6534842"><ele>18.0</ele><time>2026-04-18T08:26:24.823Z</time></trkpt><trkpt lat="45.38662" lon="11.6534214"><ele>18.0</ele><time>2026-04-18T08:26:25.823Z</time></trkpt><trkpt lat="45.3865467" lon="11.6533561"><ele>18.0</ele><time>2026-04-18T08:26:26.823Z</time></trkpt><trkpt lat="45.3864669" lon="11.653289"><ele>18.0</ele><time>2026-04-18T08:26:27.823Z</time></trkpt><trkpt lat="45.3863911" lon="11.6532241"><ele>18.0</ele><time>2026-04-18T08:26:28.823Z</time></trkpt><trkpt lat="45.3863172" lon="11.653163"><ele>18.0</ele><time>2026-04-18T08:26:29.823Z</time></trkpt><trkpt lat="45.3862508" lon="11.653104"><ele>18.0</ele><time>2026-04-18T08:26:30.824Z</time></trkpt><trkpt lat="45.3861843" lon="11.6530486"><ele>18.0</ele><time>2026-04-18T08:26:31.823Z</time></trkpt><trkpt lat="45.3861241" lon="11.6529919"><ele>18.0</ele><time>2026-04-18T08:26:32.823Z</time></trkpt><trkpt lat="45.3860657" lon="11.6529401"><ele>18.0</ele><time>2026-04-18T08:26:33.823Z</time></trkpt><trkpt lat="45.3860072" lon="11.6528931"><ele>18.0</ele><time>2026-04-18T08:26:34.823Z</time></trkpt><trkpt lat="45.385922" lon="11.652819"><ele>18.0</ele><time>2026-04-18T08:26:36.823Z</time></trkpt><trkpt lat="45.3858506" lon="11.6527516"><ele>18.0</ele><time>2026-04-18T08:26:38.823Z</time></trkpt><trkpt lat="45.3857739" lon="11.6526686"><ele>18.0</ele><time>2026-04-18T08:26:40.823Z</time></trkpt><trkpt lat="45.3856917" lon="11.6525023"><ele>18.0</ele><time>2026-04-18T08:26:42.824Z</time></trkpt><trkpt lat="45.3856418" lon="11.6523917"><ele>18.0</ele><time>2026-04-18T08:26:43.823Z</time></trkpt><trkpt lat="45.3855987" lon="11.6522888"><ele>18.0</ele><time>2026-04-18T08:26:44.823Z</time></trkpt><trkpt lat="45.3855641" lon="11.6521879"><ele>18.0</ele><time>2026-04-18T08:26:45.823Z</time></trkpt><trkpt lat="45.3855306" lon="11.6520928"><ele>18.0</ele><time>2026-04-18T08:26:46.823Z</time></trkpt><trkpt lat="45.3854995" lon="11.6519999"><ele>18.0</ele><time>2026-04-18T08:26:47.823Z</time></trkpt><trkpt lat="45.3854724" lon="11.6519145"><ele>17.833333333333332</ele><time>2026-04-18T08:26:48.823Z</time></trkpt><trkpt lat="45.3854192" lon="11.6517896"><ele>17.666666666666668</ele><time>2026-04-18T08:26:50.823Z</time></trkpt><trkpt lat="45.3853836" lon="11.6517148"><ele>17.5</ele><time>2026-04-18T08:26:51.823Z</time></trkpt><trkpt lat="45.3853158" lon="11.6515691"><ele>17.333333333333336</ele><time>2026-04-18T08:26:53.823Z</time></trkpt><trkpt lat="45.3852721" lon="11.6515014"><ele>17.166666666666668</ele><time>2026-04-18T08:26:54.823Z</time></trkpt><trkpt lat="45.3852278" lon="11.6514336"><ele>17.0</ele><time>2026-04-18T08:26:55.823Z</time></trkpt><trkpt lat="45.3851726" lon="11.651374"><ele>17.0</ele><time>2026-04-18T08:26:56.823Z</time></trkpt><trkpt lat="45.3850874" lon="11.6513073"><ele>17.0</ele><time>2026-04-18T08:26:57.823Z</time></trkpt><trkpt lat="45.384973" lon="11.6512261"><ele>17.0</ele><time>2026-04-18T08:26:58.823Z</time></trkpt><trkpt lat="45.3848445" lon="11.6511466"><ele>17.0</ele><time>2026-04-18T08:26:59.823Z</time></trkpt><trkpt lat="45.38472" lon="11.6510894"><ele>17.0</ele><time>2026-04-18T08:27:00.823Z</time></trkpt><trkpt lat="45.3845946" lon="11.6510438"><ele>17.0</ele><time>2026-04-18T08:27:01.823Z</time></trkpt><trkpt lat="45.384475" lon="11.6510033"><ele>17.0</ele><time>2026-04-18T08:27:02.823Z</time></trkpt><trkpt lat="45.3843636" lon="11.650959"><ele>17.0</ele><time>2026-04-18T08:27:03.823Z</time></trkpt><trkpt lat="45.3842577" lon="11.6509126"><ele>17.0</ele><time>2026-04-18T08:27:04.823Z</time></trkpt><trkpt lat="45.3841583" lon="11.6508529"><ele>17.0</ele><time>2026-04-18T08:27:05.823Z</time></trkpt><trkpt lat="45.3840489" lon="11.6507671"><ele>17.0</ele><time>2026-04-18T08:27:06.823Z</time></trkpt><trkpt lat="45.3839314" lon="11.6506583"><ele>17.0</ele><time>2026-04-18T08:27:07.823Z</time></trkpt><trkpt lat="45.3838028" lon="11.6505355"><ele>16.75</ele><time>2026-04-18T08:27:08.823Z</time></trkpt><trkpt lat="45.3836824" lon="11.6504229"><ele>16.5</ele><time>2026-04-18T08:27:09.823Z</time></trkpt><trkpt lat="45.3835728" lon="11.6503127"><ele>16.25</ele><time>2026-04-18T08:27:10.823Z</time></trkpt><trkpt lat="45.3834651" lon="11.6502089"><ele>16.0</ele><time>2026-04-18T08:27:11.823Z</time></trkpt><trkpt lat="45.3833556" lon="11.6501026"><ele>16.0</ele><time>2026-04-18T08:27:12.823Z</time></trkpt><trkpt lat="45.3832323" lon="11.6499779"><ele>16.0</ele><time>2026-04-18T08:27:13.824Z</time></trkpt><trkpt lat="45.3830945" lon="11.6498376"><ele>16.0</ele><time>2026-04-18T08:27:14.823Z</time></trkpt><trkpt lat="45.3829501" lon="11.6496875"><ele>15.666666666666666</ele><time>2026-04-18T08:27:15.823Z</time></trkpt><trkpt lat="45.3828178" lon="11.6495361"><ele>15.333333333333332</ele><time>2026-04-18T08:27:16.823Z</time></trkpt><trkpt lat="45.3826936" lon="11.6493951"><ele>15.0</ele><time>2026-04-18T08:27:17.823Z</time></trkpt><trkpt lat="45.3825782" lon="11.6492599"><ele>14.75</ele><time>2026-04-18T08:27:18.823Z</time></trkpt><trkpt lat="45.3824676" lon="11.6491225"><ele>14.5</ele><time>2026-04-18T08:27:19.823Z</time></trkpt><trkpt lat="45.382359" lon="11.6489897"><ele>14.25</ele><time>2026-04-18T08:27:20.823Z</time></trkpt><trkpt lat="45.3822679" lon="11.6488763"><ele>14.0</ele><time>2026-04-18T08:27:21.823Z</time></trkpt><trkpt lat="45.3821986" lon="11.6487848"><ele>14.000000000000002</ele><time>2026-04-18T08:27:22.823Z</time></trkpt><trkpt lat="45.3821359" lon="11.6486976"><ele>14.0</ele><time>2026-04-18T08:27:23.823Z</time></trkpt><trkpt lat="45.3820828" lon="11.6486191"><ele>14.0</ele><time>2026-04-18T08:27:24.823Z</time></trkpt><trkpt lat="45.382041" lon="11.6485494"><ele>14.0</ele><time>2026-04-18T08:27:25.823Z</time></trkpt><trkpt lat="45.382007" lon="11.6484589"><ele>14.000000000000002</ele><time>2026-04-18T08:27:26.823Z</time></trkpt><trkpt lat="45.3819813" lon="11.6483447"><ele>14.0</ele><time>2026-04-18T08:27:27.823Z</time></trkpt><trkpt lat="45.3819391" lon="11.648246"><ele>14.0</ele><time>2026-04-18T08:27:28.823Z</time></trkpt><trkpt lat="45.381882" lon="11.6481868"><ele>13.999999999999998</ele><time>2026-04-18T08:27:29.823Z</time></trkpt><trkpt lat="45.3818218" lon="11.6481306"><ele>13.999999999999998</ele><time>2026-04-18T08:27:30.823Z</time></trkpt><trkpt lat="45.3817512" lon="11.6480458"><ele>14.0</ele><time>2026-04-18T08:27:31.823Z</time></trkpt><trkpt lat="45.3816764" lon="11.647907"><ele>14.0</ele><time>2026-04-18T08:27:32.823Z</time></trkpt><trkpt lat="45.3815995" lon="11.6477159"><ele>14.0</ele><time>2026-04-18T08:27:33.823Z</time></trkpt><trkpt lat="45.3815226" lon="11.6475071"><ele>14.0</ele><time>2026-04-18T08:27:34.823Z</time></trkpt><trkpt lat="45.3814528" lon="11.6472798"><ele>14.0</ele><time>2026-04-18T08:27:35.823Z</time></trkpt><trkpt lat="45.3813909" lon="11.6470138"><ele>14.0</ele><time>2026-04-18T08:27:36.823Z</time></trkpt><trkpt lat="45.3813525" lon="11.6467478"><ele>14.0</ele><time>2026-04-18T08:27:37.823Z</time></trkpt><trkpt lat="45.3813196" lon="11.6464565"><ele>14.0</ele><time>2026-04-18T08:27:38.823Z</time></trkpt><trkpt lat="45.3812986" lon="11.6461517"><ele>14.0</ele><time>2026-04-18T08:27:39.823Z</time></trkpt><trkpt lat="45.3812856" lon="11.6458392"><ele>14.0</ele><time>2026-04-18T08:27:40.823Z</time></trkpt><trkpt lat="45.3812763" lon="11.6455353"><ele>14.0</ele><time>2026-04-18T08:27:41.823Z</time></trkpt><trkpt lat="45.3812733" lon="11.6452329"><ele>14.0</ele><time>2026-04-18T08:27:42.823Z</time></trkpt><trkpt lat="45.3812665" lon="11.6449313"><ele>14.0</ele><time>2026-04-18T08:27:43.823Z</time></trkpt><trkpt lat="45.3812594" lon="11.6446182"><ele>14.0</ele><time>2026-04-18T08:27:44.823Z</time></trkpt><trkpt lat="45.3812516" lon="11.6442972"><ele>14.0</ele><time>2026-04-18T08:27:45.823Z</time></trkpt><trkpt lat="45.3812424" lon="11.6439683"><ele>14.0</ele><time>2026-04-18T08:27:46.823Z</time></trkpt><trkpt lat="45.3812342" lon="11.6436395"><ele>14.5</ele><time>2026-04-18T08:27:47.823Z</time></trkpt><trkpt lat="45.3812253" lon="11.6433035"><ele>15.0</ele><time>2026-04-18T08:27:48.823Z</time></trkpt><trkpt lat="45.3812179" lon="11.6429592"><ele>14.0</ele><time>2026-04-18T08:27:49.823Z</time></trkpt><trkpt lat="45.3812118" lon="11.6426177"><ele>13.0</ele><time>2026-04-18T08:27:50.823Z</time></trkpt><trkpt lat="45.3812056" lon="11.6422942"><ele>13.0</ele><time>2026-04-18T08:27:51.823Z</time></trkpt><trkpt lat="45.3811988" lon="11.6419767"><ele>13.0</ele><time>2026-04-18T08:27:52.823Z</time></trkpt><trkpt lat="45.3811901" lon="11.6416712"><ele>13.0</ele><time>2026-04-18T08:27:53.823Z</time></trkpt><trkpt lat="45.3811825" lon="11.6413781"><ele>12.666666666666666</ele><time>2026-04-18T08:27:54.823Z</time></trkpt><trkpt lat="45.3811763" lon="11.6410874"><ele>12.333333333333332</ele><time>2026-04-18T08:27:55.824Z</time></trkpt><trkpt lat="45.3811689" lon="11.6408099"><ele>12.0</ele><time>2026-04-18T08:27:56.823Z</time></trkpt><trkpt lat="45.3811599" lon="11.6405366"><ele>12.333333333333332</ele><time>2026-04-18T08:27:57.823Z</time></trkpt><trkpt lat="45.3811496" lon="11.6402516"><ele>12.666666666666666</ele><time>2026-04-18T08:27:58.823Z</time></trkpt><trkpt lat="45.3811439" lon="11.6399529"><ele>13.0</ele><time>2026-04-18T08:27:59.823Z</time></trkpt><trkpt lat="45.3811483" lon="11.6396423"><ele>14.0</ele><time>2026-04-18T08:28:00.823Z</time></trkpt><trkpt lat="45.3811614" lon="11.6393226"><ele>15.0</ele><time>2026-04-18T08:28:01.823Z</time></trkpt><trkpt lat="45.3811793" lon="11.6390021"><ele>15.0</ele><time>2026-04-18T08:28:02.823Z</time></trkpt><trkpt lat="45.3812082" lon="11.6386712"><ele>15.0</ele><time>2026-04-18T08:28:03.823Z</time></trkpt><trkpt lat="45.3812443" lon="11.6383576"><ele>15.0</ele><time>2026-04-18T08:28:04.823Z</time></trkpt><trkpt lat="45.3812815" lon="11.6380547"><ele>15.0</ele><time>2026-04-18T08:28:05.823Z</time></trkpt><trkpt lat="45.3813167" lon="11.6377695"><ele>15.0</ele><time>2026-04-18T08:28:06.823Z</time></trkpt><trkpt lat="45.3813509" lon="11.6375065"><ele>15.0</ele><time>2026-04-18T08:28:07.823Z</time></trkpt><trkpt lat="45.3813785" lon="11.6372631"><ele>15.0</ele><time>2026-04-18T08:28:08.823Z</time></trkpt><trkpt lat="45.3813927" lon="11.6370146"><ele>15.0</ele><time>2026-04-18T08:28:09.823Z</time></trkpt><trkpt lat="45.3813729" lon="11.6367419"><ele>14.333333333333332</ele><time>2026-04-18T08:28:10.823Z</time></trkpt><trkpt lat="45.3813285" lon="11.636443"><ele>13.666666666666666</ele><time>2026-04-18T08:28:11.823Z</time></trkpt><trkpt lat="45.3812741" lon="11.6361555"><ele>13.0</ele><time>2026-04-18T08:28:12.823Z</time></trkpt><trkpt lat="45.3812236" lon="11.6358648"><ele>13.0</ele><time>2026-04-18T08:28:13.823Z</time></trkpt><trkpt lat="45.3811771" lon="11.6355453"><ele>13.0</ele><time>2026-04-18T08:28:14.823Z</time></trkpt><trkpt lat="45.3811466" lon="11.6351964"><ele>13.0</ele><time>2026-04-18T08:28:15.823Z</time></trkpt><trkpt lat="45.3811274" lon="11.6348273"><ele>13.0</ele><time>2026-04-18T08:28:16.823Z</time></trkpt><trkpt lat="45.3811148" lon="11.6344674"><ele>13.0</ele><time>2026-04-18T08:28:17.823Z</time></trkpt><trkpt lat="45.3811093" lon="11.6340912"><ele>13.0</ele><time>2026-04-18T08:28:18.823Z</time></trkpt><trkpt lat="45.3811028" lon="11.6337127"><ele>12.5</ele><time>2026-04-18T08:28:19.823Z</time></trkpt><trkpt lat="45.3810955" lon="11.6333308"><ele>12.0</ele><time>2026-04-18T08:28:20.823Z</time></trkpt><trkpt lat="45.3810871" lon="11.6329423"><ele>12.0</ele><time>2026-04-18T08:28:21.823Z</time></trkpt><trkpt lat="45.3810757" lon="11.6325547"><ele>12.0</ele><time>2026-04-18T08:28:22.823Z</time></trkpt><trkpt lat="45.3810637" lon="11.6321799"><ele>12.5</ele><time>2026-04-18T08:28:23.823Z</time></trkpt><trkpt lat="45.381053" lon="11.6318198"><ele>13.0</ele><time>2026-04-18T08:28:24.823Z</time></trkpt><trkpt lat="45.3810434" lon="11.6314841"><ele>13.0</ele><time>2026-04-18T08:28:25.823Z</time></trkpt><trkpt lat="45.3810365" lon="11.6311687"><ele>13.0</ele><time>2026-04-18T08:28:26.823Z</time></trkpt><trkpt lat="45.3810279" lon="11.6308749"><ele>13.0</ele><time>2026-04-18T08:28:27.823Z</time></trkpt><trkpt lat="45.3810193" lon="11.630602"><ele>13.333333333333332</ele><time>2026-04-18T08:28:28.823Z</time></trkpt><trkpt lat="45.3810111" lon="11.6303503"><ele>13.666666666666668</ele><time>2026-04-18T08:28:29.823Z</time></trkpt><trkpt lat="45.3810049" lon="11.6301147"><ele>14.0</ele><time>2026-04-18T08:28:30.824Z</time></trkpt><trkpt lat="45.3810041" lon="11.6298639"><ele>14.0</ele><time>2026-04-18T08:28:31.823Z</time></trkpt><trkpt lat="45.3810113" lon="11.6295908"><ele>14.0</ele><time>2026-04-18T08:28:32.823Z</time></trkpt><trkpt lat="45.3810361" lon="11.6293106"><ele>14.0</ele><time>2026-04-18T08:28:33.823Z</time></trkpt><trkpt lat="45.3810861" lon="11.6290367"><ele>14.0</ele><time>2026-04-18T08:28:34.823Z</time></trkpt><trkpt lat="45.3811479" lon="11.628778"><ele>14.0</ele><time>2026-04-18T08:28:35.823Z</time></trkpt><trkpt lat="45.3812112" lon="11.6285228"><ele>14.0</ele><time>2026-04-18T08:28:36.823Z</time></trkpt><trkpt lat="45.381272" lon="11.6282592"><ele>14.333333333333334</ele><time>2026-04-18T08:28:37.823Z</time></trkpt><trkpt lat="45.381321" lon="11.6279794"><ele>14.666666666666668</ele><time>2026-04-18T08:28:38.823Z</time></trkpt><trkpt lat="45.3813508" lon="11.6276832"><ele>15.0</ele><time>2026-04-18T08:28:39.823Z</time></trkpt><trkpt lat="45.3813599" lon="11.627373"><ele>14.0</ele><time>2026-04-18T08:28:40.823Z</time></trkpt><trkpt lat="45.3813399" lon="11.6270465"><ele>13.0</ele><time>2026-04-18T08:28:41.823Z</time></trkpt><trkpt lat="45.3812923" lon="11.6267104"><ele>12.5</ele><time>2026-04-18T08:28:42.823Z</time></trkpt><trkpt lat="45.3812386" lon="11.6263851"><ele>12.0</ele><time>2026-04-18T08:28:43.823Z</time></trkpt><trkpt lat="45.3811889" lon="11.626077"><ele>12.0</ele><time>2026-04-18T08:28:44.823Z</time></trkpt><trkpt lat="45.3811372" lon="11.6257906"><ele>12.0</ele><time>2026-04-18T08:28:45.823Z</time></trkpt><trkpt lat="45.3810828" lon="11.6255167"><ele>12.0</ele><time>2026-04-18T08:28:46.823Z</time></trkpt><trkpt lat="45.3810303" lon="11.6252477"><ele>12.0</ele><time>2026-04-18T08:28:47.823Z</time></trkpt><trkpt lat="45.3809759" lon="11.6249887"><ele>12.0</ele><time>2026-04-18T08:28:48.823Z</time></trkpt><trkpt lat="45.3809231" lon="11.6247294"><ele>12.0</ele><time>2026-04-18T08:28:49.823Z</time></trkpt><trkpt lat="45.3808746" lon="11.6244738"><ele>12.333333333333332</ele><time>2026-04-18T08:28:50.823Z</time></trkpt><trkpt lat="45.380823" lon="11.6242095"><ele>12.666666666666666</ele><time>2026-04-18T08:28:51.823Z</time></trkpt><trkpt lat="45.3807762" lon="11.6239416"><ele>13.0</ele><time>2026-04-18T08:28:52.823Z</time></trkpt><trkpt lat="45.3807314" lon="11.6236806"><ele>13.333333333333332</ele><time>2026-04-18T08:28:53.823Z</time></trkpt><trkpt lat="45.3806851" lon="11.6234129"><ele>13.666666666666668</ele><time>2026-04-18T08:28:54.824Z</time></trkpt><trkpt lat="45.380632" lon="11.6231382"><ele>14.0</ele><time>2026-04-18T08:28:55.823Z</time></trkpt><trkpt lat="45.3805775" lon="11.6228509"><ele>14.0</ele><time>2026-04-18T08:28:56.823Z</time></trkpt><trkpt lat="45.3805215" lon="11.6225577"><ele>14.0</ele><time>2026-04-18T08:28:57.823Z</time></trkpt><trkpt lat="45.3804669" lon="11.6222629"><ele>14.0</ele><time>2026-04-18T08:28:58.823Z</time></trkpt><trkpt lat="45.3804154" lon="11.6219677"><ele>13.666666666666668</ele><time>2026-04-18T08:28:59.823Z</time></trkpt><trkpt lat="45.3803649" lon="11.6216734"><ele>13.333333333333332</ele><time>2026-04-18T08:29:00.823Z</time></trkpt><trkpt lat="45.3803091" lon="11.6213866"><ele>13.0</ele><time>2026-04-18T08:29:01.823Z</time></trkpt><trkpt lat="45.3802517" lon="11.6211025"><ele>13.0</ele><time>2026-04-18T08:29:02.823Z</time></trkpt><trkpt lat="45.3801993" lon="11.6208307"><ele>13.0</ele><time>2026-04-18T08:29:03.823Z</time></trkpt><trkpt lat="45.3801504" lon="11.6205773"><ele>13.0</ele><time>2026-04-18T08:29:04.823Z</time></trkpt><trkpt lat="45.3801007" lon="11.6203293"><ele>13.0</ele><time>2026-04-18T08:29:05.823Z</time></trkpt><trkpt lat="45.3800566" lon="11.6200939"><ele>13.0</ele><time>2026-04-18T08:29:06.823Z</time></trkpt><trkpt lat="45.3800157" lon="11.6198682"><ele>13.0</ele><time>2026-04-18T08:29:07.823Z</time></trkpt><trkpt lat="45.3799724" lon="11.6196365"><ele>13.0</ele><time>2026-04-18T08:29:08.823Z</time></trkpt><trkpt lat="45.3799368" lon="11.6194138"><ele>13.0</ele><time>2026-04-18T08:29:09.823Z</time></trkpt><trkpt lat="45.379909" lon="11.6192314"><ele>13.0</ele><time>2026-04-18T08:29:10.823Z</time></trkpt><trkpt lat="45.3798909" lon="11.6190965"><ele>13.0</ele><time>2026-04-18T08:29:11.823Z</time></trkpt><trkpt lat="45.3798744" lon="11.6189683"><ele>13.0</ele><time>2026-04-18T08:29:12.823Z</time></trkpt><trkpt lat="45.3798496" lon="11.6188187"><ele>13.0</ele><time>2026-04-18T08:29:13.823Z</time></trkpt><trkpt lat="45.3798222" lon="11.6186475"><ele>13.0</ele><time>2026-04-18T08:29:14.823Z</time></trkpt><trkpt lat="45.3797981" lon="11.6184735"><ele>13.0</ele><time>2026-04-18T08:29:15.823Z</time></trkpt><trkpt lat="45.3797754" lon="11.6183036"><ele>13.2</ele><time>2026-04-18T08:29:16.823Z</time></trkpt><trkpt lat="45.3797568" lon="11.6181361"><ele>13.4</ele><time>2026-04-18T08:29:17.823Z</time></trkpt><trkpt lat="45.3797457" lon="11.6179964"><ele>13.599999999999998</ele><time>2026-04-18T08:29:18.823Z</time></trkpt><trkpt lat="45.3797367" lon="11.6178941"><ele>13.799999999999999</ele><time>2026-04-18T08:29:19.823Z</time></trkpt><trkpt lat="45.3797151" lon="11.6177904"><ele>14.0</ele><time>2026-04-18T08:29:21.823Z</time></trkpt><trkpt lat="45.3797004" lon="11.61791"><ele>14.2</ele><time>2026-04-18T08:29:25.823Z</time></trkpt><trkpt lat="45.3797191" lon="11.6180012"><ele>14.399999999999999</ele><time>2026-04-18T08:29:26.823Z</time></trkpt><trkpt lat="45.3797343" lon="11.6181269"><ele>14.6</ele><time>2026-04-18T08:29:27.823Z</time></trkpt><trkpt lat="45.3797485" lon="11.6182521"><ele>14.8</ele><time>2026-04-18T08:29:28.823Z</time></trkpt><trkpt lat="45.3797659" lon="11.6184009"><ele>15.0</ele><time>2026-04-18T08:29:29.823Z</time></trkpt><trkpt lat="45.3797853" lon="11.6185625"><ele>14.6</ele><time>2026-04-18T08:29:30.823Z</time></trkpt><trkpt lat="45.3798073" lon="11.6187064"><ele>14.2</ele><time>2026-04-18T08:29:31.823Z</time></trkpt><trkpt lat="45.3798288" lon="11.6188426"><ele>13.8</ele><time>2026-04-18T08:29:32.823Z</time></trkpt><trkpt lat="45.3798447" lon="11.6189586"><ele>13.4</ele><time>2026-04-18T08:29:33.823Z</time></trkpt><trkpt lat="45.3798771" lon="11.6190923"><ele>13.0</ele><time>2026-04-18T08:29:35.823Z</time></trkpt><trkpt lat="45.3799503" lon="11.6190367"><ele>12.999999999999998</ele><time>2026-04-18T08:29:38.824Z</time></trkpt><trkpt lat="45.3799691" lon="11.6188792"><ele>13.0</ele><time>2026-04-18T08:29:40.824Z</time></trkpt><trkpt lat="45.379988" lon="11.6187747"><ele>13.0</ele><time>2026-04-18T08:29:41.823Z</time></trkpt><trkpt lat="45.3800097" lon="11.6186617"><ele>13.0</ele><time>2026-04-18T08:29:42.823Z</time></trkpt><trkpt lat="45.3800272" lon="11.6185554"><ele>12.999999999999998</ele><time>2026-04-18T08:29:43.823Z</time></trkpt><trkpt lat="45.3800481" lon="11.6184513"><ele>13.0</ele><time>2026-04-18T08:29:44.823Z</time></trkpt><trkpt lat="45.380065" lon="11.6183433"><ele>13.166666666666666</ele><time>2026-04-18T08:29:45.823Z</time></trkpt><trkpt lat="45.3800795" lon="11.6182265"><ele>13.333333333333332</ele><time>2026-04-18T08:29:46.823Z</time></trkpt><trkpt lat="45.3800893" lon="11.6181053"><ele>13.5</ele><time>2026-04-18T08:29:47.823Z</time></trkpt><trkpt lat="45.3800954" lon="11.6179893"><ele>13.666666666666668</ele><time>2026-04-18T08:29:48.823Z</time></trkpt><trkpt lat="45.3801042" lon="11.6178733"><ele>13.833333333333334</ele><time>2026-04-18T08:29:49.823Z</time></trkpt><trkpt lat="45.3801115" lon="11.6177563"><ele>14.0</ele><time>2026-04-18T08:29:50.823Z</time></trkpt><trkpt lat="45.3801141" lon="11.617635"><ele>14.0</ele><time>2026-04-18T08:29:51.823Z</time></trkpt><trkpt lat="45.380113" lon="11.6175089"><ele>13.999999999999998</ele><time>2026-04-18T08:29:52.823Z</time></trkpt><trkpt lat="45.3801163" lon="11.6173796"><ele>13.999999999999998</ele><time>2026-04-18T08:29:53.823Z</time></trkpt><trkpt lat="45.3801194" lon="11.6172437"><ele>14.0</ele><time>2026-04-18T08:29:54.823Z</time></trkpt><trkpt lat="45.3801199" lon="11.6171046"><ele>14.0</ele><time>2026-04-18T08:29:55.823Z</time></trkpt><trkpt lat="45.3801175" lon="11.6169618"><ele>13.75</ele><time>2026-04-18T08:29:56.823Z</time></trkpt><trkpt lat="45.3801146" lon="11.6168022"><ele>13.5</ele><time>2026-04-18T08:29:57.823Z</time></trkpt><trkpt lat="45.3801126" lon="11.616634"><ele>13.25</ele><time>2026-04-18T08:29:58.823Z</time></trkpt><trkpt lat="45.3801118" lon="11.6164638"><ele>13.0</ele><time>2026-04-18T08:29:59.823Z</time></trkpt><trkpt lat="45.3801044" lon="11.6162808"><ele>13.0</ele><time>2026-04-18T08:30:00.823Z</time></trkpt><trkpt lat="45.3800949" lon="11.6160845"><ele>13.0</ele><time>2026-04-18T08:30:01.823Z</time></trkpt><trkpt lat="45.3800852" lon="11.6159021"><ele>13.0</ele><time>2026-04-18T08:30:02.823Z</time></trkpt><trkpt lat="45.3800765" lon="11.6157241"><ele>13.0</ele><time>2026-04-18T08:30:03.823Z</time></trkpt><trkpt lat="45.3800659" lon="11.6155558"><ele>13.0</ele><time>2026-04-18T08:30:04.823Z</time></trkpt><trkpt lat="45.3800511" lon="11.6153892"><ele>13.0</ele><time>2026-04-18T08:30:05.823Z</time></trkpt><trkpt lat="45.3800432" lon="11.6152209"><ele>13.0</ele><time>2026-04-18T08:30:06.824Z</time></trkpt><trkpt lat="45.3800385" lon="11.6150557"><ele>13.0</ele><time>2026-04-18T08:30:07.823Z</time></trkpt><trkpt lat="45.3800316" lon="11.6149029"><ele>13.0</ele><time>2026-04-18T08:30:08.823Z</time></trkpt><trkpt lat="45.3800244" lon="11.6147527"><ele>13.0</ele><time>2026-04-18T08:30:09.823Z</time></trkpt><trkpt lat="45.3800116" lon="11.6146066"><ele>13.0</ele><time>2026-04-18T08:30:10.823Z</time></trkpt><trkpt lat="45.3800012" lon="11.6144764"><ele>13.0</ele><time>2026-04-18T08:30:11.823Z</time></trkpt><trkpt lat="45.3799922" lon="11.6143387"><ele>13.0</ele><time>2026-04-18T08:30:12.823Z</time></trkpt><trkpt lat="45.3799825" lon="11.6141731"><ele>13.0</ele><time>2026-04-18T08:30:13.823Z</time></trkpt><trkpt lat="45.3799711" lon="11.6140028"><ele>13.0</ele><time>2026-04-18T08:30:14.823Z</time></trkpt><trkpt lat="45.3799633" lon="11.6138152"><ele>13.0</ele><time>2026-04-18T08:30:15.823Z</time></trkpt><trkpt lat="45.3799548" lon="11.6136384"><ele>13.0</ele><time>2026-04-18T08:30:16.823Z</time></trkpt><trkpt lat="45.3799429" lon="11.6134711"><ele>13.0</ele><time>2026-04-18T08:30:17.823Z</time></trkpt><trkpt lat="45.3799335" lon="11.6133232"><ele>13.0</ele><time>2026-04-18T08:30:18.823Z</time></trkpt><trkpt lat="45.3799251" lon="11.6131923"><ele>13.0</ele><time>2026-04-18T08:30:19.823Z</time></trkpt><trkpt lat="45.3799178" lon="11.6130829"><ele>13.0</ele><time>2026-04-18T08:30:20.823Z</time></trkpt><trkpt lat="45.3798879" lon="11.6129459"><ele>13.0</ele><time>2026-04-18T08:30:22.823Z</time></trkpt><trkpt lat="45.3797805" lon="11.6128725"><ele>13.0</ele><time>2026-04-18T08:30:24.823Z</time></trkpt><trkpt lat="45.3797104" lon="11.6128417"><ele>13.0</ele><time>2026-04-18T08:30:25.823Z</time></trkpt><trkpt lat="45.3796263" lon="11.612782"><ele>13.0</ele><time>2026-04-18T08:30:27.823Z</time></trkpt><trkpt lat="45.379577" lon="11.6126952"><ele>13.0</ele><time>2026-04-18T08:30:30.823Z</time></trkpt><trkpt lat="45.3795628" lon="11.6125157"><ele>13.0</ele><time>2026-04-18T08:30:32.823Z</time></trkpt><trkpt lat="45.3795669" lon="11.6123726"><ele>12.999999999999998</ele><time>2026-04-18T08:30:33.823Z</time></trkpt><trkpt lat="45.3795696" lon="11.6122266"><ele>13.0</ele><time>2026-04-18T08:30:34.823Z</time></trkpt><trkpt lat="45.3795696" lon="11.6120878"><ele>13.0</ele><time>2026-04-18T08:30:35.823Z</time></trkpt><trkpt lat="45.3795699" lon="11.6119754"><ele>13.0</ele><time>2026-04-18T08:30:36.823Z</time></trkpt><trkpt lat="45.3795794" lon="11.61188"><ele>12.999999999999998</ele><time>2026-04-18T08:30:37.823Z</time></trkpt><trkpt lat="45.3795938" lon="11.6117924"><ele>13.0</ele><time>2026-04-18T08:30:38.823Z</time></trkpt><trkpt lat="45.3796198" lon="11.6117077"><ele>12.999999999999998</ele><time>2026-04-18T08:30:39.823Z</time></trkpt><trkpt lat="45.3796601" lon="11.6116324"><ele>13.0</ele><time>2026-04-18T08:30:40.823Z</time></trkpt><trkpt lat="45.3797174" lon="11.6115645"><ele>13.0</ele><time>2026-04-18T08:30:41.824Z</time></trkpt><trkpt lat="45.3797866" lon="11.6114822"><ele>13.0</ele><time>2026-04-18T08:30:42.823Z</time></trkpt><trkpt lat="45.3798486" lon="11.6113478"><ele>12.999999999999998</ele><time>2026-04-18T08:30:43.823Z</time></trkpt><trkpt lat="45.3798699" lon="11.6112111"><ele>13.0</ele><time>2026-04-18T08:30:44.823Z</time></trkpt><trkpt lat="45.37986" lon="11.6110684"><ele>13.0</ele><time>2026-04-18T08:30:45.823Z</time></trkpt><trkpt lat="45.3798273" lon="11.6109416"><ele>13.0</ele><time>2026-04-18T08:30:46.823Z</time></trkpt><trkpt lat="45.3797699" lon="11.6108399"><ele>13.0</ele><time>2026-04-18T08:30:47.823Z</time></trkpt><trkpt lat="45.3796911" lon="11.6107705"><ele>13.0</ele><time>2026-04-18T08:30:48.823Z</time></trkpt><trkpt lat="45.3795928" lon="11.6107391"><ele>13.0</ele><time>2026-04-18T08:30:49.824Z</time></trkpt><trkpt lat="45.3795112" lon="11.6107278"><ele>13.499999999999998</ele><time>2026-04-18T08:30:50.823Z</time></trkpt><trkpt lat="45.3794397" lon="11.6107091"><ele>14.0</ele><time>2026-04-18T08:30:51.823Z</time></trkpt><trkpt lat="45.3793735" lon="11.6106494"><ele>14.5</ele><time>2026-04-18T08:30:52.823Z</time></trkpt><trkpt lat="45.3793172" lon="11.6105781"><ele>15.0</ele><time>2026-04-18T08:30:53.823Z</time></trkpt><trkpt lat="45.3792867" lon="11.6104428"><ele>15.499999999999998</ele><time>2026-04-18T08:30:54.823Z</time></trkpt><trkpt lat="45.3792525" lon="11.6103244"><ele>16.0</ele><time>2026-04-18T08:30:55.823Z</time></trkpt><trkpt lat="45.3792236" lon="11.6102052"><ele>16.0</ele><time>2026-04-18T08:30:56.823Z</time></trkpt><trkpt lat="45.3791959" lon="11.6100833"><ele>16.0</ele><time>2026-04-18T08:30:57.824Z</time></trkpt><trkpt lat="45.3791795" lon="11.6099569"><ele>16.0</ele><time>2026-04-18T08:30:58.823Z</time></trkpt><trkpt lat="45.379158" lon="11.60982"><ele>16.0</ele><time>2026-04-18T08:30:59.823Z</time></trkpt><trkpt lat="45.3791337" lon="11.6096978"><ele>16.0</ele><time>2026-04-18T08:31:00.823Z</time></trkpt><trkpt lat="45.3790858" lon="11.6095909"><ele>16.0</ele><time>2026-04-18T08:31:01.823Z</time></trkpt><trkpt lat="45.3790007" lon="11.6094956"><ele>16.0</ele><time>2026-04-18T08:31:02.823Z</time></trkpt><trkpt lat="45.3788677" lon="11.6093978"><ele>16.0</ele><time>2026-04-18T08:31:03.823Z</time></trkpt><trkpt lat="45.3786983" lon="11.6092875"><ele>16.0</ele><time>2026-04-18T08:31:04.823Z</time></trkpt><trkpt lat="45.3785357" lon="11.6091373"><ele>16.666666666666664</ele><time>2026-04-18T08:31:05.823Z</time></trkpt><trkpt lat="45.3783936" lon="11.608983"><ele>17.333333333333332</ele><time>2026-04-18T08:31:06.823Z</time></trkpt><trkpt lat="45.3782535" lon="11.6088561"><ele>18.0</ele><time>2026-04-18T08:31:07.823Z</time></trkpt><trkpt lat="45.3780983" lon="11.608765"><ele>17.666666666666668</ele><time>2026-04-18T08:31:08.823Z</time></trkpt><trkpt lat="45.3779153" lon="11.6087204"><ele>17.333333333333336</ele><time>2026-04-18T08:31:09.823Z</time></trkpt><trkpt lat="45.3777127" lon="11.6087103"><ele>17.0</ele><time>2026-04-18T08:31:10.823Z</time></trkpt><trkpt lat="45.3775335" lon="11.6086989"><ele>17.0</ele><time>2026-04-18T08:31:11.823Z</time></trkpt><trkpt lat="45.377361" lon="11.6086867"><ele>17.0</ele><time>2026-04-18T08:31:12.823Z</time></trkpt><trkpt lat="45.3772023" lon="11.6086796"><ele>17.0</ele><time>2026-04-18T08:31:13.823Z</time></trkpt><trkpt lat="45.3770526" lon="11.6086667"><ele>16.666666666666668</ele><time>2026-04-18T08:31:14.823Z</time></trkpt><trkpt lat="45.3768881" lon="11.6086534"><ele>16.333333333333332</ele><time>2026-04-18T08:31:15.824Z</time></trkpt><trkpt lat="45.3767194" lon="11.6086352"><ele>16.0</ele><time>2026-04-18T08:31:16.823Z</time></trkpt><trkpt lat="45.3765421" lon="11.6086093"><ele>16.0</ele><time>2026-04-18T08:31:17.824Z</time></trkpt><trkpt lat="45.3763563" lon="11.6085797"><ele>16.0</ele><time>2026-04-18T08:31:18.823Z</time></trkpt><trkpt lat="45.3761747" lon="11.6085506"><ele>16.0</ele><time>2026-04-18T08:31:19.823Z</time></trkpt><trkpt lat="45.3760062" lon="11.6085236"><ele>16.5</ele><time>2026-04-18T08:31:20.824Z</time></trkpt><trkpt lat="45.3758519" lon="11.608509"><ele>17.0</ele><time>2026-04-18T08:31:21.823Z</time></trkpt><trkpt lat="45.3757166" lon="11.608497"><ele>17.5</ele><time>2026-04-18T08:31:22.823Z</time></trkpt><trkpt lat="45.3755704" lon="11.6084933"><ele>18.0</ele><time>2026-04-18T08:31:23.823Z</time></trkpt><trkpt lat="45.3754124" lon="11.6084912"><ele>20.0</ele><time>2026-04-18T08:31:24.824Z</time></trkpt><trkpt lat="45.3752258" lon="11.6084761"><ele>22.0</ele><time>2026-04-18T08:31:25.823Z</time></trkpt><trkpt lat="45.3750615" lon="11.6084686"><ele>24.0</ele><time>2026-04-18T08:31:26.823Z</time></trkpt><trkpt lat="45.3749139" lon="11.6084589"><ele>24.0</ele><time>2026-04-18T08:31:27.823Z</time></trkpt><trkpt lat="45.3747702" lon="11.6084256"><ele>24.0</ele><time>2026-04-18T08:31:28.823Z</time></trkpt><trkpt lat="45.3746212" lon="11.6083589"><ele>24.0</ele><time>2026-04-18T08:31:29.823Z</time></trkpt><trkpt lat="45.3744708" lon="11.6082507"><ele>23.333333333333332</ele><time>2026-04-18T08:31:30.823Z</time></trkpt><trkpt lat="45.3743163" lon="11.6081064"><ele>22.666666666666664</ele><time>2026-04-18T08:31:31.824Z</time></trkpt><trkpt lat="45.374139" lon="11.6079302"><ele>22.0</ele><time>2026-04-18T08:31:32.823Z</time></trkpt><trkpt lat="45.3739665" lon="11.6077655"><ele>19.666666666666664</ele><time>2026-04-18T08:31:33.823Z</time></trkpt><trkpt lat="45.3737991" lon="11.6076155"><ele>17.333333333333332</ele><time>2026-04-18T08:31:34.824Z</time></trkpt><trkpt lat="45.373646" lon="11.6074872"><ele>15.0</ele><time>2026-04-18T08:31:35.823Z</time></trkpt><trkpt lat="45.3735189" lon="11.6073692"><ele>15.0</ele><time>2026-04-18T08:31:36.823Z</time></trkpt><trkpt lat="45.3734087" lon="11.6072654"><ele>15.0</ele><time>2026-04-18T08:31:37.823Z</time></trkpt><trkpt lat="45.3733065" lon="11.6071783"><ele>15.0</ele><time>2026-04-18T08:31:38.824Z</time></trkpt><trkpt lat="45.3732096" lon="11.6070984"><ele>15.0</ele><time>2026-04-18T08:31:39.823Z</time></trkpt><trkpt lat="45.3731118" lon="11.6070427"><ele>15.0</ele><time>2026-04-18T08:31:40.823Z</time></trkpt><trkpt lat="45.3730184" lon="11.6070074"><ele>15.0</ele><time>2026-04-18T08:31:41.823Z</time></trkpt><trkpt lat="45.3729297" lon="11.6069871"><ele>15.0</ele><time>2026-04-18T08:31:42.823Z</time></trkpt><trkpt lat="45.3728621" lon="11.6069742"><ele>15.0</ele><time>2026-04-18T08:31:43.823Z</time></trkpt><trkpt lat="45.3727595" lon="11.6069563"><ele>15.0</ele><time>2026-04-18T08:31:45.823Z</time></trkpt><trkpt lat="45.3726438" lon="11.6069286"><ele>15.142857142857142</ele><time>2026-04-18T08:31:47.823Z</time></trkpt><trkpt lat="45.3725756" lon="11.6069077"><ele>15.285714285714285</ele><time>2026-04-18T08:31:48.824Z</time></trkpt><trkpt lat="45.3725075" lon="11.6068781"><ele>15.428571428571427</ele><time>2026-04-18T08:31:49.824Z</time></trkpt><trkpt lat="45.3724437" lon="11.6068399"><ele>15.571428571428571</ele><time>2026-04-18T08:31:50.823Z</time></trkpt><trkpt lat="45.3723803" lon="11.606798"><ele>15.714285714285712</ele><time>2026-04-18T08:31:51.823Z</time></trkpt><trkpt lat="45.3723037" lon="11.6067462"><ele>15.857142857142856</ele><time>2026-04-18T08:31:52.823Z</time></trkpt><trkpt lat="45.3722386" lon="11.6067011"><ele>16.0</ele><time>2026-04-18T08:31:53.823Z</time></trkpt><trkpt lat="45.3721713" lon="11.6066887"><ele>15.999999999999998</ele><time>2026-04-18T08:31:55.823Z</time></trkpt><trkpt lat="45.3722359" lon="11.6067609"><ele>16.0</ele><time>2026-04-18T08:31:58.823Z</time></trkpt><trkpt lat="45.3723095" lon="11.6067892"><ele>16.0</ele><time>2026-04-18T08:31:59.823Z</time></trkpt><trkpt lat="45.3723678" lon="11.6068266"><ele>16.0</ele><time>2026-04-18T08:32:00.823Z</time></trkpt><trkpt lat="45.3724266" lon="11.6068625"><ele>15.999999999999998</ele><time>2026-04-18T08:32:01.824Z</time></trkpt><trkpt lat="45.3725001" lon="11.60694"><ele>16.0</ele><time>2026-04-18T08:32:03.823Z</time></trkpt><trkpt lat="45.3725137" lon="11.607047"><ele>15.833333333333332</ele><time>2026-04-18T08:32:05.823Z</time></trkpt><trkpt lat="45.3725133" lon="11.607226"><ele>15.666666666666666</ele><time>2026-04-18T08:32:07.823Z</time></trkpt><trkpt lat="45.3725138" lon="11.607328"><ele>15.5</ele><time>2026-04-18T08:32:08.823Z</time></trkpt><trkpt lat="45.372514" lon="11.6074245"><ele>15.333333333333332</ele><time>2026-04-18T08:32:09.823Z</time></trkpt><trkpt lat="45.3725195" lon="11.6075186"><ele>15.166666666666666</ele><time>2026-04-18T08:32:10.823Z</time></trkpt><trkpt lat="45.3725319" lon="11.6076115"><ele>15.0</ele><time>2026-04-18T08:32:11.823Z</time></trkpt><trkpt lat="45.3725397" lon="11.6077165"><ele>15.0</ele><time>2026-04-18T08:32:12.823Z</time></trkpt><trkpt lat="45.3725437" lon="11.6078241"><ele>15.0</ele><time>2026-04-18T08:32:13.823Z</time></trkpt><trkpt lat="45.3725449" lon="11.6079264"><ele>15.0</ele><time>2026-04-18T08:32:14.823Z</time></trkpt><trkpt lat="45.3725419" lon="11.6080454"><ele>15.0</ele><time>2026-04-18T08:32:15.823Z</time></trkpt><trkpt lat="45.3725284" lon="11.6082143"><ele>15.0</ele><time>2026-04-18T08:32:16.823Z</time></trkpt><trkpt lat="45.3725089" lon="11.6084144"><ele>15.0</ele><time>2026-04-18T08:32:17.823Z</time></trkpt><trkpt lat="45.3724944" lon="11.6086025"><ele>15.0</ele><time>2026-04-18T08:32:18.823Z</time></trkpt><trkpt lat="45.3724769" lon="11.6087697"><ele>15.0</ele><time>2026-04-18T08:32:19.824Z</time></trkpt><trkpt lat="45.372461" lon="11.6089137"><ele>15.0</ele><time>2026-04-18T08:32:20.824Z</time></trkpt><trkpt lat="45.3724471" lon="11.6090448"><ele>15.0</ele><time>2026-04-18T08:32:21.823Z</time></trkpt><trkpt lat="45.3724349" lon="11.6091604"><ele>14.714285714285715</ele><time>2026-04-18T08:32:22.823Z</time></trkpt><trkpt lat="45.3724212" lon="11.6092734"><ele>14.428571428571427</ele><time>2026-04-18T08:32:23.823Z</time></trkpt><trkpt lat="45.3724054" lon="11.6093734"><ele>14.142857142857142</ele><time>2026-04-18T08:32:24.823Z</time></trkpt><trkpt lat="45.3723811" lon="11.6094618"><ele>13.857142857142858</ele><time>2026-04-18T08:32:25.823Z</time></trkpt><trkpt lat="45.3723481" lon="11.6095393"><ele>13.571428571428573</ele><time>2026-04-18T08:32:26.823Z</time></trkpt><trkpt lat="45.3722992" lon="11.6096063"><ele>13.285714285714285</ele><time>2026-04-18T08:32:27.823Z</time></trkpt><trkpt lat="45.3722398" lon="11.6096467"><ele>13.0</ele><time>2026-04-18T08:32:28.823Z</time></trkpt><trkpt lat="45.3721766" lon="11.6096677"><ele>12.75</ele><time>2026-04-18T08:32:29.823Z</time></trkpt><trkpt lat="45.3721043" lon="11.6096629"><ele>12.5</ele><time>2026-04-18T08:32:30.823Z</time></trkpt><trkpt lat="45.3720083" lon="11.6096377"><ele>12.25</ele><time>2026-04-18T08:32:31.824Z</time></trkpt><trkpt lat="45.371867" lon="11.6096046"><ele>12.0</ele><time>2026-04-18T08:32:32.823Z</time></trkpt><trkpt lat="45.3717211" lon="11.6095789"><ele>12.0</ele><time>2026-04-18T08:32:33.823Z</time></trkpt><trkpt lat="45.371559" lon="11.6095414"><ele>12.0</ele><time>2026-04-18T08:32:34.823Z</time></trkpt><trkpt lat="45.371397" lon="11.6095028"><ele>12.0</ele><time>2026-04-18T08:32:35.823Z</time></trkpt><trkpt lat="45.3712469" lon="11.6094723"><ele>11.666666666666666</ele><time>2026-04-18T08:32:36.823Z</time></trkpt><trkpt lat="45.3710943" lon="11.6094347"><ele>11.333333333333332</ele><time>2026-04-18T08:32:37.823Z</time></trkpt><trkpt lat="45.3709216" lon="11.6094036"><ele>11.0</ele><time>2026-04-18T08:32:38.823Z</time></trkpt><trkpt lat="45.370738" lon="11.6093732"><ele>11.0</ele><time>2026-04-18T08:32:39.823Z</time></trkpt><trkpt lat="45.3705292" lon="11.6093466"><ele>11.0</ele><time>2026-04-18T08:32:40.823Z</time></trkpt><trkpt lat="45.3703206" lon="11.6093182"><ele>11.0</ele><time>2026-04-18T08:32:41.823Z</time></trkpt><trkpt lat="45.370103" lon="11.6092855"><ele>11.0</ele><time>2026-04-18T08:32:42.823Z</time></trkpt><trkpt lat="45.3699067" lon="11.609251"><ele>11.0</ele><time>2026-04-18T08:32:43.823Z</time></trkpt><trkpt lat="45.3697092" lon="11.6092168"><ele>11.0</ele><time>2026-04-18T08:32:44.823Z</time></trkpt><trkpt lat="45.3695213" lon="11.6091843"><ele>11.0</ele><time>2026-04-18T08:32:45.823Z</time></trkpt><trkpt lat="45.3693452" lon="11.609157"><ele>11.0</ele><time>2026-04-18T08:32:46.823Z</time></trkpt><trkpt lat="45.3691605" lon="11.6091269"><ele>11.0</ele><time>2026-04-18T08:32:47.823Z</time></trkpt><trkpt lat="45.3689707" lon="11.6090921"><ele>10.666666666666666</ele><time>2026-04-18T08:32:48.824Z</time></trkpt><trkpt lat="45.3688001" lon="11.609061"><ele>10.333333333333334</ele><time>2026-04-18T08:32:49.823Z</time></trkpt><trkpt lat="45.3686267" lon="11.6090245"><ele>10.0</ele><time>2026-04-18T08:32:50.823Z</time></trkpt><trkpt lat="45.3684516" lon="11.6089899"><ele>10.0</ele><time>2026-04-18T08:32:51.823Z</time></trkpt><trkpt lat="45.3682811" lon="11.608963"><ele>10.0</ele><time>2026-04-18T08:32:52.823Z</time></trkpt><trkpt lat="45.368114" lon="11.6089338"><ele>10.0</ele><time>2026-04-18T08:32:53.823Z</time></trkpt><trkpt lat="45.3679493" lon="11.6089086"><ele>11.0</ele><time>2026-04-18T08:32:54.823Z</time></trkpt><trkpt lat="45.3677867" lon="11.6088877"><ele>12.0</ele><time>2026-04-18T08:32:55.823Z</time></trkpt><trkpt lat="45.3676197" lon="11.6088633"><ele>13.0</ele><time>2026-04-18T08:32:56.823Z</time></trkpt><trkpt lat="45.367471" lon="11.6088381"><ele>13.0</ele><time>2026-04-18T08:32:57.823Z</time></trkpt><trkpt lat="45.3673324" lon="11.6088131"><ele>13.0</ele><time>2026-04-18T08:32:58.823Z</time></trkpt><trkpt lat="45.3672045" lon="11.6087903"><ele>13.0</ele><time>2026-04-18T08:32:59.823Z</time></trkpt><trkpt lat="45.3670814" lon="11.608769"><ele>13.0</ele><time>2026-04-18T08:33:00.823Z</time></trkpt><trkpt lat="45.3669607" lon="11.6087477"><ele>12.600000000000001</ele><time>2026-04-18T08:33:01.823Z</time></trkpt><trkpt lat="45.3668487" lon="11.6087267"><ele>12.200000000000001</ele><time>2026-04-18T08:33:02.823Z</time></trkpt><trkpt lat="45.3667408" lon="11.6087068"><ele>11.8</ele><time>2026-04-18T08:33:03.823Z</time></trkpt><trkpt lat="45.3666391" lon="11.6086833"><ele>11.4</ele><time>2026-04-18T08:33:04.823Z</time></trkpt><trkpt lat="45.3665502" lon="11.6086665"><ele>11.0</ele><time>2026-04-18T08:33:05.823Z</time></trkpt><trkpt lat="45.366472" lon="11.6086462"><ele>11.0</ele><time>2026-04-18T08:33:07.824Z</time></trkpt><trkpt lat="45.3663575" lon="11.6086295"><ele>11.0</ele><time>2026-04-18T08:33:45.823Z</time></trkpt><trkpt lat="45.3662803" lon="11.6086112"><ele>11.0</ele><time>2026-04-18T08:33:46.823Z</time></trkpt><trkpt lat="45.3661951" lon="11.6085921"><ele>11.0</ele><time>2026-04-18T08:33:47.823Z</time></trkpt><trkpt lat="45.3661118" lon="11.6085743"><ele>11.0</ele><time>2026-04-18T08:33:48.823Z</time></trkpt><trkpt lat="45.3660102" lon="11.6085487"><ele>11.0</ele><time>2026-04-18T08:33:49.823Z</time></trkpt><trkpt lat="45.3659054" lon="11.6085219"><ele>11.0</ele><time>2026-04-18T08:33:50.824Z</time></trkpt><trkpt lat="45.3657724" lon="11.6084899"><ele>11.0</ele><time>2026-04-18T08:33:51.823Z</time></trkpt><trkpt lat="45.3656528" lon="11.6084592"><ele>11.0</ele><time>2026-04-18T08:33:52.823Z</time></trkpt><trkpt lat="45.3655394" lon="11.6084174"><ele>11.600000000000001</ele><time>2026-04-18T08:33:53.823Z</time></trkpt><trkpt lat="45.365429" lon="11.608361"><ele>12.2</ele><time>2026-04-18T08:33:54.823Z</time></trkpt><trkpt lat="45.3653272" lon="11.6082958"><ele>12.799999999999999</ele><time>2026-04-18T08:33:55.823Z</time></trkpt><trkpt lat="45.365234" lon="11.6082234"><ele>13.399999999999999</ele><time>2026-04-18T08:33:56.823Z</time></trkpt><trkpt lat="45.3651367" lon="11.6081437"><ele>14.0</ele><time>2026-04-18T08:33:57.823Z</time></trkpt><trkpt lat="45.3650476" lon="11.6080756"><ele>14.0</ele><time>2026-04-18T08:33:58.823Z</time></trkpt><trkpt lat="45.3649713" lon="11.6080082"><ele>13.999999999999998</ele><time>2026-04-18T08:33:59.823Z</time></trkpt><trkpt lat="45.3649078" lon="11.6079512"><ele>13.999999999999998</ele><time>2026-04-18T08:34:00.823Z</time></trkpt><trkpt lat="45.3648371" lon="11.6078845"><ele>14.0</ele><time>2026-04-18T08:34:01.823Z</time></trkpt><trkpt lat="45.3647423" lon="11.6078098"><ele>14.0</ele><time>2026-04-18T08:34:02.823Z</time></trkpt><trkpt lat="45.3646279" lon="11.6077234"><ele>14.75</ele><time>2026-04-18T08:34:03.824Z</time></trkpt><trkpt lat="45.364509" lon="11.6076227"><ele>15.5</ele><time>2026-04-18T08:34:04.823Z</time></trkpt><trkpt lat="45.364399" lon="11.6075335"><ele>16.25</ele><time>2026-04-18T08:34:05.823Z</time></trkpt><trkpt lat="45.3642986" lon="11.6074444"><ele>17.0</ele><time>2026-04-18T08:34:06.823Z</time></trkpt><trkpt lat="45.3642063" lon="11.6073607"><ele>17.0</ele><time>2026-04-18T08:34:07.823Z</time></trkpt><trkpt lat="45.3641186" lon="11.607278"><ele>17.0</ele><time>2026-04-18T08:34:08.823Z</time></trkpt><trkpt lat="45.3640384" lon="11.6072053"><ele>17.0</ele><time>2026-04-18T08:34:09.823Z</time></trkpt><trkpt lat="45.3639657" lon="11.6071425"><ele>17.0</ele><time>2026-04-18T08:34:10.823Z</time></trkpt><trkpt lat="45.3639009" lon="11.6070949"><ele>17.0</ele><time>2026-04-18T08:34:11.823Z</time></trkpt><trkpt lat="45.3638385" lon="11.6070569"><ele>17.0</ele><time>2026-04-18T08:34:12.823Z</time></trkpt><trkpt lat="45.363777" lon="11.6070178"><ele>17.333333333333336</ele><time>2026-04-18T08:34:13.824Z</time></trkpt><trkpt lat="45.3637136" lon="11.6069721"><ele>17.666666666666668</ele><time>2026-04-18T08:34:14.823Z</time></trkpt><trkpt lat="45.3636186" lon="11.6068996"><ele>18.0</ele><time>2026-04-18T08:34:16.823Z</time></trkpt><trkpt lat="45.3635459" lon="11.6068326"><ele>18.333333333333332</ele><time>2026-04-18T08:34:18.823Z</time></trkpt><trkpt lat="45.3634909" lon="11.6067808"><ele>18.666666666666664</ele><time>2026-04-18T08:34:20.823Z</time></trkpt><trkpt lat="45.3634208" lon="11.6067133"><ele>19.0</ele><time>2026-04-18T08:34:22.823Z</time></trkpt><trkpt lat="45.3633603" lon="11.6065865"><ele>19.0</ele><time>2026-04-18T08:34:24.823Z</time></trkpt><trkpt lat="45.3633336" lon="11.6064809"><ele>19.0</ele><time>2026-04-18T08:34:26.823Z</time></trkpt><trkpt lat="45.3633102" lon="11.6065776"><ele>19.0</ele><time>2026-04-18T08:34:37.823Z</time></trkpt><trkpt lat="45.3633846" lon="11.6067183"><ele>19.0</ele><time>2026-04-18T08:34:39.823Z</time></trkpt><trkpt lat="45.3634304" lon="11.6067807"><ele>19.0</ele><time>2026-04-18T08:34:40.823Z</time></trkpt><trkpt lat="45.363524" lon="11.6068625"><ele>19.0</ele><time>2026-04-18T08:34:42.824Z</time></trkpt><trkpt lat="45.3636212" lon="11.6069288"><ele>18.599999999999998</ele><time>2026-04-18T08:34:44.823Z</time></trkpt><trkpt lat="45.3637307" lon="11.6070082"><ele>18.2</ele><time>2026-04-18T08:34:46.823Z</time></trkpt><trkpt lat="45.3638269" lon="11.6070735"><ele>17.799999999999997</ele><time>2026-04-18T08:34:48.823Z</time></trkpt><trkpt lat="45.3638853" lon="11.6071125"><ele>17.4</ele><time>2026-04-18T08:34:51.823Z</time></trkpt><trkpt lat="45.3639636" lon="11.60716"><ele>17.0</ele><time>2026-04-18T08:34:57.823Z</time></trkpt><trkpt lat="45.3640742" lon="11.6072697"><ele>17.0</ele><time>2026-04-18T08:34:59.823Z</time></trkpt><trkpt lat="45.3641571" lon="11.6073524"><ele>17.0</ele><time>2026-04-18T08:35:00.823Z</time></trkpt><trkpt lat="45.3642376" lon="11.6074191"><ele>17.0</ele><time>2026-04-18T08:35:01.823Z</time></trkpt><trkpt lat="45.3643255" lon="11.6074947"><ele>17.0</ele><time>2026-04-18T08:35:02.823Z</time></trkpt><trkpt lat="45.3644074" lon="11.6075707"><ele>17.0</ele><time>2026-04-18T08:35:03.823Z</time></trkpt><trkpt lat="45.3644799" lon="11.607622"><ele>17.0</ele><time>2026-04-18T08:35:04.823Z</time></trkpt><trkpt lat="45.3645439" lon="11.6076734"><ele>17.0</ele><time>2026-04-18T08:35:05.823Z</time></trkpt><trkpt lat="45.3646055" lon="11.6077262"><ele>17.0</ele><time>2026-04-18T08:35:06.823Z</time></trkpt><trkpt lat="45.3646867" lon="11.6077432"><ele>17.0</ele><time>2026-04-18T08:35:08.823Z</time></trkpt><trkpt lat="45.3647435" lon="11.6076509"><ele>17.0</ele><time>2026-04-18T08:35:10.823Z</time></trkpt><trkpt lat="45.3647574" lon="11.6075606"><ele>17.0</ele><time>2026-04-18T08:35:11.823Z</time></trkpt><trkpt lat="45.3647589" lon="11.6074467"><ele>17.0</ele><time>2026-04-18T08:35:12.823Z</time></trkpt><trkpt lat="45.3647556" lon="11.6073298"><ele>17.0</ele><time>2026-04-18T08:35:13.823Z</time></trkpt><trkpt lat="45.3647483" lon="11.6071973"><ele>17.0</ele><time>2026-04-18T08:35:14.823Z</time></trkpt><trkpt lat="45.3647442" lon="11.6070407"><ele>17.0</ele><time>2026-04-18T08:35:15.823Z</time></trkpt><trkpt lat="45.3647411" lon="11.6068816"><ele>17.0</ele><time>2026-04-18T08:35:16.823Z</time></trkpt><trkpt lat="45.3647331" lon="11.6067373"><ele>17.833333333333336</ele><time>2026-04-18T08:35:17.823Z</time></trkpt><trkpt lat="45.3647286" lon="11.6066078"><ele>18.666666666666668</ele><time>2026-04-18T08:35:18.823Z</time></trkpt><trkpt lat="45.3647243" lon="11.6064802"><ele>19.5</ele><time>2026-04-18T08:35:19.823Z</time></trkpt><trkpt lat="45.3647201" lon="11.6063595"><ele>20.333333333333332</ele><time>2026-04-18T08:35:20.823Z</time></trkpt><trkpt lat="45.3647108" lon="11.6062396"><ele>21.166666666666664</ele><time>2026-04-18T08:35:21.823Z</time></trkpt><trkpt lat="45.3646978" lon="11.606124"><ele>22.0</ele><time>2026-04-18T08:35:22.823Z</time></trkpt><trkpt lat="45.36468" lon="11.6060105"><ele>24.833333333333332</ele><time>2026-04-18T08:35:23.823Z</time></trkpt><trkpt lat="45.3646539" lon="11.605904"><ele>27.666666666666664</ele><time>2026-04-18T08:35:24.823Z</time></trkpt><trkpt lat="45.3646298" lon="11.6058002"><ele>30.5</ele><time>2026-04-18T08:35:25.824Z</time></trkpt><trkpt lat="45.3645905" lon="11.6056744"><ele>33.333333333333336</ele><time>2026-04-18T08:35:26.823Z</time></trkpt><trkpt lat="45.3645456" lon="11.605552"><ele>36.166666666666664</ele><time>2026-04-18T08:35:27.823Z</time></trkpt><trkpt lat="45.3644961" lon="11.6054327"><ele>39.0</ele><time>2026-04-18T08:35:28.823Z</time></trkpt><trkpt lat="45.3644459" lon="11.605318"><ele>39.333333333333336</ele><time>2026-04-18T08:35:29.823Z</time></trkpt><trkpt lat="45.3643965" lon="11.6052004"><ele>39.666666666666664</ele><time>2026-04-18T08:35:30.823Z</time></trkpt><trkpt lat="45.3643481" lon="11.6050894"><ele>40.0</ele><time>2026-04-18T08:35:31.823Z</time></trkpt><trkpt lat="45.3642975" lon="11.6049837"><ele>40.33333333333333</ele><time>2026-04-18T08:35:32.823Z</time></trkpt><trkpt lat="45.3642485" lon="11.6048894"><ele>40.666666666666664</ele><time>2026-04-18T08:35:33.823Z</time></trkpt><trkpt lat="45.3642041" lon="11.604822"><ele>41.0</ele><time>2026-04-18T08:35:34.823Z</time></trkpt><trkpt lat="45.3641566" lon="11.6047532"><ele>41.0</ele><time>2026-04-18T08:35:35.824Z</time></trkpt><trkpt lat="45.3640825" lon="11.6046599"><ele>41.0</ele><time>2026-04-18T08:35:37.823Z</time></trkpt><trkpt lat="45.3640003" lon="11.6046013"><ele>41.0</ele><time>2026-04-18T08:35:39.823Z</time></trkpt><trkpt lat="45.3639415" lon="11.6045489"><ele>41.0</ele><time>2026-04-18T08:35:41.823Z</time></trkpt><trkpt lat="45.3638844" lon="11.6044796"><ele>41.0</ele><time>2026-04-18T08:35:44.823Z</time></trkpt><trkpt lat="45.3638321" lon="11.6044094"><ele>41.0</ele><time>2026-04-18T08:35:47.823Z</time></trkpt><trkpt lat="45.3637818" lon="11.6044739"><ele>41.0</ele><time>2026-04-18T08:35:51.823Z</time></trkpt><trkpt lat="45.3638634" lon="11.6045387"><ele>41.0</ele><time>2026-04-18T08:35:54.823Z</time></trkpt><trkpt lat="45.3639273" lon="11.6045857"><ele>41.0</ele><time>2026-04-18T08:35:56.823Z</time></trkpt><trkpt lat="45.3639918" lon="11.6046301"><ele>41.0</ele><time>2026-04-18T08:35:58.823Z</time></trkpt><trkpt lat="45.3640703" lon="11.604695"><ele>41.0</ele><time>2026-04-18T08:36:00.823Z</time></trkpt><trkpt lat="45.3641371" lon="11.6047734"><ele>41.0</ele><time>2026-04-18T08:36:02.823Z</time></trkpt><trkpt lat="45.3642" lon="11.6048636"><ele>41.0</ele><time>2026-04-18T08:36:04.824Z</time></trkpt><trkpt lat="45.3642631" lon="11.6049729"><ele>41.0</ele><time>2026-04-18T08:36:06.823Z</time></trkpt><trkpt lat="45.3643008" lon="11.6050488"><ele>41.0</ele><time>2026-04-18T08:36:07.823Z</time></trkpt><trkpt lat="45.364339" lon="11.6051301"><ele>41.0</ele><time>2026-04-18T08:36:08.823Z</time></trkpt><trkpt lat="45.3643751" lon="11.6052124"><ele>41.0</ele><time>2026-04-18T08:36:09.823Z</time></trkpt><trkpt lat="45.3644127" lon="11.6052885"><ele>41.0</ele><time>2026-04-18T08:36:10.823Z</time></trkpt><trkpt lat="45.3644752" lon="11.6054353"><ele>40.599999999999994</ele><time>2026-04-18T08:36:12.823Z</time></trkpt><trkpt lat="45.3645365" lon="11.605582"><ele>40.199999999999996</ele><time>2026-04-18T08:36:14.823Z</time></trkpt><trkpt lat="45.3645714" lon="11.605668"><ele>39.8</ele><time>2026-04-18T08:36:15.823Z</time></trkpt><trkpt lat="45.3646314" lon="11.6058212"><ele>39.4</ele><time>2026-04-18T08:36:17.823Z</time></trkpt><trkpt lat="45.3646642" lon="11.6059011"><ele>39.0</ele><time>2026-04-18T08:36:18.823Z</time></trkpt><trkpt lat="45.3646946" lon="11.6060737"><ele>36.57142857142858</ele><time>2026-04-18T08:36:20.823Z</time></trkpt><trkpt lat="45.3647041" lon="11.6061666"><ele>34.14285714285714</ele><time>2026-04-18T08:36:21.823Z</time></trkpt><trkpt lat="45.3647148" lon="11.6062638"><ele>31.714285714285715</ele><time>2026-04-18T08:36:22.823Z</time></trkpt><trkpt lat="45.3647214" lon="11.6063591"><ele>29.285714285714285</ele><time>2026-04-18T08:36:23.823Z</time></trkpt><trkpt lat="45.3647267" lon="11.6064634"><ele>26.857142857142854</ele><time>2026-04-18T08:36:24.823Z</time></trkpt><trkpt lat="45.3647256" lon="11.6065661"><ele>24.42857142857143</ele><time>2026-04-18T08:36:25.823Z</time></trkpt><trkpt lat="45.3647296" lon="11.6066632"><ele>22.0</ele><time>2026-04-18T08:36:26.823Z</time></trkpt><trkpt lat="45.364732" lon="11.6067567"><ele>22.0</ele><time>2026-04-18T08:36:27.823Z</time></trkpt><trkpt lat="45.3647331" lon="11.6068512"><ele>22.0</ele><time>2026-04-18T08:36:28.823Z</time></trkpt><trkpt lat="45.3647329" lon="11.606948"><ele>22.0</ele><time>2026-04-18T08:36:29.824Z</time></trkpt><trkpt lat="45.3647359" lon="11.6070479"><ele>22.0</ele><time>2026-04-18T08:36:30.823Z</time></trkpt><trkpt lat="45.3647388" lon="11.6071445"><ele>22.0</ele><time>2026-04-18T08:36:31.823Z</time></trkpt><trkpt lat="45.3647425" lon="11.6072352"><ele>22.0</ele><time>2026-04-18T08:36:32.823Z</time></trkpt><trkpt lat="45.3647491" lon="11.607331"><ele>22.0</ele><time>2026-04-18T08:36:33.823Z</time></trkpt><trkpt lat="45.3647573" lon="11.6074235"><ele>21.166666666666664</ele><time>2026-04-18T08:36:34.823Z</time></trkpt><trkpt lat="45.3647664" lon="11.6075158"><ele>20.333333333333332</ele><time>2026-04-18T08:36:35.823Z</time></trkpt><trkpt lat="45.3647566" lon="11.6076566"><ele>19.5</ele><time>2026-04-18T08:36:37.823Z</time></trkpt><trkpt lat="45.3647036" lon="11.6077235"><ele>18.666666666666668</ele><time>2026-04-18T08:36:39.823Z</time></trkpt><trkpt lat="45.3646036" lon="11.6077033"><ele>17.833333333333336</ele><time>2026-04-18T08:36:41.823Z</time></trkpt><trkpt lat="45.3645148" lon="11.6076371"><ele>17.0</ele><time>2026-04-18T08:36:42.823Z</time></trkpt><trkpt lat="45.3643962" lon="11.6075368"><ele>17.0</ele><time>2026-04-18T08:36:43.823Z</time></trkpt><trkpt lat="45.3642811" lon="11.6074417"><ele>17.0</ele><time>2026-04-18T08:36:44.823Z</time></trkpt><trkpt lat="45.3641812" lon="11.6073594"><ele>17.0</ele><time>2026-04-18T08:36:45.823Z</time></trkpt><trkpt lat="45.3641032" lon="11.6072807"><ele>17.0</ele><time>2026-04-18T08:36:46.823Z</time></trkpt><trkpt lat="45.3640268" lon="11.607217"><ele>17.0</ele><time>2026-04-18T08:36:47.823Z</time></trkpt><trkpt lat="45.3639445" lon="11.6071496"><ele>16.6</ele><time>2026-04-18T08:36:48.823Z</time></trkpt><trkpt lat="45.363845" lon="11.6070813"><ele>16.2</ele><time>2026-04-18T08:36:49.823Z</time></trkpt><trkpt lat="45.3637566" lon="11.6070162"><ele>15.8</ele><time>2026-04-18T08:36:50.823Z</time></trkpt><trkpt lat="45.3636767" lon="11.6069522"><ele>15.4</ele><time>2026-04-18T08:36:51.823Z</time></trkpt><trkpt lat="45.3635977" lon="11.6068835"><ele>15.0</ele><time>2026-04-18T08:36:52.823Z</time></trkpt><trkpt lat="45.3635166" lon="11.6068045"><ele>15.8</ele><time>2026-04-18T08:36:53.823Z</time></trkpt><trkpt lat="45.3634523" lon="11.6067215"><ele>16.6</ele><time>2026-04-18T08:36:54.823Z</time></trkpt><trkpt lat="45.3633854" lon="11.6066085"><ele>17.4</ele><time>2026-04-18T08:36:55.823Z</time></trkpt><trkpt lat="45.3633259" lon="11.60647"><ele>18.2</ele><time>2026-04-18T08:36:56.823Z</time></trkpt><trkpt lat="45.363259" lon="11.6062965"><ele>19.0</ele><time>2026-04-18T08:36:57.823Z</time></trkpt><trkpt lat="45.3631973" lon="11.6061098"><ele>17.75</ele><time>2026-04-18T08:36:58.823Z</time></trkpt><trkpt lat="45.3631383" lon="11.6059218"><ele>16.5</ele><time>2026-04-18T08:36:59.823Z</time></trkpt><trkpt lat="45.3630684" lon="11.6057448"><ele>15.25</ele><time>2026-04-18T08:37:00.823Z</time></trkpt><trkpt lat="45.3629908" lon="11.6055611"><ele>14.0</ele><time>2026-04-18T08:37:01.824Z</time></trkpt><trkpt lat="45.3628965" lon="11.6053774"><ele>16.0</ele><time>2026-04-18T08:37:02.824Z</time></trkpt><trkpt lat="45.3627846" lon="11.6051937"><ele>18.0</ele><time>2026-04-18T08:37:03.823Z</time></trkpt><trkpt lat="45.3626761" lon="11.6050421"><ele>20.0</ele><time>2026-04-18T08:37:04.823Z</time></trkpt><trkpt lat="45.3625496" lon="11.604898"><ele>20.0</ele><time>2026-04-18T08:37:05.823Z</time></trkpt><trkpt lat="45.3624041" lon="11.604772"><ele>20.0</ele><time>2026-04-18T08:37:06.823Z</time></trkpt><trkpt lat="45.3622449" lon="11.6046621"><ele>20.0</ele><time>2026-04-18T08:37:07.823Z</time></trkpt><trkpt lat="45.362075" lon="11.604578"><ele>21.666666666666668</ele><time>2026-04-18T08:37:08.823Z</time></trkpt><trkpt lat="45.3618937" lon="11.6044887"><ele>23.333333333333336</ele><time>2026-04-18T08:37:09.823Z</time></trkpt><trkpt lat="45.3617269" lon="11.6044076"><ele>25.0</ele><time>2026-04-18T08:37:10.823Z</time></trkpt><trkpt lat="45.3615749" lon="11.6043388"><ele>25.0</ele><time>2026-04-18T08:37:11.823Z</time></trkpt><trkpt lat="45.3614263" lon="11.6042859"><ele>25.0</ele><time>2026-04-18T08:37:12.823Z</time></trkpt><trkpt lat="45.3612931" lon="11.6042325"><ele>25.0</ele><time>2026-04-18T08:37:13.823Z</time></trkpt><trkpt lat="45.3611676" lon="11.6041796"><ele>25.0</ele><time>2026-04-18T08:37:14.823Z</time></trkpt><trkpt lat="45.3610539" lon="11.6041282"><ele>24.2</ele><time>2026-04-18T08:37:15.823Z</time></trkpt><trkpt lat="45.3609479" lon="11.6040777"><ele>23.4</ele><time>2026-04-18T08:37:16.823Z</time></trkpt><trkpt lat="45.3608377" lon="11.6040196"><ele>22.6</ele><time>2026-04-18T08:37:17.823Z</time></trkpt><trkpt lat="45.3607434" lon="11.6039608"><ele>21.8</ele><time>2026-04-18T08:37:18.823Z</time></trkpt><trkpt lat="45.3606577" lon="11.6038977"><ele>21.0</ele><time>2026-04-18T08:37:19.823Z</time></trkpt><trkpt lat="45.3605794" lon="11.6038229"><ele>20.400000000000002</ele><time>2026-04-18T08:37:20.823Z</time></trkpt><trkpt lat="45.3604993" lon="11.6037257"><ele>19.8</ele><time>2026-04-18T08:37:21.823Z</time></trkpt><trkpt lat="45.3604307" lon="11.6036302"><ele>19.200000000000003</ele><time>2026-04-18T08:37:22.823Z</time></trkpt><trkpt lat="45.3603726" lon="11.6035335"><ele>18.6</ele><time>2026-04-18T08:37:23.823Z</time></trkpt><trkpt lat="45.3603229" lon="11.6034339"><ele>18.0</ele><time>2026-04-18T08:37:24.823Z</time></trkpt><trkpt lat="45.3602796" lon="11.6033275"><ele>18.0</ele><time>2026-04-18T08:37:25.823Z</time></trkpt><trkpt lat="45.3602471" lon="11.6032084"><ele>18.0</ele><time>2026-04-18T08:37:26.823Z</time></trkpt><trkpt lat="45.3602088" lon="11.6030447"><ele>18.0</ele><time>2026-04-18T08:37:27.823Z</time></trkpt><trkpt lat="45.3601781" lon="11.6028933"><ele>18.0</ele><time>2026-04-18T08:37:28.823Z</time></trkpt><trkpt lat="45.3601535" lon="11.6027491"><ele>18.0</ele><time>2026-04-18T08:37:29.823Z</time></trkpt><trkpt lat="45.3601302" lon="11.602612"><ele>18.0</ele><time>2026-04-18T08:37:30.823Z</time></trkpt><trkpt lat="45.3601117" lon="11.6024766"><ele>18.0</ele><time>2026-04-18T08:37:31.823Z</time></trkpt><trkpt lat="45.3600975" lon="11.6023373"><ele>18.0</ele><time>2026-04-18T08:37:32.823Z</time></trkpt><trkpt lat="45.3600735" lon="11.6021836"><ele>18.0</ele><time>2026-04-18T08:37:33.823Z</time></trkpt><trkpt lat="45.3600524" lon="11.6020198"><ele>18.0</ele><time>2026-04-18T08:37:34.823Z</time></trkpt><trkpt lat="45.3600249" lon="11.6018403"><ele>17.0</ele><time>2026-04-18T08:37:35.823Z</time></trkpt><trkpt lat="45.3599971" lon="11.6016449"><ele>16.0</ele><time>2026-04-18T08:37:36.823Z</time></trkpt><trkpt lat="45.3599782" lon="11.6014354"><ele>15.0</ele><time>2026-04-18T08:37:37.823Z</time></trkpt><trkpt lat="45.3599667" lon="11.6012256"><ele>14.0</ele><time>2026-04-18T08:37:38.823Z</time></trkpt><trkpt lat="45.3599546" lon="11.6010261"><ele>13.75</ele><time>2026-04-18T08:37:39.823Z</time></trkpt><trkpt lat="45.3599461" lon="11.6008309"><ele>13.5</ele><time>2026-04-18T08:37:40.823Z</time></trkpt><trkpt lat="45.3599277" lon="11.6006186"><ele>13.25</ele><time>2026-04-18T08:37:41.823Z</time></trkpt><trkpt lat="45.3599128" lon="11.6004158"><ele>13.0</ele><time>2026-04-18T08:37:42.823Z</time></trkpt><trkpt lat="45.3599026" lon="11.6002183"><ele>13.0</ele><time>2026-04-18T08:37:43.823Z</time></trkpt><trkpt lat="45.3598899" lon="11.6000192"><ele>13.0</ele><time>2026-04-18T08:37:44.823Z</time></trkpt><trkpt lat="45.3598741" lon="11.5998188"><ele>13.0</ele><time>2026-04-18T08:37:45.823Z</time></trkpt><trkpt lat="45.3598645" lon="11.5996151"><ele>13.0</ele><time>2026-04-18T08:37:46.823Z</time></trkpt><trkpt lat="45.3598591" lon="11.5994067"><ele>12.666666666666666</ele><time>2026-04-18T08:37:47.823Z</time></trkpt><trkpt lat="45.3598586" lon="11.5991942"><ele>12.333333333333332</ele><time>2026-04-18T08:37:48.823Z</time></trkpt><trkpt lat="45.3598662" lon="11.598981"><ele>12.0</ele><time>2026-04-18T08:37:49.823Z</time></trkpt><trkpt lat="45.3598725" lon="11.5987619"><ele>12.0</ele><time>2026-04-18T08:37:50.823Z</time></trkpt><trkpt lat="45.3598829" lon="11.5985419"><ele>12.0</ele><time>2026-04-18T08:37:51.823Z</time></trkpt><trkpt lat="45.3598938" lon="11.5983276"><ele>12.0</ele><time>2026-04-18T08:37:52.823Z</time></trkpt><trkpt lat="45.3599012" lon="11.5981187"><ele>12.0</ele><time>2026-04-18T08:37:53.823Z</time></trkpt><trkpt lat="45.3599101" lon="11.5979136"><ele>12.0</ele><time>2026-04-18T08:37:54.823Z</time></trkpt><trkpt lat="45.3599197" lon="11.5977173"><ele>12.0</ele><time>2026-04-18T08:37:55.823Z</time></trkpt><trkpt lat="45.3599325" lon="11.5975172"><ele>12.0</ele><time>2026-04-18T08:37:56.823Z</time></trkpt><trkpt lat="45.3599469" lon="11.5973211"><ele>12.25</ele><time>2026-04-18T08:37:57.823Z</time></trkpt><trkpt lat="45.3599542" lon="11.5971232"><ele>12.5</ele><time>2026-04-18T08:37:58.823Z</time></trkpt><trkpt lat="45.3599624" lon="11.5969301"><ele>12.75</ele><time>2026-04-18T08:37:59.823Z</time></trkpt><trkpt lat="45.359969" lon="11.5967522"><ele>13.0</ele><time>2026-04-18T08:38:00.824Z</time></trkpt><trkpt lat="45.3599742" lon="11.5965863"><ele>13.4</ele><time>2026-04-18T08:38:01.823Z</time></trkpt><trkpt lat="45.359982" lon="11.5964375"><ele>13.8</ele><time>2026-04-18T08:38:02.823Z</time></trkpt><trkpt lat="45.3599883" lon="11.5963123"><ele>14.2</ele><time>2026-04-18T08:38:03.823Z</time></trkpt><trkpt lat="45.3599901" lon="11.5962184"><ele>14.6</ele><time>2026-04-18T08:38:04.823Z</time></trkpt><trkpt lat="45.3600228" lon="11.5960865"><ele>15.0</ele><time>2026-04-18T08:38:06.823Z</time></trkpt><trkpt lat="45.3601205" lon="11.5959997"><ele>15.0</ele><time>2026-04-18T08:38:08.823Z</time></trkpt><trkpt lat="45.3601876" lon="11.5959865"><ele>15.0</ele><time>2026-04-18T08:38:09.823Z</time></trkpt><trkpt lat="45.3602688" lon="11.5959645"><ele>15.0</ele><time>2026-04-18T08:38:10.823Z</time></trkpt><trkpt lat="45.3603472" lon="11.5959091"><ele>15.0</ele><time>2026-04-18T08:38:11.823Z</time></trkpt><trkpt lat="45.3604003" lon="11.5958318"><ele>15.0</ele><time>2026-04-18T08:38:12.823Z</time></trkpt><trkpt lat="45.3604457" lon="11.5957436"><ele>15.0</ele><time>2026-04-18T08:38:13.823Z</time></trkpt><trkpt lat="45.3604949" lon="11.5956592"><ele>15.0</ele><time>2026-04-18T08:38:14.823Z</time></trkpt><trkpt lat="45.3605456" lon="11.5955887"><ele>15.0</ele><time>2026-04-18T08:38:15.823Z</time></trkpt><trkpt lat="45.3605919" lon="11.5955276"><ele>15.0</ele><time>2026-04-18T08:38:16.823Z</time></trkpt><trkpt lat="45.3606761" lon="11.5954129"><ele>15.0</ele><time>2026-04-18T08:38:18.823Z</time></trkpt><trkpt lat="45.3607508" lon="11.5952975"><ele>15.0</ele><time>2026-04-18T08:38:20.823Z</time></trkpt><trkpt lat="45.3608241" lon="11.5951819"><ele>15.0</ele><time>2026-04-18T08:38:22.823Z</time></trkpt><trkpt lat="45.3608937" lon="11.5950673"><ele>15.0</ele><time>2026-04-18T08:38:24.823Z</time></trkpt><trkpt lat="45.3609725" lon="11.5949501"><ele>15.0</ele><time>2026-04-18T08:38:26.823Z</time></trkpt><trkpt lat="45.3610548" lon="11.5948145"><ele>15.0</ele><time>2026-04-18T08:38:28.823Z</time></trkpt><trkpt lat="45.3611358" lon="11.594704"><ele>15.0</ele><time>2026-04-18T08:38:30.823Z</time></trkpt><trkpt lat="45.36121" lon="11.5946455"><ele>15.0</ele><time>2026-04-18T08:38:32.823Z</time></trkpt><trkpt lat="45.3613138" lon="11.5946342"><ele>15.0</ele><time>2026-04-18T08:38:34.823Z</time></trkpt><trkpt lat="45.361379" lon="11.5946301"><ele>15.0</ele><time>2026-04-18T08:38:35.823Z</time></trkpt><trkpt lat="45.3614493" lon="11.5945994"><ele>15.0</ele><time>2026-04-18T08:38:36.823Z</time></trkpt><trkpt lat="45.3615143" lon="11.5945446"><ele>15.0</ele><time>2026-04-18T08:38:37.823Z</time></trkpt><trkpt lat="45.3615875" lon="11.5944748"><ele>14.666666666666666</ele><time>2026-04-18T08:38:38.823Z</time></trkpt><trkpt lat="45.361657" lon="11.59442"><ele>14.333333333333332</ele><time>2026-04-18T08:38:39.823Z</time></trkpt><trkpt lat="45.361729" lon="11.5943657"><ele>14.0</ele><time>2026-04-18T08:38:40.823Z</time></trkpt><trkpt lat="45.3618075" lon="11.5943145"><ele>13.666666666666666</ele><time>2026-04-18T08:38:41.823Z</time></trkpt><trkpt lat="45.3618798" lon="11.5942728"><ele>13.333333333333332</ele><time>2026-04-18T08:38:42.823Z</time></trkpt><trkpt lat="45.3619524" lon="11.5942376"><ele>13.0</ele><time>2026-04-18T08:38:43.823Z</time></trkpt><trkpt lat="45.3620337" lon="11.5942085"><ele>13.0</ele><time>2026-04-18T08:38:44.823Z</time></trkpt><trkpt lat="45.3621074" lon="11.594187"><ele>13.0</ele><time>2026-04-18T08:38:45.823Z</time></trkpt><trkpt lat="45.3621818" lon="11.5941728"><ele>13.0</ele><time>2026-04-18T08:38:46.824Z</time></trkpt><trkpt lat="45.3623019" lon="11.5941551"><ele>13.0</ele><time>2026-04-18T08:38:48.823Z</time></trkpt><trkpt lat="45.3624109" lon="11.5941525"><ele>13.0</ele><time>2026-04-18T08:38:50.823Z</time></trkpt><trkpt lat="45.3625341" lon="11.5941525"><ele>13.2</ele><time>2026-04-18T08:38:52.823Z</time></trkpt><trkpt lat="45.3626508" lon="11.5941699"><ele>13.4</ele><time>2026-04-18T08:38:54.823Z</time></trkpt><trkpt lat="45.3627624" lon="11.5941495"><ele>13.599999999999998</ele><time>2026-04-18T08:38:56.823Z</time></trkpt><trkpt lat="45.3628271" lon="11.5941139"><ele>13.799999999999999</ele><time>2026-04-18T08:38:57.823Z</time></trkpt><trkpt lat="45.3628909" lon="11.5940612"><ele>14.0</ele><time>2026-04-18T08:38:58.824Z</time></trkpt><trkpt lat="45.3629589" lon="11.5939903"><ele>14.000000000000002</ele><time>2026-04-18T08:38:59.823Z</time></trkpt><trkpt lat="45.3630198" lon="11.5939326"><ele>14.0</ele><time>2026-04-18T08:39:00.823Z</time></trkpt><trkpt lat="45.3630862" lon="11.593879"><ele>14.0</ele><time>2026-04-18T08:39:01.823Z</time></trkpt><trkpt lat="45.3631529" lon="11.5938362"><ele>14.0</ele><time>2026-04-18T08:39:02.823Z</time></trkpt><trkpt lat="45.3632276" lon="11.5937972"><ele>14.000000000000002</ele><time>2026-04-18T08:39:03.823Z</time></trkpt><trkpt lat="45.363302" lon="11.5937702"><ele>14.0</ele><time>2026-04-18T08:39:04.823Z</time></trkpt><trkpt lat="45.363382" lon="11.5937465"><ele>14.166666666666668</ele><time>2026-04-18T08:39:05.823Z</time></trkpt><trkpt lat="45.3634666" lon="11.5937238"><ele>14.333333333333334</ele><time>2026-04-18T08:39:06.823Z</time></trkpt><trkpt lat="45.3635611" lon="11.5937011"><ele>14.5</ele><time>2026-04-18T08:39:07.823Z</time></trkpt><trkpt lat="45.3636468" lon="11.5936772"><ele>14.666666666666668</ele><time>2026-04-18T08:39:08.823Z</time></trkpt><trkpt lat="45.363736" lon="11.5936587"><ele>14.833333333333334</ele><time>2026-04-18T08:39:09.823Z</time></trkpt><trkpt lat="45.3638233" lon="11.5936377"><ele>15.0</ele><time>2026-04-18T08:39:10.823Z</time></trkpt><trkpt lat="45.3639014" lon="11.5936227"><ele>15.0</ele><time>2026-04-18T08:39:11.823Z</time></trkpt><trkpt lat="45.3639666" lon="11.593606"><ele>15.0</ele><time>2026-04-18T08:39:12.823Z</time></trkpt><trkpt lat="45.3640693" lon="11.5935447"><ele>15.0</ele><time>2026-04-18T08:39:14.823Z</time></trkpt><trkpt lat="45.3641199" lon="11.5934289"><ele>15.0</ele><time>2026-04-18T08:39:16.823Z</time></trkpt><trkpt lat="45.3641246" lon="11.5932298"><ele>15.0</ele><time>2026-04-18T08:39:18.824Z</time></trkpt><trkpt lat="45.3641206" lon="11.5930559"><ele>14.25</ele><time>2026-04-18T08:39:19.823Z</time></trkpt><trkpt lat="45.3641159" lon="11.5928341"><ele>13.5</ele><time>2026-04-18T08:39:20.824Z</time></trkpt><trkpt lat="45.3641111" lon="11.5926444"><ele>12.75</ele><time>2026-04-18T08:39:21.824Z</time></trkpt><trkpt lat="45.364107" lon="11.5924639"><ele>12.0</ele><time>2026-04-18T08:39:22.823Z</time></trkpt><trkpt lat="45.3641053" lon="11.5923009"><ele>12.0</ele><time>2026-04-18T08:39:23.823Z</time></trkpt><trkpt lat="45.364102" lon="11.5921565"><ele>12.0</ele><time>2026-04-18T08:39:24.823Z</time></trkpt><trkpt lat="45.3641019" lon="11.592026"><ele>12.0</ele><time>2026-04-18T08:39:25.823Z</time></trkpt><trkpt lat="45.3641009" lon="11.5918978"><ele>12.0</ele><time>2026-04-18T08:39:26.823Z</time></trkpt><trkpt lat="45.3640948" lon="11.5917673"><ele>12.0</ele><time>2026-04-18T08:39:27.823Z</time></trkpt><trkpt lat="45.3640798" lon="11.5916444"><ele>12.285714285714285</ele><time>2026-04-18T08:39:28.823Z</time></trkpt><trkpt lat="45.3640575" lon="11.5915378"><ele>12.571428571428571</ele><time>2026-04-18T08:39:29.823Z</time></trkpt><trkpt lat="45.36403" lon="11.5914354"><ele>12.857142857142858</ele><time>2026-04-18T08:39:30.823Z</time></trkpt><trkpt lat="45.3639921" lon="11.5913398"><ele>13.142857142857142</ele><time>2026-04-18T08:39:31.824Z</time></trkpt><trkpt lat="45.3639458" lon="11.5912594"><ele>13.428571428571429</ele><time>2026-04-18T08:39:32.823Z</time></trkpt><trkpt lat="45.3638939" lon="11.5911901"><ele>13.714285714285714</ele><time>2026-04-18T08:39:33.823Z</time></trkpt><trkpt lat="45.3638448" lon="11.5911219"><ele>14.0</ele><time>2026-04-18T08:39:34.823Z</time></trkpt><trkpt lat="45.3637958" lon="11.5910576"><ele>14.571428571428571</ele><time>2026-04-18T08:39:35.823Z</time></trkpt><trkpt lat="45.3637417" lon="11.5910116"><ele>15.142857142857142</ele><time>2026-04-18T08:39:36.823Z</time></trkpt><trkpt lat="45.3636815" lon="11.590956"><ele>15.714285714285715</ele><time>2026-04-18T08:39:37.823Z</time></trkpt><trkpt lat="45.3636197" lon="11.5909024"><ele>16.285714285714285</ele><time>2026-04-18T08:39:38.823Z</time></trkpt><trkpt lat="45.3635628" lon="11.5908448"><ele>16.857142857142858</ele><time>2026-04-18T08:39:39.823Z</time></trkpt><trkpt lat="45.3635059" lon="11.5907863"><ele>17.42857142857143</ele><time>2026-04-18T08:39:40.823Z</time></trkpt><trkpt lat="45.3634512" lon="11.590731"><ele>18.0</ele><time>2026-04-18T08:39:41.823Z</time></trkpt><trkpt lat="45.3633441" lon="11.5906275"><ele>18.000000000000004</ele><time>2026-04-18T08:39:43.823Z</time></trkpt><trkpt lat="45.363284" lon="11.5905735"><ele>18.0</ele><time>2026-04-18T08:39:44.823Z</time></trkpt><trkpt lat="45.3632281" lon="11.5905194"><ele>18.0</ele><time>2026-04-18T08:39:45.823Z</time></trkpt><trkpt lat="45.3631644" lon="11.5904693"><ele>18.0</ele><time>2026-04-18T08:39:46.823Z</time></trkpt><trkpt lat="45.3631049" lon="11.5904176"><ele>18.0</ele><time>2026-04-18T08:39:47.823Z</time></trkpt><trkpt lat="45.3630477" lon="11.5903638"><ele>18.000000000000004</ele><time>2026-04-18T08:39:48.823Z</time></trkpt><trkpt lat="45.3629838" lon="11.590307"><ele>18.0</ele><time>2026-04-18T08:39:49.823Z</time></trkpt><trkpt lat="45.3629112" lon="11.5902466"><ele>18.2</ele><time>2026-04-18T08:39:50.823Z</time></trkpt><trkpt lat="45.3628301" lon="11.5901862"><ele>18.4</ele><time>2026-04-18T08:39:51.823Z</time></trkpt><trkpt lat="45.3627329" lon="11.5901222"><ele>18.599999999999998</ele><time>2026-04-18T08:39:52.823Z</time></trkpt><trkpt lat="45.3626237" lon="11.5900557"><ele>18.8</ele><time>2026-04-18T08:39:53.824Z</time></trkpt><trkpt lat="45.3625066" lon="11.5899849"><ele>19.0</ele><time>2026-04-18T08:39:54.823Z</time></trkpt><trkpt lat="45.3623846" lon="11.5899252"><ele>19.0</ele><time>2026-04-18T08:39:55.823Z</time></trkpt><trkpt lat="45.3622725" lon="11.589869"><ele>19.0</ele><time>2026-04-18T08:39:56.823Z</time></trkpt><trkpt lat="45.3621608" lon="11.5898208"><ele>19.0</ele><time>2026-04-18T08:39:57.823Z</time></trkpt><trkpt lat="45.3620493" lon="11.5897836"><ele>19.0</ele><time>2026-04-18T08:39:58.824Z</time></trkpt><trkpt lat="45.3619296" lon="11.5897603"><ele>18.0</ele><time>2026-04-18T08:39:59.823Z</time></trkpt><trkpt lat="45.3617937" lon="11.5897565"><ele>17.0</ele><time>2026-04-18T08:40:00.823Z</time></trkpt><trkpt lat="45.3616595" lon="11.5897657"><ele>16.0</ele><time>2026-04-18T08:40:01.823Z</time></trkpt><trkpt lat="45.3615109" lon="11.5897938"><ele>15.0</ele><time>2026-04-18T08:40:02.823Z</time></trkpt><trkpt lat="45.3613767" lon="11.5898276"><ele>15.4</ele><time>2026-04-18T08:40:03.823Z</time></trkpt><trkpt lat="45.361253" lon="11.5898544"><ele>15.8</ele><time>2026-04-18T08:40:04.823Z</time></trkpt><trkpt lat="45.3611395" lon="11.5898818"><ele>16.2</ele><time>2026-04-18T08:40:05.823Z</time></trkpt><trkpt lat="45.3610314" lon="11.5899017"><ele>16.6</ele><time>2026-04-18T08:40:06.823Z</time></trkpt><trkpt lat="45.3609327" lon="11.5899211"><ele>17.0</ele><time>2026-04-18T08:40:07.823Z</time></trkpt><trkpt lat="45.3608446" lon="11.5899371"><ele>17.0</ele><time>2026-04-18T08:40:08.823Z</time></trkpt><trkpt lat="45.3607653" lon="11.5899494"><ele>17.0</ele><time>2026-04-18T08:40:09.824Z</time></trkpt><trkpt lat="45.3606859" lon="11.5899661"><ele>17.0</ele><time>2026-04-18T08:40:10.823Z</time></trkpt><trkpt lat="45.3606019" lon="11.5899738"><ele>17.0</ele><time>2026-04-18T08:40:11.823Z</time></trkpt><trkpt lat="45.3605017" lon="11.5899722"><ele>17.0</ele><time>2026-04-18T08:40:12.823Z</time></trkpt><trkpt lat="45.3603879" lon="11.5899812"><ele>17.166666666666668</ele><time>2026-04-18T08:40:13.823Z</time></trkpt><trkpt lat="45.360273" lon="11.5899931"><ele>17.333333333333336</ele><time>2026-04-18T08:40:14.823Z</time></trkpt><trkpt lat="45.3601668" lon="11.5900049"><ele>17.5</ele><time>2026-04-18T08:40:15.823Z</time></trkpt><trkpt lat="45.3600769" lon="11.5900158"><ele>17.666666666666668</ele><time>2026-04-18T08:40:16.823Z</time></trkpt><trkpt lat="45.3600106" lon="11.590023"><ele>17.833333333333332</ele><time>2026-04-18T08:40:17.824Z</time></trkpt><trkpt lat="45.3599416" lon="11.59003"><ele>18.0</ele><time>2026-04-18T08:40:19.823Z</time></trkpt><trkpt lat="45.3598778" lon="11.5899646"><ele>18.0</ele><time>2026-04-18T08:40:23.823Z</time></trkpt><trkpt lat="45.3598413" lon="11.5898513"><ele>18.0</ele><time>2026-04-18T08:40:25.823Z</time></trkpt><trkpt lat="45.3597884" lon="11.589759"><ele>18.0</ele><time>2026-04-18T08:40:27.823Z</time></trkpt><trkpt lat="45.359728" lon="11.5896452"><ele>18.0</ele><time>2026-04-18T08:40:29.823Z</time></trkpt><trkpt lat="45.3596636" lon="11.5895127"><ele>18.0</ele><time>2026-04-18T08:40:31.823Z</time></trkpt><trkpt lat="45.3596077" lon="11.5893726"><ele>19.2</ele><time>2026-04-18T08:40:33.823Z</time></trkpt><trkpt lat="45.3595917" lon="11.5892346"><ele>20.4</ele><time>2026-04-18T08:40:35.823Z</time></trkpt><trkpt lat="45.3595432" lon="11.5890948"><ele>21.599999999999998</ele><time>2026-04-18T08:41:12.823Z</time></trkpt><trkpt lat="45.3594702" lon="11.5890359"><ele>22.8</ele><time>2026-04-18T08:41:13.823Z</time></trkpt><trkpt lat="45.3593845" lon="11.5889701"><ele>24.0</ele><time>2026-04-18T08:41:14.823Z</time></trkpt><trkpt lat="45.3592876" lon="11.5888858"><ele>24.0</ele><time>2026-04-18T08:41:15.823Z</time></trkpt><trkpt lat="45.3591741" lon="11.5887701"><ele>24.0</ele><time>2026-04-18T08:41:16.823Z</time></trkpt><trkpt lat="45.3590686" lon="11.5886393"><ele>24.0</ele><time>2026-04-18T08:41:17.823Z</time></trkpt><trkpt lat="45.3589645" lon="11.5884814"><ele>24.0</ele><time>2026-04-18T08:41:18.823Z</time></trkpt><trkpt lat="45.3588677" lon="11.5883177"><ele>23.333333333333332</ele><time>2026-04-18T08:41:19.824Z</time></trkpt><trkpt lat="45.3587771" lon="11.5881387"><ele>22.666666666666664</ele><time>2026-04-18T08:41:20.823Z</time></trkpt><trkpt lat="45.3586882" lon="11.5879533"><ele>22.0</ele><time>2026-04-18T08:41:21.823Z</time></trkpt><trkpt lat="45.3586114" lon="11.5877655"><ele>21.75</ele><time>2026-04-18T08:41:22.823Z</time></trkpt><trkpt lat="45.3585402" lon="11.5875827"><ele>21.5</ele><time>2026-04-18T08:41:23.823Z</time></trkpt><trkpt lat="45.3584837" lon="11.5874051"><ele>21.25</ele><time>2026-04-18T08:41:24.823Z</time></trkpt><trkpt lat="45.3584398" lon="11.5872325"><ele>21.0</ele><time>2026-04-18T08:41:25.823Z</time></trkpt><trkpt lat="45.3584061" lon="11.5870658"><ele>20.75</ele><time>2026-04-18T08:41:26.823Z</time></trkpt><trkpt lat="45.3583769" lon="11.5869007"><ele>20.5</ele><time>2026-04-18T08:41:27.823Z</time></trkpt><trkpt lat="45.3583575" lon="11.5867322"><ele>20.25</ele><time>2026-04-18T08:41:28.823Z</time></trkpt><trkpt lat="45.3583529" lon="11.5865598"><ele>20.0</ele><time>2026-04-18T08:41:29.823Z</time></trkpt><trkpt lat="45.3583593" lon="11.5863823"><ele>20.0</ele><time>2026-04-18T08:41:30.823Z</time></trkpt><trkpt lat="45.3583674" lon="11.5862058"><ele>20.0</ele><time>2026-04-18T08:41:31.823Z</time></trkpt><trkpt lat="45.3583781" lon="11.5860224"><ele>20.0</ele><time>2026-04-18T08:41:32.823Z</time></trkpt><trkpt lat="45.358382" lon="11.5858376"><ele>20.0</ele><time>2026-04-18T08:41:33.822Z</time></trkpt><trkpt lat="45.3583801" lon="11.5856494"><ele>20.25</ele><time>2026-04-18T08:41:34.823Z</time></trkpt><trkpt lat="45.3583759" lon="11.5854618"><ele>20.5</ele><time>2026-04-18T08:41:35.822Z</time></trkpt><trkpt lat="45.3583604" lon="11.5852727"><ele>20.75</ele><time>2026-04-18T08:41:36.823Z</time></trkpt><trkpt lat="45.3583204" lon="11.5850867"><ele>21.0</ele><time>2026-04-18T08:41:37.823Z</time></trkpt><trkpt lat="45.3582733" lon="11.5848973"><ele>20.5</ele><time>2026-04-18T08:41:38.823Z</time></trkpt><trkpt lat="45.3582266" lon="11.5847173"><ele>20.0</ele><time>2026-04-18T08:41:39.823Z</time></trkpt><trkpt lat="45.3581759" lon="11.5845364"><ele>19.5</ele><time>2026-04-18T08:41:40.823Z</time></trkpt><trkpt lat="45.3581283" lon="11.5843569"><ele>19.0</ele><time>2026-04-18T08:41:41.823Z</time></trkpt><trkpt lat="45.3580809" lon="11.5841792"><ele>19.0</ele><time>2026-04-18T08:41:42.823Z</time></trkpt><trkpt lat="45.3580359" lon="11.5840088"><ele>19.0</ele><time>2026-04-18T08:41:43.823Z</time></trkpt><trkpt lat="45.3579912" lon="11.5838372"><ele>19.0</ele><time>2026-04-18T08:41:44.823Z</time></trkpt><trkpt lat="45.3579688" lon="11.5836642"><ele>19.0</ele><time>2026-04-18T08:41:45.823Z</time></trkpt><trkpt lat="45.3579648" lon="11.5834983"><ele>19.0</ele><time>2026-04-18T08:41:46.824Z</time></trkpt><trkpt lat="45.3579821" lon="11.58334"><ele>19.0</ele><time>2026-04-18T08:41:47.823Z</time></trkpt><trkpt lat="45.3580177" lon="11.5831719"><ele>19.0</ele><time>2026-04-18T08:41:48.823Z</time></trkpt><trkpt lat="45.358059" lon="11.5830128"><ele>19.0</ele><time>2026-04-18T08:41:49.823Z</time></trkpt><trkpt lat="45.358093" lon="11.5828644"><ele>18.75</ele><time>2026-04-18T08:41:50.823Z</time></trkpt><trkpt lat="45.3581271" lon="11.5827224"><ele>18.5</ele><time>2026-04-18T08:41:51.823Z</time></trkpt><trkpt lat="45.3581541" lon="11.5825592"><ele>18.25</ele><time>2026-04-18T08:41:52.823Z</time></trkpt><trkpt lat="45.3581605" lon="11.5823614"><ele>18.0</ele><time>2026-04-18T08:41:53.823Z</time></trkpt><trkpt lat="45.3581527" lon="11.5821458"><ele>17.5</ele><time>2026-04-18T08:41:54.823Z</time></trkpt><trkpt lat="45.3581462" lon="11.5819378"><ele>17.0</ele><time>2026-04-18T08:41:55.823Z</time></trkpt><trkpt lat="45.358145" lon="11.5817243"><ele>16.5</ele><time>2026-04-18T08:41:56.823Z</time></trkpt><trkpt lat="45.3581485" lon="11.5815149"><ele>16.0</ele><time>2026-04-18T08:41:57.823Z</time></trkpt><trkpt lat="45.3581584" lon="11.5813002"><ele>15.666666666666666</ele><time>2026-04-18T08:41:58.823Z</time></trkpt><trkpt lat="45.3581695" lon="11.5810819"><ele>15.333333333333332</ele><time>2026-04-18T08:41:59.823Z</time></trkpt><trkpt lat="45.3581828" lon="11.5808613"><ele>15.0</ele><time>2026-04-18T08:42:00.823Z</time></trkpt><trkpt lat="45.3581984" lon="11.5806388"><ele>15.0</ele><time>2026-04-18T08:42:01.823Z</time></trkpt><trkpt lat="45.3582092" lon="11.5804268"><ele>15.0</ele><time>2026-04-18T08:42:02.823Z</time></trkpt><trkpt lat="45.3582351" lon="11.5802044"><ele>15.0</ele><time>2026-04-18T08:42:03.823Z</time></trkpt><trkpt lat="45.3582562" lon="11.5799698"><ele>15.0</ele><time>2026-04-18T08:42:04.823Z</time></trkpt><trkpt lat="45.3582831" lon="11.5797333"><ele>15.0</ele><time>2026-04-18T08:42:05.823Z</time></trkpt><trkpt lat="45.3583072" lon="11.5795021"><ele>15.0</ele><time>2026-04-18T08:42:06.823Z</time></trkpt><trkpt lat="45.3583174" lon="11.579257"><ele>14.666666666666668</ele><time>2026-04-18T08:42:07.823Z</time></trkpt><trkpt lat="45.3582949" lon="11.5789985"><ele>14.333333333333334</ele><time>2026-04-18T08:42:08.823Z</time></trkpt><trkpt lat="45.3582734" lon="11.5787324"><ele>14.0</ele><time>2026-04-18T08:42:09.823Z</time></trkpt><trkpt lat="45.3582519" lon="11.5784702"><ele>13.666666666666668</ele><time>2026-04-18T08:42:10.823Z</time></trkpt><trkpt lat="45.3582184" lon="11.5781907"><ele>13.333333333333332</ele><time>2026-04-18T08:42:11.823Z</time></trkpt><trkpt lat="45.3581926" lon="11.5779123"><ele>13.0</ele><time>2026-04-18T08:42:12.824Z</time></trkpt><trkpt lat="45.358162" lon="11.5776405"><ele>13.0</ele><time>2026-04-18T08:42:13.823Z</time></trkpt><trkpt lat="45.358134" lon="11.5773695"><ele>13.0</ele><time>2026-04-18T08:42:14.824Z</time></trkpt><trkpt lat="45.3581054" lon="11.5770884"><ele>13.0</ele><time>2026-04-18T08:42:15.824Z</time></trkpt><trkpt lat="45.3580726" lon="11.5767991"><ele>13.0</ele><time>2026-04-18T08:42:16.823Z</time></trkpt><trkpt lat="45.3580451" lon="11.5764984"><ele>13.0</ele><time>2026-04-18T08:42:17.823Z</time></trkpt><trkpt lat="45.358013" lon="11.5761948"><ele>13.0</ele><time>2026-04-18T08:42:18.823Z</time></trkpt><trkpt lat="45.3579785" lon="11.5758872"><ele>13.666666666666666</ele><time>2026-04-18T08:42:19.823Z</time></trkpt><trkpt lat="45.3579399" lon="11.5755831"><ele>14.333333333333332</ele><time>2026-04-18T08:42:20.823Z</time></trkpt><trkpt lat="45.3578992" lon="11.5752898"><ele>15.0</ele><time>2026-04-18T08:42:21.823Z</time></trkpt><trkpt lat="45.357853" lon="11.5749948"><ele>15.0</ele><time>2026-04-18T08:42:22.823Z</time></trkpt><trkpt lat="45.3578034" lon="11.5746968"><ele>15.0</ele><time>2026-04-18T08:42:23.823Z</time></trkpt><trkpt lat="45.357745" lon="11.5744"><ele>15.0</ele><time>2026-04-18T08:42:24.823Z</time></trkpt><trkpt lat="45.3576838" lon="11.5741021"><ele>15.0</ele><time>2026-04-18T08:42:25.823Z</time></trkpt><trkpt lat="45.3576201" lon="11.5738056"><ele>15.0</ele><time>2026-04-18T08:42:26.823Z</time></trkpt><trkpt lat="45.3575501" lon="11.5735133"><ele>15.0</ele><time>2026-04-18T08:42:27.824Z</time></trkpt><trkpt lat="45.3574804" lon="11.5732285"><ele>14.666666666666668</ele><time>2026-04-18T08:42:28.823Z</time></trkpt><trkpt lat="45.3574138" lon="11.5729547"><ele>14.333333333333334</ele><time>2026-04-18T08:42:29.823Z</time></trkpt><trkpt lat="45.3573504" lon="11.5726952"><ele>14.0</ele><time>2026-04-18T08:42:30.823Z</time></trkpt><trkpt lat="45.3572869" lon="11.5724335"><ele>14.0</ele><time>2026-04-18T08:42:31.823Z</time></trkpt><trkpt lat="45.3572197" lon="11.5721717"><ele>14.0</ele><time>2026-04-18T08:42:32.823Z</time></trkpt><trkpt lat="45.3571486" lon="11.5719092"><ele>14.0</ele><time>2026-04-18T08:42:33.823Z</time></trkpt><trkpt lat="45.3570765" lon="11.5716423"><ele>13.666666666666668</ele><time>2026-04-18T08:42:34.823Z</time></trkpt><trkpt lat="45.3570132" lon="11.5713624"><ele>13.333333333333332</ele><time>2026-04-18T08:42:35.823Z</time></trkpt><trkpt lat="45.3569486" lon="11.5710691"><ele>13.0</ele><time>2026-04-18T08:42:36.823Z</time></trkpt><trkpt lat="45.3568892" lon="11.5707715"><ele>13.0</ele><time>2026-04-18T08:42:37.824Z</time></trkpt><trkpt lat="45.3568315" lon="11.5704618"><ele>13.0</ele><time>2026-04-18T08:42:38.823Z</time></trkpt><trkpt lat="45.3567699" lon="11.5701523"><ele>13.0</ele><time>2026-04-18T08:42:39.823Z</time></trkpt><trkpt lat="45.3567111" lon="11.5698532"><ele>13.0</ele><time>2026-04-18T08:42:40.823Z</time></trkpt><trkpt lat="45.356654" lon="11.5695674"><ele>13.0</ele><time>2026-04-18T08:42:41.823Z</time></trkpt><trkpt lat="45.3565988" lon="11.5692978"><ele>13.0</ele><time>2026-04-18T08:42:42.823Z</time></trkpt><trkpt lat="45.3565462" lon="11.5690403"><ele>13.0</ele><time>2026-04-18T08:42:43.823Z</time></trkpt><trkpt lat="45.3564962" lon="11.5687723"><ele>13.0</ele><time>2026-04-18T08:42:44.824Z</time></trkpt><trkpt lat="45.3564622" lon="11.568491"><ele>13.0</ele><time>2026-04-18T08:42:45.823Z</time></trkpt><trkpt lat="45.3564421" lon="11.568197"><ele>13.0</ele><time>2026-04-18T08:42:46.824Z</time></trkpt><trkpt lat="45.3564217" lon="11.5678976"><ele>13.0</ele><time>2026-04-18T08:42:47.823Z</time></trkpt><trkpt lat="45.3563955" lon="11.5675968"><ele>13.333333333333332</ele><time>2026-04-18T08:42:48.823Z</time></trkpt><trkpt lat="45.3563644" lon="11.5673155"><ele>13.666666666666668</ele><time>2026-04-18T08:42:49.823Z</time></trkpt><trkpt lat="45.3563315" lon="11.5670502"><ele>14.0</ele><time>2026-04-18T08:42:50.823Z</time></trkpt><trkpt lat="45.3562868" lon="11.5667839"><ele>14.0</ele><time>2026-04-18T08:42:51.823Z</time></trkpt><trkpt lat="45.3562181" lon="11.5665132"><ele>14.0</ele><time>2026-04-18T08:42:52.823Z</time></trkpt><trkpt lat="45.3561388" lon="11.5662602"><ele>14.0</ele><time>2026-04-18T08:42:53.823Z</time></trkpt><trkpt lat="45.3560509" lon="11.5660292"><ele>14.333333333333334</ele><time>2026-04-18T08:42:54.823Z</time></trkpt><trkpt lat="45.3559475" lon="11.5657929"><ele>14.666666666666668</ele><time>2026-04-18T08:42:55.822Z</time></trkpt><trkpt lat="45.3558379" lon="11.5655673"><ele>15.0</ele><time>2026-04-18T08:42:56.822Z</time></trkpt><trkpt lat="45.3557251" lon="11.5653654"><ele>14.666666666666668</ele><time>2026-04-18T08:42:57.822Z</time></trkpt><trkpt lat="45.3556162" lon="11.565184"><ele>14.333333333333334</ele><time>2026-04-18T08:42:58.823Z</time></trkpt><trkpt lat="45.3555192" lon="11.5650151"><ele>14.0</ele><time>2026-04-18T08:42:59.823Z</time></trkpt><trkpt lat="45.3554356" lon="11.564849"><ele>14.0</ele><time>2026-04-18T08:43:00.823Z</time></trkpt><trkpt lat="45.3553754" lon="11.5646806"><ele>14.0</ele><time>2026-04-18T08:43:01.823Z</time></trkpt><trkpt lat="45.3553332" lon="11.5645078"><ele>14.0</ele><time>2026-04-18T08:43:02.823Z</time></trkpt><trkpt lat="45.3553237" lon="11.5643502"><ele>14.0</ele><time>2026-04-18T08:43:03.823Z</time></trkpt><trkpt lat="45.3553336" lon="11.5642316"><ele>14.166666666666668</ele><time>2026-04-18T08:43:04.823Z</time></trkpt><trkpt lat="45.3553583" lon="11.564092"><ele>14.333333333333334</ele><time>2026-04-18T08:43:06.823Z</time></trkpt><trkpt lat="45.3553881" lon="11.5640046"><ele>14.5</ele><time>2026-04-18T08:43:07.823Z</time></trkpt><trkpt lat="45.3554031" lon="11.5639126"><ele>14.666666666666668</ele><time>2026-04-18T08:43:08.823Z</time></trkpt><trkpt lat="45.3553578" lon="11.5637635"><ele>14.833333333333334</ele><time>2026-04-18T08:43:10.823Z</time></trkpt><trkpt lat="45.3553013" lon="11.5637154"><ele>15.0</ele><time>2026-04-18T08:43:11.823Z</time></trkpt><trkpt lat="45.3552249" lon="11.5636989"><ele>15.0</ele><time>2026-04-18T08:43:12.823Z</time></trkpt><trkpt lat="45.3551268" lon="11.5637054"><ele>15.0</ele><time>2026-04-18T08:43:13.823Z</time></trkpt><trkpt lat="45.3549954" lon="11.5637044"><ele>15.0</ele><time>2026-04-18T08:43:14.823Z</time></trkpt><trkpt lat="45.3548584" lon="11.5636865"><ele>15.0</ele><time>2026-04-18T08:43:15.823Z</time></trkpt><trkpt lat="45.3547151" lon="11.5636676"><ele>15.0</ele><time>2026-04-18T08:43:16.823Z</time></trkpt><trkpt lat="45.3545537" lon="11.5636556"><ele>15.0</ele><time>2026-04-18T08:43:17.823Z</time></trkpt><trkpt lat="45.3543961" lon="11.563643"><ele>15.0</ele><time>2026-04-18T08:43:18.822Z</time></trkpt><trkpt lat="45.354225" lon="11.5636327"><ele>15.0</ele><time>2026-04-18T08:43:19.823Z</time></trkpt><trkpt lat="45.3540513" lon="11.5636248"><ele>15.0</ele><time>2026-04-18T08:43:20.823Z</time></trkpt><trkpt lat="45.3538708" lon="11.5636271"><ele>15.0</ele><time>2026-04-18T08:43:21.823Z</time></trkpt><trkpt lat="45.3536976" lon="11.5636372"><ele>14.333333333333332</ele><time>2026-04-18T08:43:22.823Z</time></trkpt><trkpt lat="45.3535353" lon="11.5636486"><ele>13.666666666666666</ele><time>2026-04-18T08:43:23.824Z</time></trkpt><trkpt lat="45.3533846" lon="11.5636651"><ele>13.0</ele><time>2026-04-18T08:43:24.821Z</time></trkpt><trkpt lat="45.3532475" lon="11.5636816"><ele>12.999999999999998</ele><time>2026-04-18T08:43:25.823Z</time></trkpt><trkpt lat="45.3531336" lon="11.5636986"><ele>13.0</ele><time>2026-04-18T08:43:26.823Z</time></trkpt><trkpt lat="45.3530421" lon="11.563714"><ele>13.0</ele><time>2026-04-18T08:43:27.823Z</time></trkpt><trkpt lat="45.3529682" lon="11.5637216"><ele>13.0</ele><time>2026-04-18T08:43:28.823Z</time></trkpt><trkpt lat="45.3528962" lon="11.563672"><ele>12.999999999999998</ele><time>2026-04-18T08:43:30.823Z</time></trkpt><trkpt lat="45.3528869" lon="11.5635604"><ele>13.0</ele><time>2026-04-18T08:43:32.823Z</time></trkpt><trkpt lat="45.3529058" lon="11.5634606"><ele>13.0</ele><time>2026-04-18T08:43:33.823Z</time></trkpt><trkpt lat="45.3529328" lon="11.5633253"><ele>13.0</ele><time>2026-04-18T08:43:34.823Z</time></trkpt><trkpt lat="45.352962" lon="11.5631666"><ele>13.0</ele><time>2026-04-18T08:43:35.823Z</time></trkpt><trkpt lat="45.3529887" lon="11.5629949"><ele>13.0</ele><time>2026-04-18T08:43:36.823Z</time></trkpt><trkpt lat="45.353014" lon="11.5628357"><ele>13.0</ele><time>2026-04-18T08:43:37.823Z</time></trkpt><trkpt lat="45.3530432" lon="11.5626721"><ele>13.0</ele><time>2026-04-18T08:43:38.823Z</time></trkpt><trkpt lat="45.3530676" lon="11.5625074"><ele>13.0</ele><time>2026-04-18T08:43:39.823Z</time></trkpt><trkpt lat="45.3530919" lon="11.562345"><ele>13.0</ele><time>2026-04-18T08:43:40.823Z</time></trkpt><trkpt lat="45.3531175" lon="11.5621828"><ele>13.0</ele><time>2026-04-18T08:43:41.823Z</time></trkpt><trkpt lat="45.353144" lon="11.5620205"><ele>13.0</ele><time>2026-04-18T08:43:42.823Z</time></trkpt><trkpt lat="45.3531751" lon="11.5618543"><ele>13.0</ele><time>2026-04-18T08:43:43.823Z</time></trkpt><trkpt lat="45.3532028" lon="11.5616823"><ele>13.0</ele><time>2026-04-18T08:43:44.822Z</time></trkpt><trkpt lat="45.3532289" lon="11.5615099"><ele>13.0</ele><time>2026-04-18T08:43:45.823Z</time></trkpt><trkpt lat="45.3532563" lon="11.561343"><ele>13.0</ele><time>2026-04-18T08:43:46.823Z</time></trkpt><trkpt lat="45.3532812" lon="11.5611672"><ele>13.0</ele><time>2026-04-18T08:43:47.824Z</time></trkpt><trkpt lat="45.3533084" lon="11.560994"><ele>13.0</ele><time>2026-04-18T08:43:48.823Z</time></trkpt><trkpt lat="45.3533416" lon="11.5608217"><ele>13.0</ele><time>2026-04-18T08:43:49.822Z</time></trkpt><trkpt lat="45.3533781" lon="11.5606485"><ele>13.0</ele><time>2026-04-18T08:43:50.823Z</time></trkpt><trkpt lat="45.3534092" lon="11.5604679"><ele>13.0</ele><time>2026-04-18T08:43:51.823Z</time></trkpt><trkpt lat="45.3534419" lon="11.5602744"><ele>13.0</ele><time>2026-04-18T08:43:52.824Z</time></trkpt><trkpt lat="45.3534751" lon="11.5600673"><ele>13.0</ele><time>2026-04-18T08:43:53.823Z</time></trkpt><trkpt lat="45.3535123" lon="11.559859"><ele>13.0</ele><time>2026-04-18T08:43:54.823Z</time></trkpt><trkpt lat="45.3535502" lon="11.5596315"><ele>13.0</ele><time>2026-04-18T08:43:55.824Z</time></trkpt><trkpt lat="45.3535908" lon="11.5593782"><ele>13.333333333333332</ele><time>2026-04-18T08:43:56.823Z</time></trkpt><trkpt lat="45.3536354" lon="11.5591131"><ele>13.666666666666668</ele><time>2026-04-18T08:43:57.824Z</time></trkpt><trkpt lat="45.3536795" lon="11.5588544"><ele>14.0</ele><time>2026-04-18T08:43:58.823Z</time></trkpt><trkpt lat="45.3537198" lon="11.5585907"><ele>14.0</ele><time>2026-04-18T08:43:59.823Z</time></trkpt><trkpt lat="45.3537618" lon="11.5583203"><ele>14.0</ele><time>2026-04-18T08:44:00.823Z</time></trkpt><trkpt lat="45.3538054" lon="11.5580493"><ele>14.0</ele><time>2026-04-18T08:44:01.823Z</time></trkpt><trkpt lat="45.3538527" lon="11.5577716"><ele>14.0</ele><time>2026-04-18T08:44:02.823Z</time></trkpt><trkpt lat="45.3538988" lon="11.5574868"><ele>14.0</ele><time>2026-04-18T08:44:03.823Z</time></trkpt><trkpt lat="45.3539436" lon="11.5572065"><ele>14.0</ele><time>2026-04-18T08:44:04.823Z</time></trkpt><trkpt lat="45.35399" lon="11.5569247"><ele>14.333333333333334</ele><time>2026-04-18T08:44:05.823Z</time></trkpt><trkpt lat="45.3540359" lon="11.5566378"><ele>14.666666666666668</ele><time>2026-04-18T08:44:06.823Z</time></trkpt><trkpt lat="45.3540838" lon="11.556352"><ele>15.0</ele><time>2026-04-18T08:44:07.823Z</time></trkpt><trkpt lat="45.3541296" lon="11.5560604"><ele>14.333333333333332</ele><time>2026-04-18T08:44:08.823Z</time></trkpt><trkpt lat="45.3541756" lon="11.5557683"><ele>13.666666666666666</ele><time>2026-04-18T08:44:09.822Z</time></trkpt><trkpt lat="45.3542261" lon="11.5554727"><ele>13.0</ele><time>2026-04-18T08:44:10.823Z</time></trkpt><trkpt lat="45.3542757" lon="11.5551727"><ele>12.666666666666666</ele><time>2026-04-18T08:44:11.823Z</time></trkpt><trkpt lat="45.3543258" lon="11.5548675"><ele>12.333333333333332</ele><time>2026-04-18T08:44:12.823Z</time></trkpt><trkpt lat="45.3543745" lon="11.5545657"><ele>12.0</ele><time>2026-04-18T08:44:13.823Z</time></trkpt><trkpt lat="45.354422" lon="11.5542646"><ele>12.0</ele><time>2026-04-18T08:44:14.823Z</time></trkpt><trkpt lat="45.3544695" lon="11.553962"><ele>12.0</ele><time>2026-04-18T08:44:15.823Z</time></trkpt><trkpt lat="45.3545177" lon="11.5536568"><ele>12.0</ele><time>2026-04-18T08:44:16.823Z</time></trkpt><trkpt lat="45.3545688" lon="11.5533492"><ele>12.0</ele><time>2026-04-18T08:44:17.823Z</time></trkpt><trkpt lat="45.3546178" lon="11.5530443"><ele>12.0</ele><time>2026-04-18T08:44:18.823Z</time></trkpt><trkpt lat="45.354666" lon="11.5527388"><ele>12.0</ele><time>2026-04-18T08:44:19.823Z</time></trkpt><trkpt lat="45.354717" lon="11.5524305"><ele>12.333333333333332</ele><time>2026-04-18T08:44:20.823Z</time></trkpt><trkpt lat="45.3547658" lon="11.5521253"><ele>12.666666666666666</ele><time>2026-04-18T08:44:21.823Z</time></trkpt><trkpt lat="45.354815" lon="11.5518195"><ele>13.0</ele><time>2026-04-18T08:44:22.823Z</time></trkpt><trkpt lat="45.354865" lon="11.5515112"><ele>12.666666666666666</ele><time>2026-04-18T08:44:23.823Z</time></trkpt><trkpt lat="45.354918" lon="11.5512047"><ele>12.333333333333332</ele><time>2026-04-18T08:44:24.823Z</time></trkpt><trkpt lat="45.3549658" lon="11.5508968"><ele>12.0</ele><time>2026-04-18T08:44:25.823Z</time></trkpt><trkpt lat="45.3550137" lon="11.5505873"><ele>11.666666666666666</ele><time>2026-04-18T08:44:26.823Z</time></trkpt><trkpt lat="45.3550621" lon="11.5502765"><ele>11.333333333333332</ele><time>2026-04-18T08:44:27.823Z</time></trkpt><trkpt lat="45.3551115" lon="11.5499641"><ele>11.0</ele><time>2026-04-18T08:44:28.823Z</time></trkpt><trkpt lat="45.3551647" lon="11.5496553"><ele>11.333333333333332</ele><time>2026-04-18T08:44:29.824Z</time></trkpt><trkpt lat="45.3552153" lon="11.5493471"><ele>11.666666666666666</ele><time>2026-04-18T08:44:30.823Z</time></trkpt><trkpt lat="45.3552649" lon="11.5490396"><ele>12.0</ele><time>2026-04-18T08:44:31.823Z</time></trkpt><trkpt lat="45.3553136" lon="11.5487324"><ele>12.666666666666668</ele><time>2026-04-18T08:44:32.823Z</time></trkpt><trkpt lat="45.3553666" lon="11.5484213"><ele>13.333333333333334</ele><time>2026-04-18T08:44:33.823Z</time></trkpt><trkpt lat="45.3554164" lon="11.5481133"><ele>14.0</ele><time>2026-04-18T08:44:34.823Z</time></trkpt><trkpt lat="45.3554678" lon="11.5478032"><ele>14.0</ele><time>2026-04-18T08:44:35.823Z</time></trkpt><trkpt lat="45.355518" lon="11.547496"><ele>14.0</ele><time>2026-04-18T08:44:36.823Z</time></trkpt><trkpt lat="45.3555692" lon="11.5471839"><ele>14.0</ele><time>2026-04-18T08:44:37.823Z</time></trkpt><trkpt lat="45.3556179" lon="11.5468746"><ele>13.666666666666668</ele><time>2026-04-18T08:44:38.824Z</time></trkpt><trkpt lat="45.3556688" lon="11.5465626"><ele>13.333333333333332</ele><time>2026-04-18T08:44:39.823Z</time></trkpt><trkpt lat="45.3557175" lon="11.5462547"><ele>13.0</ele><time>2026-04-18T08:44:40.823Z</time></trkpt><trkpt lat="45.355766" lon="11.5459426"><ele>13.0</ele><time>2026-04-18T08:44:41.823Z</time></trkpt><trkpt lat="45.3558186" lon="11.5456336"><ele>13.0</ele><time>2026-04-18T08:44:42.823Z</time></trkpt><trkpt lat="45.3558665" lon="11.5453265"><ele>13.0</ele><time>2026-04-18T08:44:43.823Z</time></trkpt><trkpt lat="45.3559155" lon="11.5450162"><ele>13.0</ele><time>2026-04-18T08:44:44.822Z</time></trkpt><trkpt lat="45.3559639" lon="11.5447128"><ele>13.0</ele><time>2026-04-18T08:44:45.823Z</time></trkpt><trkpt lat="45.3560144" lon="11.5444055"><ele>13.0</ele><time>2026-04-18T08:44:46.823Z</time></trkpt><trkpt lat="45.3560636" lon="11.5440964"><ele>13.0</ele><time>2026-04-18T08:44:47.823Z</time></trkpt><trkpt lat="45.3561102" lon="11.5437901"><ele>13.0</ele><time>2026-04-18T08:44:48.824Z</time></trkpt><trkpt lat="45.3561616" lon="11.5434811"><ele>13.0</ele><time>2026-04-18T08:44:49.823Z</time></trkpt><trkpt lat="45.3562127" lon="11.5431732"><ele>13.333333333333332</ele><time>2026-04-18T08:44:50.821Z</time></trkpt><trkpt lat="45.3562612" lon="11.5428686"><ele>13.666666666666668</ele><time>2026-04-18T08:44:51.823Z</time></trkpt><trkpt lat="45.3563116" lon="11.5425619"><ele>14.0</ele><time>2026-04-18T08:44:52.823Z</time></trkpt><trkpt lat="45.3563609" lon="11.5422581"><ele>14.0</ele><time>2026-04-18T08:44:53.823Z</time></trkpt><trkpt lat="45.356408" lon="11.5419508"><ele>14.0</ele><time>2026-04-18T08:44:54.823Z</time></trkpt><trkpt lat="45.3564559" lon="11.541646"><ele>14.0</ele><time>2026-04-18T08:44:55.823Z</time></trkpt><trkpt lat="45.3565061" lon="11.5413421"><ele>14.333333333333334</ele><time>2026-04-18T08:44:56.823Z</time></trkpt><trkpt lat="45.3565541" lon="11.5410383"><ele>14.666666666666668</ele><time>2026-04-18T08:44:57.824Z</time></trkpt><trkpt lat="45.3566023" lon="11.5407391"><ele>15.0</ele><time>2026-04-18T08:44:58.823Z</time></trkpt><trkpt lat="45.3566535" lon="11.5404372"><ele>14.666666666666668</ele><time>2026-04-18T08:44:59.823Z</time></trkpt><trkpt lat="45.3567045" lon="11.5401399"><ele>14.333333333333334</ele><time>2026-04-18T08:45:00.823Z</time></trkpt><trkpt lat="45.3567505" lon="11.5398427"><ele>14.0</ele><time>2026-04-18T08:45:01.824Z</time></trkpt><trkpt lat="45.3567952" lon="11.5395493"><ele>14.0</ele><time>2026-04-18T08:45:02.823Z</time></trkpt><trkpt lat="45.3568421" lon="11.5392576"><ele>14.0</ele><time>2026-04-18T08:45:03.823Z</time></trkpt><trkpt lat="45.3568876" lon="11.5389699"><ele>14.0</ele><time>2026-04-18T08:45:04.823Z</time></trkpt><trkpt lat="45.3569341" lon="11.5386833"><ele>13.666666666666668</ele><time>2026-04-18T08:45:05.823Z</time></trkpt><trkpt lat="45.356982" lon="11.5383977"><ele>13.333333333333332</ele><time>2026-04-18T08:45:06.823Z</time></trkpt><trkpt lat="45.3570263" lon="11.5381134"><ele>13.0</ele><time>2026-04-18T08:45:07.823Z</time></trkpt><trkpt lat="45.3570729" lon="11.5378293"><ele>12.666666666666666</ele><time>2026-04-18T08:45:08.823Z</time></trkpt><trkpt lat="45.3571177" lon="11.5375456"><ele>12.333333333333332</ele><time>2026-04-18T08:45:09.823Z</time></trkpt><trkpt lat="45.3571616" lon="11.537265"><ele>12.0</ele><time>2026-04-18T08:45:10.823Z</time></trkpt><trkpt lat="45.3572075" lon="11.5369798"><ele>13.0</ele><time>2026-04-18T08:45:11.823Z</time></trkpt><trkpt lat="45.3572517" lon="11.5367001"><ele>14.0</ele><time>2026-04-18T08:45:12.823Z</time></trkpt><trkpt lat="45.3572969" lon="11.5364156"><ele>15.0</ele><time>2026-04-18T08:45:13.824Z</time></trkpt><trkpt lat="45.3573425" lon="11.5361384"><ele>15.0</ele><time>2026-04-18T08:45:14.823Z</time></trkpt><trkpt lat="45.3573882" lon="11.5358601"><ele>15.0</ele><time>2026-04-18T08:45:15.824Z</time></trkpt><trkpt lat="45.3574332" lon="11.5355813"><ele>15.0</ele><time>2026-04-18T08:45:16.822Z</time></trkpt><trkpt lat="45.3574778" lon="11.5353042"><ele>15.0</ele><time>2026-04-18T08:45:17.824Z</time></trkpt><trkpt lat="45.3575245" lon="11.5350265"><ele>15.0</ele><time>2026-04-18T08:45:18.823Z</time></trkpt><trkpt lat="45.3575704" lon="11.5347484"><ele>15.0</ele><time>2026-04-18T08:45:19.823Z</time></trkpt><trkpt lat="45.3576161" lon="11.5344717"><ele>14.666666666666668</ele><time>2026-04-18T08:45:20.823Z</time></trkpt><trkpt lat="45.3576594" lon="11.534194"><ele>14.333333333333334</ele><time>2026-04-18T08:45:21.823Z</time></trkpt><trkpt lat="45.3577031" lon="11.5339209"><ele>14.0</ele><time>2026-04-18T08:45:22.823Z</time></trkpt><trkpt lat="45.357747" lon="11.5336493"><ele>13.666666666666668</ele><time>2026-04-18T08:45:23.823Z</time></trkpt><trkpt lat="45.3577902" lon="11.5333744"><ele>13.333333333333332</ele><time>2026-04-18T08:45:24.823Z</time></trkpt><trkpt lat="45.3578359" lon="11.5330954"><ele>13.0</ele><time>2026-04-18T08:45:25.823Z</time></trkpt><trkpt lat="45.3578827" lon="11.5328209"><ele>13.0</ele><time>2026-04-18T08:45:26.822Z</time></trkpt><trkpt lat="45.3579314" lon="11.5325473"><ele>13.0</ele><time>2026-04-18T08:45:27.823Z</time></trkpt><trkpt lat="45.3579804" lon="11.5322757"><ele>13.0</ele><time>2026-04-18T08:45:28.823Z</time></trkpt><trkpt lat="45.3580359" lon="11.532006"><ele>13.0</ele><time>2026-04-18T08:45:29.823Z</time></trkpt><trkpt lat="45.3581017" lon="11.5317325"><ele>13.0</ele><time>2026-04-18T08:45:30.822Z</time></trkpt><trkpt lat="45.3581769" lon="11.5314605"><ele>13.0</ele><time>2026-04-18T08:45:31.823Z</time></trkpt><trkpt lat="45.3582595" lon="11.5311797"><ele>14.0</ele><time>2026-04-18T08:45:32.823Z</time></trkpt><trkpt lat="45.3583489" lon="11.5308893"><ele>15.0</ele><time>2026-04-18T08:45:33.823Z</time></trkpt><trkpt lat="45.35844" lon="11.5305774"><ele>14.0</ele><time>2026-04-18T08:45:34.823Z</time></trkpt><trkpt lat="45.3585316" lon="11.530257"><ele>13.0</ele><time>2026-04-18T08:45:35.823Z</time></trkpt><trkpt lat="45.3586308" lon="11.5299235"><ele>13.0</ele><time>2026-04-18T08:45:36.823Z</time></trkpt><trkpt lat="45.3587318" lon="11.5295861"><ele>13.0</ele><time>2026-04-18T08:45:37.824Z</time></trkpt><trkpt lat="45.358836" lon="11.5292396"><ele>13.0</ele><time>2026-04-18T08:45:38.823Z</time></trkpt><trkpt lat="45.3589447" lon="11.5288922"><ele>13.0</ele><time>2026-04-18T08:45:39.823Z</time></trkpt><trkpt lat="45.3590526" lon="11.5285366"><ele>13.5</ele><time>2026-04-18T08:45:40.823Z</time></trkpt><trkpt lat="45.3591605" lon="11.5281819"><ele>14.0</ele><time>2026-04-18T08:45:41.823Z</time></trkpt><trkpt lat="45.3592661" lon="11.5278358"><ele>14.0</ele><time>2026-04-18T08:45:42.823Z</time></trkpt><trkpt lat="45.3593708" lon="11.5274954"><ele>14.0</ele><time>2026-04-18T08:45:43.822Z</time></trkpt><trkpt lat="45.3594702" lon="11.5271631"><ele>14.5</ele><time>2026-04-18T08:45:44.82Z</time></trkpt><trkpt lat="45.3595655" lon="11.5268456"><ele>15.0</ele><time>2026-04-18T08:45:45.823Z</time></trkpt><trkpt lat="45.3596648" lon="11.5265231"><ele>15.0</ele><time>2026-04-18T08:45:46.823Z</time></trkpt><trkpt lat="45.3597623" lon="11.526212"><ele>15.0</ele><time>2026-04-18T08:45:47.823Z</time></trkpt><trkpt lat="45.3598584" lon="11.5259042"><ele>15.0</ele><time>2026-04-18T08:45:48.824Z</time></trkpt><trkpt lat="45.3599506" lon="11.5256028"><ele>15.0</ele><time>2026-04-18T08:45:49.823Z</time></trkpt><trkpt lat="45.3600425" lon="11.5253035"><ele>15.0</ele><time>2026-04-18T08:45:50.823Z</time></trkpt><trkpt lat="45.3601314" lon="11.5250154"><ele>15.0</ele><time>2026-04-18T08:45:51.823Z</time></trkpt><trkpt lat="45.3602181" lon="11.5247309"><ele>15.0</ele><time>2026-04-18T08:45:52.823Z</time></trkpt><trkpt lat="45.3603036" lon="11.5244587"><ele>15.0</ele><time>2026-04-18T08:45:53.823Z</time></trkpt><trkpt lat="45.360385" lon="11.5241979"><ele>15.0</ele><time>2026-04-18T08:45:54.823Z</time></trkpt><trkpt lat="45.3604594" lon="11.5239562"><ele>15.0</ele><time>2026-04-18T08:45:55.819Z</time></trkpt><trkpt lat="45.3605274" lon="11.5237286"><ele>14.75</ele><time>2026-04-18T08:45:56.823Z</time></trkpt><trkpt lat="45.3605915" lon="11.5235266"><ele>14.5</ele><time>2026-04-18T08:45:57.823Z</time></trkpt><trkpt lat="45.3606452" lon="11.5233557"><ele>14.25</ele><time>2026-04-18T08:45:58.823Z</time></trkpt><trkpt lat="45.3606953" lon="11.5232063"><ele>14.0</ele><time>2026-04-18T08:45:59.823Z</time></trkpt><trkpt lat="45.3607365" lon="11.5230666"><ele>14.0</ele><time>2026-04-18T08:46:00.822Z</time></trkpt><trkpt lat="45.3607554" lon="11.5229292"><ele>13.999999999999998</ele><time>2026-04-18T08:46:01.823Z</time></trkpt><trkpt lat="45.3607395" lon="11.522786"><ele>13.999999999999998</ele><time>2026-04-18T08:46:02.823Z</time></trkpt><trkpt lat="45.3606894" lon="11.5226643"><ele>14.0</ele><time>2026-04-18T08:46:03.823Z</time></trkpt><trkpt lat="45.3606011" lon="11.5225705"><ele>14.0</ele><time>2026-04-18T08:46:04.823Z</time></trkpt><trkpt lat="45.3604814" lon="11.5225027"><ele>14.666666666666668</ele><time>2026-04-18T08:46:05.823Z</time></trkpt><trkpt lat="45.3603297" lon="11.5224502"><ele>15.333333333333332</ele><time>2026-04-18T08:46:06.823Z</time></trkpt><trkpt lat="45.3601497" lon="11.5224038"><ele>16.0</ele><time>2026-04-18T08:46:07.823Z</time></trkpt><trkpt lat="45.359965" lon="11.5223601"><ele>16.0</ele><time>2026-04-18T08:46:08.823Z</time></trkpt><trkpt lat="45.3597795" lon="11.5223134"><ele>16.0</ele><time>2026-04-18T08:46:09.823Z</time></trkpt><trkpt lat="45.3595897" lon="11.5222674"><ele>16.0</ele><time>2026-04-18T08:46:10.822Z</time></trkpt><trkpt lat="45.3593957" lon="11.5222197"><ele>15.666666666666666</ele><time>2026-04-18T08:46:11.823Z</time></trkpt><trkpt lat="45.3591994" lon="11.5221675"><ele>15.333333333333332</ele><time>2026-04-18T08:46:12.823Z</time></trkpt><trkpt lat="45.3590031" lon="11.5221123"><ele>15.0</ele><time>2026-04-18T08:46:13.823Z</time></trkpt><trkpt lat="45.3588025" lon="11.5220596"><ele>14.333333333333332</ele><time>2026-04-18T08:46:14.823Z</time></trkpt><trkpt lat="45.3586112" lon="11.5220122"><ele>13.666666666666666</ele><time>2026-04-18T08:46:15.823Z</time></trkpt><trkpt lat="45.3584267" lon="11.5219682"><ele>13.0</ele><time>2026-04-18T08:46:16.823Z</time></trkpt><trkpt lat="45.3582593" lon="11.5219216"><ele>13.0</ele><time>2026-04-18T08:46:17.821Z</time></trkpt><trkpt lat="45.3581026" lon="11.5218816"><ele>13.0</ele><time>2026-04-18T08:46:18.822Z</time></trkpt><trkpt lat="45.3579556" lon="11.5218474"><ele>13.0</ele><time>2026-04-18T08:46:19.823Z</time></trkpt><trkpt lat="45.3578182" lon="11.5218198"><ele>13.0</ele><time>2026-04-18T08:46:20.823Z</time></trkpt><trkpt lat="45.3576919" lon="11.5217936"><ele>13.600000000000001</ele><time>2026-04-18T08:46:21.823Z</time></trkpt><trkpt lat="45.3575788" lon="11.5217603"><ele>14.200000000000001</ele><time>2026-04-18T08:46:22.823Z</time></trkpt><trkpt lat="45.3574897" lon="11.5216938"><ele>14.8</ele><time>2026-04-18T08:46:23.823Z</time></trkpt><trkpt lat="45.3574296" lon="11.5215962"><ele>15.4</ele><time>2026-04-18T08:46:24.823Z</time></trkpt><trkpt lat="45.3574022" lon="11.5214778"><ele>16.0</ele><time>2026-04-18T08:46:25.823Z</time></trkpt><trkpt lat="45.3574108" lon="11.5213471"><ele>16.0</ele><time>2026-04-18T08:46:26.823Z</time></trkpt><trkpt lat="45.3574601" lon="11.5212078"><ele>16.0</ele><time>2026-04-18T08:46:27.823Z</time></trkpt><trkpt lat="45.3575479" lon="11.5210385"><ele>16.0</ele><time>2026-04-18T08:46:28.823Z</time></trkpt><trkpt lat="45.3576429" lon="11.5208366"><ele>16.0</ele><time>2026-04-18T08:46:29.823Z</time></trkpt><trkpt lat="45.3577468" lon="11.5206268"><ele>16.0</ele><time>2026-04-18T08:46:30.823Z</time></trkpt><trkpt lat="45.35785" lon="11.5204348"><ele>16.0</ele><time>2026-04-18T08:46:31.823Z</time></trkpt><trkpt lat="45.3579462" lon="11.520245"><ele>16.0</ele><time>2026-04-18T08:46:32.823Z</time></trkpt><trkpt lat="45.3580413" lon="11.5200564"><ele>16.333333333333332</ele><time>2026-04-18T08:46:33.823Z</time></trkpt><trkpt lat="45.3581412" lon="11.519858"><ele>16.666666666666668</ele><time>2026-04-18T08:46:34.823Z</time></trkpt><trkpt lat="45.3582346" lon="11.5196321"><ele>17.0</ele><time>2026-04-18T08:46:35.823Z</time></trkpt><trkpt lat="45.3583146" lon="11.5193865"><ele>17.0</ele><time>2026-04-18T08:46:36.823Z</time></trkpt><trkpt lat="45.3583971" lon="11.5191302"><ele>17.0</ele><time>2026-04-18T08:46:37.823Z</time></trkpt><trkpt lat="45.3584817" lon="11.5188704"><ele>17.0</ele><time>2026-04-18T08:46:38.823Z</time></trkpt><trkpt lat="45.3585656" lon="11.5186097"><ele>17.0</ele><time>2026-04-18T08:46:39.823Z</time></trkpt><trkpt lat="45.3586445" lon="11.5183549"><ele>17.0</ele><time>2026-04-18T08:46:40.823Z</time></trkpt><trkpt lat="45.3587169" lon="11.5181139"><ele>17.0</ele><time>2026-04-18T08:46:41.823Z</time></trkpt><trkpt lat="45.3587837" lon="11.5178849"><ele>17.0</ele><time>2026-04-18T08:46:42.823Z</time></trkpt><trkpt lat="45.358849" lon="11.517669"><ele>17.0</ele><time>2026-04-18T08:46:43.823Z</time></trkpt><trkpt lat="45.3589114" lon="11.5174708"><ele>17.0</ele><time>2026-04-18T08:46:44.823Z</time></trkpt><trkpt lat="45.358969" lon="11.5172867"><ele>17.0</ele><time>2026-04-18T08:46:45.823Z</time></trkpt><trkpt lat="45.3590234" lon="11.5171141"><ele>17.0</ele><time>2026-04-18T08:46:46.823Z</time></trkpt><trkpt lat="45.3590715" lon="11.5169565"><ele>17.0</ele><time>2026-04-18T08:46:47.823Z</time></trkpt><trkpt lat="45.359115" lon="11.5168115"><ele>17.0</ele><time>2026-04-18T08:46:48.823Z</time></trkpt><trkpt lat="45.3591529" lon="11.5166859"><ele>17.0</ele><time>2026-04-18T08:46:49.823Z</time></trkpt><trkpt lat="45.3591941" lon="11.516579"><ele>17.0</ele><time>2026-04-18T08:46:50.823Z</time></trkpt><trkpt lat="45.3592384" lon="11.5164885"><ele>17.0</ele><time>2026-04-18T08:46:51.823Z</time></trkpt><trkpt lat="45.3592801" lon="11.5164091"><ele>17.0</ele><time>2026-04-18T08:46:52.823Z</time></trkpt><trkpt lat="45.3593279" lon="11.5162628"><ele>17.0</ele><time>2026-04-18T08:46:54.822Z</time></trkpt><trkpt lat="45.3593372" lon="11.5161054"><ele>17.0</ele><time>2026-04-18T08:46:56.824Z</time></trkpt><trkpt lat="45.3593021" lon="11.5159904"><ele>17.0</ele><time>2026-04-18T08:46:57.823Z</time></trkpt><trkpt lat="45.3592239" lon="11.5158665"><ele>17.0</ele><time>2026-04-18T08:46:58.823Z</time></trkpt><trkpt lat="45.3591174" lon="11.515726"><ele>17.0</ele><time>2026-04-18T08:46:59.823Z</time></trkpt><trkpt lat="45.3589956" lon="11.5155715"><ele>17.0</ele><time>2026-04-18T08:47:00.823Z</time></trkpt><trkpt lat="45.3588759" lon="11.5154197"><ele>17.0</ele><time>2026-04-18T08:47:01.823Z</time></trkpt><trkpt lat="45.3587462" lon="11.5152549"><ele>17.0</ele><time>2026-04-18T08:47:02.823Z</time></trkpt><trkpt lat="45.3586101" lon="11.5150802"><ele>16.666666666666668</ele><time>2026-04-18T08:47:03.824Z</time></trkpt><trkpt lat="45.3584613" lon="11.5148994"><ele>16.333333333333332</ele><time>2026-04-18T08:47:04.821Z</time></trkpt><trkpt lat="45.3583159" lon="11.5147128"><ele>16.0</ele><time>2026-04-18T08:47:05.823Z</time></trkpt><trkpt lat="45.3581692" lon="11.5145192"><ele>16.0</ele><time>2026-04-18T08:47:06.823Z</time></trkpt><trkpt lat="45.3580236" lon="11.5143101"><ele>16.0</ele><time>2026-04-18T08:47:07.822Z</time></trkpt><trkpt lat="45.3578701" lon="11.5140932"><ele>16.0</ele><time>2026-04-18T08:47:08.823Z</time></trkpt><trkpt lat="45.3577231" lon="11.5138708"><ele>15.666666666666666</ele><time>2026-04-18T08:47:09.823Z</time></trkpt><trkpt lat="45.3575838" lon="11.5136618"><ele>15.333333333333332</ele><time>2026-04-18T08:47:10.823Z</time></trkpt><trkpt lat="45.35745" lon="11.5134618"><ele>15.0</ele><time>2026-04-18T08:47:11.823Z</time></trkpt><trkpt lat="45.3573202" lon="11.5132703"><ele>15.0</ele><time>2026-04-18T08:47:12.823Z</time></trkpt><trkpt lat="45.3571957" lon="11.5130825"><ele>15.0</ele><time>2026-04-18T08:47:13.822Z</time></trkpt><trkpt lat="45.3570728" lon="11.5128969"><ele>15.0</ele><time>2026-04-18T08:47:14.823Z</time></trkpt><trkpt lat="45.3569511" lon="11.5127119"><ele>15.333333333333332</ele><time>2026-04-18T08:47:15.823Z</time></trkpt><trkpt lat="45.3568291" lon="11.5125311"><ele>15.666666666666666</ele><time>2026-04-18T08:47:16.823Z</time></trkpt><trkpt lat="45.3567071" lon="11.5123542"><ele>16.0</ele><time>2026-04-18T08:47:17.823Z</time></trkpt><trkpt lat="45.3565932" lon="11.5121735"><ele>16.0</ele><time>2026-04-18T08:47:18.824Z</time></trkpt><trkpt lat="45.3564777" lon="11.5119942"><ele>16.0</ele><time>2026-04-18T08:47:19.823Z</time></trkpt><trkpt lat="45.3563601" lon="11.5118155"><ele>16.0</ele><time>2026-04-18T08:47:20.823Z</time></trkpt><trkpt lat="45.3562416" lon="11.5116403"><ele>16.0</ele><time>2026-04-18T08:47:21.823Z</time></trkpt><trkpt lat="45.356122" lon="11.5114629"><ele>16.0</ele><time>2026-04-18T08:47:22.823Z</time></trkpt><trkpt lat="45.3560014" lon="11.511281"><ele>16.0</ele><time>2026-04-18T08:47:23.823Z</time></trkpt><trkpt lat="45.355881" lon="11.5110915"><ele>15.666666666666666</ele><time>2026-04-18T08:47:24.823Z</time></trkpt><trkpt lat="45.3557656" lon="11.5108945"><ele>15.333333333333332</ele><time>2026-04-18T08:47:25.823Z</time></trkpt><trkpt lat="45.3556523" lon="11.5106879"><ele>15.0</ele><time>2026-04-18T08:47:26.822Z</time></trkpt><trkpt lat="45.3555376" lon="11.5104804"><ele>15.333333333333332</ele><time>2026-04-18T08:47:27.823Z</time></trkpt><trkpt lat="45.3554229" lon="11.5102699"><ele>15.666666666666666</ele><time>2026-04-18T08:47:28.823Z</time></trkpt><trkpt lat="45.3553123" lon="11.5100729"><ele>16.0</ele><time>2026-04-18T08:47:29.823Z</time></trkpt><trkpt lat="45.3552076" lon="11.5098879"><ele>16.0</ele><time>2026-04-18T08:47:30.823Z</time></trkpt><trkpt lat="45.3550984" lon="11.5096973"><ele>16.0</ele><time>2026-04-18T08:47:31.823Z</time></trkpt><trkpt lat="45.3549891" lon="11.5095022"><ele>16.0</ele><time>2026-04-18T08:47:32.823Z</time></trkpt><trkpt lat="45.3548869" lon="11.5093108"><ele>16.0</ele><time>2026-04-18T08:47:33.823Z</time></trkpt><trkpt lat="45.3547899" lon="11.5091283"><ele>16.0</ele><time>2026-04-18T08:47:34.823Z</time></trkpt><trkpt lat="45.3546978" lon="11.508951"><ele>16.0</ele><time>2026-04-18T08:47:35.823Z</time></trkpt><trkpt lat="45.3546055" lon="11.5087747"><ele>15.666666666666666</ele><time>2026-04-18T08:47:36.823Z</time></trkpt><trkpt lat="45.354515" lon="11.508576"><ele>15.333333333333332</ele><time>2026-04-18T08:47:37.823Z</time></trkpt><trkpt lat="45.3544383" lon="11.5083577"><ele>15.0</ele><time>2026-04-18T08:47:38.823Z</time></trkpt><trkpt lat="45.3543796" lon="11.5081436"><ele>15.0</ele><time>2026-04-18T08:47:39.823Z</time></trkpt><trkpt lat="45.3543275" lon="11.5079391"><ele>15.0</ele><time>2026-04-18T08:47:40.823Z</time></trkpt><trkpt lat="45.3542881" lon="11.5077429"><ele>15.0</ele><time>2026-04-18T08:47:41.823Z</time></trkpt><trkpt lat="45.3542549" lon="11.5075499"><ele>15.0</ele><time>2026-04-18T08:47:42.823Z</time></trkpt><trkpt lat="45.3542216" lon="11.5073703"><ele>15.2</ele><time>2026-04-18T08:47:43.823Z</time></trkpt><trkpt lat="45.3541867" lon="11.5072028"><ele>15.4</ele><time>2026-04-18T08:47:44.823Z</time></trkpt><trkpt lat="45.3541612" lon="11.5070568"><ele>15.600000000000001</ele><time>2026-04-18T08:47:45.823Z</time></trkpt><trkpt lat="45.3541413" lon="11.5069442"><ele>15.8</ele><time>2026-04-18T08:47:46.823Z</time></trkpt><trkpt lat="45.3541203" lon="11.5068083"><ele>16.0</ele><time>2026-04-18T08:47:48.823Z</time></trkpt><trkpt lat="45.3541004" lon="11.5066836"><ele>16.0</ele><time>2026-04-18T08:47:51.823Z</time></trkpt><trkpt lat="45.3540667" lon="11.5065345"><ele>16.0</ele><time>2026-04-18T08:48:11.823Z</time></trkpt><trkpt lat="45.3540471" lon="11.5064426"><ele>16.0</ele><time>2026-04-18T08:48:12.823Z</time></trkpt><trkpt lat="45.3540184" lon="11.506333"><ele>16.0</ele><time>2026-04-18T08:48:13.823Z</time></trkpt><trkpt lat="45.3539878" lon="11.5062109"><ele>16.0</ele><time>2026-04-18T08:48:14.823Z</time></trkpt><trkpt lat="45.3539529" lon="11.5060714"><ele>16.0</ele><time>2026-04-18T08:48:15.823Z</time></trkpt><trkpt lat="45.3539184" lon="11.5059264"><ele>16.0</ele><time>2026-04-18T08:48:16.823Z</time></trkpt><trkpt lat="45.3538895" lon="11.5057857"><ele>16.0</ele><time>2026-04-18T08:48:17.823Z</time></trkpt><trkpt lat="45.3538558" lon="11.5056341"><ele>16.0</ele><time>2026-04-18T08:48:18.823Z</time></trkpt><trkpt lat="45.3538167" lon="11.5054739"><ele>16.0</ele><time>2026-04-18T08:48:19.823Z</time></trkpt><trkpt lat="45.3537764" lon="11.5053081"><ele>16.0</ele><time>2026-04-18T08:48:20.823Z</time></trkpt><trkpt lat="45.3537331" lon="11.5051242"><ele>16.0</ele><time>2026-04-18T08:48:21.823Z</time></trkpt><trkpt lat="45.3536926" lon="11.5049388"><ele>16.0</ele><time>2026-04-18T08:48:22.823Z</time></trkpt><trkpt lat="45.3536536" lon="11.5047587"><ele>16.0</ele><time>2026-04-18T08:48:23.823Z</time></trkpt><trkpt lat="45.3536136" lon="11.5045763"><ele>16.0</ele><time>2026-04-18T08:48:24.822Z</time></trkpt><trkpt lat="45.3535728" lon="11.5043956"><ele>16.0</ele><time>2026-04-18T08:48:25.822Z</time></trkpt><trkpt lat="45.3535315" lon="11.5042128"><ele>16.0</ele><time>2026-04-18T08:48:26.823Z</time></trkpt><trkpt lat="45.3534881" lon="11.5040217"><ele>16.0</ele><time>2026-04-18T08:48:27.823Z</time></trkpt><trkpt lat="45.3534451" lon="11.5038313"><ele>15.75</ele><time>2026-04-18T08:48:28.823Z</time></trkpt><trkpt lat="45.353403" lon="11.5036406"><ele>15.5</ele><time>2026-04-18T08:48:29.823Z</time></trkpt><trkpt lat="45.3533636" lon="11.5034539"><ele>15.25</ele><time>2026-04-18T08:48:30.823Z</time></trkpt><trkpt lat="45.3533238" lon="11.5032618"><ele>15.0</ele><time>2026-04-18T08:48:31.823Z</time></trkpt><trkpt lat="45.3532837" lon="11.5030653"><ele>15.333333333333332</ele><time>2026-04-18T08:48:32.823Z</time></trkpt><trkpt lat="45.3532405" lon="11.5028583"><ele>15.666666666666666</ele><time>2026-04-18T08:48:33.823Z</time></trkpt><trkpt lat="45.3531961" lon="11.5026399"><ele>16.0</ele><time>2026-04-18T08:48:34.823Z</time></trkpt><trkpt lat="45.3531507" lon="11.5024147"><ele>16.0</ele><time>2026-04-18T08:48:35.823Z</time></trkpt><trkpt lat="45.3531054" lon="11.5021809"><ele>16.0</ele><time>2026-04-18T08:48:36.823Z</time></trkpt><trkpt lat="45.3530656" lon="11.5019548"><ele>16.0</ele><time>2026-04-18T08:48:37.823Z</time></trkpt><trkpt lat="45.3530298" lon="11.5017054"><ele>16.333333333333332</ele><time>2026-04-18T08:48:38.823Z</time></trkpt><trkpt lat="45.3530071" lon="11.5014336"><ele>16.666666666666668</ele><time>2026-04-18T08:48:39.823Z</time></trkpt><trkpt lat="45.3529967" lon="11.5011627"><ele>17.0</ele><time>2026-04-18T08:48:40.823Z</time></trkpt><trkpt lat="45.3529879" lon="11.500889"><ele>17.0</ele><time>2026-04-18T08:48:41.823Z</time></trkpt><trkpt lat="45.3529801" lon="11.5006237"><ele>17.0</ele><time>2026-04-18T08:48:42.823Z</time></trkpt><trkpt lat="45.3529737" lon="11.5003555"><ele>17.0</ele><time>2026-04-18T08:48:43.823Z</time></trkpt><trkpt lat="45.3529688" lon="11.5000846"><ele>17.333333333333336</ele><time>2026-04-18T08:48:44.823Z</time></trkpt><trkpt lat="45.3529641" lon="11.4998257"><ele>17.666666666666668</ele><time>2026-04-18T08:48:45.824Z</time></trkpt><trkpt lat="45.3529595" lon="11.499567"><ele>18.0</ele><time>2026-04-18T08:48:46.823Z</time></trkpt><trkpt lat="45.352954" lon="11.4993111"><ele>18.0</ele><time>2026-04-18T08:48:47.821Z</time></trkpt><trkpt lat="45.3529454" lon="11.4990488"><ele>18.0</ele><time>2026-04-18T08:48:48.823Z</time></trkpt><trkpt lat="45.3529286" lon="11.4987985"><ele>18.0</ele><time>2026-04-18T08:48:49.823Z</time></trkpt><trkpt lat="45.3529009" lon="11.4985568"><ele>17.666666666666668</ele><time>2026-04-18T08:48:50.823Z</time></trkpt><trkpt lat="45.3528646" lon="11.4983241"><ele>17.333333333333336</ele><time>2026-04-18T08:48:51.823Z</time></trkpt><trkpt lat="45.3528203" lon="11.4981061"><ele>17.0</ele><time>2026-04-18T08:48:52.823Z</time></trkpt><trkpt lat="45.3527705" lon="11.4978972"><ele>16.75</ele><time>2026-04-18T08:48:53.823Z</time></trkpt><trkpt lat="45.3527171" lon="11.4977043"><ele>16.5</ele><time>2026-04-18T08:48:54.823Z</time></trkpt><trkpt lat="45.3526593" lon="11.4975203"><ele>16.25</ele><time>2026-04-18T08:48:55.823Z</time></trkpt><trkpt lat="45.3526" lon="11.4973404"><ele>16.0</ele><time>2026-04-18T08:48:56.823Z</time></trkpt><trkpt lat="45.3525383" lon="11.4971562"><ele>16.0</ele><time>2026-04-18T08:48:57.822Z</time></trkpt><trkpt lat="45.352481" lon="11.4969907"><ele>16.0</ele><time>2026-04-18T08:48:58.821Z</time></trkpt><trkpt lat="45.3524249" lon="11.4968172"><ele>16.0</ele><time>2026-04-18T08:48:59.822Z</time></trkpt><trkpt lat="45.3523665" lon="11.4966404"><ele>16.0</ele><time>2026-04-18T08:49:00.822Z</time></trkpt><trkpt lat="45.3523043" lon="11.496466"><ele>16.0</ele><time>2026-04-18T08:49:01.823Z</time></trkpt><trkpt lat="45.3522365" lon="11.4962847"><ele>16.0</ele><time>2026-04-18T08:49:02.821Z</time></trkpt><trkpt lat="45.3521725" lon="11.4961187"><ele>16.0</ele><time>2026-04-18T08:49:03.823Z</time></trkpt><trkpt lat="45.3521021" lon="11.4959461"><ele>16.0</ele><time>2026-04-18T08:49:04.819Z</time></trkpt><trkpt lat="45.3520275" lon="11.4957704"><ele>16.25</ele><time>2026-04-18T08:49:05.823Z</time></trkpt><trkpt lat="45.3519527" lon="11.4955976"><ele>16.5</ele><time>2026-04-18T08:49:06.823Z</time></trkpt><trkpt lat="45.351876" lon="11.4954265"><ele>16.75</ele><time>2026-04-18T08:49:07.823Z</time></trkpt><trkpt lat="45.351798" lon="11.4952569"><ele>17.0</ele><time>2026-04-18T08:49:08.823Z</time></trkpt><trkpt lat="45.3517187" lon="11.4950868"><ele>17.0</ele><time>2026-04-18T08:49:09.823Z</time></trkpt><trkpt lat="45.3516359" lon="11.4949118"><ele>17.0</ele><time>2026-04-18T08:49:10.823Z</time></trkpt><trkpt lat="45.351553" lon="11.4947373"><ele>17.0</ele><time>2026-04-18T08:49:11.823Z</time></trkpt><trkpt lat="45.3514705" lon="11.4945631"><ele>17.0</ele><time>2026-04-18T08:49:12.823Z</time></trkpt><trkpt lat="45.3513869" lon="11.4943861"><ele>16.666666666666668</ele><time>2026-04-18T08:49:13.823Z</time></trkpt><trkpt lat="45.3513046" lon="11.4942112"><ele>16.333333333333332</ele><time>2026-04-18T08:49:14.823Z</time></trkpt><trkpt lat="45.3512192" lon="11.4940301"><ele>16.0</ele><time>2026-04-18T08:49:15.823Z</time></trkpt><trkpt lat="45.3511358" lon="11.4938524"><ele>15.666666666666666</ele><time>2026-04-18T08:49:16.823Z</time></trkpt><trkpt lat="45.3510505" lon="11.4936673"><ele>15.333333333333332</ele><time>2026-04-18T08:49:17.823Z</time></trkpt><trkpt lat="45.3509672" lon="11.4934856"><ele>15.0</ele><time>2026-04-18T08:49:18.823Z</time></trkpt><trkpt lat="45.3508841" lon="11.4933014"><ele>15.0</ele><time>2026-04-18T08:49:19.823Z</time></trkpt><trkpt lat="45.3507973" lon="11.4931144"><ele>15.0</ele><time>2026-04-18T08:49:20.823Z</time></trkpt><trkpt lat="45.3507153" lon="11.4929395"><ele>15.0</ele><time>2026-04-18T08:49:21.82Z</time></trkpt><trkpt lat="45.350623" lon="11.4927397"><ele>15.333333333333332</ele><time>2026-04-18T08:49:22.82Z</time></trkpt><trkpt lat="45.3505336" lon="11.4925472"><ele>15.666666666666666</ele><time>2026-04-18T08:49:23.822Z</time></trkpt><trkpt lat="45.3504435" lon="11.4923537"><ele>16.0</ele><time>2026-04-18T08:49:24.821Z</time></trkpt><trkpt lat="45.3503451" lon="11.4921436"><ele>16.0</ele><time>2026-04-18T08:49:25.823Z</time></trkpt><trkpt lat="45.3502403" lon="11.4919214"><ele>16.0</ele><time>2026-04-18T08:49:26.822Z</time></trkpt><trkpt lat="45.3501251" lon="11.4916802"><ele>16.0</ele><time>2026-04-18T08:49:27.823Z</time></trkpt><trkpt lat="45.3500077" lon="11.4914334"><ele>16.0</ele><time>2026-04-18T08:49:28.822Z</time></trkpt><trkpt lat="45.3498872" lon="11.4911721"><ele>16.0</ele><time>2026-04-18T08:49:29.823Z</time></trkpt><trkpt lat="45.3497788" lon="11.4909376"><ele>16.0</ele><time>2026-04-18T08:49:30.822Z</time></trkpt><trkpt lat="45.3496665" lon="11.4906975"><ele>16.333333333333332</ele><time>2026-04-18T08:49:31.82Z</time></trkpt><trkpt lat="45.3495655" lon="11.4904654"><ele>16.666666666666668</ele><time>2026-04-18T08:49:32.823Z</time></trkpt><trkpt lat="45.3494814" lon="11.4902309"><ele>17.0</ele><time>2026-04-18T08:49:33.823Z</time></trkpt><trkpt lat="45.349411" lon="11.4899809"><ele>16.333333333333336</ele><time>2026-04-18T08:49:34.822Z</time></trkpt><trkpt lat="45.3493514" lon="11.4897083"><ele>15.666666666666668</ele><time>2026-04-18T08:49:35.823Z</time></trkpt><trkpt lat="45.3493008" lon="11.4894364"><ele>15.0</ele><time>2026-04-18T08:49:36.823Z</time></trkpt><trkpt lat="45.3492473" lon="11.4891614"><ele>15.0</ele><time>2026-04-18T08:49:37.823Z</time></trkpt><trkpt lat="45.349195" lon="11.4888817"><ele>15.0</ele><time>2026-04-18T08:49:38.823Z</time></trkpt><trkpt lat="45.349144" lon="11.488595"><ele>15.0</ele><time>2026-04-18T08:49:39.823Z</time></trkpt><trkpt lat="45.3491013" lon="11.4883209"><ele>15.0</ele><time>2026-04-18T08:49:40.823Z</time></trkpt><trkpt lat="45.3490688" lon="11.4880526"><ele>15.0</ele><time>2026-04-18T08:49:41.823Z</time></trkpt><trkpt lat="45.349053" lon="11.4877905"><ele>15.0</ele><time>2026-04-18T08:49:42.819Z</time></trkpt><trkpt lat="45.3490555" lon="11.4875172"><ele>15.0</ele><time>2026-04-18T08:49:43.823Z</time></trkpt><trkpt lat="45.3490809" lon="11.4872451"><ele>15.0</ele><time>2026-04-18T08:49:44.823Z</time></trkpt><trkpt lat="45.3491227" lon="11.4869691"><ele>15.0</ele><time>2026-04-18T08:49:45.823Z</time></trkpt><trkpt lat="45.3491625" lon="11.4867199"><ele>15.0</ele><time>2026-04-18T08:49:46.823Z</time></trkpt><trkpt lat="45.3492094" lon="11.4864604"><ele>15.0</ele><time>2026-04-18T08:49:47.823Z</time></trkpt><trkpt lat="45.3492534" lon="11.486185"><ele>15.0</ele><time>2026-04-18T08:49:48.823Z</time></trkpt><trkpt lat="45.3492999" lon="11.4859209"><ele>15.0</ele><time>2026-04-18T08:49:49.823Z</time></trkpt><trkpt lat="45.3493473" lon="11.4856417"><ele>15.0</ele><time>2026-04-18T08:49:50.82Z</time></trkpt><trkpt lat="45.3493953" lon="11.4853746"><ele>15.0</ele><time>2026-04-18T08:49:51.823Z</time></trkpt><trkpt lat="45.349443" lon="11.4850993"><ele>14.666666666666668</ele><time>2026-04-18T08:49:52.823Z</time></trkpt><trkpt lat="45.3494908" lon="11.4848261"><ele>14.333333333333334</ele><time>2026-04-18T08:49:53.823Z</time></trkpt><trkpt lat="45.3495344" lon="11.4845703"><ele>14.0</ele><time>2026-04-18T08:49:54.823Z</time></trkpt><trkpt lat="45.3495773" lon="11.4843318"><ele>14.0</ele><time>2026-04-18T08:49:55.821Z</time></trkpt><trkpt lat="45.3496165" lon="11.4841028"><ele>14.0</ele><time>2026-04-18T08:49:56.823Z</time></trkpt><trkpt lat="45.3496577" lon="11.4838654"><ele>14.0</ele><time>2026-04-18T08:49:57.823Z</time></trkpt><trkpt lat="45.3496991" lon="11.4836173"><ele>14.333333333333334</ele><time>2026-04-18T08:49:58.823Z</time></trkpt><trkpt lat="45.3497409" lon="11.4833675"><ele>14.666666666666668</ele><time>2026-04-18T08:49:59.819Z</time></trkpt><trkpt lat="45.3497779" lon="11.4831299"><ele>15.0</ele><time>2026-04-18T08:50:00.823Z</time></trkpt><trkpt lat="45.34982" lon="11.4829071"><ele>15.333333333333332</ele><time>2026-04-18T08:50:01.823Z</time></trkpt><trkpt lat="45.349856" lon="11.4826972"><ele>15.666666666666666</ele><time>2026-04-18T08:50:02.823Z</time></trkpt><trkpt lat="45.3498936" lon="11.4824895"><ele>16.0</ele><time>2026-04-18T08:50:03.823Z</time></trkpt><trkpt lat="45.3499362" lon="11.4822607"><ele>15.666666666666666</ele><time>2026-04-18T08:50:04.821Z</time></trkpt><trkpt lat="45.3499816" lon="11.4820097"><ele>15.333333333333332</ele><time>2026-04-18T08:50:05.822Z</time></trkpt><trkpt lat="45.3500275" lon="11.4817397"><ele>15.0</ele><time>2026-04-18T08:50:06.823Z</time></trkpt><trkpt lat="45.3500718" lon="11.481463"><ele>15.0</ele><time>2026-04-18T08:50:07.823Z</time></trkpt><trkpt lat="45.3501203" lon="11.4811965"><ele>15.0</ele><time>2026-04-18T08:50:08.823Z</time></trkpt><trkpt lat="45.3501709" lon="11.4809403"><ele>15.0</ele><time>2026-04-18T08:50:09.821Z</time></trkpt><trkpt lat="45.3502212" lon="11.480684"><ele>15.0</ele><time>2026-04-18T08:50:10.823Z</time></trkpt><trkpt lat="45.350273" lon="11.4804418"><ele>15.0</ele><time>2026-04-18T08:50:11.824Z</time></trkpt><trkpt lat="45.3503262" lon="11.4802148"><ele>15.0</ele><time>2026-04-18T08:50:12.823Z</time></trkpt><trkpt lat="45.3503779" lon="11.4800009"><ele>15.0</ele><time>2026-04-18T08:50:13.821Z</time></trkpt><trkpt lat="45.3504261" lon="11.4798079"><ele>15.0</ele><time>2026-04-18T08:50:14.823Z</time></trkpt><trkpt lat="45.3504754" lon="11.4796205"><ele>15.0</ele><time>2026-04-18T08:50:15.823Z</time></trkpt><trkpt lat="45.350528" lon="11.4794258"><ele>15.0</ele><time>2026-04-18T08:50:16.823Z</time></trkpt><trkpt lat="45.3505878" lon="11.4792229"><ele>15.333333333333332</ele><time>2026-04-18T08:50:17.823Z</time></trkpt><trkpt lat="45.3506535" lon="11.4790041"><ele>15.666666666666666</ele><time>2026-04-18T08:50:18.824Z</time></trkpt><trkpt lat="45.3507235" lon="11.4787733"><ele>16.0</ele><time>2026-04-18T08:50:19.823Z</time></trkpt><trkpt lat="45.3507939" lon="11.4785448"><ele>16.0</ele><time>2026-04-18T08:50:20.823Z</time></trkpt><trkpt lat="45.3508601" lon="11.4783373"><ele>16.0</ele><time>2026-04-18T08:50:21.819Z</time></trkpt><trkpt lat="45.3509275" lon="11.4781427"><ele>16.0</ele><time>2026-04-18T08:50:22.823Z</time></trkpt><trkpt lat="45.3509902" lon="11.4779596"><ele>16.333333333333332</ele><time>2026-04-18T08:50:23.823Z</time></trkpt><trkpt lat="45.3510499" lon="11.4777738"><ele>16.666666666666668</ele><time>2026-04-18T08:50:24.823Z</time></trkpt><trkpt lat="45.3511105" lon="11.4775662"><ele>17.0</ele><time>2026-04-18T08:50:25.824Z</time></trkpt><trkpt lat="45.3511584" lon="11.4773484"><ele>17.0</ele><time>2026-04-18T08:50:26.822Z</time></trkpt><trkpt lat="45.3511824" lon="11.4771412"><ele>17.0</ele><time>2026-04-18T08:50:27.823Z</time></trkpt><trkpt lat="45.3511916" lon="11.4769502"><ele>17.0</ele><time>2026-04-18T08:50:28.823Z</time></trkpt><trkpt lat="45.3511872" lon="11.476746"><ele>17.0</ele><time>2026-04-18T08:50:29.823Z</time></trkpt><trkpt lat="45.3511762" lon="11.4765552"><ele>17.25</ele><time>2026-04-18T08:50:30.823Z</time></trkpt><trkpt lat="45.3511685" lon="11.4763777"><ele>17.5</ele><time>2026-04-18T08:50:31.823Z</time></trkpt><trkpt lat="45.3511718" lon="11.4762013"><ele>17.75</ele><time>2026-04-18T08:50:32.821Z</time></trkpt><trkpt lat="45.351183" lon="11.4760185"><ele>18.0</ele><time>2026-04-18T08:50:33.823Z</time></trkpt><trkpt lat="45.3511942" lon="11.4758317"><ele>18.0</ele><time>2026-04-18T08:50:34.823Z</time></trkpt><trkpt lat="45.3512121" lon="11.4756488"><ele>18.0</ele><time>2026-04-18T08:50:35.823Z</time></trkpt><trkpt lat="45.3512336" lon="11.475463"><ele>18.0</ele><time>2026-04-18T08:50:36.821Z</time></trkpt><trkpt lat="45.3512592" lon="11.4752747"><ele>18.0</ele><time>2026-04-18T08:50:37.823Z</time></trkpt><trkpt lat="45.3512946" lon="11.4750761"><ele>18.25</ele><time>2026-04-18T08:50:38.823Z</time></trkpt><trkpt lat="45.3513418" lon="11.4748949"><ele>18.5</ele><time>2026-04-18T08:50:39.823Z</time></trkpt><trkpt lat="45.3513918" lon="11.4747283"><ele>18.75</ele><time>2026-04-18T08:50:40.823Z</time></trkpt><trkpt lat="45.3514458" lon="11.4745616"><ele>19.0</ele><time>2026-04-18T08:50:41.823Z</time></trkpt><trkpt lat="45.3514984" lon="11.4743829"><ele>19.0</ele><time>2026-04-18T08:50:42.823Z</time></trkpt><trkpt lat="45.3515485" lon="11.4742077"><ele>19.0</ele><time>2026-04-18T08:50:43.823Z</time></trkpt><trkpt lat="45.3515962" lon="11.4740442"><ele>19.0</ele><time>2026-04-18T08:50:44.823Z</time></trkpt><trkpt lat="45.3516438" lon="11.4738853"><ele>19.0</ele><time>2026-04-18T08:50:45.823Z</time></trkpt><trkpt lat="45.3516976" lon="11.4737097"><ele>19.25</ele><time>2026-04-18T08:50:46.823Z</time></trkpt><trkpt lat="45.3517479" lon="11.4735414"><ele>19.5</ele><time>2026-04-18T08:50:47.823Z</time></trkpt><trkpt lat="45.351796" lon="11.4733804"><ele>19.75</ele><time>2026-04-18T08:50:48.824Z</time></trkpt><trkpt lat="45.3518548" lon="11.4731851"><ele>20.0</ele><time>2026-04-18T08:50:49.824Z</time></trkpt><trkpt lat="45.3519174" lon="11.4729903"><ele>19.75</ele><time>2026-04-18T08:50:50.823Z</time></trkpt><trkpt lat="45.3519775" lon="11.4727966"><ele>19.5</ele><time>2026-04-18T08:50:51.823Z</time></trkpt><trkpt lat="45.3520357" lon="11.472622"><ele>19.25</ele><time>2026-04-18T08:50:52.823Z</time></trkpt><trkpt lat="45.3520901" lon="11.4724584"><ele>19.0</ele><time>2026-04-18T08:50:53.822Z</time></trkpt><trkpt lat="45.3521473" lon="11.4722938"><ele>21.0</ele><time>2026-04-18T08:50:54.823Z</time></trkpt><trkpt lat="45.3522076" lon="11.4721234"><ele>23.0</ele><time>2026-04-18T08:50:55.823Z</time></trkpt><trkpt lat="45.3522704" lon="11.4719549"><ele>25.0</ele><time>2026-04-18T08:50:56.823Z</time></trkpt><trkpt lat="45.352328" lon="11.4717951"><ele>27.0</ele><time>2026-04-18T08:50:57.823Z</time></trkpt><trkpt lat="45.3523872" lon="11.4716356"><ele>27.0</ele><time>2026-04-18T08:50:58.823Z</time></trkpt><trkpt lat="45.3524508" lon="11.4714699"><ele>27.0</ele><time>2026-04-18T08:50:59.822Z</time></trkpt><trkpt lat="45.3525112" lon="11.4713079"><ele>27.0</ele><time>2026-04-18T08:51:00.823Z</time></trkpt><trkpt lat="45.3525722" lon="11.4711496"><ele>27.0</ele><time>2026-04-18T08:51:01.823Z</time></trkpt><trkpt lat="45.3526336" lon="11.4709915"><ele>27.0</ele><time>2026-04-18T08:51:02.821Z</time></trkpt><trkpt lat="45.3526964" lon="11.4708201"><ele>27.0</ele><time>2026-04-18T08:51:03.823Z</time></trkpt><trkpt lat="45.3527497" lon="11.4706354"><ele>27.0</ele><time>2026-04-18T08:51:04.823Z</time></trkpt><trkpt lat="45.3527888" lon="11.4704357"><ele>27.0</ele><time>2026-04-18T08:51:05.823Z</time></trkpt><trkpt lat="45.3528201" lon="11.4702364"><ele>27.0</ele><time>2026-04-18T08:51:06.823Z</time></trkpt><trkpt lat="45.3528462" lon="11.4700478"><ele>27.0</ele><time>2026-04-18T08:51:07.823Z</time></trkpt><trkpt lat="45.3528697" lon="11.4698737"><ele>27.0</ele><time>2026-04-18T08:51:08.823Z</time></trkpt><trkpt lat="45.3528903" lon="11.4697041"><ele>27.0</ele><time>2026-04-18T08:51:09.823Z</time></trkpt><trkpt lat="45.352909" lon="11.4695325"><ele>27.0</ele><time>2026-04-18T08:51:10.823Z</time></trkpt><trkpt lat="45.3529287" lon="11.4693569"><ele>27.0</ele><time>2026-04-18T08:51:11.823Z</time></trkpt><trkpt lat="45.3529396" lon="11.4691806"><ele>27.0</ele><time>2026-04-18T08:51:12.823Z</time></trkpt><trkpt lat="45.3529445" lon="11.4690117"><ele>27.0</ele><time>2026-04-18T08:51:13.823Z</time></trkpt><trkpt lat="45.3529384" lon="11.4688532"><ele>27.0</ele><time>2026-04-18T08:51:14.823Z</time></trkpt><trkpt lat="45.3529311" lon="11.4686969"><ele>27.0</ele><time>2026-04-18T08:51:15.823Z</time></trkpt><trkpt lat="45.3529149" lon="11.4685505"><ele>27.0</ele><time>2026-04-18T08:51:16.823Z</time></trkpt><trkpt lat="45.3528886" lon="11.4683897"><ele>27.0</ele><time>2026-04-18T08:51:17.823Z</time></trkpt><trkpt lat="45.352853" lon="11.4682275"><ele>27.0</ele><time>2026-04-18T08:51:18.823Z</time></trkpt><trkpt lat="45.352808" lon="11.4680589"><ele>27.0</ele><time>2026-04-18T08:51:19.823Z</time></trkpt><trkpt lat="45.3527495" lon="11.4678917"><ele>27.0</ele><time>2026-04-18T08:51:20.823Z</time></trkpt><trkpt lat="45.3526929" lon="11.46773"><ele>27.0</ele><time>2026-04-18T08:51:21.823Z</time></trkpt><trkpt lat="45.3526399" lon="11.4675744"><ele>27.0</ele><time>2026-04-18T08:51:22.823Z</time></trkpt><trkpt lat="45.3525872" lon="11.4674329"><ele>27.0</ele><time>2026-04-18T08:51:23.823Z</time></trkpt><trkpt lat="45.3525264" lon="11.467303"><ele>27.0</ele><time>2026-04-18T08:51:24.823Z</time></trkpt><trkpt lat="45.3524499" lon="11.4671729"><ele>27.0</ele><time>2026-04-18T08:51:25.823Z</time></trkpt><trkpt lat="45.352376" lon="11.4670517"><ele>27.200000000000003</ele><time>2026-04-18T08:51:26.823Z</time></trkpt><trkpt lat="45.3523026" lon="11.4669435"><ele>27.400000000000002</ele><time>2026-04-18T08:51:27.823Z</time></trkpt><trkpt lat="45.3522359" lon="11.4668552"><ele>27.599999999999998</ele><time>2026-04-18T08:51:28.823Z</time></trkpt><trkpt lat="45.3521698" lon="11.4667748"><ele>27.799999999999997</ele><time>2026-04-18T08:51:29.823Z</time></trkpt><trkpt lat="45.3521052" lon="11.4667037"><ele>28.0</ele><time>2026-04-18T08:51:30.823Z</time></trkpt><trkpt lat="45.3520276" lon="11.4666408"><ele>27.500000000000004</ele><time>2026-04-18T08:51:31.823Z</time></trkpt><trkpt lat="45.3519474" lon="11.466594"><ele>27.0</ele><time>2026-04-18T08:51:32.823Z</time></trkpt><trkpt lat="45.3518707" lon="11.4665583"><ele>26.5</ele><time>2026-04-18T08:51:33.823Z</time></trkpt><trkpt lat="45.3517949" lon="11.4665175"><ele>26.0</ele><time>2026-04-18T08:51:34.823Z</time></trkpt><trkpt lat="45.3517184" lon="11.4664731"><ele>25.500000000000004</ele><time>2026-04-18T08:51:35.823Z</time></trkpt><trkpt lat="45.3516387" lon="11.4664377"><ele>25.0</ele><time>2026-04-18T08:51:36.823Z</time></trkpt><trkpt lat="45.3515571" lon="11.466405"><ele>25.000000000000004</ele><time>2026-04-18T08:51:37.823Z</time></trkpt><trkpt lat="45.3514763" lon="11.4663642"><ele>25.0</ele><time>2026-04-18T08:51:38.823Z</time></trkpt><trkpt lat="45.3513944" lon="11.4663236"><ele>25.0</ele><time>2026-04-18T08:51:39.823Z</time></trkpt><trkpt lat="45.3513041" lon="11.4662908"><ele>25.0</ele><time>2026-04-18T08:51:40.823Z</time></trkpt><trkpt lat="45.3512153" lon="11.4662519"><ele>25.000000000000004</ele><time>2026-04-18T08:51:41.823Z</time></trkpt><trkpt lat="45.351133" lon="11.4662069"><ele>25.0</ele><time>2026-04-18T08:51:42.823Z</time></trkpt><trkpt lat="45.3510522" lon="11.4661642"><ele>24.6</ele><time>2026-04-18T08:51:43.823Z</time></trkpt><trkpt lat="45.3509771" lon="11.4661257"><ele>24.2</ele><time>2026-04-18T08:51:44.824Z</time></trkpt><trkpt lat="45.3508941" lon="11.4660892"><ele>23.799999999999997</ele><time>2026-04-18T08:51:45.823Z</time></trkpt><trkpt lat="45.3508037" lon="11.4660432"><ele>23.4</ele><time>2026-04-18T08:51:46.823Z</time></trkpt><trkpt lat="45.3507024" lon="11.4659851"><ele>23.0</ele><time>2026-04-18T08:51:47.823Z</time></trkpt><trkpt lat="45.350595" lon="11.4659166"><ele>22.0</ele><time>2026-04-18T08:51:48.823Z</time></trkpt><trkpt lat="45.3504801" lon="11.4658398"><ele>21.0</ele><time>2026-04-18T08:51:49.823Z</time></trkpt><trkpt lat="45.3503551" lon="11.4657526"><ele>20.0</ele><time>2026-04-18T08:51:50.823Z</time></trkpt><trkpt lat="45.3502322" lon="11.4656559"><ele>19.0</ele><time>2026-04-18T08:51:51.823Z</time></trkpt><trkpt lat="45.3501112" lon="11.4655515"><ele>19.5</ele><time>2026-04-18T08:51:52.823Z</time></trkpt><trkpt lat="45.3499856" lon="11.4654373"><ele>20.0</ele><time>2026-04-18T08:51:53.823Z</time></trkpt><trkpt lat="45.3498685" lon="11.4653212"><ele>20.5</ele><time>2026-04-18T08:51:54.824Z</time></trkpt><trkpt lat="45.3497595" lon="11.4652042"><ele>21.0</ele><time>2026-04-18T08:51:55.823Z</time></trkpt><trkpt lat="45.3496598" lon="11.4650883"><ele>21.0</ele><time>2026-04-18T08:51:56.823Z</time></trkpt><trkpt lat="45.3495618" lon="11.4649701"><ele>21.0</ele><time>2026-04-18T08:51:57.823Z</time></trkpt><trkpt lat="45.3494674" lon="11.4648513"><ele>21.0</ele><time>2026-04-18T08:51:58.823Z</time></trkpt><trkpt lat="45.3493776" lon="11.4647331"><ele>21.0</ele><time>2026-04-18T08:51:59.823Z</time></trkpt><trkpt lat="45.3492911" lon="11.4646152"><ele>20.75</ele><time>2026-04-18T08:52:00.823Z</time></trkpt><trkpt lat="45.3492096" lon="11.4644996"><ele>20.5</ele><time>2026-04-18T08:52:01.823Z</time></trkpt><trkpt lat="45.3491266" lon="11.4643765"><ele>20.25</ele><time>2026-04-18T08:52:02.823Z</time></trkpt><trkpt lat="45.3490421" lon="11.4642454"><ele>20.0</ele><time>2026-04-18T08:52:03.823Z</time></trkpt><trkpt lat="45.3489519" lon="11.4641102"><ele>19.333333333333336</ele><time>2026-04-18T08:52:04.823Z</time></trkpt><trkpt lat="45.3488511" lon="11.463954"><ele>18.666666666666668</ele><time>2026-04-18T08:52:05.823Z</time></trkpt><trkpt lat="45.3487315" lon="11.4637892"><ele>18.0</ele><time>2026-04-18T08:52:06.823Z</time></trkpt><trkpt lat="45.3485989" lon="11.4636001"><ele>18.0</ele><time>2026-04-18T08:52:07.823Z</time></trkpt><trkpt lat="45.3484614" lon="11.4633973"><ele>18.0</ele><time>2026-04-18T08:52:08.823Z</time></trkpt><trkpt lat="45.3483327" lon="11.4632129"><ele>18.0</ele><time>2026-04-18T08:52:09.823Z</time></trkpt><trkpt lat="45.3482041" lon="11.4630321"><ele>18.333333333333332</ele><time>2026-04-18T08:52:10.823Z</time></trkpt><trkpt lat="45.3480833" lon="11.4628568"><ele>18.666666666666664</ele><time>2026-04-18T08:52:11.823Z</time></trkpt><trkpt lat="45.3479726" lon="11.462685"><ele>19.0</ele><time>2026-04-18T08:52:12.823Z</time></trkpt><trkpt lat="45.3478616" lon="11.4625197"><ele>19.0</ele><time>2026-04-18T08:52:13.823Z</time></trkpt><trkpt lat="45.3477484" lon="11.4623618"><ele>19.0</ele><time>2026-04-18T08:52:14.823Z</time></trkpt><trkpt lat="45.3476387" lon="11.4621988"><ele>19.0</ele><time>2026-04-18T08:52:15.823Z</time></trkpt><trkpt lat="45.3475228" lon="11.4620396"><ele>18.666666666666664</ele><time>2026-04-18T08:52:16.823Z</time></trkpt><trkpt lat="45.347408" lon="11.4618774"><ele>18.333333333333332</ele><time>2026-04-18T08:52:17.823Z</time></trkpt><trkpt lat="45.3472917" lon="11.4617054"><ele>18.0</ele><time>2026-04-18T08:52:18.823Z</time></trkpt><trkpt lat="45.347175" lon="11.461537"><ele>18.0</ele><time>2026-04-18T08:52:19.823Z</time></trkpt><trkpt lat="45.3470639" lon="11.4613741"><ele>18.0</ele><time>2026-04-18T08:52:20.823Z</time></trkpt><trkpt lat="45.3469628" lon="11.4612251"><ele>18.0</ele><time>2026-04-18T08:52:21.823Z</time></trkpt><trkpt lat="45.3468686" lon="11.4610852"><ele>18.0</ele><time>2026-04-18T08:52:22.823Z</time></trkpt><trkpt lat="45.3467917" lon="11.4609638"><ele>18.2</ele><time>2026-04-18T08:52:23.823Z</time></trkpt><trkpt lat="45.3467309" lon="11.460845"><ele>18.4</ele><time>2026-04-18T08:52:24.823Z</time></trkpt><trkpt lat="45.3466825" lon="11.4607213"><ele>18.599999999999998</ele><time>2026-04-18T08:52:25.823Z</time></trkpt><trkpt lat="45.3466192" lon="11.460597"><ele>18.8</ele><time>2026-04-18T08:52:26.823Z</time></trkpt><trkpt lat="45.3465268" lon="11.4605014"><ele>19.0</ele><time>2026-04-18T08:52:27.823Z</time></trkpt><trkpt lat="45.3464184" lon="11.4603954"><ele>19.333333333333332</ele><time>2026-04-18T08:52:28.824Z</time></trkpt><trkpt lat="45.3463191" lon="11.4602428"><ele>19.666666666666668</ele><time>2026-04-18T08:52:29.823Z</time></trkpt><trkpt lat="45.3462268" lon="11.4600611"><ele>20.0</ele><time>2026-04-18T08:52:30.822Z</time></trkpt><trkpt lat="45.3461462" lon="11.4598484"><ele>20.333333333333336</ele><time>2026-04-18T08:52:31.823Z</time></trkpt><trkpt lat="45.3460791" lon="11.459594"><ele>20.666666666666668</ele><time>2026-04-18T08:52:32.82Z</time></trkpt><trkpt lat="45.3460283" lon="11.4593219"><ele>21.0</ele><time>2026-04-18T08:52:33.823Z</time></trkpt><trkpt lat="45.3459851" lon="11.4590687"><ele>21.0</ele><time>2026-04-18T08:52:34.823Z</time></trkpt><trkpt lat="45.3459415" lon="11.4588287"><ele>21.0</ele><time>2026-04-18T08:52:35.823Z</time></trkpt><trkpt lat="45.3459048" lon="11.4585981"><ele>21.0</ele><time>2026-04-18T08:52:36.823Z</time></trkpt><trkpt lat="45.3458735" lon="11.458382"><ele>21.5</ele><time>2026-04-18T08:52:37.823Z</time></trkpt><trkpt lat="45.3458451" lon="11.4581799"><ele>22.0</ele><time>2026-04-18T08:52:38.823Z</time></trkpt><trkpt lat="45.345817" lon="11.4579904"><ele>22.5</ele><time>2026-04-18T08:52:39.82Z</time></trkpt><trkpt lat="45.3457884" lon="11.457808"><ele>23.0</ele><time>2026-04-18T08:52:40.823Z</time></trkpt><trkpt lat="45.3457542" lon="11.4576301"><ele>23.5</ele><time>2026-04-18T08:52:41.823Z</time></trkpt><trkpt lat="45.3457203" lon="11.457454"><ele>24.0</ele><time>2026-04-18T08:52:42.823Z</time></trkpt><trkpt lat="45.3456844" lon="11.4572766"><ele>24.5</ele><time>2026-04-18T08:52:43.823Z</time></trkpt><trkpt lat="45.3456436" lon="11.4571023"><ele>25.0</ele><time>2026-04-18T08:52:44.823Z</time></trkpt><trkpt lat="45.3455944" lon="11.4569327"><ele>24.0</ele><time>2026-04-18T08:52:45.823Z</time></trkpt><trkpt lat="45.3455338" lon="11.4567803"><ele>23.0</ele><time>2026-04-18T08:52:46.823Z</time></trkpt><trkpt lat="45.3454736" lon="11.4566506"><ele>22.0</ele><time>2026-04-18T08:52:47.823Z</time></trkpt><trkpt lat="45.34542" lon="11.4565398"><ele>21.0</ele><time>2026-04-18T08:52:48.824Z</time></trkpt><trkpt lat="45.3453707" lon="11.4564273"><ele>20.0</ele><time>2026-04-18T08:52:49.823Z</time></trkpt><trkpt lat="45.3453349" lon="11.4563025"><ele>19.75</ele><time>2026-04-18T08:52:50.823Z</time></trkpt><trkpt lat="45.3453229" lon="11.4561595"><ele>19.5</ele><time>2026-04-18T08:52:51.823Z</time></trkpt><trkpt lat="45.3453412" lon="11.4560021"><ele>19.25</ele><time>2026-04-18T08:52:52.821Z</time></trkpt><trkpt lat="45.3453851" lon="11.4558391"><ele>19.0</ele><time>2026-04-18T08:52:53.823Z</time></trkpt><trkpt lat="45.3454455" lon="11.4556924"><ele>19.0</ele><time>2026-04-18T08:52:54.823Z</time></trkpt><trkpt lat="45.3455237" lon="11.4555707"><ele>19.0</ele><time>2026-04-18T08:52:55.821Z</time></trkpt><trkpt lat="45.3456318" lon="11.455464"><ele>19.0</ele><time>2026-04-18T08:52:56.822Z</time></trkpt><trkpt lat="45.3457525" lon="11.4553838"><ele>19.0</ele><time>2026-04-18T08:52:57.823Z</time></trkpt><trkpt lat="45.3458707" lon="11.455316"><ele>19.0</ele><time>2026-04-18T08:52:58.823Z</time></trkpt><trkpt lat="45.3460173" lon="11.4552169"><ele>19.0</ele><time>2026-04-18T08:52:59.823Z</time></trkpt><trkpt lat="45.3462008" lon="11.4551066"><ele>19.0</ele><time>2026-04-18T08:53:00.822Z</time></trkpt><trkpt lat="45.3464073" lon="11.4550018"><ele>25.0</ele><time>2026-04-18T08:53:01.821Z</time></trkpt><trkpt lat="45.3466388" lon="11.4548917"><ele>31.0</ele><time>2026-04-18T08:53:02.823Z</time></trkpt><trkpt lat="45.3468699" lon="11.4547676"><ele>31.0</ele><time>2026-04-18T08:53:03.823Z</time></trkpt><trkpt lat="45.3470932" lon="11.4546304"><ele>31.0</ele><time>2026-04-18T08:53:04.823Z</time></trkpt><trkpt lat="45.3473074" lon="11.4544629"><ele>30.0</ele><time>2026-04-18T08:53:05.823Z</time></trkpt><trkpt lat="45.3475152" lon="11.4542595"><ele>29.0</ele><time>2026-04-18T08:53:06.823Z</time></trkpt><trkpt lat="45.3477199" lon="11.4540227"><ele>27.0</ele><time>2026-04-18T08:53:07.822Z</time></trkpt><trkpt lat="45.3479162" lon="11.4537488"><ele>25.0</ele><time>2026-04-18T08:53:08.818Z</time></trkpt><trkpt lat="45.3480978" lon="11.4534362"><ele>28.5</ele><time>2026-04-18T08:53:09.823Z</time></trkpt><trkpt lat="45.3482545" lon="11.4530952"><ele>32.0</ele><time>2026-04-18T08:53:10.823Z</time></trkpt><trkpt lat="45.3483819" lon="11.4527593"><ele>32.0</ele><time>2026-04-18T08:53:11.823Z</time></trkpt><trkpt lat="45.3484897" lon="11.4524419"><ele>32.0</ele><time>2026-04-18T08:53:12.82Z</time></trkpt><trkpt lat="45.3485883" lon="11.4521478"><ele>30.666666666666664</ele><time>2026-04-18T08:53:13.823Z</time></trkpt><trkpt lat="45.3486791" lon="11.4518751"><ele>29.333333333333336</ele><time>2026-04-18T08:53:14.823Z</time></trkpt><trkpt lat="45.3487793" lon="11.4515998"><ele>28.0</ele><time>2026-04-18T08:53:15.823Z</time></trkpt><trkpt lat="45.3488933" lon="11.4513202"><ele>31.5</ele><time>2026-04-18T08:53:16.823Z</time></trkpt><trkpt lat="45.3490294" lon="11.4510344"><ele>35.0</ele><time>2026-04-18T08:53:17.823Z</time></trkpt><trkpt lat="45.3491883" lon="11.4507456"><ele>35.0</ele><time>2026-04-18T08:53:18.823Z</time></trkpt><trkpt lat="45.3493492" lon="11.4504785"><ele>35.0</ele><time>2026-04-18T08:53:19.823Z</time></trkpt><trkpt lat="45.3495021" lon="11.4502254"><ele>35.33333333333333</ele><time>2026-04-18T08:53:20.823Z</time></trkpt><trkpt lat="45.3496449" lon="11.4499884"><ele>35.666666666666664</ele><time>2026-04-18T08:53:21.824Z</time></trkpt><trkpt lat="45.3497831" lon="11.4497636"><ele>36.0</ele><time>2026-04-18T08:53:22.823Z</time></trkpt><trkpt lat="45.34992" lon="11.4495428"><ele>36.0</ele><time>2026-04-18T08:53:23.823Z</time></trkpt><trkpt lat="45.3500546" lon="11.4493124"><ele>36.0</ele><time>2026-04-18T08:53:24.823Z</time></trkpt><trkpt lat="45.3501757" lon="11.4490861"><ele>36.0</ele><time>2026-04-18T08:53:25.82Z</time></trkpt><trkpt lat="45.3502798" lon="11.4488496"><ele>34.666666666666664</ele><time>2026-04-18T08:53:26.823Z</time></trkpt><trkpt lat="45.3503728" lon="11.4485825"><ele>33.33333333333333</ele><time>2026-04-18T08:53:27.823Z</time></trkpt><trkpt lat="45.3504422" lon="11.4482864"><ele>32.0</ele><time>2026-04-18T08:53:28.822Z</time></trkpt><trkpt lat="45.3505011" lon="11.447988"><ele>36.33333333333333</ele><time>2026-04-18T08:53:29.823Z</time></trkpt><trkpt lat="45.3505508" lon="11.4477043"><ele>40.666666666666664</ele><time>2026-04-18T08:53:30.823Z</time></trkpt><trkpt lat="45.3505874" lon="11.4474389"><ele>45.0</ele><time>2026-04-18T08:53:31.824Z</time></trkpt><trkpt lat="45.3506387" lon="11.447166"><ele>45.0</ele><time>2026-04-18T08:53:32.819Z</time></trkpt><trkpt lat="45.3507163" lon="11.4468853"><ele>45.0</ele><time>2026-04-18T08:53:33.821Z</time></trkpt><trkpt lat="45.3508162" lon="11.4466082"><ele>45.0</ele><time>2026-04-18T08:53:34.823Z</time></trkpt><trkpt lat="45.3509168" lon="11.4463484"><ele>44.666666666666664</ele><time>2026-04-18T08:53:35.824Z</time></trkpt><trkpt lat="45.351023" lon="11.4460994"><ele>44.33333333333333</ele><time>2026-04-18T08:53:36.823Z</time></trkpt><trkpt lat="45.3511362" lon="11.4458473"><ele>44.0</ele><time>2026-04-18T08:53:37.823Z</time></trkpt><trkpt lat="45.3512504" lon="11.445614"><ele>43.33333333333333</ele><time>2026-04-18T08:53:38.822Z</time></trkpt><trkpt lat="45.3513607" lon="11.4453887"><ele>42.666666666666664</ele><time>2026-04-18T08:53:39.823Z</time></trkpt><trkpt lat="45.3514784" lon="11.44517"><ele>42.0</ele><time>2026-04-18T08:53:40.824Z</time></trkpt><trkpt lat="45.3516122" lon="11.4449532"><ele>40.333333333333336</ele><time>2026-04-18T08:53:41.822Z</time></trkpt><trkpt lat="45.3517622" lon="11.44474"><ele>38.66666666666667</ele><time>2026-04-18T08:53:42.823Z</time></trkpt><trkpt lat="45.3519251" lon="11.4445451"><ele>37.0</ele><time>2026-04-18T08:53:43.82Z</time></trkpt><trkpt lat="45.3521043" lon="11.4443618"><ele>35.5</ele><time>2026-04-18T08:53:44.823Z</time></trkpt><trkpt lat="45.3523024" lon="11.4441885"><ele>34.0</ele><time>2026-04-18T08:53:45.823Z</time></trkpt><trkpt lat="45.3525155" lon="11.4440303"><ele>34.0</ele><time>2026-04-18T08:53:46.823Z</time></trkpt><trkpt lat="45.3527343" lon="11.4438882"><ele>34.0</ele><time>2026-04-18T08:53:47.823Z</time></trkpt><trkpt lat="45.3529573" lon="11.4437579"><ele>32.0</ele><time>2026-04-18T08:53:48.819Z</time></trkpt><trkpt lat="45.3531807" lon="11.4436287"><ele>30.0</ele><time>2026-04-18T08:53:49.821Z</time></trkpt><trkpt lat="45.3533964" lon="11.4435053"><ele>30.0</ele><time>2026-04-18T08:53:50.82Z</time></trkpt><trkpt lat="45.3536038" lon="11.443392"><ele>30.0</ele><time>2026-04-18T08:53:51.823Z</time></trkpt><trkpt lat="45.3538025" lon="11.4432824"><ele>30.0</ele><time>2026-04-18T08:53:52.823Z</time></trkpt><trkpt lat="45.3539946" lon="11.4431666"><ele>30.0</ele><time>2026-04-18T08:53:53.823Z</time></trkpt><trkpt lat="45.354181" lon="11.4430414"><ele>30.0</ele><time>2026-04-18T08:53:54.823Z</time></trkpt><trkpt lat="45.3543704" lon="11.4428921"><ele>30.0</ele><time>2026-04-18T08:53:55.823Z</time></trkpt><trkpt lat="45.3545597" lon="11.4427032"><ele>30.5</ele><time>2026-04-18T08:53:56.823Z</time></trkpt><trkpt lat="45.3547442" lon="11.4424853"><ele>31.0</ele><time>2026-04-18T08:53:57.823Z</time></trkpt><trkpt lat="45.3549135" lon="11.4422554"><ele>29.5</ele><time>2026-04-18T08:53:58.822Z</time></trkpt><trkpt lat="45.3550668" lon="11.4420034"><ele>28.0</ele><time>2026-04-18T08:53:59.823Z</time></trkpt><trkpt lat="45.3552049" lon="11.4417253"><ele>28.0</ele><time>2026-04-18T08:54:00.82Z</time></trkpt><trkpt lat="45.3553284" lon="11.4414493"><ele>28.0</ele><time>2026-04-18T08:54:01.822Z</time></trkpt><trkpt lat="45.3554435" lon="11.4411836"><ele>28.0</ele><time>2026-04-18T08:54:02.82Z</time></trkpt><trkpt lat="45.3555583" lon="11.4409145"><ele>28.0</ele><time>2026-04-18T08:54:03.823Z</time></trkpt><trkpt lat="45.3556744" lon="11.4406426"><ele>28.0</ele><time>2026-04-18T08:54:04.823Z</time></trkpt><trkpt lat="45.3557904" lon="11.4403677"><ele>28.0</ele><time>2026-04-18T08:54:05.821Z</time></trkpt><trkpt lat="45.3559063" lon="11.4400962"><ele>27.333333333333336</ele><time>2026-04-18T08:54:06.823Z</time></trkpt><trkpt lat="45.3560234" lon="11.4398225"><ele>26.666666666666664</ele><time>2026-04-18T08:54:07.823Z</time></trkpt><trkpt lat="45.3561385" lon="11.4395547"><ele>26.0</ele><time>2026-04-18T08:54:08.823Z</time></trkpt><trkpt lat="45.3562503" lon="11.4392893"><ele>25.0</ele><time>2026-04-18T08:54:09.823Z</time></trkpt><trkpt lat="45.3563588" lon="11.4390329"><ele>24.0</ele><time>2026-04-18T08:54:10.821Z</time></trkpt><trkpt lat="45.3564629" lon="11.4387896"><ele>23.0</ele><time>2026-04-18T08:54:11.823Z</time></trkpt><trkpt lat="45.3565627" lon="11.4385611"><ele>23.0</ele><time>2026-04-18T08:54:12.821Z</time></trkpt><trkpt lat="45.3566539" lon="11.4383494"><ele>23.0</ele><time>2026-04-18T08:54:13.818Z</time></trkpt><trkpt lat="45.3567425" lon="11.4381381"><ele>23.0</ele><time>2026-04-18T08:54:14.82Z</time></trkpt><trkpt lat="45.3568363" lon="11.4379198"><ele>22.666666666666668</ele><time>2026-04-18T08:54:15.823Z</time></trkpt><trkpt lat="45.3569295" lon="11.4377147"><ele>22.333333333333332</ele><time>2026-04-18T08:54:16.823Z</time></trkpt><trkpt lat="45.3570206" lon="11.4375168"><ele>22.0</ele><time>2026-04-18T08:54:17.824Z</time></trkpt><trkpt lat="45.357102" lon="11.4373184"><ele>21.666666666666664</ele><time>2026-04-18T08:54:18.823Z</time></trkpt><trkpt lat="45.3571875" lon="11.4371056"><ele>21.333333333333332</ele><time>2026-04-18T08:54:19.823Z</time></trkpt><trkpt lat="45.3572766" lon="11.4368871"><ele>21.0</ele><time>2026-04-18T08:54:20.82Z</time></trkpt><trkpt lat="45.3573656" lon="11.4366523"><ele>22.333333333333336</ele><time>2026-04-18T08:54:21.824Z</time></trkpt><trkpt lat="45.3574494" lon="11.4364043"><ele>23.666666666666668</ele><time>2026-04-18T08:54:22.823Z</time></trkpt><trkpt lat="45.3575285" lon="11.4361401"><ele>25.0</ele><time>2026-04-18T08:54:23.823Z</time></trkpt><trkpt lat="45.3576002" lon="11.4358596"><ele>25.0</ele><time>2026-04-18T08:54:24.822Z</time></trkpt><trkpt lat="45.3576642" lon="11.4355667"><ele>25.0</ele><time>2026-04-18T08:54:25.823Z</time></trkpt><trkpt lat="45.3577238" lon="11.4352672"><ele>25.0</ele><time>2026-04-18T08:54:26.821Z</time></trkpt><trkpt lat="45.3577729" lon="11.4349515"><ele>23.5</ele><time>2026-04-18T08:54:27.823Z</time></trkpt><trkpt lat="45.3578088" lon="11.4346255"><ele>22.0</ele><time>2026-04-18T08:54:28.823Z</time></trkpt><trkpt lat="45.3578421" lon="11.4343031"><ele>22.0</ele><time>2026-04-18T08:54:29.821Z</time></trkpt><trkpt lat="45.357879" lon="11.433982"><ele>22.0</ele><time>2026-04-18T08:54:30.823Z</time></trkpt><trkpt lat="45.3579167" lon="11.433643"><ele>21.0</ele><time>2026-04-18T08:54:31.821Z</time></trkpt><trkpt lat="45.3579491" lon="11.4333175"><ele>20.0</ele><time>2026-04-18T08:54:32.821Z</time></trkpt><trkpt lat="45.3579851" lon="11.4330074"><ele>20.333333333333336</ele><time>2026-04-18T08:54:33.822Z</time></trkpt><trkpt lat="45.3580173" lon="11.4327114"><ele>20.666666666666668</ele><time>2026-04-18T08:54:34.823Z</time></trkpt><trkpt lat="45.3580455" lon="11.4324319"><ele>21.0</ele><time>2026-04-18T08:54:35.824Z</time></trkpt><trkpt lat="45.3580753" lon="11.4321555"><ele>21.333333333333332</ele><time>2026-04-18T08:54:36.82Z</time></trkpt><trkpt lat="45.3581043" lon="11.4318919"><ele>21.666666666666664</ele><time>2026-04-18T08:54:37.823Z</time></trkpt><trkpt lat="45.3581345" lon="11.431638"><ele>22.0</ele><time>2026-04-18T08:54:38.823Z</time></trkpt><trkpt lat="45.3581615" lon="11.4313944"><ele>22.0</ele><time>2026-04-18T08:54:39.823Z</time></trkpt><trkpt lat="45.3581836" lon="11.4311694"><ele>22.0</ele><time>2026-04-18T08:54:40.823Z</time></trkpt><trkpt lat="45.3582045" lon="11.4309649"><ele>22.0</ele><time>2026-04-18T08:54:41.821Z</time></trkpt><trkpt lat="45.3582306" lon="11.4307834"><ele>22.0</ele><time>2026-04-18T08:54:42.824Z</time></trkpt><trkpt lat="45.358254" lon="11.4306161"><ele>22.25</ele><time>2026-04-18T08:54:43.821Z</time></trkpt><trkpt lat="45.358283" lon="11.4304554"><ele>22.5</ele><time>2026-04-18T08:54:44.821Z</time></trkpt><trkpt lat="45.3583525" lon="11.4303093"><ele>22.75</ele><time>2026-04-18T08:54:45.822Z</time></trkpt><trkpt lat="45.3584271" lon="11.430193"><ele>23.0</ele><time>2026-04-18T08:54:46.823Z</time></trkpt><trkpt lat="45.3584753" lon="11.4300698"><ele>23.0</ele><time>2026-04-18T08:54:47.823Z</time></trkpt><trkpt lat="45.3584999" lon="11.4299202"><ele>23.0</ele><time>2026-04-18T08:54:48.823Z</time></trkpt><trkpt lat="45.3584917" lon="11.4297707"><ele>23.0</ele><time>2026-04-18T08:54:49.823Z</time></trkpt><trkpt lat="45.35845" lon="11.4296255"><ele>23.0</ele><time>2026-04-18T08:54:50.823Z</time></trkpt><trkpt lat="45.3584154" lon="11.4294549"><ele>23.0</ele><time>2026-04-18T08:54:51.823Z</time></trkpt><trkpt lat="45.3584064" lon="11.4292432"><ele>23.0</ele><time>2026-04-18T08:54:52.824Z</time></trkpt><trkpt lat="45.3584194" lon="11.4289866"><ele>23.0</ele><time>2026-04-18T08:54:53.822Z</time></trkpt><trkpt lat="45.3584457" lon="11.4287049"><ele>23.0</ele><time>2026-04-18T08:54:54.823Z</time></trkpt><trkpt lat="45.3584686" lon="11.428455"><ele>23.0</ele><time>2026-04-18T08:54:55.82Z</time></trkpt><trkpt lat="45.3584903" lon="11.4282486"><ele>23.0</ele><time>2026-04-18T08:54:56.823Z</time></trkpt><trkpt lat="45.358508" lon="11.4280537"><ele>23.0</ele><time>2026-04-18T08:54:57.821Z</time></trkpt><trkpt lat="45.3585215" lon="11.4278721"><ele>23.0</ele><time>2026-04-18T08:54:58.823Z</time></trkpt><trkpt lat="45.3585397" lon="11.4276956"><ele>23.5</ele><time>2026-04-18T08:54:59.823Z</time></trkpt><trkpt lat="45.3585598" lon="11.427528"><ele>24.0</ele><time>2026-04-18T08:55:00.823Z</time></trkpt><trkpt lat="45.3585803" lon="11.4273575"><ele>24.5</ele><time>2026-04-18T08:55:01.823Z</time></trkpt><trkpt lat="45.3586017" lon="11.4271752"><ele>25.0</ele><time>2026-04-18T08:55:02.823Z</time></trkpt><trkpt lat="45.3586271" lon="11.4269845"><ele>25.0</ele><time>2026-04-18T08:55:03.823Z</time></trkpt><trkpt lat="45.3586582" lon="11.4267861"><ele>25.0</ele><time>2026-04-18T08:55:04.821Z</time></trkpt><trkpt lat="45.3586934" lon="11.426578"><ele>25.0</ele><time>2026-04-18T08:55:05.823Z</time></trkpt><trkpt lat="45.358733" lon="11.4263699"><ele>25.0</ele><time>2026-04-18T08:55:06.823Z</time></trkpt><trkpt lat="45.3587707" lon="11.4261438"><ele>24.666666666666668</ele><time>2026-04-18T08:55:07.823Z</time></trkpt><trkpt lat="45.3588115" lon="11.4259023"><ele>24.333333333333336</ele><time>2026-04-18T08:55:08.821Z</time></trkpt><trkpt lat="45.3588592" lon="11.4256458"><ele>24.0</ele><time>2026-04-18T08:55:09.823Z</time></trkpt><trkpt lat="45.3589163" lon="11.4253782"><ele>25.333333333333336</ele><time>2026-04-18T08:55:10.823Z</time></trkpt><trkpt lat="45.3589724" lon="11.4251193"><ele>26.666666666666668</ele><time>2026-04-18T08:55:11.823Z</time></trkpt><trkpt lat="45.3590276" lon="11.4248629"><ele>28.0</ele><time>2026-04-18T08:55:12.823Z</time></trkpt><trkpt lat="45.3590809" lon="11.4245999"><ele>28.0</ele><time>2026-04-18T08:55:13.823Z</time></trkpt><trkpt lat="45.3591343" lon="11.4243351"><ele>28.0</ele><time>2026-04-18T08:55:14.823Z</time></trkpt><trkpt lat="45.3591901" lon="11.4240679"><ele>28.0</ele><time>2026-04-18T08:55:15.823Z</time></trkpt><trkpt lat="45.3592462" lon="11.4237989"><ele>27.333333333333336</ele><time>2026-04-18T08:55:16.822Z</time></trkpt><trkpt lat="45.3593038" lon="11.4235266"><ele>26.666666666666664</ele><time>2026-04-18T08:55:17.823Z</time></trkpt><trkpt lat="45.359365" lon="11.4232536"><ele>26.0</ele><time>2026-04-18T08:55:18.822Z</time></trkpt><trkpt lat="45.3594278" lon="11.4229748"><ele>25.333333333333332</ele><time>2026-04-18T08:55:19.823Z</time></trkpt><trkpt lat="45.35949" lon="11.4227017"><ele>24.666666666666664</ele><time>2026-04-18T08:55:20.823Z</time></trkpt><trkpt lat="45.3595523" lon="11.4224255"><ele>24.0</ele><time>2026-04-18T08:55:21.823Z</time></trkpt><trkpt lat="45.3596176" lon="11.4221461"><ele>24.0</ele><time>2026-04-18T08:55:22.823Z</time></trkpt><trkpt lat="45.3596826" lon="11.4218661"><ele>24.0</ele><time>2026-04-18T08:55:23.823Z</time></trkpt><trkpt lat="45.3597519" lon="11.4215896"><ele>24.0</ele><time>2026-04-18T08:55:24.823Z</time></trkpt><trkpt lat="45.3598302" lon="11.4213189"><ele>24.0</ele><time>2026-04-18T08:55:25.822Z</time></trkpt><trkpt lat="45.3599187" lon="11.4210531"><ele>24.0</ele><time>2026-04-18T08:55:26.823Z</time></trkpt><trkpt lat="45.3600164" lon="11.4207844"><ele>24.0</ele><time>2026-04-18T08:55:27.823Z</time></trkpt><trkpt lat="45.3601205" lon="11.4205139"><ele>23.666666666666668</ele><time>2026-04-18T08:55:28.822Z</time></trkpt><trkpt lat="45.3602348" lon="11.4202429"><ele>23.333333333333336</ele><time>2026-04-18T08:55:29.823Z</time></trkpt><trkpt lat="45.3603486" lon="11.4199888"><ele>23.0</ele><time>2026-04-18T08:55:30.824Z</time></trkpt><trkpt lat="45.3604761" lon="11.4197441"><ele>22.666666666666668</ele><time>2026-04-18T08:55:31.823Z</time></trkpt><trkpt lat="45.3606141" lon="11.4195002"><ele>22.333333333333332</ele><time>2026-04-18T08:55:32.819Z</time></trkpt><trkpt lat="45.3607622" lon="11.4192576"><ele>22.0</ele><time>2026-04-18T08:55:33.823Z</time></trkpt><trkpt lat="45.360916" lon="11.4190304"><ele>22.0</ele><time>2026-04-18T08:55:34.819Z</time></trkpt><trkpt lat="45.361069" lon="11.4188216"><ele>22.0</ele><time>2026-04-18T08:55:35.819Z</time></trkpt><trkpt lat="45.3612183" lon="11.41863"><ele>22.0</ele><time>2026-04-18T08:55:36.823Z</time></trkpt><trkpt lat="45.361366" lon="11.4184557"><ele>22.333333333333332</ele><time>2026-04-18T08:55:37.822Z</time></trkpt><trkpt lat="45.3615106" lon="11.4182937"><ele>22.666666666666668</ele><time>2026-04-18T08:55:38.822Z</time></trkpt><trkpt lat="45.3616454" lon="11.4181341"><ele>23.0</ele><time>2026-04-18T08:55:39.823Z</time></trkpt><trkpt lat="45.3617785" lon="11.4179729"><ele>23.0</ele><time>2026-04-18T08:55:40.823Z</time></trkpt><trkpt lat="45.3619129" lon="11.4178141"><ele>23.0</ele><time>2026-04-18T08:55:41.823Z</time></trkpt><trkpt lat="45.3620509" lon="11.4176526"><ele>23.0</ele><time>2026-04-18T08:55:42.822Z</time></trkpt><trkpt lat="45.3621915" lon="11.417489"><ele>23.0</ele><time>2026-04-18T08:55:43.819Z</time></trkpt><trkpt lat="45.3623355" lon="11.417323"><ele>23.0</ele><time>2026-04-18T08:55:44.823Z</time></trkpt><trkpt lat="45.3624821" lon="11.4171524"><ele>23.0</ele><time>2026-04-18T08:55:45.823Z</time></trkpt><trkpt lat="45.3626302" lon="11.4169736"><ele>22.666666666666668</ele><time>2026-04-18T08:55:46.824Z</time></trkpt><trkpt lat="45.3627848" lon="11.4167914"><ele>22.333333333333332</ele><time>2026-04-18T08:55:47.821Z</time></trkpt><trkpt lat="45.3629427" lon="11.4166019"><ele>22.0</ele><time>2026-04-18T08:55:48.823Z</time></trkpt><trkpt lat="45.363109" lon="11.4164078"><ele>22.333333333333332</ele><time>2026-04-18T08:55:49.823Z</time></trkpt><trkpt lat="45.3632796" lon="11.4162047"><ele>22.666666666666668</ele><time>2026-04-18T08:55:50.819Z</time></trkpt><trkpt lat="45.3634492" lon="11.416002"><ele>23.0</ele><time>2026-04-18T08:55:51.823Z</time></trkpt><trkpt lat="45.3636251" lon="11.4157911"><ele>23.0</ele><time>2026-04-18T08:55:52.823Z</time></trkpt><trkpt lat="45.3638051" lon="11.4155776"><ele>23.0</ele><time>2026-04-18T08:55:53.823Z</time></trkpt><trkpt lat="45.3639787" lon="11.4153717"><ele>23.0</ele><time>2026-04-18T08:55:54.823Z</time></trkpt><trkpt lat="45.3641486" lon="11.415174"><ele>23.0</ele><time>2026-04-18T08:55:55.823Z</time></trkpt><trkpt lat="45.3643234" lon="11.414969"><ele>23.0</ele><time>2026-04-18T08:55:56.819Z</time></trkpt><trkpt lat="45.3644889" lon="11.4147607"><ele>22.333333333333336</ele><time>2026-04-18T08:55:57.823Z</time></trkpt><trkpt lat="45.3646498" lon="11.4145488"><ele>21.666666666666668</ele><time>2026-04-18T08:55:58.823Z</time></trkpt><trkpt lat="45.3648115" lon="11.4143327"><ele>21.0</ele><time>2026-04-18T08:55:59.82Z</time></trkpt><trkpt lat="45.3649697" lon="11.4141245"><ele>21.0</ele><time>2026-04-18T08:56:00.819Z</time></trkpt><trkpt lat="45.3651175" lon="11.4139282"><ele>21.0</ele><time>2026-04-18T08:56:01.823Z</time></trkpt><trkpt lat="45.365266" lon="11.413723"><ele>21.0</ele><time>2026-04-18T08:56:02.82Z</time></trkpt><trkpt lat="45.3654229" lon="11.4134884"><ele>21.0</ele><time>2026-04-18T08:56:03.822Z</time></trkpt><trkpt lat="45.3655955" lon="11.4132347"><ele>21.0</ele><time>2026-04-18T08:56:04.823Z</time></trkpt><trkpt lat="45.3657915" lon="11.4129824"><ele>21.0</ele><time>2026-04-18T08:56:05.823Z</time></trkpt><trkpt lat="45.3660007" lon="11.412722"><ele>21.0</ele><time>2026-04-18T08:56:06.823Z</time></trkpt><trkpt lat="45.3662123" lon="11.4124499"><ele>21.5</ele><time>2026-04-18T08:56:07.823Z</time></trkpt><trkpt lat="45.3664225" lon="11.4121835"><ele>22.0</ele><time>2026-04-18T08:56:08.821Z</time></trkpt><trkpt lat="45.3666189" lon="11.4119236"><ele>22.0</ele><time>2026-04-18T08:56:09.823Z</time></trkpt><trkpt lat="45.3668087" lon="11.4116665"><ele>22.0</ele><time>2026-04-18T08:56:10.82Z</time></trkpt><trkpt lat="45.3669983" lon="11.4114137"><ele>22.0</ele><time>2026-04-18T08:56:11.822Z</time></trkpt><trkpt lat="45.3671862" lon="11.4111666"><ele>22.0</ele><time>2026-04-18T08:56:12.822Z</time></trkpt><trkpt lat="45.3673595" lon="11.4109347"><ele>22.0</ele><time>2026-04-18T08:56:13.823Z</time></trkpt><trkpt lat="45.3675282" lon="11.4107009"><ele>22.0</ele><time>2026-04-18T08:56:14.823Z</time></trkpt><trkpt lat="45.3676911" lon="11.4104694"><ele>21.666666666666664</ele><time>2026-04-18T08:56:15.823Z</time></trkpt><trkpt lat="45.3678506" lon="11.4102308"><ele>21.333333333333332</ele><time>2026-04-18T08:56:16.821Z</time></trkpt><trkpt lat="45.3679943" lon="11.4100005"><ele>21.0</ele><time>2026-04-18T08:56:17.823Z</time></trkpt><trkpt lat="45.3681221" lon="11.4097671"><ele>21.333333333333332</ele><time>2026-04-18T08:56:18.823Z</time></trkpt><trkpt lat="45.3682408" lon="11.4095398"><ele>21.666666666666664</ele><time>2026-04-18T08:56:19.823Z</time></trkpt><trkpt lat="45.3683527" lon="11.4093258"><ele>22.0</ele><time>2026-04-18T08:56:20.822Z</time></trkpt><trkpt lat="45.36845" lon="11.4091288"><ele>22.0</ele><time>2026-04-18T08:56:21.819Z</time></trkpt><trkpt lat="45.3685414" lon="11.4089419"><ele>22.0</ele><time>2026-04-18T08:56:22.823Z</time></trkpt><trkpt lat="45.3686226" lon="11.4087712"><ele>22.0</ele><time>2026-04-18T08:56:23.823Z</time></trkpt><trkpt lat="45.3687002" lon="11.408611"><ele>22.0</ele><time>2026-04-18T08:56:24.823Z</time></trkpt><trkpt lat="45.368781" lon="11.4084749"><ele>22.5</ele><time>2026-04-18T08:56:25.821Z</time></trkpt><trkpt lat="45.3688703" lon="11.4083741"><ele>23.0</ele><time>2026-04-18T08:56:26.823Z</time></trkpt><trkpt lat="45.3689724" lon="11.4083079"><ele>23.5</ele><time>2026-04-18T08:56:27.823Z</time></trkpt><trkpt lat="45.3690786" lon="11.4082436"><ele>24.0</ele><time>2026-04-18T08:56:28.82Z</time></trkpt><trkpt lat="45.3691729" lon="11.4081547"><ele>24.0</ele><time>2026-04-18T08:56:29.823Z</time></trkpt><trkpt lat="45.3692403" lon="11.4080357"><ele>24.0</ele><time>2026-04-18T08:56:30.823Z</time></trkpt><trkpt lat="45.3692788" lon="11.4078838"><ele>24.0</ele><time>2026-04-18T08:56:31.821Z</time></trkpt><trkpt lat="45.3692953" lon="11.407706"><ele>24.0</ele><time>2026-04-18T08:56:32.821Z</time></trkpt><trkpt lat="45.3693167" lon="11.4075187"><ele>24.0</ele><time>2026-04-18T08:56:33.823Z</time></trkpt><trkpt lat="45.3693615" lon="11.4073204"><ele>24.0</ele><time>2026-04-18T08:56:34.823Z</time></trkpt><trkpt lat="45.3694309" lon="11.40712"><ele>24.0</ele><time>2026-04-18T08:56:35.821Z</time></trkpt><trkpt lat="45.3695218" lon="11.4069152"><ele>24.0</ele><time>2026-04-18T08:56:36.823Z</time></trkpt><trkpt lat="45.3696164" lon="11.4067193"><ele>24.0</ele><time>2026-04-18T08:56:37.823Z</time></trkpt><trkpt lat="45.3697104" lon="11.4065015"><ele>24.0</ele><time>2026-04-18T08:56:38.822Z</time></trkpt><trkpt lat="45.3698164" lon="11.4062978"><ele>23.666666666666668</ele><time>2026-04-18T08:56:39.823Z</time></trkpt><trkpt lat="45.3699393" lon="11.4060888"><ele>23.333333333333336</ele><time>2026-04-18T08:56:40.821Z</time></trkpt><trkpt lat="45.3700767" lon="11.4058865"><ele>23.0</ele><time>2026-04-18T08:56:41.817Z</time></trkpt><trkpt lat="45.3702291" lon="11.4057034"><ele>23.0</ele><time>2026-04-18T08:56:42.823Z</time></trkpt><trkpt lat="45.3703898" lon="11.4055348"><ele>23.0</ele><time>2026-04-18T08:56:43.823Z</time></trkpt><trkpt lat="45.3705609" lon="11.4053963"><ele>23.0</ele><time>2026-04-18T08:56:44.823Z</time></trkpt><trkpt lat="45.3707358" lon="11.4052766"><ele>23.666666666666668</ele><time>2026-04-18T08:56:45.823Z</time></trkpt><trkpt lat="45.3708999" lon="11.405172"><ele>24.333333333333336</ele><time>2026-04-18T08:56:46.823Z</time></trkpt><trkpt lat="45.371059" lon="11.4050702"><ele>25.0</ele><time>2026-04-18T08:56:47.823Z</time></trkpt><trkpt lat="45.371215" lon="11.4049677"><ele>25.0</ele><time>2026-04-18T08:56:48.823Z</time></trkpt><trkpt lat="45.3713757" lon="11.4048612"><ele>25.0</ele><time>2026-04-18T08:56:49.822Z</time></trkpt><trkpt lat="45.3715396" lon="11.404757"><ele>25.0</ele><time>2026-04-18T08:56:50.822Z</time></trkpt><trkpt lat="45.3717032" lon="11.404649"><ele>24.666666666666668</ele><time>2026-04-18T08:56:51.821Z</time></trkpt><trkpt lat="45.3718683" lon="11.4045406"><ele>24.333333333333336</ele><time>2026-04-18T08:56:52.823Z</time></trkpt><trkpt lat="45.372035" lon="11.4044331"><ele>24.0</ele><time>2026-04-18T08:56:53.822Z</time></trkpt><trkpt lat="45.3722034" lon="11.4043268"><ele>24.0</ele><time>2026-04-18T08:56:54.823Z</time></trkpt><trkpt lat="45.3723701" lon="11.4042213"><ele>24.0</ele><time>2026-04-18T08:56:55.819Z</time></trkpt><trkpt lat="45.3725374" lon="11.4041103"><ele>24.0</ele><time>2026-04-18T08:56:56.821Z</time></trkpt><trkpt lat="45.3727049" lon="11.4040015"><ele>24.0</ele><time>2026-04-18T08:56:57.823Z</time></trkpt><trkpt lat="45.3728745" lon="11.4038947"><ele>24.0</ele><time>2026-04-18T08:56:58.818Z</time></trkpt><trkpt lat="45.3730369" lon="11.4037892"><ele>24.0</ele><time>2026-04-18T08:56:59.822Z</time></trkpt><trkpt lat="45.3731946" lon="11.4036805"><ele>24.333333333333336</ele><time>2026-04-18T08:57:00.823Z</time></trkpt><trkpt lat="45.3733472" lon="11.4035603"><ele>24.666666666666668</ele><time>2026-04-18T08:57:01.822Z</time></trkpt><trkpt lat="45.3734919" lon="11.4034296"><ele>25.0</ele><time>2026-04-18T08:57:02.823Z</time></trkpt><trkpt lat="45.3736301" lon="11.4032951"><ele>25.0</ele><time>2026-04-18T08:57:03.817Z</time></trkpt><trkpt lat="45.373758" lon="11.4031652"><ele>25.0</ele><time>2026-04-18T08:57:04.819Z</time></trkpt><trkpt lat="45.373879" lon="11.4030308"><ele>25.0</ele><time>2026-04-18T08:57:05.823Z</time></trkpt><trkpt lat="45.3739919" lon="11.4028986"><ele>25.25</ele><time>2026-04-18T08:57:06.821Z</time></trkpt><trkpt lat="45.3741008" lon="11.4027696"><ele>25.5</ele><time>2026-04-18T08:57:07.818Z</time></trkpt><trkpt lat="45.3742082" lon="11.40264"><ele>25.75</ele><time>2026-04-18T08:57:08.822Z</time></trkpt><trkpt lat="45.3743144" lon="11.4025151"><ele>26.0</ele><time>2026-04-18T08:57:09.823Z</time></trkpt><trkpt lat="45.3744189" lon="11.4023928"><ele>26.0</ele><time>2026-04-18T08:57:10.82Z</time></trkpt><trkpt lat="45.374523" lon="11.4022759"><ele>26.0</ele><time>2026-04-18T08:57:11.821Z</time></trkpt><trkpt lat="45.3746265" lon="11.402158"><ele>26.0</ele><time>2026-04-18T08:57:12.823Z</time></trkpt><trkpt lat="45.3747306" lon="11.4020363"><ele>26.0</ele><time>2026-04-18T08:57:13.821Z</time></trkpt><trkpt lat="45.3748332" lon="11.4019182"><ele>25.25</ele><time>2026-04-18T08:57:14.823Z</time></trkpt><trkpt lat="45.3749405" lon="11.401795"><ele>24.5</ele><time>2026-04-18T08:57:15.823Z</time></trkpt><trkpt lat="45.3750463" lon="11.4016678"><ele>23.75</ele><time>2026-04-18T08:57:16.819Z</time></trkpt><trkpt lat="45.3751554" lon="11.4015441"><ele>23.0</ele><time>2026-04-18T08:57:17.823Z</time></trkpt><trkpt lat="45.3752662" lon="11.4014221"><ele>23.0</ele><time>2026-04-18T08:57:18.823Z</time></trkpt><trkpt lat="45.3753732" lon="11.4012973"><ele>23.0</ele><time>2026-04-18T08:57:19.823Z</time></trkpt><trkpt lat="45.3754804" lon="11.4011687"><ele>23.0</ele><time>2026-04-18T08:57:20.817Z</time></trkpt><trkpt lat="45.3755923" lon="11.4010353"><ele>23.0</ele><time>2026-04-18T08:57:21.82Z</time></trkpt><trkpt lat="45.375707" lon="11.4009009"><ele>23.333333333333336</ele><time>2026-04-18T08:57:22.823Z</time></trkpt><trkpt lat="45.3758256" lon="11.400766"><ele>23.666666666666668</ele><time>2026-04-18T08:57:23.821Z</time></trkpt><trkpt lat="45.3759435" lon="11.4006287"><ele>24.0</ele><time>2026-04-18T08:57:24.823Z</time></trkpt><trkpt lat="45.3760632" lon="11.4004863"><ele>24.0</ele><time>2026-04-18T08:57:25.823Z</time></trkpt><trkpt lat="45.3761849" lon="11.4003418"><ele>24.0</ele><time>2026-04-18T08:57:26.816Z</time></trkpt><trkpt lat="45.3763097" lon="11.4001952"><ele>24.0</ele><time>2026-04-18T08:57:27.82Z</time></trkpt><trkpt lat="45.3764398" lon="11.4000499"><ele>24.333333333333336</ele><time>2026-04-18T08:57:28.82Z</time></trkpt><trkpt lat="45.3765675" lon="11.3999046"><ele>24.666666666666668</ele><time>2026-04-18T08:57:29.823Z</time></trkpt><trkpt lat="45.3766996" lon="11.3997581"><ele>25.0</ele><time>2026-04-18T08:57:30.823Z</time></trkpt><trkpt lat="45.3768398" lon="11.3996165"><ele>25.0</ele><time>2026-04-18T08:57:31.823Z</time></trkpt><trkpt lat="45.3769864" lon="11.3994863"><ele>25.0</ele><time>2026-04-18T08:57:32.819Z</time></trkpt><trkpt lat="45.3771424" lon="11.3993725"><ele>25.0</ele><time>2026-04-18T08:57:33.82Z</time></trkpt><trkpt lat="45.3773097" lon="11.3992789"><ele>24.666666666666668</ele><time>2026-04-18T08:57:34.822Z</time></trkpt><trkpt lat="45.3774757" lon="11.3991927"><ele>24.333333333333336</ele><time>2026-04-18T08:57:35.823Z</time></trkpt><trkpt lat="45.3776424" lon="11.399109"><ele>24.0</ele><time>2026-04-18T08:57:36.821Z</time></trkpt><trkpt lat="45.377807" lon="11.3990287"><ele>24.0</ele><time>2026-04-18T08:57:37.82Z</time></trkpt><trkpt lat="45.3779676" lon="11.3989514"><ele>24.0</ele><time>2026-04-18T08:57:38.823Z</time></trkpt><trkpt lat="45.3781243" lon="11.3988733"><ele>24.0</ele><time>2026-04-18T08:57:39.821Z</time></trkpt><trkpt lat="45.3782784" lon="11.3987967"><ele>24.333333333333336</ele><time>2026-04-18T08:57:40.823Z</time></trkpt><trkpt lat="45.3784285" lon="11.3987313"><ele>24.666666666666668</ele><time>2026-04-18T08:57:41.823Z</time></trkpt><trkpt lat="45.3785757" lon="11.3986617"><ele>25.0</ele><time>2026-04-18T08:57:42.823Z</time></trkpt><trkpt lat="45.378722" lon="11.3985883"><ele>25.666666666666668</ele><time>2026-04-18T08:57:43.823Z</time></trkpt><trkpt lat="45.378867" lon="11.3985202"><ele>26.333333333333336</ele><time>2026-04-18T08:57:44.823Z</time></trkpt><trkpt lat="45.3790142" lon="11.398454"><ele>27.0</ele><time>2026-04-18T08:57:45.823Z</time></trkpt><trkpt lat="45.3791612" lon="11.3983922"><ele>27.0</ele><time>2026-04-18T08:57:46.823Z</time></trkpt><trkpt lat="45.3793143" lon="11.3983275"><ele>27.0</ele><time>2026-04-18T08:57:47.822Z</time></trkpt><trkpt lat="45.379483" lon="11.39824"><ele>27.0</ele><time>2026-04-18T08:57:48.823Z</time></trkpt><trkpt lat="45.3796579" lon="11.3981411"><ele>26.666666666666664</ele><time>2026-04-18T08:57:49.823Z</time></trkpt><trkpt lat="45.3798311" lon="11.3980394"><ele>26.333333333333332</ele><time>2026-04-18T08:57:50.823Z</time></trkpt><trkpt lat="45.3799964" lon="11.3979355"><ele>26.0</ele><time>2026-04-18T08:57:51.822Z</time></trkpt><trkpt lat="45.3801568" lon="11.3978298"><ele>26.0</ele><time>2026-04-18T08:57:52.823Z</time></trkpt><trkpt lat="45.3803127" lon="11.3977205"><ele>26.0</ele><time>2026-04-18T08:57:53.823Z</time></trkpt><trkpt lat="45.3804584" lon="11.3976096"><ele>26.0</ele><time>2026-04-18T08:57:54.823Z</time></trkpt><trkpt lat="45.3806049" lon="11.3975095"><ele>27.0</ele><time>2026-04-18T08:57:55.823Z</time></trkpt><trkpt lat="45.3807513" lon="11.3974117"><ele>28.0</ele><time>2026-04-18T08:57:56.821Z</time></trkpt><trkpt lat="45.3808961" lon="11.3973162"><ele>29.0</ele><time>2026-04-18T08:57:57.823Z</time></trkpt><trkpt lat="45.3810499" lon="11.3972091"><ele>29.0</ele><time>2026-04-18T08:57:58.821Z</time></trkpt><trkpt lat="45.3811987" lon="11.3971049"><ele>29.0</ele><time>2026-04-18T08:57:59.822Z</time></trkpt><trkpt lat="45.3813317" lon="11.397002"><ele>29.0</ele><time>2026-04-18T08:58:00.823Z</time></trkpt><trkpt lat="45.3814574" lon="11.3968688"><ele>29.0</ele><time>2026-04-18T08:58:01.822Z</time></trkpt><trkpt lat="45.3815782" lon="11.3966755"><ele>29.0</ele><time>2026-04-18T08:58:02.823Z</time></trkpt><trkpt lat="45.3816803" lon="11.3964695"><ele>29.0</ele><time>2026-04-18T08:58:03.823Z</time></trkpt><trkpt lat="45.3817627" lon="11.3962734"><ele>28.5</ele><time>2026-04-18T08:58:04.821Z</time></trkpt><trkpt lat="45.3818465" lon="11.3960785"><ele>28.0</ele><time>2026-04-18T08:58:05.823Z</time></trkpt><trkpt lat="45.381921" lon="11.3959008"><ele>27.5</ele><time>2026-04-18T08:58:06.818Z</time></trkpt><trkpt lat="45.3819907" lon="11.3957251"><ele>27.0</ele><time>2026-04-18T08:58:07.82Z</time></trkpt><trkpt lat="45.3820555" lon="11.3955688"><ele>27.0</ele><time>2026-04-18T08:58:08.823Z</time></trkpt><trkpt lat="45.3821105" lon="11.395438"><ele>27.0</ele><time>2026-04-18T08:58:09.823Z</time></trkpt><trkpt lat="45.3821496" lon="11.3953316"><ele>27.0</ele><time>2026-04-18T08:58:10.824Z</time></trkpt><trkpt lat="45.382179" lon="11.39525"><ele>27.0</ele><time>2026-04-18T08:58:11.821Z</time></trkpt><trkpt lat="45.3822127" lon="11.3951536"><ele>27.0</ele><time>2026-04-18T08:58:13.823Z</time></trkpt><trkpt lat="45.3822659" lon="11.3950484"><ele>27.0</ele><time>2026-04-18T08:58:18.823Z</time></trkpt><trkpt lat="45.3823332" lon="11.3949795"><ele>27.200000000000003</ele><time>2026-04-18T08:58:20.823Z</time></trkpt><trkpt lat="45.3824008" lon="11.3948727"><ele>27.400000000000002</ele><time>2026-04-18T08:58:22.823Z</time></trkpt><trkpt lat="45.382409" lon="11.3947338"><ele>27.599999999999998</ele><time>2026-04-18T08:58:24.821Z</time></trkpt><trkpt lat="45.382362" lon="11.3945754"><ele>27.799999999999997</ele><time>2026-04-18T08:58:26.823Z</time></trkpt><trkpt lat="45.3823546" lon="11.3944707"><ele>28.0</ele><time>2026-04-18T08:58:27.82Z</time></trkpt><trkpt lat="45.3823655" lon="11.3943578"><ele>28.166666666666668</ele><time>2026-04-18T08:58:28.822Z</time></trkpt><trkpt lat="45.3823861" lon="11.3942426"><ele>28.333333333333336</ele><time>2026-04-18T08:58:29.821Z</time></trkpt><trkpt lat="45.3824116" lon="11.394124"><ele>28.5</ele><time>2026-04-18T08:58:30.819Z</time></trkpt><trkpt lat="45.3824362" lon="11.3939942"><ele>28.666666666666664</ele><time>2026-04-18T08:58:31.819Z</time></trkpt><trkpt lat="45.382459" lon="11.3938692"><ele>28.833333333333332</ele><time>2026-04-18T08:58:32.822Z</time></trkpt><trkpt lat="45.3824791" lon="11.3937521"><ele>29.0</ele><time>2026-04-18T08:58:33.822Z</time></trkpt><trkpt lat="45.3825032" lon="11.3936356"><ele>28.999999999999996</ele><time>2026-04-18T08:58:34.823Z</time></trkpt><trkpt lat="45.3825234" lon="11.3935209"><ele>29.0</ele><time>2026-04-18T08:58:35.824Z</time></trkpt><trkpt lat="45.3825448" lon="11.3934063"><ele>29.0</ele><time>2026-04-18T08:58:36.823Z</time></trkpt><trkpt lat="45.3825676" lon="11.3932919"><ele>29.0</ele><time>2026-04-18T08:58:37.823Z</time></trkpt><trkpt lat="45.382586" lon="11.3931752"><ele>28.999999999999996</ele><time>2026-04-18T08:58:38.821Z</time></trkpt><trkpt lat="45.3826057" lon="11.3930583"><ele>29.0</ele><time>2026-04-18T08:58:39.821Z</time></trkpt><trkpt lat="45.3826234" lon="11.392934"><ele>28.799999999999997</ele><time>2026-04-18T08:58:40.817Z</time></trkpt><trkpt lat="45.3826371" lon="11.3928053"><ele>28.599999999999998</ele><time>2026-04-18T08:58:41.823Z</time></trkpt><trkpt lat="45.3826483" lon="11.3926735"><ele>28.4</ele><time>2026-04-18T08:58:42.823Z</time></trkpt><trkpt lat="45.3826606" lon="11.3925288"><ele>28.2</ele><time>2026-04-18T08:58:43.823Z</time></trkpt><trkpt lat="45.3826718" lon="11.3923727"><ele>28.0</ele><time>2026-04-18T08:58:44.82Z</time></trkpt><trkpt lat="45.3826844" lon="11.3922054"><ele>28.2</ele><time>2026-04-18T08:58:45.823Z</time></trkpt><trkpt lat="45.3826922" lon="11.3920358"><ele>28.4</ele><time>2026-04-18T08:58:46.821Z</time></trkpt><trkpt lat="45.3826929" lon="11.3918704"><ele>28.599999999999998</ele><time>2026-04-18T08:58:47.818Z</time></trkpt><trkpt lat="45.3826919" lon="11.3917196"><ele>28.799999999999997</ele><time>2026-04-18T08:58:48.819Z</time></trkpt><trkpt lat="45.3826893" lon="11.3915772"><ele>29.0</ele><time>2026-04-18T08:58:49.823Z</time></trkpt><trkpt lat="45.3826774" lon="11.3914354"><ele>28.799999999999997</ele><time>2026-04-18T08:58:50.823Z</time></trkpt><trkpt lat="45.382662" lon="11.3913012"><ele>28.599999999999998</ele><time>2026-04-18T08:58:51.821Z</time></trkpt><trkpt lat="45.3826444" lon="11.3911585"><ele>28.4</ele><time>2026-04-18T08:58:52.819Z</time></trkpt><trkpt lat="45.3826212" lon="11.3910052"><ele>28.2</ele><time>2026-04-18T08:58:53.823Z</time></trkpt><trkpt lat="45.3826002" lon="11.3908604"><ele>28.0</ele><time>2026-04-18T08:58:54.823Z</time></trkpt><trkpt lat="45.3825764" lon="11.3907179"><ele>28.0</ele><time>2026-04-18T08:58:55.819Z</time></trkpt><trkpt lat="45.3825584" lon="11.3905788"><ele>27.999999999999996</ele><time>2026-04-18T08:58:56.819Z</time></trkpt><trkpt lat="45.3825437" lon="11.3904425"><ele>27.999999999999996</ele><time>2026-04-18T08:58:57.823Z</time></trkpt><trkpt lat="45.3825304" lon="11.3903113"><ele>28.0</ele><time>2026-04-18T08:58:58.821Z</time></trkpt><trkpt lat="45.3825146" lon="11.3901835"><ele>28.0</ele><time>2026-04-18T08:58:59.823Z</time></trkpt><trkpt lat="45.3824998" lon="11.3900643"><ele>28.166666666666668</ele><time>2026-04-18T08:59:00.823Z</time></trkpt><trkpt lat="45.3824817" lon="11.3899562"><ele>28.333333333333336</ele><time>2026-04-18T08:59:01.821Z</time></trkpt><trkpt lat="45.382463" lon="11.3898502"><ele>28.5</ele><time>2026-04-18T08:59:02.823Z</time></trkpt><trkpt lat="45.3824428" lon="11.3897278"><ele>28.666666666666664</ele><time>2026-04-18T08:59:03.819Z</time></trkpt><trkpt lat="45.3824197" lon="11.3895964"><ele>28.833333333333332</ele><time>2026-04-18T08:59:04.819Z</time></trkpt><trkpt lat="45.3823957" lon="11.3894573"><ele>29.0</ele><time>2026-04-18T08:59:05.821Z</time></trkpt><trkpt lat="45.3823756" lon="11.3893165"><ele>29.2</ele><time>2026-04-18T08:59:06.822Z</time></trkpt><trkpt lat="45.3823559" lon="11.3891766"><ele>29.4</ele><time>2026-04-18T08:59:07.819Z</time></trkpt><trkpt lat="45.3823381" lon="11.3890481"><ele>29.6</ele><time>2026-04-18T08:59:08.823Z</time></trkpt><trkpt lat="45.3823198" lon="11.3889194"><ele>29.8</ele><time>2026-04-18T08:59:09.821Z</time></trkpt><trkpt lat="45.3822991" lon="11.3887965"><ele>30.0</ele><time>2026-04-18T08:59:10.822Z</time></trkpt><trkpt lat="45.3822799" lon="11.3886758"><ele>30.0</ele><time>2026-04-18T08:59:11.821Z</time></trkpt><trkpt lat="45.3822621" lon="11.3885595"><ele>30.0</ele><time>2026-04-18T08:59:12.823Z</time></trkpt><trkpt lat="45.3822472" lon="11.388445"><ele>30.0</ele><time>2026-04-18T08:59:13.821Z</time></trkpt><trkpt lat="45.382235" lon="11.3883279"><ele>30.0</ele><time>2026-04-18T08:59:14.823Z</time></trkpt><trkpt lat="45.3822214" lon="11.3882171"><ele>30.0</ele><time>2026-04-18T08:59:15.82Z</time></trkpt><trkpt lat="45.3822078" lon="11.3881084"><ele>30.0</ele><time>2026-04-18T08:59:16.823Z</time></trkpt><trkpt lat="45.3821943" lon="11.3880081"><ele>29.8</ele><time>2026-04-18T08:59:17.821Z</time></trkpt><trkpt lat="45.3821748" lon="11.3878405"><ele>29.6</ele><time>2026-04-18T08:59:19.823Z</time></trkpt><trkpt lat="45.3821676" lon="11.3877042"><ele>29.4</ele><time>2026-04-18T08:59:21.819Z</time></trkpt><trkpt lat="45.3821797" lon="11.3875976"><ele>29.2</ele><time>2026-04-18T08:59:24.823Z</time></trkpt><trkpt lat="45.3822029" lon="11.3874686"><ele>29.0</ele><time>2026-04-18T08:59:26.816Z</time></trkpt><trkpt lat="45.3822092" lon="11.3873213"><ele>28.999999999999996</ele><time>2026-04-18T08:59:28.823Z</time></trkpt><trkpt lat="45.3822378" lon="11.3871582"><ele>29.0</ele><time>2026-04-18T08:59:30.823Z</time></trkpt><trkpt lat="45.3822584" lon="11.3870715"><ele>29.0</ele><time>2026-04-18T08:59:31.818Z</time></trkpt><trkpt lat="45.3822833" lon="11.38698"><ele>29.0</ele><time>2026-04-18T08:59:32.821Z</time></trkpt><trkpt lat="45.3823081" lon="11.3868796"><ele>28.999999999999996</ele><time>2026-04-18T08:59:33.822Z</time></trkpt><trkpt lat="45.3823514" lon="11.3867445"><ele>29.0</ele><time>2026-04-18T08:59:34.823Z</time></trkpt><trkpt lat="45.3824014" lon="11.3866188"><ele>28.999999999999996</ele><time>2026-04-18T08:59:35.822Z</time></trkpt><trkpt lat="45.3824539" lon="11.3865078"><ele>29.0</ele><time>2026-04-18T08:59:36.822Z</time></trkpt><trkpt lat="45.3825081" lon="11.3864078"><ele>29.0</ele><time>2026-04-18T08:59:37.82Z</time></trkpt><trkpt lat="45.382562" lon="11.3863233"><ele>29.0</ele><time>2026-04-18T08:59:38.819Z</time></trkpt><trkpt lat="45.3826143" lon="11.386249"><ele>28.999999999999996</ele><time>2026-04-18T08:59:39.823Z</time></trkpt><trkpt lat="45.3826698" lon="11.3861781"><ele>29.0</ele><time>2026-04-18T08:59:40.823Z</time></trkpt><trkpt lat="45.3827273" lon="11.3861164"><ele>28.999999999999996</ele><time>2026-04-18T08:59:41.822Z</time></trkpt><trkpt lat="45.382791" lon="11.3860638"><ele>29.0</ele><time>2026-04-18T08:59:42.823Z</time></trkpt><trkpt lat="45.3828597" lon="11.3860165"><ele>29.0</ele><time>2026-04-18T08:59:43.817Z</time></trkpt><trkpt lat="45.382934" lon="11.3859756"><ele>29.0</ele><time>2026-04-18T08:59:44.823Z</time></trkpt><trkpt lat="45.3830055" lon="11.3859396"><ele>28.999999999999996</ele><time>2026-04-18T08:59:45.823Z</time></trkpt><trkpt lat="45.3830823" lon="11.3859115"><ele>29.0</ele><time>2026-04-18T08:59:46.82Z</time></trkpt><trkpt lat="45.3831589" lon="11.385895"><ele>28.999999999999996</ele><time>2026-04-18T08:59:47.82Z</time></trkpt><trkpt lat="45.383238" lon="11.3858978"><ele>29.0</ele><time>2026-04-18T08:59:48.82Z</time></trkpt><trkpt lat="45.3833215" lon="11.3859142"><ele>29.0</ele><time>2026-04-18T08:59:49.823Z</time></trkpt><trkpt lat="45.3834068" lon="11.3859289"><ele>29.0</ele><time>2026-04-18T08:59:50.822Z</time></trkpt><trkpt lat="45.3834872" lon="11.3859543"><ele>28.999999999999996</ele><time>2026-04-18T08:59:51.82Z</time></trkpt><trkpt lat="45.3835567" lon="11.3859671"><ele>29.0</ele><time>2026-04-18T08:59:52.823Z</time></trkpt><trkpt lat="45.3836201" lon="11.3859746"><ele>29.0</ele><time>2026-04-18T08:59:53.824Z</time></trkpt><trkpt lat="45.3837273" lon="11.3859988"><ele>29.0</ele><time>2026-04-18T08:59:55.82Z</time></trkpt><trkpt lat="45.3838243" lon="11.3860189"><ele>29.0</ele><time>2026-04-18T08:59:57.823Z</time></trkpt><trkpt lat="45.3839056" lon="11.3860312"><ele>29.0</ele><time>2026-04-18T08:59:59.823Z</time></trkpt><trkpt lat="45.3839877" lon="11.3860475"><ele>29.0</ele><time>2026-04-18T09:00:01.823Z</time></trkpt><trkpt lat="45.3841092" lon="11.3860713"><ele>29.2</ele><time>2026-04-18T09:00:03.823Z</time></trkpt><trkpt lat="45.3841873" lon="11.3860933"><ele>29.4</ele><time>2026-04-18T09:00:04.818Z</time></trkpt><trkpt lat="45.3842592" lon="11.3861086"><ele>29.6</ele><time>2026-04-18T09:00:05.821Z</time></trkpt><trkpt lat="45.3843425" lon="11.3861312"><ele>29.8</ele><time>2026-04-18T09:00:06.818Z</time></trkpt><trkpt lat="45.3844574" lon="11.3861561"><ele>30.0</ele><time>2026-04-18T09:00:07.821Z</time></trkpt><trkpt lat="45.3846018" lon="11.3861924"><ele>29.75</ele><time>2026-04-18T09:00:08.823Z</time></trkpt><trkpt lat="45.3847358" lon="11.3862267"><ele>29.5</ele><time>2026-04-18T09:00:09.816Z</time></trkpt><trkpt lat="45.3848771" lon="11.3862541"><ele>29.25</ele><time>2026-04-18T09:00:10.82Z</time></trkpt><trkpt lat="45.3850124" lon="11.3862841"><ele>29.0</ele><time>2026-04-18T09:00:11.823Z</time></trkpt><trkpt lat="45.3851311" lon="11.3863115"><ele>29.0</ele><time>2026-04-18T09:00:12.823Z</time></trkpt><trkpt lat="45.3852604" lon="11.3863406"><ele>29.0</ele><time>2026-04-18T09:00:13.823Z</time></trkpt><trkpt lat="45.3853882" lon="11.3863679"><ele>29.0</ele><time>2026-04-18T09:00:14.823Z</time></trkpt><trkpt lat="45.3855061" lon="11.3863919"><ele>29.0</ele><time>2026-04-18T09:00:15.823Z</time></trkpt><trkpt lat="45.3856177" lon="11.3864134"><ele>29.4</ele><time>2026-04-18T09:00:16.823Z</time></trkpt><trkpt lat="45.3857215" lon="11.3864333"><ele>29.799999999999997</ele><time>2026-04-18T09:00:17.823Z</time></trkpt><trkpt lat="45.3858191" lon="11.3864562"><ele>30.200000000000003</ele><time>2026-04-18T09:00:18.822Z</time></trkpt><trkpt lat="45.3859151" lon="11.3864782"><ele>30.6</ele><time>2026-04-18T09:00:19.821Z</time></trkpt><trkpt lat="45.3860118" lon="11.3864998"><ele>31.0</ele><time>2026-04-18T09:00:20.819Z</time></trkpt><trkpt lat="45.3861106" lon="11.3865251"><ele>31.0</ele><time>2026-04-18T09:00:21.82Z</time></trkpt><trkpt lat="45.3862145" lon="11.3865526"><ele>31.0</ele><time>2026-04-18T09:00:22.824Z</time></trkpt><trkpt lat="45.386323" lon="11.386575"><ele>31.0</ele><time>2026-04-18T09:00:23.823Z</time></trkpt><trkpt lat="45.3864316" lon="11.3865971"><ele>31.0</ele><time>2026-04-18T09:00:24.823Z</time></trkpt><trkpt lat="45.3865373" lon="11.3866212"><ele>31.0</ele><time>2026-04-18T09:00:25.822Z</time></trkpt><trkpt lat="45.3866408" lon="11.3866405"><ele>31.6</ele><time>2026-04-18T09:00:26.821Z</time></trkpt><trkpt lat="45.3867367" lon="11.3866572"><ele>32.2</ele><time>2026-04-18T09:00:27.819Z</time></trkpt><trkpt lat="45.3868273" lon="11.3866722"><ele>32.8</ele><time>2026-04-18T09:00:28.821Z</time></trkpt><trkpt lat="45.3869138" lon="11.3866868"><ele>33.4</ele><time>2026-04-18T09:00:29.822Z</time></trkpt><trkpt lat="45.3870059" lon="11.386707"><ele>34.0</ele><time>2026-04-18T09:00:30.823Z</time></trkpt><trkpt lat="45.3871034" lon="11.3867399"><ele>33.8</ele><time>2026-04-18T09:00:31.821Z</time></trkpt><trkpt lat="45.3871991" lon="11.3867803"><ele>33.599999999999994</ele><time>2026-04-18T09:00:32.822Z</time></trkpt><trkpt lat="45.3872898" lon="11.3868295"><ele>33.4</ele><time>2026-04-18T09:00:33.823Z</time></trkpt><trkpt lat="45.387375" lon="11.3868889"><ele>33.199999999999996</ele><time>2026-04-18T09:00:34.82Z</time></trkpt><trkpt lat="45.3874576" lon="11.3869626"><ele>33.0</ele><time>2026-04-18T09:00:35.823Z</time></trkpt><trkpt lat="45.3875328" lon="11.3870454"><ele>33.0</ele><time>2026-04-18T09:00:36.822Z</time></trkpt><trkpt lat="45.3876079" lon="11.3871324"><ele>33.0</ele><time>2026-04-18T09:00:37.817Z</time></trkpt><trkpt lat="45.3876788" lon="11.3872268"><ele>33.0</ele><time>2026-04-18T09:00:38.818Z</time></trkpt><trkpt lat="45.387744" lon="11.3873159"><ele>33.0</ele><time>2026-04-18T09:00:39.823Z</time></trkpt><trkpt lat="45.3878013" lon="11.3874068"><ele>33.0</ele><time>2026-04-18T09:00:40.823Z</time></trkpt><trkpt lat="45.3878516" lon="11.3874825"><ele>33.0</ele><time>2026-04-18T09:00:41.821Z</time></trkpt><trkpt lat="45.387924" lon="11.3875986"><ele>33.166666666666664</ele><time>2026-04-18T09:00:43.823Z</time></trkpt><trkpt lat="45.3879737" lon="11.3876772"><ele>33.333333333333336</ele><time>2026-04-18T09:00:46.823Z</time></trkpt><trkpt lat="45.3880167" lon="11.3877773"><ele>33.5</ele><time>2026-04-18T09:00:49.823Z</time></trkpt><trkpt lat="45.3880142" lon="11.3879087"><ele>33.66666666666667</ele><time>2026-04-18T09:00:51.821Z</time></trkpt><trkpt lat="45.3880191" lon="11.3880486"><ele>33.833333333333336</ele><time>2026-04-18T09:00:53.822Z</time></trkpt><trkpt lat="45.3880756" lon="11.3881461"><ele>34.0</ele><time>2026-04-18T09:00:55.817Z</time></trkpt><trkpt lat="45.3881687" lon="11.3881492"><ele>34.16666666666667</ele><time>2026-04-18T09:00:57.823Z</time></trkpt><trkpt lat="45.3882393" lon="11.3880188"><ele>34.333333333333336</ele><time>2026-04-18T09:00:59.823Z</time></trkpt><trkpt lat="45.3882558" lon="11.3879096"><ele>34.5</ele><time>2026-04-18T09:01:00.82Z</time></trkpt><trkpt lat="45.3882622" lon="11.3878091"><ele>34.666666666666664</ele><time>2026-04-18T09:01:01.818Z</time></trkpt><trkpt lat="45.3882718" lon="11.3876949"><ele>34.83333333333333</ele><time>2026-04-18T09:01:03.823Z</time></trkpt><trkpt lat="45.3882888" lon="11.3876026"><ele>35.0</ele><time>2026-04-18T09:01:07.823Z</time></trkpt><trkpt lat="45.3883048" lon="11.3874097"><ele>35.0</ele><time>2026-04-18T09:01:09.82Z</time></trkpt><trkpt lat="45.3883184" lon="11.3872675"><ele>35.0</ele><time>2026-04-18T09:01:10.823Z</time></trkpt><trkpt lat="45.3883317" lon="11.3871057"><ele>35.0</ele><time>2026-04-18T09:01:11.823Z</time></trkpt><trkpt lat="45.388355" lon="11.3869274"><ele>35.0</ele><time>2026-04-18T09:01:12.819Z</time></trkpt><trkpt lat="45.3883784" lon="11.3867425"><ele>35.0</ele><time>2026-04-18T09:01:13.819Z</time></trkpt><trkpt lat="45.3884091" lon="11.3865321"><ele>35.0</ele><time>2026-04-18T09:01:14.817Z</time></trkpt><trkpt lat="45.3884361" lon="11.3863241"><ele>35.0</ele><time>2026-04-18T09:01:15.818Z</time></trkpt><trkpt lat="45.3884575" lon="11.3861317"><ele>35.0</ele><time>2026-04-18T09:01:16.823Z</time></trkpt><trkpt lat="45.3884814" lon="11.3859495"><ele>34.75</ele><time>2026-04-18T09:01:17.823Z</time></trkpt><trkpt lat="45.3885034" lon="11.3857774"><ele>34.5</ele><time>2026-04-18T09:01:18.823Z</time></trkpt><trkpt lat="45.388525" lon="11.3856124"><ele>34.25</ele><time>2026-04-18T09:01:19.818Z</time></trkpt><trkpt lat="45.3885412" lon="11.3854597"><ele>34.0</ele><time>2026-04-18T09:01:20.823Z</time></trkpt><trkpt lat="45.3885609" lon="11.3853148"><ele>33.6</ele><time>2026-04-18T09:01:21.82Z</time></trkpt><trkpt lat="45.3885802" lon="11.3851735"><ele>33.2</ele><time>2026-04-18T09:01:22.819Z</time></trkpt><trkpt lat="45.388596" lon="11.3850411"><ele>32.800000000000004</ele><time>2026-04-18T09:01:23.817Z</time></trkpt><trkpt lat="45.3886119" lon="11.3849055"><ele>32.4</ele><time>2026-04-18T09:01:24.823Z</time></trkpt><trkpt lat="45.3886317" lon="11.3847612"><ele>32.0</ele><time>2026-04-18T09:01:25.823Z</time></trkpt><trkpt lat="45.388649" lon="11.3846043"><ele>31.75</ele><time>2026-04-18T09:01:26.822Z</time></trkpt><trkpt lat="45.3886679" lon="11.3844468"><ele>31.5</ele><time>2026-04-18T09:01:27.823Z</time></trkpt><trkpt lat="45.3886899" lon="11.3842858"><ele>31.25</ele><time>2026-04-18T09:01:28.823Z</time></trkpt><trkpt lat="45.3887095" lon="11.3841198"><ele>31.0</ele><time>2026-04-18T09:01:29.819Z</time></trkpt><trkpt lat="45.3887275" lon="11.3839519"><ele>30.75</ele><time>2026-04-18T09:01:30.821Z</time></trkpt><trkpt lat="45.3887486" lon="11.3837863"><ele>30.5</ele><time>2026-04-18T09:01:31.824Z</time></trkpt><trkpt lat="45.3887677" lon="11.3836204"><ele>30.25</ele><time>2026-04-18T09:01:32.822Z</time></trkpt><trkpt lat="45.3887862" lon="11.3834592"><ele>30.0</ele><time>2026-04-18T09:01:33.822Z</time></trkpt><trkpt lat="45.3888063" lon="11.3832917"><ele>30.0</ele><time>2026-04-18T09:01:34.821Z</time></trkpt><trkpt lat="45.3888252" lon="11.3831277"><ele>30.0</ele><time>2026-04-18T09:01:35.823Z</time></trkpt><trkpt lat="45.3888458" lon="11.3829686"><ele>30.0</ele><time>2026-04-18T09:01:36.823Z</time></trkpt><trkpt lat="45.3888646" lon="11.3828172"><ele>30.0</ele><time>2026-04-18T09:01:37.823Z</time></trkpt><trkpt lat="45.388883" lon="11.3826714"><ele>30.0</ele><time>2026-04-18T09:01:38.823Z</time></trkpt><trkpt lat="45.388896" lon="11.3825332"><ele>29.833333333333332</ele><time>2026-04-18T09:01:39.823Z</time></trkpt><trkpt lat="45.3889098" lon="11.3823939"><ele>29.666666666666664</ele><time>2026-04-18T09:01:40.823Z</time></trkpt><trkpt lat="45.3889259" lon="11.3822635"><ele>29.5</ele><time>2026-04-18T09:01:41.823Z</time></trkpt><trkpt lat="45.3889442" lon="11.3821387"><ele>29.333333333333332</ele><time>2026-04-18T09:01:42.823Z</time></trkpt><trkpt lat="45.3889649" lon="11.382024"><ele>29.166666666666664</ele><time>2026-04-18T09:01:43.823Z</time></trkpt><trkpt lat="45.3889935" lon="11.3819235"><ele>29.0</ele><time>2026-04-18T09:01:44.822Z</time></trkpt><trkpt lat="45.3890456" lon="11.3818077"><ele>29.0</ele><time>2026-04-18T09:01:46.82Z</time></trkpt><trkpt lat="45.3891019" lon="11.381727"><ele>29.0</ele><time>2026-04-18T09:01:50.823Z</time></trkpt><trkpt lat="45.3891514" lon="11.381607"><ele>29.0</ele><time>2026-04-18T09:01:52.822Z</time></trkpt><trkpt lat="45.3891106" lon="11.381481"><ele>29.0</ele><time>2026-04-18T09:01:54.823Z</time></trkpt><trkpt lat="45.3890047" lon="11.3814914"><ele>29.0</ele><time>2026-04-18T09:01:56.823Z</time></trkpt><trkpt lat="45.3889651" lon="11.3816557"><ele>29.0</ele><time>2026-04-18T09:01:58.819Z</time></trkpt><trkpt lat="45.3889547" lon="11.381801"><ele>29.0</ele><time>2026-04-18T09:01:59.823Z</time></trkpt><trkpt lat="45.3889303" lon="11.3819816"><ele>29.0</ele><time>2026-04-18T09:02:00.823Z</time></trkpt><trkpt lat="45.3889088" lon="11.3821699"><ele>29.0</ele><time>2026-04-18T09:02:01.823Z</time></trkpt><trkpt lat="45.3888822" lon="11.3823974"><ele>29.0</ele><time>2026-04-18T09:02:02.821Z</time></trkpt><trkpt lat="45.3888515" lon="11.3826595"><ele>29.0</ele><time>2026-04-18T09:02:03.818Z</time></trkpt><trkpt lat="45.3888188" lon="11.382928"><ele>29.0</ele><time>2026-04-18T09:02:04.822Z</time></trkpt><trkpt lat="45.3887894" lon="11.3831696"><ele>29.25</ele><time>2026-04-18T09:02:05.823Z</time></trkpt><trkpt lat="45.3887623" lon="11.3833864"><ele>29.5</ele><time>2026-04-18T09:02:06.819Z</time></trkpt><trkpt lat="45.3887387" lon="11.3835824"><ele>29.75</ele><time>2026-04-18T09:02:07.819Z</time></trkpt><trkpt lat="45.3887187" lon="11.3837569"><ele>30.0</ele><time>2026-04-18T09:02:08.822Z</time></trkpt><trkpt lat="45.3886992" lon="11.3839185"><ele>30.2</ele><time>2026-04-18T09:02:09.823Z</time></trkpt><trkpt lat="45.3886767" lon="11.3840821"><ele>30.4</ele><time>2026-04-18T09:02:10.817Z</time></trkpt><trkpt lat="45.3886501" lon="11.3842413"><ele>30.6</ele><time>2026-04-18T09:02:11.818Z</time></trkpt><trkpt lat="45.3886307" lon="11.3843943"><ele>30.8</ele><time>2026-04-18T09:02:12.822Z</time></trkpt><trkpt lat="45.3886135" lon="11.3845212"><ele>31.0</ele><time>2026-04-18T09:02:13.819Z</time></trkpt><trkpt lat="45.3885988" lon="11.3846544"><ele>31.200000000000003</ele><time>2026-04-18T09:02:15.82Z</time></trkpt><trkpt lat="45.3885852" lon="11.3847702"><ele>31.400000000000002</ele><time>2026-04-18T09:02:18.823Z</time></trkpt><trkpt lat="45.3885688" lon="11.3848733"><ele>31.6</ele><time>2026-04-18T09:02:20.823Z</time></trkpt><trkpt lat="45.3885512" lon="11.385009"><ele>31.8</ele><time>2026-04-18T09:02:22.823Z</time></trkpt><trkpt lat="45.3885367" lon="11.3851519"><ele>32.0</ele><time>2026-04-18T09:02:24.821Z</time></trkpt><trkpt lat="45.3885217" lon="11.3852934"><ele>31.999999999999996</ele><time>2026-04-18T09:02:26.815Z</time></trkpt><trkpt lat="45.3885006" lon="11.3854486"><ele>32.0</ele><time>2026-04-18T09:02:28.823Z</time></trkpt><trkpt lat="45.3884794" lon="11.3856242"><ele>32.0</ele><time>2026-04-18T09:02:30.821Z</time></trkpt><trkpt lat="45.3884649" lon="11.3857191"><ele>32.0</ele><time>2026-04-18T09:02:31.823Z</time></trkpt><trkpt lat="45.3884502" lon="11.385818"><ele>31.999999999999996</ele><time>2026-04-18T09:02:32.82Z</time></trkpt><trkpt lat="45.3884361" lon="11.3859187"><ele>32.0</ele><time>2026-04-18T09:02:33.823Z</time></trkpt><trkpt lat="45.3884233" lon="11.3860207"><ele>32.4</ele><time>2026-04-18T09:02:34.817Z</time></trkpt><trkpt lat="45.3884062" lon="11.3861374"><ele>32.800000000000004</ele><time>2026-04-18T09:02:35.821Z</time></trkpt><trkpt lat="45.3883911" lon="11.38626"><ele>33.2</ele><time>2026-04-18T09:02:36.823Z</time></trkpt><trkpt lat="45.3883764" lon="11.3863925"><ele>33.6</ele><time>2026-04-18T09:02:37.823Z</time></trkpt><trkpt lat="45.3883567" lon="11.386533"><ele>34.0</ele><time>2026-04-18T09:02:38.821Z</time></trkpt><trkpt lat="45.3883385" lon="11.3866872"><ele>34.16666666666667</ele><time>2026-04-18T09:02:39.823Z</time></trkpt><trkpt lat="45.3883244" lon="11.3868305"><ele>34.333333333333336</ele><time>2026-04-18T09:02:40.82Z</time></trkpt><trkpt lat="45.3883116" lon="11.3869625"><ele>34.5</ele><time>2026-04-18T09:02:41.817Z</time></trkpt><trkpt lat="45.388299" lon="11.3870861"><ele>34.666666666666664</ele><time>2026-04-18T09:02:42.82Z</time></trkpt><trkpt lat="45.3882868" lon="11.3872093"><ele>34.83333333333333</ele><time>2026-04-18T09:02:43.823Z</time></trkpt><trkpt lat="45.3882751" lon="11.3873197"><ele>35.0</ele><time>2026-04-18T09:02:44.82Z</time></trkpt><trkpt lat="45.388269" lon="11.3874226"><ele>35.0</ele><time>2026-04-18T09:02:45.822Z</time></trkpt><trkpt lat="45.3882611" lon="11.3875162"><ele>35.0</ele><time>2026-04-18T09:02:46.817Z</time></trkpt><trkpt lat="45.3882439" lon="11.387652"><ele>35.0</ele><time>2026-04-18T09:02:48.82Z</time></trkpt><trkpt lat="45.3882072" lon="11.3877334"><ele>35.0</ele><time>2026-04-18T09:02:50.82Z</time></trkpt><trkpt lat="45.3881443" lon="11.3877991"><ele>35.0</ele><time>2026-04-18T09:02:54.823Z</time></trkpt><trkpt lat="45.3880503" lon="11.3878942"><ele>35.0</ele><time>2026-04-18T09:02:56.823Z</time></trkpt><trkpt lat="45.3880226" lon="11.3879761"><ele>35.2</ele><time>2026-04-18T09:02:57.823Z</time></trkpt><trkpt lat="45.388063" lon="11.3881393"><ele>35.4</ele><time>2026-04-18T09:02:59.818Z</time></trkpt><trkpt lat="45.3881184" lon="11.3881926"><ele>35.6</ele><time>2026-04-18T09:03:00.818Z</time></trkpt><trkpt lat="45.3881753" lon="11.388231"><ele>35.8</ele><time>2026-04-18T09:03:01.823Z</time></trkpt><trkpt lat="45.388268" lon="11.3883049"><ele>36.0</ele><time>2026-04-18T09:03:03.821Z</time></trkpt><trkpt lat="45.3883694" lon="11.3883747"><ele>36.0</ele><time>2026-04-18T09:03:05.823Z</time></trkpt><trkpt lat="45.3884801" lon="11.3884092"><ele>36.0</ele><time>2026-04-18T09:03:07.823Z</time></trkpt><trkpt lat="45.3885794" lon="11.388373"><ele>36.0</ele><time>2026-04-18T09:03:09.823Z</time></trkpt><trkpt lat="45.3886284" lon="11.3882925"><ele>36.0</ele><time>2026-04-18T09:03:12.818Z</time></trkpt></trkseg><trkseg><trkpt lat="45.3885642" lon="11.3882851"><ele>36.0</ele><time>2026-04-18T09:32:59.777Z</time></trkpt><trkpt lat="45.3885065" lon="11.3883283"><ele>36.0</ele><time>2026-04-18T09:33:02.777Z</time></trkpt><trkpt lat="45.3884329" lon="11.3883382"><ele>36.0</ele><time>2026-04-18T09:33:06.777Z</time></trkpt><trkpt lat="45.3883386" lon="11.3883132"><ele>36.0</ele><time>2026-04-18T09:33:13.777Z</time></trkpt><trkpt lat="45.3882861" lon="11.3882012"><ele>36.0</ele><time>2026-04-18T09:33:15.777Z</time></trkpt><trkpt lat="45.3882707" lon="11.3880814"><ele>36.0</ele><time>2026-04-18T09:33:17.777Z</time></trkpt><trkpt lat="45.3882689" lon="11.3879812"><ele>35.75</ele><time>2026-04-18T09:33:18.777Z</time></trkpt><trkpt lat="45.3882728" lon="11.3878339"><ele>35.5</ele><time>2026-04-18T09:33:19.777Z</time></trkpt><trkpt lat="45.3882814" lon="11.3876752"><ele>35.25</ele><time>2026-04-18T09:33:20.777Z</time></trkpt><trkpt lat="45.3882916" lon="11.3874956"><ele>35.0</ele><time>2026-04-18T09:33:21.777Z</time></trkpt><trkpt lat="45.3882992" lon="11.3873316"><ele>35.0</ele><time>2026-04-18T09:33:22.777Z</time></trkpt><trkpt lat="45.3883109" lon="11.387182"><ele>35.0</ele><time>2026-04-18T09:33:23.777Z</time></trkpt><trkpt lat="45.3883217" lon="11.3870461"><ele>35.0</ele><time>2026-04-18T09:33:24.777Z</time></trkpt><trkpt lat="45.388336" lon="11.3869227"><ele>35.0</ele><time>2026-04-18T09:33:25.777Z</time></trkpt><trkpt lat="45.3883452" lon="11.3868242"><ele>35.0</ele><time>2026-04-18T09:33:26.777Z</time></trkpt><trkpt lat="45.3883669" lon="11.3866036"><ele>35.0</ele><time>2026-04-18T09:33:28.777Z</time></trkpt><trkpt lat="45.388395" lon="11.386441"><ele>35.0</ele><time>2026-04-18T09:33:29.777Z</time></trkpt><trkpt lat="45.3884198" lon="11.3862714"><ele>35.0</ele><time>2026-04-18T09:33:30.777Z</time></trkpt><trkpt lat="45.3884425" lon="11.3860814"><ele>35.0</ele><time>2026-04-18T09:33:31.777Z</time></trkpt><trkpt lat="45.3884691" lon="11.3858943"><ele>34.8</ele><time>2026-04-18T09:33:32.777Z</time></trkpt><trkpt lat="45.3884946" lon="11.3857213"><ele>34.6</ele><time>2026-04-18T09:33:33.777Z</time></trkpt><trkpt lat="45.3885157" lon="11.3855641"><ele>34.4</ele><time>2026-04-18T09:33:34.777Z</time></trkpt><trkpt lat="45.388534" lon="11.3854203"><ele>34.2</ele><time>2026-04-18T09:33:35.777Z</time></trkpt><trkpt lat="45.388551" lon="11.3852837"><ele>34.0</ele><time>2026-04-18T09:33:36.778Z</time></trkpt><trkpt lat="45.3885679" lon="11.3851592"><ele>33.6</ele><time>2026-04-18T09:33:37.777Z</time></trkpt><trkpt lat="45.3885822" lon="11.385038"><ele>33.2</ele><time>2026-04-18T09:33:38.777Z</time></trkpt><trkpt lat="45.3885986" lon="11.38491"><ele>32.800000000000004</ele><time>2026-04-18T09:33:39.778Z</time></trkpt><trkpt lat="45.3886191" lon="11.3847582"><ele>32.4</ele><time>2026-04-18T09:33:40.777Z</time></trkpt><trkpt lat="45.3886373" lon="11.3846014"><ele>32.0</ele><time>2026-04-18T09:33:41.777Z</time></trkpt><trkpt lat="45.3886543" lon="11.3844514"><ele>31.75</ele><time>2026-04-18T09:33:42.777Z</time></trkpt><trkpt lat="45.3886681" lon="11.3843073"><ele>31.5</ele><time>2026-04-18T09:33:43.777Z</time></trkpt><trkpt lat="45.3886876" lon="11.3841642"><ele>31.25</ele><time>2026-04-18T09:33:44.777Z</time></trkpt><trkpt lat="45.3887067" lon="11.3839997"><ele>31.0</ele><time>2026-04-18T09:33:45.777Z</time></trkpt><trkpt lat="45.3887316" lon="11.3838097"><ele>30.75</ele><time>2026-04-18T09:33:46.777Z</time></trkpt><trkpt lat="45.3887545" lon="11.3836095"><ele>30.5</ele><time>2026-04-18T09:33:47.777Z</time></trkpt><trkpt lat="45.3887778" lon="11.3834019"><ele>30.25</ele><time>2026-04-18T09:33:48.777Z</time></trkpt><trkpt lat="45.3888036" lon="11.3832034"><ele>30.0</ele><time>2026-04-18T09:33:49.777Z</time></trkpt><trkpt lat="45.3888271" lon="11.3830112"><ele>29.75</ele><time>2026-04-18T09:33:50.777Z</time></trkpt><trkpt lat="45.3888474" lon="11.3828285"><ele>29.5</ele><time>2026-04-18T09:33:51.777Z</time></trkpt><trkpt lat="45.3888663" lon="11.3826571"><ele>29.25</ele><time>2026-04-18T09:33:52.777Z</time></trkpt><trkpt lat="45.3888898" lon="11.3824912"><ele>29.0</ele><time>2026-04-18T09:33:53.777Z</time></trkpt><trkpt lat="45.3889089" lon="11.3823381"><ele>28.999999999999996</ele><time>2026-04-18T09:33:54.777Z</time></trkpt><trkpt lat="45.3889272" lon="11.3821863"><ele>29.0</ele><time>2026-04-18T09:33:55.778Z</time></trkpt><trkpt lat="45.3889515" lon="11.3820512"><ele>29.0</ele><time>2026-04-18T09:33:56.777Z</time></trkpt><trkpt lat="45.388982" lon="11.3819322"><ele>29.0</ele><time>2026-04-18T09:33:57.777Z</time></trkpt><trkpt lat="45.3890258" lon="11.3818397"><ele>28.999999999999996</ele><time>2026-04-18T09:33:58.777Z</time></trkpt><trkpt lat="45.3890778" lon="11.3817636"><ele>29.0</ele><time>2026-04-18T09:33:59.777Z</time></trkpt><trkpt lat="45.3891225" lon="11.3816651"><ele>29.0</ele><time>2026-04-18T09:34:00.777Z</time></trkpt><trkpt lat="45.3891404" lon="11.3815451"><ele>29.0</ele><time>2026-04-18T09:34:01.777Z</time></trkpt><trkpt lat="45.3891305" lon="11.3814074"><ele>29.0</ele><time>2026-04-18T09:34:02.778Z</time></trkpt><trkpt lat="45.3891087" lon="11.3812478"><ele>29.0</ele><time>2026-04-18T09:34:03.777Z</time></trkpt><trkpt lat="45.389116" lon="11.3810997"><ele>29.0</ele><time>2026-04-18T09:34:04.777Z</time></trkpt><trkpt lat="45.3891362" lon="11.3809361"><ele>28.799999999999997</ele><time>2026-04-18T09:34:05.777Z</time></trkpt><trkpt lat="45.3891593" lon="11.3807604"><ele>28.599999999999998</ele><time>2026-04-18T09:34:06.777Z</time></trkpt><trkpt lat="45.3891829" lon="11.3806075"><ele>28.4</ele><time>2026-04-18T09:34:07.777Z</time></trkpt><trkpt lat="45.3892068" lon="11.3804601"><ele>28.2</ele><time>2026-04-18T09:34:08.777Z</time></trkpt><trkpt lat="45.3892346" lon="11.3803153"><ele>28.0</ele><time>2026-04-18T09:34:09.777Z</time></trkpt><trkpt lat="45.3892628" lon="11.3801626"><ele>28.0</ele><time>2026-04-18T09:34:10.777Z</time></trkpt><trkpt lat="45.389287" lon="11.3800145"><ele>27.999999999999996</ele><time>2026-04-18T09:34:11.778Z</time></trkpt><trkpt lat="45.3893136" lon="11.3798734"><ele>27.999999999999996</ele><time>2026-04-18T09:34:12.777Z</time></trkpt><trkpt lat="45.3893443" lon="11.3797254"><ele>28.0</ele><time>2026-04-18T09:34:13.777Z</time></trkpt><trkpt lat="45.3893726" lon="11.3795554"><ele>28.0</ele><time>2026-04-18T09:34:14.777Z</time></trkpt><trkpt lat="45.3893959" lon="11.3793857"><ele>28.0</ele><time>2026-04-18T09:34:15.777Z</time></trkpt><trkpt lat="45.3894096" lon="11.3791992"><ele>28.0</ele><time>2026-04-18T09:34:16.777Z</time></trkpt><trkpt lat="45.3894201" lon="11.3790174"><ele>28.0</ele><time>2026-04-18T09:34:17.777Z</time></trkpt><trkpt lat="45.3894315" lon="11.37885"><ele>28.0</ele><time>2026-04-18T09:34:18.777Z</time></trkpt><trkpt lat="45.3894385" lon="11.3786823"><ele>28.0</ele><time>2026-04-18T09:34:19.777Z</time></trkpt><trkpt lat="45.3894465" lon="11.37851"><ele>28.0</ele><time>2026-04-18T09:34:20.777Z</time></trkpt><trkpt lat="45.3894523" lon="11.3783345"><ele>28.0</ele><time>2026-04-18T09:34:21.777Z</time></trkpt><trkpt lat="45.3894557" lon="11.3781618"><ele>28.0</ele><time>2026-04-18T09:34:22.777Z</time></trkpt><trkpt lat="45.3894608" lon="11.3779874"><ele>28.25</ele><time>2026-04-18T09:34:23.777Z</time></trkpt><trkpt lat="45.3894646" lon="11.3777972"><ele>28.5</ele><time>2026-04-18T09:34:24.778Z</time></trkpt><trkpt lat="45.3894684" lon="11.3776063"><ele>28.75</ele><time>2026-04-18T09:34:25.777Z</time></trkpt><trkpt lat="45.3894747" lon="11.3774113"><ele>29.0</ele><time>2026-04-18T09:34:26.777Z</time></trkpt><trkpt lat="45.3894859" lon="11.3772114"><ele>28.75</ele><time>2026-04-18T09:34:27.777Z</time></trkpt><trkpt lat="45.3894915" lon="11.377016"><ele>28.5</ele><time>2026-04-18T09:34:28.777Z</time></trkpt><trkpt lat="45.3895008" lon="11.3768113"><ele>28.25</ele><time>2026-04-18T09:34:29.777Z</time></trkpt><trkpt lat="45.3895059" lon="11.3766118"><ele>28.0</ele><time>2026-04-18T09:34:30.777Z</time></trkpt><trkpt lat="45.3895115" lon="11.3764131"><ele>28.0</ele><time>2026-04-18T09:34:31.777Z</time></trkpt><trkpt lat="45.3895168" lon="11.3762226"><ele>28.0</ele><time>2026-04-18T09:34:32.777Z</time></trkpt><trkpt lat="45.3895235" lon="11.3760347"><ele>28.0</ele><time>2026-04-18T09:34:33.777Z</time></trkpt><trkpt lat="45.3895297" lon="11.3758717"><ele>28.0</ele><time>2026-04-18T09:34:34.778Z</time></trkpt><trkpt lat="45.3895363" lon="11.3757138"><ele>28.0</ele><time>2026-04-18T09:34:35.777Z</time></trkpt><trkpt lat="45.3895403" lon="11.3755495"><ele>28.0</ele><time>2026-04-18T09:34:36.777Z</time></trkpt><trkpt lat="45.3895475" lon="11.3753875"><ele>28.0</ele><time>2026-04-18T09:34:37.777Z</time></trkpt><trkpt lat="45.3895542" lon="11.3752287"><ele>28.0</ele><time>2026-04-18T09:34:38.777Z</time></trkpt><trkpt lat="45.3895654" lon="11.3750656"><ele>28.0</ele><time>2026-04-18T09:34:39.777Z</time></trkpt><trkpt lat="45.3895791" lon="11.3748996"><ele>28.0</ele><time>2026-04-18T09:34:40.778Z</time></trkpt><trkpt lat="45.3895941" lon="11.3747325"><ele>28.0</ele><time>2026-04-18T09:34:41.777Z</time></trkpt><trkpt lat="45.3896161" lon="11.3745719"><ele>28.0</ele><time>2026-04-18T09:34:42.778Z</time></trkpt><trkpt lat="45.3896369" lon="11.3744104"><ele>27.75</ele><time>2026-04-18T09:34:43.777Z</time></trkpt><trkpt lat="45.3896644" lon="11.37425"><ele>27.5</ele><time>2026-04-18T09:34:44.777Z</time></trkpt><trkpt lat="45.3896915" lon="11.3740936"><ele>27.25</ele><time>2026-04-18T09:34:45.777Z</time></trkpt><trkpt lat="45.3897235" lon="11.3739372"><ele>27.0</ele><time>2026-04-18T09:34:46.777Z</time></trkpt><trkpt lat="45.389758" lon="11.3737797"><ele>27.5</ele><time>2026-04-18T09:34:47.777Z</time></trkpt><trkpt lat="45.3897974" lon="11.3736258"><ele>28.0</ele><time>2026-04-18T09:34:48.777Z</time></trkpt><trkpt lat="45.3898372" lon="11.3734713"><ele>28.5</ele><time>2026-04-18T09:34:49.777Z</time></trkpt><trkpt lat="45.3898811" lon="11.3733176"><ele>29.0</ele><time>2026-04-18T09:34:50.777Z</time></trkpt><trkpt lat="45.3899281" lon="11.3731662"><ele>29.5</ele><time>2026-04-18T09:34:51.777Z</time></trkpt><trkpt lat="45.389975" lon="11.3730137"><ele>30.0</ele><time>2026-04-18T09:34:52.777Z</time></trkpt><trkpt lat="45.3900254" lon="11.3728622"><ele>30.5</ele><time>2026-04-18T09:34:53.777Z</time></trkpt><trkpt lat="45.3900723" lon="11.3727099"><ele>31.0</ele><time>2026-04-18T09:34:54.777Z</time></trkpt><trkpt lat="45.3901212" lon="11.3725577"><ele>31.0</ele><time>2026-04-18T09:34:55.777Z</time></trkpt><trkpt lat="45.3901704" lon="11.3724085"><ele>31.0</ele><time>2026-04-18T09:34:56.777Z</time></trkpt><trkpt lat="45.3902154" lon="11.3722574"><ele>31.0</ele><time>2026-04-18T09:34:57.777Z</time></trkpt><trkpt lat="45.390262" lon="11.3721138"><ele>31.0</ele><time>2026-04-18T09:34:58.777Z</time></trkpt><trkpt lat="45.3903069" lon="11.3719792"><ele>31.0</ele><time>2026-04-18T09:34:59.777Z</time></trkpt><trkpt lat="45.3903505" lon="11.3718486"><ele>30.833333333333336</ele><time>2026-04-18T09:35:00.777Z</time></trkpt><trkpt lat="45.3903938" lon="11.3717188"><ele>30.666666666666668</ele><time>2026-04-18T09:35:01.777Z</time></trkpt><trkpt lat="45.3904315" lon="11.3716027"><ele>30.5</ele><time>2026-04-18T09:35:02.777Z</time></trkpt><trkpt lat="45.3904697" lon="11.3714892"><ele>30.333333333333336</ele><time>2026-04-18T09:35:03.777Z</time></trkpt><trkpt lat="45.3905095" lon="11.3713864"><ele>30.166666666666668</ele><time>2026-04-18T09:35:04.777Z</time></trkpt><trkpt lat="45.3905465" lon="11.3712884"><ele>30.0</ele><time>2026-04-18T09:35:05.777Z</time></trkpt><trkpt lat="45.3905826" lon="11.3712027"><ele>29.833333333333332</ele><time>2026-04-18T09:35:06.777Z</time></trkpt><trkpt lat="45.3906222" lon="11.3711209"><ele>29.666666666666664</ele><time>2026-04-18T09:35:07.777Z</time></trkpt><trkpt lat="45.3906729" lon="11.3710283"><ele>29.5</ele><time>2026-04-18T09:35:08.777Z</time></trkpt><trkpt lat="45.3907192" lon="11.3709382"><ele>29.333333333333332</ele><time>2026-04-18T09:35:09.777Z</time></trkpt><trkpt lat="45.3907606" lon="11.3708435"><ele>29.166666666666664</ele><time>2026-04-18T09:35:10.777Z</time></trkpt><trkpt lat="45.3908019" lon="11.370738"><ele>29.0</ele><time>2026-04-18T09:35:11.777Z</time></trkpt><trkpt lat="45.3908354" lon="11.3706479"><ele>28.999999999999996</ele><time>2026-04-18T09:35:12.777Z</time></trkpt><trkpt lat="45.3908688" lon="11.3705632"><ele>29.0</ele><time>2026-04-18T09:35:13.777Z</time></trkpt><trkpt lat="45.3909017" lon="11.3704715"><ele>29.0</ele><time>2026-04-18T09:35:14.777Z</time></trkpt><trkpt lat="45.3909382" lon="11.3703815"><ele>29.0</ele><time>2026-04-18T09:35:15.777Z</time></trkpt><trkpt lat="45.3909686" lon="11.3702929"><ele>28.999999999999996</ele><time>2026-04-18T09:35:16.777Z</time></trkpt><trkpt lat="45.3910177" lon="11.3701504"><ele>29.0</ele><time>2026-04-18T09:35:18.777Z</time></trkpt><trkpt lat="45.3910827" lon="11.3700207"><ele>28.75</ele><time>2026-04-18T09:35:20.777Z</time></trkpt><trkpt lat="45.3911231" lon="11.3698809"><ele>28.5</ele><time>2026-04-18T09:35:21.777Z</time></trkpt><trkpt lat="45.3911812" lon="11.3697067"><ele>28.25</ele><time>2026-04-18T09:35:22.777Z</time></trkpt><trkpt lat="45.3912383" lon="11.3695411"><ele>28.0</ele><time>2026-04-18T09:35:23.777Z</time></trkpt><trkpt lat="45.3912968" lon="11.3693723"><ele>27.75</ele><time>2026-04-18T09:35:24.777Z</time></trkpt><trkpt lat="45.3913597" lon="11.3692063"><ele>27.5</ele><time>2026-04-18T09:35:25.777Z</time></trkpt><trkpt lat="45.3914187" lon="11.3690369"><ele>27.25</ele><time>2026-04-18T09:35:26.777Z</time></trkpt><trkpt lat="45.3914782" lon="11.3688637"><ele>27.0</ele><time>2026-04-18T09:35:27.777Z</time></trkpt><trkpt lat="45.391539" lon="11.3686896"><ele>27.0</ele><time>2026-04-18T09:35:28.777Z</time></trkpt><trkpt lat="45.3916011" lon="11.3685115"><ele>27.0</ele><time>2026-04-18T09:35:29.777Z</time></trkpt><trkpt lat="45.3916649" lon="11.3683365"><ele>27.0</ele><time>2026-04-18T09:35:30.777Z</time></trkpt><trkpt lat="45.3917262" lon="11.368161"><ele>27.0</ele><time>2026-04-18T09:35:31.777Z</time></trkpt><trkpt lat="45.3917881" lon="11.3679827"><ele>27.0</ele><time>2026-04-18T09:35:32.777Z</time></trkpt><trkpt lat="45.3918486" lon="11.3677969"><ele>27.0</ele><time>2026-04-18T09:35:33.777Z</time></trkpt><trkpt lat="45.391914" lon="11.3676039"><ele>27.0</ele><time>2026-04-18T09:35:34.777Z</time></trkpt><trkpt lat="45.3919894" lon="11.3674011"><ele>27.0</ele><time>2026-04-18T09:35:35.777Z</time></trkpt><trkpt lat="45.3920656" lon="11.3672015"><ele>27.0</ele><time>2026-04-18T09:35:36.777Z</time></trkpt><trkpt lat="45.3921369" lon="11.3669905"><ele>27.0</ele><time>2026-04-18T09:35:37.777Z</time></trkpt><trkpt lat="45.3922088" lon="11.3667818"><ele>27.0</ele><time>2026-04-18T09:35:38.777Z</time></trkpt><trkpt lat="45.3922815" lon="11.3665796"><ele>27.0</ele><time>2026-04-18T09:35:39.777Z</time></trkpt><trkpt lat="45.3923478" lon="11.3663938"><ele>27.0</ele><time>2026-04-18T09:35:40.777Z</time></trkpt><trkpt lat="45.3924162" lon="11.3662146"><ele>27.0</ele><time>2026-04-18T09:35:41.777Z</time></trkpt><trkpt lat="45.3924741" lon="11.3660426"><ele>27.0</ele><time>2026-04-18T09:35:42.777Z</time></trkpt><trkpt lat="45.3925333" lon="11.3658764"><ele>27.0</ele><time>2026-04-18T09:35:43.777Z</time></trkpt><trkpt lat="45.3925948" lon="11.3657095"><ele>27.0</ele><time>2026-04-18T09:35:44.777Z</time></trkpt><trkpt lat="45.3926572" lon="11.3655343"><ele>27.0</ele><time>2026-04-18T09:35:45.777Z</time></trkpt><trkpt lat="45.3927156" lon="11.3653598"><ele>27.0</ele><time>2026-04-18T09:35:46.777Z</time></trkpt><trkpt lat="45.3927769" lon="11.3651814"><ele>27.0</ele><time>2026-04-18T09:35:47.777Z</time></trkpt><trkpt lat="45.3928449" lon="11.3649864"><ele>27.0</ele><time>2026-04-18T09:35:48.777Z</time></trkpt><trkpt lat="45.3929163" lon="11.3647882"><ele>27.0</ele><time>2026-04-18T09:35:49.777Z</time></trkpt><trkpt lat="45.3929876" lon="11.3645908"><ele>27.0</ele><time>2026-04-18T09:35:50.777Z</time></trkpt><trkpt lat="45.3930538" lon="11.364397"><ele>27.0</ele><time>2026-04-18T09:35:51.777Z</time></trkpt><trkpt lat="45.3931169" lon="11.3642068"><ele>27.0</ele><time>2026-04-18T09:35:52.777Z</time></trkpt><trkpt lat="45.3931832" lon="11.3640156"><ele>27.0</ele><time>2026-04-18T09:35:53.777Z</time></trkpt><trkpt lat="45.3932465" lon="11.363835"><ele>26.5</ele><time>2026-04-18T09:35:54.777Z</time></trkpt><trkpt lat="45.3933057" lon="11.3636611"><ele>26.0</ele><time>2026-04-18T09:35:55.777Z</time></trkpt><trkpt lat="45.3933654" lon="11.3634991"><ele>25.5</ele><time>2026-04-18T09:35:56.777Z</time></trkpt><trkpt lat="45.3934217" lon="11.3633479"><ele>25.0</ele><time>2026-04-18T09:35:57.777Z</time></trkpt><trkpt lat="45.3934759" lon="11.3632067"><ele>25.0</ele><time>2026-04-18T09:35:58.777Z</time></trkpt><trkpt lat="45.3935287" lon="11.3630735"><ele>25.0</ele><time>2026-04-18T09:35:59.777Z</time></trkpt><trkpt lat="45.3935876" lon="11.3629429"><ele>25.0</ele><time>2026-04-18T09:36:00.777Z</time></trkpt><trkpt lat="45.3936552" lon="11.3628109"><ele>25.0</ele><time>2026-04-18T09:36:01.777Z</time></trkpt><trkpt lat="45.3937233" lon="11.3626807"><ele>25.0</ele><time>2026-04-18T09:36:02.777Z</time></trkpt><trkpt lat="45.3937963" lon="11.3625588"><ele>25.0</ele><time>2026-04-18T09:36:03.777Z</time></trkpt><trkpt lat="45.3938746" lon="11.362435"><ele>25.0</ele><time>2026-04-18T09:36:04.777Z</time></trkpt><trkpt lat="45.3939561" lon="11.3623164"><ele>25.0</ele><time>2026-04-18T09:36:05.777Z</time></trkpt><trkpt lat="45.3940429" lon="11.3622021"><ele>25.0</ele><time>2026-04-18T09:36:06.778Z</time></trkpt><trkpt lat="45.3941233" lon="11.3620974"><ele>25.0</ele><time>2026-04-18T09:36:07.777Z</time></trkpt><trkpt lat="45.3942084" lon="11.3619989"><ele>25.0</ele><time>2026-04-18T09:36:08.777Z</time></trkpt><trkpt lat="45.3942969" lon="11.3618958"><ele>25.0</ele><time>2026-04-18T09:36:09.777Z</time></trkpt><trkpt lat="45.394382" lon="11.3618027"><ele>25.0</ele><time>2026-04-18T09:36:10.777Z</time></trkpt><trkpt lat="45.3944679" lon="11.3617173"><ele>25.0</ele><time>2026-04-18T09:36:11.777Z</time></trkpt><trkpt lat="45.3945568" lon="11.3616356"><ele>25.0</ele><time>2026-04-18T09:36:12.777Z</time></trkpt><trkpt lat="45.3946441" lon="11.3615624"><ele>25.0</ele><time>2026-04-18T09:36:13.777Z</time></trkpt><trkpt lat="45.3947266" lon="11.3614971"><ele>25.0</ele><time>2026-04-18T09:36:14.777Z</time></trkpt><trkpt lat="45.3948114" lon="11.3614381"><ele>25.0</ele><time>2026-04-18T09:36:15.777Z</time></trkpt><trkpt lat="45.3948931" lon="11.3613866"><ele>25.0</ele><time>2026-04-18T09:36:16.777Z</time></trkpt><trkpt lat="45.3949719" lon="11.3613416"><ele>25.0</ele><time>2026-04-18T09:36:17.777Z</time></trkpt><trkpt lat="45.395047" lon="11.3613052"><ele>25.0</ele><time>2026-04-18T09:36:18.777Z</time></trkpt><trkpt lat="45.3951591" lon="11.36125"><ele>25.0</ele><time>2026-04-18T09:36:20.777Z</time></trkpt><trkpt lat="45.3952654" lon="11.3611929"><ele>25.0</ele><time>2026-04-18T09:36:22.777Z</time></trkpt><trkpt lat="45.3953842" lon="11.3611369"><ele>25.0</ele><time>2026-04-18T09:36:24.777Z</time></trkpt><trkpt lat="45.3955083" lon="11.3610775"><ele>25.4</ele><time>2026-04-18T09:36:26.777Z</time></trkpt><trkpt lat="45.3955824" lon="11.3610445"><ele>25.8</ele><time>2026-04-18T09:36:27.777Z</time></trkpt><trkpt lat="45.3956657" lon="11.3610099"><ele>26.200000000000003</ele><time>2026-04-18T09:36:28.777Z</time></trkpt><trkpt lat="45.3957629" lon="11.3609714"><ele>26.6</ele><time>2026-04-18T09:36:29.777Z</time></trkpt><trkpt lat="45.3958787" lon="11.3609232"><ele>27.0</ele><time>2026-04-18T09:36:30.777Z</time></trkpt><trkpt lat="45.3960273" lon="11.3608647"><ele>27.0</ele><time>2026-04-18T09:36:31.777Z</time></trkpt><trkpt lat="45.3961637" lon="11.3608142"><ele>27.0</ele><time>2026-04-18T09:36:32.777Z</time></trkpt><trkpt lat="45.3962882" lon="11.36077"><ele>27.0</ele><time>2026-04-18T09:36:33.777Z</time></trkpt><trkpt lat="45.3964002" lon="11.360725"><ele>27.0</ele><time>2026-04-18T09:36:34.777Z</time></trkpt><trkpt lat="45.3965013" lon="11.3606886"><ele>26.75</ele><time>2026-04-18T09:36:35.777Z</time></trkpt><trkpt lat="45.3966119" lon="11.3606382"><ele>26.5</ele><time>2026-04-18T09:36:36.778Z</time></trkpt><trkpt lat="45.3967282" lon="11.3605789"><ele>26.25</ele><time>2026-04-18T09:36:37.777Z</time></trkpt><trkpt lat="45.3968403" lon="11.3605105"><ele>26.0</ele><time>2026-04-18T09:36:38.777Z</time></trkpt><trkpt lat="45.3969391" lon="11.3604401"><ele>26.0</ele><time>2026-04-18T09:36:39.778Z</time></trkpt><trkpt lat="45.3970304" lon="11.3603757"><ele>26.0</ele><time>2026-04-18T09:36:40.777Z</time></trkpt><trkpt lat="45.3971146" lon="11.3603105"><ele>26.0</ele><time>2026-04-18T09:36:41.777Z</time></trkpt><trkpt lat="45.3972065" lon="11.3602307"><ele>26.0</ele><time>2026-04-18T09:36:42.777Z</time></trkpt><trkpt lat="45.3973035" lon="11.3601474"><ele>26.0</ele><time>2026-04-18T09:36:43.777Z</time></trkpt><trkpt lat="45.3973998" lon="11.3600648"><ele>26.0</ele><time>2026-04-18T09:36:44.777Z</time></trkpt><trkpt lat="45.3974916" lon="11.3599849"><ele>26.0</ele><time>2026-04-18T09:36:45.777Z</time></trkpt><trkpt lat="45.3975843" lon="11.3599015"><ele>26.0</ele><time>2026-04-18T09:36:46.778Z</time></trkpt><trkpt lat="45.3976825" lon="11.3598121"><ele>26.0</ele><time>2026-04-18T09:36:47.777Z</time></trkpt><trkpt lat="45.3977774" lon="11.3597176"><ele>26.0</ele><time>2026-04-18T09:36:48.777Z</time></trkpt><trkpt lat="45.3978714" lon="11.3596192"><ele>26.0</ele><time>2026-04-18T09:36:49.777Z</time></trkpt><trkpt lat="45.3979639" lon="11.3595202"><ele>26.0</ele><time>2026-04-18T09:36:50.777Z</time></trkpt><trkpt lat="45.3980573" lon="11.3594118"><ele>26.0</ele><time>2026-04-18T09:36:51.777Z</time></trkpt><trkpt lat="45.3981439" lon="11.3592972"><ele>26.0</ele><time>2026-04-18T09:36:52.777Z</time></trkpt><trkpt lat="45.3982251" lon="11.359183"><ele>26.0</ele><time>2026-04-18T09:36:53.777Z</time></trkpt><trkpt lat="45.3982999" lon="11.3590661"><ele>26.0</ele><time>2026-04-18T09:36:54.777Z</time></trkpt><trkpt lat="45.3983722" lon="11.3589493"><ele>26.0</ele><time>2026-04-18T09:36:55.777Z</time></trkpt><trkpt lat="45.3984387" lon="11.3588383"><ele>26.0</ele><time>2026-04-18T09:36:56.777Z</time></trkpt><trkpt lat="45.398505" lon="11.3587268"><ele>26.200000000000003</ele><time>2026-04-18T09:36:57.777Z</time></trkpt><trkpt lat="45.3985721" lon="11.3586192"><ele>26.400000000000002</ele><time>2026-04-18T09:36:58.777Z</time></trkpt><trkpt lat="45.398638" lon="11.3585121"><ele>26.6</ele><time>2026-04-18T09:36:59.777Z</time></trkpt><trkpt lat="45.3987034" lon="11.3584012"><ele>26.8</ele><time>2026-04-18T09:37:00.777Z</time></trkpt><trkpt lat="45.3987657" lon="11.3582939"><ele>27.0</ele><time>2026-04-18T09:37:01.777Z</time></trkpt><trkpt lat="45.398827" lon="11.3581914"><ele>27.0</ele><time>2026-04-18T09:37:02.777Z</time></trkpt><trkpt lat="45.3988858" lon="11.3580921"><ele>27.000000000000004</ele><time>2026-04-18T09:37:03.777Z</time></trkpt><trkpt lat="45.398942" lon="11.3579963"><ele>27.000000000000004</ele><time>2026-04-18T09:37:04.777Z</time></trkpt><trkpt lat="45.3990045" lon="11.3578974"><ele>27.0</ele><time>2026-04-18T09:37:05.777Z</time></trkpt><trkpt lat="45.3990673" lon="11.3577965"><ele>27.0</ele><time>2026-04-18T09:37:06.777Z</time></trkpt><trkpt lat="45.3991292" lon="11.3576929"><ele>26.8</ele><time>2026-04-18T09:37:07.777Z</time></trkpt><trkpt lat="45.3991907" lon="11.3575966"><ele>26.6</ele><time>2026-04-18T09:37:08.778Z</time></trkpt><trkpt lat="45.3992527" lon="11.3574976"><ele>26.400000000000002</ele><time>2026-04-18T09:37:09.777Z</time></trkpt><trkpt lat="45.3993135" lon="11.3573981"><ele>26.200000000000003</ele><time>2026-04-18T09:37:10.777Z</time></trkpt><trkpt lat="45.3993727" lon="11.3572988"><ele>26.0</ele><time>2026-04-18T09:37:11.778Z</time></trkpt><trkpt lat="45.3994284" lon="11.3572036"><ele>26.0</ele><time>2026-04-18T09:37:12.777Z</time></trkpt><trkpt lat="45.3994855" lon="11.3571068"><ele>26.0</ele><time>2026-04-18T09:37:13.777Z</time></trkpt><trkpt lat="45.3995473" lon="11.3570104"><ele>26.0</ele><time>2026-04-18T09:37:14.777Z</time></trkpt><trkpt lat="45.3996057" lon="11.3569081"><ele>26.0</ele><time>2026-04-18T09:37:15.777Z</time></trkpt><trkpt lat="45.3996699" lon="11.3568049"><ele>26.0</ele><time>2026-04-18T09:37:16.777Z</time></trkpt><trkpt lat="45.3997304" lon="11.3567066"><ele>25.999999999999996</ele><time>2026-04-18T09:37:17.777Z</time></trkpt><trkpt lat="45.3997889" lon="11.3566076"><ele>26.0</ele><time>2026-04-18T09:37:18.777Z</time></trkpt><trkpt lat="45.3998458" lon="11.3565141"><ele>26.0</ele><time>2026-04-18T09:37:19.777Z</time></trkpt><trkpt lat="45.3999052" lon="11.3564167"><ele>26.0</ele><time>2026-04-18T09:37:20.777Z</time></trkpt><trkpt lat="45.3999634" lon="11.3563219"><ele>25.999999999999996</ele><time>2026-04-18T09:37:21.778Z</time></trkpt><trkpt lat="45.4000187" lon="11.3562274"><ele>26.0</ele><time>2026-04-18T09:37:22.777Z</time></trkpt><trkpt lat="45.4000765" lon="11.3561279"><ele>25.833333333333332</ele><time>2026-04-18T09:37:23.777Z</time></trkpt><trkpt lat="45.4001374" lon="11.356031"><ele>25.666666666666664</ele><time>2026-04-18T09:37:24.777Z</time></trkpt><trkpt lat="45.4001964" lon="11.3559402"><ele>25.5</ele><time>2026-04-18T09:37:25.777Z</time></trkpt><trkpt lat="45.4002539" lon="11.3558485"><ele>25.333333333333336</ele><time>2026-04-18T09:37:26.777Z</time></trkpt><trkpt lat="45.4003086" lon="11.3557597"><ele>25.166666666666668</ele><time>2026-04-18T09:37:27.777Z</time></trkpt><trkpt lat="45.4003616" lon="11.3556699"><ele>25.0</ele><time>2026-04-18T09:37:28.777Z</time></trkpt><trkpt lat="45.4004147" lon="11.3555797"><ele>25.000000000000004</ele><time>2026-04-18T09:37:29.777Z</time></trkpt><trkpt lat="45.4004658" lon="11.3554842"><ele>25.0</ele><time>2026-04-18T09:37:30.778Z</time></trkpt><trkpt lat="45.4005222" lon="11.355395"><ele>25.0</ele><time>2026-04-18T09:37:31.777Z</time></trkpt><trkpt lat="45.4005772" lon="11.3553014"><ele>25.0</ele><time>2026-04-18T09:37:32.777Z</time></trkpt><trkpt lat="45.4006289" lon="11.3552149"><ele>25.000000000000004</ele><time>2026-04-18T09:37:33.777Z</time></trkpt><trkpt lat="45.4006801" lon="11.3551355"><ele>25.0</ele><time>2026-04-18T09:37:34.777Z</time></trkpt><trkpt lat="45.4007235" lon="11.3550603"><ele>25.000000000000004</ele><time>2026-04-18T09:37:35.777Z</time></trkpt><trkpt lat="45.4008014" lon="11.3549159"><ele>25.0</ele><time>2026-04-18T09:37:37.777Z</time></trkpt><trkpt lat="45.4008432" lon="11.3548403"><ele>25.0</ele><time>2026-04-18T09:37:38.777Z</time></trkpt><trkpt lat="45.4008872" lon="11.3547687"><ele>25.0</ele><time>2026-04-18T09:37:39.777Z</time></trkpt><trkpt lat="45.4009332" lon="11.3546886"><ele>25.000000000000004</ele><time>2026-04-18T09:37:40.777Z</time></trkpt><trkpt lat="45.4009841" lon="11.3546026"><ele>25.0</ele><time>2026-04-18T09:37:41.777Z</time></trkpt><trkpt lat="45.4010397" lon="11.354509"><ele>24.8</ele><time>2026-04-18T09:37:42.777Z</time></trkpt><trkpt lat="45.4011004" lon="11.3544092"><ele>24.6</ele><time>2026-04-18T09:37:43.777Z</time></trkpt><trkpt lat="45.4011652" lon="11.3543078"><ele>24.4</ele><time>2026-04-18T09:37:44.777Z</time></trkpt><trkpt lat="45.4012324" lon="11.3541987"><ele>24.2</ele><time>2026-04-18T09:37:45.777Z</time></trkpt><trkpt lat="45.4012976" lon="11.3540911"><ele>24.0</ele><time>2026-04-18T09:37:46.777Z</time></trkpt><trkpt lat="45.4013775" lon="11.3539624"><ele>24.25</ele><time>2026-04-18T09:37:47.777Z</time></trkpt><trkpt lat="45.4014582" lon="11.3538309"><ele>24.5</ele><time>2026-04-18T09:37:48.777Z</time></trkpt><trkpt lat="45.4015351" lon="11.3537045"><ele>24.75</ele><time>2026-04-18T09:37:49.777Z</time></trkpt><trkpt lat="45.4016189" lon="11.3535661"><ele>25.0</ele><time>2026-04-18T09:37:50.777Z</time></trkpt><trkpt lat="45.4017029" lon="11.3534287"><ele>25.0</ele><time>2026-04-18T09:37:51.777Z</time></trkpt><trkpt lat="45.4017741" lon="11.3533043"><ele>25.0</ele><time>2026-04-18T09:37:52.777Z</time></trkpt><trkpt lat="45.4018471" lon="11.3531802"><ele>25.0</ele><time>2026-04-18T09:37:53.777Z</time></trkpt><trkpt lat="45.4019198" lon="11.3530584"><ele>25.0</ele><time>2026-04-18T09:37:54.777Z</time></trkpt><trkpt lat="45.4019988" lon="11.3529256"><ele>25.0</ele><time>2026-04-18T09:37:55.777Z</time></trkpt><trkpt lat="45.4020762" lon="11.3528056"><ele>25.0</ele><time>2026-04-18T09:37:56.777Z</time></trkpt><trkpt lat="45.4021466" lon="11.3526806"><ele>25.0</ele><time>2026-04-18T09:37:57.777Z</time></trkpt><trkpt lat="45.4022229" lon="11.3525571"><ele>25.0</ele><time>2026-04-18T09:37:58.777Z</time></trkpt><trkpt lat="45.4023029" lon="11.3524477"><ele>25.0</ele><time>2026-04-18T09:37:59.778Z</time></trkpt><trkpt lat="45.4023787" lon="11.3523339"><ele>25.0</ele><time>2026-04-18T09:38:00.778Z</time></trkpt><trkpt lat="45.4024541" lon="11.3522199"><ele>25.0</ele><time>2026-04-18T09:38:01.777Z</time></trkpt><trkpt lat="45.402529" lon="11.3520916"><ele>25.0</ele><time>2026-04-18T09:38:02.777Z</time></trkpt><trkpt lat="45.4026027" lon="11.3519734"><ele>25.0</ele><time>2026-04-18T09:38:03.778Z</time></trkpt><trkpt lat="45.4026741" lon="11.351858"><ele>25.2</ele><time>2026-04-18T09:38:04.777Z</time></trkpt><trkpt lat="45.4027473" lon="11.3517386"><ele>25.4</ele><time>2026-04-18T09:38:05.777Z</time></trkpt><trkpt lat="45.4028214" lon="11.3516119"><ele>25.6</ele><time>2026-04-18T09:38:06.777Z</time></trkpt><trkpt lat="45.4028963" lon="11.351494"><ele>25.8</ele><time>2026-04-18T09:38:07.777Z</time></trkpt><trkpt lat="45.4029681" lon="11.3513812"><ele>26.0</ele><time>2026-04-18T09:38:08.777Z</time></trkpt><trkpt lat="45.4030449" lon="11.3512541"><ele>26.0</ele><time>2026-04-18T09:38:09.777Z</time></trkpt><trkpt lat="45.4031388" lon="11.3511018"><ele>26.0</ele><time>2026-04-18T09:38:10.777Z</time></trkpt><trkpt lat="45.4032288" lon="11.3509555"><ele>26.0</ele><time>2026-04-18T09:38:11.777Z</time></trkpt><trkpt lat="45.4033205" lon="11.3508032"><ele>26.0</ele><time>2026-04-18T09:38:12.777Z</time></trkpt><trkpt lat="45.4034108" lon="11.3506542"><ele>25.75</ele><time>2026-04-18T09:38:13.777Z</time></trkpt><trkpt lat="45.403504" lon="11.3504944"><ele>25.5</ele><time>2026-04-18T09:38:14.777Z</time></trkpt><trkpt lat="45.4035929" lon="11.3503521"><ele>25.25</ele><time>2026-04-18T09:38:15.777Z</time></trkpt><trkpt lat="45.4036723" lon="11.3502226"><ele>25.0</ele><time>2026-04-18T09:38:16.777Z</time></trkpt><trkpt lat="45.4037524" lon="11.3500874"><ele>25.0</ele><time>2026-04-18T09:38:17.777Z</time></trkpt><trkpt lat="45.4038245" lon="11.3499653"><ele>25.0</ele><time>2026-04-18T09:38:18.777Z</time></trkpt><trkpt lat="45.4039019" lon="11.349844"><ele>25.0</ele><time>2026-04-18T09:38:19.777Z</time></trkpt><trkpt lat="45.403978" lon="11.349719"><ele>25.0</ele><time>2026-04-18T09:38:20.777Z</time></trkpt><trkpt lat="45.4040614" lon="11.3495857"><ele>25.25</ele><time>2026-04-18T09:38:21.777Z</time></trkpt><trkpt lat="45.4041405" lon="11.3494563"><ele>25.5</ele><time>2026-04-18T09:38:22.778Z</time></trkpt><trkpt lat="45.4042118" lon="11.3493333"><ele>25.75</ele><time>2026-04-18T09:38:23.777Z</time></trkpt><trkpt lat="45.4042892" lon="11.3492071"><ele>26.0</ele><time>2026-04-18T09:38:24.777Z</time></trkpt><trkpt lat="45.4043664" lon="11.3490695"><ele>26.0</ele><time>2026-04-18T09:38:25.777Z</time></trkpt><trkpt lat="45.404441" lon="11.34894"><ele>26.0</ele><time>2026-04-18T09:38:26.777Z</time></trkpt><trkpt lat="45.4045229" lon="11.3488039"><ele>26.0</ele><time>2026-04-18T09:38:27.777Z</time></trkpt><trkpt lat="45.4046083" lon="11.348666"><ele>26.0</ele><time>2026-04-18T09:38:28.777Z</time></trkpt><trkpt lat="45.4046937" lon="11.3485283"><ele>26.25</ele><time>2026-04-18T09:38:29.777Z</time></trkpt><trkpt lat="45.4047765" lon="11.3483933"><ele>26.5</ele><time>2026-04-18T09:38:30.777Z</time></trkpt><trkpt lat="45.4048561" lon="11.34826"><ele>26.75</ele><time>2026-04-18T09:38:31.777Z</time></trkpt><trkpt lat="45.4049336" lon="11.348134"><ele>27.0</ele><time>2026-04-18T09:38:32.777Z</time></trkpt><trkpt lat="45.4050141" lon="11.3480028"><ele>27.75</ele><time>2026-04-18T09:38:33.777Z</time></trkpt><trkpt lat="45.4050962" lon="11.3478688"><ele>28.5</ele><time>2026-04-18T09:38:34.777Z</time></trkpt><trkpt lat="45.405177" lon="11.3477396"><ele>29.25</ele><time>2026-04-18T09:38:35.777Z</time></trkpt><trkpt lat="45.4052601" lon="11.3476092"><ele>30.0</ele><time>2026-04-18T09:38:36.777Z</time></trkpt><trkpt lat="45.4053472" lon="11.3474663"><ele>30.0</ele><time>2026-04-18T09:38:37.777Z</time></trkpt><trkpt lat="45.4054342" lon="11.3473212"><ele>30.0</ele><time>2026-04-18T09:38:38.777Z</time></trkpt><trkpt lat="45.4055267" lon="11.3471696"><ele>30.0</ele><time>2026-04-18T09:38:39.777Z</time></trkpt><trkpt lat="45.405619" lon="11.3470115"><ele>30.0</ele><time>2026-04-18T09:38:40.777Z</time></trkpt><trkpt lat="45.4057101" lon="11.3468576"><ele>29.5</ele><time>2026-04-18T09:38:41.777Z</time></trkpt><trkpt lat="45.4058026" lon="11.3467064"><ele>29.0</ele><time>2026-04-18T09:38:42.777Z</time></trkpt><trkpt lat="45.4058888" lon="11.3465668"><ele>28.5</ele><time>2026-04-18T09:38:43.777Z</time></trkpt><trkpt lat="45.405975" lon="11.3464263"><ele>28.0</ele><time>2026-04-18T09:38:44.777Z</time></trkpt><trkpt lat="45.4060585" lon="11.3462841"><ele>28.0</ele><time>2026-04-18T09:38:45.777Z</time></trkpt><trkpt lat="45.4061465" lon="11.3461482"><ele>28.0</ele><time>2026-04-18T09:38:46.777Z</time></trkpt><trkpt lat="45.4062301" lon="11.3460134"><ele>28.0</ele><time>2026-04-18T09:38:47.777Z</time></trkpt><trkpt lat="45.4063155" lon="11.3458746"><ele>28.0</ele><time>2026-04-18T09:38:48.777Z</time></trkpt><trkpt lat="45.4063985" lon="11.3457377"><ele>28.25</ele><time>2026-04-18T09:38:49.777Z</time></trkpt><trkpt lat="45.4064822" lon="11.3456027"><ele>28.5</ele><time>2026-04-18T09:38:50.777Z</time></trkpt><trkpt lat="45.4065599" lon="11.345473"><ele>28.75</ele><time>2026-04-18T09:38:51.777Z</time></trkpt><trkpt lat="45.4066377" lon="11.3453479"><ele>29.0</ele><time>2026-04-18T09:38:52.778Z</time></trkpt><trkpt lat="45.4067193" lon="11.345217"><ele>29.0</ele><time>2026-04-18T09:38:53.777Z</time></trkpt><trkpt lat="45.4067935" lon="11.3450899"><ele>29.0</ele><time>2026-04-18T09:38:54.777Z</time></trkpt><trkpt lat="45.4068642" lon="11.3449786"><ele>29.0</ele><time>2026-04-18T09:38:55.777Z</time></trkpt><trkpt lat="45.4069319" lon="11.3448669"><ele>29.0</ele><time>2026-04-18T09:38:56.778Z</time></trkpt><trkpt lat="45.4069956" lon="11.3447588"><ele>29.0</ele><time>2026-04-18T09:38:57.777Z</time></trkpt><trkpt lat="45.4070629" lon="11.3446505"><ele>28.999999999999996</ele><time>2026-04-18T09:38:58.777Z</time></trkpt><trkpt lat="45.4071165" lon="11.3445638"><ele>29.0</ele><time>2026-04-18T09:38:59.778Z</time></trkpt><trkpt lat="45.407165" lon="11.3444795"><ele>29.0</ele><time>2026-04-18T09:39:00.777Z</time></trkpt><trkpt lat="45.4072096" lon="11.3444056"><ele>29.0</ele><time>2026-04-18T09:39:01.777Z</time></trkpt><trkpt lat="45.4072851" lon="11.344294"><ele>28.999999999999996</ele><time>2026-04-18T09:39:03.777Z</time></trkpt><trkpt lat="45.4073379" lon="11.3442218"><ele>29.0</ele><time>2026-04-18T09:39:05.777Z</time></trkpt><trkpt lat="45.4074135" lon="11.3441385"><ele>29.0</ele><time>2026-04-18T09:39:08.777Z</time></trkpt><trkpt lat="45.4074933" lon="11.344054"><ele>29.0</ele><time>2026-04-18T09:39:10.777Z</time></trkpt><trkpt lat="45.4075442" lon="11.3439559"><ele>29.0</ele><time>2026-04-18T09:39:12.777Z</time></trkpt><trkpt lat="45.4076156" lon="11.3438751"><ele>29.0</ele><time>2026-04-18T09:39:14.777Z</time></trkpt><trkpt lat="45.4076932" lon="11.3437985"><ele>29.0</ele><time>2026-04-18T09:39:16.777Z</time></trkpt><trkpt lat="45.4077827" lon="11.3436912"><ele>29.0</ele><time>2026-04-18T09:39:18.777Z</time></trkpt><trkpt lat="45.4078674" lon="11.3435862"><ele>29.0</ele><time>2026-04-18T09:39:20.777Z</time></trkpt><trkpt lat="45.4079215" lon="11.3435377"><ele>29.0</ele><time>2026-04-18T09:39:21.777Z</time></trkpt><trkpt lat="45.4080219" lon="11.3434582"><ele>29.0</ele><time>2026-04-18T09:39:23.777Z</time></trkpt><trkpt lat="45.4081359" lon="11.3433837"><ele>29.0</ele><time>2026-04-18T09:39:25.777Z</time></trkpt><trkpt lat="45.4082361" lon="11.3433166"><ele>28.799999999999997</ele><time>2026-04-18T09:39:27.777Z</time></trkpt><trkpt lat="45.4083223" lon="11.3432534"><ele>28.599999999999998</ele><time>2026-04-18T09:39:29.777Z</time></trkpt><trkpt lat="45.4083943" lon="11.3432122"><ele>28.4</ele><time>2026-04-18T09:39:31.777Z</time></trkpt><trkpt lat="45.4084484" lon="11.3431103"><ele>28.2</ele><time>2026-04-18T09:39:34.777Z</time></trkpt><trkpt lat="45.4084448" lon="11.3429907"><ele>28.0</ele><time>2026-04-18T09:39:36.777Z</time></trkpt><trkpt lat="45.4084168" lon="11.3428145"><ele>28.500000000000004</ele><time>2026-04-18T09:39:38.777Z</time></trkpt><trkpt lat="45.4084101" lon="11.3427"><ele>29.0</ele><time>2026-04-18T09:39:39.777Z</time></trkpt><trkpt lat="45.4083973" lon="11.3425838"><ele>29.5</ele><time>2026-04-18T09:39:40.778Z</time></trkpt><trkpt lat="45.4083833" lon="11.3424697"><ele>30.0</ele><time>2026-04-18T09:39:41.777Z</time></trkpt><trkpt lat="45.4083691" lon="11.342351"><ele>30.500000000000004</ele><time>2026-04-18T09:39:42.777Z</time></trkpt><trkpt lat="45.4083552" lon="11.3422355"><ele>31.0</ele><time>2026-04-18T09:39:43.778Z</time></trkpt><trkpt lat="45.4083427" lon="11.3421156"><ele>31.0</ele><time>2026-04-18T09:39:44.777Z</time></trkpt><trkpt lat="45.40833" lon="11.3419905"><ele>31.0</ele><time>2026-04-18T09:39:45.777Z</time></trkpt><trkpt lat="45.408313" lon="11.3418608"><ele>31.0</ele><time>2026-04-18T09:39:46.777Z</time></trkpt><trkpt lat="45.408299" lon="11.3417324"><ele>31.0</ele><time>2026-04-18T09:39:47.777Z</time></trkpt><trkpt lat="45.4082853" lon="11.3416117"><ele>31.0</ele><time>2026-04-18T09:39:48.777Z</time></trkpt><trkpt lat="45.4082685" lon="11.3414804"><ele>30.666666666666668</ele><time>2026-04-18T09:39:49.777Z</time></trkpt><trkpt lat="45.4082525" lon="11.3413525"><ele>30.333333333333336</ele><time>2026-04-18T09:39:50.777Z</time></trkpt><trkpt lat="45.4082298" lon="11.3412253"><ele>30.0</ele><time>2026-04-18T09:39:51.777Z</time></trkpt><trkpt lat="45.4082041" lon="11.3411034"><ele>29.666666666666664</ele><time>2026-04-18T09:39:52.777Z</time></trkpt><trkpt lat="45.4081862" lon="11.3409934"><ele>29.333333333333332</ele><time>2026-04-18T09:39:53.777Z</time></trkpt><trkpt lat="45.4081711" lon="11.340891"><ele>29.0</ele><time>2026-04-18T09:39:54.777Z</time></trkpt><trkpt lat="45.4081513" lon="11.3407683"><ele>28.999999999999996</ele><time>2026-04-18T09:39:55.777Z</time></trkpt><trkpt lat="45.4081337" lon="11.3406613"><ele>29.0</ele><time>2026-04-18T09:39:56.777Z</time></trkpt><trkpt lat="45.4081141" lon="11.3405652"><ele>29.0</ele><time>2026-04-18T09:39:57.777Z</time></trkpt><trkpt lat="45.4081014" lon="11.3404762"><ele>29.0</ele><time>2026-04-18T09:39:58.777Z</time></trkpt><trkpt lat="45.4080899" lon="11.3403875"><ele>28.999999999999996</ele><time>2026-04-18T09:39:59.778Z</time></trkpt><trkpt lat="45.40808" lon="11.3402286"><ele>29.0</ele><time>2026-04-18T09:40:01.777Z</time></trkpt><trkpt lat="45.408097" lon="11.3400729"><ele>29.0</ele><time>2026-04-18T09:40:03.778Z</time></trkpt><trkpt lat="45.4081354" lon="11.3399156"><ele>29.0</ele><time>2026-04-18T09:40:05.777Z</time></trkpt><trkpt lat="45.4081645" lon="11.339742"><ele>29.0</ele><time>2026-04-18T09:40:07.777Z</time></trkpt><trkpt lat="45.4081716" lon="11.3395696"><ele>29.0</ele><time>2026-04-18T09:40:09.777Z</time></trkpt><trkpt lat="45.4081697" lon="11.3394765"><ele>29.0</ele><time>2026-04-18T09:40:10.777Z</time></trkpt><trkpt lat="45.4081645" lon="11.339385"><ele>29.0</ele><time>2026-04-18T09:40:11.777Z</time></trkpt><trkpt lat="45.4081553" lon="11.3392945"><ele>29.0</ele><time>2026-04-18T09:40:12.777Z</time></trkpt><trkpt lat="45.4081397" lon="11.339134"><ele>29.0</ele><time>2026-04-18T09:40:14.777Z</time></trkpt><trkpt lat="45.4081262" lon="11.3390059"><ele>29.0</ele><time>2026-04-18T09:40:16.777Z</time></trkpt><trkpt lat="45.4080989" lon="11.3388936"><ele>29.0</ele><time>2026-04-18T09:40:19.777Z</time></trkpt><trkpt lat="45.4080192" lon="11.3387793"><ele>29.166666666666664</ele><time>2026-04-18T09:40:22.777Z</time></trkpt><trkpt lat="45.4079325" lon="11.3386496"><ele>29.333333333333332</ele><time>2026-04-18T09:40:24.777Z</time></trkpt><trkpt lat="45.4078856" lon="11.33858"><ele>29.5</ele><time>2026-04-18T09:40:25.777Z</time></trkpt><trkpt lat="45.4078367" lon="11.3385052"><ele>29.666666666666664</ele><time>2026-04-18T09:40:26.777Z</time></trkpt><trkpt lat="45.4077878" lon="11.3384258"><ele>29.833333333333332</ele><time>2026-04-18T09:40:27.777Z</time></trkpt><trkpt lat="45.4077326" lon="11.33834"><ele>30.0</ele><time>2026-04-18T09:40:28.777Z</time></trkpt><trkpt lat="45.4076758" lon="11.338237"><ele>30.0</ele><time>2026-04-18T09:40:29.777Z</time></trkpt><trkpt lat="45.4076195" lon="11.3381381"><ele>30.0</ele><time>2026-04-18T09:40:30.777Z</time></trkpt><trkpt lat="45.4075582" lon="11.338036"><ele>30.0</ele><time>2026-04-18T09:40:31.777Z</time></trkpt><trkpt lat="45.4075047" lon="11.3379447"><ele>30.0</ele><time>2026-04-18T09:40:32.777Z</time></trkpt><trkpt lat="45.4074525" lon="11.3378525"><ele>30.0</ele><time>2026-04-18T09:40:33.778Z</time></trkpt><trkpt lat="45.4074017" lon="11.3377678"><ele>30.0</ele><time>2026-04-18T09:40:34.778Z</time></trkpt><trkpt lat="45.4073505" lon="11.3376838"><ele>29.666666666666668</ele><time>2026-04-18T09:40:35.777Z</time></trkpt><trkpt lat="45.4073024" lon="11.3376034"><ele>29.333333333333336</ele><time>2026-04-18T09:40:36.777Z</time></trkpt><trkpt lat="45.4072558" lon="11.3375164"><ele>29.0</ele><time>2026-04-18T09:40:37.777Z</time></trkpt><trkpt lat="45.4072122" lon="11.3374433"><ele>28.666666666666668</ele><time>2026-04-18T09:40:38.777Z</time></trkpt><trkpt lat="45.4071461" lon="11.3373073"><ele>28.333333333333336</ele><time>2026-04-18T09:40:40.777Z</time></trkpt><trkpt lat="45.4071165" lon="11.3371764"><ele>28.0</ele><time>2026-04-18T09:40:42.777Z</time></trkpt><trkpt lat="45.4070839" lon="11.3370157"><ele>28.0</ele><time>2026-04-18T09:40:44.777Z</time></trkpt><trkpt lat="45.4070558" lon="11.336935"><ele>28.0</ele><time>2026-04-18T09:40:45.777Z</time></trkpt><trkpt lat="45.4070139" lon="11.3368516"><ele>28.0</ele><time>2026-04-18T09:40:46.777Z</time></trkpt><trkpt lat="45.4069689" lon="11.336766"><ele>28.0</ele><time>2026-04-18T09:40:47.777Z</time></trkpt><trkpt lat="45.4069282" lon="11.3366938"><ele>28.0</ele><time>2026-04-18T09:40:48.777Z</time></trkpt><trkpt lat="45.4068811" lon="11.3366171"><ele>28.0</ele><time>2026-04-18T09:40:49.777Z</time></trkpt><trkpt lat="45.4068342" lon="11.3365445"><ele>28.0</ele><time>2026-04-18T09:40:50.777Z</time></trkpt><trkpt lat="45.4067881" lon="11.336475"><ele>28.000000000000004</ele><time>2026-04-18T09:40:51.777Z</time></trkpt><trkpt lat="45.4067368" lon="11.336403"><ele>28.0</ele><time>2026-04-18T09:40:52.777Z</time></trkpt><trkpt lat="45.4066839" lon="11.3363362"><ele>28.0</ele><time>2026-04-18T09:40:53.777Z</time></trkpt><trkpt lat="45.4066395" lon="11.3362706"><ele>28.0</ele><time>2026-04-18T09:40:54.777Z</time></trkpt><trkpt lat="45.4065574" lon="11.3361328"><ele>28.000000000000004</ele><time>2026-04-18T09:40:56.777Z</time></trkpt><trkpt lat="45.406495" lon="11.3359974"><ele>28.0</ele><time>2026-04-18T09:40:58.777Z</time></trkpt><trkpt lat="45.406424" lon="11.3359031"><ele>28.0</ele><time>2026-04-18T09:41:00.777Z</time></trkpt><trkpt lat="45.406346" lon="11.3358464"><ele>27.999999999999996</ele><time>2026-04-18T09:41:02.777Z</time></trkpt><trkpt lat="45.406247" lon="11.335817"><ele>27.999999999999996</ele><time>2026-04-18T09:41:04.777Z</time></trkpt><trkpt lat="45.4061368" lon="11.3358006"><ele>28.0</ele><time>2026-04-18T09:41:06.777Z</time></trkpt><trkpt lat="45.4060237" lon="11.3358188"><ele>28.0</ele><time>2026-04-18T09:41:08.778Z</time></trkpt><trkpt lat="45.4059409" lon="11.3358174"><ele>28.166666666666668</ele><time>2026-04-18T09:41:10.777Z</time></trkpt><trkpt lat="45.4058722" lon="11.3357755"><ele>28.333333333333336</ele><time>2026-04-18T09:41:13.778Z</time></trkpt><trkpt lat="45.4058898" lon="11.3356848"><ele>28.5</ele><time>2026-04-18T09:41:17.777Z</time></trkpt><trkpt lat="45.4059775" lon="11.3356836"><ele>28.666666666666664</ele><time>2026-04-18T09:41:19.777Z</time></trkpt><trkpt lat="45.4060543" lon="11.3356915"><ele>28.833333333333332</ele><time>2026-04-18T09:41:20.777Z</time></trkpt><trkpt lat="45.4061461" lon="11.3356977"><ele>29.0</ele><time>2026-04-18T09:41:21.777Z</time></trkpt><trkpt lat="45.4062482" lon="11.3357017"><ele>28.75</ele><time>2026-04-18T09:41:22.778Z</time></trkpt><trkpt lat="45.4063608" lon="11.3357023"><ele>28.5</ele><time>2026-04-18T09:41:23.777Z</time></trkpt><trkpt lat="45.4064782" lon="11.3357106"><ele>28.25</ele><time>2026-04-18T09:41:24.777Z</time></trkpt><trkpt lat="45.4066001" lon="11.3357231"><ele>28.0</ele><time>2026-04-18T09:41:25.777Z</time></trkpt><trkpt lat="45.406727" lon="11.3357328"><ele>28.0</ele><time>2026-04-18T09:41:26.777Z</time></trkpt><trkpt lat="45.4068698" lon="11.3357379"><ele>28.0</ele><time>2026-04-18T09:41:27.777Z</time></trkpt><trkpt lat="45.4069994" lon="11.3357416"><ele>28.0</ele><time>2026-04-18T09:41:28.777Z</time></trkpt><trkpt lat="45.4071345" lon="11.3357478"><ele>28.0</ele><time>2026-04-18T09:41:29.777Z</time></trkpt><trkpt lat="45.4072643" lon="11.3357553"><ele>28.0</ele><time>2026-04-18T09:41:30.777Z</time></trkpt><trkpt lat="45.4073859" lon="11.3357637"><ele>27.999999999999996</ele><time>2026-04-18T09:41:31.777Z</time></trkpt><trkpt lat="45.4074951" lon="11.3357684"><ele>27.999999999999996</ele><time>2026-04-18T09:41:32.777Z</time></trkpt><trkpt lat="45.4076015" lon="11.3357649"><ele>28.0</ele><time>2026-04-18T09:41:33.777Z</time></trkpt><trkpt lat="45.4076967" lon="11.3357593"><ele>28.0</ele><time>2026-04-18T09:41:34.777Z</time></trkpt><trkpt lat="45.4077968" lon="11.3357436"><ele>28.0</ele><time>2026-04-18T09:41:35.777Z</time></trkpt><trkpt lat="45.407918" lon="11.3357197"><ele>28.0</ele><time>2026-04-18T09:41:36.777Z</time></trkpt><trkpt lat="45.4080655" lon="11.3356937"><ele>28.0</ele><time>2026-04-18T09:41:37.777Z</time></trkpt><trkpt lat="45.4082276" lon="11.3356543"><ele>28.0</ele><time>2026-04-18T09:41:38.777Z</time></trkpt><trkpt lat="45.4084047" lon="11.3356162"><ele>28.0</ele><time>2026-04-18T09:41:39.777Z</time></trkpt><trkpt lat="45.4085927" lon="11.3355752"><ele>28.0</ele><time>2026-04-18T09:41:40.777Z</time></trkpt><trkpt lat="45.4087765" lon="11.335537"><ele>28.0</ele><time>2026-04-18T09:41:41.777Z</time></trkpt><trkpt lat="45.4089715" lon="11.3354962"><ele>28.333333333333336</ele><time>2026-04-18T09:41:42.777Z</time></trkpt><trkpt lat="45.4091591" lon="11.335455"><ele>28.666666666666664</ele><time>2026-04-18T09:41:43.777Z</time></trkpt><trkpt lat="45.4093325" lon="11.3354152"><ele>29.0</ele><time>2026-04-18T09:41:44.778Z</time></trkpt><trkpt lat="45.4094985" lon="11.3353823"><ele>29.0</ele><time>2026-04-18T09:41:45.777Z</time></trkpt><trkpt lat="45.4096555" lon="11.3353466"><ele>29.0</ele><time>2026-04-18T09:41:46.777Z</time></trkpt><trkpt lat="45.4098088" lon="11.3353108"><ele>29.0</ele><time>2026-04-18T09:41:47.777Z</time></trkpt><trkpt lat="45.4099744" lon="11.3352737"><ele>29.0</ele><time>2026-04-18T09:41:48.777Z</time></trkpt><trkpt lat="45.4101389" lon="11.3352384"><ele>29.0</ele><time>2026-04-18T09:41:49.777Z</time></trkpt><trkpt lat="45.4103154" lon="11.335205"><ele>29.0</ele><time>2026-04-18T09:41:50.777Z</time></trkpt><trkpt lat="45.4104892" lon="11.3351707"><ele>29.0</ele><time>2026-04-18T09:41:51.777Z</time></trkpt><trkpt lat="45.4106575" lon="11.3351399"><ele>29.0</ele><time>2026-04-18T09:41:52.778Z</time></trkpt><trkpt lat="45.4108189" lon="11.3351044"><ele>29.0</ele><time>2026-04-18T09:41:53.777Z</time></trkpt><trkpt lat="45.4109714" lon="11.3350711"><ele>29.0</ele><time>2026-04-18T09:41:54.777Z</time></trkpt><trkpt lat="45.4111049" lon="11.3350421"><ele>29.0</ele><time>2026-04-18T09:41:55.777Z</time></trkpt><trkpt lat="45.4112135" lon="11.3350143"><ele>29.0</ele><time>2026-04-18T09:41:56.777Z</time></trkpt><trkpt lat="45.4112946" lon="11.334997"><ele>29.0</ele><time>2026-04-18T09:41:57.778Z</time></trkpt><trkpt lat="45.4113632" lon="11.3349863"><ele>29.0</ele><time>2026-04-18T09:41:58.777Z</time></trkpt><trkpt lat="45.411433" lon="11.3348598"><ele>29.25</ele><time>2026-04-18T09:42:00.778Z</time></trkpt><trkpt lat="45.4114311" lon="11.3347327"><ele>29.5</ele><time>2026-04-18T09:42:01.777Z</time></trkpt><trkpt lat="45.4114097" lon="11.3345543"><ele>29.75</ele><time>2026-04-18T09:42:02.777Z</time></trkpt><trkpt lat="45.4113857" lon="11.3343536"><ele>30.0</ele><time>2026-04-18T09:42:03.777Z</time></trkpt><trkpt lat="45.4113589" lon="11.334144"><ele>30.0</ele><time>2026-04-18T09:42:04.777Z</time></trkpt><trkpt lat="45.4113252" lon="11.3339257"><ele>30.0</ele><time>2026-04-18T09:42:05.778Z</time></trkpt><trkpt lat="45.4112929" lon="11.3337001"><ele>30.0</ele><time>2026-04-18T09:42:06.777Z</time></trkpt><trkpt lat="45.4112587" lon="11.3334514"><ele>29.666666666666664</ele><time>2026-04-18T09:42:07.777Z</time></trkpt><trkpt lat="45.4112201" lon="11.3332026"><ele>29.333333333333332</ele><time>2026-04-18T09:42:08.777Z</time></trkpt><trkpt lat="45.4111889" lon="11.3329741"><ele>29.0</ele><time>2026-04-18T09:42:09.777Z</time></trkpt><trkpt lat="45.4111541" lon="11.332749"><ele>29.0</ele><time>2026-04-18T09:42:10.777Z</time></trkpt><trkpt lat="45.4111157" lon="11.3325381"><ele>29.0</ele><time>2026-04-18T09:42:11.777Z</time></trkpt><trkpt lat="45.4110832" lon="11.332336"><ele>29.0</ele><time>2026-04-18T09:42:12.777Z</time></trkpt><trkpt lat="45.4110529" lon="11.3321428"><ele>29.0</ele><time>2026-04-18T09:42:13.777Z</time></trkpt><trkpt lat="45.4110159" lon="11.3319637"><ele>28.75</ele><time>2026-04-18T09:42:14.777Z</time></trkpt><trkpt lat="45.410978" lon="11.3317935"><ele>28.5</ele><time>2026-04-18T09:42:15.777Z</time></trkpt><trkpt lat="45.4109327" lon="11.3316363"><ele>28.25</ele><time>2026-04-18T09:42:16.777Z</time></trkpt><trkpt lat="45.410882" lon="11.3314939"><ele>28.0</ele><time>2026-04-18T09:42:17.777Z</time></trkpt><trkpt lat="45.4108164" lon="11.3313418"><ele>28.75</ele><time>2026-04-18T09:42:18.777Z</time></trkpt><trkpt lat="45.4107408" lon="11.3311778"><ele>29.5</ele><time>2026-04-18T09:42:19.777Z</time></trkpt><trkpt lat="45.4106643" lon="11.3310157"><ele>30.25</ele><time>2026-04-18T09:42:20.777Z</time></trkpt><trkpt lat="45.4105855" lon="11.3308541"><ele>31.0</ele><time>2026-04-18T09:42:21.777Z</time></trkpt><trkpt lat="45.4105107" lon="11.3306987"><ele>30.75</ele><time>2026-04-18T09:42:22.777Z</time></trkpt><trkpt lat="45.4104384" lon="11.3305528"><ele>30.5</ele><time>2026-04-18T09:42:23.777Z</time></trkpt><trkpt lat="45.4103687" lon="11.3304077"><ele>30.25</ele><time>2026-04-18T09:42:24.777Z</time></trkpt><trkpt lat="45.4103071" lon="11.3302737"><ele>30.0</ele><time>2026-04-18T09:42:25.777Z</time></trkpt><trkpt lat="45.4102534" lon="11.3301592"><ele>30.0</ele><time>2026-04-18T09:42:26.777Z</time></trkpt><trkpt lat="45.4102105" lon="11.3300635"><ele>30.0</ele><time>2026-04-18T09:42:27.777Z</time></trkpt><trkpt lat="45.4101838" lon="11.3299766"><ele>30.0</ele><time>2026-04-18T09:42:28.777Z</time></trkpt><trkpt lat="45.4102224" lon="11.3298427"><ele>30.0</ele><time>2026-04-18T09:42:30.777Z</time></trkpt><trkpt lat="45.4102858" lon="11.3297813"><ele>30.0</ele><time>2026-04-18T09:42:31.777Z</time></trkpt><trkpt lat="45.4103775" lon="11.3297134"><ele>30.0</ele><time>2026-04-18T09:42:32.777Z</time></trkpt><trkpt lat="45.4104851" lon="11.3296333"><ele>29.75</ele><time>2026-04-18T09:42:33.777Z</time></trkpt><trkpt lat="45.4105863" lon="11.3295514"><ele>29.5</ele><time>2026-04-18T09:42:34.777Z</time></trkpt><trkpt lat="45.4106989" lon="11.3294567"><ele>29.25</ele><time>2026-04-18T09:42:35.777Z</time></trkpt><trkpt lat="45.410813" lon="11.3293606"><ele>29.0</ele><time>2026-04-18T09:42:36.777Z</time></trkpt><trkpt lat="45.4109153" lon="11.3292747"><ele>29.0</ele><time>2026-04-18T09:42:37.777Z</time></trkpt><trkpt lat="45.4110075" lon="11.3291973"><ele>29.0</ele><time>2026-04-18T09:42:38.777Z</time></trkpt><trkpt lat="45.4110982" lon="11.3291269"><ele>29.0</ele><time>2026-04-18T09:42:39.777Z</time></trkpt><trkpt lat="45.4111973" lon="11.3290477"><ele>29.0</ele><time>2026-04-18T09:42:40.777Z</time></trkpt><trkpt lat="45.4113141" lon="11.3289518"><ele>29.25</ele><time>2026-04-18T09:42:41.777Z</time></trkpt><trkpt lat="45.4114434" lon="11.3288435"><ele>29.5</ele><time>2026-04-18T09:42:42.777Z</time></trkpt><trkpt lat="45.411574" lon="11.3287363"><ele>29.75</ele><time>2026-04-18T09:42:43.777Z</time></trkpt><trkpt lat="45.4116953" lon="11.3286358"><ele>30.0</ele><time>2026-04-18T09:42:44.778Z</time></trkpt><trkpt lat="45.4118085" lon="11.3285477"><ele>30.0</ele><time>2026-04-18T09:42:45.777Z</time></trkpt><trkpt lat="45.4119129" lon="11.3284633"><ele>30.0</ele><time>2026-04-18T09:42:46.777Z</time></trkpt><trkpt lat="45.4120094" lon="11.3283847"><ele>30.0</ele><time>2026-04-18T09:42:47.777Z</time></trkpt><trkpt lat="45.4121" lon="11.3283087"><ele>30.0</ele><time>2026-04-18T09:42:48.777Z</time></trkpt><trkpt lat="45.4121897" lon="11.3282339"><ele>30.0</ele><time>2026-04-18T09:42:49.777Z</time></trkpt><trkpt lat="45.4122894" lon="11.3281571"><ele>30.0</ele><time>2026-04-18T09:42:50.778Z</time></trkpt><trkpt lat="45.4123806" lon="11.3280823"><ele>30.0</ele><time>2026-04-18T09:42:51.777Z</time></trkpt><trkpt lat="45.4124713" lon="11.3280102"><ele>30.0</ele><time>2026-04-18T09:42:52.778Z</time></trkpt><trkpt lat="45.4125701" lon="11.3279327"><ele>30.0</ele><time>2026-04-18T09:42:53.777Z</time></trkpt><trkpt lat="45.4126618" lon="11.3278549"><ele>30.0</ele><time>2026-04-18T09:42:54.777Z</time></trkpt><trkpt lat="45.4127475" lon="11.3277849"><ele>30.166666666666668</ele><time>2026-04-18T09:42:55.777Z</time></trkpt><trkpt lat="45.4128194" lon="11.3277268"><ele>30.333333333333336</ele><time>2026-04-18T09:42:56.777Z</time></trkpt><trkpt lat="45.4129168" lon="11.3276494"><ele>30.5</ele><time>2026-04-18T09:42:58.777Z</time></trkpt><trkpt lat="45.4129781" lon="11.3275912"><ele>30.666666666666668</ele><time>2026-04-18T09:43:01.777Z</time></trkpt><trkpt lat="45.4129778" lon="11.3274967"><ele>30.833333333333336</ele><time>2026-04-18T09:43:03.777Z</time></trkpt><trkpt lat="45.4129463" lon="11.3274103"><ele>31.0</ele><time>2026-04-18T09:43:04.777Z</time></trkpt><trkpt lat="45.4129048" lon="11.3272994"><ele>30.666666666666668</ele><time>2026-04-18T09:43:05.777Z</time></trkpt><trkpt lat="45.4128658" lon="11.3271969"><ele>30.333333333333336</ele><time>2026-04-18T09:43:06.778Z</time></trkpt><trkpt lat="45.4128192" lon="11.3270914"><ele>30.0</ele><time>2026-04-18T09:43:07.777Z</time></trkpt><trkpt lat="45.412781" lon="11.3269925"><ele>29.666666666666664</ele><time>2026-04-18T09:43:08.778Z</time></trkpt><trkpt lat="45.4127503" lon="11.3268952"><ele>29.333333333333332</ele><time>2026-04-18T09:43:09.777Z</time></trkpt><trkpt lat="45.4127497" lon="11.3267959"><ele>29.0</ele><time>2026-04-18T09:43:10.777Z</time></trkpt><trkpt lat="45.4127714" lon="11.32671"><ele>28.999999999999996</ele><time>2026-04-18T09:43:11.777Z</time></trkpt><trkpt lat="45.4128201" lon="11.3266345"><ele>29.0</ele><time>2026-04-18T09:43:12.777Z</time></trkpt><trkpt lat="45.41289" lon="11.3265754"><ele>29.0</ele><time>2026-04-18T09:43:13.777Z</time></trkpt><trkpt lat="45.4129667" lon="11.326521"><ele>29.0</ele><time>2026-04-18T09:43:14.777Z</time></trkpt><trkpt lat="45.4130455" lon="11.3264649"><ele>28.999999999999996</ele><time>2026-04-18T09:43:15.777Z</time></trkpt><trkpt lat="45.4131267" lon="11.3264082"><ele>29.0</ele><time>2026-04-18T09:43:16.777Z</time></trkpt><trkpt lat="45.4132015" lon="11.3263574"><ele>29.2</ele><time>2026-04-18T09:43:17.777Z</time></trkpt><trkpt lat="45.4132777" lon="11.3263031"><ele>29.4</ele><time>2026-04-18T09:43:18.777Z</time></trkpt><trkpt lat="45.4133581" lon="11.3262466"><ele>29.6</ele><time>2026-04-18T09:43:19.777Z</time></trkpt><trkpt lat="45.4134393" lon="11.3261836"><ele>29.8</ele><time>2026-04-18T09:43:20.777Z</time></trkpt><trkpt lat="45.413524" lon="11.3261224"><ele>30.0</ele><time>2026-04-18T09:43:21.778Z</time></trkpt><trkpt lat="45.4136109" lon="11.3260593"><ele>30.0</ele><time>2026-04-18T09:43:22.777Z</time></trkpt><trkpt lat="45.4137013" lon="11.3259948"><ele>30.0</ele><time>2026-04-18T09:43:23.777Z</time></trkpt><trkpt lat="45.4138012" lon="11.3259214"><ele>30.0</ele><time>2026-04-18T09:43:24.777Z</time></trkpt><trkpt lat="45.4139012" lon="11.3258458"><ele>30.0</ele><time>2026-04-18T09:43:25.777Z</time></trkpt><trkpt lat="45.4139972" lon="11.3257727"><ele>30.0</ele><time>2026-04-18T09:43:26.777Z</time></trkpt><trkpt lat="45.4140918" lon="11.3257025"><ele>30.4</ele><time>2026-04-18T09:43:27.778Z</time></trkpt><trkpt lat="45.4141855" lon="11.3256329"><ele>30.8</ele><time>2026-04-18T09:43:28.777Z</time></trkpt><trkpt lat="45.4142826" lon="11.3255609"><ele>31.200000000000003</ele><time>2026-04-18T09:43:29.777Z</time></trkpt><trkpt lat="45.4143795" lon="11.3254913"><ele>31.6</ele><time>2026-04-18T09:43:30.777Z</time></trkpt><trkpt lat="45.4144696" lon="11.3254268"><ele>32.0</ele><time>2026-04-18T09:43:31.777Z</time></trkpt><trkpt lat="45.4145549" lon="11.3253708"><ele>32.0</ele><time>2026-04-18T09:43:32.777Z</time></trkpt><trkpt lat="45.4146322" lon="11.325315"><ele>31.999999999999996</ele><time>2026-04-18T09:43:33.777Z</time></trkpt><trkpt lat="45.4147027" lon="11.325262"><ele>32.0</ele><time>2026-04-18T09:43:34.777Z</time></trkpt><trkpt lat="45.4147714" lon="11.3252096"><ele>32.0</ele><time>2026-04-18T09:43:35.777Z</time></trkpt><trkpt lat="45.4148323" lon="11.3251648"><ele>31.999999999999996</ele><time>2026-04-18T09:43:36.777Z</time></trkpt><trkpt lat="45.4148944" lon="11.32512"><ele>32.0</ele><time>2026-04-18T09:43:37.777Z</time></trkpt><trkpt lat="45.4149539" lon="11.3250848"><ele>32.0</ele><time>2026-04-18T09:43:38.777Z</time></trkpt><trkpt lat="45.4150166" lon="11.325045"><ele>32.2</ele><time>2026-04-18T09:43:40.777Z</time></trkpt><trkpt lat="45.4150855" lon="11.3249781"><ele>32.400000000000006</ele><time>2026-04-18T09:44:10.777Z</time></trkpt><trkpt lat="45.4150726" lon="11.3248024"><ele>32.599999999999994</ele><time>2026-04-18T09:44:12.777Z</time></trkpt><trkpt lat="45.4150281" lon="11.3246641"><ele>32.8</ele><time>2026-04-18T09:44:13.777Z</time></trkpt><trkpt lat="45.4149871" lon="11.3245077"><ele>33.0</ele><time>2026-04-18T09:44:14.777Z</time></trkpt><trkpt lat="45.4149345" lon="11.3243278"><ele>32.75</ele><time>2026-04-18T09:44:15.777Z</time></trkpt><trkpt lat="45.4148775" lon="11.3241351"><ele>32.5</ele><time>2026-04-18T09:44:16.777Z</time></trkpt><trkpt lat="45.4148232" lon="11.3239566"><ele>32.25</ele><time>2026-04-18T09:44:17.777Z</time></trkpt><trkpt lat="45.4147732" lon="11.323796"><ele>32.0</ele><time>2026-04-18T09:44:18.777Z</time></trkpt><trkpt lat="45.4147267" lon="11.3236492"><ele>32.0</ele><time>2026-04-18T09:44:19.777Z</time></trkpt><trkpt lat="45.4146887" lon="11.3235307"><ele>32.0</ele><time>2026-04-18T09:44:20.777Z</time></trkpt><trkpt lat="45.4146677" lon="11.3234385"><ele>32.0</ele><time>2026-04-18T09:44:21.777Z</time></trkpt><trkpt lat="45.4146887" lon="11.3233038"><ele>32.0</ele><time>2026-04-18T09:44:23.777Z</time></trkpt><trkpt lat="45.4148048" lon="11.3231908"><ele>32.0</ele><time>2026-04-18T09:44:25.777Z</time></trkpt><trkpt lat="45.4148957" lon="11.3231238"><ele>31.75</ele><time>2026-04-18T09:44:26.777Z</time></trkpt><trkpt lat="45.4149999" lon="11.323051"><ele>31.5</ele><time>2026-04-18T09:44:27.777Z</time></trkpt><trkpt lat="45.4151139" lon="11.3229742"><ele>31.25</ele><time>2026-04-18T09:44:28.777Z</time></trkpt><trkpt lat="45.4152334" lon="11.3228924"><ele>31.0</ele><time>2026-04-18T09:44:29.777Z</time></trkpt><trkpt lat="45.4153632" lon="11.3228006"><ele>31.333333333333336</ele><time>2026-04-18T09:44:30.777Z</time></trkpt><trkpt lat="45.4155" lon="11.3227019"><ele>31.666666666666664</ele><time>2026-04-18T09:44:31.777Z</time></trkpt><trkpt lat="45.4156389" lon="11.322607"><ele>32.0</ele><time>2026-04-18T09:44:32.777Z</time></trkpt><trkpt lat="45.4157759" lon="11.3225101"><ele>32.0</ele><time>2026-04-18T09:44:33.777Z</time></trkpt><trkpt lat="45.4159119" lon="11.322409"><ele>32.0</ele><time>2026-04-18T09:44:34.778Z</time></trkpt><trkpt lat="45.4160385" lon="11.3223148"><ele>32.0</ele><time>2026-04-18T09:44:35.777Z</time></trkpt><trkpt lat="45.4161692" lon="11.3222202"><ele>32.0</ele><time>2026-04-18T09:44:36.777Z</time></trkpt><trkpt lat="45.4163096" lon="11.3221163"><ele>31.666666666666664</ele><time>2026-04-18T09:44:37.777Z</time></trkpt><trkpt lat="45.4164518" lon="11.3220125"><ele>31.333333333333336</ele><time>2026-04-18T09:44:38.777Z</time></trkpt><trkpt lat="45.4166008" lon="11.3219078"><ele>31.0</ele><time>2026-04-18T09:44:39.778Z</time></trkpt><trkpt lat="45.4167534" lon="11.3218023"><ele>31.0</ele><time>2026-04-18T09:44:40.777Z</time></trkpt><trkpt lat="45.4169093" lon="11.3216895"><ele>31.0</ele><time>2026-04-18T09:44:41.777Z</time></trkpt><trkpt lat="45.4170653" lon="11.3215741"><ele>31.0</ele><time>2026-04-18T09:44:42.777Z</time></trkpt><trkpt lat="45.417222" lon="11.3214578"><ele>31.666666666666668</ele><time>2026-04-18T09:44:43.777Z</time></trkpt><trkpt lat="45.4173744" lon="11.3213444"><ele>32.333333333333336</ele><time>2026-04-18T09:44:44.777Z</time></trkpt><trkpt lat="45.4175213" lon="11.3212356"><ele>33.0</ele><time>2026-04-18T09:44:45.777Z</time></trkpt><trkpt lat="45.4176576" lon="11.3211331"><ele>33.0</ele><time>2026-04-18T09:44:46.777Z</time></trkpt><trkpt lat="45.4177873" lon="11.3210381"><ele>33.0</ele><time>2026-04-18T09:44:47.777Z</time></trkpt><trkpt lat="45.417913" lon="11.3209446"><ele>33.0</ele><time>2026-04-18T09:44:48.777Z</time></trkpt><trkpt lat="45.4180269" lon="11.3208622"><ele>33.0</ele><time>2026-04-18T09:44:49.778Z</time></trkpt><trkpt lat="45.4181288" lon="11.3207896"><ele>32.8</ele><time>2026-04-18T09:44:50.777Z</time></trkpt><trkpt lat="45.4182159" lon="11.3207355"><ele>32.599999999999994</ele><time>2026-04-18T09:44:51.777Z</time></trkpt><trkpt lat="45.4182918" lon="11.3206902"><ele>32.400000000000006</ele><time>2026-04-18T09:44:52.778Z</time></trkpt><trkpt lat="45.4183537" lon="11.3206631"><ele>32.2</ele><time>2026-04-18T09:44:53.777Z</time></trkpt><trkpt lat="45.418478" lon="11.3206927"><ele>32.0</ele><time>2026-04-18T09:44:55.777Z</time></trkpt><trkpt lat="45.4185643" lon="11.3207687"><ele>32.0</ele><time>2026-04-18T09:44:56.777Z</time></trkpt><trkpt lat="45.4186695" lon="11.3208689"><ele>32.0</ele><time>2026-04-18T09:44:57.777Z</time></trkpt><trkpt lat="45.4187923" lon="11.3209795"><ele>32.0</ele><time>2026-04-18T09:44:58.777Z</time></trkpt><trkpt lat="45.4189147" lon="11.3210882"><ele>32.0</ele><time>2026-04-18T09:44:59.777Z</time></trkpt><trkpt lat="45.4190229" lon="11.3211879"><ele>31.999999999999996</ele><time>2026-04-18T09:45:00.777Z</time></trkpt><trkpt lat="45.4191197" lon="11.3212752"><ele>32.0</ele><time>2026-04-18T09:45:01.778Z</time></trkpt><trkpt lat="45.4191938" lon="11.3213447"><ele>32.0</ele><time>2026-04-18T09:45:02.777Z</time></trkpt><trkpt lat="45.4192515" lon="11.3213967"><ele>32.0</ele><time>2026-04-18T09:45:03.777Z</time></trkpt><trkpt lat="45.4193323" lon="11.321428"><ele>31.999999999999996</ele><time>2026-04-18T09:45:05.777Z</time></trkpt><trkpt lat="45.4194074" lon="11.3213927"><ele>32.0</ele><time>2026-04-18T09:45:07.777Z</time></trkpt><trkpt lat="45.4194808" lon="11.3212594"><ele>32.2</ele><time>2026-04-18T09:45:09.777Z</time></trkpt><trkpt lat="45.4195198" lon="11.3211612"><ele>32.400000000000006</ele><time>2026-04-18T09:45:11.777Z</time></trkpt><trkpt lat="45.4194579" lon="11.3210406"><ele>32.599999999999994</ele><time>2026-04-18T09:45:14.777Z</time></trkpt><trkpt lat="45.4193432" lon="11.3209235"><ele>32.8</ele><time>2026-04-18T09:45:16.777Z</time></trkpt><trkpt lat="45.4192635" lon="11.3208511"><ele>33.0</ele><time>2026-04-18T09:45:17.777Z</time></trkpt><trkpt lat="45.4191792" lon="11.320771"><ele>33.0</ele><time>2026-04-18T09:45:18.777Z</time></trkpt><trkpt lat="45.4190811" lon="11.3206808"><ele>33.0</ele><time>2026-04-18T09:45:19.777Z</time></trkpt><trkpt lat="45.4189793" lon="11.3205841"><ele>33.0</ele><time>2026-04-18T09:45:20.777Z</time></trkpt><trkpt lat="45.41889" lon="11.3205016"><ele>33.0</ele><time>2026-04-18T09:45:21.777Z</time></trkpt><trkpt lat="45.418816" lon="11.3204284"><ele>33.0</ele><time>2026-04-18T09:45:22.777Z</time></trkpt><trkpt lat="45.4187571" lon="11.3203714"><ele>33.0</ele><time>2026-04-18T09:45:23.777Z</time></trkpt><trkpt lat="45.4187041" lon="11.3203174"><ele>33.0</ele><time>2026-04-18T09:45:24.777Z</time></trkpt><trkpt lat="45.4186406" lon="11.320257"><ele>33.0</ele><time>2026-04-18T09:45:25.777Z</time></trkpt><trkpt lat="45.4185601" lon="11.3201814"><ele>33.0</ele><time>2026-04-18T09:45:26.777Z</time></trkpt><trkpt lat="45.4184695" lon="11.3200972"><ele>33.0</ele><time>2026-04-18T09:45:27.777Z</time></trkpt><trkpt lat="45.4183735" lon="11.3200012"><ele>33.0</ele><time>2026-04-18T09:45:28.777Z</time></trkpt><trkpt lat="45.4182723" lon="11.319899"><ele>33.0</ele><time>2026-04-18T09:45:29.777Z</time></trkpt><trkpt lat="45.4181712" lon="11.3197966"><ele>33.0</ele><time>2026-04-18T09:45:30.777Z</time></trkpt><trkpt lat="45.4180711" lon="11.3196966"><ele>33.0</ele><time>2026-04-18T09:45:31.777Z</time></trkpt><trkpt lat="45.4179729" lon="11.3195995"><ele>33.0</ele><time>2026-04-18T09:45:32.777Z</time></trkpt><trkpt lat="45.4178871" lon="11.3195091"><ele>33.0</ele><time>2026-04-18T09:45:33.777Z</time></trkpt><trkpt lat="45.4177974" lon="11.3194181"><ele>33.0</ele><time>2026-04-18T09:45:34.777Z</time></trkpt><trkpt lat="45.4176866" lon="11.3193098"><ele>33.0</ele><time>2026-04-18T09:45:35.777Z</time></trkpt><trkpt lat="45.41757" lon="11.3191911"><ele>33.0</ele><time>2026-04-18T09:45:36.777Z</time></trkpt><trkpt lat="45.4174666" lon="11.3190869"><ele>33.0</ele><time>2026-04-18T09:45:37.777Z</time></trkpt><trkpt lat="45.4173755" lon="11.3189954"><ele>33.0</ele><time>2026-04-18T09:45:38.777Z</time></trkpt><trkpt lat="45.4172918" lon="11.3189103"><ele>33.0</ele><time>2026-04-18T09:45:39.777Z</time></trkpt><trkpt lat="45.41722" lon="11.3188351"><ele>33.0</ele><time>2026-04-18T09:45:40.777Z</time></trkpt><trkpt lat="45.4171572" lon="11.3187708"><ele>32.8</ele><time>2026-04-18T09:45:41.777Z</time></trkpt><trkpt lat="45.4170838" lon="11.3187005"><ele>32.599999999999994</ele><time>2026-04-18T09:45:42.777Z</time></trkpt><trkpt lat="45.4169888" lon="11.318617"><ele>32.400000000000006</ele><time>2026-04-18T09:45:43.778Z</time></trkpt><trkpt lat="45.4168913" lon="11.3185305"><ele>32.2</ele><time>2026-04-18T09:45:44.777Z</time></trkpt><trkpt lat="45.4168034" lon="11.3184536"><ele>32.0</ele><time>2026-04-18T09:45:45.777Z</time></trkpt><trkpt lat="45.4167133" lon="11.3183733"><ele>32.0</ele><time>2026-04-18T09:45:46.777Z</time></trkpt><trkpt lat="45.4166116" lon="11.3182861"><ele>32.0</ele><time>2026-04-18T09:45:47.778Z</time></trkpt><trkpt lat="45.4164931" lon="11.3181773"><ele>32.0</ele><time>2026-04-18T09:45:48.777Z</time></trkpt><trkpt lat="45.4163876" lon="11.3180776"><ele>32.0</ele><time>2026-04-18T09:45:49.778Z</time></trkpt><trkpt lat="45.4162922" lon="11.3179923"><ele>32.0</ele><time>2026-04-18T09:45:50.777Z</time></trkpt><trkpt lat="45.416208" lon="11.3179124"><ele>32.0</ele><time>2026-04-18T09:45:51.777Z</time></trkpt><trkpt lat="45.4161252" lon="11.3178235"><ele>32.0</ele><time>2026-04-18T09:45:52.777Z</time></trkpt><trkpt lat="45.4160424" lon="11.3177282"><ele>32.0</ele><time>2026-04-18T09:45:53.777Z</time></trkpt><trkpt lat="45.4159569" lon="11.317611"><ele>32.0</ele><time>2026-04-18T09:45:54.778Z</time></trkpt><trkpt lat="45.4158704" lon="11.3174885"><ele>32.0</ele><time>2026-04-18T09:45:55.777Z</time></trkpt><trkpt lat="45.4157873" lon="11.3173609"><ele>32.0</ele><time>2026-04-18T09:45:56.777Z</time></trkpt><trkpt lat="45.4157001" lon="11.3172158"><ele>32.0</ele><time>2026-04-18T09:45:57.778Z</time></trkpt><trkpt lat="45.4156122" lon="11.3170573"><ele>32.0</ele><time>2026-04-18T09:45:58.777Z</time></trkpt><trkpt lat="45.4155236" lon="11.3168863"><ele>31.75</ele><time>2026-04-18T09:45:59.777Z</time></trkpt><trkpt lat="45.4154418" lon="11.3167162"><ele>31.5</ele><time>2026-04-18T09:46:00.777Z</time></trkpt><trkpt lat="45.4153654" lon="11.3165586"><ele>31.25</ele><time>2026-04-18T09:46:01.777Z</time></trkpt><trkpt lat="45.4152946" lon="11.3164035"><ele>31.0</ele><time>2026-04-18T09:46:02.777Z</time></trkpt><trkpt lat="45.4152346" lon="11.3162643"><ele>31.0</ele><time>2026-04-18T09:46:03.777Z</time></trkpt><trkpt lat="45.4151741" lon="11.3161268"><ele>31.0</ele><time>2026-04-18T09:46:04.777Z</time></trkpt><trkpt lat="45.4151196" lon="11.3159895"><ele>31.0</ele><time>2026-04-18T09:46:05.777Z</time></trkpt><trkpt lat="45.4150706" lon="11.3158569"><ele>31.0</ele><time>2026-04-18T09:46:06.777Z</time></trkpt><trkpt lat="45.4150316" lon="11.3157171"><ele>31.0</ele><time>2026-04-18T09:46:07.777Z</time></trkpt><trkpt lat="45.4150002" lon="11.3155735"><ele>31.0</ele><time>2026-04-18T09:46:08.777Z</time></trkpt><trkpt lat="45.4149773" lon="11.3154066"><ele>31.0</ele><time>2026-04-18T09:46:09.777Z</time></trkpt><trkpt lat="45.4149605" lon="11.3152248"><ele>31.0</ele><time>2026-04-18T09:46:10.777Z</time></trkpt><trkpt lat="45.4149389" lon="11.3150131"><ele>31.0</ele><time>2026-04-18T09:46:11.777Z</time></trkpt><trkpt lat="45.4149268" lon="11.3148253"><ele>31.0</ele><time>2026-04-18T09:46:12.777Z</time></trkpt><trkpt lat="45.4149092" lon="11.3146514"><ele>31.0</ele><time>2026-04-18T09:46:13.777Z</time></trkpt><trkpt lat="45.4148941" lon="11.3144789"><ele>31.0</ele><time>2026-04-18T09:46:14.777Z</time></trkpt><trkpt lat="45.4148786" lon="11.3143213"><ele>31.0</ele><time>2026-04-18T09:46:15.777Z</time></trkpt><trkpt lat="45.4148664" lon="11.3141644"><ele>31.0</ele><time>2026-04-18T09:46:16.777Z</time></trkpt><trkpt lat="45.4148508" lon="11.3140124"><ele>31.0</ele><time>2026-04-18T09:46:17.777Z</time></trkpt><trkpt lat="45.4148395" lon="11.313875"><ele>31.0</ele><time>2026-04-18T09:46:18.777Z</time></trkpt><trkpt lat="45.4148301" lon="11.3137515"><ele>31.0</ele><time>2026-04-18T09:46:19.777Z</time></trkpt><trkpt lat="45.4148289" lon="11.3136275"><ele>31.0</ele><time>2026-04-18T09:46:20.777Z</time></trkpt><trkpt lat="45.4148253" lon="11.3135114"><ele>31.000000000000004</ele><time>2026-04-18T09:46:21.777Z</time></trkpt><trkpt lat="45.4148167" lon="11.3134121"><ele>31.0</ele><time>2026-04-18T09:46:22.777Z</time></trkpt><trkpt lat="45.4148142" lon="11.3133218"><ele>31.0</ele><time>2026-04-18T09:46:23.777Z</time></trkpt><trkpt lat="45.4148169" lon="11.3131956"><ele>31.0</ele><time>2026-04-18T09:46:25.777Z</time></trkpt><trkpt lat="45.4148663" lon="11.3130963"><ele>31.000000000000004</ele><time>2026-04-18T09:46:28.777Z</time></trkpt><trkpt lat="45.4149776" lon="11.3130265"><ele>31.0</ele><time>2026-04-18T09:46:30.777Z</time></trkpt><trkpt lat="45.4150572" lon="11.312963"><ele>30.833333333333336</ele><time>2026-04-18T09:46:31.777Z</time></trkpt><trkpt lat="45.4151441" lon="11.3128855"><ele>30.666666666666668</ele><time>2026-04-18T09:46:32.778Z</time></trkpt><trkpt lat="45.415221" lon="11.3128227"><ele>30.5</ele><time>2026-04-18T09:46:33.777Z</time></trkpt><trkpt lat="45.4152907" lon="11.3127642"><ele>30.333333333333336</ele><time>2026-04-18T09:46:34.777Z</time></trkpt><trkpt lat="45.41536" lon="11.3127145"><ele>30.166666666666668</ele><time>2026-04-18T09:46:35.777Z</time></trkpt><trkpt lat="45.4154297" lon="11.3126652"><ele>30.0</ele><time>2026-04-18T09:46:36.777Z</time></trkpt><trkpt lat="45.4154875" lon="11.3126175"><ele>30.166666666666668</ele><time>2026-04-18T09:46:37.778Z</time></trkpt><trkpt lat="45.4155446" lon="11.3125716"><ele>30.333333333333336</ele><time>2026-04-18T09:46:38.777Z</time></trkpt><trkpt lat="45.4156001" lon="11.3125246"><ele>30.5</ele><time>2026-04-18T09:46:39.777Z</time></trkpt><trkpt lat="45.4157141" lon="11.3124517"><ele>30.666666666666668</ele><time>2026-04-18T09:46:41.777Z</time></trkpt><trkpt lat="45.4157872" lon="11.3123851"><ele>30.833333333333336</ele><time>2026-04-18T09:46:43.777Z</time></trkpt><trkpt lat="45.4158023" lon="11.3122452"><ele>31.0</ele><time>2026-04-18T09:46:46.777Z</time></trkpt><trkpt lat="45.4157437" lon="11.312094"><ele>31.0</ele><time>2026-04-18T09:46:48.777Z</time></trkpt><trkpt lat="45.4156992" lon="11.3119788"><ele>31.0</ele><time>2026-04-18T09:46:49.777Z</time></trkpt><trkpt lat="45.4156475" lon="11.3118459"><ele>31.0</ele><time>2026-04-18T09:46:50.777Z</time></trkpt><trkpt lat="45.4155995" lon="11.3117306"><ele>31.0</ele><time>2026-04-18T09:46:51.777Z</time></trkpt><trkpt lat="45.4155535" lon="11.3116158"><ele>31.0</ele><time>2026-04-18T09:46:52.777Z</time></trkpt><trkpt lat="45.4154951" lon="11.3114927"><ele>30.5</ele><time>2026-04-18T09:46:53.778Z</time></trkpt><trkpt lat="45.4154277" lon="11.3113507"><ele>30.0</ele><time>2026-04-18T09:46:54.777Z</time></trkpt><trkpt lat="45.4153566" lon="11.3111605"><ele>29.5</ele><time>2026-04-18T09:46:55.777Z</time></trkpt><trkpt lat="45.4152719" lon="11.3109378"><ele>29.0</ele><time>2026-04-18T09:46:56.777Z</time></trkpt><trkpt lat="45.4151951" lon="11.3107449"><ele>29.25</ele><time>2026-04-18T09:46:57.777Z</time></trkpt><trkpt lat="45.4151223" lon="11.3105675"><ele>29.5</ele><time>2026-04-18T09:46:58.777Z</time></trkpt><trkpt lat="45.4150543" lon="11.3104021"><ele>29.75</ele><time>2026-04-18T09:46:59.777Z</time></trkpt><trkpt lat="45.4149883" lon="11.3102405"><ele>30.0</ele><time>2026-04-18T09:47:00.777Z</time></trkpt><trkpt lat="45.4149233" lon="11.3100764"><ele>30.0</ele><time>2026-04-18T09:47:01.777Z</time></trkpt><trkpt lat="45.4148577" lon="11.3099225"><ele>30.0</ele><time>2026-04-18T09:47:02.777Z</time></trkpt><trkpt lat="45.4147935" lon="11.3097619"><ele>30.0</ele><time>2026-04-18T09:47:03.777Z</time></trkpt><trkpt lat="45.4147217" lon="11.309586"><ele>30.0</ele><time>2026-04-18T09:47:04.777Z</time></trkpt><trkpt lat="45.4146504" lon="11.3094072"><ele>30.0</ele><time>2026-04-18T09:47:05.777Z</time></trkpt><trkpt lat="45.4145883" lon="11.309256"><ele>30.0</ele><time>2026-04-18T09:47:06.777Z</time></trkpt><trkpt lat="45.414527" lon="11.309107"><ele>30.0</ele><time>2026-04-18T09:47:07.777Z</time></trkpt><trkpt lat="45.4144695" lon="11.3089603"><ele>30.0</ele><time>2026-04-18T09:47:08.777Z</time></trkpt><trkpt lat="45.4144133" lon="11.3088103"><ele>30.2</ele><time>2026-04-18T09:47:09.777Z</time></trkpt><trkpt lat="45.4143614" lon="11.3086605"><ele>30.4</ele><time>2026-04-18T09:47:10.777Z</time></trkpt><trkpt lat="45.4143167" lon="11.3085175"><ele>30.6</ele><time>2026-04-18T09:47:11.777Z</time></trkpt><trkpt lat="45.4142816" lon="11.3083875"><ele>30.8</ele><time>2026-04-18T09:47:12.777Z</time></trkpt><trkpt lat="45.4142539" lon="11.3082629"><ele>31.0</ele><time>2026-04-18T09:47:13.777Z</time></trkpt><trkpt lat="45.4142295" lon="11.3081277"><ele>31.000000000000004</ele><time>2026-04-18T09:47:14.777Z</time></trkpt><trkpt lat="45.4142059" lon="11.3079789"><ele>31.0</ele><time>2026-04-18T09:47:15.777Z</time></trkpt><trkpt lat="45.4141829" lon="11.3078368"><ele>31.0</ele><time>2026-04-18T09:47:16.777Z</time></trkpt><trkpt lat="45.4141648" lon="11.3077138"><ele>31.0</ele><time>2026-04-18T09:47:17.778Z</time></trkpt><trkpt lat="45.4141536" lon="11.3076104"><ele>31.000000000000004</ele><time>2026-04-18T09:47:18.777Z</time></trkpt><trkpt lat="45.4141572" lon="11.3075157"><ele>31.0</ele><time>2026-04-18T09:47:19.777Z</time></trkpt><trkpt lat="45.4141689" lon="11.3074126"><ele>31.000000000000004</ele><time>2026-04-18T09:47:20.777Z</time></trkpt><trkpt lat="45.4141936" lon="11.3073075"><ele>31.0</ele><time>2026-04-18T09:47:21.777Z</time></trkpt><trkpt lat="45.4142342" lon="11.3071879"><ele>31.0</ele><time>2026-04-18T09:47:22.777Z</time></trkpt><trkpt lat="45.4142809" lon="11.3070744"><ele>31.0</ele><time>2026-04-18T09:47:23.777Z</time></trkpt><trkpt lat="45.4143215" lon="11.3069748"><ele>31.000000000000004</ele><time>2026-04-18T09:47:24.777Z</time></trkpt><trkpt lat="45.4143509" lon="11.3068853"><ele>31.0</ele><time>2026-04-18T09:47:25.777Z</time></trkpt><trkpt lat="45.4143858" lon="11.3067148"><ele>31.166666666666668</ele><time>2026-04-18T09:47:27.777Z</time></trkpt><trkpt lat="45.4143912" lon="11.306617"><ele>31.333333333333336</ele><time>2026-04-18T09:47:28.777Z</time></trkpt><trkpt lat="45.4143862" lon="11.3065004"><ele>31.5</ele><time>2026-04-18T09:47:29.777Z</time></trkpt><trkpt lat="45.4143768" lon="11.3063857"><ele>31.666666666666664</ele><time>2026-04-18T09:47:30.777Z</time></trkpt><trkpt lat="45.4143578" lon="11.3062642"><ele>31.833333333333332</ele><time>2026-04-18T09:47:31.778Z</time></trkpt><trkpt lat="45.4143279" lon="11.3061301"><ele>32.0</ele><time>2026-04-18T09:47:32.778Z</time></trkpt><trkpt lat="45.4142902" lon="11.3059761"><ele>32.0</ele><time>2026-04-18T09:47:33.777Z</time></trkpt><trkpt lat="45.4142567" lon="11.3058188"><ele>32.0</ele><time>2026-04-18T09:47:34.777Z</time></trkpt><trkpt lat="45.4142286" lon="11.3056582"><ele>32.0</ele><time>2026-04-18T09:47:35.777Z</time></trkpt><trkpt lat="45.414205" lon="11.3054887"><ele>32.0</ele><time>2026-04-18T09:47:36.777Z</time></trkpt><trkpt lat="45.4141856" lon="11.3053309"><ele>32.0</ele><time>2026-04-18T09:47:37.777Z</time></trkpt><trkpt lat="45.4141638" lon="11.305185"><ele>32.0</ele><time>2026-04-18T09:47:38.777Z</time></trkpt><trkpt lat="45.4141438" lon="11.3050439"><ele>32.0</ele><time>2026-04-18T09:47:39.777Z</time></trkpt><trkpt lat="45.414124" lon="11.3048893"><ele>32.0</ele><time>2026-04-18T09:47:40.777Z</time></trkpt><trkpt lat="45.414103" lon="11.3047244"><ele>32.0</ele><time>2026-04-18T09:47:41.777Z</time></trkpt><trkpt lat="45.4140843" lon="11.304577"><ele>31.833333333333332</ele><time>2026-04-18T09:47:42.777Z</time></trkpt><trkpt lat="45.414064" lon="11.3044379"><ele>31.666666666666664</ele><time>2026-04-18T09:47:43.777Z</time></trkpt><trkpt lat="45.4140442" lon="11.3043208"><ele>31.5</ele><time>2026-04-18T09:47:44.778Z</time></trkpt><trkpt lat="45.4140282" lon="11.304226"><ele>31.333333333333336</ele><time>2026-04-18T09:47:45.777Z</time></trkpt><trkpt lat="45.4140228" lon="11.3040875"><ele>31.166666666666668</ele><time>2026-04-18T09:47:47.777Z</time></trkpt><trkpt lat="45.4140621" lon="11.3039972"><ele>31.0</ele><time>2026-04-18T09:47:49.778Z</time></trkpt><trkpt lat="45.4141542" lon="11.3039475"><ele>31.0</ele><time>2026-04-18T09:47:51.777Z</time></trkpt><trkpt lat="45.4142413" lon="11.3039191"><ele>31.0</ele><time>2026-04-18T09:47:52.778Z</time></trkpt><trkpt lat="45.4143509" lon="11.3038959"><ele>31.0</ele><time>2026-04-18T09:47:53.777Z</time></trkpt><trkpt lat="45.4144571" lon="11.3038713"><ele>31.0</ele><time>2026-04-18T09:47:54.777Z</time></trkpt><trkpt lat="45.4145788" lon="11.3038555"><ele>31.0</ele><time>2026-04-18T09:47:55.777Z</time></trkpt><trkpt lat="45.4147123" lon="11.3038357"><ele>30.5</ele><time>2026-04-18T09:47:56.777Z</time></trkpt><trkpt lat="45.4148342" lon="11.3038161"><ele>30.0</ele><time>2026-04-18T09:47:57.777Z</time></trkpt><trkpt lat="45.4149496" lon="11.3037989"><ele>29.5</ele><time>2026-04-18T09:47:58.777Z</time></trkpt><trkpt lat="45.4150822" lon="11.303774"><ele>29.0</ele><time>2026-04-18T09:47:59.777Z</time></trkpt><trkpt lat="45.4152104" lon="11.3037457"><ele>29.0</ele><time>2026-04-18T09:48:00.777Z</time></trkpt><trkpt lat="45.4153276" lon="11.3037087"><ele>29.0</ele><time>2026-04-18T09:48:01.777Z</time></trkpt><trkpt lat="45.4154502" lon="11.3036655"><ele>29.0</ele><time>2026-04-18T09:48:02.777Z</time></trkpt><trkpt lat="45.415569" lon="11.3036197"><ele>29.0</ele><time>2026-04-18T09:48:03.777Z</time></trkpt><trkpt lat="45.415682" lon="11.303578"><ele>28.999999999999996</ele><time>2026-04-18T09:48:04.778Z</time></trkpt><trkpt lat="45.4157978" lon="11.3035386"><ele>29.0</ele><time>2026-04-18T09:48:05.777Z</time></trkpt><trkpt lat="45.4158992" lon="11.3034987"><ele>29.0</ele><time>2026-04-18T09:48:06.777Z</time></trkpt><trkpt lat="45.4159836" lon="11.3034706"><ele>29.0</ele><time>2026-04-18T09:48:07.777Z</time></trkpt><trkpt lat="45.4160541" lon="11.3034516"><ele>28.999999999999996</ele><time>2026-04-18T09:48:08.777Z</time></trkpt><trkpt lat="45.4161154" lon="11.3034306"><ele>29.0</ele><time>2026-04-18T09:48:09.777Z</time></trkpt><trkpt lat="45.4161938" lon="11.3033329"><ele>29.0</ele><time>2026-04-18T09:48:11.777Z</time></trkpt><trkpt lat="45.4161878" lon="11.3031789"><ele>29.0</ele><time>2026-04-18T09:48:13.777Z</time></trkpt><trkpt lat="45.4161617" lon="11.3030749"><ele>29.0</ele><time>2026-04-18T09:48:14.777Z</time></trkpt><trkpt lat="45.4161232" lon="11.3029481"><ele>29.0</ele><time>2026-04-18T09:48:15.777Z</time></trkpt><trkpt lat="45.4160873" lon="11.3028015"><ele>29.0</ele><time>2026-04-18T09:48:16.778Z</time></trkpt><trkpt lat="45.4160431" lon="11.3026266"><ele>29.25</ele><time>2026-04-18T09:48:17.777Z</time></trkpt><trkpt lat="45.4160001" lon="11.3024431"><ele>29.5</ele><time>2026-04-18T09:48:18.777Z</time></trkpt><trkpt lat="45.4159618" lon="11.3022689"><ele>29.75</ele><time>2026-04-18T09:48:19.777Z</time></trkpt><trkpt lat="45.4159189" lon="11.3020995"><ele>30.0</ele><time>2026-04-18T09:48:20.777Z</time></trkpt><trkpt lat="45.4158766" lon="11.3019273"><ele>30.25</ele><time>2026-04-18T09:48:21.777Z</time></trkpt><trkpt lat="45.4158349" lon="11.3017694"><ele>30.5</ele><time>2026-04-18T09:48:22.777Z</time></trkpt><trkpt lat="45.4157965" lon="11.3016121"><ele>30.75</ele><time>2026-04-18T09:48:23.777Z</time></trkpt><trkpt lat="45.4157566" lon="11.3014465"><ele>31.0</ele><time>2026-04-18T09:48:24.777Z</time></trkpt><trkpt lat="45.415713" lon="11.3012778"><ele>31.25</ele><time>2026-04-18T09:48:25.777Z</time></trkpt><trkpt lat="45.4156664" lon="11.3010975"><ele>31.5</ele><time>2026-04-18T09:48:26.778Z</time></trkpt><trkpt lat="45.4156108" lon="11.3008982"><ele>31.75</ele><time>2026-04-18T09:48:27.777Z</time></trkpt><trkpt lat="45.4155642" lon="11.300714"><ele>32.0</ele><time>2026-04-18T09:48:28.777Z</time></trkpt><trkpt lat="45.4155163" lon="11.30054"><ele>32.0</ele><time>2026-04-18T09:48:29.777Z</time></trkpt><trkpt lat="45.4154643" lon="11.3003278"><ele>32.0</ele><time>2026-04-18T09:48:30.777Z</time></trkpt><trkpt lat="45.4154033" lon="11.3000954"><ele>32.0</ele><time>2026-04-18T09:48:31.777Z</time></trkpt><trkpt lat="45.4153499" lon="11.2998896"><ele>31.6</ele><time>2026-04-18T09:48:32.778Z</time></trkpt><trkpt lat="45.4153046" lon="11.2997121"><ele>31.200000000000003</ele><time>2026-04-18T09:48:33.777Z</time></trkpt><trkpt lat="45.415267" lon="11.2995592"><ele>30.8</ele><time>2026-04-18T09:48:34.777Z</time></trkpt><trkpt lat="45.4152369" lon="11.2994367"><ele>30.4</ele><time>2026-04-18T09:48:35.777Z</time></trkpt><trkpt lat="45.41521" lon="11.2993349"><ele>30.0</ele><time>2026-04-18T09:48:36.777Z</time></trkpt><trkpt lat="45.4151798" lon="11.2992262"><ele>30.0</ele><time>2026-04-18T09:48:37.777Z</time></trkpt><trkpt lat="45.4151532" lon="11.2991129"><ele>30.0</ele><time>2026-04-18T09:48:38.777Z</time></trkpt><trkpt lat="45.41513" lon="11.2990191"><ele>30.0</ele><time>2026-04-18T09:48:39.777Z</time></trkpt><trkpt lat="45.415095" lon="11.2988757"><ele>30.0</ele><time>2026-04-18T09:48:41.777Z</time></trkpt><trkpt lat="45.4151092" lon="11.298771"><ele>30.0</ele><time>2026-04-18T09:49:23.777Z</time></trkpt><trkpt lat="45.4151737" lon="11.2987128"><ele>30.0</ele><time>2026-04-18T09:50:13.777Z</time></trkpt><trkpt lat="45.4152414" lon="11.2986809"><ele>30.2</ele><time>2026-04-18T09:50:14.777Z</time></trkpt><trkpt lat="45.415304" lon="11.2986536"><ele>30.4</ele><time>2026-04-18T09:50:15.777Z</time></trkpt><trkpt lat="45.4153774" lon="11.298624"><ele>30.6</ele><time>2026-04-18T09:50:16.777Z</time></trkpt><trkpt lat="45.4155123" lon="11.2985625"><ele>30.8</ele><time>2026-04-18T09:50:17.777Z</time></trkpt><trkpt lat="45.4156387" lon="11.2985048"><ele>31.0</ele><time>2026-04-18T09:50:18.777Z</time></trkpt><trkpt lat="45.4157439" lon="11.2984501"><ele>31.333333333333336</ele><time>2026-04-18T09:50:19.777Z</time></trkpt><trkpt lat="45.4158343" lon="11.2984097"><ele>31.666666666666668</ele><time>2026-04-18T09:50:20.778Z</time></trkpt><trkpt lat="45.4159207" lon="11.2983931"><ele>32.0</ele><time>2026-04-18T09:50:21.777Z</time></trkpt><trkpt lat="45.4160037" lon="11.298386"><ele>32.333333333333336</ele><time>2026-04-18T09:50:22.777Z</time></trkpt><trkpt lat="45.4160842" lon="11.2984025"><ele>32.666666666666664</ele><time>2026-04-18T09:50:23.778Z</time></trkpt><trkpt lat="45.4161731" lon="11.2984343"><ele>33.0</ele><time>2026-04-18T09:50:24.777Z</time></trkpt><trkpt lat="45.4162638" lon="11.2984842"><ele>32.8</ele><time>2026-04-18T09:50:25.777Z</time></trkpt><trkpt lat="45.416364" lon="11.2985598"><ele>32.599999999999994</ele><time>2026-04-18T09:50:26.778Z</time></trkpt><trkpt lat="45.4164664" lon="11.2986524"><ele>32.400000000000006</ele><time>2026-04-18T09:50:27.777Z</time></trkpt><trkpt lat="45.4165441" lon="11.2987435"><ele>32.2</ele><time>2026-04-18T09:50:28.777Z</time></trkpt><trkpt lat="45.4166244" lon="11.2988311"><ele>32.0</ele><time>2026-04-18T09:50:29.777Z</time></trkpt><trkpt lat="45.4166882" lon="11.2989011"><ele>32.0</ele><time>2026-04-18T09:50:30.777Z</time></trkpt><trkpt lat="45.4167533" lon="11.2989632"><ele>32.0</ele><time>2026-04-18T09:50:31.777Z</time></trkpt><trkpt lat="45.4168572" lon="11.2990115"><ele>32.0</ele><time>2026-04-18T09:50:33.777Z</time></trkpt><trkpt lat="45.4169484" lon="11.2989658"><ele>32.0</ele><time>2026-04-18T09:50:35.777Z</time></trkpt><trkpt lat="45.4170224" lon="11.2988393"><ele>32.0</ele><time>2026-04-18T09:50:37.777Z</time></trkpt><trkpt lat="45.4170571" lon="11.298755"><ele>31.999999999999996</ele><time>2026-04-18T09:50:38.777Z</time></trkpt><trkpt lat="45.4170914" lon="11.2986755"><ele>32.0</ele><time>2026-04-18T09:50:39.777Z</time></trkpt><trkpt lat="45.4171303" lon="11.2985825"><ele>32.0</ele><time>2026-04-18T09:50:40.777Z</time></trkpt><trkpt lat="45.4171655" lon="11.2984907"><ele>32.0</ele><time>2026-04-18T09:50:41.777Z</time></trkpt><trkpt lat="45.4171983" lon="11.2984061"><ele>31.999999999999996</ele><time>2026-04-18T09:50:42.777Z</time></trkpt><trkpt lat="45.4172334" lon="11.2982496"><ele>32.0</ele><time>2026-04-18T09:50:44.777Z</time></trkpt><trkpt lat="45.4172271" lon="11.298071"><ele>31.5</ele><time>2026-04-18T09:50:46.777Z</time></trkpt><trkpt lat="45.4171915" lon="11.2979417"><ele>31.0</ele><time>2026-04-18T09:50:47.777Z</time></trkpt><trkpt lat="45.4171432" lon="11.2977818"><ele>30.5</ele><time>2026-04-18T09:50:48.777Z</time></trkpt><trkpt lat="45.4171066" lon="11.2976118"><ele>30.0</ele><time>2026-04-18T09:50:49.777Z</time></trkpt><trkpt lat="45.4170872" lon="11.2974307"><ele>30.0</ele><time>2026-04-18T09:50:50.777Z</time></trkpt><trkpt lat="45.4170717" lon="11.2972641"><ele>30.0</ele><time>2026-04-18T09:50:51.777Z</time></trkpt><trkpt lat="45.4170717" lon="11.2970978"><ele>30.0</ele><time>2026-04-18T09:50:52.777Z</time></trkpt><trkpt lat="45.4170759" lon="11.2969322"><ele>30.0</ele><time>2026-04-18T09:50:53.777Z</time></trkpt><trkpt lat="45.4170896" lon="11.2967607"><ele>30.0</ele><time>2026-04-18T09:50:54.777Z</time></trkpt><trkpt lat="45.4171163" lon="11.2965975"><ele>30.0</ele><time>2026-04-18T09:50:55.777Z</time></trkpt><trkpt lat="45.4171619" lon="11.2964377"><ele>30.0</ele><time>2026-04-18T09:50:56.777Z</time></trkpt><trkpt lat="45.417214" lon="11.2962962"><ele>30.0</ele><time>2026-04-18T09:50:57.777Z</time></trkpt><trkpt lat="45.4172762" lon="11.2961643"><ele>29.75</ele><time>2026-04-18T09:50:58.777Z</time></trkpt><trkpt lat="45.4173493" lon="11.2960156"><ele>29.5</ele><time>2026-04-18T09:50:59.777Z</time></trkpt><trkpt lat="45.4174193" lon="11.2958666"><ele>29.25</ele><time>2026-04-18T09:51:00.777Z</time></trkpt><trkpt lat="45.4174872" lon="11.2957241"><ele>29.0</ele><time>2026-04-18T09:51:01.777Z</time></trkpt><trkpt lat="45.4175518" lon="11.2955917"><ele>28.799999999999997</ele><time>2026-04-18T09:51:02.777Z</time></trkpt><trkpt lat="45.4176196" lon="11.2954622"><ele>28.599999999999998</ele><time>2026-04-18T09:51:03.777Z</time></trkpt><trkpt lat="45.417683" lon="11.2953407"><ele>28.4</ele><time>2026-04-18T09:51:04.777Z</time></trkpt><trkpt lat="45.4177411" lon="11.2952301"><ele>28.2</ele><time>2026-04-18T09:51:05.777Z</time></trkpt><trkpt lat="45.4177994" lon="11.2951169"><ele>28.0</ele><time>2026-04-18T09:51:06.777Z</time></trkpt><trkpt lat="45.4178585" lon="11.2950015"><ele>28.000000000000004</ele><time>2026-04-18T09:51:07.777Z</time></trkpt><trkpt lat="45.4179051" lon="11.2949046"><ele>28.0</ele><time>2026-04-18T09:51:08.777Z</time></trkpt><trkpt lat="45.4179523" lon="11.2948173"><ele>28.0</ele><time>2026-04-18T09:51:09.777Z</time></trkpt><trkpt lat="45.4179972" lon="11.2947236"><ele>28.0</ele><time>2026-04-18T09:51:10.777Z</time></trkpt><trkpt lat="45.4180489" lon="11.2946108"><ele>28.000000000000004</ele><time>2026-04-18T09:51:11.777Z</time></trkpt><trkpt lat="45.4180924" lon="11.2944961"><ele>28.0</ele><time>2026-04-18T09:51:12.777Z</time></trkpt><trkpt lat="45.4181287" lon="11.294369"><ele>28.5</ele><time>2026-04-18T09:51:13.777Z</time></trkpt><trkpt lat="45.418151" lon="11.2942265"><ele>29.0</ele><time>2026-04-18T09:51:14.777Z</time></trkpt><trkpt lat="45.4181565" lon="11.2940757"><ele>29.5</ele><time>2026-04-18T09:51:15.777Z</time></trkpt><trkpt lat="45.4181436" lon="11.2939162"><ele>30.0</ele><time>2026-04-18T09:51:16.777Z</time></trkpt><trkpt lat="45.4181228" lon="11.2937215"><ele>31.0</ele><time>2026-04-18T09:51:17.777Z</time></trkpt><trkpt lat="45.4181042" lon="11.2935029"><ele>32.0</ele><time>2026-04-18T09:51:18.777Z</time></trkpt><trkpt lat="45.4180871" lon="11.2933012"><ele>33.0</ele><time>2026-04-18T09:51:19.778Z</time></trkpt><trkpt lat="45.4180727" lon="11.2931182"><ele>34.0</ele><time>2026-04-18T09:51:20.777Z</time></trkpt><trkpt lat="45.4180611" lon="11.2929481"><ele>34.0</ele><time>2026-04-18T09:51:21.777Z</time></trkpt><trkpt lat="45.4180524" lon="11.2928001"><ele>34.0</ele><time>2026-04-18T09:51:22.777Z</time></trkpt><trkpt lat="45.4180537" lon="11.2926461"><ele>34.0</ele><time>2026-04-18T09:51:23.777Z</time></trkpt><trkpt lat="45.4180689" lon="11.2924747"><ele>34.0</ele><time>2026-04-18T09:51:24.777Z</time></trkpt><trkpt lat="45.4180888" lon="11.2923159"><ele>34.0</ele><time>2026-04-18T09:51:25.778Z</time></trkpt><trkpt lat="45.4181199" lon="11.2921549"><ele>34.0</ele><time>2026-04-18T09:51:26.777Z</time></trkpt><trkpt lat="45.4181705" lon="11.2919735"><ele>34.0</ele><time>2026-04-18T09:51:27.777Z</time></trkpt><trkpt lat="45.4182368" lon="11.2917881"><ele>34.0</ele><time>2026-04-18T09:51:28.777Z</time></trkpt><trkpt lat="45.418299" lon="11.2916176"><ele>34.0</ele><time>2026-04-18T09:51:29.777Z</time></trkpt><trkpt lat="45.4183653" lon="11.291453"><ele>33.25</ele><time>2026-04-18T09:51:30.777Z</time></trkpt><trkpt lat="45.418431" lon="11.2913069"><ele>32.5</ele><time>2026-04-18T09:51:31.777Z</time></trkpt><trkpt lat="45.4185068" lon="11.291176"><ele>31.75</ele><time>2026-04-18T09:51:32.777Z</time></trkpt><trkpt lat="45.4185926" lon="11.2910521"><ele>31.0</ele><time>2026-04-18T09:51:33.777Z</time></trkpt><trkpt lat="45.4186804" lon="11.2909391"><ele>31.000000000000004</ele><time>2026-04-18T09:51:34.778Z</time></trkpt><trkpt lat="45.418768" lon="11.2908537"><ele>31.0</ele><time>2026-04-18T09:51:35.777Z</time></trkpt><trkpt lat="45.4188376" lon="11.2907856"><ele>31.0</ele><time>2026-04-18T09:51:36.777Z</time></trkpt><trkpt lat="45.4189021" lon="11.2907207"><ele>31.0</ele><time>2026-04-18T09:51:37.777Z</time></trkpt><trkpt lat="45.4189611" lon="11.2906539"><ele>31.000000000000004</ele><time>2026-04-18T09:51:38.777Z</time></trkpt><trkpt lat="45.4190132" lon="11.290588"><ele>31.0</ele><time>2026-04-18T09:51:39.777Z</time></trkpt><trkpt lat="45.4190647" lon="11.2905292"><ele>31.6</ele><time>2026-04-18T09:51:40.777Z</time></trkpt><trkpt lat="45.4191069" lon="11.2904518"><ele>32.2</ele><time>2026-04-18T09:51:41.777Z</time></trkpt><trkpt lat="45.4191677" lon="11.2903377"><ele>32.8</ele><time>2026-04-18T09:51:42.777Z</time></trkpt><trkpt lat="45.4192494" lon="11.290194"><ele>33.4</ele><time>2026-04-18T09:51:43.777Z</time></trkpt><trkpt lat="45.4193395" lon="11.2900309"><ele>34.0</ele><time>2026-04-18T09:51:44.777Z</time></trkpt><trkpt lat="45.419422" lon="11.2898687"><ele>33.4</ele><time>2026-04-18T09:51:45.777Z</time></trkpt><trkpt lat="45.4194969" lon="11.2897222"><ele>32.8</ele><time>2026-04-18T09:51:46.777Z</time></trkpt><trkpt lat="45.4195638" lon="11.289583"><ele>32.2</ele><time>2026-04-18T09:51:47.777Z</time></trkpt><trkpt lat="45.4196243" lon="11.2894656"><ele>31.6</ele><time>2026-04-18T09:51:48.777Z</time></trkpt><trkpt lat="45.4196864" lon="11.2893646"><ele>31.0</ele><time>2026-04-18T09:51:49.778Z</time></trkpt><trkpt lat="45.4197476" lon="11.28929"><ele>32.2</ele><time>2026-04-18T09:51:50.777Z</time></trkpt><trkpt lat="45.4198068" lon="11.2892363"><ele>33.400000000000006</ele><time>2026-04-18T09:51:51.777Z</time></trkpt><trkpt lat="45.4198941" lon="11.2891977"><ele>34.6</ele><time>2026-04-18T09:51:52.777Z</time></trkpt><trkpt lat="45.4200013" lon="11.2891618"><ele>35.800000000000004</ele><time>2026-04-18T09:51:53.777Z</time></trkpt><trkpt lat="45.4201003" lon="11.2891178"><ele>37.0</ele><time>2026-04-18T09:51:54.777Z</time></trkpt><trkpt lat="45.4201927" lon="11.2890667"><ele>37.0</ele><time>2026-04-18T09:51:55.777Z</time></trkpt><trkpt lat="45.4202911" lon="11.2890185"><ele>37.0</ele><time>2026-04-18T09:51:56.777Z</time></trkpt><trkpt lat="45.4203816" lon="11.2889556"><ele>37.0</ele><time>2026-04-18T09:51:57.777Z</time></trkpt><trkpt lat="45.4204562" lon="11.2888909"><ele>37.0</ele><time>2026-04-18T09:51:58.777Z</time></trkpt><trkpt lat="45.4205121" lon="11.2888418"><ele>37.0</ele><time>2026-04-18T09:51:59.777Z</time></trkpt><trkpt lat="45.4205867" lon="11.2887712"><ele>37.0</ele><time>2026-04-18T09:52:01.778Z</time></trkpt><trkpt lat="45.4206313" lon="11.288707"><ele>37.2</ele><time>2026-04-18T09:52:03.777Z</time></trkpt><trkpt lat="45.4206691" lon="11.2886255"><ele>37.400000000000006</ele><time>2026-04-18T09:52:04.777Z</time></trkpt><trkpt lat="45.4207209" lon="11.2885144"><ele>37.599999999999994</ele><time>2026-04-18T09:52:05.777Z</time></trkpt><trkpt lat="45.4207792" lon="11.2884009"><ele>37.8</ele><time>2026-04-18T09:52:06.777Z</time></trkpt><trkpt lat="45.4208433" lon="11.2882735"><ele>38.0</ele><time>2026-04-18T09:52:07.777Z</time></trkpt><trkpt lat="45.4209065" lon="11.2881385"><ele>37.166666666666664</ele><time>2026-04-18T09:52:08.777Z</time></trkpt><trkpt lat="45.4209571" lon="11.2880237"><ele>36.33333333333333</ele><time>2026-04-18T09:52:09.777Z</time></trkpt><trkpt lat="45.4210104" lon="11.287915"><ele>35.5</ele><time>2026-04-18T09:52:10.777Z</time></trkpt><trkpt lat="45.4210603" lon="11.2878138"><ele>34.666666666666664</ele><time>2026-04-18T09:52:11.777Z</time></trkpt><trkpt lat="45.4211053" lon="11.2877284"><ele>33.833333333333336</ele><time>2026-04-18T09:52:12.777Z</time></trkpt><trkpt lat="45.42116" lon="11.2876243"><ele>33.0</ele><time>2026-04-18T09:52:14.777Z</time></trkpt><trkpt lat="45.4212098" lon="11.2875588"><ele>33.0</ele><time>2026-04-18T09:53:13.777Z</time></trkpt><trkpt lat="45.4212732" lon="11.2875079"><ele>33.0</ele><time>2026-04-18T09:53:17.777Z</time></trkpt><trkpt lat="45.4213685" lon="11.2874034"><ele>33.0</ele><time>2026-04-18T09:53:19.777Z</time></trkpt><trkpt lat="45.4214016" lon="11.2873171"><ele>33.0</ele><time>2026-04-18T09:53:20.777Z</time></trkpt><trkpt lat="45.4214364" lon="11.2872101"><ele>33.0</ele><time>2026-04-18T09:53:21.777Z</time></trkpt><trkpt lat="45.4214766" lon="11.2871164"><ele>33.0</ele><time>2026-04-18T09:53:22.777Z</time></trkpt><trkpt lat="45.4215178" lon="11.287019"><ele>33.6</ele><time>2026-04-18T09:53:23.777Z</time></trkpt><trkpt lat="45.4215731" lon="11.2869053"><ele>34.199999999999996</ele><time>2026-04-18T09:53:24.778Z</time></trkpt><trkpt lat="45.4216377" lon="11.2867759"><ele>34.8</ele><time>2026-04-18T09:53:25.778Z</time></trkpt><trkpt lat="45.4216976" lon="11.2866511"><ele>35.4</ele><time>2026-04-18T09:53:26.777Z</time></trkpt><trkpt lat="45.4217557" lon="11.2865251"><ele>36.0</ele><time>2026-04-18T09:53:27.777Z</time></trkpt><trkpt lat="45.4218081" lon="11.2863998"><ele>36.0</ele><time>2026-04-18T09:53:28.777Z</time></trkpt><trkpt lat="45.4218586" lon="11.2862837"><ele>36.0</ele><time>2026-04-18T09:53:29.777Z</time></trkpt><trkpt lat="45.4219026" lon="11.2861592"><ele>36.0</ele><time>2026-04-18T09:53:30.777Z</time></trkpt><trkpt lat="45.421944" lon="11.2860455"><ele>36.0</ele><time>2026-04-18T09:53:31.777Z</time></trkpt><trkpt lat="45.4219826" lon="11.2859331"><ele>36.0</ele><time>2026-04-18T09:53:32.777Z</time></trkpt><trkpt lat="45.422018" lon="11.2858163"><ele>36.0</ele><time>2026-04-18T09:53:33.777Z</time></trkpt><trkpt lat="45.4220378" lon="11.2857099"><ele>36.0</ele><time>2026-04-18T09:53:34.777Z</time></trkpt><trkpt lat="45.4220595" lon="11.2855942"><ele>36.0</ele><time>2026-04-18T09:53:35.778Z</time></trkpt><trkpt lat="45.4220739" lon="11.2854736"><ele>36.0</ele><time>2026-04-18T09:53:36.777Z</time></trkpt><trkpt lat="45.4220823" lon="11.2853635"><ele>36.0</ele><time>2026-04-18T09:53:37.777Z</time></trkpt><trkpt lat="45.4220862" lon="11.2852736"><ele>36.0</ele><time>2026-04-18T09:53:38.777Z</time></trkpt><trkpt lat="45.4220881" lon="11.2851242"><ele>36.8</ele><time>2026-04-18T09:53:40.777Z</time></trkpt><trkpt lat="45.4220968" lon="11.284996"><ele>37.6</ele><time>2026-04-18T09:53:42.777Z</time></trkpt><trkpt lat="45.4220914" lon="11.2848409"><ele>38.4</ele><time>2026-04-18T09:53:44.777Z</time></trkpt><trkpt lat="45.4220741" lon="11.2847307"><ele>39.2</ele><time>2026-04-18T09:53:45.777Z</time></trkpt><trkpt lat="45.4220556" lon="11.2846299"><ele>40.0</ele><time>2026-04-18T09:53:46.777Z</time></trkpt><trkpt lat="45.4220326" lon="11.2844833"><ele>40.0</ele><time>2026-04-18T09:53:48.777Z</time></trkpt><trkpt lat="45.4219977" lon="11.2843088"><ele>40.0</ele><time>2026-04-18T09:53:50.777Z</time></trkpt><trkpt lat="45.4219798" lon="11.2841914"><ele>40.0</ele><time>2026-04-18T09:53:51.777Z</time></trkpt><trkpt lat="45.4219591" lon="11.2840576"><ele>40.0</ele><time>2026-04-18T09:53:52.777Z</time></trkpt><trkpt lat="45.4219317" lon="11.2838992"><ele>40.0</ele><time>2026-04-18T09:53:53.777Z</time></trkpt><trkpt lat="45.4218997" lon="11.2837407"><ele>41.0</ele><time>2026-04-18T09:53:54.777Z</time></trkpt><trkpt lat="45.4218696" lon="11.283583"><ele>42.0</ele><time>2026-04-18T09:53:55.777Z</time></trkpt><trkpt lat="45.4218419" lon="11.2834228"><ele>43.0</ele><time>2026-04-18T09:53:56.777Z</time></trkpt><trkpt lat="45.4218186" lon="11.2832649"><ele>44.0</ele><time>2026-04-18T09:53:57.777Z</time></trkpt><trkpt lat="45.4217917" lon="11.283118"><ele>45.0</ele><time>2026-04-18T09:53:58.777Z</time></trkpt><trkpt lat="45.4217622" lon="11.2829796"><ele>46.0</ele><time>2026-04-18T09:53:59.777Z</time></trkpt><trkpt lat="45.4217322" lon="11.2828532"><ele>47.0</ele><time>2026-04-18T09:54:00.777Z</time></trkpt><trkpt lat="45.4217007" lon="11.2827324"><ele>48.0</ele><time>2026-04-18T09:54:01.777Z</time></trkpt><trkpt lat="45.4216723" lon="11.2826132"><ele>49.0</ele><time>2026-04-18T09:54:02.777Z</time></trkpt><trkpt lat="45.4216532" lon="11.2824887"><ele>48.99999999999999</ele><time>2026-04-18T09:54:03.778Z</time></trkpt><trkpt lat="45.4216418" lon="11.2823678"><ele>49.0</ele><time>2026-04-18T09:54:04.777Z</time></trkpt><trkpt lat="45.4216379" lon="11.2822549"><ele>49.0</ele><time>2026-04-18T09:54:05.777Z</time></trkpt><trkpt lat="45.421641" lon="11.2821547"><ele>49.0</ele><time>2026-04-18T09:54:06.777Z</time></trkpt><trkpt lat="45.4216546" lon="11.2820475"><ele>48.99999999999999</ele><time>2026-04-18T09:54:07.777Z</time></trkpt><trkpt lat="45.4216882" lon="11.2819351"><ele>49.0</ele><time>2026-04-18T09:54:08.777Z</time></trkpt><trkpt lat="45.4217225" lon="11.2818397"><ele>49.166666666666664</ele><time>2026-04-18T09:54:09.777Z</time></trkpt><trkpt lat="45.4217647" lon="11.2817436"><ele>49.33333333333333</ele><time>2026-04-18T09:54:10.777Z</time></trkpt><trkpt lat="45.4218001" lon="11.2816478"><ele>49.5</ele><time>2026-04-18T09:54:11.777Z</time></trkpt><trkpt lat="45.4218317" lon="11.281569"><ele>49.66666666666667</ele><time>2026-04-18T09:54:12.777Z</time></trkpt><trkpt lat="45.4218695" lon="11.2814893"><ele>49.833333333333336</ele><time>2026-04-18T09:54:13.777Z</time></trkpt><trkpt lat="45.4219095" lon="11.281398"><ele>50.0</ele><time>2026-04-18T09:54:14.777Z</time></trkpt><trkpt lat="45.4219405" lon="11.2812676"><ele>50.00000000000001</ele><time>2026-04-18T09:54:15.777Z</time></trkpt><trkpt lat="45.4219674" lon="11.2811597"><ele>50.0</ele><time>2026-04-18T09:54:16.778Z</time></trkpt><trkpt lat="45.4219971" lon="11.2810594"><ele>50.0</ele><time>2026-04-18T09:54:17.777Z</time></trkpt><trkpt lat="45.4220208" lon="11.2809734"><ele>50.0</ele><time>2026-04-18T09:54:18.777Z</time></trkpt><trkpt lat="45.4220706" lon="11.2808305"><ele>50.00000000000001</ele><time>2026-04-18T09:54:20.777Z</time></trkpt><trkpt lat="45.4221274" lon="11.2806934"><ele>50.0</ele><time>2026-04-18T09:54:22.777Z</time></trkpt><trkpt lat="45.4221792" lon="11.280573"><ele>50.833333333333336</ele><time>2026-04-18T09:54:24.777Z</time></trkpt><trkpt lat="45.4222329" lon="11.2804883"><ele>51.66666666666667</ele><time>2026-04-18T09:54:27.777Z</time></trkpt><trkpt lat="45.4222848" lon="11.2804365"><ele>52.5</ele><time>2026-04-18T09:54:29.777Z</time></trkpt><trkpt lat="45.4223798" lon="11.2803248"><ele>53.33333333333333</ele><time>2026-04-18T09:54:31.777Z</time></trkpt><trkpt lat="45.4224374" lon="11.2802708"><ele>54.166666666666664</ele><time>2026-04-18T09:54:32.777Z</time></trkpt><trkpt lat="45.4225003" lon="11.2802124"><ele>55.0</ele><time>2026-04-18T09:54:33.777Z</time></trkpt><trkpt lat="45.4225715" lon="11.2801381"><ele>54.99999999999999</ele><time>2026-04-18T09:54:34.778Z</time></trkpt><trkpt lat="45.4226463" lon="11.2800644"><ele>55.0</ele><time>2026-04-18T09:54:35.777Z</time></trkpt><trkpt lat="45.4227229" lon="11.2799927"><ele>55.0</ele><time>2026-04-18T09:54:36.777Z</time></trkpt><trkpt lat="45.4227994" lon="11.2799296"><ele>55.0</ele><time>2026-04-18T09:54:37.777Z</time></trkpt><trkpt lat="45.4228771" lon="11.2798656"><ele>54.99999999999999</ele><time>2026-04-18T09:54:38.777Z</time></trkpt><trkpt lat="45.4229455" lon="11.2798145"><ele>55.0</ele><time>2026-04-18T09:54:39.777Z</time></trkpt><trkpt lat="45.4230409" lon="11.2797441"><ele>51.8</ele><time>2026-04-18T09:54:41.777Z</time></trkpt><trkpt lat="45.4231021" lon="11.2796639"><ele>48.6</ele><time>2026-04-18T09:54:43.777Z</time></trkpt><trkpt lat="45.4231327" lon="11.2795657"><ele>45.4</ele><time>2026-04-18T09:54:44.777Z</time></trkpt><trkpt lat="45.4231783" lon="11.2794393"><ele>42.2</ele><time>2026-04-18T09:54:45.777Z</time></trkpt><trkpt lat="45.4232185" lon="11.2792988"><ele>39.0</ele><time>2026-04-18T09:54:46.777Z</time></trkpt><trkpt lat="45.4232455" lon="11.2791644"><ele>39.0</ele><time>2026-04-18T09:54:47.777Z</time></trkpt><trkpt lat="45.4232661" lon="11.2790292"><ele>39.0</ele><time>2026-04-18T09:54:48.777Z</time></trkpt><trkpt lat="45.4232903" lon="11.2788913"><ele>39.0</ele><time>2026-04-18T09:54:49.777Z</time></trkpt><trkpt lat="45.4233086" lon="11.2787494"><ele>39.0</ele><time>2026-04-18T09:54:50.777Z</time></trkpt><trkpt lat="45.4233336" lon="11.2786071"><ele>39.0</ele><time>2026-04-18T09:54:51.777Z</time></trkpt><trkpt lat="45.4233537" lon="11.2784653"><ele>39.0</ele><time>2026-04-18T09:54:52.777Z</time></trkpt><trkpt lat="45.4233692" lon="11.2783312"><ele>39.0</ele><time>2026-04-18T09:54:53.777Z</time></trkpt><trkpt lat="45.4233862" lon="11.278218"><ele>39.0</ele><time>2026-04-18T09:54:54.777Z</time></trkpt><trkpt lat="45.4234049" lon="11.278052"><ele>39.0</ele><time>2026-04-18T09:54:56.777Z</time></trkpt><trkpt lat="45.4233843" lon="11.2778827"><ele>39.0</ele><time>2026-04-18T09:54:58.777Z</time></trkpt><trkpt lat="45.4233622" lon="11.2777821"><ele>38.833333333333336</ele><time>2026-04-18T09:54:59.777Z</time></trkpt><trkpt lat="45.423328" lon="11.2776765"><ele>38.666666666666664</ele><time>2026-04-18T09:55:00.777Z</time></trkpt><trkpt lat="45.4232955" lon="11.2775811"><ele>38.5</ele><time>2026-04-18T09:55:01.777Z</time></trkpt><trkpt lat="45.4232651" lon="11.2774886"><ele>38.33333333333333</ele><time>2026-04-18T09:55:02.777Z</time></trkpt><trkpt lat="45.4232182" lon="11.2773408"><ele>38.166666666666664</ele><time>2026-04-18T09:55:04.777Z</time></trkpt><trkpt lat="45.4232284" lon="11.2771936"><ele>38.0</ele><time>2026-04-18T09:55:06.777Z</time></trkpt><trkpt lat="45.423325" lon="11.2770907"><ele>37.83333333333333</ele><time>2026-04-18T09:55:08.777Z</time></trkpt><trkpt lat="45.4233827" lon="11.277044"><ele>37.666666666666664</ele><time>2026-04-18T09:55:09.777Z</time></trkpt><trkpt lat="45.4234755" lon="11.2769534"><ele>37.5</ele><time>2026-04-18T09:55:11.777Z</time></trkpt><trkpt lat="45.4235417" lon="11.2768969"><ele>37.333333333333336</ele><time>2026-04-18T09:55:13.777Z</time></trkpt><trkpt lat="45.4236026" lon="11.2768373"><ele>37.16666666666667</ele><time>2026-04-18T09:55:18.777Z</time></trkpt><trkpt lat="45.4236564" lon="11.2767706"><ele>37.0</ele><time>2026-04-18T09:55:19.777Z</time></trkpt><trkpt lat="45.4237224" lon="11.2766858"><ele>37.0</ele><time>2026-04-18T09:55:20.777Z</time></trkpt><trkpt lat="45.4237925" lon="11.2765905"><ele>37.0</ele><time>2026-04-18T09:55:21.777Z</time></trkpt><trkpt lat="45.4238672" lon="11.2764789"><ele>37.0</ele><time>2026-04-18T09:55:22.777Z</time></trkpt><trkpt lat="45.4239419" lon="11.2763518"><ele>37.0</ele><time>2026-04-18T09:55:23.777Z</time></trkpt><trkpt lat="45.4240073" lon="11.2762187"><ele>37.0</ele><time>2026-04-18T09:55:24.777Z</time></trkpt><trkpt lat="45.4240656" lon="11.2760768"><ele>37.0</ele><time>2026-04-18T09:55:25.777Z</time></trkpt><trkpt lat="45.4241241" lon="11.275919"><ele>37.0</ele><time>2026-04-18T09:55:26.777Z</time></trkpt><trkpt lat="45.424176" lon="11.2757663"><ele>37.0</ele><time>2026-04-18T09:55:27.778Z</time></trkpt><trkpt lat="45.4242256" lon="11.2756327"><ele>37.0</ele><time>2026-04-18T09:55:28.777Z</time></trkpt><trkpt lat="45.4242676" lon="11.2755164"><ele>37.0</ele><time>2026-04-18T09:55:29.777Z</time></trkpt><trkpt lat="45.4243069" lon="11.2754096"><ele>37.57142857142857</ele><time>2026-04-18T09:55:30.778Z</time></trkpt><trkpt lat="45.4243349" lon="11.2753014"><ele>38.14285714285714</ele><time>2026-04-18T09:55:31.777Z</time></trkpt><trkpt lat="45.4243423" lon="11.2752039"><ele>38.71428571428571</ele><time>2026-04-18T09:55:32.777Z</time></trkpt><trkpt lat="45.4243345" lon="11.2751145"><ele>39.285714285714285</ele><time>2026-04-18T09:55:33.777Z</time></trkpt><trkpt lat="45.4243138" lon="11.2750171"><ele>39.857142857142854</ele><time>2026-04-18T09:55:34.777Z</time></trkpt><trkpt lat="45.4242801" lon="11.2749165"><ele>40.42857142857142</ele><time>2026-04-18T09:55:35.777Z</time></trkpt><trkpt lat="45.4242448" lon="11.2748266"><ele>41.0</ele><time>2026-04-18T09:55:36.777Z</time></trkpt><trkpt lat="45.424214" lon="11.2747433"><ele>42.5</ele><time>2026-04-18T09:55:37.777Z</time></trkpt><trkpt lat="45.4241963" lon="11.2746443"><ele>44.0</ele><time>2026-04-18T09:55:38.777Z</time></trkpt><trkpt lat="45.424186" lon="11.2745438"><ele>45.5</ele><time>2026-04-18T09:55:39.777Z</time></trkpt><trkpt lat="45.4241803" lon="11.2744232"><ele>47.0</ele><time>2026-04-18T09:55:40.778Z</time></trkpt><trkpt lat="45.4241714" lon="11.2742904"><ele>48.50000000000001</ele><time>2026-04-18T09:55:41.777Z</time></trkpt><trkpt lat="45.4241591" lon="11.2741532"><ele>50.0</ele><time>2026-04-18T09:55:42.777Z</time></trkpt><trkpt lat="45.4241461" lon="11.274026"><ele>51.66666666666667</ele><time>2026-04-18T09:55:43.777Z</time></trkpt><trkpt lat="45.4241389" lon="11.2739057"><ele>53.333333333333336</ele><time>2026-04-18T09:55:44.777Z</time></trkpt><trkpt lat="45.4241295" lon="11.2738165"><ele>55.0</ele><time>2026-04-18T09:55:45.777Z</time></trkpt><trkpt lat="45.4241202" lon="11.2736641"><ele>56.66666666666667</ele><time>2026-04-18T09:55:47.777Z</time></trkpt><trkpt lat="45.4241111" lon="11.2735564"><ele>58.333333333333336</ele><time>2026-04-18T09:55:49.777Z</time></trkpt><trkpt lat="45.4241625" lon="11.2734929"><ele>60.0</ele><time>2026-04-18T09:55:52.777Z</time></trkpt><trkpt lat="45.4242209" lon="11.2735478"><ele>60.0</ele><time>2026-04-18T09:55:54.777Z</time></trkpt><trkpt lat="45.4243113" lon="11.2736369"><ele>60.0</ele><time>2026-04-18T09:55:56.777Z</time></trkpt><trkpt lat="45.4244162" lon="11.2736536"><ele>60.0</ele><time>2026-04-18T09:55:58.777Z</time></trkpt><trkpt lat="45.4245049" lon="11.2736258"><ele>60.0</ele><time>2026-04-18T09:56:00.777Z</time></trkpt><trkpt lat="45.4245278" lon="11.2735164"><ele>60.0</ele><time>2026-04-18T09:56:02.778Z</time></trkpt><trkpt lat="45.4245444" lon="11.2734236"><ele>60.0</ele><time>2026-04-18T09:56:03.777Z</time></trkpt><trkpt lat="45.4245672" lon="11.2733186"><ele>60.0</ele><time>2026-04-18T09:56:04.777Z</time></trkpt><trkpt lat="45.4245951" lon="11.2732304"><ele>60.0</ele><time>2026-04-18T09:56:05.777Z</time></trkpt><trkpt lat="45.4246285" lon="11.2731441"><ele>60.0</ele><time>2026-04-18T09:56:06.777Z</time></trkpt><trkpt lat="45.4246634" lon="11.2730579"><ele>60.0</ele><time>2026-04-18T09:56:07.777Z</time></trkpt><trkpt lat="45.4247081" lon="11.272973"><ele>60.0</ele><time>2026-04-18T09:56:08.777Z</time></trkpt><trkpt lat="45.424752" lon="11.272898"><ele>60.0</ele><time>2026-04-18T09:56:09.777Z</time></trkpt><trkpt lat="45.4247971" lon="11.2728149"><ele>63.0</ele><time>2026-04-18T09:56:10.777Z</time></trkpt><trkpt lat="45.4248417" lon="11.2727369"><ele>66.0</ele><time>2026-04-18T09:56:11.777Z</time></trkpt><trkpt lat="45.4248841" lon="11.272663"><ele>69.0</ele><time>2026-04-18T09:56:12.777Z</time></trkpt><trkpt lat="45.4249331" lon="11.2725949"><ele>72.0</ele><time>2026-04-18T09:56:13.777Z</time></trkpt><trkpt lat="45.4249818" lon="11.2725356"><ele>75.0</ele><time>2026-04-18T09:56:14.777Z</time></trkpt><trkpt lat="45.4250359" lon="11.2724832"><ele>78.0</ele><time>2026-04-18T09:56:15.777Z</time></trkpt><trkpt lat="45.425099" lon="11.2724461"><ele>81.0</ele><time>2026-04-18T09:56:16.777Z</time></trkpt><trkpt lat="45.4251668" lon="11.2724125"><ele>81.0</ele><time>2026-04-18T09:56:17.777Z</time></trkpt><trkpt lat="45.4252391" lon="11.2723756"><ele>81.0</ele><time>2026-04-18T09:56:18.777Z</time></trkpt><trkpt lat="45.4253118" lon="11.2723368"><ele>81.0</ele><time>2026-04-18T09:56:19.777Z</time></trkpt><trkpt lat="45.425375" lon="11.2722994"><ele>81.0</ele><time>2026-04-18T09:56:20.777Z</time></trkpt><trkpt lat="45.4254336" lon="11.2722573"><ele>81.0</ele><time>2026-04-18T09:56:21.777Z</time></trkpt><trkpt lat="45.4255466" lon="11.2721637"><ele>81.0</ele><time>2026-04-18T09:56:23.777Z</time></trkpt><trkpt lat="45.4256054" lon="11.272115"><ele>84.0</ele><time>2026-04-18T09:56:24.777Z</time></trkpt><trkpt lat="45.4257153" lon="11.2720157"><ele>87.0</ele><time>2026-04-18T09:56:26.777Z</time></trkpt><trkpt lat="45.4257662" lon="11.2719574"><ele>90.0</ele><time>2026-04-18T09:56:27.777Z</time></trkpt><trkpt lat="45.4258148" lon="11.2718907"><ele>93.0</ele><time>2026-04-18T09:56:28.777Z</time></trkpt><trkpt lat="45.425865" lon="11.2718153"><ele>96.0</ele><time>2026-04-18T09:56:29.777Z</time></trkpt><trkpt lat="45.4259059" lon="11.2717385"><ele>99.0</ele><time>2026-04-18T09:56:30.778Z</time></trkpt><trkpt lat="45.4259522" lon="11.2716552"><ele>99.0</ele><time>2026-04-18T09:56:31.777Z</time></trkpt><trkpt lat="45.4259934" lon="11.2715676"><ele>99.0</ele><time>2026-04-18T09:56:32.777Z</time></trkpt><trkpt lat="45.4260324" lon="11.2714893"><ele>99.0</ele><time>2026-04-18T09:56:33.777Z</time></trkpt><trkpt lat="45.426069" lon="11.2714157"><ele>99.0</ele><time>2026-04-18T09:56:34.777Z</time></trkpt><trkpt lat="45.4261112" lon="11.271336"><ele>99.0</ele><time>2026-04-18T09:56:36.777Z</time></trkpt><trkpt lat="45.4262096" lon="11.2713246"><ele>99.0</ele><time>2026-04-18T09:56:39.777Z</time></trkpt><trkpt lat="45.426288" lon="11.27135"><ele>102.16666666666667</ele><time>2026-04-18T09:56:41.778Z</time></trkpt><trkpt lat="45.426361" lon="11.2713405"><ele>105.33333333333334</ele><time>2026-04-18T09:56:43.777Z</time></trkpt><trkpt lat="45.4263854" lon="11.2712456"><ele>108.5</ele><time>2026-04-18T09:56:45.777Z</time></trkpt><trkpt lat="45.426422" lon="11.2711103"><ele>111.66666666666667</ele><time>2026-04-18T09:56:47.777Z</time></trkpt><trkpt lat="45.4264994" lon="11.2709808"><ele>114.83333333333334</ele><time>2026-04-18T09:56:49.777Z</time></trkpt><trkpt lat="45.4265517" lon="11.2709276"><ele>118.0</ele><time>2026-04-18T09:56:50.777Z</time></trkpt><trkpt lat="45.4266575" lon="11.270831"><ele>118.00000000000001</ele><time>2026-04-18T09:56:52.777Z</time></trkpt><trkpt lat="45.4267124" lon="11.2707698"><ele>118.0</ele><time>2026-04-18T09:56:53.777Z</time></trkpt><trkpt lat="45.4267679" lon="11.2707196"><ele>118.0</ele><time>2026-04-18T09:56:54.777Z</time></trkpt><trkpt lat="45.4268511" lon="11.270634"><ele>118.0</ele><time>2026-04-18T09:56:56.777Z</time></trkpt><trkpt lat="45.4268857" lon="11.2705171"><ele>118.00000000000001</ele><time>2026-04-18T09:56:58.777Z</time></trkpt><trkpt lat="45.4268526" lon="11.2704371"><ele>118.0</ele><time>2026-04-18T09:56:59.777Z</time></trkpt><trkpt lat="45.4268323" lon="11.2703466"><ele>119.50000000000001</ele><time>2026-04-18T09:57:00.778Z</time></trkpt><trkpt lat="45.4267727" lon="11.2702084"><ele>121.0</ele><time>2026-04-18T09:57:02.777Z</time></trkpt><trkpt lat="45.4266613" lon="11.2701396"><ele>122.5</ele><time>2026-04-18T09:57:04.777Z</time></trkpt><trkpt lat="45.4265965" lon="11.2701133"><ele>124.0</ele><time>2026-04-18T09:57:05.777Z</time></trkpt><trkpt lat="45.4265356" lon="11.2700835"><ele>125.50000000000001</ele><time>2026-04-18T09:57:06.777Z</time></trkpt><trkpt lat="45.4264667" lon="11.270038"><ele>127.0</ele><time>2026-04-18T09:57:07.777Z</time></trkpt><trkpt lat="45.4263986" lon="11.269993"><ele>127.00000000000001</ele><time>2026-04-18T09:57:08.777Z</time></trkpt><trkpt lat="45.4263305" lon="11.2699546"><ele>127.0</ele><time>2026-04-18T09:57:09.777Z</time></trkpt><trkpt lat="45.4262502" lon="11.2699106"><ele>127.0</ele><time>2026-04-18T09:57:10.777Z</time></trkpt><trkpt lat="45.4261838" lon="11.2698756"><ele>127.0</ele><time>2026-04-18T09:57:11.777Z</time></trkpt><trkpt lat="45.4261184" lon="11.2698385"><ele>127.00000000000001</ele><time>2026-04-18T09:57:12.777Z</time></trkpt><trkpt lat="45.4260466" lon="11.2697868"><ele>127.0</ele><time>2026-04-18T09:57:13.777Z</time></trkpt><trkpt lat="45.4259823" lon="11.2697386"><ele>129.0</ele><time>2026-04-18T09:57:14.777Z</time></trkpt><trkpt lat="45.4259171" lon="11.2696767"><ele>131.0</ele><time>2026-04-18T09:57:15.777Z</time></trkpt><trkpt lat="45.4258311" lon="11.269591"><ele>133.0</ele><time>2026-04-18T09:57:17.777Z</time></trkpt><trkpt lat="45.4257529" lon="11.269505"><ele>135.0</ele><time>2026-04-18T09:57:19.778Z</time></trkpt><trkpt lat="45.4256731" lon="11.2694137"><ele>137.0</ele><time>2026-04-18T09:57:21.777Z</time></trkpt><trkpt lat="45.425611" lon="11.2693378"><ele>137.0</ele><time>2026-04-18T09:57:23.777Z</time></trkpt><trkpt lat="45.425549" lon="11.2692598"><ele>137.0</ele><time>2026-04-18T09:57:25.777Z</time></trkpt><trkpt lat="45.425481" lon="11.2691803"><ele>137.0</ele><time>2026-04-18T09:57:27.777Z</time></trkpt><trkpt lat="45.4254085" lon="11.269111"><ele>137.0</ele><time>2026-04-18T09:57:29.777Z</time></trkpt><trkpt lat="45.425342" lon="11.269037"><ele>137.0</ele><time>2026-04-18T09:57:31.777Z</time></trkpt><trkpt lat="45.4252819" lon="11.2689358"><ele>137.0</ele><time>2026-04-18T09:57:33.777Z</time></trkpt><trkpt lat="45.4252167" lon="11.2688266"><ele>137.4</ele><time>2026-04-18T09:57:35.777Z</time></trkpt><trkpt lat="45.4251343" lon="11.2687278"><ele>137.79999999999998</ele><time>2026-04-18T09:57:37.777Z</time></trkpt><trkpt lat="45.4250518" lon="11.2686357"><ele>138.2</ele><time>2026-04-18T09:57:39.777Z</time></trkpt><trkpt lat="45.4249612" lon="11.2685414"><ele>138.6</ele><time>2026-04-18T09:57:41.777Z</time></trkpt><trkpt lat="45.4248825" lon="11.2684437"><ele>139.0</ele><time>2026-04-18T09:57:43.777Z</time></trkpt><trkpt lat="45.4248042" lon="11.268341"><ele>139.0</ele><time>2026-04-18T09:57:45.777Z</time></trkpt><trkpt lat="45.4247329" lon="11.2682421"><ele>139.0</ele><time>2026-04-18T09:57:47.777Z</time></trkpt><trkpt lat="45.4246882" lon="11.2681639"><ele>139.0</ele><time>2026-04-18T09:57:49.777Z</time></trkpt><trkpt lat="45.4247068" lon="11.2680664"><ele>139.0</ele><time>2026-04-18T09:57:58.777Z</time></trkpt><trkpt lat="45.4247653" lon="11.2680018"><ele>139.0</ele><time>2026-04-18T09:58:00.777Z</time></trkpt><trkpt lat="45.424782" lon="11.2678908"><ele>139.0</ele><time>2026-04-18T09:58:03.777Z</time></trkpt><trkpt lat="45.4247214" lon="11.2677807"><ele>138.85714285714286</ele><time>2026-04-18T09:58:05.777Z</time></trkpt><trkpt lat="45.4246801" lon="11.2677025"><ele>138.71428571428572</ele><time>2026-04-18T09:58:06.777Z</time></trkpt><trkpt lat="45.4246414" lon="11.2676229"><ele>138.57142857142858</ele><time>2026-04-18T09:58:07.777Z</time></trkpt><trkpt lat="45.4245957" lon="11.2675496"><ele>138.42857142857144</ele><time>2026-04-18T09:58:08.777Z</time></trkpt><trkpt lat="45.4245519" lon="11.2674736"><ele>138.2857142857143</ele><time>2026-04-18T09:58:09.777Z</time></trkpt><trkpt lat="45.4245028" lon="11.2673956"><ele>138.14285714285714</ele><time>2026-04-18T09:58:10.777Z</time></trkpt><trkpt lat="45.4244574" lon="11.2673186"><ele>138.0</ele><time>2026-04-18T09:58:11.777Z</time></trkpt><trkpt lat="45.4243766" lon="11.2671822"><ele>140.33333333333334</ele><time>2026-04-18T09:58:13.777Z</time></trkpt><trkpt lat="45.4243153" lon="11.267067"><ele>142.66666666666666</ele><time>2026-04-18T09:58:15.777Z</time></trkpt><trkpt lat="45.4242386" lon="11.2669619"><ele>145.0</ele><time>2026-04-18T09:58:17.777Z</time></trkpt><trkpt lat="45.4241839" lon="11.2669155"><ele>147.33333333333331</ele><time>2026-04-18T09:58:18.777Z</time></trkpt><trkpt lat="45.4241269" lon="11.2668713"><ele>149.66666666666666</ele><time>2026-04-18T09:58:19.777Z</time></trkpt><trkpt lat="45.4240661" lon="11.2668307"><ele>152.0</ele><time>2026-04-18T09:58:20.777Z</time></trkpt><trkpt lat="45.424011" lon="11.2667706"><ele>152.0</ele><time>2026-04-18T09:58:21.777Z</time></trkpt><trkpt lat="45.4239543" lon="11.2667064"><ele>152.0</ele><time>2026-04-18T09:58:22.777Z</time></trkpt><trkpt lat="45.4238745" lon="11.2665856"><ele>152.0</ele><time>2026-04-18T09:58:24.778Z</time></trkpt><trkpt lat="45.4238042" lon="11.2664549"><ele>152.0</ele><time>2026-04-18T09:58:26.777Z</time></trkpt><trkpt lat="45.4237644" lon="11.2663821"><ele>152.0</ele><time>2026-04-18T09:58:27.777Z</time></trkpt><trkpt lat="45.4236882" lon="11.266251"><ele>151.66666666666666</ele><time>2026-04-18T09:58:29.777Z</time></trkpt><trkpt lat="45.4236152" lon="11.2661267"><ele>151.33333333333331</ele><time>2026-04-18T09:58:31.777Z</time></trkpt><trkpt lat="45.4235701" lon="11.2660478"><ele>151.0</ele><time>2026-04-18T09:58:33.777Z</time></trkpt><trkpt lat="45.4235639" lon="11.2659392"><ele>150.66666666666666</ele><time>2026-04-18T09:58:37.777Z</time></trkpt><trkpt lat="45.4236269" lon="11.2658627"><ele>150.33333333333334</ele><time>2026-04-18T09:58:40.777Z</time></trkpt><trkpt lat="45.4236909" lon="11.2657882"><ele>150.0</ele><time>2026-04-18T09:58:42.777Z</time></trkpt><trkpt lat="45.4237003" lon="11.2656327"><ele>149.5</ele><time>2026-04-18T09:58:44.777Z</time></trkpt><trkpt lat="45.4237058" lon="11.2654907"><ele>149.0</ele><time>2026-04-18T09:58:46.777Z</time></trkpt><trkpt lat="45.4237172" lon="11.2653735"><ele>148.5</ele><time>2026-04-18T09:58:48.777Z</time></trkpt><trkpt lat="45.4237278" lon="11.2652569"><ele>148.0</ele><time>2026-04-18T09:58:50.777Z</time></trkpt><trkpt lat="45.4237356" lon="11.2651631"><ele>147.5</ele><time>2026-04-18T09:58:52.777Z</time></trkpt><trkpt lat="45.4237516" lon="11.2650593"><ele>147.0</ele><time>2026-04-18T09:59:14.778Z</time></trkpt><trkpt lat="45.4237616" lon="11.2649639"><ele>147.0</ele><time>2026-04-18T09:59:16.777Z</time></trkpt><trkpt lat="45.4237853" lon="11.2648465"><ele>147.0</ele><time>2026-04-18T09:59:19.777Z</time></trkpt><trkpt lat="45.4238184" lon="11.264764"><ele>147.0</ele><time>2026-04-18T09:59:21.777Z</time></trkpt><trkpt lat="45.4238712" lon="11.2646659"><ele>147.0</ele><time>2026-04-18T09:59:23.777Z</time></trkpt><trkpt lat="45.4239454" lon="11.2645768"><ele>147.0</ele><time>2026-04-18T09:59:25.777Z</time></trkpt><trkpt lat="45.4240395" lon="11.2645011"><ele>147.0</ele><time>2026-04-18T09:59:27.777Z</time></trkpt><trkpt lat="45.4241707" lon="11.2644162"><ele>146.66666666666666</ele><time>2026-04-18T09:59:29.777Z</time></trkpt><trkpt lat="45.4242392" lon="11.2643659"><ele>146.33333333333334</ele><time>2026-04-18T09:59:30.778Z</time></trkpt><trkpt lat="45.4243" lon="11.2643176"><ele>146.0</ele><time>2026-04-18T09:59:31.777Z</time></trkpt><trkpt lat="45.4243546" lon="11.2642576"><ele>145.66666666666669</ele><time>2026-04-18T09:59:32.777Z</time></trkpt><trkpt lat="45.4243999" lon="11.2641841"><ele>145.33333333333334</ele><time>2026-04-18T09:59:33.777Z</time></trkpt><trkpt lat="45.4244387" lon="11.2640875"><ele>145.0</ele><time>2026-04-18T09:59:34.777Z</time></trkpt><trkpt lat="45.4244846" lon="11.2639543"><ele>145.0</ele><time>2026-04-18T09:59:35.777Z</time></trkpt><trkpt lat="45.424526" lon="11.2638045"><ele>145.0</ele><time>2026-04-18T09:59:36.777Z</time></trkpt><trkpt lat="45.4245749" lon="11.2636364"><ele>145.0</ele><time>2026-04-18T09:59:37.778Z</time></trkpt><trkpt lat="45.4246161" lon="11.2634893"><ele>145.0</ele><time>2026-04-18T09:59:38.777Z</time></trkpt><trkpt lat="45.4246507" lon="11.2633558"><ele>145.0</ele><time>2026-04-18T09:59:39.777Z</time></trkpt><trkpt lat="45.4246849" lon="11.2632144"><ele>145.0</ele><time>2026-04-18T09:59:40.777Z</time></trkpt><trkpt lat="45.4247156" lon="11.263078"><ele>145.0</ele><time>2026-04-18T09:59:41.777Z</time></trkpt><trkpt lat="45.4247341" lon="11.262956"><ele>145.0</ele><time>2026-04-18T09:59:42.777Z</time></trkpt><trkpt lat="45.4247539" lon="11.2628459"><ele>145.0</ele><time>2026-04-18T09:59:43.777Z</time></trkpt><trkpt lat="45.424774" lon="11.2627427"><ele>145.0</ele><time>2026-04-18T09:59:44.777Z</time></trkpt><trkpt lat="45.424792" lon="11.2626492"><ele>144.5</ele><time>2026-04-18T09:59:45.777Z</time></trkpt><trkpt lat="45.4248232" lon="11.2624955"><ele>144.0</ele><time>2026-04-18T09:59:47.777Z</time></trkpt><trkpt lat="45.42486" lon="11.2623633"><ele>143.5</ele><time>2026-04-18T09:59:49.777Z</time></trkpt><trkpt lat="45.4248932" lon="11.2622569"><ele>143.0</ele><time>2026-04-18T09:59:51.777Z</time></trkpt><trkpt lat="45.4249236" lon="11.262165"><ele>142.5</ele><time>2026-04-18T09:59:53.777Z</time></trkpt><trkpt lat="45.4249675" lon="11.2620776"><ele>142.0</ele><time>2026-04-18T09:59:56.777Z</time></trkpt><trkpt lat="45.4249803" lon="11.2619854"><ele>140.79999999999998</ele><time>2026-04-18T10:00:05.777Z</time></trkpt><trkpt lat="45.4249464" lon="11.2618476"><ele>139.6</ele><time>2026-04-18T10:00:10.777Z</time></trkpt><trkpt lat="45.4249202" lon="11.2617162"><ele>138.39999999999998</ele><time>2026-04-18T10:00:12.777Z</time></trkpt><trkpt lat="45.4248903" lon="11.2615686"><ele>137.2</ele><time>2026-04-18T10:00:14.777Z</time></trkpt><trkpt lat="45.4248555" lon="11.2614234"><ele>136.0</ele><time>2026-04-18T10:00:16.777Z</time></trkpt><trkpt lat="45.424821" lon="11.2612761"><ele>136.0</ele><time>2026-04-18T10:00:18.777Z</time></trkpt><trkpt lat="45.4247887" lon="11.2611629"><ele>136.0</ele><time>2026-04-18T10:00:20.777Z</time></trkpt><trkpt lat="45.4247659" lon="11.2610782"><ele>136.0</ele><time>2026-04-18T10:00:22.777Z</time></trkpt><trkpt lat="45.4247667" lon="11.2609769"><ele>136.0</ele><time>2026-04-18T10:00:25.777Z</time></trkpt><trkpt lat="45.4248253" lon="11.2608555"><ele>136.0</ele><time>2026-04-18T10:00:27.777Z</time></trkpt><trkpt lat="45.4248752" lon="11.2607948"><ele>136.0</ele><time>2026-04-18T10:00:28.777Z</time></trkpt><trkpt lat="45.4249667" lon="11.2606931"><ele>137.4</ele><time>2026-04-18T10:00:30.777Z</time></trkpt><trkpt lat="45.4250607" lon="11.2605959"><ele>138.8</ele><time>2026-04-18T10:00:32.777Z</time></trkpt><trkpt lat="45.4251107" lon="11.2605288"><ele>140.20000000000002</ele><time>2026-04-18T10:00:33.778Z</time></trkpt><trkpt lat="45.4251951" lon="11.2604096"><ele>141.6</ele><time>2026-04-18T10:00:35.777Z</time></trkpt><trkpt lat="45.4252696" lon="11.2602802"><ele>143.0</ele><time>2026-04-18T10:00:37.777Z</time></trkpt><trkpt lat="45.4253492" lon="11.260125"><ele>143.0</ele><time>2026-04-18T10:00:39.777Z</time></trkpt><trkpt lat="45.4254168" lon="11.2599934"><ele>143.0</ele><time>2026-04-18T10:00:41.777Z</time></trkpt><trkpt lat="45.4255235" lon="11.2599332"><ele>143.0</ele><time>2026-04-18T10:00:43.777Z</time></trkpt><trkpt lat="45.4256483" lon="11.2599002"><ele>143.0</ele><time>2026-04-18T10:00:45.778Z</time></trkpt><trkpt lat="45.425713" lon="11.2598933"><ele>143.0</ele><time>2026-04-18T10:00:46.777Z</time></trkpt><trkpt lat="45.4258265" lon="11.2598759"><ele>143.6</ele><time>2026-04-18T10:00:48.777Z</time></trkpt><trkpt lat="45.4259366" lon="11.2598531"><ele>144.20000000000002</ele><time>2026-04-18T10:00:50.777Z</time></trkpt><trkpt lat="45.4260333" lon="11.2598289"><ele>144.8</ele><time>2026-04-18T10:00:52.777Z</time></trkpt><trkpt lat="45.4261393" lon="11.2598"><ele>145.4</ele><time>2026-04-18T10:00:54.777Z</time></trkpt><trkpt lat="45.4262349" lon="11.2597619"><ele>146.0</ele><time>2026-04-18T10:00:56.777Z</time></trkpt><trkpt lat="45.4263352" lon="11.2597213"><ele>146.0</ele><time>2026-04-18T10:00:58.777Z</time></trkpt><trkpt lat="45.4264327" lon="11.2596776"><ele>146.0</ele><time>2026-04-18T10:01:00.777Z</time></trkpt><trkpt lat="45.4265327" lon="11.2596259"><ele>146.0</ele><time>2026-04-18T10:01:02.777Z</time></trkpt><trkpt lat="45.4266299" lon="11.2595679"><ele>146.0</ele><time>2026-04-18T10:01:04.777Z</time></trkpt><trkpt lat="45.4267294" lon="11.2594882"><ele>146.0</ele><time>2026-04-18T10:01:06.777Z</time></trkpt><trkpt lat="45.4268041" lon="11.2594167"><ele>146.0</ele><time>2026-04-18T10:01:08.777Z</time></trkpt><trkpt lat="45.4268527" lon="11.259298"><ele>146.0</ele><time>2026-04-18T10:01:11.777Z</time></trkpt><trkpt lat="45.4268747" lon="11.2592043"><ele>146.0</ele><time>2026-04-18T10:01:15.777Z</time></trkpt><trkpt lat="45.4268736" lon="11.259113"><ele>146.0</ele><time>2026-04-18T10:03:15.777Z</time></trkpt><trkpt lat="45.4269484" lon="11.25898"><ele>146.0</ele><time>2026-04-18T10:03:17.777Z</time></trkpt><trkpt lat="45.4269954" lon="11.2588983"><ele>146.0</ele><time>2026-04-18T10:03:18.777Z</time></trkpt><trkpt lat="45.4270409" lon="11.2588163"><ele>147.16666666666666</ele><time>2026-04-18T10:03:19.778Z</time></trkpt><trkpt lat="45.4270977" lon="11.2587314"><ele>148.33333333333331</ele><time>2026-04-18T10:03:20.777Z</time></trkpt><trkpt lat="45.4271504" lon="11.2586549"><ele>149.5</ele><time>2026-04-18T10:03:21.777Z</time></trkpt><trkpt lat="45.4271958" lon="11.2585867"><ele>150.66666666666666</ele><time>2026-04-18T10:03:22.777Z</time></trkpt><trkpt lat="45.4272769" lon="11.2584443"><ele>151.83333333333334</ele><time>2026-04-18T10:03:24.777Z</time></trkpt><trkpt lat="45.4273118" lon="11.2583609"><ele>153.0</ele><time>2026-04-18T10:03:25.777Z</time></trkpt><trkpt lat="45.4273351" lon="11.258269"><ele>150.83333333333334</ele><time>2026-04-18T10:03:26.777Z</time></trkpt><trkpt lat="45.4273579" lon="11.2581771"><ele>148.66666666666666</ele><time>2026-04-18T10:03:27.777Z</time></trkpt><trkpt lat="45.4273811" lon="11.2580854"><ele>146.5</ele><time>2026-04-18T10:03:28.777Z</time></trkpt><trkpt lat="45.4273973" lon="11.2579965"><ele>144.33333333333331</ele><time>2026-04-18T10:03:29.777Z</time></trkpt><trkpt lat="45.4274256" lon="11.2578402"><ele>142.16666666666666</ele><time>2026-04-18T10:03:31.777Z</time></trkpt><trkpt lat="45.4274466" lon="11.2576992"><ele>140.0</ele><time>2026-04-18T10:03:33.777Z</time></trkpt><trkpt lat="45.427456" lon="11.2575662"><ele>140.0</ele><time>2026-04-18T10:03:35.777Z</time></trkpt><trkpt lat="45.4274589" lon="11.2574711"><ele>140.0</ele><time>2026-04-18T10:03:37.777Z</time></trkpt><trkpt lat="45.4275021" lon="11.2574039"><ele>140.0</ele><time>2026-04-18T10:03:39.777Z</time></trkpt><trkpt lat="45.4275975" lon="11.2573606"><ele>140.0</ele><time>2026-04-18T10:03:41.777Z</time></trkpt><trkpt lat="45.4277061" lon="11.2573098"><ele>140.0</ele><time>2026-04-18T10:03:43.777Z</time></trkpt><trkpt lat="45.4278173" lon="11.2572541"><ele>138.0</ele><time>2026-04-18T10:03:45.777Z</time></trkpt><trkpt lat="45.4279148" lon="11.2571997"><ele>136.0</ele><time>2026-04-18T10:03:47.777Z</time></trkpt><trkpt lat="45.4280146" lon="11.2571424"><ele>134.0</ele><time>2026-04-18T10:03:49.777Z</time></trkpt><trkpt lat="45.4280931" lon="11.2570984"><ele>132.0</ele><time>2026-04-18T10:03:51.778Z</time></trkpt><trkpt lat="45.4281608" lon="11.2570413"><ele>130.0</ele><time>2026-04-18T10:03:54.777Z</time></trkpt><trkpt lat="45.4282364" lon="11.2570723"><ele>129.83333333333334</ele><time>2026-04-18T10:03:57.777Z</time></trkpt><trkpt lat="45.428349" lon="11.2571382"><ele>129.66666666666669</ele><time>2026-04-18T10:03:59.777Z</time></trkpt><trkpt lat="45.4284191" lon="11.2571667"><ele>129.5</ele><time>2026-04-18T10:04:00.777Z</time></trkpt><trkpt lat="45.4284863" lon="11.2571948"><ele>129.33333333333334</ele><time>2026-04-18T10:04:01.777Z</time></trkpt><trkpt lat="45.4285554" lon="11.2572201"><ele>129.16666666666666</ele><time>2026-04-18T10:04:02.777Z</time></trkpt><trkpt lat="45.4286292" lon="11.2572492"><ele>129.0</ele><time>2026-04-18T10:04:03.777Z</time></trkpt><trkpt lat="45.4287032" lon="11.2572745"><ele>129.42857142857142</ele><time>2026-04-18T10:04:04.777Z</time></trkpt><trkpt lat="45.4287762" lon="11.2573009"><ele>129.85714285714286</ele><time>2026-04-18T10:04:05.777Z</time></trkpt><trkpt lat="45.4288396" lon="11.2573206"><ele>130.28571428571428</ele><time>2026-04-18T10:04:06.777Z</time></trkpt><trkpt lat="45.4289071" lon="11.2573342"><ele>130.71428571428572</ele><time>2026-04-18T10:04:07.777Z</time></trkpt><trkpt lat="45.4289804" lon="11.2573469"><ele>131.14285714285714</ele><time>2026-04-18T10:04:08.777Z</time></trkpt><trkpt lat="45.4290561" lon="11.2573517"><ele>131.57142857142856</ele><time>2026-04-18T10:04:09.777Z</time></trkpt><trkpt lat="45.4291247" lon="11.2573575"><ele>132.0</ele><time>2026-04-18T10:04:10.777Z</time></trkpt><trkpt lat="45.4291966" lon="11.2573619"><ele>132.66666666666666</ele><time>2026-04-18T10:04:11.777Z</time></trkpt><trkpt lat="45.4292694" lon="11.2573594"><ele>133.33333333333334</ele><time>2026-04-18T10:04:12.777Z</time></trkpt><trkpt lat="45.4293465" lon="11.2573607"><ele>134.0</ele><time>2026-04-18T10:04:13.777Z</time></trkpt><trkpt lat="45.4294134" lon="11.257369"><ele>134.66666666666669</ele><time>2026-04-18T10:04:14.777Z</time></trkpt><trkpt lat="45.4294784" lon="11.2573799"><ele>135.33333333333334</ele><time>2026-04-18T10:04:15.777Z</time></trkpt><trkpt lat="45.4295469" lon="11.2573931"><ele>136.0</ele><time>2026-04-18T10:04:16.777Z</time></trkpt><trkpt lat="45.4296651" lon="11.2574134"><ele>136.8</ele><time>2026-04-18T10:04:18.777Z</time></trkpt><trkpt lat="45.4297787" lon="11.2574619"><ele>137.6</ele><time>2026-04-18T10:04:20.777Z</time></trkpt><trkpt lat="45.4298708" lon="11.2575819"><ele>138.4</ele><time>2026-04-18T10:04:22.778Z</time></trkpt><trkpt lat="45.4299213" lon="11.2576576"><ele>139.2</ele><time>2026-04-18T10:04:23.777Z</time></trkpt><trkpt lat="45.4299837" lon="11.2577365"><ele>140.0</ele><time>2026-04-18T10:04:24.777Z</time></trkpt><trkpt lat="45.4300415" lon="11.2578129"><ele>140.0</ele><time>2026-04-18T10:04:25.777Z</time></trkpt><trkpt lat="45.4300832" lon="11.2578961"><ele>140.0</ele><time>2026-04-18T10:04:26.777Z</time></trkpt><trkpt lat="45.4301652" lon="11.2580211"><ele>140.0</ele><time>2026-04-18T10:04:28.777Z</time></trkpt><trkpt lat="45.4302682" lon="11.2581229"><ele>140.0</ele><time>2026-04-18T10:04:30.777Z</time></trkpt><trkpt lat="45.4303282" lon="11.2581775"><ele>140.0</ele><time>2026-04-18T10:04:31.777Z</time></trkpt><trkpt lat="45.4304272" lon="11.2582711"><ele>142.2</ele><time>2026-04-18T10:04:33.777Z</time></trkpt><trkpt lat="45.4304772" lon="11.2583261"><ele>144.4</ele><time>2026-04-18T10:04:34.777Z</time></trkpt><trkpt lat="45.43053" lon="11.2583793"><ele>146.6</ele><time>2026-04-18T10:04:35.777Z</time></trkpt><trkpt lat="45.4306173" lon="11.2584806"><ele>148.8</ele><time>2026-04-18T10:04:37.777Z</time></trkpt><trkpt lat="45.4307049" lon="11.258551"><ele>151.0</ele><time>2026-04-18T10:04:39.777Z</time></trkpt><trkpt lat="45.4308161" lon="11.2585954"><ele>151.0</ele><time>2026-04-18T10:04:41.777Z</time></trkpt><trkpt lat="45.43088" lon="11.2586037"><ele>151.0</ele><time>2026-04-18T10:04:42.777Z</time></trkpt><trkpt lat="45.4309479" lon="11.2586077"><ele>151.0</ele><time>2026-04-18T10:04:43.778Z</time></trkpt><trkpt lat="45.4310119" lon="11.2586087"><ele>151.0</ele><time>2026-04-18T10:04:44.777Z</time></trkpt><trkpt lat="45.4310796" lon="11.2586028"><ele>151.0</ele><time>2026-04-18T10:04:45.777Z</time></trkpt><trkpt lat="45.4312015" lon="11.2585894"><ele>151.0</ele><time>2026-04-18T10:04:47.777Z</time></trkpt><trkpt lat="45.4313053" lon="11.258543"><ele>150.0</ele><time>2026-04-18T10:04:49.777Z</time></trkpt><trkpt lat="45.4313928" lon="11.2584901"><ele>149.0</ele><time>2026-04-18T10:04:51.777Z</time></trkpt><trkpt lat="45.4314777" lon="11.2584066"><ele>148.0</ele><time>2026-04-18T10:04:53.777Z</time></trkpt><trkpt lat="45.4315521" lon="11.2583198"><ele>147.0</ele><time>2026-04-18T10:04:55.778Z</time></trkpt><trkpt lat="45.4316061" lon="11.2582346"><ele>146.0</ele><time>2026-04-18T10:04:57.777Z</time></trkpt><trkpt lat="45.4316584" lon="11.2581331"><ele>145.8</ele><time>2026-04-18T10:04:59.777Z</time></trkpt><trkpt lat="45.4317106" lon="11.2580224"><ele>145.6</ele><time>2026-04-18T10:05:01.777Z</time></trkpt><trkpt lat="45.4317623" lon="11.2579052"><ele>145.4</ele><time>2026-04-18T10:05:03.777Z</time></trkpt><trkpt lat="45.4318297" lon="11.257819"><ele>145.2</ele><time>2026-04-18T10:05:05.777Z</time></trkpt><trkpt lat="45.4319269" lon="11.2577758"><ele>145.0</ele><time>2026-04-18T10:05:07.777Z</time></trkpt><trkpt lat="45.4320326" lon="11.2577433"><ele>143.83333333333334</ele><time>2026-04-18T10:05:09.778Z</time></trkpt><trkpt lat="45.4321459" lon="11.2577054"><ele>142.66666666666669</ele><time>2026-04-18T10:05:11.777Z</time></trkpt><trkpt lat="45.43221" lon="11.257686"><ele>141.5</ele><time>2026-04-18T10:05:12.778Z</time></trkpt><trkpt lat="45.4322766" lon="11.2576596"><ele>140.33333333333334</ele><time>2026-04-18T10:05:13.778Z</time></trkpt><trkpt lat="45.4323424" lon="11.2576395"><ele>139.16666666666666</ele><time>2026-04-18T10:05:14.777Z</time></trkpt><trkpt lat="45.4324043" lon="11.2576187"><ele>138.0</ele><time>2026-04-18T10:05:15.777Z</time></trkpt><trkpt lat="45.4325237" lon="11.2575656"><ele>138.0</ele><time>2026-04-18T10:05:17.777Z</time></trkpt><trkpt lat="45.4325981" lon="11.2575407"><ele>138.0</ele><time>2026-04-18T10:05:18.778Z</time></trkpt><trkpt lat="45.4326856" lon="11.2575248"><ele>138.0</ele><time>2026-04-18T10:05:19.777Z</time></trkpt><trkpt lat="45.4327645" lon="11.2575121"><ele>138.0</ele><time>2026-04-18T10:05:20.777Z</time></trkpt><trkpt lat="45.4328427" lon="11.2575089"><ele>138.0</ele><time>2026-04-18T10:05:21.777Z</time></trkpt><trkpt lat="45.4329186" lon="11.2575179"><ele>138.0</ele><time>2026-04-18T10:05:22.777Z</time></trkpt><trkpt lat="45.4329935" lon="11.2575321"><ele>137.0</ele><time>2026-04-18T10:05:23.777Z</time></trkpt><trkpt lat="45.4330787" lon="11.2575552"><ele>136.0</ele><time>2026-04-18T10:05:24.777Z</time></trkpt><trkpt lat="45.4331705" lon="11.257582"><ele>135.0</ele><time>2026-04-18T10:05:25.777Z</time></trkpt><trkpt lat="45.4332541" lon="11.2576057"><ele>134.0</ele><time>2026-04-18T10:05:26.777Z</time></trkpt><trkpt lat="45.4333312" lon="11.2576264"><ele>133.0</ele><time>2026-04-18T10:05:27.777Z</time></trkpt><trkpt lat="45.4334134" lon="11.2576416"><ele>132.0</ele><time>2026-04-18T10:05:28.777Z</time></trkpt><trkpt lat="45.433493" lon="11.2576619"><ele>132.0</ele><time>2026-04-18T10:05:29.777Z</time></trkpt><trkpt lat="45.4335797" lon="11.2576852"><ele>132.0</ele><time>2026-04-18T10:05:30.777Z</time></trkpt><trkpt lat="45.4336576" lon="11.2577065"><ele>132.0</ele><time>2026-04-18T10:05:31.777Z</time></trkpt><trkpt lat="45.4337284" lon="11.257738"><ele>132.0</ele><time>2026-04-18T10:05:32.777Z</time></trkpt><trkpt lat="45.4337954" lon="11.2577764"><ele>132.0</ele><time>2026-04-18T10:05:33.777Z</time></trkpt><trkpt lat="45.43391" lon="11.2578266"><ele>132.0</ele><time>2026-04-18T10:05:35.777Z</time></trkpt><trkpt lat="45.433991" lon="11.2578677"><ele>131.33333333333334</ele><time>2026-04-18T10:05:37.777Z</time></trkpt><trkpt lat="45.4340526" lon="11.2579023"><ele>130.66666666666666</ele><time>2026-04-18T10:05:40.777Z</time></trkpt><trkpt lat="45.4341377" lon="11.257918"><ele>130.0</ele><time>2026-04-18T10:06:03.777Z</time></trkpt><trkpt lat="45.4342366" lon="11.2579202"><ele>129.33333333333331</ele><time>2026-04-18T10:06:04.777Z</time></trkpt><trkpt lat="45.4343293" lon="11.2579205"><ele>128.66666666666666</ele><time>2026-04-18T10:06:05.777Z</time></trkpt><trkpt lat="45.4344135" lon="11.2579205"><ele>128.0</ele><time>2026-04-18T10:06:06.777Z</time></trkpt><trkpt lat="45.4344853" lon="11.2579177"><ele>128.0</ele><time>2026-04-18T10:06:07.778Z</time></trkpt><trkpt lat="45.4345833" lon="11.2579283"><ele>128.0</ele><time>2026-04-18T10:06:09.777Z</time></trkpt><trkpt lat="45.4346692" lon="11.2579558"><ele>128.0</ele><time>2026-04-18T10:06:12.777Z</time></trkpt><trkpt lat="45.4347297" lon="11.2580502"><ele>128.0</ele><time>2026-04-18T10:06:15.777Z</time></trkpt><trkpt lat="45.4347477" lon="11.2582254"><ele>128.0</ele><time>2026-04-18T10:06:17.777Z</time></trkpt><trkpt lat="45.4347548" lon="11.2583389"><ele>129.85714285714286</ele><time>2026-04-18T10:06:18.777Z</time></trkpt><trkpt lat="45.4347731" lon="11.2584324"><ele>131.7142857142857</ele><time>2026-04-18T10:06:19.777Z</time></trkpt><trkpt lat="45.4347996" lon="11.2585159"><ele>133.57142857142856</ele><time>2026-04-18T10:06:20.777Z</time></trkpt><trkpt lat="45.4348357" lon="11.2585943"><ele>135.42857142857142</ele><time>2026-04-18T10:06:21.777Z</time></trkpt><trkpt lat="45.4348741" lon="11.2586751"><ele>137.28571428571428</ele><time>2026-04-18T10:06:22.777Z</time></trkpt><trkpt lat="45.4349229" lon="11.258766"><ele>139.14285714285714</ele><time>2026-04-18T10:06:23.777Z</time></trkpt><trkpt lat="45.4349713" lon="11.2588532"><ele>141.0</ele><time>2026-04-18T10:06:24.777Z</time></trkpt><trkpt lat="45.4350515" lon="11.2589798"><ele>141.0</ele><time>2026-04-18T10:06:26.777Z</time></trkpt><trkpt lat="45.4351054" lon="11.2590317"><ele>141.0</ele><time>2026-04-18T10:06:27.777Z</time></trkpt><trkpt lat="45.4351702" lon="11.2590958"><ele>141.0</ele><time>2026-04-18T10:06:28.777Z</time></trkpt><trkpt lat="45.4352395" lon="11.2592169"><ele>141.0</ele><time>2026-04-18T10:06:30.777Z</time></trkpt><trkpt lat="45.4352794" lon="11.2593324"><ele>141.0</ele><time>2026-04-18T10:06:32.777Z</time></trkpt><trkpt lat="45.4353168" lon="11.259481"><ele>141.0</ele><time>2026-04-18T10:06:34.777Z</time></trkpt><trkpt lat="45.4353427" lon="11.2595643"><ele>141.0</ele><time>2026-04-18T10:06:35.777Z</time></trkpt><trkpt lat="45.4353779" lon="11.259694"><ele>141.0</ele><time>2026-04-18T10:06:37.777Z</time></trkpt><trkpt lat="45.4354189" lon="11.2598232"><ele>141.0</ele><time>2026-04-18T10:06:39.777Z</time></trkpt><trkpt lat="45.4354688" lon="11.2599552"><ele>141.0</ele><time>2026-04-18T10:06:41.777Z</time></trkpt><trkpt lat="45.4355284" lon="11.2600724"><ele>144.4</ele><time>2026-04-18T10:06:43.777Z</time></trkpt><trkpt lat="45.4356006" lon="11.260181"><ele>147.8</ele><time>2026-04-18T10:06:45.777Z</time></trkpt><trkpt lat="45.4356833" lon="11.2602554"><ele>151.20000000000002</ele><time>2026-04-18T10:06:47.777Z</time></trkpt><trkpt lat="45.4357791" lon="11.2602951"><ele>154.6</ele><time>2026-04-18T10:06:49.778Z</time></trkpt><trkpt lat="45.4358643" lon="11.2603146"><ele>158.0</ele><time>2026-04-18T10:06:51.777Z</time></trkpt><trkpt lat="45.4359323" lon="11.2603331"><ele>158.0</ele><time>2026-04-18T10:06:53.777Z</time></trkpt><trkpt lat="45.4360175" lon="11.260349"><ele>158.0</ele><time>2026-04-18T10:06:56.777Z</time></trkpt><trkpt lat="45.4360918" lon="11.2603702"><ele>158.0</ele><time>2026-04-18T10:06:58.777Z</time></trkpt><trkpt lat="45.4361669" lon="11.2604068"><ele>158.0</ele><time>2026-04-18T10:07:00.777Z</time></trkpt><trkpt lat="45.4362411" lon="11.2604488"><ele>158.0</ele><time>2026-04-18T10:07:02.777Z</time></trkpt><trkpt lat="45.4363478" lon="11.2604628"><ele>158.0</ele><time>2026-04-18T10:07:04.777Z</time></trkpt><trkpt lat="45.4364163" lon="11.2604459"><ele>162.2</ele><time>2026-04-18T10:07:05.777Z</time></trkpt><trkpt lat="45.4364989" lon="11.2604326"><ele>166.4</ele><time>2026-04-18T10:07:06.777Z</time></trkpt><trkpt lat="45.4365864" lon="11.2604312"><ele>170.6</ele><time>2026-04-18T10:07:07.777Z</time></trkpt><trkpt lat="45.4366749" lon="11.2604337"><ele>174.79999999999998</ele><time>2026-04-18T10:07:08.777Z</time></trkpt><trkpt lat="45.4367487" lon="11.2604363"><ele>179.0</ele><time>2026-04-18T10:07:09.777Z</time></trkpt><trkpt lat="45.43687" lon="11.2604695"><ele>179.0</ele><time>2026-04-18T10:07:11.777Z</time></trkpt><trkpt lat="45.4369101" lon="11.2605611"><ele>179.0</ele><time>2026-04-18T10:07:12.777Z</time></trkpt><trkpt lat="45.436951" lon="11.2606519"><ele>179.0</ele><time>2026-04-18T10:07:13.777Z</time></trkpt><trkpt lat="45.4369937" lon="11.2607733"><ele>179.0</ele><time>2026-04-18T10:07:14.777Z</time></trkpt><trkpt lat="45.4370291" lon="11.2609067"><ele>179.0</ele><time>2026-04-18T10:07:15.777Z</time></trkpt><trkpt lat="45.4370567" lon="11.2610287"><ele>179.0</ele><time>2026-04-18T10:07:16.777Z</time></trkpt><trkpt lat="45.4370809" lon="11.2611423"><ele>178.33333333333331</ele><time>2026-04-18T10:07:17.777Z</time></trkpt><trkpt lat="45.4370899" lon="11.26124"><ele>177.66666666666666</ele><time>2026-04-18T10:07:18.777Z</time></trkpt><trkpt lat="45.4370834" lon="11.261334"><ele>177.0</ele><time>2026-04-18T10:07:19.777Z</time></trkpt><trkpt lat="45.4370609" lon="11.2614443"><ele>176.33333333333334</ele><time>2026-04-18T10:07:20.777Z</time></trkpt><trkpt lat="45.4370321" lon="11.2615723"><ele>175.66666666666669</ele><time>2026-04-18T10:07:21.777Z</time></trkpt><trkpt lat="45.437021" lon="11.2617091"><ele>175.0</ele><time>2026-04-18T10:07:22.777Z</time></trkpt><trkpt lat="45.4370312" lon="11.2618584"><ele>175.0</ele><time>2026-04-18T10:07:23.777Z</time></trkpt><trkpt lat="45.4370536" lon="11.2620212"><ele>175.0</ele><time>2026-04-18T10:07:24.778Z</time></trkpt><trkpt lat="45.4370805" lon="11.2621576"><ele>175.0</ele><time>2026-04-18T10:07:25.777Z</time></trkpt><trkpt lat="45.4371101" lon="11.2622639"><ele>175.0</ele><time>2026-04-18T10:07:26.777Z</time></trkpt><trkpt lat="45.4371509" lon="11.2623568"><ele>175.0</ele><time>2026-04-18T10:07:27.777Z</time></trkpt><trkpt lat="45.4372004" lon="11.2624527"><ele>177.4</ele><time>2026-04-18T10:07:28.777Z</time></trkpt><trkpt lat="45.4372755" lon="11.2625673"><ele>179.8</ele><time>2026-04-18T10:07:29.777Z</time></trkpt><trkpt lat="45.437339" lon="11.262667"><ele>182.2</ele><time>2026-04-18T10:07:30.777Z</time></trkpt><trkpt lat="45.4373974" lon="11.262752"><ele>184.6</ele><time>2026-04-18T10:07:31.777Z</time></trkpt><trkpt lat="45.437464" lon="11.2628227"><ele>187.0</ele><time>2026-04-18T10:07:32.777Z</time></trkpt><trkpt lat="45.4375356" lon="11.2628829"><ele>187.0</ele><time>2026-04-18T10:07:33.777Z</time></trkpt><trkpt lat="45.4376211" lon="11.262927"><ele>187.0</ele><time>2026-04-18T10:07:34.777Z</time></trkpt><trkpt lat="45.4377242" lon="11.2629642"><ele>187.0</ele><time>2026-04-18T10:07:35.777Z</time></trkpt><trkpt lat="45.4378298" lon="11.2629953"><ele>187.0</ele><time>2026-04-18T10:07:36.777Z</time></trkpt><trkpt lat="45.4379281" lon="11.2630231"><ele>187.0</ele><time>2026-04-18T10:07:37.777Z</time></trkpt><trkpt lat="45.4380208" lon="11.2630388"><ele>186.0</ele><time>2026-04-18T10:07:38.777Z</time></trkpt><trkpt lat="45.4381165" lon="11.2630624"><ele>185.0</ele><time>2026-04-18T10:07:39.777Z</time></trkpt><trkpt lat="45.4382347" lon="11.263098"><ele>184.0</ele><time>2026-04-18T10:07:40.777Z</time></trkpt><trkpt lat="45.4383262" lon="11.263131"><ele>183.0</ele><time>2026-04-18T10:07:41.777Z</time></trkpt><trkpt lat="45.4383982" lon="11.2631583"><ele>182.0</ele><time>2026-04-18T10:07:42.777Z</time></trkpt><trkpt lat="45.4384779" lon="11.263181"><ele>182.0</ele><time>2026-04-18T10:07:43.777Z</time></trkpt><trkpt lat="45.4385808" lon="11.2631833"><ele>182.0</ele><time>2026-04-18T10:07:44.777Z</time></trkpt><trkpt lat="45.4386999" lon="11.2631736"><ele>182.0</ele><time>2026-04-18T10:07:45.777Z</time></trkpt><trkpt lat="45.4388018" lon="11.2631687"><ele>182.0</ele><time>2026-04-18T10:07:46.777Z</time></trkpt><trkpt lat="45.4389017" lon="11.2631688"><ele>182.0</ele><time>2026-04-18T10:07:47.777Z</time></trkpt><trkpt lat="45.4389905" lon="11.263181"><ele>182.66666666666666</ele><time>2026-04-18T10:07:48.777Z</time></trkpt><trkpt lat="45.4390843" lon="11.2631806"><ele>183.33333333333331</ele><time>2026-04-18T10:07:49.777Z</time></trkpt><trkpt lat="45.4391832" lon="11.2631903"><ele>184.0</ele><time>2026-04-18T10:07:50.777Z</time></trkpt><trkpt lat="45.4392564" lon="11.2631523"><ele>184.66666666666666</ele><time>2026-04-18T10:07:51.777Z</time></trkpt><trkpt lat="45.4393284" lon="11.2631368"><ele>185.33333333333334</ele><time>2026-04-18T10:07:52.777Z</time></trkpt><trkpt lat="45.4394109" lon="11.263102"><ele>186.0</ele><time>2026-04-18T10:07:53.777Z</time></trkpt><trkpt lat="45.4394857" lon="11.2630533"><ele>187.5</ele><time>2026-04-18T10:07:54.777Z</time></trkpt><trkpt lat="45.4395622" lon="11.2629822"><ele>189.0</ele><time>2026-04-18T10:07:55.778Z</time></trkpt><trkpt lat="45.4396224" lon="11.2629147"><ele>190.5</ele><time>2026-04-18T10:07:56.777Z</time></trkpt><trkpt lat="45.4396789" lon="11.2628508"><ele>192.0</ele><time>2026-04-18T10:07:57.777Z</time></trkpt><trkpt lat="45.4397363" lon="11.2627839"><ele>193.5</ele><time>2026-04-18T10:07:58.778Z</time></trkpt><trkpt lat="45.4397803" lon="11.2627143"><ele>195.0</ele><time>2026-04-18T10:07:59.777Z</time></trkpt><trkpt lat="45.4398283" lon="11.2625907"><ele>195.0</ele><time>2026-04-18T10:08:01.777Z</time></trkpt><trkpt lat="45.4398816" lon="11.2625369"><ele>195.0</ele><time>2026-04-18T10:08:03.778Z</time></trkpt><trkpt lat="45.4399683" lon="11.2625442"><ele>195.0</ele><time>2026-04-18T10:08:05.777Z</time></trkpt><trkpt lat="45.4400844" lon="11.2626174"><ele>195.0</ele><time>2026-04-18T10:08:07.777Z</time></trkpt><trkpt lat="45.4402096" lon="11.2626291"><ele>195.0</ele><time>2026-04-18T10:08:09.777Z</time></trkpt><trkpt lat="45.4402785" lon="11.2626037"><ele>195.0</ele><time>2026-04-18T10:08:10.777Z</time></trkpt><trkpt lat="45.4403601" lon="11.2625519"><ele>195.0</ele><time>2026-04-18T10:08:11.777Z</time></trkpt><trkpt lat="45.4404549" lon="11.262473"><ele>195.0</ele><time>2026-04-18T10:08:12.777Z</time></trkpt><trkpt lat="45.4405563" lon="11.2623762"><ele>195.0</ele><time>2026-04-18T10:08:13.777Z</time></trkpt><trkpt lat="45.4406398" lon="11.2622933"><ele>195.0</ele><time>2026-04-18T10:08:14.777Z</time></trkpt><trkpt lat="45.440713" lon="11.2622174"><ele>198.83333333333334</ele><time>2026-04-18T10:08:15.777Z</time></trkpt><trkpt lat="45.440776" lon="11.2621513"><ele>202.66666666666669</ele><time>2026-04-18T10:08:16.777Z</time></trkpt><trkpt lat="45.4408423" lon="11.2620987"><ele>206.5</ele><time>2026-04-18T10:08:17.777Z</time></trkpt><trkpt lat="45.4409138" lon="11.2620708"><ele>210.33333333333334</ele><time>2026-04-18T10:08:18.777Z</time></trkpt><trkpt lat="45.4409883" lon="11.2620764"><ele>214.16666666666669</ele><time>2026-04-18T10:08:19.777Z</time></trkpt><trkpt lat="45.4410576" lon="11.2621166"><ele>218.0</ele><time>2026-04-18T10:08:20.777Z</time></trkpt><trkpt lat="45.4411351" lon="11.2621518"><ele>218.0</ele><time>2026-04-18T10:08:21.777Z</time></trkpt><trkpt lat="45.4412311" lon="11.2621665"><ele>218.0</ele><time>2026-04-18T10:08:22.777Z</time></trkpt><trkpt lat="45.4413356" lon="11.2621853"><ele>218.0</ele><time>2026-04-18T10:08:23.777Z</time></trkpt><trkpt lat="45.4414372" lon="11.2622205"><ele>218.0</ele><time>2026-04-18T10:08:24.777Z</time></trkpt><trkpt lat="45.4415235" lon="11.2622538"><ele>218.0</ele><time>2026-04-18T10:08:25.777Z</time></trkpt><trkpt lat="45.441603" lon="11.2622863"><ele>215.33333333333334</ele><time>2026-04-18T10:08:26.777Z</time></trkpt><trkpt lat="45.4416774" lon="11.2623102"><ele>212.66666666666669</ele><time>2026-04-18T10:08:27.778Z</time></trkpt><trkpt lat="45.4417515" lon="11.2623367"><ele>210.0</ele><time>2026-04-18T10:08:28.777Z</time></trkpt><trkpt lat="45.4418299" lon="11.2623492"><ele>207.33333333333331</ele><time>2026-04-18T10:08:29.777Z</time></trkpt><trkpt lat="45.4419243" lon="11.2623368"><ele>204.66666666666666</ele><time>2026-04-18T10:08:30.777Z</time></trkpt><trkpt lat="45.4419998" lon="11.2623195"><ele>202.0</ele><time>2026-04-18T10:08:31.777Z</time></trkpt><trkpt lat="45.4420869" lon="11.2623206"><ele>203.83333333333331</ele><time>2026-04-18T10:08:32.778Z</time></trkpt><trkpt lat="45.4421824" lon="11.2623546"><ele>205.66666666666666</ele><time>2026-04-18T10:08:33.777Z</time></trkpt><trkpt lat="45.442259" lon="11.2623936"><ele>207.5</ele><time>2026-04-18T10:08:34.777Z</time></trkpt><trkpt lat="45.4423257" lon="11.2624154"><ele>209.33333333333331</ele><time>2026-04-18T10:08:35.777Z</time></trkpt><trkpt lat="45.4423935" lon="11.2624256"><ele>211.16666666666666</ele><time>2026-04-18T10:08:36.777Z</time></trkpt><trkpt lat="45.4425061" lon="11.2623958"><ele>213.0</ele><time>2026-04-18T10:08:38.777Z</time></trkpt><trkpt lat="45.4425691" lon="11.2623734"><ele>213.0</ele><time>2026-04-18T10:08:39.777Z</time></trkpt><trkpt lat="45.4426712" lon="11.2623221"><ele>213.0</ele><time>2026-04-18T10:08:41.777Z</time></trkpt><trkpt lat="45.4427273" lon="11.2622587"><ele>213.0</ele><time>2026-04-18T10:08:43.777Z</time></trkpt><trkpt lat="45.4427111" lon="11.2621226"><ele>213.0</ele><time>2026-04-18T10:08:45.777Z</time></trkpt><trkpt lat="45.4427047" lon="11.262023"><ele>213.0</ele><time>2026-04-18T10:08:46.777Z</time></trkpt><trkpt lat="45.442711" lon="11.2618809"><ele>213.0</ele><time>2026-04-18T10:08:48.777Z</time></trkpt><trkpt lat="45.4427701" lon="11.2617403"><ele>215.4</ele><time>2026-04-18T10:08:50.777Z</time></trkpt><trkpt lat="45.4428451" lon="11.261627"><ele>217.8</ele><time>2026-04-18T10:08:52.777Z</time></trkpt><trkpt lat="45.4428945" lon="11.2615065"><ele>220.2</ele><time>2026-04-18T10:08:54.777Z</time></trkpt><trkpt lat="45.4428982" lon="11.2613439"><ele>222.6</ele><time>2026-04-18T10:08:56.777Z</time></trkpt><trkpt lat="45.442893" lon="11.2611631"><ele>225.0</ele><time>2026-04-18T10:08:58.777Z</time></trkpt><trkpt lat="45.4429033" lon="11.261008"><ele>223.4</ele><time>2026-04-18T10:09:00.777Z</time></trkpt><trkpt lat="45.4429597" lon="11.2608703"><ele>221.8</ele><time>2026-04-18T10:09:02.777Z</time></trkpt><trkpt lat="45.4430392" lon="11.2607358"><ele>220.2</ele><time>2026-04-18T10:09:04.777Z</time></trkpt><trkpt lat="45.4431028" lon="11.2605747"><ele>218.6</ele><time>2026-04-18T10:09:06.777Z</time></trkpt><trkpt lat="45.4431396" lon="11.2604775"><ele>217.0</ele><time>2026-04-18T10:09:07.777Z</time></trkpt><trkpt lat="45.4431909" lon="11.2603368"><ele>220.8</ele><time>2026-04-18T10:09:09.777Z</time></trkpt><trkpt lat="45.4432564" lon="11.2603036"><ele>224.6</ele><time>2026-04-18T10:09:11.777Z</time></trkpt><trkpt lat="45.4433676" lon="11.2603373"><ele>228.40000000000003</ele><time>2026-04-18T10:09:13.777Z</time></trkpt><trkpt lat="45.4434483" lon="11.2603506"><ele>232.20000000000002</ele><time>2026-04-18T10:09:14.777Z</time></trkpt><trkpt lat="45.4435384" lon="11.2603523"><ele>236.0</ele><time>2026-04-18T10:09:15.777Z</time></trkpt><trkpt lat="45.4436347" lon="11.260357"><ele>236.00000000000003</ele><time>2026-04-18T10:09:16.777Z</time></trkpt><trkpt lat="45.4437178" lon="11.2603582"><ele>236.0</ele><time>2026-04-18T10:09:17.777Z</time></trkpt><trkpt lat="45.4437911" lon="11.2603521"><ele>236.0</ele><time>2026-04-18T10:09:18.777Z</time></trkpt><trkpt lat="45.4439024" lon="11.2603278"><ele>236.0</ele><time>2026-04-18T10:09:20.777Z</time></trkpt><trkpt lat="45.443984" lon="11.2603062"><ele>236.00000000000003</ele><time>2026-04-18T10:09:21.777Z</time></trkpt><trkpt lat="45.4440702" lon="11.2602775"><ele>236.0</ele><time>2026-04-18T10:09:22.778Z</time></trkpt><trkpt lat="45.4441387" lon="11.2602549"><ele>235.66666666666669</ele><time>2026-04-18T10:09:23.777Z</time></trkpt><trkpt lat="45.444208" lon="11.2602305"><ele>235.33333333333334</ele><time>2026-04-18T10:09:24.777Z</time></trkpt><trkpt lat="45.4442983" lon="11.2602009"><ele>235.0</ele><time>2026-04-18T10:09:26.777Z</time></trkpt><trkpt lat="45.4444198" lon="11.2602017"><ele>234.66666666666669</ele><time>2026-04-18T10:09:28.777Z</time></trkpt><trkpt lat="45.4444949" lon="11.2601974"><ele>234.33333333333334</ele><time>2026-04-18T10:09:29.777Z</time></trkpt><trkpt lat="45.4445711" lon="11.2601988"><ele>234.0</ele><time>2026-04-18T10:09:30.777Z</time></trkpt><trkpt lat="45.444652" lon="11.2601955"><ele>235.39999999999998</ele><time>2026-04-18T10:09:31.777Z</time></trkpt><trkpt lat="45.444736" lon="11.2601992"><ele>236.79999999999998</ele><time>2026-04-18T10:09:32.777Z</time></trkpt><trkpt lat="45.4448286" lon="11.2602245"><ele>238.20000000000002</ele><time>2026-04-18T10:09:33.777Z</time></trkpt><trkpt lat="45.4449296" lon="11.2602491"><ele>239.60000000000002</ele><time>2026-04-18T10:09:34.778Z</time></trkpt><trkpt lat="45.4450318" lon="11.2602828"><ele>241.0</ele><time>2026-04-18T10:09:35.777Z</time></trkpt><trkpt lat="45.4451289" lon="11.2603134"><ele>240.99999999999997</ele><time>2026-04-18T10:09:36.777Z</time></trkpt><trkpt lat="45.4452175" lon="11.2603453"><ele>241.0</ele><time>2026-04-18T10:09:37.777Z</time></trkpt><trkpt lat="45.4452945" lon="11.2603742"><ele>241.0</ele><time>2026-04-18T10:09:38.777Z</time></trkpt><trkpt lat="45.4453717" lon="11.2604064"><ele>241.0</ele><time>2026-04-18T10:09:39.777Z</time></trkpt><trkpt lat="45.44544" lon="11.2604325"><ele>240.99999999999997</ele><time>2026-04-18T10:09:40.777Z</time></trkpt><trkpt lat="45.4455124" lon="11.2604524"><ele>241.0</ele><time>2026-04-18T10:09:41.777Z</time></trkpt><trkpt lat="45.4455816" lon="11.2604737"><ele>241.83333333333331</ele><time>2026-04-18T10:09:42.777Z</time></trkpt><trkpt lat="45.4456517" lon="11.26049"><ele>242.66666666666666</ele><time>2026-04-18T10:09:43.778Z</time></trkpt><trkpt lat="45.4457247" lon="11.2604981"><ele>243.5</ele><time>2026-04-18T10:09:44.777Z</time></trkpt><trkpt lat="45.4457881" lon="11.2605002"><ele>244.33333333333331</ele><time>2026-04-18T10:09:45.777Z</time></trkpt><trkpt lat="45.4459012" lon="11.2604977"><ele>245.16666666666666</ele><time>2026-04-18T10:09:47.777Z</time></trkpt><trkpt lat="45.4460049" lon="11.2605118"><ele>246.0</ele><time>2026-04-18T10:09:49.777Z</time></trkpt><trkpt lat="45.4460994" lon="11.2605357"><ele>246.0</ele><time>2026-04-18T10:09:51.777Z</time></trkpt><trkpt lat="45.4461953" lon="11.2605341"><ele>246.00000000000003</ele><time>2026-04-18T10:09:53.777Z</time></trkpt><trkpt lat="45.4462861" lon="11.2604993"><ele>246.00000000000003</ele><time>2026-04-18T10:09:55.777Z</time></trkpt><trkpt lat="45.4463818" lon="11.2604307"><ele>246.0</ele><time>2026-04-18T10:09:57.777Z</time></trkpt><trkpt lat="45.4464573" lon="11.2603557"><ele>246.0</ele><time>2026-04-18T10:09:59.777Z</time></trkpt><trkpt lat="45.4465234" lon="11.2602573"><ele>244.20000000000002</ele><time>2026-04-18T10:10:01.777Z</time></trkpt><trkpt lat="45.4465693" lon="11.260121"><ele>242.40000000000003</ele><time>2026-04-18T10:10:03.777Z</time></trkpt><trkpt lat="45.4466167" lon="11.2599472"><ele>240.6</ele><time>2026-04-18T10:10:05.777Z</time></trkpt><trkpt lat="45.446634" lon="11.259848"><ele>238.8</ele><time>2026-04-18T10:10:06.777Z</time></trkpt><trkpt lat="45.4466509" lon="11.2597399"><ele>237.0</ele><time>2026-04-18T10:10:07.777Z</time></trkpt><trkpt lat="45.4466697" lon="11.2596391"><ele>237.0</ele><time>2026-04-18T10:10:08.777Z</time></trkpt><trkpt lat="45.4466888" lon="11.2595443"><ele>237.0</ele><time>2026-04-18T10:10:09.777Z</time></trkpt><trkpt lat="45.4467058" lon="11.2593468"><ele>237.0</ele><time>2026-04-18T10:10:11.777Z</time></trkpt><trkpt lat="45.446701" lon="11.2592402"><ele>237.0</ele><time>2026-04-18T10:10:12.777Z</time></trkpt><trkpt lat="45.4466945" lon="11.259141"><ele>237.0</ele><time>2026-04-18T10:10:13.777Z</time></trkpt><trkpt lat="45.446688" lon="11.2590298"><ele>237.0</ele><time>2026-04-18T10:10:14.777Z</time></trkpt><trkpt lat="45.4466709" lon="11.2589287"><ele>237.39999999999998</ele><time>2026-04-18T10:10:15.777Z</time></trkpt><trkpt lat="45.4466466" lon="11.2588317"><ele>237.79999999999998</ele><time>2026-04-18T10:10:16.777Z</time></trkpt><trkpt lat="45.4466032" lon="11.2587277"><ele>238.2</ele><time>2026-04-18T10:10:17.777Z</time></trkpt><trkpt lat="45.4465545" lon="11.2586122"><ele>238.6</ele><time>2026-04-18T10:10:18.777Z</time></trkpt><trkpt lat="45.4465242" lon="11.2585202"><ele>239.0</ele><time>2026-04-18T10:10:19.777Z</time></trkpt><trkpt lat="45.4464578" lon="11.2583574"><ele>239.0</ele><time>2026-04-18T10:10:21.777Z</time></trkpt><trkpt lat="45.4464004" lon="11.2582489"><ele>238.99999999999997</ele><time>2026-04-18T10:10:22.777Z</time></trkpt><trkpt lat="45.4463304" lon="11.2581438"><ele>238.99999999999997</ele><time>2026-04-18T10:10:23.777Z</time></trkpt><trkpt lat="45.4462706" lon="11.2580478"><ele>239.0</ele><time>2026-04-18T10:10:24.777Z</time></trkpt><trkpt lat="45.4462087" lon="11.2579309"><ele>239.0</ele><time>2026-04-18T10:10:25.777Z</time></trkpt><trkpt lat="45.4461529" lon="11.2578225"><ele>242.50000000000003</ele><time>2026-04-18T10:10:26.777Z</time></trkpt><trkpt lat="45.4461042" lon="11.2577217"><ele>246.0</ele><time>2026-04-18T10:10:27.777Z</time></trkpt><trkpt lat="45.4460609" lon="11.2576298"><ele>249.5</ele><time>2026-04-18T10:10:28.777Z</time></trkpt><trkpt lat="45.4460131" lon="11.2575314"><ele>253.0</ele><time>2026-04-18T10:10:29.777Z</time></trkpt><trkpt lat="45.4459688" lon="11.2574191"><ele>256.5</ele><time>2026-04-18T10:10:30.777Z</time></trkpt><trkpt lat="45.4459264" lon="11.2573187"><ele>260.0</ele><time>2026-04-18T10:10:31.777Z</time></trkpt><trkpt lat="45.4458897" lon="11.2572264"><ele>260.0</ele><time>2026-04-18T10:10:32.777Z</time></trkpt><trkpt lat="45.4458647" lon="11.2571212"><ele>260.0</ele><time>2026-04-18T10:10:33.777Z</time></trkpt><trkpt lat="45.4458552" lon="11.256996"><ele>260.0</ele><time>2026-04-18T10:10:34.777Z</time></trkpt><trkpt lat="45.4458535" lon="11.2568802"><ele>260.0</ele><time>2026-04-18T10:10:35.777Z</time></trkpt><trkpt lat="45.4458571" lon="11.2567717"><ele>260.0</ele><time>2026-04-18T10:10:36.777Z</time></trkpt><trkpt lat="45.4458609" lon="11.2566715"><ele>260.0</ele><time>2026-04-18T10:10:37.777Z</time></trkpt><trkpt lat="45.445849" lon="11.2565636"><ele>260.1666666666667</ele><time>2026-04-18T10:10:38.777Z</time></trkpt><trkpt lat="45.4458308" lon="11.2564443"><ele>260.33333333333337</ele><time>2026-04-18T10:10:39.777Z</time></trkpt><trkpt lat="45.4458077" lon="11.2563094"><ele>260.5</ele><time>2026-04-18T10:10:40.777Z</time></trkpt><trkpt lat="45.4457947" lon="11.2561923"><ele>260.6666666666667</ele><time>2026-04-18T10:10:41.777Z</time></trkpt><trkpt lat="45.4457864" lon="11.256055"><ele>260.8333333333333</ele><time>2026-04-18T10:10:42.777Z</time></trkpt><trkpt lat="45.4457835" lon="11.2559379"><ele>261.0</ele><time>2026-04-18T10:10:43.777Z</time></trkpt><trkpt lat="45.4457721" lon="11.2558295"><ele>261.0</ele><time>2026-04-18T10:10:44.777Z</time></trkpt><trkpt lat="45.4457695" lon="11.255691"><ele>261.0</ele><time>2026-04-18T10:10:46.777Z</time></trkpt><trkpt lat="45.4458109" lon="11.2555856"><ele>261.0</ele><time>2026-04-18T10:10:49.777Z</time></trkpt><trkpt lat="45.4458791" lon="11.2555873"><ele>261.0</ele><time>2026-04-18T10:10:53.777Z</time></trkpt><trkpt lat="45.445969" lon="11.2555724"><ele>261.0</ele><time>2026-04-18T10:11:35.777Z</time></trkpt><trkpt lat="45.4460263" lon="11.2555259"><ele>261.0</ele><time>2026-04-18T10:12:41.777Z</time></trkpt><trkpt lat="45.4460962" lon="11.2555412"><ele>261.0</ele><time>2026-04-18T10:12:46.777Z</time></trkpt><trkpt lat="45.4461351" lon="11.2554676"><ele>261.0</ele><time>2026-04-18T10:14:43.777Z</time></trkpt><trkpt lat="45.4461967" lon="11.2554025"><ele>261.0</ele><time>2026-04-18T10:14:45.777Z</time></trkpt><trkpt lat="45.4463234" lon="11.2553436"><ele>261.0</ele><time>2026-04-18T10:14:47.777Z</time></trkpt><trkpt lat="45.4464004" lon="11.2553017"><ele>261.0</ele><time>2026-04-18T10:14:48.777Z</time></trkpt><trkpt lat="45.446476" lon="11.2552601"><ele>261.0</ele><time>2026-04-18T10:14:49.777Z</time></trkpt><trkpt lat="45.4465548" lon="11.2552241"><ele>262.5</ele><time>2026-04-18T10:14:50.777Z</time></trkpt><trkpt lat="45.4466322" lon="11.2551863"><ele>264.0</ele><time>2026-04-18T10:14:51.777Z</time></trkpt><trkpt lat="45.4467091" lon="11.2551556"><ele>265.5</ele><time>2026-04-18T10:14:52.777Z</time></trkpt><trkpt lat="45.4467821" lon="11.2551294"><ele>267.0</ele><time>2026-04-18T10:14:53.777Z</time></trkpt><trkpt lat="45.4468581" lon="11.2550959"><ele>268.5</ele><time>2026-04-18T10:14:54.777Z</time></trkpt><trkpt lat="45.446935" lon="11.2550471"><ele>270.0</ele><time>2026-04-18T10:14:55.777Z</time></trkpt><trkpt lat="45.4470064" lon="11.2549817"><ele>270.0</ele><time>2026-04-18T10:14:56.777Z</time></trkpt><trkpt lat="45.4470712" lon="11.2549025"><ele>270.0</ele><time>2026-04-18T10:14:57.777Z</time></trkpt><trkpt lat="45.4471294" lon="11.2548185"><ele>270.0</ele><time>2026-04-18T10:14:58.777Z</time></trkpt><trkpt lat="45.4471752" lon="11.2547228"><ele>270.0</ele><time>2026-04-18T10:14:59.777Z</time></trkpt><trkpt lat="45.4472152" lon="11.2546168"><ele>270.0</ele><time>2026-04-18T10:15:00.777Z</time></trkpt><trkpt lat="45.4472581" lon="11.2545084"><ele>270.0</ele><time>2026-04-18T10:15:01.777Z</time></trkpt><trkpt lat="45.4473021" lon="11.2544016"><ele>269.3333333333333</ele><time>2026-04-18T10:15:02.777Z</time></trkpt><trkpt lat="45.4473459" lon="11.2543031"><ele>268.6666666666667</ele><time>2026-04-18T10:15:03.777Z</time></trkpt><trkpt lat="45.4473927" lon="11.2542072"><ele>268.0</ele><time>2026-04-18T10:15:04.777Z</time></trkpt><trkpt lat="45.44744" lon="11.2541042"><ele>267.33333333333337</ele><time>2026-04-18T10:15:05.777Z</time></trkpt><trkpt lat="45.4474912" lon="11.2540062"><ele>266.6666666666667</ele><time>2026-04-18T10:15:06.777Z</time></trkpt><trkpt lat="45.4475493" lon="11.2539157"><ele>266.0</ele><time>2026-04-18T10:15:07.777Z</time></trkpt><trkpt lat="45.4476064" lon="11.2538402"><ele>267.0</ele><time>2026-04-18T10:15:08.777Z</time></trkpt><trkpt lat="45.4476691" lon="11.2537786"><ele>268.0</ele><time>2026-04-18T10:15:09.777Z</time></trkpt><trkpt lat="45.4477459" lon="11.2537213"><ele>269.0</ele><time>2026-04-18T10:15:10.777Z</time></trkpt><trkpt lat="45.4478274" lon="11.2536775"><ele>270.0</ele><time>2026-04-18T10:15:11.777Z</time></trkpt><trkpt lat="45.4479141" lon="11.2536482"><ele>271.0</ele><time>2026-04-18T10:15:12.777Z</time></trkpt><trkpt lat="45.4480074" lon="11.253638"><ele>272.0</ele><time>2026-04-18T10:15:13.777Z</time></trkpt><trkpt lat="45.4481161" lon="11.2536449"><ele>272.0</ele><time>2026-04-18T10:15:14.777Z</time></trkpt><trkpt lat="45.4482491" lon="11.2536696"><ele>272.0</ele><time>2026-04-18T10:15:15.777Z</time></trkpt><trkpt lat="45.4483682" lon="11.2536925"><ele>272.0</ele><time>2026-04-18T10:15:16.777Z</time></trkpt><trkpt lat="45.4484761" lon="11.2537164"><ele>272.0</ele><time>2026-04-18T10:15:17.777Z</time></trkpt><trkpt lat="45.4485725" lon="11.2537362"><ele>272.0</ele><time>2026-04-18T10:15:18.777Z</time></trkpt><trkpt lat="45.4486532" lon="11.2537526"><ele>272.0</ele><time>2026-04-18T10:15:19.777Z</time></trkpt><trkpt lat="45.4487304" lon="11.2537653"><ele>272.0</ele><time>2026-04-18T10:15:20.777Z</time></trkpt><trkpt lat="45.4488077" lon="11.2537745"><ele>272.0</ele><time>2026-04-18T10:15:21.777Z</time></trkpt><trkpt lat="45.4488842" lon="11.2537677"><ele>272.0</ele><time>2026-04-18T10:15:22.777Z</time></trkpt><trkpt lat="45.448969" lon="11.25375"><ele>272.0</ele><time>2026-04-18T10:15:23.777Z</time></trkpt><trkpt lat="45.4490716" lon="11.2537157"><ele>273.0</ele><time>2026-04-18T10:15:24.777Z</time></trkpt><trkpt lat="45.4491695" lon="11.2536782"><ele>274.0</ele><time>2026-04-18T10:15:25.777Z</time></trkpt><trkpt lat="45.4492685" lon="11.2536399"><ele>275.0</ele><time>2026-04-18T10:15:26.777Z</time></trkpt><trkpt lat="45.4493641" lon="11.2535912"><ele>276.0</ele><time>2026-04-18T10:15:27.777Z</time></trkpt><trkpt lat="45.4494469" lon="11.2535439"><ele>277.0</ele><time>2026-04-18T10:15:28.777Z</time></trkpt><trkpt lat="45.4495237" lon="11.2534886"><ele>277.0</ele><time>2026-04-18T10:15:29.777Z</time></trkpt><trkpt lat="45.4495903" lon="11.2534241"><ele>277.0</ele><time>2026-04-18T10:15:30.777Z</time></trkpt><trkpt lat="45.4496509" lon="11.2533571"><ele>277.0</ele><time>2026-04-18T10:15:31.777Z</time></trkpt><trkpt lat="45.4496964" lon="11.2532944"><ele>277.0</ele><time>2026-04-18T10:15:32.777Z</time></trkpt><trkpt lat="45.4497959" lon="11.2532336"><ele>277.0</ele><time>2026-04-18T10:15:34.777Z</time></trkpt><trkpt lat="45.4498607" lon="11.2532367"><ele>277.0</ele><time>2026-04-18T10:15:35.777Z</time></trkpt><trkpt lat="45.4499386" lon="11.2532712"><ele>276.3333333333333</ele><time>2026-04-18T10:15:36.777Z</time></trkpt><trkpt lat="45.4500181" lon="11.2533153"><ele>275.66666666666663</ele><time>2026-04-18T10:15:37.777Z</time></trkpt><trkpt lat="45.450087" lon="11.2533452"><ele>275.0</ele><time>2026-04-18T10:15:38.777Z</time></trkpt><trkpt lat="45.4502068" lon="11.2533869"><ele>274.3333333333333</ele><time>2026-04-18T10:15:40.777Z</time></trkpt><trkpt lat="45.4502764" lon="11.253382"><ele>273.6666666666667</ele><time>2026-04-18T10:15:41.777Z</time></trkpt><trkpt lat="45.4503477" lon="11.2533718"><ele>273.0</ele><time>2026-04-18T10:15:42.777Z</time></trkpt><trkpt lat="45.4504261" lon="11.2533584"><ele>273.6666666666667</ele><time>2026-04-18T10:15:43.777Z</time></trkpt><trkpt lat="45.4505078" lon="11.2533363"><ele>274.3333333333333</ele><time>2026-04-18T10:15:44.778Z</time></trkpt><trkpt lat="45.450591" lon="11.253317"><ele>275.0</ele><time>2026-04-18T10:15:45.777Z</time></trkpt><trkpt lat="45.4506701" lon="11.253308"><ele>275.66666666666663</ele><time>2026-04-18T10:15:46.777Z</time></trkpt><trkpt lat="45.4507522" lon="11.2533043"><ele>276.3333333333333</ele><time>2026-04-18T10:15:47.777Z</time></trkpt><trkpt lat="45.4508272" lon="11.2533051"><ele>277.0</ele><time>2026-04-18T10:15:48.777Z</time></trkpt><trkpt lat="45.4509078" lon="11.2533029"><ele>277.0</ele><time>2026-04-18T10:15:49.777Z</time></trkpt><trkpt lat="45.4509907" lon="11.2532955"><ele>277.0</ele><time>2026-04-18T10:15:50.777Z</time></trkpt><trkpt lat="45.4510819" lon="11.2532913"><ele>277.0</ele><time>2026-04-18T10:15:51.777Z</time></trkpt><trkpt lat="45.4511788" lon="11.2532843"><ele>277.0</ele><time>2026-04-18T10:15:52.777Z</time></trkpt><trkpt lat="45.4512839" lon="11.2532843"><ele>277.0</ele><time>2026-04-18T10:15:53.777Z</time></trkpt><trkpt lat="45.4513932" lon="11.2532857"><ele>277.8</ele><time>2026-04-18T10:15:54.777Z</time></trkpt><trkpt lat="45.4514929" lon="11.2532794"><ele>278.6</ele><time>2026-04-18T10:15:55.777Z</time></trkpt><trkpt lat="45.4515936" lon="11.2532619"><ele>279.40000000000003</ele><time>2026-04-18T10:15:56.777Z</time></trkpt><trkpt lat="45.4516902" lon="11.2532315"><ele>280.2</ele><time>2026-04-18T10:15:57.777Z</time></trkpt><trkpt lat="45.4517821" lon="11.253186"><ele>281.0</ele><time>2026-04-18T10:15:58.777Z</time></trkpt><trkpt lat="45.451872" lon="11.2531302"><ele>283.0</ele><time>2026-04-18T10:15:59.777Z</time></trkpt><trkpt lat="45.4519614" lon="11.2530568"><ele>285.0</ele><time>2026-04-18T10:16:00.777Z</time></trkpt><trkpt lat="45.4520487" lon="11.2529698"><ele>287.0</ele><time>2026-04-18T10:16:01.777Z</time></trkpt><trkpt lat="45.4521439" lon="11.2528811"><ele>289.0</ele><time>2026-04-18T10:16:02.777Z</time></trkpt><trkpt lat="45.4522429" lon="11.2527928"><ele>291.0</ele><time>2026-04-18T10:16:03.777Z</time></trkpt><trkpt lat="45.452322" lon="11.2527186"><ele>291.0</ele><time>2026-04-18T10:16:04.777Z</time></trkpt><trkpt lat="45.4523888" lon="11.2526409"><ele>291.0</ele><time>2026-04-18T10:16:05.777Z</time></trkpt><trkpt lat="45.4524414" lon="11.2525758"><ele>291.0</ele><time>2026-04-18T10:16:06.777Z</time></trkpt><trkpt lat="45.4524809" lon="11.2524959"><ele>291.0</ele><time>2026-04-18T10:16:07.777Z</time></trkpt><trkpt lat="45.4524954" lon="11.2524"><ele>291.0</ele><time>2026-04-18T10:16:08.777Z</time></trkpt><trkpt lat="45.4525004" lon="11.2522989"><ele>291.0</ele><time>2026-04-18T10:16:09.777Z</time></trkpt><trkpt lat="45.4525199" lon="11.2521433"><ele>291.6</ele><time>2026-04-18T10:16:11.777Z</time></trkpt><trkpt lat="45.4526057" lon="11.252061"><ele>292.20000000000005</ele><time>2026-04-18T10:16:13.777Z</time></trkpt><trkpt lat="45.4526869" lon="11.2520294"><ele>292.79999999999995</ele><time>2026-04-18T10:16:14.777Z</time></trkpt><trkpt lat="45.4527925" lon="11.2519931"><ele>293.4</ele><time>2026-04-18T10:16:15.777Z</time></trkpt><trkpt lat="45.4528947" lon="11.2519674"><ele>294.0</ele><time>2026-04-18T10:16:16.777Z</time></trkpt><trkpt lat="45.4530032" lon="11.2519441"><ele>294.0</ele><time>2026-04-18T10:16:17.777Z</time></trkpt><trkpt lat="45.4530988" lon="11.2519344"><ele>294.0</ele><time>2026-04-18T10:16:18.777Z</time></trkpt><trkpt lat="45.4531892" lon="11.2519211"><ele>294.0</ele><time>2026-04-18T10:16:19.777Z</time></trkpt><trkpt lat="45.453271" lon="11.2519087"><ele>294.0</ele><time>2026-04-18T10:16:20.777Z</time></trkpt><trkpt lat="45.4533462" lon="11.2518896"><ele>294.0</ele><time>2026-04-18T10:16:21.777Z</time></trkpt><trkpt lat="45.4534097" lon="11.2518713"><ele>294.0</ele><time>2026-04-18T10:16:22.777Z</time></trkpt><trkpt lat="45.4535076" lon="11.251846"><ele>294.0</ele><time>2026-04-18T10:16:24.777Z</time></trkpt><trkpt lat="45.4535842" lon="11.2518325"><ele>294.0</ele><time>2026-04-18T10:16:27.778Z</time></trkpt><trkpt lat="45.4536603" lon="11.2518331"><ele>294.0</ele><time>2026-04-18T10:16:29.777Z</time></trkpt><trkpt lat="45.453713" lon="11.2519065"><ele>294.0</ele><time>2026-04-18T10:16:31.777Z</time></trkpt><trkpt lat="45.4537748" lon="11.2519482"><ele>294.0</ele><time>2026-04-18T10:16:34.777Z</time></trkpt><trkpt lat="45.4538513" lon="11.2518211"><ele>294.0</ele><time>2026-04-18T10:16:37.777Z</time></trkpt><trkpt lat="45.4538928" lon="11.251723"><ele>294.59999999999997</ele><time>2026-04-18T10:16:38.777Z</time></trkpt><trkpt lat="45.4539599" lon="11.2516262"><ele>295.2</ele><time>2026-04-18T10:16:39.777Z</time></trkpt><trkpt lat="45.4540319" lon="11.251535"><ele>295.79999999999995</ele><time>2026-04-18T10:16:40.777Z</time></trkpt><trkpt lat="45.4541079" lon="11.2514215"><ele>296.4</ele><time>2026-04-18T10:16:41.777Z</time></trkpt><trkpt lat="45.4541903" lon="11.2512984"><ele>297.0</ele><time>2026-04-18T10:16:42.777Z</time></trkpt><trkpt lat="45.4542741" lon="11.2511757"><ele>297.0</ele><time>2026-04-18T10:16:43.777Z</time></trkpt><trkpt lat="45.4543427" lon="11.2510559"><ele>297.0</ele><time>2026-04-18T10:16:44.777Z</time></trkpt><trkpt lat="45.4543934" lon="11.2509312"><ele>297.0</ele><time>2026-04-18T10:16:45.777Z</time></trkpt><trkpt lat="45.454415" lon="11.2508009"><ele>297.0</ele><time>2026-04-18T10:16:46.777Z</time></trkpt><trkpt lat="45.4544016" lon="11.2506596"><ele>297.0</ele><time>2026-04-18T10:16:47.777Z</time></trkpt><trkpt lat="45.4543702" lon="11.2504887"><ele>298.0</ele><time>2026-04-18T10:16:48.777Z</time></trkpt><trkpt lat="45.4543482" lon="11.2503289"><ele>299.0</ele><time>2026-04-18T10:16:49.777Z</time></trkpt><trkpt lat="45.4543367" lon="11.2501865"><ele>300.0</ele><time>2026-04-18T10:16:50.777Z</time></trkpt><trkpt lat="45.4543422" lon="11.2500538"><ele>301.0</ele><time>2026-04-18T10:16:51.777Z</time></trkpt><trkpt lat="45.4543614" lon="11.2499178"><ele>302.0</ele><time>2026-04-18T10:16:52.777Z</time></trkpt><trkpt lat="45.4543883" lon="11.2497719"><ele>299.5</ele><time>2026-04-18T10:16:53.777Z</time></trkpt><trkpt lat="45.454418" lon="11.2496389"><ele>297.0</ele><time>2026-04-18T10:16:54.777Z</time></trkpt><trkpt lat="45.4544632" lon="11.2495076"><ele>294.5</ele><time>2026-04-18T10:16:55.777Z</time></trkpt><trkpt lat="45.4545274" lon="11.2493607"><ele>292.0</ele><time>2026-04-18T10:16:56.777Z</time></trkpt><trkpt lat="45.454605" lon="11.2492115"><ele>292.0</ele><time>2026-04-18T10:16:57.777Z</time></trkpt><trkpt lat="45.4546946" lon="11.2490778"><ele>292.0</ele><time>2026-04-18T10:16:58.777Z</time></trkpt><trkpt lat="45.4547789" lon="11.2489461"><ele>292.0</ele><time>2026-04-18T10:16:59.777Z</time></trkpt><trkpt lat="45.45486" lon="11.2488175"><ele>292.0</ele><time>2026-04-18T10:17:00.777Z</time></trkpt><trkpt lat="45.4549435" lon="11.2486853"><ele>291.0</ele><time>2026-04-18T10:17:01.777Z</time></trkpt><trkpt lat="45.4550323" lon="11.2485521"><ele>290.0</ele><time>2026-04-18T10:17:02.777Z</time></trkpt><trkpt lat="45.4551202" lon="11.2484276"><ele>289.0</ele><time>2026-04-18T10:17:03.777Z</time></trkpt><trkpt lat="45.4552091" lon="11.2483146"><ele>288.0</ele><time>2026-04-18T10:17:04.778Z</time></trkpt><trkpt lat="45.4553049" lon="11.2482178"><ele>288.0</ele><time>2026-04-18T10:17:05.777Z</time></trkpt><trkpt lat="45.4554082" lon="11.248131"><ele>288.0</ele><time>2026-04-18T10:17:06.777Z</time></trkpt><trkpt lat="45.4555173" lon="11.2480382"><ele>288.0</ele><time>2026-04-18T10:17:07.777Z</time></trkpt><trkpt lat="45.4556335" lon="11.2479326"><ele>288.0</ele><time>2026-04-18T10:17:08.777Z</time></trkpt><trkpt lat="45.4557549" lon="11.2478251"><ele>287.6666666666667</ele><time>2026-04-18T10:17:09.777Z</time></trkpt><trkpt lat="45.4558827" lon="11.2477159"><ele>287.33333333333337</ele><time>2026-04-18T10:17:10.777Z</time></trkpt><trkpt lat="45.4560138" lon="11.2475822"><ele>287.0</ele><time>2026-04-18T10:17:11.778Z</time></trkpt><trkpt lat="45.4561391" lon="11.2474399"><ele>287.0</ele><time>2026-04-18T10:17:12.777Z</time></trkpt><trkpt lat="45.4562473" lon="11.2472968"><ele>287.0</ele><time>2026-04-18T10:17:13.777Z</time></trkpt><trkpt lat="45.4563408" lon="11.2471646"><ele>287.0</ele><time>2026-04-18T10:17:14.777Z</time></trkpt><trkpt lat="45.4564263" lon="11.2470435"><ele>287.0</ele><time>2026-04-18T10:17:15.777Z</time></trkpt><trkpt lat="45.4565062" lon="11.2468987"><ele>289.0</ele><time>2026-04-18T10:17:16.777Z</time></trkpt><trkpt lat="45.4565763" lon="11.2467002"><ele>291.0</ele><time>2026-04-18T10:17:17.777Z</time></trkpt><trkpt lat="45.4566432" lon="11.2464736"><ele>293.0</ele><time>2026-04-18T10:17:18.777Z</time></trkpt><trkpt lat="45.4567026" lon="11.2462635"><ele>294.75</ele><time>2026-04-18T10:17:19.777Z</time></trkpt><trkpt lat="45.4567573" lon="11.2460773"><ele>296.5</ele><time>2026-04-18T10:17:20.778Z</time></trkpt><trkpt lat="45.4568102" lon="11.2459205"><ele>298.25</ele><time>2026-04-18T10:17:21.777Z</time></trkpt><trkpt lat="45.4568557" lon="11.2457831"><ele>300.0</ele><time>2026-04-18T10:17:22.777Z</time></trkpt><trkpt lat="45.4568959" lon="11.2456693"><ele>301.6</ele><time>2026-04-18T10:17:23.777Z</time></trkpt><trkpt lat="45.4569163" lon="11.2455667"><ele>303.2</ele><time>2026-04-18T10:17:24.777Z</time></trkpt><trkpt lat="45.4568987" lon="11.2454524"><ele>304.8</ele><time>2026-04-18T10:17:25.777Z</time></trkpt><trkpt lat="45.4568482" lon="11.2453475"><ele>306.4</ele><time>2026-04-18T10:17:26.777Z</time></trkpt><trkpt lat="45.4567691" lon="11.2452415"><ele>308.0</ele><time>2026-04-18T10:17:27.777Z</time></trkpt><trkpt lat="45.4567023" lon="11.2451097"><ele>308.0</ele><time>2026-04-18T10:17:28.777Z</time></trkpt><trkpt lat="45.4566372" lon="11.2449299"><ele>308.0</ele><time>2026-04-18T10:17:29.777Z</time></trkpt><trkpt lat="45.456573" lon="11.2447709"><ele>308.0</ele><time>2026-04-18T10:17:30.778Z</time></trkpt><trkpt lat="45.4565127" lon="11.2445892"><ele>308.0</ele><time>2026-04-18T10:17:31.777Z</time></trkpt><trkpt lat="45.4564611" lon="11.2443756"><ele>309.25</ele><time>2026-04-18T10:17:32.777Z</time></trkpt><trkpt lat="45.4564242" lon="11.2441803"><ele>310.5</ele><time>2026-04-18T10:17:33.777Z</time></trkpt><trkpt lat="45.4563933" lon="11.2440052"><ele>311.75</ele><time>2026-04-18T10:17:34.777Z</time></trkpt><trkpt lat="45.45638" lon="11.2438434"><ele>313.0</ele><time>2026-04-18T10:17:35.777Z</time></trkpt><trkpt lat="45.4563724" lon="11.2436728"><ele>313.0</ele><time>2026-04-18T10:17:36.778Z</time></trkpt><trkpt lat="45.4563761" lon="11.2435169"><ele>313.0</ele><time>2026-04-18T10:17:37.778Z</time></trkpt><trkpt lat="45.4563844" lon="11.2433759"><ele>313.0</ele><time>2026-04-18T10:17:38.777Z</time></trkpt><trkpt lat="45.4563999" lon="11.2432419"><ele>313.0</ele><time>2026-04-18T10:17:39.777Z</time></trkpt><trkpt lat="45.4564191" lon="11.2431117"><ele>313.0</ele><time>2026-04-18T10:17:40.777Z</time></trkpt><trkpt lat="45.4564316" lon="11.2429903"><ele>311.8333333333333</ele><time>2026-04-18T10:17:41.777Z</time></trkpt><trkpt lat="45.4564351" lon="11.2428801"><ele>310.66666666666663</ele><time>2026-04-18T10:17:42.777Z</time></trkpt><trkpt lat="45.4564196" lon="11.2427796"><ele>309.5</ele><time>2026-04-18T10:17:43.777Z</time></trkpt><trkpt lat="45.4563654" lon="11.2426965"><ele>308.3333333333333</ele><time>2026-04-18T10:17:44.777Z</time></trkpt><trkpt lat="45.456275" lon="11.2426357"><ele>307.1666666666667</ele><time>2026-04-18T10:17:45.777Z</time></trkpt><trkpt lat="45.4561776" lon="11.2425963"><ele>306.0</ele><time>2026-04-18T10:17:46.777Z</time></trkpt><trkpt lat="45.456105" lon="11.2425648"><ele>306.0</ele><time>2026-04-18T10:17:47.777Z</time></trkpt><trkpt lat="45.4560325" lon="11.2424838"><ele>306.0</ele><time>2026-04-18T10:17:49.778Z</time></trkpt><trkpt lat="45.4560959" lon="11.2424111"><ele>306.0</ele><time>2026-04-18T10:17:52.777Z</time></trkpt><trkpt lat="45.4562307" lon="11.2424643"><ele>306.0</ele><time>2026-04-18T10:17:54.777Z</time></trkpt><trkpt lat="45.456321" lon="11.242503"><ele>306.0</ele><time>2026-04-18T10:17:55.777Z</time></trkpt><trkpt lat="45.4564145" lon="11.2425452"><ele>304.40000000000003</ele><time>2026-04-18T10:17:56.778Z</time></trkpt><trkpt lat="45.4565056" lon="11.2425885"><ele>302.8</ele><time>2026-04-18T10:17:57.777Z</time></trkpt><trkpt lat="45.4565914" lon="11.2426284"><ele>301.20000000000005</ele><time>2026-04-18T10:17:58.777Z</time></trkpt><trkpt lat="45.4566792" lon="11.2426724"><ele>299.6</ele><time>2026-04-18T10:17:59.777Z</time></trkpt><trkpt lat="45.4567618" lon="11.2427202"><ele>298.0</ele><time>2026-04-18T10:18:00.777Z</time></trkpt><trkpt lat="45.4568413" lon="11.2427775"><ele>298.0</ele><time>2026-04-18T10:18:01.777Z</time></trkpt><trkpt lat="45.4569179" lon="11.2428196"><ele>298.0</ele><time>2026-04-18T10:18:02.777Z</time></trkpt><trkpt lat="45.4569822" lon="11.242827"><ele>298.0</ele><time>2026-04-18T10:18:03.777Z</time></trkpt><trkpt lat="45.4570683" lon="11.2428195"><ele>298.0</ele><time>2026-04-18T10:18:05.777Z</time></trkpt><trkpt lat="45.4572031" lon="11.2428057"><ele>298.0</ele><time>2026-04-18T10:18:07.777Z</time></trkpt><trkpt lat="45.4573068" lon="11.24278"><ele>298.75</ele><time>2026-04-18T10:18:08.777Z</time></trkpt><trkpt lat="45.4574328" lon="11.2427291"><ele>299.5</ele><time>2026-04-18T10:18:09.777Z</time></trkpt><trkpt lat="45.4575704" lon="11.2426711"><ele>300.25</ele><time>2026-04-18T10:18:10.777Z</time></trkpt><trkpt lat="45.4577124" lon="11.2426088"><ele>301.0</ele><time>2026-04-18T10:18:11.777Z</time></trkpt><trkpt lat="45.4578533" lon="11.2425542"><ele>302.75</ele><time>2026-04-18T10:18:12.777Z</time></trkpt><trkpt lat="45.4579879" lon="11.2424985"><ele>304.5</ele><time>2026-04-18T10:18:13.777Z</time></trkpt><trkpt lat="45.4581178" lon="11.2424475"><ele>306.25</ele><time>2026-04-18T10:18:14.777Z</time></trkpt><trkpt lat="45.4582628" lon="11.242397"><ele>308.0</ele><time>2026-04-18T10:18:15.777Z</time></trkpt><trkpt lat="45.4584106" lon="11.2423611"><ele>308.0</ele><time>2026-04-18T10:18:16.777Z</time></trkpt><trkpt lat="45.4585452" lon="11.2423389"><ele>308.0</ele><time>2026-04-18T10:18:17.777Z</time></trkpt><trkpt lat="45.4586676" lon="11.2423254"><ele>308.0</ele><time>2026-04-18T10:18:18.777Z</time></trkpt><trkpt lat="45.4587785" lon="11.2423161"><ele>308.0</ele><time>2026-04-18T10:18:19.777Z</time></trkpt><trkpt lat="45.4588837" lon="11.2423116"><ele>307.8</ele><time>2026-04-18T10:18:20.777Z</time></trkpt><trkpt lat="45.4589811" lon="11.2423022"><ele>307.6</ele><time>2026-04-18T10:18:21.777Z</time></trkpt><trkpt lat="45.4590712" lon="11.2422949"><ele>307.4</ele><time>2026-04-18T10:18:22.777Z</time></trkpt><trkpt lat="45.4591605" lon="11.2422822"><ele>307.2</ele><time>2026-04-18T10:18:23.777Z</time></trkpt><trkpt lat="45.4592512" lon="11.2422705"><ele>307.0</ele><time>2026-04-18T10:18:24.777Z</time></trkpt><trkpt lat="45.4593414" lon="11.2422654"><ele>307.0</ele><time>2026-04-18T10:18:25.777Z</time></trkpt><trkpt lat="45.4594161" lon="11.2422594"><ele>307.0</ele><time>2026-04-18T10:18:26.777Z</time></trkpt><trkpt lat="45.4594891" lon="11.2422564"><ele>307.0</ele><time>2026-04-18T10:18:27.777Z</time></trkpt><trkpt lat="45.4595553" lon="11.2422449"><ele>307.0</ele><time>2026-04-18T10:18:28.777Z</time></trkpt><trkpt lat="45.4596211" lon="11.2422339"><ele>307.0</ele><time>2026-04-18T10:18:29.777Z</time></trkpt><trkpt lat="45.459688" lon="11.2422223"><ele>307.0</ele><time>2026-04-18T10:18:30.777Z</time></trkpt><trkpt lat="45.4598131" lon="11.2422039"><ele>308.3333333333333</ele><time>2026-04-18T10:18:32.777Z</time></trkpt><trkpt lat="45.4599364" lon="11.2421882"><ele>309.66666666666663</ele><time>2026-04-18T10:18:34.777Z</time></trkpt><trkpt lat="45.4600027" lon="11.2421797"><ele>311.0</ele><time>2026-04-18T10:18:35.777Z</time></trkpt><trkpt lat="45.4600696" lon="11.2421654"><ele>312.3333333333333</ele><time>2026-04-18T10:18:36.777Z</time></trkpt><trkpt lat="45.4601396" lon="11.2421323"><ele>313.6666666666667</ele><time>2026-04-18T10:18:37.778Z</time></trkpt><trkpt lat="45.4602139" lon="11.2420794"><ele>315.0</ele><time>2026-04-18T10:18:38.777Z</time></trkpt><trkpt lat="45.4602854" lon="11.2420111"><ele>315.0</ele><time>2026-04-18T10:18:39.777Z</time></trkpt><trkpt lat="45.4603479" lon="11.2419395"><ele>315.0</ele><time>2026-04-18T10:18:40.777Z</time></trkpt><trkpt lat="45.4604039" lon="11.241871"><ele>315.0</ele><time>2026-04-18T10:18:41.778Z</time></trkpt><trkpt lat="45.4604523" lon="11.2418074"><ele>315.0</ele><time>2026-04-18T10:18:42.777Z</time></trkpt><trkpt lat="45.4604943" lon="11.2417371"><ele>315.0</ele><time>2026-04-18T10:18:43.777Z</time></trkpt><trkpt lat="45.4605328" lon="11.2416643"><ele>315.0</ele><time>2026-04-18T10:18:44.777Z</time></trkpt><trkpt lat="45.4605805" lon="11.2415502"><ele>315.0</ele><time>2026-04-18T10:18:46.777Z</time></trkpt><trkpt lat="45.4605209" lon="11.2416312"><ele>315.0</ele><time>2026-04-18T10:18:54.777Z</time></trkpt><trkpt lat="45.4604499" lon="11.2417796"><ele>315.0</ele><time>2026-04-18T10:18:56.777Z</time></trkpt><trkpt lat="45.460393" lon="11.2418601"><ele>315.0</ele><time>2026-04-18T10:18:57.777Z</time></trkpt><trkpt lat="45.4603266" lon="11.2419358"><ele>315.0</ele><time>2026-04-18T10:18:58.777Z</time></trkpt><trkpt lat="45.4602521" lon="11.2420146"><ele>315.0</ele><time>2026-04-18T10:18:59.777Z</time></trkpt><trkpt lat="45.4601729" lon="11.242083"><ele>315.0</ele><time>2026-04-18T10:19:00.777Z</time></trkpt><trkpt lat="45.4600895" lon="11.2421215"><ele>315.0</ele><time>2026-04-18T10:19:01.777Z</time></trkpt><trkpt lat="45.4599888" lon="11.242156"><ele>315.0</ele><time>2026-04-18T10:19:02.777Z</time></trkpt><trkpt lat="45.4598807" lon="11.2421838"><ele>315.0</ele><time>2026-04-18T10:19:03.777Z</time></trkpt><trkpt lat="45.4597725" lon="11.242201"><ele>315.0</ele><time>2026-04-18T10:19:04.777Z</time></trkpt><trkpt lat="45.4596778" lon="11.2422092"><ele>313.6666666666667</ele><time>2026-04-18T10:19:05.777Z</time></trkpt><trkpt lat="45.4596086" lon="11.2422125"><ele>312.3333333333333</ele><time>2026-04-18T10:19:06.777Z</time></trkpt><trkpt lat="45.4595397" lon="11.2421948"><ele>311.0</ele><time>2026-04-18T10:19:08.777Z</time></trkpt><trkpt lat="45.4595179" lon="11.2420939"><ele>309.66666666666663</ele><time>2026-04-18T10:19:10.777Z</time></trkpt><trkpt lat="45.4595165" lon="11.2419252"><ele>308.3333333333333</ele><time>2026-04-18T10:19:12.777Z</time></trkpt><trkpt lat="45.459527" lon="11.2417999"><ele>307.0</ele><time>2026-04-18T10:19:14.777Z</time></trkpt><trkpt lat="45.4595594" lon="11.2416996"><ele>307.0</ele><time>2026-04-18T10:19:16.777Z</time></trkpt><trkpt lat="45.4595953" lon="11.2415872"><ele>307.0</ele><time>2026-04-18T10:19:18.777Z</time></trkpt><trkpt lat="45.4596389" lon="11.2414887"><ele>307.0</ele><time>2026-04-18T10:19:20.777Z</time></trkpt><trkpt lat="45.4596845" lon="11.241403"><ele>307.0</ele><time>2026-04-18T10:19:22.777Z</time></trkpt><trkpt lat="45.4597335" lon="11.2413332"><ele>307.0</ele><time>2026-04-18T10:19:24.777Z</time></trkpt><trkpt lat="45.4597855" lon="11.241271"><ele>307.0</ele><time>2026-04-18T10:19:26.777Z</time></trkpt><trkpt lat="45.4598682" lon="11.2411747"><ele>307.0</ele><time>2026-04-18T10:19:28.778Z</time></trkpt><trkpt lat="45.4599362" lon="11.2410681"><ele>307.0</ele><time>2026-04-18T10:19:30.777Z</time></trkpt><trkpt lat="45.4600047" lon="11.2409457"><ele>307.0</ele><time>2026-04-18T10:19:32.777Z</time></trkpt><trkpt lat="45.4600538" lon="11.2407972"><ele>307.0</ele><time>2026-04-18T10:19:34.777Z</time></trkpt><trkpt lat="45.4600734" lon="11.2406286"><ele>307.0</ele><time>2026-04-18T10:19:36.777Z</time></trkpt><trkpt lat="45.4600906" lon="11.2404973"><ele>307.0</ele><time>2026-04-18T10:19:38.777Z</time></trkpt><trkpt lat="45.4601081" lon="11.2404093"><ele>307.0</ele><time>2026-04-18T10:19:40.777Z</time></trkpt><trkpt lat="45.4601348" lon="11.2403008"><ele>307.0</ele><time>2026-04-18T10:19:43.777Z</time></trkpt><trkpt lat="45.4601723" lon="11.2402034"><ele>307.0</ele><time>2026-04-18T10:19:46.777Z</time></trkpt><trkpt lat="45.4602117" lon="11.2400992"><ele>307.0</ele><time>2026-04-18T10:19:49.777Z</time></trkpt><trkpt lat="45.4602212" lon="11.2400087"><ele>307.0</ele><time>2026-04-18T10:19:50.777Z</time></trkpt><trkpt lat="45.4602348" lon="11.239853"><ele>308.2</ele><time>2026-04-18T10:19:52.777Z</time></trkpt><trkpt lat="45.4602538" lon="11.2396818"><ele>309.4</ele><time>2026-04-18T10:19:54.777Z</time></trkpt><trkpt lat="45.4602837" lon="11.2395421"><ele>310.6</ele><time>2026-04-18T10:19:56.777Z</time></trkpt><trkpt lat="45.4603335" lon="11.2394077"><ele>311.8</ele><time>2026-04-18T10:19:58.777Z</time></trkpt><trkpt lat="45.4603721" lon="11.2393206"><ele>313.0</ele><time>2026-04-18T10:19:59.777Z</time></trkpt><trkpt lat="45.4604566" lon="11.2391725"><ele>313.0</ele><time>2026-04-18T10:20:01.777Z</time></trkpt><trkpt lat="45.4604954" lon="11.2390936"><ele>313.0</ele><time>2026-04-18T10:20:02.777Z</time></trkpt><trkpt lat="45.4605375" lon="11.2390104"><ele>313.0</ele><time>2026-04-18T10:20:03.777Z</time></trkpt><trkpt lat="45.4605785" lon="11.2389323"><ele>313.0</ele><time>2026-04-18T10:20:04.777Z</time></trkpt><trkpt lat="45.460618" lon="11.2388544"><ele>313.0</ele><time>2026-04-18T10:20:05.778Z</time></trkpt><trkpt lat="45.4606918" lon="11.2387113"><ele>313.0</ele><time>2026-04-18T10:20:07.777Z</time></trkpt><trkpt lat="45.4607349" lon="11.2386325"><ele>309.6</ele><time>2026-04-18T10:20:08.777Z</time></trkpt><trkpt lat="45.4607765" lon="11.2385609"><ele>306.20000000000005</ele><time>2026-04-18T10:20:09.777Z</time></trkpt><trkpt lat="45.460819" lon="11.2384939"><ele>302.8</ele><time>2026-04-18T10:20:10.777Z</time></trkpt><trkpt lat="45.4608927" lon="11.2383513"><ele>299.40000000000003</ele><time>2026-04-18T10:20:12.777Z</time></trkpt><trkpt lat="45.4609641" lon="11.2382099"><ele>296.0</ele><time>2026-04-18T10:20:14.778Z</time></trkpt><trkpt lat="45.4610182" lon="11.2380916"><ele>294.40000000000003</ele><time>2026-04-18T10:20:16.778Z</time></trkpt><trkpt lat="45.46108" lon="11.237995"><ele>292.8</ele><time>2026-04-18T10:20:18.777Z</time></trkpt><trkpt lat="45.4611385" lon="11.2378984"><ele>291.20000000000005</ele><time>2026-04-18T10:20:20.777Z</time></trkpt><trkpt lat="45.4612024" lon="11.2378309"><ele>289.6</ele><time>2026-04-18T10:20:22.777Z</time></trkpt><trkpt lat="45.4612841" lon="11.2377503"><ele>288.0</ele><time>2026-04-18T10:20:24.777Z</time></trkpt><trkpt lat="45.4613813" lon="11.2376755"><ele>288.0</ele><time>2026-04-18T10:20:26.777Z</time></trkpt><trkpt lat="45.46147" lon="11.2376006"><ele>288.0</ele><time>2026-04-18T10:20:28.778Z</time></trkpt><trkpt lat="45.4615579" lon="11.2375267"><ele>288.0</ele><time>2026-04-18T10:20:30.777Z</time></trkpt><trkpt lat="45.4616535" lon="11.2374615"><ele>288.0</ele><time>2026-04-18T10:20:32.777Z</time></trkpt><trkpt lat="45.4617437" lon="11.2374049"><ele>288.0</ele><time>2026-04-18T10:20:34.777Z</time></trkpt><trkpt lat="45.4618486" lon="11.2373507"><ele>288.0</ele><time>2026-04-18T10:20:36.777Z</time></trkpt><trkpt lat="45.4619467" lon="11.2373029"><ele>288.0</ele><time>2026-04-18T10:20:38.778Z</time></trkpt><trkpt lat="45.4620355" lon="11.2372384"><ele>288.0</ele><time>2026-04-18T10:20:40.777Z</time></trkpt><trkpt lat="45.4621303" lon="11.2371571"><ele>288.0</ele><time>2026-04-18T10:20:42.777Z</time></trkpt><trkpt lat="45.4622047" lon="11.2370194"><ele>288.0</ele><time>2026-04-18T10:20:44.778Z</time></trkpt><trkpt lat="45.4622566" lon="11.2368652"><ele>288.5</ele><time>2026-04-18T10:20:46.777Z</time></trkpt><trkpt lat="45.4622728" lon="11.2367368"><ele>289.0</ele><time>2026-04-18T10:20:48.777Z</time></trkpt><trkpt lat="45.4622784" lon="11.2366183"><ele>289.5</ele><time>2026-04-18T10:20:50.777Z</time></trkpt><trkpt lat="45.4622791" lon="11.2365172"><ele>290.0</ele><time>2026-04-18T10:20:52.777Z</time></trkpt><trkpt lat="45.4622829" lon="11.2364096"><ele>290.5</ele><time>2026-04-18T10:20:54.777Z</time></trkpt><trkpt lat="45.4622719" lon="11.236297"><ele>291.0</ele><time>2026-04-18T10:20:56.777Z</time></trkpt><trkpt lat="45.46225" lon="11.23617"><ele>290.0</ele><time>2026-04-18T10:20:58.777Z</time></trkpt><trkpt lat="45.4622175" lon="11.2360188"><ele>289.0</ele><time>2026-04-18T10:21:00.777Z</time></trkpt><trkpt lat="45.4621922" lon="11.2358851"><ele>288.0</ele><time>2026-04-18T10:21:02.777Z</time></trkpt><trkpt lat="45.4621794" lon="11.2357533"><ele>287.0</ele><time>2026-04-18T10:21:04.777Z</time></trkpt><trkpt lat="45.4621806" lon="11.2356619"><ele>286.0</ele><time>2026-04-18T10:21:05.777Z</time></trkpt><trkpt lat="45.4621899" lon="11.2355489"><ele>285.0</ele><time>2026-04-18T10:21:06.777Z</time></trkpt><trkpt lat="45.4621873" lon="11.2354405"><ele>284.8333333333333</ele><time>2026-04-18T10:21:07.777Z</time></trkpt><trkpt lat="45.4621796" lon="11.2353154"><ele>284.6666666666667</ele><time>2026-04-18T10:21:08.777Z</time></trkpt><trkpt lat="45.4621769" lon="11.2351786"><ele>284.5</ele><time>2026-04-18T10:21:09.777Z</time></trkpt><trkpt lat="45.4621766" lon="11.2350359"><ele>284.33333333333337</ele><time>2026-04-18T10:21:10.777Z</time></trkpt><trkpt lat="45.4621758" lon="11.2349066"><ele>284.1666666666667</ele><time>2026-04-18T10:21:11.777Z</time></trkpt><trkpt lat="45.4621764" lon="11.2348025"><ele>284.0</ele><time>2026-04-18T10:21:12.777Z</time></trkpt><trkpt lat="45.4621765" lon="11.2347048"><ele>284.0</ele><time>2026-04-18T10:21:13.777Z</time></trkpt><trkpt lat="45.4621734" lon="11.2345569"><ele>284.0</ele><time>2026-04-18T10:21:15.777Z</time></trkpt><trkpt lat="45.4621576" lon="11.2344295"><ele>284.0</ele><time>2026-04-18T10:21:17.777Z</time></trkpt><trkpt lat="45.4621402" lon="11.2343061"><ele>284.0</ele><time>2026-04-18T10:21:19.777Z</time></trkpt><trkpt lat="45.4621095" lon="11.2341889"><ele>284.0</ele><time>2026-04-18T10:21:21.777Z</time></trkpt><trkpt lat="45.4620718" lon="11.2340864"><ele>280.2</ele><time>2026-04-18T10:21:23.777Z</time></trkpt><trkpt lat="45.4620186" lon="11.2339577"><ele>276.4</ele><time>2026-04-18T10:21:25.777Z</time></trkpt><trkpt lat="45.4619492" lon="11.2337888"><ele>272.6</ele><time>2026-04-18T10:21:27.777Z</time></trkpt><trkpt lat="45.4619126" lon="11.2337035"><ele>268.8</ele><time>2026-04-18T10:21:28.777Z</time></trkpt><trkpt lat="45.4618798" lon="11.2336208"><ele>265.0</ele><time>2026-04-18T10:21:29.778Z</time></trkpt><trkpt lat="45.4618157" lon="11.2334899"><ele>265.0</ele><time>2026-04-18T10:21:31.777Z</time></trkpt><trkpt lat="45.4617668" lon="11.2334094"><ele>265.0</ele><time>2026-04-18T10:21:42.777Z</time></trkpt><trkpt lat="45.4617397" lon="11.2333158"><ele>265.0</ele><time>2026-04-18T10:21:45.777Z</time></trkpt><trkpt lat="45.4617217" lon="11.2331939"><ele>265.0</ele><time>2026-04-18T10:21:47.777Z</time></trkpt><trkpt lat="45.4616938" lon="11.2330217"><ele>265.0</ele><time>2026-04-18T10:21:49.778Z</time></trkpt><trkpt lat="45.4616803" lon="11.2329243"><ele>265.0</ele><time>2026-04-18T10:21:50.777Z</time></trkpt><trkpt lat="45.4616701" lon="11.2328344"><ele>265.16666666666663</ele><time>2026-04-18T10:21:51.777Z</time></trkpt><trkpt lat="45.4616544" lon="11.2327331"><ele>265.3333333333333</ele><time>2026-04-18T10:21:52.777Z</time></trkpt><trkpt lat="45.4616395" lon="11.2326412"><ele>265.5</ele><time>2026-04-18T10:21:53.777Z</time></trkpt><trkpt lat="45.4616219" lon="11.2325449"><ele>265.6666666666667</ele><time>2026-04-18T10:21:54.777Z</time></trkpt><trkpt lat="45.4616015" lon="11.2324529"><ele>265.83333333333337</ele><time>2026-04-18T10:21:55.777Z</time></trkpt><trkpt lat="45.4615669" lon="11.232282"><ele>266.0</ele><time>2026-04-18T10:21:57.777Z</time></trkpt><trkpt lat="45.4615428" lon="11.2321941"><ele>266.0</ele><time>2026-04-18T10:21:58.777Z</time></trkpt><trkpt lat="45.4615085" lon="11.2320463"><ele>266.0</ele><time>2026-04-18T10:22:00.777Z</time></trkpt><trkpt lat="45.4614665" lon="11.2319147"><ele>266.0</ele><time>2026-04-18T10:22:02.777Z</time></trkpt><trkpt lat="45.4614082" lon="11.2317729"><ele>266.0</ele><time>2026-04-18T10:22:04.777Z</time></trkpt><trkpt lat="45.4613418" lon="11.231625"><ele>266.0</ele><time>2026-04-18T10:22:06.777Z</time></trkpt><trkpt lat="45.461297" lon="11.2315324"><ele>264.1666666666667</ele><time>2026-04-18T10:22:07.777Z</time></trkpt><trkpt lat="45.4612526" lon="11.2314483"><ele>262.33333333333337</ele><time>2026-04-18T10:22:08.777Z</time></trkpt><trkpt lat="45.4611995" lon="11.2313567"><ele>260.5</ele><time>2026-04-18T10:22:09.777Z</time></trkpt><trkpt lat="45.4611475" lon="11.2312741"><ele>258.6666666666667</ele><time>2026-04-18T10:22:10.777Z</time></trkpt><trkpt lat="45.4610988" lon="11.2311962"><ele>256.8333333333333</ele><time>2026-04-18T10:22:11.777Z</time></trkpt><trkpt lat="45.461041" lon="11.2311089"><ele>255.0</ele><time>2026-04-18T10:22:12.777Z</time></trkpt><trkpt lat="45.4609955" lon="11.2310341"><ele>255.0</ele><time>2026-04-18T10:22:13.777Z</time></trkpt><trkpt lat="45.4609478" lon="11.2309699"><ele>255.0</ele><time>2026-04-18T10:22:14.777Z</time></trkpt><trkpt lat="45.4609032" lon="11.2308992"><ele>255.0</ele><time>2026-04-18T10:22:15.777Z</time></trkpt><trkpt lat="45.4608578" lon="11.2308338"><ele>255.0</ele><time>2026-04-18T10:22:16.777Z</time></trkpt><trkpt lat="45.4607818" lon="11.230722"><ele>255.0</ele><time>2026-04-18T10:22:18.777Z</time></trkpt><trkpt lat="45.4607291" lon="11.2306297"><ele>255.0</ele><time>2026-04-18T10:22:20.777Z</time></trkpt><trkpt lat="45.4606876" lon="11.2305542"><ele>254.66666666666666</ele><time>2026-04-18T10:22:22.777Z</time></trkpt><trkpt lat="45.4606607" lon="11.2304648"><ele>254.33333333333331</ele><time>2026-04-18T10:22:24.777Z</time></trkpt><trkpt lat="45.4606324" lon="11.230366"><ele>254.0</ele><time>2026-04-18T10:22:26.777Z</time></trkpt><trkpt lat="45.4606063" lon="11.2302611"><ele>253.66666666666666</ele><time>2026-04-18T10:22:28.777Z</time></trkpt><trkpt lat="45.4605978" lon="11.2301503"><ele>253.33333333333331</ele><time>2026-04-18T10:22:30.777Z</time></trkpt><trkpt lat="45.4605974" lon="11.230031"><ele>253.0</ele><time>2026-04-18T10:22:32.777Z</time></trkpt><trkpt lat="45.4606089" lon="11.2299111"><ele>251.16666666666666</ele><time>2026-04-18T10:22:34.777Z</time></trkpt><trkpt lat="45.4606189" lon="11.22979"><ele>249.33333333333331</ele><time>2026-04-18T10:22:36.777Z</time></trkpt><trkpt lat="45.4606213" lon="11.2296728"><ele>247.5</ele><time>2026-04-18T10:22:38.777Z</time></trkpt><trkpt lat="45.4606199" lon="11.2295673"><ele>245.66666666666669</ele><time>2026-04-18T10:22:40.777Z</time></trkpt><trkpt lat="45.4606281" lon="11.2294725"><ele>243.83333333333334</ele><time>2026-04-18T10:22:42.777Z</time></trkpt><trkpt lat="45.4606562" lon="11.2293746"><ele>242.0</ele><time>2026-04-18T10:22:44.777Z</time></trkpt><trkpt lat="45.460696" lon="11.229259"><ele>242.00000000000003</ele><time>2026-04-18T10:22:46.777Z</time></trkpt><trkpt lat="45.4607397" lon="11.2291757"><ele>242.0</ele><time>2026-04-18T10:22:48.777Z</time></trkpt><trkpt lat="45.460789" lon="11.2290914"><ele>242.0</ele><time>2026-04-18T10:22:50.777Z</time></trkpt><trkpt lat="45.4608322" lon="11.2290184"><ele>242.0</ele><time>2026-04-18T10:22:52.777Z</time></trkpt><trkpt lat="45.4608841" lon="11.2289104"><ele>242.00000000000003</ele><time>2026-04-18T10:22:55.777Z</time></trkpt><trkpt lat="45.4608846" lon="11.2288076"><ele>242.0</ele><time>2026-04-18T10:22:57.778Z</time></trkpt><trkpt lat="45.4608556" lon="11.2287056"><ele>239.2</ele><time>2026-04-18T10:22:59.777Z</time></trkpt><trkpt lat="45.4608045" lon="11.2286144"><ele>236.39999999999998</ele><time>2026-04-18T10:23:01.777Z</time></trkpt><trkpt lat="45.4607414" lon="11.2285204"><ele>233.60000000000002</ele><time>2026-04-18T10:23:03.777Z</time></trkpt><trkpt lat="45.4606769" lon="11.2284231"><ele>230.8</ele><time>2026-04-18T10:23:05.777Z</time></trkpt><trkpt lat="45.4606022" lon="11.2283315"><ele>228.0</ele><time>2026-04-18T10:23:07.777Z</time></trkpt><trkpt lat="45.4605432" lon="11.2282247"><ele>226.5</ele><time>2026-04-18T10:23:09.777Z</time></trkpt><trkpt lat="45.4604959" lon="11.2281262"><ele>225.0</ele><time>2026-04-18T10:23:11.778Z</time></trkpt><trkpt lat="45.4604602" lon="11.2279476"><ele>223.5</ele><time>2026-04-18T10:23:13.777Z</time></trkpt><trkpt lat="45.460436" lon="11.2278272"><ele>222.0</ele><time>2026-04-18T10:23:14.777Z</time></trkpt><trkpt lat="45.460424" lon="11.2277209"><ele>220.5</ele><time>2026-04-18T10:23:15.777Z</time></trkpt><trkpt lat="45.4604096" lon="11.2276259"><ele>219.0</ele><time>2026-04-18T10:23:16.777Z</time></trkpt><trkpt lat="45.4603919" lon="11.2275321"><ele>219.0</ele><time>2026-04-18T10:23:17.777Z</time></trkpt><trkpt lat="45.4603712" lon="11.2274365"><ele>219.0</ele><time>2026-04-18T10:23:18.777Z</time></trkpt><trkpt lat="45.4603539" lon="11.2273472"><ele>219.0</ele><time>2026-04-18T10:23:19.777Z</time></trkpt><trkpt lat="45.4603392" lon="11.2272336"><ele>219.0</ele><time>2026-04-18T10:23:20.777Z</time></trkpt><trkpt lat="45.4603262" lon="11.2271148"><ele>219.0</ele><time>2026-04-18T10:23:21.777Z</time></trkpt><trkpt lat="45.4603064" lon="11.2269929"><ele>219.0</ele><time>2026-04-18T10:23:22.777Z</time></trkpt><trkpt lat="45.4602693" lon="11.2268709"><ele>219.39999999999998</ele><time>2026-04-18T10:23:23.777Z</time></trkpt><trkpt lat="45.4602332" lon="11.2267581"><ele>219.79999999999998</ele><time>2026-04-18T10:23:24.777Z</time></trkpt><trkpt lat="45.4601892" lon="11.2266487"><ele>220.20000000000002</ele><time>2026-04-18T10:23:25.777Z</time></trkpt><trkpt lat="45.4601306" lon="11.2265364"><ele>220.60000000000002</ele><time>2026-04-18T10:23:26.777Z</time></trkpt><trkpt lat="45.4600763" lon="11.2264287"><ele>221.0</ele><time>2026-04-18T10:23:27.777Z</time></trkpt><trkpt lat="45.4600266" lon="11.2263266"><ele>221.00000000000003</ele><time>2026-04-18T10:23:28.777Z</time></trkpt><trkpt lat="45.4599694" lon="11.2262278"><ele>221.0</ele><time>2026-04-18T10:23:29.777Z</time></trkpt><trkpt lat="45.4599175" lon="11.2261346"><ele>221.0</ele><time>2026-04-18T10:23:30.777Z</time></trkpt><trkpt lat="45.4598653" lon="11.2260539"><ele>221.0</ele><time>2026-04-18T10:23:31.777Z</time></trkpt><trkpt lat="45.4598132" lon="11.2259813"><ele>221.00000000000003</ele><time>2026-04-18T10:23:32.777Z</time></trkpt><trkpt lat="45.4597392" lon="11.2258786"><ele>221.0</ele><time>2026-04-18T10:23:34.777Z</time></trkpt><trkpt lat="45.4596585" lon="11.2257731"><ele>220.4</ele><time>2026-04-18T10:23:49.777Z</time></trkpt><trkpt lat="45.4595755" lon="11.2256543"><ele>219.8</ele><time>2026-04-18T10:23:51.777Z</time></trkpt><trkpt lat="45.4594908" lon="11.22557"><ele>219.20000000000002</ele><time>2026-04-18T10:23:53.777Z</time></trkpt><trkpt lat="45.4594117" lon="11.2255299"><ele>218.60000000000002</ele><time>2026-04-18T10:23:55.777Z</time></trkpt><trkpt lat="45.4593461" lon="11.225494"><ele>218.0</ele><time>2026-04-18T10:23:57.777Z</time></trkpt><trkpt lat="45.4592536" lon="11.2254497"><ele>218.0</ele><time>2026-04-18T10:23:59.777Z</time></trkpt><trkpt lat="45.4591826" lon="11.2254208"><ele>218.0</ele><time>2026-04-18T10:24:00.777Z</time></trkpt><trkpt lat="45.4591079" lon="11.2253911"><ele>218.0</ele><time>2026-04-18T10:24:01.777Z</time></trkpt><trkpt lat="45.458991" lon="11.2253801"><ele>218.0</ele><time>2026-04-18T10:24:02.777Z</time></trkpt><trkpt lat="45.458874" lon="11.2253686"><ele>218.0</ele><time>2026-04-18T10:24:03.778Z</time></trkpt><trkpt lat="45.4587569" lon="11.2253557"><ele>217.0</ele><time>2026-04-18T10:24:04.777Z</time></trkpt><trkpt lat="45.4586548" lon="11.2253582"><ele>216.0</ele><time>2026-04-18T10:24:05.777Z</time></trkpt><trkpt lat="45.4585464" lon="11.2253508"><ele>215.0</ele><time>2026-04-18T10:24:06.777Z</time></trkpt><trkpt lat="45.4584447" lon="11.2253356"><ele>214.0</ele><time>2026-04-18T10:24:07.777Z</time></trkpt><trkpt lat="45.4583554" lon="11.2253293"><ele>213.0</ele><time>2026-04-18T10:24:08.777Z</time></trkpt><trkpt lat="45.4582764" lon="11.2253336"><ele>213.0</ele><time>2026-04-18T10:24:09.777Z</time></trkpt><trkpt lat="45.4581529" lon="11.2253571"><ele>213.0</ele><time>2026-04-18T10:24:11.777Z</time></trkpt><trkpt lat="45.4581243" lon="11.2252558"><ele>213.0</ele><time>2026-04-18T10:24:17.777Z</time></trkpt><trkpt lat="45.4581434" lon="11.2251574"><ele>213.0</ele><time>2026-04-18T10:24:19.777Z</time></trkpt><trkpt lat="45.458158" lon="11.2250569"><ele>213.0</ele><time>2026-04-18T10:24:21.777Z</time></trkpt><trkpt lat="45.4581294" lon="11.2249216"><ele>213.0</ele><time>2026-04-18T10:24:24.777Z</time></trkpt><trkpt lat="45.4580643" lon="11.2247797"><ele>212.60000000000002</ele><time>2026-04-18T10:24:26.777Z</time></trkpt><trkpt lat="45.458013" lon="11.224638"><ele>212.20000000000002</ele><time>2026-04-18T10:24:28.777Z</time></trkpt><trkpt lat="45.4579265" lon="11.2245069"><ele>211.8</ele><time>2026-04-18T10:24:30.777Z</time></trkpt><trkpt lat="45.457881" lon="11.2244417"><ele>211.4</ele><time>2026-04-18T10:24:31.777Z</time></trkpt><trkpt lat="45.4578031" lon="11.2243371"><ele>211.0</ele><time>2026-04-18T10:24:33.777Z</time></trkpt><trkpt lat="45.4577436" lon="11.2242191"><ele>207.60000000000002</ele><time>2026-04-18T10:24:35.777Z</time></trkpt><trkpt lat="45.4577027" lon="11.2240748"><ele>204.2</ele><time>2026-04-18T10:24:37.777Z</time></trkpt><trkpt lat="45.4576696" lon="11.2239489"><ele>200.8</ele><time>2026-04-18T10:24:39.777Z</time></trkpt><trkpt lat="45.45764" lon="11.2238352"><ele>197.39999999999998</ele><time>2026-04-18T10:24:41.777Z</time></trkpt><trkpt lat="45.4576042" lon="11.2237358"><ele>194.0</ele><time>2026-04-18T10:24:43.777Z</time></trkpt><trkpt lat="45.4575526" lon="11.2236346"><ele>193.2</ele><time>2026-04-18T10:24:45.777Z</time></trkpt><trkpt lat="45.4574939" lon="11.2235266"><ele>192.39999999999998</ele><time>2026-04-18T10:24:47.778Z</time></trkpt><trkpt lat="45.4574341" lon="11.223421"><ele>191.6</ele><time>2026-04-18T10:24:49.777Z</time></trkpt><trkpt lat="45.4573716" lon="11.2233267"><ele>190.8</ele><time>2026-04-18T10:24:51.777Z</time></trkpt><trkpt lat="45.4573084" lon="11.2232431"><ele>190.0</ele><time>2026-04-18T10:24:53.777Z</time></trkpt><trkpt lat="45.4572571" lon="11.2231343"><ele>188.5</ele><time>2026-04-18T10:24:55.777Z</time></trkpt><trkpt lat="45.4572167" lon="11.2230209"><ele>187.0</ele><time>2026-04-18T10:24:57.777Z</time></trkpt><trkpt lat="45.4571749" lon="11.2229095"><ele>185.5</ele><time>2026-04-18T10:24:59.777Z</time></trkpt><trkpt lat="45.45712" lon="11.2228118"><ele>184.0</ele><time>2026-04-18T10:25:01.777Z</time></trkpt><trkpt lat="45.4570693" lon="11.2227225"><ele>182.5</ele><time>2026-04-18T10:25:03.777Z</time></trkpt><trkpt lat="45.4570224" lon="11.2226289"><ele>181.0</ele><time>2026-04-18T10:25:05.777Z</time></trkpt><trkpt lat="45.4569805" lon="11.222514"><ele>179.16666666666669</ele><time>2026-04-18T10:25:07.777Z</time></trkpt><trkpt lat="45.4569343" lon="11.2224105"><ele>177.33333333333334</ele><time>2026-04-18T10:25:09.777Z</time></trkpt><trkpt lat="45.4568894" lon="11.2223122"><ele>175.5</ele><time>2026-04-18T10:25:11.777Z</time></trkpt><trkpt lat="45.4568493" lon="11.2222096"><ele>173.66666666666666</ele><time>2026-04-18T10:25:13.777Z</time></trkpt><trkpt lat="45.456815" lon="11.2220977"><ele>171.83333333333331</ele><time>2026-04-18T10:25:15.777Z</time></trkpt><trkpt lat="45.4567713" lon="11.2219835"><ele>170.0</ele><time>2026-04-18T10:25:17.777Z</time></trkpt><trkpt lat="45.4567242" lon="11.2218891"><ele>169.5</ele><time>2026-04-18T10:25:19.777Z</time></trkpt><trkpt lat="45.4566847" lon="11.2217934"><ele>169.0</ele><time>2026-04-18T10:25:21.777Z</time></trkpt><trkpt lat="45.4566501" lon="11.2216939"><ele>168.5</ele><time>2026-04-18T10:25:23.777Z</time></trkpt><trkpt lat="45.4566175" lon="11.2215822"><ele>168.0</ele><time>2026-04-18T10:25:25.777Z</time></trkpt><trkpt lat="45.4565749" lon="11.2214636"><ele>167.5</ele><time>2026-04-18T10:25:27.777Z</time></trkpt><trkpt lat="45.4565434" lon="11.221349"><ele>167.0</ele><time>2026-04-18T10:25:29.777Z</time></trkpt><trkpt lat="45.4565101" lon="11.2212401"><ele>165.0</ele><time>2026-04-18T10:25:31.778Z</time></trkpt><trkpt lat="45.4564664" lon="11.2211289"><ele>163.0</ele><time>2026-04-18T10:25:33.777Z</time></trkpt><trkpt lat="45.4564158" lon="11.2210218"><ele>161.0</ele><time>2026-04-18T10:25:35.777Z</time></trkpt><trkpt lat="45.4563628" lon="11.2209192"><ele>159.0</ele><time>2026-04-18T10:25:37.777Z</time></trkpt><trkpt lat="45.4563146" lon="11.2208132"><ele>157.0</ele><time>2026-04-18T10:25:39.777Z</time></trkpt><trkpt lat="45.4562541" lon="11.2207279"><ele>155.0</ele><time>2026-04-18T10:25:41.777Z</time></trkpt><trkpt lat="45.4562012" lon="11.2206571"><ele>151.0</ele><time>2026-04-18T10:25:43.777Z</time></trkpt><trkpt lat="45.4561415" lon="11.2205539"><ele>147.0</ele><time>2026-04-18T10:25:45.778Z</time></trkpt><trkpt lat="45.4560776" lon="11.2204634"><ele>143.0</ele><time>2026-04-18T10:25:47.777Z</time></trkpt><trkpt lat="45.4560028" lon="11.2204128"><ele>139.0</ele><time>2026-04-18T10:25:49.777Z</time></trkpt><trkpt lat="45.4559148" lon="11.220415"><ele>135.0</ele><time>2026-04-18T10:25:51.777Z</time></trkpt><trkpt lat="45.4558165" lon="11.2204488"><ele>135.0</ele><time>2026-04-18T10:25:53.777Z</time></trkpt><trkpt lat="45.4557183" lon="11.2204915"><ele>135.0</ele><time>2026-04-18T10:25:55.777Z</time></trkpt><trkpt lat="45.4556296" lon="11.2205337"><ele>135.0</ele><time>2026-04-18T10:25:57.777Z</time></trkpt><trkpt lat="45.455552" lon="11.2205872"><ele>135.0</ele><time>2026-04-18T10:25:59.777Z</time></trkpt><trkpt lat="45.4555019" lon="11.2206932"><ele>135.0</ele><time>2026-04-18T10:26:01.777Z</time></trkpt><trkpt lat="45.4554703" lon="11.2207796"><ele>135.0</ele><time>2026-04-18T10:26:03.777Z</time></trkpt><trkpt lat="45.4553987" lon="11.2208061"><ele>132.16666666666666</ele><time>2026-04-18T10:26:07.777Z</time></trkpt><trkpt lat="45.4553378" lon="11.2207556"><ele>129.33333333333334</ele><time>2026-04-18T10:26:18.777Z</time></trkpt><trkpt lat="45.4552907" lon="11.2206786"><ele>126.5</ele><time>2026-04-18T10:26:21.777Z</time></trkpt><trkpt lat="45.4552578" lon="11.2205594"><ele>123.66666666666667</ele><time>2026-04-18T10:26:24.777Z</time></trkpt><trkpt lat="45.4552058" lon="11.2204736"><ele>120.83333333333334</ele><time>2026-04-18T10:26:27.777Z</time></trkpt><trkpt lat="45.4551424" lon="11.2205456"><ele>118.0</ele><time>2026-04-18T10:26:31.777Z</time></trkpt><trkpt lat="45.4551138" lon="11.2206266"><ele>117.33333333333334</ele><time>2026-04-18T10:26:34.777Z</time></trkpt><trkpt lat="45.4550421" lon="11.2206174"><ele>116.66666666666667</ele><time>2026-04-18T10:26:38.777Z</time></trkpt><trkpt lat="45.454992" lon="11.2205412"><ele>116.0</ele><time>2026-04-18T10:26:41.777Z</time></trkpt><trkpt lat="45.4549378" lon="11.2204608"><ele>115.33333333333334</ele><time>2026-04-18T10:26:43.778Z</time></trkpt><trkpt lat="45.4548543" lon="11.2203659"><ele>114.66666666666667</ele><time>2026-04-18T10:26:45.777Z</time></trkpt><trkpt lat="45.4547786" lon="11.2202807"><ele>114.0</ele><time>2026-04-18T10:26:47.777Z</time></trkpt><trkpt lat="45.4547209" lon="11.2201633"><ele>114.0</ele><time>2026-04-18T10:26:49.777Z</time></trkpt><trkpt lat="45.4546755" lon="11.2200034"><ele>113.99999999999999</ele><time>2026-04-18T10:26:51.777Z</time></trkpt><trkpt lat="45.4546458" lon="11.2199215"><ele>114.0</ele><time>2026-04-18T10:26:52.777Z</time></trkpt><trkpt lat="45.4546108" lon="11.2198425"><ele>114.0</ele><time>2026-04-18T10:26:53.777Z</time></trkpt><trkpt lat="45.4545736" lon="11.2197636"><ele>113.99999999999999</ele><time>2026-04-18T10:26:54.777Z</time></trkpt><trkpt lat="45.4545388" lon="11.219688"><ele>114.0</ele><time>2026-04-18T10:26:55.778Z</time></trkpt><trkpt lat="45.4545063" lon="11.219609"><ele>114.0</ele><time>2026-04-18T10:26:56.777Z</time></trkpt><trkpt lat="45.4544775" lon="11.2195257"><ele>110.0</ele><time>2026-04-18T10:26:57.777Z</time></trkpt><trkpt lat="45.4544532" lon="11.2194355"><ele>106.0</ele><time>2026-04-18T10:26:58.777Z</time></trkpt><trkpt lat="45.454438" lon="11.2193396"><ele>102.0</ele><time>2026-04-18T10:26:59.777Z</time></trkpt><trkpt lat="45.4544208" lon="11.2192412"><ele>98.0</ele><time>2026-04-18T10:27:00.777Z</time></trkpt><trkpt lat="45.454404" lon="11.2191526"><ele>94.0</ele><time>2026-04-18T10:27:01.778Z</time></trkpt><trkpt lat="45.4543632" lon="11.219023"><ele>90.0</ele><time>2026-04-18T10:27:03.777Z</time></trkpt><trkpt lat="45.4543457" lon="11.2189019"><ele>88.4</ele><time>2026-04-18T10:27:05.777Z</time></trkpt><trkpt lat="45.4543551" lon="11.2187671"><ele>86.8</ele><time>2026-04-18T10:27:07.777Z</time></trkpt><trkpt lat="45.4543778" lon="11.2186234"><ele>85.19999999999999</ele><time>2026-04-18T10:27:09.777Z</time></trkpt><trkpt lat="45.4544064" lon="11.2184798"><ele>83.6</ele><time>2026-04-18T10:27:11.777Z</time></trkpt><trkpt lat="45.4544302" lon="11.2183337"><ele>82.0</ele><time>2026-04-18T10:27:13.777Z</time></trkpt><trkpt lat="45.4544348" lon="11.2181857"><ele>80.16666666666666</ele><time>2026-04-18T10:27:15.777Z</time></trkpt><trkpt lat="45.454429" lon="11.2180323"><ele>78.33333333333333</ele><time>2026-04-18T10:27:17.777Z</time></trkpt><trkpt lat="45.4544323" lon="11.2178533"><ele>76.5</ele><time>2026-04-18T10:27:19.777Z</time></trkpt><trkpt lat="45.4544451" lon="11.2177622"><ele>74.66666666666667</ele><time>2026-04-18T10:27:20.777Z</time></trkpt><trkpt lat="45.4544668" lon="11.2176744"><ele>72.83333333333334</ele><time>2026-04-18T10:27:21.777Z</time></trkpt><trkpt lat="45.4544899" lon="11.2175837"><ele>71.0</ele><time>2026-04-18T10:27:22.778Z</time></trkpt><trkpt lat="45.4545018" lon="11.2174854"><ele>71.0</ele><time>2026-04-18T10:27:23.777Z</time></trkpt><trkpt lat="45.4544963" lon="11.2173752"><ele>71.0</ele><time>2026-04-18T10:27:24.777Z</time></trkpt><trkpt lat="45.4544743" lon="11.2172655"><ele>71.0</ele><time>2026-04-18T10:27:25.777Z</time></trkpt><trkpt lat="45.4544467" lon="11.2171541"><ele>71.0</ele><time>2026-04-18T10:27:26.777Z</time></trkpt><trkpt lat="45.4544185" lon="11.2170478"><ele>71.0</ele><time>2026-04-18T10:27:27.777Z</time></trkpt><trkpt lat="45.4543875" lon="11.2169442"><ele>71.0</ele><time>2026-04-18T10:27:28.777Z</time></trkpt><trkpt lat="45.4543583" lon="11.2168524"><ele>70.33333333333334</ele><time>2026-04-18T10:27:29.777Z</time></trkpt><trkpt lat="45.4543272" lon="11.2167545"><ele>69.66666666666667</ele><time>2026-04-18T10:27:30.777Z</time></trkpt><trkpt lat="45.4542908" lon="11.216663"><ele>69.0</ele><time>2026-04-18T10:27:31.777Z</time></trkpt><trkpt lat="45.4542499" lon="11.2165703"><ele>68.33333333333333</ele><time>2026-04-18T10:27:32.777Z</time></trkpt><trkpt lat="45.4542029" lon="11.2164815"><ele>67.66666666666666</ele><time>2026-04-18T10:27:33.778Z</time></trkpt><trkpt lat="45.4541545" lon="11.2163944"><ele>67.0</ele><time>2026-04-18T10:27:34.777Z</time></trkpt><trkpt lat="45.4541084" lon="11.2163009"><ele>66.28571428571429</ele><time>2026-04-18T10:27:35.777Z</time></trkpt><trkpt lat="45.4540627" lon="11.2162094"><ele>65.57142857142857</ele><time>2026-04-18T10:27:36.777Z</time></trkpt><trkpt lat="45.4540168" lon="11.2161213"><ele>64.85714285714286</ele><time>2026-04-18T10:27:37.777Z</time></trkpt><trkpt lat="45.4539851" lon="11.2160347"><ele>64.14285714285714</ele><time>2026-04-18T10:27:38.777Z</time></trkpt><trkpt lat="45.4539613" lon="11.2159428"><ele>63.42857142857143</ele><time>2026-04-18T10:27:39.777Z</time></trkpt><trkpt lat="45.4539419" lon="11.2158548"><ele>62.714285714285715</ele><time>2026-04-18T10:27:40.777Z</time></trkpt><trkpt lat="45.4539201" lon="11.2157656"><ele>62.0</ele><time>2026-04-18T10:27:41.777Z</time></trkpt><trkpt lat="45.4538661" lon="11.2156017"><ele>61.50000000000001</ele><time>2026-04-18T10:27:43.777Z</time></trkpt><trkpt lat="45.4538307" lon="11.2155148"><ele>61.0</ele><time>2026-04-18T10:27:44.777Z</time></trkpt><trkpt lat="45.4537925" lon="11.2154277"><ele>60.5</ele><time>2026-04-18T10:27:45.777Z</time></trkpt><trkpt lat="45.4537441" lon="11.2153441"><ele>60.0</ele><time>2026-04-18T10:27:46.777Z</time></trkpt><trkpt lat="45.4536923" lon="11.215263"><ele>59.50000000000001</ele><time>2026-04-18T10:27:47.777Z</time></trkpt><trkpt lat="45.4536351" lon="11.2151851"><ele>59.0</ele><time>2026-04-18T10:27:48.777Z</time></trkpt><trkpt lat="45.4535684" lon="11.2150972"><ele>59.0</ele><time>2026-04-18T10:27:49.777Z</time></trkpt><trkpt lat="45.4534884" lon="11.215004"><ele>59.00000000000001</ele><time>2026-04-18T10:27:50.777Z</time></trkpt><trkpt lat="45.4534017" lon="11.2149417"><ele>59.00000000000001</ele><time>2026-04-18T10:27:51.777Z</time></trkpt><trkpt lat="45.4533206" lon="11.2148992"><ele>59.0</ele><time>2026-04-18T10:27:52.777Z</time></trkpt><trkpt lat="45.453245" lon="11.2148633"><ele>59.0</ele><time>2026-04-18T10:27:53.777Z</time></trkpt><trkpt lat="45.4531589" lon="11.2148109"><ele>58.833333333333336</ele><time>2026-04-18T10:27:55.777Z</time></trkpt><trkpt lat="45.4530733" lon="11.2147342"><ele>58.66666666666667</ele><time>2026-04-18T10:27:58.777Z</time></trkpt><trkpt lat="45.4530249" lon="11.2146672"><ele>58.5</ele><time>2026-04-18T10:27:59.778Z</time></trkpt><trkpt lat="45.4529631" lon="11.2145179"><ele>58.33333333333333</ele><time>2026-04-18T10:28:01.777Z</time></trkpt><trkpt lat="45.4529343" lon="11.2144301"><ele>58.166666666666664</ele><time>2026-04-18T10:28:02.777Z</time></trkpt><trkpt lat="45.4529029" lon="11.2143418"><ele>58.0</ele><time>2026-04-18T10:28:03.777Z</time></trkpt><trkpt lat="45.452876" lon="11.2142467"><ele>57.57142857142858</ele><time>2026-04-18T10:28:04.777Z</time></trkpt><trkpt lat="45.4528482" lon="11.2141483"><ele>57.142857142857146</ele><time>2026-04-18T10:28:05.777Z</time></trkpt><trkpt lat="45.452824" lon="11.214049"><ele>56.714285714285715</ele><time>2026-04-18T10:28:06.777Z</time></trkpt><trkpt lat="45.452803" lon="11.2139504"><ele>56.28571428571429</ele><time>2026-04-18T10:28:07.777Z</time></trkpt><trkpt lat="45.4527817" lon="11.2138517"><ele>55.85714285714286</ele><time>2026-04-18T10:28:08.777Z</time></trkpt><trkpt lat="45.4527555" lon="11.2137538"><ele>55.42857142857142</ele><time>2026-04-18T10:28:09.777Z</time></trkpt><trkpt lat="45.4527306" lon="11.213655"><ele>55.0</ele><time>2026-04-18T10:28:10.777Z</time></trkpt><trkpt lat="45.4527126" lon="11.2135605"><ele>54.99999999999999</ele><time>2026-04-18T10:28:11.777Z</time></trkpt><trkpt lat="45.4526942" lon="11.2134625"><ele>55.0</ele><time>2026-04-18T10:28:12.777Z</time></trkpt><trkpt lat="45.4526789" lon="11.2133672"><ele>55.0</ele><time>2026-04-18T10:28:13.777Z</time></trkpt><trkpt lat="45.452669" lon="11.2132703"><ele>55.0</ele><time>2026-04-18T10:28:14.778Z</time></trkpt><trkpt lat="45.4526591" lon="11.2131726"><ele>55.0</ele><time>2026-04-18T10:28:15.777Z</time></trkpt><trkpt lat="45.4526523" lon="11.2130787"><ele>54.99999999999999</ele><time>2026-04-18T10:28:16.777Z</time></trkpt><trkpt lat="45.4526455" lon="11.2129873"><ele>55.0</ele><time>2026-04-18T10:28:17.778Z</time></trkpt><trkpt lat="45.4526314" lon="11.2128903"><ele>55.33333333333333</ele><time>2026-04-18T10:28:18.777Z</time></trkpt><trkpt lat="45.4526142" lon="11.2128006"><ele>55.666666666666664</ele><time>2026-04-18T10:28:19.777Z</time></trkpt><trkpt lat="45.452589" lon="11.2127145"><ele>56.0</ele><time>2026-04-18T10:28:20.777Z</time></trkpt><trkpt lat="45.4525654" lon="11.2126285"><ele>56.33333333333333</ele><time>2026-04-18T10:28:21.777Z</time></trkpt><trkpt lat="45.4525389" lon="11.212545"><ele>56.666666666666664</ele><time>2026-04-18T10:28:22.777Z</time></trkpt><trkpt lat="45.4524873" lon="11.212385"><ele>57.0</ele><time>2026-04-18T10:28:24.777Z</time></trkpt><trkpt lat="45.452454" lon="11.2123014"><ele>57.166666666666664</ele><time>2026-04-18T10:28:25.777Z</time></trkpt><trkpt lat="45.452421" lon="11.2122162"><ele>57.33333333333333</ele><time>2026-04-18T10:28:26.777Z</time></trkpt><trkpt lat="45.4523828" lon="11.2121287"><ele>57.5</ele><time>2026-04-18T10:28:27.777Z</time></trkpt><trkpt lat="45.4523465" lon="11.2120374"><ele>57.666666666666664</ele><time>2026-04-18T10:28:28.777Z</time></trkpt><trkpt lat="45.4523063" lon="11.2119474"><ele>57.83333333333333</ele><time>2026-04-18T10:28:29.777Z</time></trkpt><trkpt lat="45.4522634" lon="11.2118539"><ele>58.0</ele><time>2026-04-18T10:28:30.777Z</time></trkpt><trkpt lat="45.4522127" lon="11.2117541"><ele>58.0</ele><time>2026-04-18T10:28:31.777Z</time></trkpt><trkpt lat="45.4521552" lon="11.2116595"><ele>58.0</ele><time>2026-04-18T10:28:32.777Z</time></trkpt><trkpt lat="45.4520835" lon="11.2115478"><ele>58.0</ele><time>2026-04-18T10:28:33.777Z</time></trkpt><trkpt lat="45.4520079" lon="11.2114366"><ele>58.0</ele><time>2026-04-18T10:28:34.777Z</time></trkpt><trkpt lat="45.4519354" lon="11.2113317"><ele>58.0</ele><time>2026-04-18T10:28:35.777Z</time></trkpt><trkpt lat="45.4518606" lon="11.2112168"><ele>58.2</ele><time>2026-04-18T10:28:36.777Z</time></trkpt><trkpt lat="45.4517924" lon="11.2110855"><ele>58.4</ele><time>2026-04-18T10:28:37.777Z</time></trkpt><trkpt lat="45.4517342" lon="11.2109571"><ele>58.60000000000001</ele><time>2026-04-18T10:28:38.777Z</time></trkpt><trkpt lat="45.4516877" lon="11.210837"><ele>58.800000000000004</ele><time>2026-04-18T10:28:39.777Z</time></trkpt><trkpt lat="45.4516473" lon="11.2107388"><ele>59.0</ele><time>2026-04-18T10:28:40.777Z</time></trkpt><trkpt lat="45.451604" lon="11.2106421"><ele>59.0</ele><time>2026-04-18T10:28:41.777Z</time></trkpt><trkpt lat="45.4515557" lon="11.2105053"><ele>59.0</ele><time>2026-04-18T10:28:42.777Z</time></trkpt><trkpt lat="45.451511" lon="11.2103351"><ele>59.0</ele><time>2026-04-18T10:28:43.777Z</time></trkpt><trkpt lat="45.4514759" lon="11.2101583"><ele>59.0</ele><time>2026-04-18T10:28:44.777Z</time></trkpt><trkpt lat="45.4514454" lon="11.2099786"><ele>58.400000000000006</ele><time>2026-04-18T10:28:45.777Z</time></trkpt><trkpt lat="45.4514137" lon="11.2098108"><ele>57.800000000000004</ele><time>2026-04-18T10:28:46.777Z</time></trkpt><trkpt lat="45.4513868" lon="11.2096503"><ele>57.199999999999996</ele><time>2026-04-18T10:28:47.777Z</time></trkpt><trkpt lat="45.4513613" lon="11.2095002"><ele>56.599999999999994</ele><time>2026-04-18T10:28:48.777Z</time></trkpt><trkpt lat="45.4513419" lon="11.2093561"><ele>56.0</ele><time>2026-04-18T10:28:49.777Z</time></trkpt><trkpt lat="45.4513331" lon="11.2092181"><ele>56.0</ele><time>2026-04-18T10:28:50.777Z</time></trkpt><trkpt lat="45.4513303" lon="11.2090851"><ele>55.99999999999999</ele><time>2026-04-18T10:28:51.777Z</time></trkpt><trkpt lat="45.4513308" lon="11.2089269"><ele>55.99999999999999</ele><time>2026-04-18T10:28:52.777Z</time></trkpt><trkpt lat="45.4513407" lon="11.2087628"><ele>56.0</ele><time>2026-04-18T10:28:53.777Z</time></trkpt><trkpt lat="45.4513554" lon="11.2086245"><ele>56.0</ele><time>2026-04-18T10:28:54.777Z</time></trkpt><trkpt lat="45.4513761" lon="11.2084945"><ele>55.833333333333336</ele><time>2026-04-18T10:28:55.777Z</time></trkpt><trkpt lat="45.4514054" lon="11.2083724"><ele>55.66666666666667</ele><time>2026-04-18T10:28:56.777Z</time></trkpt><trkpt lat="45.4514429" lon="11.208258"><ele>55.5</ele><time>2026-04-18T10:28:57.777Z</time></trkpt><trkpt lat="45.4514862" lon="11.2081548"><ele>55.33333333333333</ele><time>2026-04-18T10:28:58.777Z</time></trkpt><trkpt lat="45.4515184" lon="11.2080466"><ele>55.166666666666664</ele><time>2026-04-18T10:28:59.777Z</time></trkpt><trkpt lat="45.4515399" lon="11.2079494"><ele>55.0</ele><time>2026-04-18T10:29:00.777Z</time></trkpt><trkpt lat="45.4515471" lon="11.2078583"><ele>56.166666666666664</ele><time>2026-04-18T10:29:01.777Z</time></trkpt><trkpt lat="45.4515471" lon="11.2077079"><ele>57.33333333333333</ele><time>2026-04-18T10:29:03.778Z</time></trkpt><trkpt lat="45.4515492" lon="11.2075947"><ele>58.5</ele><time>2026-04-18T10:29:05.777Z</time></trkpt><trkpt lat="45.4515401" lon="11.2075055"><ele>59.66666666666667</ele><time>2026-04-18T10:29:08.777Z</time></trkpt><trkpt lat="45.4515288" lon="11.207377"><ele>60.833333333333336</ele><time>2026-04-18T10:29:11.777Z</time></trkpt><trkpt lat="45.4514747" lon="11.2072984"><ele>62.0</ele><time>2026-04-18T10:29:13.777Z</time></trkpt><trkpt lat="45.4513832" lon="11.2072455"><ele>63.8</ele><time>2026-04-18T10:29:15.777Z</time></trkpt><trkpt lat="45.451287" lon="11.2072224"><ele>65.6</ele><time>2026-04-18T10:29:17.777Z</time></trkpt><trkpt lat="45.4511931" lon="11.207191"><ele>67.39999999999999</ele><time>2026-04-18T10:29:19.777Z</time></trkpt><trkpt lat="45.4510784" lon="11.2071021"><ele>69.2</ele><time>2026-04-18T10:29:21.777Z</time></trkpt><trkpt lat="45.4509914" lon="11.2069994"><ele>71.0</ele><time>2026-04-18T10:29:23.777Z</time></trkpt><trkpt lat="45.450931" lon="11.2069004"><ele>71.0</ele><time>2026-04-18T10:29:25.777Z</time></trkpt><trkpt lat="45.4509171" lon="11.206805"><ele>71.0</ele><time>2026-04-18T10:29:27.778Z</time></trkpt><trkpt lat="45.4508731" lon="11.2067197"><ele>71.0</ele><time>2026-04-18T10:29:37.777Z</time></trkpt><trkpt lat="45.4507849" lon="11.2066712"><ele>71.0</ele><time>2026-04-18T10:29:40.777Z</time></trkpt><trkpt lat="45.4507259" lon="11.2065577"><ele>71.0</ele><time>2026-04-18T10:29:42.777Z</time></trkpt><trkpt lat="45.4506682" lon="11.2064387"><ele>71.0</ele><time>2026-04-18T10:29:44.777Z</time></trkpt><trkpt lat="45.4506155" lon="11.2063378"><ele>70.66666666666667</ele><time>2026-04-18T10:29:46.777Z</time></trkpt><trkpt lat="45.4505599" lon="11.2062351"><ele>70.33333333333334</ele><time>2026-04-18T10:29:48.777Z</time></trkpt><trkpt lat="45.4505" lon="11.206146"><ele>70.0</ele><time>2026-04-18T10:29:50.777Z</time></trkpt><trkpt lat="45.4504343" lon="11.2060692"><ele>69.66666666666667</ele><time>2026-04-18T10:29:52.777Z</time></trkpt><trkpt lat="45.4503727" lon="11.206021"><ele>69.33333333333333</ele><time>2026-04-18T10:29:54.777Z</time></trkpt><trkpt lat="45.4503047" lon="11.2060432"><ele>69.0</ele><time>2026-04-18T10:29:57.777Z</time></trkpt><trkpt lat="45.4502453" lon="11.2060943"><ele>69.0</ele><time>2026-04-18T10:30:01.777Z</time></trkpt><trkpt lat="45.4502923" lon="11.2060322"><ele>69.0</ele><time>2026-04-18T10:30:12.777Z</time></trkpt><trkpt lat="45.4503708" lon="11.2060301"><ele>69.0</ele><time>2026-04-18T10:30:15.777Z</time></trkpt><trkpt lat="45.4504272" lon="11.2060797"><ele>69.0</ele><time>2026-04-18T10:30:17.777Z</time></trkpt><trkpt lat="45.4505178" lon="11.2061955"><ele>69.0</ele><time>2026-04-18T10:30:19.778Z</time></trkpt><trkpt lat="45.4505613" lon="11.2062695"><ele>69.0</ele><time>2026-04-18T10:30:20.777Z</time></trkpt><trkpt lat="45.4506038" lon="11.206352"><ele>69.33333333333333</ele><time>2026-04-18T10:30:21.777Z</time></trkpt><trkpt lat="45.4506442" lon="11.2064354"><ele>69.66666666666667</ele><time>2026-04-18T10:30:22.777Z</time></trkpt><trkpt lat="45.4506867" lon="11.2065222"><ele>70.0</ele><time>2026-04-18T10:30:23.777Z</time></trkpt><trkpt lat="45.4507553" lon="11.2066465"><ele>70.33333333333334</ele><time>2026-04-18T10:30:25.777Z</time></trkpt><trkpt lat="45.4508286" lon="11.2067222"><ele>70.66666666666667</ele><time>2026-04-18T10:30:27.778Z</time></trkpt><trkpt lat="45.4508939" lon="11.2067473"><ele>71.0</ele><time>2026-04-18T10:30:47.777Z</time></trkpt><trkpt lat="45.4509598" lon="11.2067608"><ele>71.0</ele><time>2026-04-18T10:30:49.777Z</time></trkpt><trkpt lat="45.4510254" lon="11.2067498"><ele>71.0</ele><time>2026-04-18T10:30:51.777Z</time></trkpt><trkpt lat="45.4511154" lon="11.2067463"><ele>71.0</ele><time>2026-04-18T10:30:53.777Z</time></trkpt><trkpt lat="45.4511921" lon="11.206726"><ele>71.0</ele><time>2026-04-18T10:30:56.777Z</time></trkpt><trkpt lat="45.4512574" lon="11.2066972"><ele>71.0</ele><time>2026-04-18T10:30:58.777Z</time></trkpt><trkpt lat="45.4513436" lon="11.2066574"><ele>71.0</ele><time>2026-04-18T10:31:01.777Z</time></trkpt><trkpt lat="45.4514117" lon="11.2066313"><ele>72.6</ele><time>2026-04-18T10:31:03.777Z</time></trkpt><trkpt lat="45.451473" lon="11.2066049"><ele>74.19999999999999</ele><time>2026-04-18T10:31:17.777Z</time></trkpt><trkpt lat="45.4515644" lon="11.2065447"><ele>75.80000000000001</ele><time>2026-04-18T10:31:19.777Z</time></trkpt><trkpt lat="45.4516679" lon="11.2064466"><ele>77.4</ele><time>2026-04-18T10:31:21.777Z</time></trkpt><trkpt lat="45.4517504" lon="11.2063179"><ele>79.0</ele><time>2026-04-18T10:31:23.777Z</time></trkpt><trkpt lat="45.4517843" lon="11.2062177"><ele>80.66666666666666</ele><time>2026-04-18T10:31:24.777Z</time></trkpt><trkpt lat="45.4518055" lon="11.2061156"><ele>82.33333333333333</ele><time>2026-04-18T10:31:25.777Z</time></trkpt><trkpt lat="45.4518153" lon="11.2060118"><ele>84.0</ele><time>2026-04-18T10:31:26.777Z</time></trkpt><trkpt lat="45.4518127" lon="11.2059075"><ele>85.66666666666667</ele><time>2026-04-18T10:31:27.777Z</time></trkpt><trkpt lat="45.4518018" lon="11.2058102"><ele>87.33333333333334</ele><time>2026-04-18T10:31:28.777Z</time></trkpt><trkpt lat="45.4517791" lon="11.2057227"><ele>89.0</ele><time>2026-04-18T10:31:29.777Z</time></trkpt><trkpt lat="45.4517296" lon="11.2055541"><ele>90.4</ele><time>2026-04-18T10:31:31.777Z</time></trkpt><trkpt lat="45.4516966" lon="11.2054492"><ele>91.80000000000001</ele><time>2026-04-18T10:31:32.777Z</time></trkpt><trkpt lat="45.4516576" lon="11.2053207"><ele>93.19999999999999</ele><time>2026-04-18T10:31:33.777Z</time></trkpt><trkpt lat="45.4516111" lon="11.2051724"><ele>94.6</ele><time>2026-04-18T10:31:34.777Z</time></trkpt><trkpt lat="45.4515557" lon="11.2050153"><ele>96.0</ele><time>2026-04-18T10:31:35.777Z</time></trkpt><trkpt lat="45.4515045" lon="11.2048661"><ele>96.19999999999999</ele><time>2026-04-18T10:31:36.777Z</time></trkpt><trkpt lat="45.4514486" lon="11.2047271"><ele>96.39999999999999</ele><time>2026-04-18T10:31:37.777Z</time></trkpt><trkpt lat="45.451389" lon="11.2045834"><ele>96.6</ele><time>2026-04-18T10:31:38.777Z</time></trkpt><trkpt lat="45.4513239" lon="11.2044438"><ele>96.8</ele><time>2026-04-18T10:31:39.777Z</time></trkpt><trkpt lat="45.4512695" lon="11.2043282"><ele>97.0</ele><time>2026-04-18T10:31:40.777Z</time></trkpt><trkpt lat="45.4512223" lon="11.2042269"><ele>100.39999999999999</ele><time>2026-04-18T10:31:41.777Z</time></trkpt><trkpt lat="45.4511815" lon="11.2041297"><ele>103.8</ele><time>2026-04-18T10:31:42.777Z</time></trkpt><trkpt lat="45.4511317" lon="11.20401"><ele>107.2</ele><time>2026-04-18T10:31:43.777Z</time></trkpt><trkpt lat="45.4510715" lon="11.2038724"><ele>110.6</ele><time>2026-04-18T10:31:44.777Z</time></trkpt><trkpt lat="45.4510105" lon="11.2037275"><ele>114.0</ele><time>2026-04-18T10:31:45.777Z</time></trkpt><trkpt lat="45.4509464" lon="11.203576"><ele>115.5</ele><time>2026-04-18T10:31:46.777Z</time></trkpt><trkpt lat="45.4508891" lon="11.2034286"><ele>117.0</ele><time>2026-04-18T10:31:47.777Z</time></trkpt><trkpt lat="45.4508318" lon="11.2032856"><ele>118.5</ele><time>2026-04-18T10:31:48.777Z</time></trkpt><trkpt lat="45.4507626" lon="11.203124"><ele>120.0</ele><time>2026-04-18T10:31:49.777Z</time></trkpt><trkpt lat="45.4506892" lon="11.2029712"><ele>120.0</ele><time>2026-04-18T10:31:50.777Z</time></trkpt><trkpt lat="45.4506286" lon="11.2028462"><ele>120.0</ele><time>2026-04-18T10:31:51.777Z</time></trkpt><trkpt lat="45.4505774" lon="11.2027355"><ele>120.0</ele><time>2026-04-18T10:31:52.777Z</time></trkpt><trkpt lat="45.4505331" lon="11.2026356"><ele>120.0</ele><time>2026-04-18T10:31:53.777Z</time></trkpt><trkpt lat="45.4504935" lon="11.2025454"><ele>120.0</ele><time>2026-04-18T10:31:54.777Z</time></trkpt><trkpt lat="45.4504559" lon="11.2024472"><ele>120.0</ele><time>2026-04-18T10:31:55.777Z</time></trkpt><trkpt lat="45.4504244" lon="11.2023547"><ele>121.66666666666667</ele><time>2026-04-18T10:31:56.777Z</time></trkpt><trkpt lat="45.4503992" lon="11.2022704"><ele>123.33333333333334</ele><time>2026-04-18T10:31:57.777Z</time></trkpt><trkpt lat="45.4503752" lon="11.2021806"><ele>125.0</ele><time>2026-04-18T10:31:58.777Z</time></trkpt><trkpt lat="45.4503473" lon="11.2020733"><ele>126.66666666666667</ele><time>2026-04-18T10:31:59.777Z</time></trkpt><trkpt lat="45.4503228" lon="11.201957"><ele>128.33333333333334</ele><time>2026-04-18T10:32:00.777Z</time></trkpt><trkpt lat="45.4503055" lon="11.2018222"><ele>130.0</ele><time>2026-04-18T10:32:01.777Z</time></trkpt><trkpt lat="45.4502925" lon="11.2017056"><ele>130.0</ele><time>2026-04-18T10:32:02.777Z</time></trkpt><trkpt lat="45.4502761" lon="11.2015788"><ele>130.0</ele><time>2026-04-18T10:32:03.777Z</time></trkpt><trkpt lat="45.4502697" lon="11.2014477"><ele>130.0</ele><time>2026-04-18T10:32:04.777Z</time></trkpt><trkpt lat="45.4502691" lon="11.2013156"><ele>130.0</ele><time>2026-04-18T10:32:05.777Z</time></trkpt><trkpt lat="45.4502728" lon="11.201192"><ele>130.0</ele><time>2026-04-18T10:32:06.777Z</time></trkpt><trkpt lat="45.45028" lon="11.2010524"><ele>132.0</ele><time>2026-04-18T10:32:07.777Z</time></trkpt><trkpt lat="45.4502975" lon="11.2009136"><ele>134.0</ele><time>2026-04-18T10:32:08.777Z</time></trkpt><trkpt lat="45.4503181" lon="11.2007671"><ele>136.0</ele><time>2026-04-18T10:32:09.778Z</time></trkpt><trkpt lat="45.4503469" lon="11.2006316"><ele>138.0</ele><time>2026-04-18T10:32:10.777Z</time></trkpt><trkpt lat="45.4503766" lon="11.2004921"><ele>140.0</ele><time>2026-04-18T10:32:11.777Z</time></trkpt><trkpt lat="45.4504076" lon="11.2003605"><ele>140.8</ele><time>2026-04-18T10:32:12.777Z</time></trkpt><trkpt lat="45.4504415" lon="11.2002109"><ele>141.6</ele><time>2026-04-18T10:32:13.777Z</time></trkpt><trkpt lat="45.4504858" lon="11.200068"><ele>142.4</ele><time>2026-04-18T10:32:14.777Z</time></trkpt><trkpt lat="45.450522" lon="11.1999457"><ele>143.2</ele><time>2026-04-18T10:32:15.777Z</time></trkpt><trkpt lat="45.4505587" lon="11.199833"><ele>144.0</ele><time>2026-04-18T10:32:16.777Z</time></trkpt><trkpt lat="45.4505914" lon="11.1997232"><ele>147.0</ele><time>2026-04-18T10:32:17.777Z</time></trkpt><trkpt lat="45.4506275" lon="11.1996064"><ele>150.0</ele><time>2026-04-18T10:32:18.777Z</time></trkpt><trkpt lat="45.4506692" lon="11.1994966"><ele>153.0</ele><time>2026-04-18T10:32:19.777Z</time></trkpt><trkpt lat="45.4507036" lon="11.1993933"><ele>156.0</ele><time>2026-04-18T10:32:20.777Z</time></trkpt><trkpt lat="45.450747" lon="11.1992972"><ele>159.0</ele><time>2026-04-18T10:32:21.777Z</time></trkpt><trkpt lat="45.4507933" lon="11.1991882"><ele>162.0</ele><time>2026-04-18T10:32:22.777Z</time></trkpt><trkpt lat="45.4508422" lon="11.1990928"><ele>162.0</ele><time>2026-04-18T10:32:23.777Z</time></trkpt><trkpt lat="45.4508876" lon="11.1990034"><ele>162.0</ele><time>2026-04-18T10:32:24.777Z</time></trkpt><trkpt lat="45.4509347" lon="11.1989148"><ele>162.0</ele><time>2026-04-18T10:32:25.777Z</time></trkpt><trkpt lat="45.4509767" lon="11.1988202"><ele>162.0</ele><time>2026-04-18T10:32:26.777Z</time></trkpt><trkpt lat="45.4510281" lon="11.1987382"><ele>162.0</ele><time>2026-04-18T10:32:27.777Z</time></trkpt><trkpt lat="45.4510764" lon="11.1986418"><ele>162.0</ele><time>2026-04-18T10:32:28.777Z</time></trkpt><trkpt lat="45.4511298" lon="11.1985469"><ele>165.5</ele><time>2026-04-18T10:32:29.777Z</time></trkpt><trkpt lat="45.4511692" lon="11.198461"><ele>169.0</ele><time>2026-04-18T10:32:30.777Z</time></trkpt><trkpt lat="45.451212" lon="11.1983696"><ele>172.5</ele><time>2026-04-18T10:32:31.777Z</time></trkpt><trkpt lat="45.4512601" lon="11.1982584"><ele>176.0</ele><time>2026-04-18T10:32:32.777Z</time></trkpt><trkpt lat="45.4513081" lon="11.1981534"><ele>179.5</ele><time>2026-04-18T10:32:33.777Z</time></trkpt><trkpt lat="45.451349" lon="11.1980574"><ele>183.0</ele><time>2026-04-18T10:32:34.777Z</time></trkpt><trkpt lat="45.4513959" lon="11.1979551"><ele>184.83333333333334</ele><time>2026-04-18T10:32:35.777Z</time></trkpt><trkpt lat="45.4514389" lon="11.1978584"><ele>186.66666666666669</ele><time>2026-04-18T10:32:36.777Z</time></trkpt><trkpt lat="45.4514796" lon="11.1977615"><ele>188.5</ele><time>2026-04-18T10:32:37.777Z</time></trkpt><trkpt lat="45.4515233" lon="11.1976664"><ele>190.33333333333334</ele><time>2026-04-18T10:32:38.777Z</time></trkpt><trkpt lat="45.451583" lon="11.1975496"><ele>192.16666666666669</ele><time>2026-04-18T10:32:40.778Z</time></trkpt><trkpt lat="45.451609" lon="11.197439"><ele>194.0</ele><time>2026-04-18T10:32:44.777Z</time></trkpt><trkpt lat="45.4515402" lon="11.1973844"><ele>194.0</ele><time>2026-04-18T10:32:48.777Z</time></trkpt><trkpt lat="45.4514862" lon="11.1974552"><ele>194.0</ele><time>2026-04-18T10:32:51.777Z</time></trkpt><trkpt lat="45.4514038" lon="11.1974981"><ele>194.0</ele><time>2026-04-18T10:33:45.777Z</time></trkpt><trkpt lat="45.4513176" lon="11.197587"><ele>194.0</ele><time>2026-04-18T10:33:47.777Z</time></trkpt><trkpt lat="45.4512391" lon="11.1976698"><ele>194.0</ele><time>2026-04-18T10:33:48.777Z</time></trkpt><trkpt lat="45.4511588" lon="11.1977424"><ele>195.66666666666669</ele><time>2026-04-18T10:33:49.777Z</time></trkpt><trkpt lat="45.4510997" lon="11.1977929"><ele>197.33333333333334</ele><time>2026-04-18T10:33:50.777Z</time></trkpt><trkpt lat="45.4510342" lon="11.1978428"><ele>199.0</ele><time>2026-04-18T10:33:51.777Z</time></trkpt><trkpt lat="45.4509424" lon="11.1979032"><ele>200.66666666666669</ele><time>2026-04-18T10:33:53.777Z</time></trkpt><trkpt lat="45.4508798" lon="11.1978845"><ele>202.33333333333334</ele><time>2026-04-18T10:33:55.777Z</time></trkpt><trkpt lat="45.4508829" lon="11.1977738"><ele>204.0</ele><time>2026-04-18T10:33:58.777Z</time></trkpt><trkpt lat="45.4509724" lon="11.1976806"><ele>204.0</ele><time>2026-04-18T10:34:00.777Z</time></trkpt><trkpt lat="45.451055" lon="11.1975797"><ele>204.0</ele><time>2026-04-18T10:34:02.777Z</time></trkpt><trkpt lat="45.4511042" lon="11.1975033"><ele>204.0</ele><time>2026-04-18T10:34:03.777Z</time></trkpt><trkpt lat="45.45117" lon="11.1974103"><ele>204.0</ele><time>2026-04-18T10:34:04.777Z</time></trkpt><trkpt lat="45.4512303" lon="11.1973337"><ele>204.0</ele><time>2026-04-18T10:34:05.777Z</time></trkpt><trkpt lat="45.4512848" lon="11.1972535"><ele>204.0</ele><time>2026-04-18T10:34:06.777Z</time></trkpt><trkpt lat="45.4513433" lon="11.1971621"><ele>205.0</ele><time>2026-04-18T10:34:07.777Z</time></trkpt><trkpt lat="45.4513957" lon="11.1970909"><ele>206.0</ele><time>2026-04-18T10:34:08.778Z</time></trkpt><trkpt lat="45.451463" lon="11.1969933"><ele>207.0</ele><time>2026-04-18T10:34:10.777Z</time></trkpt><trkpt lat="45.4515517" lon="11.1969276"><ele>208.0</ele><time>2026-04-18T10:34:12.777Z</time></trkpt><trkpt lat="45.4516187" lon="11.1969189"><ele>209.0</ele><time>2026-04-18T10:34:13.777Z</time></trkpt><trkpt lat="45.4516893" lon="11.1969241"><ele>210.0</ele><time>2026-04-18T10:34:14.777Z</time></trkpt><trkpt lat="45.451773" lon="11.1969324"><ele>210.0</ele><time>2026-04-18T10:34:15.777Z</time></trkpt><trkpt lat="45.4518507" lon="11.196932"><ele>210.0</ele><time>2026-04-18T10:34:16.777Z</time></trkpt><trkpt lat="45.4519243" lon="11.1969341"><ele>210.0</ele><time>2026-04-18T10:34:17.777Z</time></trkpt><trkpt lat="45.4519895" lon="11.1969259"><ele>210.0</ele><time>2026-04-18T10:34:18.777Z</time></trkpt><trkpt lat="45.4520652" lon="11.1968991"><ele>210.0</ele><time>2026-04-18T10:34:19.777Z</time></trkpt><trkpt lat="45.4521416" lon="11.1968456"><ele>210.0</ele><time>2026-04-18T10:34:20.777Z</time></trkpt><trkpt lat="45.4522289" lon="11.1967724"><ele>210.2</ele><time>2026-04-18T10:34:21.777Z</time></trkpt><trkpt lat="45.4523023" lon="11.1967008"><ele>210.4</ele><time>2026-04-18T10:34:22.777Z</time></trkpt><trkpt lat="45.452374" lon="11.1966311"><ele>210.60000000000002</ele><time>2026-04-18T10:34:23.777Z</time></trkpt><trkpt lat="45.4524604" lon="11.1965614"><ele>210.8</ele><time>2026-04-18T10:34:24.777Z</time></trkpt><trkpt lat="45.4525729" lon="11.196491"><ele>211.0</ele><time>2026-04-18T10:34:25.777Z</time></trkpt><trkpt lat="45.4526818" lon="11.1964187"><ele>213.0</ele><time>2026-04-18T10:34:26.777Z</time></trkpt><trkpt lat="45.4527923" lon="11.1963451"><ele>215.0</ele><time>2026-04-18T10:34:27.777Z</time></trkpt><trkpt lat="45.4529049" lon="11.1962634"><ele>217.0</ele><time>2026-04-18T10:34:28.777Z</time></trkpt><trkpt lat="45.4530307" lon="11.1961717"><ele>219.0</ele><time>2026-04-18T10:34:29.777Z</time></trkpt><trkpt lat="45.4531368" lon="11.1960927"><ele>219.2</ele><time>2026-04-18T10:34:30.777Z</time></trkpt><trkpt lat="45.4532295" lon="11.1960135"><ele>219.39999999999998</ele><time>2026-04-18T10:34:31.777Z</time></trkpt><trkpt lat="45.4533098" lon="11.1959453"><ele>219.6</ele><time>2026-04-18T10:34:32.777Z</time></trkpt><trkpt lat="45.4533878" lon="11.195874"><ele>219.8</ele><time>2026-04-18T10:34:33.777Z</time></trkpt><trkpt lat="45.4534688" lon="11.1958058"><ele>220.0</ele><time>2026-04-18T10:34:34.777Z</time></trkpt><trkpt lat="45.4535477" lon="11.1957367"><ele>219.99999999999997</ele><time>2026-04-18T10:34:35.777Z</time></trkpt><trkpt lat="45.4536163" lon="11.1956776"><ele>220.0</ele><time>2026-04-18T10:34:36.777Z</time></trkpt><trkpt lat="45.4536783" lon="11.1956261"><ele>220.0</ele><time>2026-04-18T10:34:37.777Z</time></trkpt><trkpt lat="45.4537298" lon="11.1955725"><ele>220.0</ele><time>2026-04-18T10:34:38.777Z</time></trkpt><trkpt lat="45.4537838" lon="11.1955116"><ele>220.0</ele><time>2026-04-18T10:34:39.777Z</time></trkpt><trkpt lat="45.4538313" lon="11.1954418"><ele>219.99999999999997</ele><time>2026-04-18T10:34:40.777Z</time></trkpt><trkpt lat="45.4538771" lon="11.1953527"><ele>220.0</ele><time>2026-04-18T10:34:42.777Z</time></trkpt><trkpt lat="45.4538196" lon="11.1953018"><ele>221.5</ele><time>2026-04-18T10:34:45.777Z</time></trkpt><trkpt lat="45.4536703" lon="11.1952893"><ele>223.0</ele><time>2026-04-18T10:34:47.777Z</time></trkpt><trkpt lat="45.4535606" lon="11.195283"><ele>224.5</ele><time>2026-04-18T10:34:48.777Z</time></trkpt><trkpt lat="45.4534652" lon="11.195278"><ele>226.0</ele><time>2026-04-18T10:34:49.777Z</time></trkpt><trkpt lat="45.4533487" lon="11.1952788"><ele>226.0</ele><time>2026-04-18T10:34:50.777Z</time></trkpt><trkpt lat="45.4532194" lon="11.195284"><ele>226.0</ele><time>2026-04-18T10:34:51.777Z</time></trkpt><trkpt lat="45.453086" lon="11.1952875"><ele>226.0</ele><time>2026-04-18T10:34:52.777Z</time></trkpt><trkpt lat="45.452958" lon="11.1953051"><ele>226.0</ele><time>2026-04-18T10:34:53.777Z</time></trkpt><trkpt lat="45.4528415" lon="11.1953245"><ele>226.0</ele><time>2026-04-18T10:34:54.778Z</time></trkpt><trkpt lat="45.4527194" lon="11.1953524"><ele>226.0</ele><time>2026-04-18T10:34:55.777Z</time></trkpt><trkpt lat="45.4526001" lon="11.1953879"><ele>226.0</ele><time>2026-04-18T10:34:56.777Z</time></trkpt><trkpt lat="45.4524946" lon="11.195421"><ele>226.0</ele><time>2026-04-18T10:34:57.777Z</time></trkpt><trkpt lat="45.4523977" lon="11.1954505"><ele>225.99999999999997</ele><time>2026-04-18T10:34:58.777Z</time></trkpt><trkpt lat="45.4523023" lon="11.195474"><ele>226.0</ele><time>2026-04-18T10:34:59.777Z</time></trkpt><trkpt lat="45.4522147" lon="11.1955014"><ele>226.0</ele><time>2026-04-18T10:35:00.778Z</time></trkpt><trkpt lat="45.4521312" lon="11.1955288"><ele>226.0</ele><time>2026-04-18T10:35:01.777Z</time></trkpt><trkpt lat="45.4520483" lon="11.1955601"><ele>225.99999999999997</ele><time>2026-04-18T10:35:02.777Z</time></trkpt><trkpt lat="45.4519589" lon="11.1955869"><ele>226.0</ele><time>2026-04-18T10:35:03.777Z</time></trkpt><trkpt lat="45.4518693" lon="11.1956047"><ele>226.8</ele><time>2026-04-18T10:35:04.777Z</time></trkpt><trkpt lat="45.451785" lon="11.1956129"><ele>227.60000000000002</ele><time>2026-04-18T10:35:05.777Z</time></trkpt><trkpt lat="45.4516909" lon="11.1956221"><ele>228.4</ele><time>2026-04-18T10:35:06.777Z</time></trkpt><trkpt lat="45.4515812" lon="11.1956255"><ele>229.2</ele><time>2026-04-18T10:35:07.777Z</time></trkpt><trkpt lat="45.4514615" lon="11.1956272"><ele>230.0</ele><time>2026-04-18T10:35:08.777Z</time></trkpt><trkpt lat="45.4513504" lon="11.1956234"><ele>229.75</ele><time>2026-04-18T10:35:09.777Z</time></trkpt><trkpt lat="45.4512328" lon="11.195617"><ele>229.5</ele><time>2026-04-18T10:35:10.777Z</time></trkpt><trkpt lat="45.4511069" lon="11.1956149"><ele>229.25</ele><time>2026-04-18T10:35:11.777Z</time></trkpt><trkpt lat="45.4509887" lon="11.1956285"><ele>229.0</ele><time>2026-04-18T10:35:12.777Z</time></trkpt><trkpt lat="45.4508739" lon="11.1956381"><ele>228.99999999999997</ele><time>2026-04-18T10:35:13.777Z</time></trkpt><trkpt lat="45.4507805" lon="11.195651"><ele>229.0</ele><time>2026-04-18T10:35:14.777Z</time></trkpt><trkpt lat="45.4506987" lon="11.1956644"><ele>229.0</ele><time>2026-04-18T10:35:15.777Z</time></trkpt><trkpt lat="45.450626" lon="11.1956702"><ele>229.0</ele><time>2026-04-18T10:35:16.777Z</time></trkpt><trkpt lat="45.4505597" lon="11.1956785"><ele>228.99999999999997</ele><time>2026-04-18T10:35:17.777Z</time></trkpt><trkpt lat="45.4504918" lon="11.195685"><ele>229.0</ele><time>2026-04-18T10:35:18.777Z</time></trkpt><trkpt lat="45.4504209" lon="11.195687"><ele>229.2</ele><time>2026-04-18T10:35:19.777Z</time></trkpt><trkpt lat="45.4503431" lon="11.1956994"><ele>229.39999999999998</ele><time>2026-04-18T10:35:20.777Z</time></trkpt><trkpt lat="45.4502531" lon="11.1957281"><ele>229.6</ele><time>2026-04-18T10:35:21.778Z</time></trkpt><trkpt lat="45.4501535" lon="11.1957738"><ele>229.8</ele><time>2026-04-18T10:35:22.777Z</time></trkpt><trkpt lat="45.4500671" lon="11.1958118"><ele>230.0</ele><time>2026-04-18T10:35:23.777Z</time></trkpt><trkpt lat="45.4499873" lon="11.19585"><ele>230.00000000000003</ele><time>2026-04-18T10:35:24.777Z</time></trkpt><trkpt lat="45.4499081" lon="11.1958852"><ele>230.0</ele><time>2026-04-18T10:35:25.777Z</time></trkpt><trkpt lat="45.449836" lon="11.1959189"><ele>230.0</ele><time>2026-04-18T10:35:26.777Z</time></trkpt><trkpt lat="45.4497684" lon="11.1959513"><ele>230.0</ele><time>2026-04-18T10:35:27.777Z</time></trkpt><trkpt lat="45.449697" lon="11.1959831"><ele>230.00000000000003</ele><time>2026-04-18T10:35:28.777Z</time></trkpt><trkpt lat="45.4496129" lon="11.1960207"><ele>230.0</ele><time>2026-04-18T10:35:29.777Z</time></trkpt><trkpt lat="45.4495338" lon="11.1960485"><ele>229.16666666666669</ele><time>2026-04-18T10:35:30.777Z</time></trkpt><trkpt lat="45.4494621" lon="11.1960749"><ele>228.33333333333334</ele><time>2026-04-18T10:35:31.777Z</time></trkpt><trkpt lat="45.4493894" lon="11.1960924"><ele>227.5</ele><time>2026-04-18T10:35:32.777Z</time></trkpt><trkpt lat="45.4493024" lon="11.1961162"><ele>226.66666666666669</ele><time>2026-04-18T10:35:33.777Z</time></trkpt><trkpt lat="45.4492133" lon="11.1961283"><ele>225.83333333333334</ele><time>2026-04-18T10:35:34.778Z</time></trkpt><trkpt lat="45.4491073" lon="11.1961387"><ele>225.0</ele><time>2026-04-18T10:35:35.777Z</time></trkpt><trkpt lat="45.4489983" lon="11.1961377"><ele>225.0</ele><time>2026-04-18T10:35:36.777Z</time></trkpt><trkpt lat="45.4488929" lon="11.1961312"><ele>225.0</ele><time>2026-04-18T10:35:37.777Z</time></trkpt><trkpt lat="45.4487938" lon="11.1961306"><ele>225.0</ele><time>2026-04-18T10:35:38.777Z</time></trkpt><trkpt lat="45.4487022" lon="11.196142"><ele>225.0</ele><time>2026-04-18T10:35:39.777Z</time></trkpt><trkpt lat="45.4486109" lon="11.1961516"><ele>225.0</ele><time>2026-04-18T10:35:40.777Z</time></trkpt><trkpt lat="45.4485215" lon="11.1961554"><ele>223.8</ele><time>2026-04-18T10:35:41.777Z</time></trkpt><trkpt lat="45.4484304" lon="11.196157"><ele>222.6</ele><time>2026-04-18T10:35:42.777Z</time></trkpt><trkpt lat="45.4483436" lon="11.1961578"><ele>221.39999999999998</ele><time>2026-04-18T10:35:43.777Z</time></trkpt><trkpt lat="45.448246" lon="11.1961566"><ele>220.2</ele><time>2026-04-18T10:35:44.777Z</time></trkpt><trkpt lat="45.448147" lon="11.1961571"><ele>219.0</ele><time>2026-04-18T10:35:45.777Z</time></trkpt><trkpt lat="45.4480599" lon="11.196161"><ele>219.0</ele><time>2026-04-18T10:35:46.777Z</time></trkpt><trkpt lat="45.4479915" lon="11.1961599"><ele>219.0</ele><time>2026-04-18T10:35:47.777Z</time></trkpt><trkpt lat="45.4479113" lon="11.1961554"><ele>219.0</ele><time>2026-04-18T10:35:49.777Z</time></trkpt><trkpt lat="45.4478925" lon="11.1960615"><ele>219.0</ele><time>2026-04-18T10:35:53.777Z</time></trkpt><trkpt lat="45.447924" lon="11.1959633"><ele>219.0</ele><time>2026-04-18T10:35:57.777Z</time></trkpt><trkpt lat="45.4479678" lon="11.1958362"><ele>219.0</ele><time>2026-04-18T10:36:00.777Z</time></trkpt><trkpt lat="45.4480101" lon="11.1957383"><ele>216.5</ele><time>2026-04-18T10:36:02.777Z</time></trkpt><trkpt lat="45.4480568" lon="11.1956338"><ele>214.0</ele><time>2026-04-18T10:36:04.777Z</time></trkpt><trkpt lat="45.4481225" lon="11.1955029"><ele>211.5</ele><time>2026-04-18T10:36:06.777Z</time></trkpt><trkpt lat="45.4481618" lon="11.1954294"><ele>209.0</ele><time>2026-04-18T10:36:07.777Z</time></trkpt><trkpt lat="45.4482076" lon="11.1953565"><ele>206.5</ele><time>2026-04-18T10:36:08.777Z</time></trkpt><trkpt lat="45.448252" lon="11.1952811"><ele>204.0</ele><time>2026-04-18T10:36:09.777Z</time></trkpt><trkpt lat="45.4482997" lon="11.1952051"><ele>204.0</ele><time>2026-04-18T10:36:10.777Z</time></trkpt><trkpt lat="45.4483504" lon="11.1951259"><ele>204.0</ele><time>2026-04-18T10:36:11.777Z</time></trkpt><trkpt lat="45.4484014" lon="11.1950604"><ele>204.0</ele><time>2026-04-18T10:36:12.777Z</time></trkpt><trkpt lat="45.448499" lon="11.1949427"><ele>204.0</ele><time>2026-04-18T10:36:14.777Z</time></trkpt><trkpt lat="45.4485397" lon="11.1948742"><ele>204.0</ele><time>2026-04-18T10:36:15.777Z</time></trkpt><trkpt lat="45.4485758" lon="11.1947917"><ele>204.0</ele><time>2026-04-18T10:36:16.777Z</time></trkpt><trkpt lat="45.4486085" lon="11.1947058"><ele>204.0</ele><time>2026-04-18T10:36:17.777Z</time></trkpt><trkpt lat="45.4486435" lon="11.1946101"><ele>204.0</ele><time>2026-04-18T10:36:18.777Z</time></trkpt><trkpt lat="45.4486795" lon="11.194526"><ele>204.0</ele><time>2026-04-18T10:36:19.777Z</time></trkpt><trkpt lat="45.4487288" lon="11.1944157"><ele>204.0</ele><time>2026-04-18T10:36:20.777Z</time></trkpt><trkpt lat="45.4487845" lon="11.1943128"><ele>204.0</ele><time>2026-04-18T10:36:21.777Z</time></trkpt><trkpt lat="45.44883" lon="11.1942135"><ele>204.0</ele><time>2026-04-18T10:36:22.778Z</time></trkpt><trkpt lat="45.4488716" lon="11.1941184"><ele>204.0</ele><time>2026-04-18T10:36:23.777Z</time></trkpt><trkpt lat="45.4489106" lon="11.1940217"><ele>204.0</ele><time>2026-04-18T10:36:24.777Z</time></trkpt><trkpt lat="45.4489525" lon="11.1939209"><ele>204.0</ele><time>2026-04-18T10:36:25.777Z</time></trkpt><trkpt lat="45.4489925" lon="11.1938126"><ele>204.0</ele><time>2026-04-18T10:36:26.777Z</time></trkpt><trkpt lat="45.4490357" lon="11.1937127"><ele>204.0</ele><time>2026-04-18T10:36:27.778Z</time></trkpt><trkpt lat="45.4490766" lon="11.1936087"><ele>204.0</ele><time>2026-04-18T10:36:28.777Z</time></trkpt><trkpt lat="45.4491189" lon="11.1935055"><ele>201.83333333333334</ele><time>2026-04-18T10:36:29.777Z</time></trkpt><trkpt lat="45.4491547" lon="11.1934003"><ele>199.66666666666666</ele><time>2026-04-18T10:36:30.777Z</time></trkpt><trkpt lat="45.4491892" lon="11.1932987"><ele>197.5</ele><time>2026-04-18T10:36:31.777Z</time></trkpt><trkpt lat="45.4492168" lon="11.1931906"><ele>195.33333333333331</ele><time>2026-04-18T10:36:32.778Z</time></trkpt><trkpt lat="45.4492431" lon="11.1930901"><ele>193.16666666666666</ele><time>2026-04-18T10:36:33.777Z</time></trkpt><trkpt lat="45.4492674" lon="11.1929912"><ele>191.0</ele><time>2026-04-18T10:36:34.777Z</time></trkpt><trkpt lat="45.4492898" lon="11.1928995"><ele>188.0</ele><time>2026-04-18T10:36:35.777Z</time></trkpt><trkpt lat="45.4493343" lon="11.1927327"><ele>185.0</ele><time>2026-04-18T10:36:37.777Z</time></trkpt><trkpt lat="45.4493806" lon="11.1925762"><ele>182.0</ele><time>2026-04-18T10:36:39.777Z</time></trkpt><trkpt lat="45.4494362" lon="11.1924179"><ele>179.0</ele><time>2026-04-18T10:36:41.777Z</time></trkpt><trkpt lat="45.449479" lon="11.1922781"><ele>177.39999999999998</ele><time>2026-04-18T10:36:43.777Z</time></trkpt><trkpt lat="45.4495126" lon="11.1921537"><ele>175.8</ele><time>2026-04-18T10:36:45.777Z</time></trkpt><trkpt lat="45.449545" lon="11.1920201"><ele>174.2</ele><time>2026-04-18T10:36:47.777Z</time></trkpt><trkpt lat="45.4495814" lon="11.1918966"><ele>172.60000000000002</ele><time>2026-04-18T10:36:49.777Z</time></trkpt><trkpt lat="45.4496018" lon="11.1917738"><ele>171.0</ele><time>2026-04-18T10:36:51.777Z</time></trkpt><trkpt lat="45.4496031" lon="11.191634"><ele>171.4</ele><time>2026-04-18T10:36:53.777Z</time></trkpt><trkpt lat="45.449614" lon="11.1914694"><ele>171.8</ele><time>2026-04-18T10:36:55.778Z</time></trkpt><trkpt lat="45.4496339" lon="11.1913229"><ele>172.20000000000002</ele><time>2026-04-18T10:36:57.778Z</time></trkpt><trkpt lat="45.4496666" lon="11.1911761"><ele>172.60000000000002</ele><time>2026-04-18T10:36:59.777Z</time></trkpt><trkpt lat="45.4497016" lon="11.1910207"><ele>173.0</ele><time>2026-04-18T10:37:01.777Z</time></trkpt><trkpt lat="45.4497325" lon="11.1908831"><ele>171.0</ele><time>2026-04-18T10:37:03.777Z</time></trkpt><trkpt lat="45.4497669" lon="11.1907541"><ele>169.0</ele><time>2026-04-18T10:37:05.777Z</time></trkpt><trkpt lat="45.4497856" lon="11.1906238"><ele>167.0</ele><time>2026-04-18T10:37:07.777Z</time></trkpt><trkpt lat="45.449787" lon="11.1904897"><ele>165.0</ele><time>2026-04-18T10:37:09.777Z</time></trkpt><trkpt lat="45.4497868" lon="11.1903437"><ele>163.0</ele><time>2026-04-18T10:37:11.777Z</time></trkpt><trkpt lat="45.4497738" lon="11.190202"><ele>161.6</ele><time>2026-04-18T10:37:13.777Z</time></trkpt><trkpt lat="45.4497641" lon="11.1900402"><ele>160.20000000000002</ele><time>2026-04-18T10:37:15.777Z</time></trkpt><trkpt lat="45.4497559" lon="11.1898822"><ele>158.8</ele><time>2026-04-18T10:37:17.777Z</time></trkpt><trkpt lat="45.449745" lon="11.1897321"><ele>157.4</ele><time>2026-04-18T10:37:19.777Z</time></trkpt><trkpt lat="45.4497323" lon="11.1896215"><ele>156.0</ele><time>2026-04-18T10:37:21.778Z</time></trkpt><trkpt lat="45.4497384" lon="11.1895017"><ele>154.0</ele><time>2026-04-18T10:37:23.777Z</time></trkpt><trkpt lat="45.4497409" lon="11.1893857"><ele>152.0</ele><time>2026-04-18T10:37:26.777Z</time></trkpt><trkpt lat="45.4497916" lon="11.1892913"><ele>150.0</ele><time>2026-04-18T10:37:29.777Z</time></trkpt><trkpt lat="45.4498747" lon="11.1892339"><ele>148.0</ele><time>2026-04-18T10:37:31.777Z</time></trkpt><trkpt lat="45.4499742" lon="11.189171"><ele>146.0</ele><time>2026-04-18T10:37:33.777Z</time></trkpt><trkpt lat="45.4500771" lon="11.1890907"><ele>143.0</ele><time>2026-04-18T10:37:35.777Z</time></trkpt><trkpt lat="45.4501727" lon="11.1889906"><ele>140.0</ele><time>2026-04-18T10:37:37.777Z</time></trkpt><trkpt lat="45.4502674" lon="11.1888875"><ele>137.0</ele><time>2026-04-18T10:37:39.778Z</time></trkpt><trkpt lat="45.4503527" lon="11.1887871"><ele>134.0</ele><time>2026-04-18T10:37:41.777Z</time></trkpt><trkpt lat="45.4504225" lon="11.1887038"><ele>131.0</ele><time>2026-04-18T10:37:43.777Z</time></trkpt><trkpt lat="45.4505051" lon="11.1886391"><ele>130.16666666666666</ele><time>2026-04-18T10:37:45.777Z</time></trkpt><trkpt lat="45.4505788" lon="11.1886096"><ele>129.33333333333331</ele><time>2026-04-18T10:37:47.777Z</time></trkpt><trkpt lat="45.4506536" lon="11.1885997"><ele>128.5</ele><time>2026-04-18T10:37:49.777Z</time></trkpt><trkpt lat="45.450735" lon="11.1886211"><ele>127.66666666666666</ele><time>2026-04-18T10:37:51.777Z</time></trkpt><trkpt lat="45.4508205" lon="11.1886761"><ele>126.83333333333333</ele><time>2026-04-18T10:37:53.777Z</time></trkpt><trkpt lat="45.4509013" lon="11.1887336"><ele>126.0</ele><time>2026-04-18T10:37:55.777Z</time></trkpt><trkpt lat="45.4510137" lon="11.1887683"><ele>126.0</ele><time>2026-04-18T10:37:57.777Z</time></trkpt><trkpt lat="45.4510862" lon="11.1887882"><ele>126.0</ele><time>2026-04-18T10:37:58.777Z</time></trkpt><trkpt lat="45.4511766" lon="11.1887994"><ele>126.0</ele><time>2026-04-18T10:37:59.777Z</time></trkpt><trkpt lat="45.451286" lon="11.1887891"><ele>126.0</ele><time>2026-04-18T10:38:00.777Z</time></trkpt><trkpt lat="45.4514051" lon="11.1887793"><ele>126.0</ele><time>2026-04-18T10:38:01.777Z</time></trkpt><trkpt lat="45.4515108" lon="11.1887665"><ele>124.75</ele><time>2026-04-18T10:38:02.777Z</time></trkpt><trkpt lat="45.4516202" lon="11.1887521"><ele>123.5</ele><time>2026-04-18T10:38:03.778Z</time></trkpt><trkpt lat="45.451741" lon="11.1887403"><ele>122.25</ele><time>2026-04-18T10:38:04.777Z</time></trkpt><trkpt lat="45.4518472" lon="11.188737"><ele>121.0</ele><time>2026-04-18T10:38:05.777Z</time></trkpt><trkpt lat="45.4519689" lon="11.1887416"><ele>121.0</ele><time>2026-04-18T10:38:06.777Z</time></trkpt><trkpt lat="45.4520886" lon="11.1887508"><ele>121.0</ele><time>2026-04-18T10:38:07.777Z</time></trkpt><trkpt lat="45.4522193" lon="11.1887518"><ele>121.0</ele><time>2026-04-18T10:38:08.777Z</time></trkpt><trkpt lat="45.4523586" lon="11.1887432"><ele>121.0</ele><time>2026-04-18T10:38:09.777Z</time></trkpt><trkpt lat="45.4525131" lon="11.1887295"><ele>121.0</ele><time>2026-04-18T10:38:10.777Z</time></trkpt><trkpt lat="45.45265" lon="11.1887178"><ele>121.0</ele><time>2026-04-18T10:38:11.777Z</time></trkpt><trkpt lat="45.4527794" lon="11.1887068"><ele>121.0</ele><time>2026-04-18T10:38:12.777Z</time></trkpt><trkpt lat="45.4529217" lon="11.1886991"><ele>121.0</ele><time>2026-04-18T10:38:13.777Z</time></trkpt><trkpt lat="45.4530683" lon="11.1886973"><ele>121.25</ele><time>2026-04-18T10:38:14.777Z</time></trkpt><trkpt lat="45.4532143" lon="11.1887119"><ele>121.5</ele><time>2026-04-18T10:38:15.777Z</time></trkpt><trkpt lat="45.4533477" lon="11.1887246"><ele>121.75</ele><time>2026-04-18T10:38:16.777Z</time></trkpt><trkpt lat="45.4534663" lon="11.188731"><ele>122.0</ele><time>2026-04-18T10:38:17.777Z</time></trkpt><trkpt lat="45.4535778" lon="11.1887446"><ele>121.99999999999999</ele><time>2026-04-18T10:38:18.777Z</time></trkpt><trkpt lat="45.4536691" lon="11.188753"><ele>122.0</ele><time>2026-04-18T10:38:19.777Z</time></trkpt><trkpt lat="45.4537519" lon="11.1887614"><ele>122.0</ele><time>2026-04-18T10:38:20.777Z</time></trkpt><trkpt lat="45.4538239" lon="11.1887704"><ele>122.0</ele><time>2026-04-18T10:38:21.777Z</time></trkpt><trkpt lat="45.4539247" lon="11.1887582"><ele>121.99999999999999</ele><time>2026-04-18T10:38:23.777Z</time></trkpt><trkpt lat="45.4539909" lon="11.1886717"><ele>122.0</ele><time>2026-04-18T10:38:25.777Z</time></trkpt><trkpt lat="45.4540048" lon="11.1885117"><ele>123.0</ele><time>2026-04-18T10:38:27.777Z</time></trkpt><trkpt lat="45.4540081" lon="11.1883755"><ele>124.0</ele><time>2026-04-18T10:38:28.778Z</time></trkpt><trkpt lat="45.4540186" lon="11.1882273"><ele>125.0</ele><time>2026-04-18T10:38:29.777Z</time></trkpt><trkpt lat="45.4540417" lon="11.1880547"><ele>126.0</ele><time>2026-04-18T10:38:30.777Z</time></trkpt><trkpt lat="45.4540716" lon="11.1878659"><ele>126.19999999999999</ele><time>2026-04-18T10:38:31.777Z</time></trkpt><trkpt lat="45.4540922" lon="11.187693"><ele>126.39999999999999</ele><time>2026-04-18T10:38:32.777Z</time></trkpt><trkpt lat="45.4541125" lon="11.1875362"><ele>126.6</ele><time>2026-04-18T10:38:33.777Z</time></trkpt><trkpt lat="45.4541303" lon="11.1873953"><ele>126.8</ele><time>2026-04-18T10:38:34.777Z</time></trkpt><trkpt lat="45.4541481" lon="11.187269"><ele>127.0</ele><time>2026-04-18T10:38:35.777Z</time></trkpt><trkpt lat="45.4541666" lon="11.1871565"><ele>126.66666666666667</ele><time>2026-04-18T10:38:36.777Z</time></trkpt><trkpt lat="45.4541847" lon="11.1870586"><ele>126.33333333333334</ele><time>2026-04-18T10:38:37.777Z</time></trkpt><trkpt lat="45.4542452" lon="11.1869117"><ele>126.0</ele><time>2026-04-18T10:38:39.777Z</time></trkpt><trkpt lat="45.4543528" lon="11.186838"><ele>125.66666666666666</ele><time>2026-04-18T10:38:41.777Z</time></trkpt><trkpt lat="45.45442" lon="11.1868242"><ele>125.33333333333333</ele><time>2026-04-18T10:38:42.777Z</time></trkpt><trkpt lat="45.4544904" lon="11.1868135"><ele>125.0</ele><time>2026-04-18T10:38:43.777Z</time></trkpt><trkpt lat="45.454573" lon="11.1867887"><ele>124.99999999999999</ele><time>2026-04-18T10:38:45.777Z</time></trkpt><trkpt lat="45.4546026" lon="11.1867032"><ele>125.0</ele><time>2026-04-18T10:38:49.777Z</time></trkpt><trkpt lat="45.4545725" lon="11.1866152"><ele>125.0</ele><time>2026-04-18T10:38:52.778Z</time></trkpt><trkpt lat="45.4544789" lon="11.1865173"><ele>125.0</ele><time>2026-04-18T10:39:15.778Z</time></trkpt><trkpt lat="45.4544166" lon="11.186456"><ele>124.99999999999999</ele><time>2026-04-18T10:39:16.777Z</time></trkpt><trkpt lat="45.4543347" lon="11.186381"><ele>125.0</ele><time>2026-04-18T10:39:17.777Z</time></trkpt><trkpt lat="45.4542344" lon="11.1863144"><ele>124.8</ele><time>2026-04-18T10:39:18.777Z</time></trkpt><trkpt lat="45.4541159" lon="11.1862521"><ele>124.6</ele><time>2026-04-18T10:39:19.777Z</time></trkpt><trkpt lat="45.4540069" lon="11.186205"><ele>124.4</ele><time>2026-04-18T10:39:20.777Z</time></trkpt><trkpt lat="45.4539156" lon="11.1861764"><ele>124.2</ele><time>2026-04-18T10:39:21.777Z</time></trkpt><trkpt lat="45.453842" lon="11.1861368"><ele>124.0</ele><time>2026-04-18T10:39:22.777Z</time></trkpt><trkpt lat="45.4537963" lon="11.1860733"><ele>123.6</ele><time>2026-04-18T10:39:23.777Z</time></trkpt><trkpt lat="45.4537652" lon="11.1859788"><ele>123.2</ele><time>2026-04-18T10:39:24.777Z</time></trkpt><trkpt lat="45.4537485" lon="11.1858378"><ele>122.79999999999998</ele><time>2026-04-18T10:39:25.777Z</time></trkpt><trkpt lat="45.4537587" lon="11.18566"><ele>122.39999999999999</ele><time>2026-04-18T10:39:26.777Z</time></trkpt><trkpt lat="45.4537733" lon="11.1854907"><ele>122.0</ele><time>2026-04-18T10:39:27.777Z</time></trkpt><trkpt lat="45.453779" lon="11.185323"><ele>121.75</ele><time>2026-04-18T10:39:28.777Z</time></trkpt><trkpt lat="45.453782" lon="11.1851504"><ele>121.5</ele><time>2026-04-18T10:39:29.777Z</time></trkpt><trkpt lat="45.4537879" lon="11.1849786"><ele>121.25</ele><time>2026-04-18T10:39:30.777Z</time></trkpt><trkpt lat="45.4537908" lon="11.1848034"><ele>121.0</ele><time>2026-04-18T10:39:31.777Z</time></trkpt><trkpt lat="45.4537904" lon="11.1846343"><ele>121.5</ele><time>2026-04-18T10:39:32.777Z</time></trkpt><trkpt lat="45.4537944" lon="11.1844761"><ele>122.0</ele><time>2026-04-18T10:39:33.777Z</time></trkpt><trkpt lat="45.4538055" lon="11.1843213"><ele>122.5</ele><time>2026-04-18T10:39:34.777Z</time></trkpt><trkpt lat="45.4538177" lon="11.1841579"><ele>123.0</ele><time>2026-04-18T10:39:35.777Z</time></trkpt><trkpt lat="45.453827" lon="11.183989"><ele>123.0</ele><time>2026-04-18T10:39:36.777Z</time></trkpt><trkpt lat="45.4538353" lon="11.1838039"><ele>123.0</ele><time>2026-04-18T10:39:37.777Z</time></trkpt><trkpt lat="45.453849" lon="11.1836381"><ele>123.0</ele><time>2026-04-18T10:39:38.777Z</time></trkpt><trkpt lat="45.4538565" lon="11.1834845"><ele>123.0</ele><time>2026-04-18T10:39:39.777Z</time></trkpt><trkpt lat="45.4538629" lon="11.183349"><ele>123.0</ele><time>2026-04-18T10:39:40.777Z</time></trkpt><trkpt lat="45.4538697" lon="11.1832468"><ele>123.0</ele><time>2026-04-18T10:39:41.777Z</time></trkpt><trkpt lat="45.4538913" lon="11.1831305"><ele>123.0</ele><time>2026-04-18T10:39:43.777Z</time></trkpt><trkpt lat="45.4539427" lon="11.1830527"><ele>123.0</ele><time>2026-04-18T10:39:46.777Z</time></trkpt><trkpt lat="45.4540236" lon="11.1830688"><ele>123.0</ele><time>2026-04-18T10:39:47.777Z</time></trkpt><trkpt lat="45.4541402" lon="11.1830787"><ele>123.0</ele><time>2026-04-18T10:39:48.777Z</time></trkpt><trkpt lat="45.4542578" lon="11.1830829"><ele>123.0</ele><time>2026-04-18T10:39:49.777Z</time></trkpt><trkpt lat="45.4544345" lon="11.1830796"><ele>123.0</ele><time>2026-04-18T10:39:50.777Z</time></trkpt><trkpt lat="45.4545959" lon="11.183085"><ele>123.0</ele><time>2026-04-18T10:39:51.777Z</time></trkpt><trkpt lat="45.4547675" lon="11.1830907"><ele>123.66666666666666</ele><time>2026-04-18T10:39:52.777Z</time></trkpt><trkpt lat="45.4549474" lon="11.1831079"><ele>124.33333333333333</ele><time>2026-04-18T10:39:53.777Z</time></trkpt><trkpt lat="45.4551291" lon="11.1831481"><ele>125.0</ele><time>2026-04-18T10:39:54.777Z</time></trkpt><trkpt lat="45.4552925" lon="11.1831984"><ele>125.0</ele><time>2026-04-18T10:39:55.777Z</time></trkpt><trkpt lat="45.4554428" lon="11.1832476"><ele>125.0</ele><time>2026-04-18T10:39:56.777Z</time></trkpt><trkpt lat="45.4555811" lon="11.1832962"><ele>125.0</ele><time>2026-04-18T10:39:57.778Z</time></trkpt><trkpt lat="45.4557116" lon="11.1833418"><ele>125.0</ele><time>2026-04-18T10:39:58.777Z</time></trkpt><trkpt lat="45.4558341" lon="11.1833789"><ele>126.0</ele><time>2026-04-18T10:39:59.777Z</time></trkpt><trkpt lat="45.455965" lon="11.1834106"><ele>127.0</ele><time>2026-04-18T10:40:00.777Z</time></trkpt><trkpt lat="45.4560919" lon="11.1834362"><ele>128.0</ele><time>2026-04-18T10:40:01.777Z</time></trkpt><trkpt lat="45.4562072" lon="11.1834483"><ele>129.0</ele><time>2026-04-18T10:40:02.778Z</time></trkpt><trkpt lat="45.4563155" lon="11.1834538"><ele>129.8</ele><time>2026-04-18T10:40:03.777Z</time></trkpt><trkpt lat="45.4564173" lon="11.183465"><ele>130.60000000000002</ele><time>2026-04-18T10:40:04.777Z</time></trkpt><trkpt lat="45.4565161" lon="11.1834723"><ele>131.4</ele><time>2026-04-18T10:40:05.777Z</time></trkpt><trkpt lat="45.4566079" lon="11.1834889"><ele>132.20000000000002</ele><time>2026-04-18T10:40:06.777Z</time></trkpt><trkpt lat="45.4566819" lon="11.1835041"><ele>133.0</ele><time>2026-04-18T10:40:07.777Z</time></trkpt><trkpt lat="45.4567788" lon="11.1835179"><ele>133.0</ele><time>2026-04-18T10:40:09.777Z</time></trkpt><trkpt lat="45.4568103" lon="11.1833957"><ele>133.0</ele><time>2026-04-18T10:40:12.777Z</time></trkpt><trkpt lat="45.4568153" lon="11.1832939"><ele>133.0</ele><time>2026-04-18T10:40:13.777Z</time></trkpt><trkpt lat="45.4568208" lon="11.1831412"><ele>133.0</ele><time>2026-04-18T10:40:14.778Z</time></trkpt><trkpt lat="45.456828" lon="11.1829622"><ele>133.0</ele><time>2026-04-18T10:40:15.777Z</time></trkpt><trkpt lat="45.4568332" lon="11.1828029"><ele>132.75</ele><time>2026-04-18T10:40:16.777Z</time></trkpt><trkpt lat="45.4568388" lon="11.1826365"><ele>132.5</ele><time>2026-04-18T10:40:17.777Z</time></trkpt><trkpt lat="45.4568393" lon="11.1824508"><ele>132.25</ele><time>2026-04-18T10:40:18.777Z</time></trkpt><trkpt lat="45.4568454" lon="11.1822539"><ele>132.0</ele><time>2026-04-18T10:40:19.777Z</time></trkpt><trkpt lat="45.4568479" lon="11.1820702"><ele>131.75</ele><time>2026-04-18T10:40:20.777Z</time></trkpt><trkpt lat="45.456852" lon="11.1818882"><ele>131.5</ele><time>2026-04-18T10:40:21.777Z</time></trkpt><trkpt lat="45.4568572" lon="11.1816976"><ele>131.25</ele><time>2026-04-18T10:40:22.777Z</time></trkpt><trkpt lat="45.4568603" lon="11.1815151"><ele>131.0</ele><time>2026-04-18T10:40:23.777Z</time></trkpt><trkpt lat="45.456866" lon="11.1813421"><ele>131.0</ele><time>2026-04-18T10:40:24.777Z</time></trkpt><trkpt lat="45.4568722" lon="11.1811823"><ele>131.0</ele><time>2026-04-18T10:40:25.777Z</time></trkpt><trkpt lat="45.4568736" lon="11.1810263"><ele>131.0</ele><time>2026-04-18T10:40:26.777Z</time></trkpt><trkpt lat="45.4568768" lon="11.1808879"><ele>131.0</ele><time>2026-04-18T10:40:27.777Z</time></trkpt><trkpt lat="45.4568798" lon="11.1807409"><ele>131.0</ele><time>2026-04-18T10:40:28.777Z</time></trkpt><trkpt lat="45.4568822" lon="11.1805974"><ele>131.0</ele><time>2026-04-18T10:40:29.777Z</time></trkpt><trkpt lat="45.4568851" lon="11.1804649"><ele>131.0</ele><time>2026-04-18T10:40:30.777Z</time></trkpt><trkpt lat="45.4568906" lon="11.1803334"><ele>131.0</ele><time>2026-04-18T10:40:31.777Z</time></trkpt><trkpt lat="45.4568937" lon="11.1802017"><ele>131.0</ele><time>2026-04-18T10:40:32.777Z</time></trkpt><trkpt lat="45.4568992" lon="11.1800663"><ele>131.0</ele><time>2026-04-18T10:40:33.777Z</time></trkpt><trkpt lat="45.4569054" lon="11.1799254"><ele>131.0</ele><time>2026-04-18T10:40:34.777Z</time></trkpt><trkpt lat="45.4569129" lon="11.1797812"><ele>131.0</ele><time>2026-04-18T10:40:35.777Z</time></trkpt><trkpt lat="45.4569187" lon="11.1796395"><ele>131.0</ele><time>2026-04-18T10:40:36.777Z</time></trkpt><trkpt lat="45.4569227" lon="11.1794799"><ele>131.0</ele><time>2026-04-18T10:40:37.777Z</time></trkpt><trkpt lat="45.4569256" lon="11.1793301"><ele>131.0</ele><time>2026-04-18T10:40:38.778Z</time></trkpt><trkpt lat="45.4569276" lon="11.1791811"><ele>131.0</ele><time>2026-04-18T10:40:39.777Z</time></trkpt><trkpt lat="45.4569335" lon="11.1790501"><ele>131.0</ele><time>2026-04-18T10:40:40.778Z</time></trkpt><trkpt lat="45.4569384" lon="11.1789237"><ele>131.0</ele><time>2026-04-18T10:40:41.777Z</time></trkpt><trkpt lat="45.4569408" lon="11.1787753"><ele>131.0</ele><time>2026-04-18T10:40:42.778Z</time></trkpt><trkpt lat="45.4569467" lon="11.178624"><ele>131.0</ele><time>2026-04-18T10:40:43.777Z</time></trkpt><trkpt lat="45.4569568" lon="11.1784675"><ele>131.2</ele><time>2026-04-18T10:40:44.777Z</time></trkpt><trkpt lat="45.4569665" lon="11.1783096"><ele>131.39999999999998</ele><time>2026-04-18T10:40:45.778Z</time></trkpt><trkpt lat="45.4569708" lon="11.1781652"><ele>131.6</ele><time>2026-04-18T10:40:46.777Z</time></trkpt><trkpt lat="45.4569764" lon="11.1780357"><ele>131.79999999999998</ele><time>2026-04-18T10:40:47.777Z</time></trkpt><trkpt lat="45.4569804" lon="11.1779159"><ele>132.0</ele><time>2026-04-18T10:40:48.777Z</time></trkpt><trkpt lat="45.4569827" lon="11.1777717"><ele>132.0</ele><time>2026-04-18T10:40:49.777Z</time></trkpt><trkpt lat="45.4569839" lon="11.1776273"><ele>132.0</ele><time>2026-04-18T10:40:50.777Z</time></trkpt><trkpt lat="45.456985" lon="11.1774999"><ele>132.0</ele><time>2026-04-18T10:40:51.777Z</time></trkpt><trkpt lat="45.4569859" lon="11.1773927"><ele>132.0</ele><time>2026-04-18T10:40:52.777Z</time></trkpt><trkpt lat="45.456987" lon="11.1772779"><ele>132.0</ele><time>2026-04-18T10:40:54.777Z</time></trkpt><trkpt lat="45.4570263" lon="11.1771859"><ele>132.0</ele><time>2026-04-18T10:41:01.777Z</time></trkpt><trkpt lat="45.457157" lon="11.1771954"><ele>132.6</ele><time>2026-04-18T10:41:03.777Z</time></trkpt><trkpt lat="45.4572364" lon="11.1772006"><ele>133.2</ele><time>2026-04-18T10:41:04.777Z</time></trkpt><trkpt lat="45.457331" lon="11.1772005"><ele>133.8</ele><time>2026-04-18T10:41:05.777Z</time></trkpt><trkpt lat="45.4574381" lon="11.1771986"><ele>134.4</ele><time>2026-04-18T10:41:06.777Z</time></trkpt><trkpt lat="45.4575459" lon="11.1771985"><ele>135.0</ele><time>2026-04-18T10:41:07.777Z</time></trkpt><trkpt lat="45.4576566" lon="11.1771967"><ele>135.0</ele><time>2026-04-18T10:41:08.777Z</time></trkpt><trkpt lat="45.4577745" lon="11.1771959"><ele>135.0</ele><time>2026-04-18T10:41:09.777Z</time></trkpt><trkpt lat="45.457901" lon="11.1771909"><ele>135.0</ele><time>2026-04-18T10:41:10.777Z</time></trkpt><trkpt lat="45.4580267" lon="11.1771845"><ele>135.0</ele><time>2026-04-18T10:41:11.777Z</time></trkpt><trkpt lat="45.4581534" lon="11.1771811"><ele>135.0</ele><time>2026-04-18T10:41:12.777Z</time></trkpt><trkpt lat="45.4582912" lon="11.1771828"><ele>135.0</ele><time>2026-04-18T10:41:13.778Z</time></trkpt><trkpt lat="45.4584338" lon="11.1771789"><ele>135.0</ele><time>2026-04-18T10:41:14.778Z</time></trkpt><trkpt lat="45.4585825" lon="11.1771787"><ele>135.0</ele><time>2026-04-18T10:41:15.777Z</time></trkpt><trkpt lat="45.4587303" lon="11.1771729"><ele>136.0</ele><time>2026-04-18T10:41:16.777Z</time></trkpt><trkpt lat="45.4588797" lon="11.1771717"><ele>137.0</ele><time>2026-04-18T10:41:17.777Z</time></trkpt><trkpt lat="45.4590273" lon="11.1771729"><ele>138.0</ele><time>2026-04-18T10:41:18.777Z</time></trkpt><trkpt lat="45.4591702" lon="11.1771697"><ele>139.0</ele><time>2026-04-18T10:41:19.777Z</time></trkpt><trkpt lat="45.4593065" lon="11.177171"><ele>139.0</ele><time>2026-04-18T10:41:20.777Z</time></trkpt><trkpt lat="45.4594373" lon="11.1771691"><ele>139.0</ele><time>2026-04-18T10:41:21.777Z</time></trkpt><trkpt lat="45.4595642" lon="11.17717"><ele>139.0</ele><time>2026-04-18T10:41:22.777Z</time></trkpt><trkpt lat="45.4596918" lon="11.1771674"><ele>139.0</ele><time>2026-04-18T10:41:23.777Z</time></trkpt><trkpt lat="45.4598195" lon="11.1771653"><ele>140.0</ele><time>2026-04-18T10:41:24.777Z</time></trkpt><trkpt lat="45.4599445" lon="11.1771626"><ele>141.0</ele><time>2026-04-18T10:41:25.777Z</time></trkpt><trkpt lat="45.4600686" lon="11.1771609"><ele>142.0</ele><time>2026-04-18T10:41:26.777Z</time></trkpt><trkpt lat="45.4601951" lon="11.1771588"><ele>143.0</ele><time>2026-04-18T10:41:27.777Z</time></trkpt><trkpt lat="45.4603252" lon="11.177159"><ele>143.25</ele><time>2026-04-18T10:41:28.777Z</time></trkpt><trkpt lat="45.4604534" lon="11.1771583"><ele>143.5</ele><time>2026-04-18T10:41:29.777Z</time></trkpt><trkpt lat="45.4605818" lon="11.1771663"><ele>143.75</ele><time>2026-04-18T10:41:30.777Z</time></trkpt><trkpt lat="45.4607306" lon="11.1771694"><ele>144.0</ele><time>2026-04-18T10:41:31.777Z</time></trkpt><trkpt lat="45.4608917" lon="11.177169"><ele>144.0</ele><time>2026-04-18T10:41:32.777Z</time></trkpt><trkpt lat="45.4610642" lon="11.1771707"><ele>144.0</ele><time>2026-04-18T10:41:33.777Z</time></trkpt><trkpt lat="45.4612256" lon="11.1771731"><ele>144.0</ele><time>2026-04-18T10:41:34.777Z</time></trkpt><trkpt lat="45.461376" lon="11.1771818"><ele>144.5</ele><time>2026-04-18T10:41:35.778Z</time></trkpt><trkpt lat="45.4615159" lon="11.1771981"><ele>145.0</ele><time>2026-04-18T10:41:36.777Z</time></trkpt><trkpt lat="45.4616474" lon="11.1772264"><ele>145.5</ele><time>2026-04-18T10:41:37.777Z</time></trkpt><trkpt lat="45.4617698" lon="11.1772738"><ele>146.0</ele><time>2026-04-18T10:41:38.777Z</time></trkpt><trkpt lat="45.4618843" lon="11.1773339"><ele>146.0</ele><time>2026-04-18T10:41:39.777Z</time></trkpt><trkpt lat="45.4619884" lon="11.1773981"><ele>146.0</ele><time>2026-04-18T10:41:40.777Z</time></trkpt><trkpt lat="45.4620806" lon="11.1774591"><ele>146.0</ele><time>2026-04-18T10:41:41.777Z</time></trkpt><trkpt lat="45.46217" lon="11.1775225"><ele>146.0</ele><time>2026-04-18T10:41:42.777Z</time></trkpt><trkpt lat="45.4622609" lon="11.1775881"><ele>146.0</ele><time>2026-04-18T10:41:43.777Z</time></trkpt><trkpt lat="45.4623532" lon="11.1776522"><ele>146.75</ele><time>2026-04-18T10:41:44.778Z</time></trkpt><trkpt lat="45.4624524" lon="11.1777211"><ele>147.5</ele><time>2026-04-18T10:41:45.777Z</time></trkpt><trkpt lat="45.4625507" lon="11.1777936"><ele>148.25</ele><time>2026-04-18T10:41:46.777Z</time></trkpt><trkpt lat="45.4626495" lon="11.17787"><ele>149.0</ele><time>2026-04-18T10:41:47.777Z</time></trkpt><trkpt lat="45.4627536" lon="11.1779466"><ele>149.0</ele><time>2026-04-18T10:41:48.777Z</time></trkpt><trkpt lat="45.4628633" lon="11.1780246"><ele>149.0</ele><time>2026-04-18T10:41:49.777Z</time></trkpt><trkpt lat="45.4629684" lon="11.1781011"><ele>149.0</ele><time>2026-04-18T10:41:50.777Z</time></trkpt><trkpt lat="45.4630805" lon="11.178191"><ele>149.0</ele><time>2026-04-18T10:41:51.777Z</time></trkpt><trkpt lat="45.4632153" lon="11.1782887"><ele>150.0</ele><time>2026-04-18T10:41:52.777Z</time></trkpt><trkpt lat="45.4633656" lon="11.1783907"><ele>151.0</ele><time>2026-04-18T10:41:53.777Z</time></trkpt><trkpt lat="45.4635188" lon="11.1785075"><ele>152.0</ele><time>2026-04-18T10:41:54.777Z</time></trkpt><trkpt lat="45.4636637" lon="11.1786173"><ele>153.0</ele><time>2026-04-18T10:41:55.777Z</time></trkpt><trkpt lat="45.4638042" lon="11.1787197"><ele>154.0</ele><time>2026-04-18T10:41:56.777Z</time></trkpt><trkpt lat="45.4639447" lon="11.1788202"><ele>155.0</ele><time>2026-04-18T10:41:57.777Z</time></trkpt><trkpt lat="45.4640741" lon="11.1789107"><ele>155.0</ele><time>2026-04-18T10:41:58.778Z</time></trkpt><trkpt lat="45.4641949" lon="11.1789877"><ele>155.0</ele><time>2026-04-18T10:41:59.777Z</time></trkpt><trkpt lat="45.4643064" lon="11.1790591"><ele>155.0</ele><time>2026-04-18T10:42:00.777Z</time></trkpt><trkpt lat="45.4644041" lon="11.1791158"><ele>155.0</ele><time>2026-04-18T10:42:01.777Z</time></trkpt><trkpt lat="45.4644924" lon="11.1791453"><ele>155.16666666666666</ele><time>2026-04-18T10:42:02.778Z</time></trkpt><trkpt lat="45.4645746" lon="11.1791356"><ele>155.33333333333331</ele><time>2026-04-18T10:42:03.777Z</time></trkpt><trkpt lat="45.4646371" lon="11.1791047"><ele>155.5</ele><time>2026-04-18T10:42:04.777Z</time></trkpt><trkpt lat="45.4647302" lon="11.1790693"><ele>155.66666666666666</ele><time>2026-04-18T10:42:06.777Z</time></trkpt><trkpt lat="45.4648123" lon="11.1790862"><ele>155.83333333333334</ele><time>2026-04-18T10:42:09.777Z</time></trkpt><trkpt lat="45.4648911" lon="11.1791418"><ele>156.0</ele><time>2026-04-18T10:45:02.777Z</time></trkpt><trkpt lat="45.4649418" lon="11.1791989"><ele>156.33333333333334</ele><time>2026-04-18T10:45:04.777Z</time></trkpt><trkpt lat="45.4649438" lon="11.1793029"><ele>156.66666666666666</ele><time>2026-04-18T10:45:15.778Z</time></trkpt><trkpt lat="45.4649918" lon="11.1793645"><ele>157.0</ele><time>2026-04-18T10:45:16.777Z</time></trkpt><trkpt lat="45.465071" lon="11.1794197"><ele>157.33333333333331</ele><time>2026-04-18T10:45:17.777Z</time></trkpt><trkpt lat="45.4651331" lon="11.179466"><ele>157.66666666666666</ele><time>2026-04-18T10:45:18.777Z</time></trkpt><trkpt lat="45.4652249" lon="11.1795365"><ele>158.0</ele><time>2026-04-18T10:45:20.777Z</time></trkpt><trkpt lat="45.4653154" lon="11.1795876"><ele>158.0</ele><time>2026-04-18T10:45:22.777Z</time></trkpt></trkseg><trkseg><trkpt lat="45.465473" lon="11.1795217"><ele>161.0</ele><time>2026-04-18T10:58:18.749Z</time></trkpt><trkpt lat="45.465544" lon="11.1795372"><ele>161.0</ele><time>2026-04-18T10:58:19.749Z</time></trkpt><trkpt lat="45.4656307" lon="11.1795629"><ele>161.0</ele><time>2026-04-18T10:58:20.749Z</time></trkpt><trkpt lat="45.4657104" lon="11.1795855"><ele>161.0</ele><time>2026-04-18T10:58:21.749Z</time></trkpt><trkpt lat="45.4657877" lon="11.179603"><ele>161.0</ele><time>2026-04-18T10:58:22.749Z</time></trkpt><trkpt lat="45.4658646" lon="11.1796226"><ele>161.0</ele><time>2026-04-18T10:58:23.749Z</time></trkpt><trkpt lat="45.4659389" lon="11.1796401"><ele>161.0</ele><time>2026-04-18T10:58:24.749Z</time></trkpt><trkpt lat="45.4660301" lon="11.1796617"><ele>161.0</ele><time>2026-04-18T10:58:26.749Z</time></trkpt><trkpt lat="45.4661013" lon="11.179687"><ele>161.0</ele><time>2026-04-18T10:58:29.749Z</time></trkpt><trkpt lat="45.466199" lon="11.1796991"><ele>161.0</ele><time>2026-04-18T10:58:44.749Z</time></trkpt><trkpt lat="45.4663021" lon="11.1797117"><ele>161.0</ele><time>2026-04-18T10:58:46.749Z</time></trkpt><trkpt lat="45.4664157" lon="11.1797479"><ele>161.5</ele><time>2026-04-18T10:58:48.749Z</time></trkpt><trkpt lat="45.4664935" lon="11.179773"><ele>162.0</ele><time>2026-04-18T10:58:49.749Z</time></trkpt><trkpt lat="45.4665756" lon="11.1797995"><ele>162.5</ele><time>2026-04-18T10:58:50.749Z</time></trkpt><trkpt lat="45.4666511" lon="11.1798208"><ele>163.0</ele><time>2026-04-18T10:58:51.749Z</time></trkpt><trkpt lat="45.4667279" lon="11.1798452"><ele>163.5</ele><time>2026-04-18T10:58:52.749Z</time></trkpt><trkpt lat="45.4668079" lon="11.1798681"><ele>164.0</ele><time>2026-04-18T10:58:53.749Z</time></trkpt><trkpt lat="45.4668854" lon="11.1798956"><ele>164.2</ele><time>2026-04-18T10:58:54.749Z</time></trkpt><trkpt lat="45.4669643" lon="11.1799254"><ele>164.39999999999998</ele><time>2026-04-18T10:58:55.749Z</time></trkpt><trkpt lat="45.4670489" lon="11.1799552"><ele>164.6</ele><time>2026-04-18T10:58:56.749Z</time></trkpt><trkpt lat="45.467145" lon="11.1799914"><ele>164.8</ele><time>2026-04-18T10:58:57.749Z</time></trkpt><trkpt lat="45.4672486" lon="11.1800357"><ele>165.0</ele><time>2026-04-18T10:58:58.749Z</time></trkpt><trkpt lat="45.4673529" lon="11.1800772"><ele>165.33333333333334</ele><time>2026-04-18T10:58:59.749Z</time></trkpt><trkpt lat="45.4674463" lon="11.1801102"><ele>165.66666666666666</ele><time>2026-04-18T10:59:00.749Z</time></trkpt><trkpt lat="45.467533" lon="11.1801269"><ele>166.0</ele><time>2026-04-18T10:59:01.75Z</time></trkpt><trkpt lat="45.4676163" lon="11.1801506"><ele>166.33333333333331</ele><time>2026-04-18T10:59:02.749Z</time></trkpt><trkpt lat="45.4677013" lon="11.1801699"><ele>166.66666666666666</ele><time>2026-04-18T10:59:03.749Z</time></trkpt><trkpt lat="45.4677818" lon="11.180193"><ele>167.0</ele><time>2026-04-18T10:59:04.749Z</time></trkpt><trkpt lat="45.4678492" lon="11.1802086"><ele>167.6</ele><time>2026-04-18T10:59:05.749Z</time></trkpt><trkpt lat="45.4679664" lon="11.1802199"><ele>168.2</ele><time>2026-04-18T10:59:07.749Z</time></trkpt><trkpt lat="45.4680391" lon="11.1801983"><ele>168.8</ele><time>2026-04-18T10:59:08.749Z</time></trkpt><trkpt lat="45.4681425" lon="11.1801693"><ele>169.4</ele><time>2026-04-18T10:59:09.749Z</time></trkpt><trkpt lat="45.4682656" lon="11.1801456"><ele>170.0</ele><time>2026-04-18T10:59:10.749Z</time></trkpt><trkpt lat="45.468414" lon="11.1801274"><ele>170.0</ele><time>2026-04-18T10:59:11.75Z</time></trkpt><trkpt lat="45.4685714" lon="11.1801067"><ele>170.0</ele><time>2026-04-18T10:59:12.749Z</time></trkpt><trkpt lat="45.4687397" lon="11.1800814"><ele>170.0</ele><time>2026-04-18T10:59:13.749Z</time></trkpt><trkpt lat="45.4689086" lon="11.1800588"><ele>171.0</ele><time>2026-04-18T10:59:14.749Z</time></trkpt><trkpt lat="45.4690806" lon="11.1800427"><ele>172.0</ele><time>2026-04-18T10:59:15.749Z</time></trkpt><trkpt lat="45.4692366" lon="11.1800381"><ele>173.0</ele><time>2026-04-18T10:59:16.749Z</time></trkpt><trkpt lat="45.4693817" lon="11.1800465"><ele>173.0</ele><time>2026-04-18T10:59:17.749Z</time></trkpt><trkpt lat="45.4695271" lon="11.1800735"><ele>173.0</ele><time>2026-04-18T10:59:18.749Z</time></trkpt><trkpt lat="45.4696832" lon="11.1801239"><ele>173.0</ele><time>2026-04-18T10:59:19.749Z</time></trkpt><trkpt lat="45.4698433" lon="11.1801883"><ele>173.66666666666666</ele><time>2026-04-18T10:59:20.749Z</time></trkpt><trkpt lat="45.4700091" lon="11.1802936"><ele>174.33333333333334</ele><time>2026-04-18T10:59:21.749Z</time></trkpt><trkpt lat="45.4701612" lon="11.1803906"><ele>175.0</ele><time>2026-04-18T10:59:22.749Z</time></trkpt><trkpt lat="45.4703157" lon="11.1804723"><ele>175.66666666666669</ele><time>2026-04-18T10:59:23.749Z</time></trkpt><trkpt lat="45.4704771" lon="11.1805542"><ele>176.33333333333334</ele><time>2026-04-18T10:59:24.749Z</time></trkpt><trkpt lat="45.4706334" lon="11.1806287"><ele>177.0</ele><time>2026-04-18T10:59:25.749Z</time></trkpt><trkpt lat="45.4707736" lon="11.1806951"><ele>177.33333333333334</ele><time>2026-04-18T10:59:26.749Z</time></trkpt><trkpt lat="45.4709237" lon="11.1807545"><ele>177.66666666666669</ele><time>2026-04-18T10:59:27.749Z</time></trkpt><trkpt lat="45.471071" lon="11.1808064"><ele>178.0</ele><time>2026-04-18T10:59:28.749Z</time></trkpt><trkpt lat="45.4712413" lon="11.1808424"><ele>178.0</ele><time>2026-04-18T10:59:29.749Z</time></trkpt><trkpt lat="45.4714112" lon="11.1808536"><ele>178.0</ele><time>2026-04-18T10:59:30.749Z</time></trkpt><trkpt lat="45.4715674" lon="11.1808484"><ele>178.0</ele><time>2026-04-18T10:59:31.749Z</time></trkpt><trkpt lat="45.4717086" lon="11.1808431"><ele>178.0</ele><time>2026-04-18T10:59:32.749Z</time></trkpt><trkpt lat="45.4718356" lon="11.1808354"><ele>178.0</ele><time>2026-04-18T10:59:33.749Z</time></trkpt><trkpt lat="45.4719613" lon="11.1808282"><ele>178.0</ele><time>2026-04-18T10:59:34.749Z</time></trkpt><trkpt lat="45.4721044" lon="11.1808413"><ele>178.0</ele><time>2026-04-18T10:59:35.749Z</time></trkpt><trkpt lat="45.4722358" lon="11.1808708"><ele>178.5</ele><time>2026-04-18T10:59:36.749Z</time></trkpt><trkpt lat="45.4723522" lon="11.1808964"><ele>179.0</ele><time>2026-04-18T10:59:37.75Z</time></trkpt><trkpt lat="45.4724618" lon="11.1809248"><ele>179.5</ele><time>2026-04-18T10:59:38.749Z</time></trkpt><trkpt lat="45.472585" lon="11.1809501"><ele>180.0</ele><time>2026-04-18T10:59:39.749Z</time></trkpt><trkpt lat="45.4727298" lon="11.180966"><ele>180.0</ele><time>2026-04-18T10:59:40.749Z</time></trkpt><trkpt lat="45.4728827" lon="11.1809635"><ele>180.0</ele><time>2026-04-18T10:59:41.749Z</time></trkpt><trkpt lat="45.4730332" lon="11.1809518"><ele>180.0</ele><time>2026-04-18T10:59:42.749Z</time></trkpt><trkpt lat="45.473184" lon="11.1809409"><ele>180.75</ele><time>2026-04-18T10:59:43.749Z</time></trkpt><trkpt lat="45.4733325" lon="11.1809315"><ele>181.5</ele><time>2026-04-18T10:59:44.749Z</time></trkpt><trkpt lat="45.4734702" lon="11.180924"><ele>182.25</ele><time>2026-04-18T10:59:45.749Z</time></trkpt><trkpt lat="45.4736131" lon="11.1809241"><ele>183.0</ele><time>2026-04-18T10:59:46.749Z</time></trkpt><trkpt lat="45.473758" lon="11.180926"><ele>183.66666666666666</ele><time>2026-04-18T10:59:47.749Z</time></trkpt><trkpt lat="45.47391" lon="11.1809299"><ele>184.33333333333331</ele><time>2026-04-18T10:59:48.749Z</time></trkpt><trkpt lat="45.4740701" lon="11.1809354"><ele>185.0</ele><time>2026-04-18T10:59:49.749Z</time></trkpt><trkpt lat="45.4742339" lon="11.1809402"><ele>185.0</ele><time>2026-04-18T10:59:50.749Z</time></trkpt><trkpt lat="45.4743972" lon="11.1809479"><ele>185.0</ele><time>2026-04-18T10:59:51.749Z</time></trkpt><trkpt lat="45.4745611" lon="11.1809527"><ele>185.0</ele><time>2026-04-18T10:59:52.749Z</time></trkpt><trkpt lat="45.4747263" lon="11.1809585"><ele>185.33333333333331</ele><time>2026-04-18T10:59:53.749Z</time></trkpt><trkpt lat="45.4748856" lon="11.1809707"><ele>185.66666666666666</ele><time>2026-04-18T10:59:54.749Z</time></trkpt><trkpt lat="45.4750442" lon="11.1809848"><ele>186.0</ele><time>2026-04-18T10:59:55.749Z</time></trkpt><trkpt lat="45.4752002" lon="11.1810043"><ele>186.0</ele><time>2026-04-18T10:59:56.75Z</time></trkpt><trkpt lat="45.4753524" lon="11.1810171"><ele>186.0</ele><time>2026-04-18T10:59:57.749Z</time></trkpt><trkpt lat="45.4755062" lon="11.181025"><ele>186.0</ele><time>2026-04-18T10:59:58.749Z</time></trkpt><trkpt lat="45.4756585" lon="11.1810254"><ele>187.0</ele><time>2026-04-18T10:59:59.749Z</time></trkpt><trkpt lat="45.4758126" lon="11.1810207"><ele>188.0</ele><time>2026-04-18T11:00:00.749Z</time></trkpt><trkpt lat="45.4759769" lon="11.1810198"><ele>189.0</ele><time>2026-04-18T11:00:01.749Z</time></trkpt><trkpt lat="45.4761454" lon="11.1810157"><ele>189.66666666666666</ele><time>2026-04-18T11:00:02.749Z</time></trkpt><trkpt lat="45.4763123" lon="11.1810037"><ele>190.33333333333331</ele><time>2026-04-18T11:00:03.749Z</time></trkpt><trkpt lat="45.4764912" lon="11.1809741"><ele>191.0</ele><time>2026-04-18T11:00:04.749Z</time></trkpt><trkpt lat="45.4766731" lon="11.1809365"><ele>191.0</ele><time>2026-04-18T11:00:05.749Z</time></trkpt><trkpt lat="45.4768482" lon="11.1808948"><ele>191.0</ele><time>2026-04-18T11:00:06.749Z</time></trkpt><trkpt lat="45.4770089" lon="11.1808618"><ele>191.0</ele><time>2026-04-18T11:00:07.75Z</time></trkpt><trkpt lat="45.4771588" lon="11.180834"><ele>192.0</ele><time>2026-04-18T11:00:08.749Z</time></trkpt><trkpt lat="45.4773001" lon="11.1807999"><ele>193.0</ele><time>2026-04-18T11:00:09.749Z</time></trkpt><trkpt lat="45.4774322" lon="11.1807531"><ele>194.0</ele><time>2026-04-18T11:00:10.749Z</time></trkpt><trkpt lat="45.4775475" lon="11.1807123"><ele>195.0</ele><time>2026-04-18T11:00:11.749Z</time></trkpt><trkpt lat="45.477644" lon="11.1806734"><ele>195.0</ele><time>2026-04-18T11:00:12.749Z</time></trkpt><trkpt lat="45.4777275" lon="11.1806306"><ele>195.0</ele><time>2026-04-18T11:00:13.749Z</time></trkpt><trkpt lat="45.4778163" lon="11.1805753"><ele>195.0</ele><time>2026-04-18T11:00:14.749Z</time></trkpt><trkpt lat="45.4779044" lon="11.1805087"><ele>195.0</ele><time>2026-04-18T11:00:15.749Z</time></trkpt><trkpt lat="45.4779943" lon="11.1804302"><ele>195.0</ele><time>2026-04-18T11:00:16.749Z</time></trkpt><trkpt lat="45.4780892" lon="11.1803566"><ele>195.5</ele><time>2026-04-18T11:00:17.749Z</time></trkpt><trkpt lat="45.4781907" lon="11.1802771"><ele>196.0</ele><time>2026-04-18T11:00:18.75Z</time></trkpt><trkpt lat="45.4782972" lon="11.1801882"><ele>196.5</ele><time>2026-04-18T11:00:19.749Z</time></trkpt><trkpt lat="45.4784116" lon="11.1800867"><ele>197.0</ele><time>2026-04-18T11:00:20.749Z</time></trkpt><trkpt lat="45.478535" lon="11.1799827"><ele>197.0</ele><time>2026-04-18T11:00:21.749Z</time></trkpt><trkpt lat="45.4786648" lon="11.1798769"><ele>197.0</ele><time>2026-04-18T11:00:22.749Z</time></trkpt><trkpt lat="45.4788002" lon="11.1797667"><ele>197.0</ele><time>2026-04-18T11:00:23.749Z</time></trkpt><trkpt lat="45.4789292" lon="11.1796516"><ele>197.75</ele><time>2026-04-18T11:00:24.749Z</time></trkpt><trkpt lat="45.4790551" lon="11.1795369"><ele>198.5</ele><time>2026-04-18T11:00:25.749Z</time></trkpt><trkpt lat="45.4791791" lon="11.1794217"><ele>199.25</ele><time>2026-04-18T11:00:26.749Z</time></trkpt><trkpt lat="45.4793063" lon="11.1793086"><ele>200.0</ele><time>2026-04-18T11:00:27.749Z</time></trkpt><trkpt lat="45.4794345" lon="11.1791851"><ele>200.0</ele><time>2026-04-18T11:00:28.749Z</time></trkpt><trkpt lat="45.4795621" lon="11.1790621"><ele>200.0</ele><time>2026-04-18T11:00:29.749Z</time></trkpt><trkpt lat="45.4796915" lon="11.1789381"><ele>200.0</ele><time>2026-04-18T11:00:30.749Z</time></trkpt><trkpt lat="45.4798207" lon="11.1788158"><ele>200.66666666666669</ele><time>2026-04-18T11:00:31.749Z</time></trkpt><trkpt lat="45.47995" lon="11.178694"><ele>201.33333333333331</ele><time>2026-04-18T11:00:32.749Z</time></trkpt><trkpt lat="45.4800783" lon="11.178571"><ele>202.0</ele><time>2026-04-18T11:00:33.749Z</time></trkpt><trkpt lat="45.4802091" lon="11.1784495"><ele>202.0</ele><time>2026-04-18T11:00:34.749Z</time></trkpt><trkpt lat="45.4803393" lon="11.1783306"><ele>202.0</ele><time>2026-04-18T11:00:35.749Z</time></trkpt><trkpt lat="45.480479" lon="11.1782166"><ele>202.0</ele><time>2026-04-18T11:00:36.749Z</time></trkpt><trkpt lat="45.4806329" lon="11.1781199"><ele>204.0</ele><time>2026-04-18T11:00:37.749Z</time></trkpt><trkpt lat="45.4807966" lon="11.1780507"><ele>206.0</ele><time>2026-04-18T11:00:38.749Z</time></trkpt><trkpt lat="45.4809649" lon="11.1780003"><ele>208.0</ele><time>2026-04-18T11:00:39.749Z</time></trkpt><trkpt lat="45.4811219" lon="11.1779724"><ele>208.5</ele><time>2026-04-18T11:00:40.749Z</time></trkpt><trkpt lat="45.4812704" lon="11.1779492"><ele>209.0</ele><time>2026-04-18T11:00:41.749Z</time></trkpt><trkpt lat="45.4814067" lon="11.1779251"><ele>209.5</ele><time>2026-04-18T11:00:42.749Z</time></trkpt><trkpt lat="45.4815328" lon="11.1779045"><ele>210.0</ele><time>2026-04-18T11:00:43.749Z</time></trkpt><trkpt lat="45.4816516" lon="11.1778846"><ele>210.0</ele><time>2026-04-18T11:00:44.749Z</time></trkpt><trkpt lat="45.4817648" lon="11.1778723"><ele>210.0</ele><time>2026-04-18T11:00:45.749Z</time></trkpt><trkpt lat="45.4818615" lon="11.1778604"><ele>210.0</ele><time>2026-04-18T11:00:46.749Z</time></trkpt><trkpt lat="45.4819408" lon="11.1778493"><ele>210.0</ele><time>2026-04-18T11:00:47.749Z</time></trkpt><trkpt lat="45.4820096" lon="11.1778338"><ele>210.0</ele><time>2026-04-18T11:00:48.749Z</time></trkpt><trkpt lat="45.4821011" lon="11.1778168"><ele>210.4</ele><time>2026-04-18T11:00:50.749Z</time></trkpt><trkpt lat="45.4821691" lon="11.1778072"><ele>210.8</ele><time>2026-04-18T11:01:05.749Z</time></trkpt><trkpt lat="45.4822427" lon="11.1777994"><ele>211.2</ele><time>2026-04-18T11:01:06.749Z</time></trkpt><trkpt lat="45.4823471" lon="11.1777915"><ele>211.6</ele><time>2026-04-18T11:01:07.749Z</time></trkpt><trkpt lat="45.4824523" lon="11.1777861"><ele>212.0</ele><time>2026-04-18T11:01:08.749Z</time></trkpt><trkpt lat="45.4825669" lon="11.1777714"><ele>212.0</ele><time>2026-04-18T11:01:09.749Z</time></trkpt><trkpt lat="45.4826893" lon="11.1777514"><ele>212.0</ele><time>2026-04-18T11:01:10.749Z</time></trkpt><trkpt lat="45.48282" lon="11.1777343"><ele>212.0</ele><time>2026-04-18T11:01:11.75Z</time></trkpt><trkpt lat="45.4829481" lon="11.1777051"><ele>212.0</ele><time>2026-04-18T11:01:12.749Z</time></trkpt><trkpt lat="45.483082" lon="11.177678"><ele>212.75</ele><time>2026-04-18T11:01:13.749Z</time></trkpt><trkpt lat="45.4832107" lon="11.177646"><ele>213.5</ele><time>2026-04-18T11:01:14.749Z</time></trkpt><trkpt lat="45.483333" lon="11.1776161"><ele>214.25</ele><time>2026-04-18T11:01:15.749Z</time></trkpt><trkpt lat="45.4834431" lon="11.1775879"><ele>215.0</ele><time>2026-04-18T11:01:16.749Z</time></trkpt><trkpt lat="45.4835365" lon="11.1775691"><ele>215.00000000000003</ele><time>2026-04-18T11:01:17.749Z</time></trkpt><trkpt lat="45.4836112" lon="11.1775532"><ele>215.0</ele><time>2026-04-18T11:01:18.75Z</time></trkpt><trkpt lat="45.4837058" lon="11.1775499"><ele>215.0</ele><time>2026-04-18T11:01:20.749Z</time></trkpt><trkpt lat="45.4837604" lon="11.1776872"><ele>215.0</ele><time>2026-04-18T11:01:23.749Z</time></trkpt><trkpt lat="45.4837792" lon="11.1777924"><ele>215.00000000000003</ele><time>2026-04-18T11:01:24.749Z</time></trkpt><trkpt lat="45.4838023" lon="11.1779153"><ele>215.0</ele><time>2026-04-18T11:01:25.749Z</time></trkpt><trkpt lat="45.4838269" lon="11.1780336"><ele>215.4</ele><time>2026-04-18T11:01:26.749Z</time></trkpt><trkpt lat="45.4838507" lon="11.178158"><ele>215.8</ele><time>2026-04-18T11:01:27.749Z</time></trkpt><trkpt lat="45.4838679" lon="11.1782728"><ele>216.2</ele><time>2026-04-18T11:01:28.749Z</time></trkpt><trkpt lat="45.4838959" lon="11.1783974"><ele>216.6</ele><time>2026-04-18T11:01:29.749Z</time></trkpt><trkpt lat="45.4839234" lon="11.1785442"><ele>217.0</ele><time>2026-04-18T11:01:30.749Z</time></trkpt><trkpt lat="45.4839496" lon="11.178678"><ele>216.99999999999997</ele><time>2026-04-18T11:01:31.749Z</time></trkpt><trkpt lat="45.483973" lon="11.1787934"><ele>217.0</ele><time>2026-04-18T11:01:32.749Z</time></trkpt><trkpt lat="45.483991" lon="11.1788841"><ele>217.0</ele><time>2026-04-18T11:01:33.749Z</time></trkpt><trkpt lat="45.4840067" lon="11.1789943"><ele>217.0</ele><time>2026-04-18T11:01:35.749Z</time></trkpt><trkpt lat="45.484025" lon="11.1790935"><ele>216.99999999999997</ele><time>2026-04-18T11:01:37.749Z</time></trkpt><trkpt lat="45.4840566" lon="11.1792303"><ele>217.0</ele><time>2026-04-18T11:01:39.749Z</time></trkpt><trkpt lat="45.4840647" lon="11.1793346"><ele>217.0</ele><time>2026-04-18T11:01:42.749Z</time></trkpt><trkpt lat="45.4839595" lon="11.179476"><ele>217.0</ele><time>2026-04-18T11:01:44.749Z</time></trkpt><trkpt lat="45.4838913" lon="11.1795768"><ele>217.0</ele><time>2026-04-18T11:01:45.749Z</time></trkpt><trkpt lat="45.4838151" lon="11.1796871"><ele>217.0</ele><time>2026-04-18T11:01:46.749Z</time></trkpt><trkpt lat="45.4837317" lon="11.1797761"><ele>216.6</ele><time>2026-04-18T11:01:47.749Z</time></trkpt><trkpt lat="45.4836412" lon="11.1798674"><ele>216.2</ele><time>2026-04-18T11:01:48.749Z</time></trkpt><trkpt lat="45.4835554" lon="11.1799525"><ele>215.8</ele><time>2026-04-18T11:01:49.749Z</time></trkpt><trkpt lat="45.483474" lon="11.1800364"><ele>215.4</ele><time>2026-04-18T11:01:50.749Z</time></trkpt><trkpt lat="45.4833914" lon="11.1801285"><ele>215.0</ele><time>2026-04-18T11:01:51.749Z</time></trkpt><trkpt lat="45.4833157" lon="11.1802196"><ele>215.00000000000003</ele><time>2026-04-18T11:01:52.749Z</time></trkpt><trkpt lat="45.4832404" lon="11.1803008"><ele>215.0</ele><time>2026-04-18T11:01:53.75Z</time></trkpt><trkpt lat="45.4831735" lon="11.1803599"><ele>215.0</ele><time>2026-04-18T11:01:54.749Z</time></trkpt><trkpt lat="45.4831087" lon="11.1804017"><ele>215.0</ele><time>2026-04-18T11:01:55.749Z</time></trkpt><trkpt lat="45.4829873" lon="11.1804195"><ele>215.00000000000003</ele><time>2026-04-18T11:01:57.749Z</time></trkpt><trkpt lat="45.4829226" lon="11.1803742"><ele>215.0</ele><time>2026-04-18T11:01:58.749Z</time></trkpt><trkpt lat="45.4828662" lon="11.180293"><ele>214.25</ele><time>2026-04-18T11:01:59.749Z</time></trkpt><trkpt lat="45.4828236" lon="11.1801756"><ele>213.5</ele><time>2026-04-18T11:02:00.749Z</time></trkpt><trkpt lat="45.482794" lon="11.1800247"><ele>212.75</ele><time>2026-04-18T11:02:01.749Z</time></trkpt><trkpt lat="45.4827843" lon="11.1798495"><ele>212.0</ele><time>2026-04-18T11:02:02.749Z</time></trkpt><trkpt lat="45.4827762" lon="11.179662"><ele>212.0</ele><time>2026-04-18T11:02:03.749Z</time></trkpt><trkpt lat="45.4827637" lon="11.1794723"><ele>212.0</ele><time>2026-04-18T11:02:04.749Z</time></trkpt><trkpt lat="45.4827513" lon="11.1793117"><ele>212.0</ele><time>2026-04-18T11:02:05.75Z</time></trkpt><trkpt lat="45.4827315" lon="11.1791581"><ele>212.0</ele><time>2026-04-18T11:02:06.749Z</time></trkpt><trkpt lat="45.4827136" lon="11.1790135"><ele>212.0</ele><time>2026-04-18T11:02:07.749Z</time></trkpt><trkpt lat="45.4826962" lon="11.178881"><ele>212.0</ele><time>2026-04-18T11:02:08.749Z</time></trkpt><trkpt lat="45.4826819" lon="11.1787555"><ele>212.0</ele><time>2026-04-18T11:02:09.749Z</time></trkpt><trkpt lat="45.4826608" lon="11.1786196"><ele>212.0</ele><time>2026-04-18T11:02:10.749Z</time></trkpt><trkpt lat="45.4826438" lon="11.1784818"><ele>212.0</ele><time>2026-04-18T11:02:11.749Z</time></trkpt><trkpt lat="45.4826226" lon="11.1783473"><ele>212.00000000000003</ele><time>2026-04-18T11:02:12.749Z</time></trkpt><trkpt lat="45.4826035" lon="11.1782296"><ele>212.0</ele><time>2026-04-18T11:02:13.749Z</time></trkpt><trkpt lat="45.4825851" lon="11.1781151"><ele>212.0</ele><time>2026-04-18T11:02:14.75Z</time></trkpt><trkpt lat="45.4825708" lon="11.1780209"><ele>212.0</ele><time>2026-04-18T11:02:15.749Z</time></trkpt><trkpt lat="45.4825393" lon="11.1778798"><ele>212.00000000000003</ele><time>2026-04-18T11:02:17.749Z</time></trkpt><trkpt lat="45.4824877" lon="11.1777835"><ele>212.0</ele><time>2026-04-18T11:02:19.749Z</time></trkpt><trkpt lat="45.4824374" lon="11.1777015"><ele>212.0</ele><time>2026-04-18T11:02:20.749Z</time></trkpt><trkpt lat="45.4823901" lon="11.1775797"><ele>212.0</ele><time>2026-04-18T11:02:21.749Z</time></trkpt><trkpt lat="45.4823518" lon="11.1774236"><ele>212.0</ele><time>2026-04-18T11:02:22.749Z</time></trkpt><trkpt lat="45.4823205" lon="11.1772438"><ele>212.0</ele><time>2026-04-18T11:02:23.749Z</time></trkpt><trkpt lat="45.4822904" lon="11.1770677"><ele>211.75</ele><time>2026-04-18T11:02:24.749Z</time></trkpt><trkpt lat="45.4822547" lon="11.1768707"><ele>211.5</ele><time>2026-04-18T11:02:25.749Z</time></trkpt><trkpt lat="45.4822181" lon="11.1766663"><ele>211.25</ele><time>2026-04-18T11:02:26.75Z</time></trkpt><trkpt lat="45.4821816" lon="11.1764567"><ele>211.0</ele><time>2026-04-18T11:02:27.749Z</time></trkpt><trkpt lat="45.482145" lon="11.176249"><ele>210.5</ele><time>2026-04-18T11:02:28.749Z</time></trkpt><trkpt lat="45.4821108" lon="11.1760614"><ele>210.0</ele><time>2026-04-18T11:02:29.749Z</time></trkpt><trkpt lat="45.4820778" lon="11.1758884"><ele>209.5</ele><time>2026-04-18T11:02:30.749Z</time></trkpt><trkpt lat="45.4820466" lon="11.1757329"><ele>209.0</ele><time>2026-04-18T11:02:31.749Z</time></trkpt><trkpt lat="45.4820107" lon="11.1755901"><ele>209.0</ele><time>2026-04-18T11:02:32.749Z</time></trkpt><trkpt lat="45.4819669" lon="11.1754783"><ele>209.0</ele><time>2026-04-18T11:02:33.749Z</time></trkpt><trkpt lat="45.4819108" lon="11.1753754"><ele>209.0</ele><time>2026-04-18T11:02:34.749Z</time></trkpt><trkpt lat="45.4818391" lon="11.1752943"><ele>209.0</ele><time>2026-04-18T11:02:35.749Z</time></trkpt><trkpt lat="45.4817503" lon="11.1752408"><ele>209.0</ele><time>2026-04-18T11:02:36.749Z</time></trkpt><trkpt lat="45.4816351" lon="11.1752285"><ele>209.0</ele><time>2026-04-18T11:02:37.749Z</time></trkpt><trkpt lat="45.4815019" lon="11.1752443"><ele>209.0</ele><time>2026-04-18T11:02:38.749Z</time></trkpt><trkpt lat="45.4813775" lon="11.1752641"><ele>209.0</ele><time>2026-04-18T11:02:39.749Z</time></trkpt><trkpt lat="45.4812598" lon="11.1752785"><ele>209.0</ele><time>2026-04-18T11:02:40.749Z</time></trkpt><trkpt lat="45.4811522" lon="11.175288"><ele>209.0</ele><time>2026-04-18T11:02:41.749Z</time></trkpt><trkpt lat="45.4810591" lon="11.1752576"><ele>209.0</ele><time>2026-04-18T11:02:42.749Z</time></trkpt><trkpt lat="45.4809821" lon="11.1751822"><ele>209.0</ele><time>2026-04-18T11:02:43.749Z</time></trkpt><trkpt lat="45.480925" lon="11.1750575"><ele>209.0</ele><time>2026-04-18T11:02:44.749Z</time></trkpt><trkpt lat="45.4808843" lon="11.1748708"><ele>209.0</ele><time>2026-04-18T11:02:45.749Z</time></trkpt><trkpt lat="45.4808495" lon="11.1746525"><ele>209.0</ele><time>2026-04-18T11:02:46.749Z</time></trkpt><trkpt lat="45.4808105" lon="11.1744275"><ele>209.0</ele><time>2026-04-18T11:02:47.749Z</time></trkpt><trkpt lat="45.480773" lon="11.1742079"><ele>209.0</ele><time>2026-04-18T11:02:48.749Z</time></trkpt><trkpt lat="45.4807365" lon="11.1739927"><ele>208.66666666666669</ele><time>2026-04-18T11:02:49.749Z</time></trkpt><trkpt lat="45.4807002" lon="11.1737806"><ele>208.33333333333331</ele><time>2026-04-18T11:02:50.749Z</time></trkpt><trkpt lat="45.480662" lon="11.1735725"><ele>208.0</ele><time>2026-04-18T11:02:51.749Z</time></trkpt><trkpt lat="45.4806259" lon="11.1733599"><ele>208.0</ele><time>2026-04-18T11:02:52.749Z</time></trkpt><trkpt lat="45.4806013" lon="11.1731426"><ele>208.0</ele><time>2026-04-18T11:02:53.749Z</time></trkpt><trkpt lat="45.4805904" lon="11.1729212"><ele>208.0</ele><time>2026-04-18T11:02:54.749Z</time></trkpt><trkpt lat="45.4805896" lon="11.1726928"><ele>208.0</ele><time>2026-04-18T11:02:55.749Z</time></trkpt><trkpt lat="45.4805925" lon="11.1724674"><ele>208.0</ele><time>2026-04-18T11:02:56.749Z</time></trkpt><trkpt lat="45.4805943" lon="11.1722534"><ele>208.0</ele><time>2026-04-18T11:02:57.749Z</time></trkpt><trkpt lat="45.4805919" lon="11.1720211"><ele>208.33333333333331</ele><time>2026-04-18T11:02:58.749Z</time></trkpt><trkpt lat="45.4805864" lon="11.1717993"><ele>208.66666666666669</ele><time>2026-04-18T11:02:59.749Z</time></trkpt><trkpt lat="45.4805745" lon="11.1715854"><ele>209.0</ele><time>2026-04-18T11:03:00.749Z</time></trkpt><trkpt lat="45.4805646" lon="11.1713748"><ele>209.0</ele><time>2026-04-18T11:03:01.749Z</time></trkpt><trkpt lat="45.4805502" lon="11.1711739"><ele>209.0</ele><time>2026-04-18T11:03:02.749Z</time></trkpt><trkpt lat="45.4805326" lon="11.1709708"><ele>209.0</ele><time>2026-04-18T11:03:03.749Z</time></trkpt><trkpt lat="45.480515" lon="11.1707671"><ele>209.0</ele><time>2026-04-18T11:03:04.749Z</time></trkpt><trkpt lat="45.4805134" lon="11.1705739"><ele>208.33333333333334</ele><time>2026-04-18T11:03:05.749Z</time></trkpt><trkpt lat="45.4805209" lon="11.1703508"><ele>207.66666666666669</ele><time>2026-04-18T11:03:06.749Z</time></trkpt><trkpt lat="45.4805345" lon="11.1701256"><ele>207.0</ele><time>2026-04-18T11:03:07.749Z</time></trkpt><trkpt lat="45.4805555" lon="11.169916"><ele>207.0</ele><time>2026-04-18T11:03:08.749Z</time></trkpt><trkpt lat="45.4805793" lon="11.1697204"><ele>207.0</ele><time>2026-04-18T11:03:09.749Z</time></trkpt><trkpt lat="45.4806046" lon="11.1695414"><ele>207.0</ele><time>2026-04-18T11:03:10.749Z</time></trkpt><trkpt lat="45.4806329" lon="11.1693743"><ele>207.0</ele><time>2026-04-18T11:03:11.749Z</time></trkpt><trkpt lat="45.4806817" lon="11.1691994"><ele>207.33333333333331</ele><time>2026-04-18T11:03:12.749Z</time></trkpt><trkpt lat="45.4807584" lon="11.169015"><ele>207.66666666666666</ele><time>2026-04-18T11:03:13.749Z</time></trkpt><trkpt lat="45.4808562" lon="11.168834"><ele>208.0</ele><time>2026-04-18T11:03:14.75Z</time></trkpt><trkpt lat="45.4809558" lon="11.1686719"><ele>208.0</ele><time>2026-04-18T11:03:15.749Z</time></trkpt><trkpt lat="45.4810486" lon="11.1685169"><ele>208.0</ele><time>2026-04-18T11:03:16.749Z</time></trkpt><trkpt lat="45.4811273" lon="11.168368"><ele>208.0</ele><time>2026-04-18T11:03:17.749Z</time></trkpt><trkpt lat="45.4811918" lon="11.1682116"><ele>208.0</ele><time>2026-04-18T11:03:18.749Z</time></trkpt><trkpt lat="45.4812458" lon="11.1680408"><ele>209.33333333333331</ele><time>2026-04-18T11:03:19.749Z</time></trkpt><trkpt lat="45.4812993" lon="11.1678512"><ele>210.66666666666669</ele><time>2026-04-18T11:03:20.749Z</time></trkpt><trkpt lat="45.4813568" lon="11.1676405"><ele>212.0</ele><time>2026-04-18T11:03:21.749Z</time></trkpt><trkpt lat="45.4814099" lon="11.1674398"><ele>212.0</ele><time>2026-04-18T11:03:22.749Z</time></trkpt><trkpt lat="45.4814626" lon="11.1672594"><ele>212.0</ele><time>2026-04-18T11:03:23.749Z</time></trkpt><trkpt lat="45.4815151" lon="11.1670949"><ele>212.0</ele><time>2026-04-18T11:03:24.749Z</time></trkpt><trkpt lat="45.4815646" lon="11.1669409"><ele>212.0</ele><time>2026-04-18T11:03:25.749Z</time></trkpt><trkpt lat="45.4816077" lon="11.166807"><ele>212.00000000000003</ele><time>2026-04-18T11:03:26.749Z</time></trkpt><trkpt lat="45.4816456" lon="11.1666802"><ele>212.0</ele><time>2026-04-18T11:03:27.749Z</time></trkpt><trkpt lat="45.4816798" lon="11.1665756"><ele>212.0</ele><time>2026-04-18T11:03:28.749Z</time></trkpt><trkpt lat="45.4817112" lon="11.1664828"><ele>212.0</ele><time>2026-04-18T11:03:29.749Z</time></trkpt><trkpt lat="45.481738" lon="11.1663995"><ele>212.00000000000003</ele><time>2026-04-18T11:03:30.749Z</time></trkpt><trkpt lat="45.4817951" lon="11.1662911"><ele>212.0</ele><time>2026-04-18T11:03:32.749Z</time></trkpt><trkpt lat="45.4818786" lon="11.1661636"><ele>212.25</ele><time>2026-04-18T11:03:34.749Z</time></trkpt><trkpt lat="45.4819406" lon="11.1660779"><ele>212.5</ele><time>2026-04-18T11:03:35.749Z</time></trkpt><trkpt lat="45.4820136" lon="11.1659714"><ele>212.75</ele><time>2026-04-18T11:03:36.749Z</time></trkpt><trkpt lat="45.4820997" lon="11.1658368"><ele>213.0</ele><time>2026-04-18T11:03:37.749Z</time></trkpt><trkpt lat="45.4821891" lon="11.1656939"><ele>213.25</ele><time>2026-04-18T11:03:38.749Z</time></trkpt><trkpt lat="45.4822712" lon="11.1655595"><ele>213.5</ele><time>2026-04-18T11:03:39.749Z</time></trkpt><trkpt lat="45.4823437" lon="11.1654308"><ele>213.75</ele><time>2026-04-18T11:03:40.749Z</time></trkpt><trkpt lat="45.4824108" lon="11.1653014"><ele>214.0</ele><time>2026-04-18T11:03:41.749Z</time></trkpt><trkpt lat="45.4824656" lon="11.1651883"><ele>213.99999999999997</ele><time>2026-04-18T11:03:42.749Z</time></trkpt><trkpt lat="45.4825071" lon="11.1650874"><ele>214.0</ele><time>2026-04-18T11:03:43.749Z</time></trkpt><trkpt lat="45.4825448" lon="11.164987"><ele>214.0</ele><time>2026-04-18T11:03:44.749Z</time></trkpt><trkpt lat="45.4825832" lon="11.1648928"><ele>214.0</ele><time>2026-04-18T11:03:45.749Z</time></trkpt><trkpt lat="45.4826323" lon="11.1647992"><ele>213.99999999999997</ele><time>2026-04-18T11:03:46.749Z</time></trkpt><trkpt lat="45.482692" lon="11.164694"><ele>214.0</ele><time>2026-04-18T11:03:47.749Z</time></trkpt><trkpt lat="45.4827606" lon="11.1645763"><ele>214.0</ele><time>2026-04-18T11:03:48.749Z</time></trkpt><trkpt lat="45.4828397" lon="11.1644569"><ele>213.99999999999997</ele><time>2026-04-18T11:03:49.749Z</time></trkpt><trkpt lat="45.4829191" lon="11.1643371"><ele>213.99999999999997</ele><time>2026-04-18T11:03:50.749Z</time></trkpt><trkpt lat="45.4829971" lon="11.1642179"><ele>214.0</ele><time>2026-04-18T11:03:51.749Z</time></trkpt><trkpt lat="45.4830633" lon="11.1641079"><ele>214.0</ele><time>2026-04-18T11:03:52.749Z</time></trkpt><trkpt lat="45.4831152" lon="11.1639955"><ele>215.0</ele><time>2026-04-18T11:03:53.749Z</time></trkpt><trkpt lat="45.4831505" lon="11.1639024"><ele>215.99999999999997</ele><time>2026-04-18T11:03:54.749Z</time></trkpt><trkpt lat="45.4831984" lon="11.163763"><ele>216.99999999999997</ele><time>2026-04-18T11:03:56.749Z</time></trkpt><trkpt lat="45.4832859" lon="11.1636698"><ele>218.0</ele><time>2026-04-18T11:03:58.749Z</time></trkpt><trkpt lat="45.4834162" lon="11.1636586"><ele>219.0</ele><time>2026-04-18T11:04:00.75Z</time></trkpt><trkpt lat="45.4835047" lon="11.1636795"><ele>219.0</ele><time>2026-04-18T11:04:01.749Z</time></trkpt><trkpt lat="45.4836143" lon="11.163712"><ele>219.0</ele><time>2026-04-18T11:04:02.749Z</time></trkpt><trkpt lat="45.4837199" lon="11.1637392"><ele>219.0</ele><time>2026-04-18T11:04:03.749Z</time></trkpt><trkpt lat="45.4838356" lon="11.1637625"><ele>219.0</ele><time>2026-04-18T11:04:04.749Z</time></trkpt><trkpt lat="45.4839572" lon="11.1637933"><ele>219.25</ele><time>2026-04-18T11:04:05.75Z</time></trkpt><trkpt lat="45.4840748" lon="11.1638318"><ele>219.5</ele><time>2026-04-18T11:04:06.749Z</time></trkpt><trkpt lat="45.4842018" lon="11.1638573"><ele>219.75</ele><time>2026-04-18T11:04:07.749Z</time></trkpt><trkpt lat="45.4843455" lon="11.1638848"><ele>220.0</ele><time>2026-04-18T11:04:08.749Z</time></trkpt><trkpt lat="45.4844867" lon="11.1639154"><ele>220.5</ele><time>2026-04-18T11:04:09.749Z</time></trkpt><trkpt lat="45.4846129" lon="11.1639443"><ele>221.0</ele><time>2026-04-18T11:04:10.749Z</time></trkpt><trkpt lat="45.4847312" lon="11.1639678"><ele>221.5</ele><time>2026-04-18T11:04:11.749Z</time></trkpt><trkpt lat="45.4848424" lon="11.1639906"><ele>222.0</ele><time>2026-04-18T11:04:12.749Z</time></trkpt><trkpt lat="45.484932" lon="11.1640144"><ele>222.0</ele><time>2026-04-18T11:04:13.749Z</time></trkpt><trkpt lat="45.4850095" lon="11.1640368"><ele>222.0</ele><time>2026-04-18T11:04:14.749Z</time></trkpt><trkpt lat="45.485081" lon="11.164053"><ele>222.0</ele><time>2026-04-18T11:04:15.749Z</time></trkpt><trkpt lat="45.4851441" lon="11.1640353"><ele>222.0</ele><time>2026-04-18T11:04:16.749Z</time></trkpt><trkpt lat="45.4852134" lon="11.1639103"><ele>222.0</ele><time>2026-04-18T11:04:18.749Z</time></trkpt><trkpt lat="45.4852236" lon="11.1638184"><ele>222.0</ele><time>2026-04-18T11:04:19.749Z</time></trkpt><trkpt lat="45.485233" lon="11.1636866"><ele>222.0</ele><time>2026-04-18T11:04:20.749Z</time></trkpt><trkpt lat="45.4852489" lon="11.1635217"><ele>222.0</ele><time>2026-04-18T11:04:21.749Z</time></trkpt><trkpt lat="45.4852636" lon="11.1633533"><ele>222.0</ele><time>2026-04-18T11:04:22.749Z</time></trkpt><trkpt lat="45.4852775" lon="11.1632009"><ele>222.0</ele><time>2026-04-18T11:04:23.749Z</time></trkpt><trkpt lat="45.4852943" lon="11.1630627"><ele>222.0</ele><time>2026-04-18T11:04:24.749Z</time></trkpt><trkpt lat="45.4853072" lon="11.1629511"><ele>222.39999999999998</ele><time>2026-04-18T11:04:25.749Z</time></trkpt><trkpt lat="45.485319" lon="11.1628525"><ele>222.79999999999998</ele><time>2026-04-18T11:04:26.749Z</time></trkpt><trkpt lat="45.4853347" lon="11.1627009"><ele>223.2</ele><time>2026-04-18T11:04:28.75Z</time></trkpt><trkpt lat="45.4853491" lon="11.1625587"><ele>223.6</ele><time>2026-04-18T11:04:30.749Z</time></trkpt><trkpt lat="45.4853637" lon="11.1624532"><ele>224.0</ele><time>2026-04-18T11:04:31.749Z</time></trkpt><trkpt lat="45.485383" lon="11.162311"><ele>225.0</ele><time>2026-04-18T11:04:32.749Z</time></trkpt><trkpt lat="45.4854052" lon="11.1621492"><ele>225.99999999999997</ele><time>2026-04-18T11:04:33.749Z</time></trkpt><trkpt lat="45.4854169" lon="11.1620086"><ele>226.99999999999997</ele><time>2026-04-18T11:04:34.749Z</time></trkpt><trkpt lat="45.4854299" lon="11.1618786"><ele>228.0</ele><time>2026-04-18T11:04:35.749Z</time></trkpt><trkpt lat="45.4854416" lon="11.1617581"><ele>229.0</ele><time>2026-04-18T11:04:36.749Z</time></trkpt><trkpt lat="45.4854482" lon="11.1616653"><ele>229.85714285714283</ele><time>2026-04-18T11:04:37.749Z</time></trkpt><trkpt lat="45.4854554" lon="11.1615656"><ele>230.71428571428572</ele><time>2026-04-18T11:04:39.749Z</time></trkpt><trkpt lat="45.4855284" lon="11.1614809"><ele>231.57142857142856</ele><time>2026-04-18T11:04:42.749Z</time></trkpt><trkpt lat="45.4856063" lon="11.1614781"><ele>232.42857142857142</ele><time>2026-04-18T11:04:45.749Z</time></trkpt><trkpt lat="45.4856352" lon="11.1615582"><ele>233.28571428571428</ele><time>2026-04-18T11:04:47.749Z</time></trkpt><trkpt lat="45.4856453" lon="11.1616545"><ele>234.14285714285714</ele><time>2026-04-18T11:04:49.749Z</time></trkpt><trkpt lat="45.4856922" lon="11.1617172"><ele>235.0</ele><time>2026-04-18T11:04:51.749Z</time></trkpt><trkpt lat="45.4858" lon="11.1616824"><ele>234.99999999999997</ele><time>2026-04-18T11:04:53.749Z</time></trkpt><trkpt lat="45.4858721" lon="11.1616605"><ele>235.0</ele><time>2026-04-18T11:04:54.749Z</time></trkpt><trkpt lat="45.4859519" lon="11.1616438"><ele>235.0</ele><time>2026-04-18T11:04:55.749Z</time></trkpt><trkpt lat="45.4860304" lon="11.1616263"><ele>235.0</ele><time>2026-04-18T11:04:56.749Z</time></trkpt><trkpt lat="45.4861089" lon="11.1616086"><ele>234.99999999999997</ele><time>2026-04-18T11:04:57.749Z</time></trkpt><trkpt lat="45.4861877" lon="11.1615776"><ele>235.0</ele><time>2026-04-18T11:04:58.75Z</time></trkpt><trkpt lat="45.4862599" lon="11.1615425"><ele>238.8</ele><time>2026-04-18T11:04:59.749Z</time></trkpt><trkpt lat="45.4863261" lon="11.1615052"><ele>242.6</ele><time>2026-04-18T11:05:00.749Z</time></trkpt><trkpt lat="45.4864613" lon="11.1614487"><ele>246.39999999999998</ele><time>2026-04-18T11:05:02.749Z</time></trkpt><trkpt lat="45.4865679" lon="11.1614215"><ele>250.2</ele><time>2026-04-18T11:05:03.749Z</time></trkpt><trkpt lat="45.4866656" lon="11.1614053"><ele>254.0</ele><time>2026-04-18T11:05:04.749Z</time></trkpt><trkpt lat="45.4867617" lon="11.1613891"><ele>254.0</ele><time>2026-04-18T11:05:05.749Z</time></trkpt><trkpt lat="45.4868517" lon="11.1613786"><ele>253.99999999999997</ele><time>2026-04-18T11:05:06.749Z</time></trkpt><trkpt lat="45.4869552" lon="11.1613755"><ele>253.99999999999997</ele><time>2026-04-18T11:05:07.749Z</time></trkpt><trkpt lat="45.4870636" lon="11.1613756"><ele>254.0</ele><time>2026-04-18T11:05:08.749Z</time></trkpt><trkpt lat="45.4871791" lon="11.161379"><ele>254.0</ele><time>2026-04-18T11:05:09.749Z</time></trkpt><trkpt lat="45.4872818" lon="11.1613789"><ele>253.0</ele><time>2026-04-18T11:05:10.749Z</time></trkpt><trkpt lat="45.4873823" lon="11.1613799"><ele>251.99999999999997</ele><time>2026-04-18T11:05:11.749Z</time></trkpt><trkpt lat="45.4874873" lon="11.1613772"><ele>250.99999999999997</ele><time>2026-04-18T11:05:12.749Z</time></trkpt><trkpt lat="45.4875791" lon="11.1613679"><ele>250.0</ele><time>2026-04-18T11:05:13.749Z</time></trkpt><trkpt lat="45.4876532" lon="11.1613601"><ele>249.0</ele><time>2026-04-18T11:05:14.749Z</time></trkpt><trkpt lat="45.487758" lon="11.1613585"><ele>249.0</ele><time>2026-04-18T11:05:16.749Z</time></trkpt><trkpt lat="45.4878214" lon="11.1613794"><ele>249.0</ele><time>2026-04-18T11:05:18.749Z</time></trkpt><trkpt lat="45.4878774" lon="11.1614255"><ele>249.0</ele><time>2026-04-18T11:05:20.749Z</time></trkpt><trkpt lat="45.487958" lon="11.1614795"><ele>249.0</ele><time>2026-04-18T11:05:22.749Z</time></trkpt><trkpt lat="45.4880706" lon="11.1615337"><ele>249.0</ele><time>2026-04-18T11:05:24.749Z</time></trkpt><trkpt lat="45.4881311" lon="11.161559"><ele>249.0</ele><time>2026-04-18T11:05:25.749Z</time></trkpt><trkpt lat="45.4882528" lon="11.1615958"><ele>246.16666666666666</ele><time>2026-04-18T11:05:27.749Z</time></trkpt><trkpt lat="45.488334" lon="11.1616114"><ele>243.33333333333331</ele><time>2026-04-18T11:05:28.749Z</time></trkpt><trkpt lat="45.4884105" lon="11.161614"><ele>240.5</ele><time>2026-04-18T11:05:29.749Z</time></trkpt><trkpt lat="45.4884922" lon="11.1616156"><ele>237.66666666666666</ele><time>2026-04-18T11:05:30.749Z</time></trkpt><trkpt lat="45.4885847" lon="11.1616164"><ele>234.83333333333331</ele><time>2026-04-18T11:05:31.749Z</time></trkpt><trkpt lat="45.4886759" lon="11.1616119"><ele>232.0</ele><time>2026-04-18T11:05:32.749Z</time></trkpt><trkpt lat="45.4887545" lon="11.1616116"><ele>232.00000000000003</ele><time>2026-04-18T11:05:33.749Z</time></trkpt><trkpt lat="45.488829" lon="11.161607"><ele>232.0</ele><time>2026-04-18T11:05:34.749Z</time></trkpt><trkpt lat="45.4888959" lon="11.1616042"><ele>232.00000000000003</ele><time>2026-04-18T11:05:35.749Z</time></trkpt><trkpt lat="45.4889627" lon="11.161601"><ele>232.00000000000003</ele><time>2026-04-18T11:05:36.749Z</time></trkpt><trkpt lat="45.489033" lon="11.1616009"><ele>232.0</ele><time>2026-04-18T11:05:37.749Z</time></trkpt><trkpt lat="45.4890978" lon="11.1615959"><ele>232.00000000000003</ele><time>2026-04-18T11:05:38.749Z</time></trkpt><trkpt lat="45.4891695" lon="11.1615942"><ele>232.00000000000003</ele><time>2026-04-18T11:05:39.749Z</time></trkpt><trkpt lat="45.4892408" lon="11.1615942"><ele>232.0</ele><time>2026-04-18T11:05:40.749Z</time></trkpt><trkpt lat="45.4893412" lon="11.1616169"><ele>232.0</ele><time>2026-04-18T11:05:42.75Z</time></trkpt><trkpt lat="45.4894344" lon="11.1617143"><ele>232.0</ele><time>2026-04-18T11:05:44.749Z</time></trkpt><trkpt lat="45.4895052" lon="11.1618591"><ele>232.0</ele><time>2026-04-18T11:05:46.75Z</time></trkpt><trkpt lat="45.4895488" lon="11.1620376"><ele>231.99999999999997</ele><time>2026-04-18T11:05:48.749Z</time></trkpt><trkpt lat="45.4895657" lon="11.1621392"><ele>232.0</ele><time>2026-04-18T11:05:49.749Z</time></trkpt><trkpt lat="45.4895781" lon="11.1622296"><ele>232.0</ele><time>2026-04-18T11:05:50.749Z</time></trkpt><trkpt lat="45.4895909" lon="11.1623498"><ele>232.0</ele><time>2026-04-18T11:05:52.749Z</time></trkpt><trkpt lat="45.4896039" lon="11.1624397"><ele>231.99999999999997</ele><time>2026-04-18T11:05:54.749Z</time></trkpt><trkpt lat="45.489609" lon="11.1625981"><ele>232.0</ele><time>2026-04-18T11:05:56.749Z</time></trkpt><trkpt lat="45.4896074" lon="11.1627217"><ele>233.0</ele><time>2026-04-18T11:05:57.749Z</time></trkpt><trkpt lat="45.489603" lon="11.1628651"><ele>234.0</ele><time>2026-04-18T11:05:58.749Z</time></trkpt><trkpt lat="45.4896" lon="11.1630241"><ele>235.0</ele><time>2026-04-18T11:05:59.749Z</time></trkpt><trkpt lat="45.4896023" lon="11.1631907"><ele>236.0</ele><time>2026-04-18T11:06:00.749Z</time></trkpt><trkpt lat="45.4896117" lon="11.1633491"><ele>237.0</ele><time>2026-04-18T11:06:01.749Z</time></trkpt><trkpt lat="45.4896253" lon="11.1634991"><ele>237.2</ele><time>2026-04-18T11:06:02.749Z</time></trkpt><trkpt lat="45.4896385" lon="11.1636585"><ele>237.39999999999998</ele><time>2026-04-18T11:06:03.749Z</time></trkpt><trkpt lat="45.4896544" lon="11.1638237"><ele>237.60000000000002</ele><time>2026-04-18T11:06:04.749Z</time></trkpt><trkpt lat="45.4896683" lon="11.1639608"><ele>237.8</ele><time>2026-04-18T11:06:05.749Z</time></trkpt><trkpt lat="45.4896817" lon="11.164083"><ele>238.0</ele><time>2026-04-18T11:06:06.749Z</time></trkpt><trkpt lat="45.4896891" lon="11.1641882"><ele>237.99999999999997</ele><time>2026-04-18T11:06:07.749Z</time></trkpt><trkpt lat="45.4897092" lon="11.1643264"><ele>238.0</ele><time>2026-04-18T11:06:09.749Z</time></trkpt><trkpt lat="45.4897498" lon="11.1644041"><ele>238.0</ele><time>2026-04-18T11:06:11.75Z</time></trkpt><trkpt lat="45.4898499" lon="11.1644357"><ele>238.0</ele><time>2026-04-18T11:06:13.749Z</time></trkpt><trkpt lat="45.4899205" lon="11.1644202"><ele>237.99999999999997</ele><time>2026-04-18T11:06:14.749Z</time></trkpt><trkpt lat="45.4899855" lon="11.1643978"><ele>238.0</ele><time>2026-04-18T11:06:15.749Z</time></trkpt><trkpt lat="45.4900903" lon="11.1643496"><ele>238.0</ele><time>2026-04-18T11:06:17.749Z</time></trkpt><trkpt lat="45.4902269" lon="11.1643147"><ele>238.0</ele><time>2026-04-18T11:06:19.749Z</time></trkpt><trkpt lat="45.4903402" lon="11.1643047"><ele>238.0</ele><time>2026-04-18T11:06:21.749Z</time></trkpt><trkpt lat="45.4904286" lon="11.1643453"><ele>238.0</ele><time>2026-04-18T11:06:23.749Z</time></trkpt><trkpt lat="45.4905017" lon="11.1643553"><ele>238.0</ele><time>2026-04-18T11:06:26.749Z</time></trkpt><trkpt lat="45.4905557" lon="11.1642832"><ele>238.60000000000002</ele><time>2026-04-18T11:06:29.749Z</time></trkpt><trkpt lat="45.4905601" lon="11.1641388"><ele>239.20000000000002</ele><time>2026-04-18T11:06:31.749Z</time></trkpt><trkpt lat="45.4905532" lon="11.1640257"><ele>239.8</ele><time>2026-04-18T11:06:32.749Z</time></trkpt><trkpt lat="45.4905489" lon="11.1639001"><ele>240.4</ele><time>2026-04-18T11:06:33.749Z</time></trkpt><trkpt lat="45.4905465" lon="11.1637611"><ele>241.0</ele><time>2026-04-18T11:06:34.749Z</time></trkpt><trkpt lat="45.4905495" lon="11.163598"><ele>241.0</ele><time>2026-04-18T11:06:35.749Z</time></trkpt><trkpt lat="45.4905574" lon="11.1634378"><ele>241.00000000000003</ele><time>2026-04-18T11:06:36.749Z</time></trkpt><trkpt lat="45.4905593" lon="11.1632798"><ele>241.00000000000003</ele><time>2026-04-18T11:06:37.749Z</time></trkpt><trkpt lat="45.4905634" lon="11.1631196"><ele>241.0</ele><time>2026-04-18T11:06:38.749Z</time></trkpt><trkpt lat="45.490577" lon="11.1629596"><ele>241.0</ele><time>2026-04-18T11:06:39.749Z</time></trkpt><trkpt lat="45.4905962" lon="11.162801"><ele>241.0</ele><time>2026-04-18T11:06:40.749Z</time></trkpt><trkpt lat="45.4906305" lon="11.162649"><ele>241.00000000000003</ele><time>2026-04-18T11:06:41.749Z</time></trkpt><trkpt lat="45.490676" lon="11.1625094"><ele>241.00000000000003</ele><time>2026-04-18T11:06:42.749Z</time></trkpt><trkpt lat="45.4907246" lon="11.1623823"><ele>241.0</ele><time>2026-04-18T11:06:43.749Z</time></trkpt><trkpt lat="45.4907691" lon="11.1622667"><ele>241.0</ele><time>2026-04-18T11:06:44.749Z</time></trkpt><trkpt lat="45.4908165" lon="11.1621511"><ele>241.0</ele><time>2026-04-18T11:06:45.749Z</time></trkpt><trkpt lat="45.490885" lon="11.1620379"><ele>241.0</ele><time>2026-04-18T11:06:46.749Z</time></trkpt><trkpt lat="45.4909926" lon="11.1619355"><ele>241.0</ele><time>2026-04-18T11:06:47.749Z</time></trkpt><trkpt lat="45.4911209" lon="11.161857"><ele>241.0</ele><time>2026-04-18T11:06:48.749Z</time></trkpt><trkpt lat="45.4912474" lon="11.1617733"><ele>241.5</ele><time>2026-04-18T11:06:49.749Z</time></trkpt><trkpt lat="45.4913618" lon="11.1616887"><ele>242.0</ele><time>2026-04-18T11:06:50.749Z</time></trkpt><trkpt lat="45.4914699" lon="11.1616174"><ele>242.5</ele><time>2026-04-18T11:06:51.749Z</time></trkpt><trkpt lat="45.4915956" lon="11.1615548"><ele>243.0</ele><time>2026-04-18T11:06:52.749Z</time></trkpt><trkpt lat="45.4917312" lon="11.1615003"><ele>243.0</ele><time>2026-04-18T11:06:53.749Z</time></trkpt><trkpt lat="45.4918566" lon="11.1614523"><ele>243.0</ele><time>2026-04-18T11:06:54.749Z</time></trkpt><trkpt lat="45.491975" lon="11.1614109"><ele>243.0</ele><time>2026-04-18T11:06:55.749Z</time></trkpt><trkpt lat="45.4920826" lon="11.161366"><ele>243.0</ele><time>2026-04-18T11:06:56.749Z</time></trkpt><trkpt lat="45.4921796" lon="11.1613245"><ele>243.25</ele><time>2026-04-18T11:06:57.749Z</time></trkpt><trkpt lat="45.4922831" lon="11.161267"><ele>243.5</ele><time>2026-04-18T11:06:58.749Z</time></trkpt><trkpt lat="45.4923933" lon="11.1611885"><ele>243.75</ele><time>2026-04-18T11:06:59.749Z</time></trkpt><trkpt lat="45.4924896" lon="11.1610942"><ele>244.0</ele><time>2026-04-18T11:07:00.749Z</time></trkpt><trkpt lat="45.4925696" lon="11.1609978"><ele>243.99999999999997</ele><time>2026-04-18T11:07:01.749Z</time></trkpt><trkpt lat="45.4926338" lon="11.160893"><ele>244.0</ele><time>2026-04-18T11:07:02.749Z</time></trkpt><trkpt lat="45.4926786" lon="11.1607916"><ele>244.0</ele><time>2026-04-18T11:07:03.749Z</time></trkpt><trkpt lat="45.492715" lon="11.1606791"><ele>244.0</ele><time>2026-04-18T11:07:04.749Z</time></trkpt><trkpt lat="45.492735" lon="11.1605607"><ele>243.99999999999997</ele><time>2026-04-18T11:07:05.749Z</time></trkpt><trkpt lat="45.4927495" lon="11.1604591"><ele>244.0</ele><time>2026-04-18T11:07:06.749Z</time></trkpt><trkpt lat="45.492773" lon="11.1603052"><ele>244.2</ele><time>2026-04-18T11:07:08.749Z</time></trkpt><trkpt lat="45.4927893" lon="11.160209"><ele>244.39999999999998</ele><time>2026-04-18T11:07:10.749Z</time></trkpt><trkpt lat="45.4928374" lon="11.1600455"><ele>244.6</ele><time>2026-04-18T11:07:18.749Z</time></trkpt><trkpt lat="45.4928712" lon="11.1599385"><ele>244.8</ele><time>2026-04-18T11:07:19.749Z</time></trkpt><trkpt lat="45.4929038" lon="11.159803"><ele>245.0</ele><time>2026-04-18T11:07:20.75Z</time></trkpt><trkpt lat="45.4929308" lon="11.159667"><ele>245.4</ele><time>2026-04-18T11:07:21.749Z</time></trkpt><trkpt lat="45.4929646" lon="11.1595315"><ele>245.8</ele><time>2026-04-18T11:07:22.749Z</time></trkpt><trkpt lat="45.4929963" lon="11.1593867"><ele>246.2</ele><time>2026-04-18T11:07:23.749Z</time></trkpt><trkpt lat="45.493023" lon="11.1592634"><ele>246.6</ele><time>2026-04-18T11:07:24.749Z</time></trkpt><trkpt lat="45.4930489" lon="11.1591395"><ele>247.0</ele><time>2026-04-18T11:07:25.749Z</time></trkpt><trkpt lat="45.4930686" lon="11.1590191"><ele>247.0</ele><time>2026-04-18T11:07:26.749Z</time></trkpt><trkpt lat="45.4930795" lon="11.1589079"><ele>247.0</ele><time>2026-04-18T11:07:27.749Z</time></trkpt><trkpt lat="45.4930829" lon="11.1587873"><ele>247.0</ele><time>2026-04-18T11:07:28.749Z</time></trkpt><trkpt lat="45.4930709" lon="11.1586634"><ele>247.0</ele><time>2026-04-18T11:07:29.749Z</time></trkpt><trkpt lat="45.4930443" lon="11.1585309"><ele>247.0</ele><time>2026-04-18T11:07:30.749Z</time></trkpt><trkpt lat="45.4930081" lon="11.1583948"><ele>246.99999999999997</ele><time>2026-04-18T11:07:31.749Z</time></trkpt><trkpt lat="45.4929801" lon="11.1582749"><ele>247.0</ele><time>2026-04-18T11:07:32.749Z</time></trkpt><trkpt lat="45.4929621" lon="11.158166"><ele>247.0</ele><time>2026-04-18T11:07:33.749Z</time></trkpt><trkpt lat="45.4929509" lon="11.1580672"><ele>247.0</ele><time>2026-04-18T11:07:34.749Z</time></trkpt><trkpt lat="45.4929489" lon="11.1579501"><ele>246.99999999999997</ele><time>2026-04-18T11:07:35.749Z</time></trkpt><trkpt lat="45.4929551" lon="11.1578171"><ele>247.0</ele><time>2026-04-18T11:07:36.749Z</time></trkpt><trkpt lat="45.492967" lon="11.1577069"><ele>247.33333333333331</ele><time>2026-04-18T11:07:37.749Z</time></trkpt><trkpt lat="45.4929858" lon="11.1576116"><ele>247.66666666666666</ele><time>2026-04-18T11:07:38.749Z</time></trkpt><trkpt lat="45.4930138" lon="11.1575237"><ele>248.0</ele><time>2026-04-18T11:07:39.749Z</time></trkpt><trkpt lat="45.493059" lon="11.1574256"><ele>248.33333333333331</ele><time>2026-04-18T11:07:40.749Z</time></trkpt><trkpt lat="45.4931191" lon="11.1573223"><ele>248.66666666666666</ele><time>2026-04-18T11:07:41.749Z</time></trkpt><trkpt lat="45.4931953" lon="11.1572125"><ele>249.0</ele><time>2026-04-18T11:07:42.749Z</time></trkpt><trkpt lat="45.493275" lon="11.1570846"><ele>250.39999999999998</ele><time>2026-04-18T11:07:43.749Z</time></trkpt><trkpt lat="45.4933545" lon="11.1569652"><ele>251.79999999999998</ele><time>2026-04-18T11:07:44.749Z</time></trkpt><trkpt lat="45.4934233" lon="11.1568646"><ele>253.20000000000002</ele><time>2026-04-18T11:07:45.749Z</time></trkpt><trkpt lat="45.4934847" lon="11.1567777"><ele>254.60000000000002</ele><time>2026-04-18T11:07:46.749Z</time></trkpt><trkpt lat="45.4935343" lon="11.1566928"><ele>256.0</ele><time>2026-04-18T11:07:47.749Z</time></trkpt><trkpt lat="45.4935742" lon="11.1566013"><ele>256.3333333333333</ele><time>2026-04-18T11:07:48.749Z</time></trkpt><trkpt lat="45.4935959" lon="11.1565084"><ele>256.66666666666663</ele><time>2026-04-18T11:07:49.749Z</time></trkpt><trkpt lat="45.4936103" lon="11.1564027"><ele>257.0</ele><time>2026-04-18T11:07:50.749Z</time></trkpt><trkpt lat="45.4936065" lon="11.1562931"><ele>257.3333333333333</ele><time>2026-04-18T11:07:51.749Z</time></trkpt><trkpt lat="45.4935926" lon="11.1561816"><ele>257.6666666666667</ele><time>2026-04-18T11:07:52.749Z</time></trkpt><trkpt lat="45.4935652" lon="11.1560648"><ele>258.0</ele><time>2026-04-18T11:07:53.749Z</time></trkpt><trkpt lat="45.4935345" lon="11.1559415"><ele>258.0</ele><time>2026-04-18T11:07:54.749Z</time></trkpt><trkpt lat="45.4935047" lon="11.1558174"><ele>258.0</ele><time>2026-04-18T11:07:55.749Z</time></trkpt><trkpt lat="45.493477" lon="11.1556908"><ele>258.0</ele><time>2026-04-18T11:07:56.749Z</time></trkpt><trkpt lat="45.493447" lon="11.1555655"><ele>258.0</ele><time>2026-04-18T11:07:57.749Z</time></trkpt><trkpt lat="45.4934188" lon="11.1554424"><ele>258.0</ele><time>2026-04-18T11:07:58.749Z</time></trkpt><trkpt lat="45.4933899" lon="11.155321"><ele>258.0</ele><time>2026-04-18T11:07:59.749Z</time></trkpt><trkpt lat="45.4933535" lon="11.1552027"><ele>258.0</ele><time>2026-04-18T11:08:00.749Z</time></trkpt><trkpt lat="45.4933256" lon="11.1550849"><ele>258.0</ele><time>2026-04-18T11:08:01.749Z</time></trkpt><trkpt lat="45.4933146" lon="11.1549746"><ele>258.0</ele><time>2026-04-18T11:08:02.749Z</time></trkpt><trkpt lat="45.4933191" lon="11.1548552"><ele>258.0</ele><time>2026-04-18T11:08:03.749Z</time></trkpt><trkpt lat="45.493338" lon="11.1547167"><ele>258.0</ele><time>2026-04-18T11:08:04.749Z</time></trkpt><trkpt lat="45.4933748" lon="11.1545672"><ele>259.75</ele><time>2026-04-18T11:08:05.749Z</time></trkpt><trkpt lat="45.4934197" lon="11.1543981"><ele>261.5</ele><time>2026-04-18T11:08:06.749Z</time></trkpt><trkpt lat="45.4934594" lon="11.1542406"><ele>263.25</ele><time>2026-04-18T11:08:07.749Z</time></trkpt><trkpt lat="45.4934983" lon="11.154057"><ele>265.0</ele><time>2026-04-18T11:08:08.749Z</time></trkpt><trkpt lat="45.4935282" lon="11.1538941"><ele>266.66666666666663</ele><time>2026-04-18T11:08:09.749Z</time></trkpt><trkpt lat="45.4935543" lon="11.153751"><ele>268.3333333333333</ele><time>2026-04-18T11:08:10.749Z</time></trkpt><trkpt lat="45.4935733" lon="11.1536196"><ele>270.0</ele><time>2026-04-18T11:08:11.749Z</time></trkpt><trkpt lat="45.4935863" lon="11.1535025"><ele>271.6666666666667</ele><time>2026-04-18T11:08:12.749Z</time></trkpt><trkpt lat="45.4935999" lon="11.1534016"><ele>273.33333333333337</ele><time>2026-04-18T11:08:13.749Z</time></trkpt><trkpt lat="45.4936142" lon="11.1533086"><ele>275.0</ele><time>2026-04-18T11:08:14.749Z</time></trkpt><trkpt lat="45.4936448" lon="11.1532124"><ele>274.4</ele><time>2026-04-18T11:08:15.749Z</time></trkpt><trkpt lat="45.4936919" lon="11.1531134"><ele>273.8</ele><time>2026-04-18T11:08:16.749Z</time></trkpt><trkpt lat="45.4937482" lon="11.1530388"><ele>273.2</ele><time>2026-04-18T11:08:17.749Z</time></trkpt><trkpt lat="45.4938266" lon="11.1529673"><ele>272.6</ele><time>2026-04-18T11:08:18.749Z</time></trkpt><trkpt lat="45.4939224" lon="11.1528827"><ele>272.0</ele><time>2026-04-18T11:08:19.749Z</time></trkpt><trkpt lat="45.4940213" lon="11.1527815"><ele>272.0</ele><time>2026-04-18T11:08:20.749Z</time></trkpt><trkpt lat="45.4941307" lon="11.1526705"><ele>272.0</ele><time>2026-04-18T11:08:21.749Z</time></trkpt><trkpt lat="45.4942378" lon="11.1525715"><ele>272.0</ele><time>2026-04-18T11:08:22.749Z</time></trkpt><trkpt lat="45.4943377" lon="11.1524675"><ele>272.0</ele><time>2026-04-18T11:08:23.749Z</time></trkpt><trkpt lat="45.4944331" lon="11.1523782"><ele>273.2</ele><time>2026-04-18T11:08:24.749Z</time></trkpt><trkpt lat="45.4945242" lon="11.1522953"><ele>274.4</ele><time>2026-04-18T11:08:25.749Z</time></trkpt><trkpt lat="45.4946177" lon="11.1522065"><ele>275.6</ele><time>2026-04-18T11:08:26.749Z</time></trkpt><trkpt lat="45.4947028" lon="11.1521242"><ele>276.8</ele><time>2026-04-18T11:08:27.749Z</time></trkpt><trkpt lat="45.4947865" lon="11.1520371"><ele>278.0</ele><time>2026-04-18T11:08:28.749Z</time></trkpt><trkpt lat="45.4948716" lon="11.1519462"><ele>278.0</ele><time>2026-04-18T11:08:29.749Z</time></trkpt><trkpt lat="45.4949543" lon="11.1518474"><ele>278.0</ele><time>2026-04-18T11:08:30.749Z</time></trkpt><trkpt lat="45.495036" lon="11.1517431"><ele>278.0</ele><time>2026-04-18T11:08:31.749Z</time></trkpt><trkpt lat="45.4951111" lon="11.1516471"><ele>278.0</ele><time>2026-04-18T11:08:32.749Z</time></trkpt><trkpt lat="45.4951805" lon="11.1515506"><ele>278.0</ele><time>2026-04-18T11:08:33.749Z</time></trkpt><trkpt lat="45.4952484" lon="11.1514438"><ele>280.2</ele><time>2026-04-18T11:08:34.749Z</time></trkpt><trkpt lat="45.4953137" lon="11.1513393"><ele>282.4</ele><time>2026-04-18T11:08:35.749Z</time></trkpt><trkpt lat="45.4953813" lon="11.1512351"><ele>284.59999999999997</ele><time>2026-04-18T11:08:36.749Z</time></trkpt><trkpt lat="45.4954433" lon="11.1511295"><ele>286.8</ele><time>2026-04-18T11:08:37.749Z</time></trkpt><trkpt lat="45.4955046" lon="11.1510223"><ele>289.0</ele><time>2026-04-18T11:08:38.749Z</time></trkpt><trkpt lat="45.4955615" lon="11.1509112"><ele>289.0</ele><time>2026-04-18T11:08:39.749Z</time></trkpt><trkpt lat="45.4956169" lon="11.1508162"><ele>289.0</ele><time>2026-04-18T11:08:40.749Z</time></trkpt><trkpt lat="45.4956704" lon="11.150719"><ele>289.0</ele><time>2026-04-18T11:08:41.749Z</time></trkpt><trkpt lat="45.4957173" lon="11.1506228"><ele>289.0</ele><time>2026-04-18T11:08:42.749Z</time></trkpt><trkpt lat="45.495757" lon="11.150518"><ele>289.0</ele><time>2026-04-18T11:08:43.749Z</time></trkpt><trkpt lat="45.4957862" lon="11.1504134"><ele>289.0</ele><time>2026-04-18T11:08:44.749Z</time></trkpt><trkpt lat="45.4958074" lon="11.1503042"><ele>291.3333333333333</ele><time>2026-04-18T11:08:45.749Z</time></trkpt><trkpt lat="45.495829" lon="11.1501953"><ele>293.66666666666663</ele><time>2026-04-18T11:08:46.749Z</time></trkpt><trkpt lat="45.4958487" lon="11.1501"><ele>296.0</ele><time>2026-04-18T11:08:47.749Z</time></trkpt><trkpt lat="45.4958721" lon="11.1500089"><ele>298.3333333333333</ele><time>2026-04-18T11:08:48.749Z</time></trkpt><trkpt lat="45.4959377" lon="11.1498593"><ele>300.6666666666667</ele><time>2026-04-18T11:08:50.749Z</time></trkpt><trkpt lat="45.4959794" lon="11.1497815"><ele>303.0</ele><time>2026-04-18T11:08:51.749Z</time></trkpt><trkpt lat="45.4960299" lon="11.1497059"><ele>305.7142857142857</ele><time>2026-04-18T11:08:52.749Z</time></trkpt><trkpt lat="45.4960858" lon="11.1496228"><ele>308.42857142857144</ele><time>2026-04-18T11:08:53.749Z</time></trkpt><trkpt lat="45.4961365" lon="11.1495428"><ele>311.1428571428571</ele><time>2026-04-18T11:08:54.749Z</time></trkpt><trkpt lat="45.4961883" lon="11.1494632"><ele>313.8571428571429</ele><time>2026-04-18T11:08:55.749Z</time></trkpt><trkpt lat="45.4962415" lon="11.1493939"><ele>316.57142857142856</ele><time>2026-04-18T11:08:56.749Z</time></trkpt><trkpt lat="45.4962956" lon="11.1493292"><ele>319.2857142857143</ele><time>2026-04-18T11:08:57.749Z</time></trkpt><trkpt lat="45.4963511" lon="11.149264"><ele>322.0</ele><time>2026-04-18T11:08:58.749Z</time></trkpt><trkpt lat="45.4964023" lon="11.1491907"><ele>322.3333333333333</ele><time>2026-04-18T11:08:59.749Z</time></trkpt><trkpt lat="45.4964472" lon="11.1491249"><ele>322.66666666666663</ele><time>2026-04-18T11:09:00.749Z</time></trkpt><trkpt lat="45.4965251" lon="11.1490875"><ele>323.0</ele><time>2026-04-18T11:09:02.749Z</time></trkpt><trkpt lat="45.4965856" lon="11.1491573"><ele>323.3333333333333</ele><time>2026-04-18T11:09:04.749Z</time></trkpt><trkpt lat="45.4965886" lon="11.1493313"><ele>323.6666666666667</ele><time>2026-04-18T11:09:06.749Z</time></trkpt><trkpt lat="45.4965798" lon="11.1494218"><ele>324.0</ele><time>2026-04-18T11:09:07.749Z</time></trkpt><trkpt lat="45.4965997" lon="11.1495899"><ele>324.0</ele><time>2026-04-18T11:09:09.749Z</time></trkpt><trkpt lat="45.4966734" lon="11.1497309"><ele>324.0</ele><time>2026-04-18T11:09:11.749Z</time></trkpt><trkpt lat="45.4967671" lon="11.1498232"><ele>324.0</ele><time>2026-04-18T11:09:13.749Z</time></trkpt><trkpt lat="45.4968826" lon="11.1498592"><ele>324.0</ele><time>2026-04-18T11:09:15.749Z</time></trkpt><trkpt lat="45.4969558" lon="11.1498451"><ele>324.0</ele><time>2026-04-18T11:09:16.749Z</time></trkpt><trkpt lat="45.4970173" lon="11.1498177"><ele>326.0</ele><time>2026-04-18T11:09:17.749Z</time></trkpt><trkpt lat="45.4971032" lon="11.1497941"><ele>328.0</ele><time>2026-04-18T11:09:18.75Z</time></trkpt><trkpt lat="45.4971845" lon="11.14976"><ele>330.0</ele><time>2026-04-18T11:09:19.749Z</time></trkpt><trkpt lat="45.497247" lon="11.1497309"><ele>332.0</ele><time>2026-04-18T11:09:20.749Z</time></trkpt><trkpt lat="45.4973543" lon="11.1496889"><ele>334.0</ele><time>2026-04-18T11:09:22.749Z</time></trkpt><trkpt lat="45.4974204" lon="11.1496925"><ele>336.0</ele><time>2026-04-18T11:09:24.749Z</time></trkpt><trkpt lat="45.4974368" lon="11.1497976"><ele>333.6</ele><time>2026-04-18T11:09:32.749Z</time></trkpt><trkpt lat="45.4974008" lon="11.1499594"><ele>331.20000000000005</ele><time>2026-04-18T11:09:34.749Z</time></trkpt><trkpt lat="45.4973899" lon="11.1501137"><ele>328.79999999999995</ele><time>2026-04-18T11:09:36.749Z</time></trkpt><trkpt lat="45.4974053" lon="11.1502457"><ele>326.4</ele><time>2026-04-18T11:09:38.749Z</time></trkpt><trkpt lat="45.4974261" lon="11.1503356"><ele>324.0</ele><time>2026-04-18T11:09:39.749Z</time></trkpt><trkpt lat="45.4974558" lon="11.1504866"><ele>324.0</ele><time>2026-04-18T11:09:41.749Z</time></trkpt><trkpt lat="45.4974869" lon="11.1506286"><ele>324.0</ele><time>2026-04-18T11:09:43.749Z</time></trkpt><trkpt lat="45.4975436" lon="11.1507242"><ele>324.0</ele><time>2026-04-18T11:09:45.749Z</time></trkpt><trkpt lat="45.4976192" lon="11.1507531"><ele>324.0</ele><time>2026-04-18T11:09:47.749Z</time></trkpt><trkpt lat="45.4977318" lon="11.1506787"><ele>324.0</ele><time>2026-04-18T11:09:49.749Z</time></trkpt><trkpt lat="45.4978113" lon="11.1506267"><ele>324.0</ele><time>2026-04-18T11:09:50.749Z</time></trkpt><trkpt lat="45.4979091" lon="11.1505758"><ele>324.0</ele><time>2026-04-18T11:09:51.75Z</time></trkpt><trkpt lat="45.4979898" lon="11.1505345"><ele>324.0</ele><time>2026-04-18T11:09:52.749Z</time></trkpt><trkpt lat="45.4980588" lon="11.1504957"><ele>324.0</ele><time>2026-04-18T11:09:53.749Z</time></trkpt><trkpt lat="45.4981262" lon="11.1504548"><ele>324.0</ele><time>2026-04-18T11:09:54.749Z</time></trkpt><trkpt lat="45.4982011" lon="11.1504118"><ele>324.0</ele><time>2026-04-18T11:09:55.749Z</time></trkpt><trkpt lat="45.4982715" lon="11.1503752"><ele>325.5</ele><time>2026-04-18T11:09:56.749Z</time></trkpt><trkpt lat="45.4983374" lon="11.1503362"><ele>327.0</ele><time>2026-04-18T11:09:57.749Z</time></trkpt><trkpt lat="45.4984543" lon="11.1502599"><ele>328.5</ele><time>2026-04-18T11:09:59.749Z</time></trkpt><trkpt lat="45.4985087" lon="11.1502094"><ele>330.0</ele><time>2026-04-18T11:10:00.749Z</time></trkpt><trkpt lat="45.4985619" lon="11.1501565"><ele>331.5</ele><time>2026-04-18T11:10:01.749Z</time></trkpt><trkpt lat="45.4986166" lon="11.1500865"><ele>333.0</ele><time>2026-04-18T11:10:02.749Z</time></trkpt><trkpt lat="45.4986879" lon="11.1499993"><ele>334.59999999999997</ele><time>2026-04-18T11:10:03.749Z</time></trkpt><trkpt lat="45.4987557" lon="11.1499157"><ele>336.2</ele><time>2026-04-18T11:10:04.749Z</time></trkpt><trkpt lat="45.4988328" lon="11.1498443"><ele>337.8</ele><time>2026-04-18T11:10:05.749Z</time></trkpt><trkpt lat="45.4989245" lon="11.1497731"><ele>339.4</ele><time>2026-04-18T11:10:06.749Z</time></trkpt><trkpt lat="45.4990083" lon="11.1497179"><ele>341.0</ele><time>2026-04-18T11:10:07.749Z</time></trkpt><trkpt lat="45.4990769" lon="11.1496734"><ele>341.0</ele><time>2026-04-18T11:10:08.749Z</time></trkpt><trkpt lat="45.4991461" lon="11.1496387"><ele>341.0</ele><time>2026-04-18T11:10:09.749Z</time></trkpt><trkpt lat="45.4992073" lon="11.149699"><ele>341.0</ele><time>2026-04-18T11:10:11.749Z</time></trkpt><trkpt lat="45.4992298" lon="11.1498213"><ele>341.0</ele><time>2026-04-18T11:10:13.749Z</time></trkpt><trkpt lat="45.499206" lon="11.149936"><ele>341.0</ele><time>2026-04-18T11:10:14.749Z</time></trkpt><trkpt lat="45.4991963" lon="11.1500743"><ele>341.0</ele><time>2026-04-18T11:10:15.749Z</time></trkpt><trkpt lat="45.4991912" lon="11.1502079"><ele>341.0</ele><time>2026-04-18T11:10:16.749Z</time></trkpt><trkpt lat="45.499188" lon="11.1503397"><ele>341.0</ele><time>2026-04-18T11:10:17.75Z</time></trkpt><trkpt lat="45.4991899" lon="11.150456"><ele>341.0</ele><time>2026-04-18T11:10:18.749Z</time></trkpt><trkpt lat="45.4991968" lon="11.1505722"><ele>341.0</ele><time>2026-04-18T11:10:19.749Z</time></trkpt><trkpt lat="45.4992165" lon="11.1507036"><ele>341.0</ele><time>2026-04-18T11:10:20.749Z</time></trkpt><trkpt lat="45.4992494" lon="11.1508332"><ele>341.0</ele><time>2026-04-18T11:10:21.749Z</time></trkpt><trkpt lat="45.4993005" lon="11.150955"><ele>342.8</ele><time>2026-04-18T11:10:22.749Z</time></trkpt><trkpt lat="45.4993665" lon="11.1510778"><ele>344.6</ele><time>2026-04-18T11:10:23.749Z</time></trkpt><trkpt lat="45.4994475" lon="11.1512011"><ele>346.4</ele><time>2026-04-18T11:10:24.749Z</time></trkpt><trkpt lat="45.4995216" lon="11.1513127"><ele>348.2</ele><time>2026-04-18T11:10:25.749Z</time></trkpt><trkpt lat="45.499589" lon="11.1514065"><ele>350.0</ele><time>2026-04-18T11:10:26.749Z</time></trkpt><trkpt lat="45.4996536" lon="11.1514881"><ele>347.0</ele><time>2026-04-18T11:10:27.749Z</time></trkpt><trkpt lat="45.4997125" lon="11.1515522"><ele>344.0</ele><time>2026-04-18T11:10:28.749Z</time></trkpt><trkpt lat="45.4997719" lon="11.1516071"><ele>341.0</ele><time>2026-04-18T11:10:29.749Z</time></trkpt><trkpt lat="45.4998804" lon="11.1516704"><ele>338.0</ele><time>2026-04-18T11:10:31.749Z</time></trkpt><trkpt lat="45.5000005" lon="11.151662"><ele>335.0</ele><time>2026-04-18T11:10:33.749Z</time></trkpt><trkpt lat="45.5000792" lon="11.1516196"><ele>335.0</ele><time>2026-04-18T11:10:34.749Z</time></trkpt><trkpt lat="45.5001683" lon="11.1515607"><ele>335.0</ele><time>2026-04-18T11:10:35.75Z</time></trkpt><trkpt lat="45.5002433" lon="11.1515114"><ele>335.0</ele><time>2026-04-18T11:10:36.75Z</time></trkpt><trkpt lat="45.5003189" lon="11.151479"><ele>335.0</ele><time>2026-04-18T11:10:37.749Z</time></trkpt><trkpt lat="45.5003919" lon="11.1514499"><ele>335.0</ele><time>2026-04-18T11:10:38.749Z</time></trkpt><trkpt lat="45.5004668" lon="11.1514244"><ele>335.0</ele><time>2026-04-18T11:10:39.749Z</time></trkpt><trkpt lat="45.5005362" lon="11.1513985"><ele>335.6666666666667</ele><time>2026-04-18T11:10:40.75Z</time></trkpt><trkpt lat="45.500647" lon="11.1513676"><ele>336.33333333333337</ele><time>2026-04-18T11:10:42.749Z</time></trkpt><trkpt lat="45.50073" lon="11.1513967"><ele>337.0</ele><time>2026-04-18T11:10:44.749Z</time></trkpt><trkpt lat="45.5007647" lon="11.1514805"><ele>337.6666666666667</ele><time>2026-04-18T11:10:46.749Z</time></trkpt><trkpt lat="45.5007478" lon="11.1516192"><ele>338.3333333333333</ele><time>2026-04-18T11:10:48.749Z</time></trkpt><trkpt lat="45.5007281" lon="11.1517322"><ele>339.0</ele><time>2026-04-18T11:10:50.749Z</time></trkpt><trkpt lat="45.5007975" lon="11.1517653"><ele>339.0</ele><time>2026-04-18T11:11:25.749Z</time></trkpt><trkpt lat="45.5008571" lon="11.1515886"><ele>339.0</ele><time>2026-04-18T11:11:27.749Z</time></trkpt><trkpt lat="45.5009003" lon="11.151476"><ele>339.0</ele><time>2026-04-18T11:11:28.749Z</time></trkpt><trkpt lat="45.5009422" lon="11.151362"><ele>339.0</ele><time>2026-04-18T11:11:29.749Z</time></trkpt><trkpt lat="45.50098" lon="11.1512341"><ele>339.0</ele><time>2026-04-18T11:11:30.749Z</time></trkpt><trkpt lat="45.501006" lon="11.151106"><ele>342.2</ele><time>2026-04-18T11:11:31.749Z</time></trkpt><trkpt lat="45.5010093" lon="11.151005"><ele>345.4</ele><time>2026-04-18T11:11:32.749Z</time></trkpt><trkpt lat="45.5009259" lon="11.1508908"><ele>348.6</ele><time>2026-04-18T11:11:34.749Z</time></trkpt><trkpt lat="45.5008507" lon="11.1509059"><ele>351.8</ele><time>2026-04-18T11:11:35.749Z</time></trkpt><trkpt lat="45.5007626" lon="11.150956"><ele>355.0</ele><time>2026-04-18T11:11:36.749Z</time></trkpt><trkpt lat="45.5006705" lon="11.1509976"><ele>355.0</ele><time>2026-04-18T11:11:37.749Z</time></trkpt><trkpt lat="45.5005602" lon="11.1510152"><ele>355.0</ele><time>2026-04-18T11:11:38.749Z</time></trkpt><trkpt lat="45.5004396" lon="11.1510084"><ele>355.0</ele><time>2026-04-18T11:11:39.749Z</time></trkpt><trkpt lat="45.5003236" lon="11.150978"><ele>355.0</ele><time>2026-04-18T11:11:40.749Z</time></trkpt><trkpt lat="45.5002235" lon="11.1509384"><ele>354.0</ele><time>2026-04-18T11:11:41.749Z</time></trkpt><trkpt lat="45.5001282" lon="11.1508904"><ele>353.0</ele><time>2026-04-18T11:11:42.749Z</time></trkpt><trkpt lat="45.5000384" lon="11.1508295"><ele>352.0</ele><time>2026-04-18T11:11:43.749Z</time></trkpt><trkpt lat="45.4999507" lon="11.1507554"><ele>351.0</ele><time>2026-04-18T11:11:44.749Z</time></trkpt><trkpt lat="45.4998695" lon="11.1506729"><ele>350.0</ele><time>2026-04-18T11:11:45.749Z</time></trkpt><trkpt lat="45.4997847" lon="11.150553"><ele>348.2</ele><time>2026-04-18T11:11:46.749Z</time></trkpt><trkpt lat="45.4997147" lon="11.15044"><ele>346.4</ele><time>2026-04-18T11:11:47.749Z</time></trkpt><trkpt lat="45.4996506" lon="11.1503236"><ele>344.6</ele><time>2026-04-18T11:11:48.75Z</time></trkpt><trkpt lat="45.4995994" lon="11.1501929"><ele>342.8</ele><time>2026-04-18T11:11:49.749Z</time></trkpt><trkpt lat="45.4995622" lon="11.1500453"><ele>341.0</ele><time>2026-04-18T11:11:50.749Z</time></trkpt><trkpt lat="45.4995376" lon="11.1498983"><ele>344.20000000000005</ele><time>2026-04-18T11:11:51.749Z</time></trkpt><trkpt lat="45.4995415" lon="11.149753"><ele>347.40000000000003</ele><time>2026-04-18T11:11:52.749Z</time></trkpt><trkpt lat="45.4995599" lon="11.1496013"><ele>350.6</ele><time>2026-04-18T11:11:53.749Z</time></trkpt><trkpt lat="45.499599" lon="11.1494697"><ele>353.8</ele><time>2026-04-18T11:11:54.75Z</time></trkpt><trkpt lat="45.4996658" lon="11.1493168"><ele>357.0</ele><time>2026-04-18T11:11:55.749Z</time></trkpt><trkpt lat="45.49975" lon="11.1491391"><ele>360.40000000000003</ele><time>2026-04-18T11:11:56.749Z</time></trkpt><trkpt lat="45.4998146" lon="11.1489669"><ele>363.8</ele><time>2026-04-18T11:11:57.75Z</time></trkpt><trkpt lat="45.499865" lon="11.148812"><ele>367.2</ele><time>2026-04-18T11:11:58.749Z</time></trkpt><trkpt lat="45.4999046" lon="11.1486753"><ele>370.6</ele><time>2026-04-18T11:11:59.75Z</time></trkpt><trkpt lat="45.4999301" lon="11.1485556"><ele>374.0</ele><time>2026-04-18T11:12:00.749Z</time></trkpt><trkpt lat="45.4999191" lon="11.1484285"><ele>374.0</ele><time>2026-04-18T11:12:01.749Z</time></trkpt><trkpt lat="45.4998757" lon="11.1483211"><ele>374.0</ele><time>2026-04-18T11:12:02.749Z</time></trkpt><trkpt lat="45.4998197" lon="11.1482566"><ele>374.0</ele><time>2026-04-18T11:12:03.749Z</time></trkpt><trkpt lat="45.4997536" lon="11.1482419"><ele>374.0</ele><time>2026-04-18T11:12:04.749Z</time></trkpt><trkpt lat="45.4997021" lon="11.1482946"><ele>374.0</ele><time>2026-04-18T11:12:05.749Z</time></trkpt><trkpt lat="45.4996726" lon="11.1483852"><ele>374.0</ele><time>2026-04-18T11:12:06.749Z</time></trkpt><trkpt lat="45.4996399" lon="11.1485005"><ele>374.0</ele><time>2026-04-18T11:12:07.749Z</time></trkpt><trkpt lat="45.4995843" lon="11.1485893"><ele>373.0</ele><time>2026-04-18T11:12:08.749Z</time></trkpt><trkpt lat="45.4995035" lon="11.1486537"><ele>372.0</ele><time>2026-04-18T11:12:09.749Z</time></trkpt><trkpt lat="45.4994126" lon="11.1486863"><ele>371.0</ele><time>2026-04-18T11:12:10.749Z</time></trkpt><trkpt lat="45.4993218" lon="11.1486744"><ele>370.0</ele><time>2026-04-18T11:12:11.749Z</time></trkpt><trkpt lat="45.4992338" lon="11.1486512"><ele>369.0</ele><time>2026-04-18T11:12:12.749Z</time></trkpt><trkpt lat="45.4991542" lon="11.1485977"><ele>369.0</ele><time>2026-04-18T11:12:13.749Z</time></trkpt><trkpt lat="45.4990879" lon="11.1484942"><ele>369.0</ele><time>2026-04-18T11:12:14.749Z</time></trkpt><trkpt lat="45.4990341" lon="11.1483428"><ele>369.0</ele><time>2026-04-18T11:12:15.749Z</time></trkpt><trkpt lat="45.4989842" lon="11.1481791"><ele>369.0</ele><time>2026-04-18T11:12:16.749Z</time></trkpt><trkpt lat="45.4989225" lon="11.1480174"><ele>369.5</ele><time>2026-04-18T11:12:17.749Z</time></trkpt><trkpt lat="45.4988513" lon="11.1478941"><ele>370.0</ele><time>2026-04-18T11:12:18.749Z</time></trkpt><trkpt lat="45.4987921" lon="11.147768"><ele>370.5</ele><time>2026-04-18T11:12:19.749Z</time></trkpt><trkpt lat="45.498742" lon="11.1475888"><ele>371.0</ele><time>2026-04-18T11:12:20.749Z</time></trkpt><trkpt lat="45.4986961" lon="11.147386"><ele>374.5</ele><time>2026-04-18T11:12:21.749Z</time></trkpt><trkpt lat="45.4986527" lon="11.1471929"><ele>378.0</ele><time>2026-04-18T11:12:22.749Z</time></trkpt><trkpt lat="45.4985981" lon="11.1469904"><ele>381.5</ele><time>2026-04-18T11:12:23.749Z</time></trkpt><trkpt lat="45.4985422" lon="11.1468111"><ele>385.0</ele><time>2026-04-18T11:12:24.749Z</time></trkpt><trkpt lat="45.4984783" lon="11.1466543"><ele>391.75</ele><time>2026-04-18T11:12:25.749Z</time></trkpt><trkpt lat="45.4983913" lon="11.1465227"><ele>398.5</ele><time>2026-04-18T11:12:26.749Z</time></trkpt><trkpt lat="45.4982672" lon="11.1464186"><ele>405.25</ele><time>2026-04-18T11:12:27.749Z</time></trkpt><trkpt lat="45.4981141" lon="11.1463401"><ele>412.0</ele><time>2026-04-18T11:12:28.749Z</time></trkpt><trkpt lat="45.497956" lon="11.1462679"><ele>408.33333333333337</ele><time>2026-04-18T11:12:29.749Z</time></trkpt><trkpt lat="45.497796" lon="11.1462107"><ele>404.66666666666663</ele><time>2026-04-18T11:12:30.749Z</time></trkpt><trkpt lat="45.4976447" lon="11.1461736"><ele>401.0</ele><time>2026-04-18T11:12:31.749Z</time></trkpt><trkpt lat="45.4974882" lon="11.14614"><ele>401.0</ele><time>2026-04-18T11:12:32.75Z</time></trkpt><trkpt lat="45.497336" lon="11.1460984"><ele>401.0</ele><time>2026-04-18T11:12:33.749Z</time></trkpt><trkpt lat="45.4971982" lon="11.1460548"><ele>401.0</ele><time>2026-04-18T11:12:34.749Z</time></trkpt><trkpt lat="45.4970725" lon="11.1460161"><ele>401.0</ele><time>2026-04-18T11:12:35.749Z</time></trkpt><trkpt lat="45.4969617" lon="11.1459765"><ele>400.25</ele><time>2026-04-18T11:12:36.75Z</time></trkpt><trkpt lat="45.4968577" lon="11.1459341"><ele>399.5</ele><time>2026-04-18T11:12:37.749Z</time></trkpt><trkpt lat="45.4967539" lon="11.145906"><ele>398.75</ele><time>2026-04-18T11:12:38.749Z</time></trkpt><trkpt lat="45.4966454" lon="11.1459351"><ele>398.0</ele><time>2026-04-18T11:12:39.749Z</time></trkpt><trkpt lat="45.4965226" lon="11.1460065"><ele>398.0</ele><time>2026-04-18T11:12:40.749Z</time></trkpt><trkpt lat="45.4964029" lon="11.1460759"><ele>398.0</ele><time>2026-04-18T11:12:41.749Z</time></trkpt><trkpt lat="45.4962856" lon="11.1461338"><ele>398.0</ele><time>2026-04-18T11:12:42.749Z</time></trkpt><trkpt lat="45.4961699" lon="11.1461759"><ele>398.0</ele><time>2026-04-18T11:12:43.749Z</time></trkpt><trkpt lat="45.4960617" lon="11.1462065"><ele>398.0</ele><time>2026-04-18T11:12:44.749Z</time></trkpt><trkpt lat="45.4959362" lon="11.1462126"><ele>398.0</ele><time>2026-04-18T11:12:45.749Z</time></trkpt><trkpt lat="45.4957822" lon="11.1461904"><ele>398.0</ele><time>2026-04-18T11:12:46.749Z</time></trkpt><trkpt lat="45.4956346" lon="11.1461515"><ele>398.0</ele><time>2026-04-18T11:12:47.749Z</time></trkpt><trkpt lat="45.4954963" lon="11.1461156"><ele>396.79999999999995</ele><time>2026-04-18T11:12:48.749Z</time></trkpt><trkpt lat="45.4953735" lon="11.146086"><ele>395.6</ele><time>2026-04-18T11:12:49.749Z</time></trkpt><trkpt lat="45.495265" lon="11.1460512"><ele>394.4</ele><time>2026-04-18T11:12:50.749Z</time></trkpt><trkpt lat="45.4951657" lon="11.1460126"><ele>393.20000000000005</ele><time>2026-04-18T11:12:51.749Z</time></trkpt><trkpt lat="45.4950826" lon="11.1459747"><ele>392.0</ele><time>2026-04-18T11:12:52.749Z</time></trkpt><trkpt lat="45.4950026" lon="11.1459336"><ele>391.99999999999994</ele><time>2026-04-18T11:12:53.749Z</time></trkpt><trkpt lat="45.4949237" lon="11.1458683"><ele>392.0</ele><time>2026-04-18T11:12:54.749Z</time></trkpt><trkpt lat="45.4948451" lon="11.1458025"><ele>392.0</ele><time>2026-04-18T11:12:55.749Z</time></trkpt><trkpt lat="45.4947867" lon="11.1457539"><ele>392.0</ele><time>2026-04-18T11:12:56.749Z</time></trkpt><trkpt lat="45.4947369" lon="11.1456663"><ele>391.99999999999994</ele><time>2026-04-18T11:12:58.749Z</time></trkpt><trkpt lat="45.4947628" lon="11.1455775"><ele>392.0</ele><time>2026-04-18T11:13:01.749Z</time></trkpt><trkpt lat="45.4948684" lon="11.1455732"><ele>393.0</ele><time>2026-04-18T11:13:03.749Z</time></trkpt><trkpt lat="45.4949586" lon="11.145586"><ele>394.0</ele><time>2026-04-18T11:13:04.75Z</time></trkpt><trkpt lat="45.4950618" lon="11.1455933"><ele>395.0</ele><time>2026-04-18T11:13:05.749Z</time></trkpt><trkpt lat="45.495165" lon="11.145603"><ele>396.0</ele><time>2026-04-18T11:13:06.749Z</time></trkpt><trkpt lat="45.4952597" lon="11.1456158"><ele>397.0</ele><time>2026-04-18T11:13:07.749Z</time></trkpt><trkpt lat="45.4953375" lon="11.1456269"><ele>397.0</ele><time>2026-04-18T11:13:08.749Z</time></trkpt><trkpt lat="45.4954039" lon="11.1456339"><ele>397.0</ele><time>2026-04-18T11:13:09.749Z</time></trkpt><trkpt lat="45.4955235" lon="11.1456307"><ele>397.0</ele><time>2026-04-18T11:13:11.749Z</time></trkpt><trkpt lat="45.4956026" lon="11.1455971"><ele>397.0</ele><time>2026-04-18T11:13:12.749Z</time></trkpt><trkpt lat="45.4956887" lon="11.145568"><ele>397.0</ele><time>2026-04-18T11:13:13.749Z</time></trkpt><trkpt lat="45.4957801" lon="11.1455452"><ele>399.20000000000005</ele><time>2026-04-18T11:13:14.749Z</time></trkpt><trkpt lat="45.4958593" lon="11.1455269"><ele>401.4</ele><time>2026-04-18T11:13:15.749Z</time></trkpt><trkpt lat="45.4959318" lon="11.1455094"><ele>403.6</ele><time>2026-04-18T11:13:16.749Z</time></trkpt><trkpt lat="45.4959963" lon="11.1454767"><ele>405.79999999999995</ele><time>2026-04-18T11:13:17.749Z</time></trkpt><trkpt lat="45.4961003" lon="11.1453823"><ele>408.0</ele><time>2026-04-18T11:13:19.749Z</time></trkpt><trkpt lat="45.4961764" lon="11.1452463"><ele>408.0</ele><time>2026-04-18T11:13:21.75Z</time></trkpt><trkpt lat="45.4962227" lon="11.1451647"><ele>408.0</ele><time>2026-04-18T11:13:22.749Z</time></trkpt><trkpt lat="45.4962752" lon="11.1450733"><ele>408.0</ele><time>2026-04-18T11:13:23.749Z</time></trkpt><trkpt lat="45.4963268" lon="11.1449863"><ele>408.0</ele><time>2026-04-18T11:13:24.749Z</time></trkpt><trkpt lat="45.4963818" lon="11.1449024"><ele>408.0</ele><time>2026-04-18T11:13:25.749Z</time></trkpt><trkpt lat="45.4964412" lon="11.1448127"><ele>408.0</ele><time>2026-04-18T11:13:26.749Z</time></trkpt><trkpt lat="45.4964864" lon="11.1447342"><ele>410.79999999999995</ele><time>2026-04-18T11:13:27.749Z</time></trkpt><trkpt lat="45.4965443" lon="11.1446523"><ele>413.6</ele><time>2026-04-18T11:13:28.749Z</time></trkpt><trkpt lat="45.4966027" lon="11.1445745"><ele>416.4</ele><time>2026-04-18T11:13:29.749Z</time></trkpt><trkpt lat="45.4966487" lon="11.1445081"><ele>419.20000000000005</ele><time>2026-04-18T11:13:30.749Z</time></trkpt><trkpt lat="45.4967401" lon="11.1444076"><ele>422.0</ele><time>2026-04-18T11:13:32.749Z</time></trkpt><trkpt lat="45.4968465" lon="11.1443377"><ele>422.0</ele><time>2026-04-18T11:13:34.749Z</time></trkpt><trkpt lat="45.4969787" lon="11.1442841"><ele>422.0</ele><time>2026-04-18T11:13:36.749Z</time></trkpt><trkpt lat="45.4970492" lon="11.1442465"><ele>422.0</ele><time>2026-04-18T11:13:37.749Z</time></trkpt><trkpt lat="45.4971217" lon="11.1442097"><ele>422.0</ele><time>2026-04-18T11:13:38.749Z</time></trkpt><trkpt lat="45.4972343" lon="11.1441405"><ele>422.0</ele><time>2026-04-18T11:13:40.749Z</time></trkpt><trkpt lat="45.4972998" lon="11.1441148"><ele>423.66666666666663</ele><time>2026-04-18T11:13:41.749Z</time></trkpt><trkpt lat="45.4973765" lon="11.1440781"><ele>425.3333333333333</ele><time>2026-04-18T11:13:42.749Z</time></trkpt><trkpt lat="45.4974602" lon="11.1440337"><ele>427.0</ele><time>2026-04-18T11:13:43.749Z</time></trkpt><trkpt lat="45.4975436" lon="11.1439927"><ele>428.66666666666663</ele><time>2026-04-18T11:13:44.749Z</time></trkpt><trkpt lat="45.4976233" lon="11.1439427"><ele>430.3333333333333</ele><time>2026-04-18T11:13:45.749Z</time></trkpt><trkpt lat="45.4977062" lon="11.1438952"><ele>432.0</ele><time>2026-04-18T11:13:46.749Z</time></trkpt><trkpt lat="45.4977968" lon="11.1438402"><ele>433.0</ele><time>2026-04-18T11:13:47.749Z</time></trkpt><trkpt lat="45.4978862" lon="11.1438032"><ele>434.0</ele><time>2026-04-18T11:13:48.749Z</time></trkpt><trkpt lat="45.4979703" lon="11.1437767"><ele>435.0</ele><time>2026-04-18T11:13:49.749Z</time></trkpt><trkpt lat="45.4980485" lon="11.1437449"><ele>436.0</ele><time>2026-04-18T11:13:50.749Z</time></trkpt><trkpt lat="45.4981224" lon="11.1437194"><ele>437.0</ele><time>2026-04-18T11:13:51.749Z</time></trkpt><trkpt lat="45.4981955" lon="11.1436966"><ele>438.0</ele><time>2026-04-18T11:13:52.749Z</time></trkpt><trkpt lat="45.4982658" lon="11.1436635"><ele>439.6666666666667</ele><time>2026-04-18T11:13:53.749Z</time></trkpt><trkpt lat="45.4983328" lon="11.1436371"><ele>441.33333333333337</ele><time>2026-04-18T11:13:54.749Z</time></trkpt><trkpt lat="45.4984379" lon="11.1436016"><ele>443.0</ele><time>2026-04-18T11:13:56.749Z</time></trkpt><trkpt lat="45.4985036" lon="11.143603"><ele>444.6666666666667</ele><time>2026-04-18T11:13:57.749Z</time></trkpt><trkpt lat="45.4985811" lon="11.1436245"><ele>446.33333333333337</ele><time>2026-04-18T11:13:58.749Z</time></trkpt><trkpt lat="45.4986823" lon="11.143655"><ele>448.0</ele><time>2026-04-18T11:13:59.749Z</time></trkpt><trkpt lat="45.4987694" lon="11.1436881"><ele>448.1666666666667</ele><time>2026-04-18T11:14:00.749Z</time></trkpt><trkpt lat="45.4988588" lon="11.1437245"><ele>448.33333333333337</ele><time>2026-04-18T11:14:01.749Z</time></trkpt><trkpt lat="45.4989469" lon="11.1437677"><ele>448.5</ele><time>2026-04-18T11:14:02.749Z</time></trkpt><trkpt lat="45.4990258" lon="11.1438135"><ele>448.66666666666663</ele><time>2026-04-18T11:14:03.749Z</time></trkpt><trkpt lat="45.4990981" lon="11.1438591"><ele>448.8333333333333</ele><time>2026-04-18T11:14:04.75Z</time></trkpt><trkpt lat="45.4991573" lon="11.143904"><ele>449.0</ele><time>2026-04-18T11:14:05.749Z</time></trkpt><trkpt lat="45.499271" lon="11.1439716"><ele>449.0</ele><time>2026-04-18T11:14:07.749Z</time></trkpt><trkpt lat="45.4993785" lon="11.1440335"><ele>449.0</ele><time>2026-04-18T11:14:09.749Z</time></trkpt><trkpt lat="45.499489" lon="11.1440902"><ele>449.0</ele><time>2026-04-18T11:14:11.749Z</time></trkpt><trkpt lat="45.4995977" lon="11.1441428"><ele>449.0</ele><time>2026-04-18T11:14:13.749Z</time></trkpt><trkpt lat="45.4997149" lon="11.144198"><ele>449.16666666666663</ele><time>2026-04-18T11:14:15.749Z</time></trkpt><trkpt lat="45.4997872" lon="11.1442249"><ele>449.3333333333333</ele><time>2026-04-18T11:14:16.749Z</time></trkpt><trkpt lat="45.4998621" lon="11.1442536"><ele>449.5</ele><time>2026-04-18T11:14:17.749Z</time></trkpt><trkpt lat="45.4999386" lon="11.1442916"><ele>449.66666666666663</ele><time>2026-04-18T11:14:18.749Z</time></trkpt><trkpt lat="45.5000189" lon="11.1443374"><ele>449.8333333333333</ele><time>2026-04-18T11:14:19.749Z</time></trkpt><trkpt lat="45.5001057" lon="11.144384"><ele>450.0</ele><time>2026-04-18T11:14:20.749Z</time></trkpt><trkpt lat="45.5001903" lon="11.1444226"><ele>450.0</ele><time>2026-04-18T11:14:21.749Z</time></trkpt><trkpt lat="45.5002722" lon="11.1444731"><ele>450.0</ele><time>2026-04-18T11:14:22.749Z</time></trkpt><trkpt lat="45.5003556" lon="11.1445194"><ele>450.0</ele><time>2026-04-18T11:14:23.749Z</time></trkpt><trkpt lat="45.5004377" lon="11.1445666"><ele>450.0</ele><time>2026-04-18T11:14:24.749Z</time></trkpt><trkpt lat="45.5005209" lon="11.1446156"><ele>450.0</ele><time>2026-04-18T11:14:25.749Z</time></trkpt><trkpt lat="45.5006047" lon="11.1446701"><ele>450.0</ele><time>2026-04-18T11:14:26.749Z</time></trkpt><trkpt lat="45.5007002" lon="11.1447302"><ele>449.8</ele><time>2026-04-18T11:14:27.749Z</time></trkpt><trkpt lat="45.5008026" lon="11.1447908"><ele>449.6</ele><time>2026-04-18T11:14:28.749Z</time></trkpt><trkpt lat="45.5008982" lon="11.1448427"><ele>449.4</ele><time>2026-04-18T11:14:29.749Z</time></trkpt><trkpt lat="45.5009878" lon="11.1448951"><ele>449.2</ele><time>2026-04-18T11:14:30.749Z</time></trkpt><trkpt lat="45.5010731" lon="11.144945"><ele>449.0</ele><time>2026-04-18T11:14:31.749Z</time></trkpt><trkpt lat="45.5011528" lon="11.1449881"><ele>449.6</ele><time>2026-04-18T11:14:32.749Z</time></trkpt><trkpt lat="45.5012264" lon="11.1450116"><ele>450.2</ele><time>2026-04-18T11:14:33.749Z</time></trkpt><trkpt lat="45.501319" lon="11.1450406"><ele>450.80000000000007</ele><time>2026-04-18T11:14:34.749Z</time></trkpt><trkpt lat="45.5014154" lon="11.145083"><ele>451.40000000000003</ele><time>2026-04-18T11:14:35.749Z</time></trkpt><trkpt lat="45.5015112" lon="11.1451393"><ele>452.0</ele><time>2026-04-18T11:14:36.749Z</time></trkpt><trkpt lat="45.5016165" lon="11.1452034"><ele>452.75</ele><time>2026-04-18T11:14:37.749Z</time></trkpt><trkpt lat="45.5017207" lon="11.1452745"><ele>453.5</ele><time>2026-04-18T11:14:38.749Z</time></trkpt><trkpt lat="45.5018358" lon="11.1453388"><ele>454.25</ele><time>2026-04-18T11:14:39.749Z</time></trkpt><trkpt lat="45.5019463" lon="11.1453961"><ele>455.0</ele><time>2026-04-18T11:14:40.749Z</time></trkpt><trkpt lat="45.50206" lon="11.1454523"><ele>457.5</ele><time>2026-04-18T11:14:41.749Z</time></trkpt><trkpt lat="45.5021911" lon="11.1455104"><ele>460.0</ele><time>2026-04-18T11:14:42.749Z</time></trkpt><trkpt lat="45.5023067" lon="11.1455632"><ele>462.5</ele><time>2026-04-18T11:14:43.749Z</time></trkpt><trkpt lat="45.5024169" lon="11.1456128"><ele>465.0</ele><time>2026-04-18T11:14:44.749Z</time></trkpt><trkpt lat="45.5025105" lon="11.1456625"><ele>465.0</ele><time>2026-04-18T11:14:45.749Z</time></trkpt><trkpt lat="45.5026019" lon="11.145697"><ele>465.0</ele><time>2026-04-18T11:14:46.749Z</time></trkpt><trkpt lat="45.502681" lon="11.1457275"><ele>465.0</ele><time>2026-04-18T11:14:47.749Z</time></trkpt><trkpt lat="45.5027643" lon="11.1457701"><ele>465.0</ele><time>2026-04-18T11:14:48.749Z</time></trkpt><trkpt lat="45.5028363" lon="11.1458081"><ele>465.0</ele><time>2026-04-18T11:14:49.749Z</time></trkpt><trkpt lat="45.5029139" lon="11.1458426"><ele>465.0</ele><time>2026-04-18T11:14:50.749Z</time></trkpt><trkpt lat="45.502986" lon="11.1458645"><ele>464.42857142857144</ele><time>2026-04-18T11:14:51.75Z</time></trkpt><trkpt lat="45.5030561" lon="11.1458793"><ele>463.8571428571429</ele><time>2026-04-18T11:14:52.749Z</time></trkpt><trkpt lat="45.5031228" lon="11.1458913"><ele>463.28571428571433</ele><time>2026-04-18T11:14:53.749Z</time></trkpt><trkpt lat="45.50319" lon="11.14589"><ele>462.7142857142857</ele><time>2026-04-18T11:14:54.749Z</time></trkpt><trkpt lat="45.5032591" lon="11.1458777"><ele>462.1428571428572</ele><time>2026-04-18T11:14:55.749Z</time></trkpt><trkpt lat="45.5033318" lon="11.1458612"><ele>461.5714285714286</ele><time>2026-04-18T11:14:56.749Z</time></trkpt><trkpt lat="45.5034041" lon="11.1458413"><ele>461.0</ele><time>2026-04-18T11:14:57.749Z</time></trkpt><trkpt lat="45.5034802" lon="11.1458207"><ele>460.99999999999994</ele><time>2026-04-18T11:14:58.749Z</time></trkpt><trkpt lat="45.503556" lon="11.1457987"><ele>461.0</ele><time>2026-04-18T11:14:59.749Z</time></trkpt><trkpt lat="45.5036341" lon="11.1457713"><ele>461.0</ele><time>2026-04-18T11:15:00.749Z</time></trkpt><trkpt lat="45.5037122" lon="11.145748"><ele>461.0</ele><time>2026-04-18T11:15:01.749Z</time></trkpt><trkpt lat="45.5037903" lon="11.1457301"><ele>460.99999999999994</ele><time>2026-04-18T11:15:02.749Z</time></trkpt><trkpt lat="45.5038798" lon="11.1457101"><ele>461.0</ele><time>2026-04-18T11:15:03.749Z</time></trkpt><trkpt lat="45.5039737" lon="11.1457008"><ele>460.6</ele><time>2026-04-18T11:15:04.75Z</time></trkpt><trkpt lat="45.504083" lon="11.1456982"><ele>460.20000000000005</ele><time>2026-04-18T11:15:05.749Z</time></trkpt><trkpt lat="45.5041931" lon="11.1456996"><ele>459.79999999999995</ele><time>2026-04-18T11:15:06.749Z</time></trkpt><trkpt lat="45.5042989" lon="11.1457082"><ele>459.4</ele><time>2026-04-18T11:15:07.749Z</time></trkpt><trkpt lat="45.5043953" lon="11.1457123"><ele>459.0</ele><time>2026-04-18T11:15:08.749Z</time></trkpt><trkpt lat="45.504476" lon="11.1457159"><ele>459.0</ele><time>2026-04-18T11:15:09.749Z</time></trkpt><trkpt lat="45.5045494" lon="11.1457179"><ele>459.0</ele><time>2026-04-18T11:15:10.749Z</time></trkpt><trkpt lat="45.5046262" lon="11.1457174"><ele>459.0</ele><time>2026-04-18T11:15:11.75Z</time></trkpt><trkpt lat="45.5047044" lon="11.1457122"><ele>459.0</ele><time>2026-04-18T11:15:12.749Z</time></trkpt><trkpt lat="45.5047788" lon="11.1457103"><ele>459.0</ele><time>2026-04-18T11:15:13.749Z</time></trkpt><trkpt lat="45.5048992" lon="11.1456995"><ele>459.0</ele><time>2026-04-18T11:15:15.749Z</time></trkpt><trkpt lat="45.5049993" lon="11.1456836"><ele>460.3333333333333</ele><time>2026-04-18T11:15:17.749Z</time></trkpt><trkpt lat="45.5050694" lon="11.1456725"><ele>461.66666666666663</ele><time>2026-04-18T11:15:18.749Z</time></trkpt><trkpt lat="45.5051532" lon="11.1456566"><ele>463.0</ele><time>2026-04-18T11:15:19.749Z</time></trkpt><trkpt lat="45.5052333" lon="11.1456368"><ele>464.3333333333333</ele><time>2026-04-18T11:15:20.75Z</time></trkpt><trkpt lat="45.505308" lon="11.1456217"><ele>465.66666666666663</ele><time>2026-04-18T11:15:21.749Z</time></trkpt><trkpt lat="45.5053841" lon="11.1456109"><ele>467.0</ele><time>2026-04-18T11:15:22.749Z</time></trkpt><trkpt lat="45.50546" lon="11.1456097"><ele>464.71428571428567</ele><time>2026-04-18T11:15:23.749Z</time></trkpt><trkpt lat="45.5055318" lon="11.1456105"><ele>462.42857142857144</ele><time>2026-04-18T11:15:24.749Z</time></trkpt><trkpt lat="45.5056085" lon="11.1456069"><ele>460.1428571428571</ele><time>2026-04-18T11:15:25.749Z</time></trkpt><trkpt lat="45.5056844" lon="11.1456011"><ele>457.85714285714283</ele><time>2026-04-18T11:15:26.749Z</time></trkpt><trkpt lat="45.5057581" lon="11.1456018"><ele>455.57142857142856</ele><time>2026-04-18T11:15:27.749Z</time></trkpt><trkpt lat="45.5058318" lon="11.1456085"><ele>453.2857142857143</ele><time>2026-04-18T11:15:28.749Z</time></trkpt><trkpt lat="45.5059048" lon="11.1456074"><ele>451.0</ele><time>2026-04-18T11:15:29.749Z</time></trkpt><trkpt lat="45.5059758" lon="11.1456092"><ele>451.00000000000006</ele><time>2026-04-18T11:15:30.749Z</time></trkpt><trkpt lat="45.5060446" lon="11.1456069"><ele>451.0</ele><time>2026-04-18T11:15:31.749Z</time></trkpt><trkpt lat="45.5061087" lon="11.1456085"><ele>451.0</ele><time>2026-04-18T11:15:32.749Z</time></trkpt><trkpt lat="45.506227" lon="11.1456322"><ele>451.0</ele><time>2026-04-18T11:15:34.749Z</time></trkpt><trkpt lat="45.5062855" lon="11.1456746"><ele>451.00000000000006</ele><time>2026-04-18T11:15:35.749Z</time></trkpt><trkpt lat="45.5063472" lon="11.1457508"><ele>451.0</ele><time>2026-04-18T11:15:36.749Z</time></trkpt><trkpt lat="45.5064156" lon="11.14585"><ele>449.83333333333337</ele><time>2026-04-18T11:15:37.749Z</time></trkpt><trkpt lat="45.5064753" lon="11.1459338"><ele>448.6666666666667</ele><time>2026-04-18T11:15:38.749Z</time></trkpt><trkpt lat="45.5065312" lon="11.1460065"><ele>447.5</ele><time>2026-04-18T11:15:39.749Z</time></trkpt><trkpt lat="45.5066145" lon="11.1461092"><ele>446.33333333333337</ele><time>2026-04-18T11:15:41.749Z</time></trkpt><trkpt lat="45.5066775" lon="11.1461892"><ele>445.1666666666667</ele><time>2026-04-18T11:15:44.749Z</time></trkpt><trkpt lat="45.5066986" lon="11.1462751"><ele>444.0</ele><time>2026-04-18T11:15:48.749Z</time></trkpt><trkpt lat="45.5067069" lon="11.1463748"><ele>444.0</ele><time>2026-04-18T11:15:58.749Z</time></trkpt><trkpt lat="45.5068105" lon="11.1464069"><ele>444.0</ele><time>2026-04-18T11:16:00.749Z</time></trkpt><trkpt lat="45.5068805" lon="11.1464225"><ele>444.0</ele><time>2026-04-18T11:16:01.749Z</time></trkpt><trkpt lat="45.5069463" lon="11.1464425"><ele>444.0</ele><time>2026-04-18T11:16:02.749Z</time></trkpt><trkpt lat="45.5070198" lon="11.1464634"><ele>444.0</ele><time>2026-04-18T11:16:03.749Z</time></trkpt><trkpt lat="45.5070883" lon="11.1464809"><ele>444.0</ele><time>2026-04-18T11:16:04.749Z</time></trkpt><trkpt lat="45.5071518" lon="11.1464962"><ele>443.4</ele><time>2026-04-18T11:16:05.749Z</time></trkpt><trkpt lat="45.5072807" lon="11.14653"><ele>442.79999999999995</ele><time>2026-04-18T11:16:07.749Z</time></trkpt><trkpt lat="45.507359" lon="11.1465489"><ele>442.20000000000005</ele><time>2026-04-18T11:16:08.749Z</time></trkpt><trkpt lat="45.507439" lon="11.1465701"><ele>441.6</ele><time>2026-04-18T11:16:09.749Z</time></trkpt><trkpt lat="45.5075284" lon="11.1465915"><ele>441.0</ele><time>2026-04-18T11:16:10.749Z</time></trkpt><trkpt lat="45.5076225" lon="11.1466063"><ele>442.20000000000005</ele><time>2026-04-18T11:16:11.749Z</time></trkpt><trkpt lat="45.5077194" lon="11.1466168"><ele>443.40000000000003</ele><time>2026-04-18T11:16:12.749Z</time></trkpt><trkpt lat="45.5078182" lon="11.146614"><ele>444.6</ele><time>2026-04-18T11:16:13.75Z</time></trkpt><trkpt lat="45.5079158" lon="11.1465953"><ele>445.8</ele><time>2026-04-18T11:16:14.749Z</time></trkpt><trkpt lat="45.508009" lon="11.1465716"><ele>447.0</ele><time>2026-04-18T11:16:15.749Z</time></trkpt><trkpt lat="45.5080947" lon="11.1465424"><ele>447.0</ele><time>2026-04-18T11:16:16.749Z</time></trkpt><trkpt lat="45.508179" lon="11.1465082"><ele>447.0</ele><time>2026-04-18T11:16:17.749Z</time></trkpt><trkpt lat="45.5082622" lon="11.1464706"><ele>447.0</ele><time>2026-04-18T11:16:18.75Z</time></trkpt><trkpt lat="45.50834" lon="11.1464223"><ele>447.0</ele><time>2026-04-18T11:16:19.749Z</time></trkpt><trkpt lat="45.5084191" lon="11.1463731"><ele>447.0</ele><time>2026-04-18T11:16:20.749Z</time></trkpt><trkpt lat="45.5085018" lon="11.1463272"><ele>447.0</ele><time>2026-04-18T11:16:21.749Z</time></trkpt><trkpt lat="45.508584" lon="11.1462777"><ele>447.0</ele><time>2026-04-18T11:16:22.75Z</time></trkpt><trkpt lat="45.5086655" lon="11.1462219"><ele>447.0</ele><time>2026-04-18T11:16:23.749Z</time></trkpt><trkpt lat="45.5087453" lon="11.1461696"><ele>447.0</ele><time>2026-04-18T11:16:24.749Z</time></trkpt><trkpt lat="45.5088167" lon="11.1461213"><ele>447.0</ele><time>2026-04-18T11:16:25.749Z</time></trkpt><trkpt lat="45.5088811" lon="11.1460768"><ele>447.0</ele><time>2026-04-18T11:16:26.749Z</time></trkpt><trkpt lat="45.5089388" lon="11.1460368"><ele>447.0</ele><time>2026-04-18T11:16:27.749Z</time></trkpt><trkpt lat="45.5090485" lon="11.1459596"><ele>448.20000000000005</ele><time>2026-04-18T11:16:29.749Z</time></trkpt><trkpt lat="45.5091614" lon="11.1458909"><ele>449.40000000000003</ele><time>2026-04-18T11:16:31.75Z</time></trkpt><trkpt lat="45.5092189" lon="11.1458543"><ele>450.59999999999997</ele><time>2026-04-18T11:16:32.749Z</time></trkpt><trkpt lat="45.5092792" lon="11.1458153"><ele>451.79999999999995</ele><time>2026-04-18T11:16:33.749Z</time></trkpt><trkpt lat="45.5093835" lon="11.1457488"><ele>453.0</ele><time>2026-04-18T11:16:35.749Z</time></trkpt><trkpt lat="45.50947" lon="11.1457061"><ele>453.6666666666667</ele><time>2026-04-18T11:16:37.749Z</time></trkpt><trkpt lat="45.5095362" lon="11.145666"><ele>454.33333333333337</ele><time>2026-04-18T11:16:39.749Z</time></trkpt><trkpt lat="45.5095928" lon="11.1456227"><ele>455.0</ele><time>2026-04-18T11:16:41.749Z</time></trkpt><trkpt lat="45.5096649" lon="11.1455768"><ele>455.6666666666667</ele><time>2026-04-18T11:16:43.749Z</time></trkpt><trkpt lat="45.5097567" lon="11.1455224"><ele>456.33333333333337</ele><time>2026-04-18T11:16:45.75Z</time></trkpt><trkpt lat="45.5098815" lon="11.1454515"><ele>457.0</ele><time>2026-04-18T11:16:47.749Z</time></trkpt><trkpt lat="45.5099682" lon="11.145396"><ele>457.0</ele><time>2026-04-18T11:16:48.749Z</time></trkpt><trkpt lat="45.5100629" lon="11.1453338"><ele>457.00000000000006</ele><time>2026-04-18T11:16:49.749Z</time></trkpt><trkpt lat="45.5101642" lon="11.1452707"><ele>457.00000000000006</ele><time>2026-04-18T11:16:50.75Z</time></trkpt><trkpt lat="45.510258" lon="11.1452173"><ele>457.0</ele><time>2026-04-18T11:16:51.749Z</time></trkpt><trkpt lat="45.5103421" lon="11.1451719"><ele>457.0</ele><time>2026-04-18T11:16:52.749Z</time></trkpt><trkpt lat="45.5104049" lon="11.1451365"><ele>458.0</ele><time>2026-04-18T11:16:53.749Z</time></trkpt><trkpt lat="45.5104723" lon="11.1451077"><ele>459.00000000000006</ele><time>2026-04-18T11:16:55.749Z</time></trkpt><trkpt lat="45.510552" lon="11.1450269"><ele>460.00000000000006</ele><time>2026-04-18T11:18:10.749Z</time></trkpt><trkpt lat="45.5106265" lon="11.1449832"><ele>461.0</ele><time>2026-04-18T11:18:11.749Z</time></trkpt><trkpt lat="45.5107223" lon="11.1449436"><ele>462.0</ele><time>2026-04-18T11:18:12.749Z</time></trkpt><trkpt lat="45.510828" lon="11.1449036"><ele>462.25</ele><time>2026-04-18T11:18:13.749Z</time></trkpt><trkpt lat="45.5109493" lon="11.1448504"><ele>462.5</ele><time>2026-04-18T11:18:14.749Z</time></trkpt><trkpt lat="45.5110784" lon="11.1447887"><ele>462.75</ele><time>2026-04-18T11:18:15.749Z</time></trkpt><trkpt lat="45.5112099" lon="11.144726"><ele>463.0</ele><time>2026-04-18T11:18:16.749Z</time></trkpt><trkpt lat="45.5113523" lon="11.1446616"><ele>463.0</ele><time>2026-04-18T11:18:17.749Z</time></trkpt><trkpt lat="45.5114944" lon="11.1445842"><ele>463.0</ele><time>2026-04-18T11:18:18.749Z</time></trkpt><trkpt lat="45.5116417" lon="11.1444984"><ele>463.0</ele><time>2026-04-18T11:18:19.749Z</time></trkpt><trkpt lat="45.5117883" lon="11.144409"><ele>463.0</ele><time>2026-04-18T11:18:20.749Z</time></trkpt><trkpt lat="45.5119326" lon="11.1443122"><ele>463.0</ele><time>2026-04-18T11:18:21.75Z</time></trkpt><trkpt lat="45.5120718" lon="11.144196"><ele>463.0</ele><time>2026-04-18T11:18:22.749Z</time></trkpt><trkpt lat="45.512204" lon="11.1440658"><ele>465.0</ele><time>2026-04-18T11:18:23.749Z</time></trkpt><trkpt lat="45.5123475" lon="11.1439143"><ele>467.0</ele><time>2026-04-18T11:18:24.749Z</time></trkpt><trkpt lat="45.5124977" lon="11.1437515"><ele>469.0</ele><time>2026-04-18T11:18:25.749Z</time></trkpt><trkpt lat="45.512656" lon="11.1435845"><ele>469.0</ele><time>2026-04-18T11:18:26.749Z</time></trkpt><trkpt lat="45.512796" lon="11.1434393"><ele>469.0</ele><time>2026-04-18T11:18:27.749Z</time></trkpt><trkpt lat="45.5129214" lon="11.1433086"><ele>469.0</ele><time>2026-04-18T11:18:28.749Z</time></trkpt><trkpt lat="45.5130367" lon="11.1431869"><ele>470.33333333333337</ele><time>2026-04-18T11:18:29.749Z</time></trkpt><trkpt lat="45.513166" lon="11.1430714"><ele>471.66666666666663</ele><time>2026-04-18T11:18:30.749Z</time></trkpt><trkpt lat="45.5133172" lon="11.1429796"><ele>473.0</ele><time>2026-04-18T11:18:31.749Z</time></trkpt><trkpt lat="45.5134972" lon="11.1429264"><ele>473.0</ele><time>2026-04-18T11:18:32.749Z</time></trkpt><trkpt lat="45.5136783" lon="11.1428955"><ele>473.0</ele><time>2026-04-18T11:18:33.749Z</time></trkpt><trkpt lat="45.5138363" lon="11.1428763"><ele>473.0</ele><time>2026-04-18T11:18:34.749Z</time></trkpt><trkpt lat="45.5140008" lon="11.1428726"><ele>474.66666666666663</ele><time>2026-04-18T11:18:35.749Z</time></trkpt><trkpt lat="45.514184" lon="11.1429052"><ele>476.33333333333337</ele><time>2026-04-18T11:18:36.749Z</time></trkpt><trkpt lat="45.5143843" lon="11.1429875"><ele>478.0</ele><time>2026-04-18T11:18:37.749Z</time></trkpt><trkpt lat="45.5145971" lon="11.1430755"><ele>478.0</ele><time>2026-04-18T11:18:38.749Z</time></trkpt><trkpt lat="45.5148115" lon="11.1431683"><ele>478.0</ele><time>2026-04-18T11:18:39.749Z</time></trkpt><trkpt lat="45.515045" lon="11.1432611"><ele>485.33333333333337</ele><time>2026-04-18T11:18:40.749Z</time></trkpt><trkpt lat="45.5152537" lon="11.1433383"><ele>492.66666666666663</ele><time>2026-04-18T11:18:41.75Z</time></trkpt><trkpt lat="45.515458" lon="11.1433881"><ele>500.0</ele><time>2026-04-18T11:18:42.749Z</time></trkpt><trkpt lat="45.5156566" lon="11.1434376"><ele>500.0</ele><time>2026-04-18T11:18:43.749Z</time></trkpt><trkpt lat="45.5158394" lon="11.1434777"><ele>500.0</ele><time>2026-04-18T11:18:44.749Z</time></trkpt><trkpt lat="45.5160122" lon="11.143506"><ele>500.0</ele><time>2026-04-18T11:18:45.749Z</time></trkpt><trkpt lat="45.5161796" lon="11.1435196"><ele>502.0</ele><time>2026-04-18T11:18:46.749Z</time></trkpt><trkpt lat="45.5163515" lon="11.1435217"><ele>504.0</ele><time>2026-04-18T11:18:47.749Z</time></trkpt><trkpt lat="45.5165203" lon="11.1434988"><ele>506.0</ele><time>2026-04-18T11:18:48.749Z</time></trkpt><trkpt lat="45.5166891" lon="11.1434581"><ele>506.0</ele><time>2026-04-18T11:18:49.749Z</time></trkpt><trkpt lat="45.5168562" lon="11.1434043"><ele>506.0</ele><time>2026-04-18T11:18:50.75Z</time></trkpt><trkpt lat="45.5170276" lon="11.1433474"><ele>506.0</ele><time>2026-04-18T11:18:51.749Z</time></trkpt><trkpt lat="45.5171974" lon="11.1432862"><ele>504.66666666666663</ele><time>2026-04-18T11:18:52.749Z</time></trkpt><trkpt lat="45.5173694" lon="11.1432263"><ele>503.33333333333337</ele><time>2026-04-18T11:18:53.749Z</time></trkpt><trkpt lat="45.5175426" lon="11.1431601"><ele>502.0</ele><time>2026-04-18T11:18:54.749Z</time></trkpt><trkpt lat="45.5177194" lon="11.1430936"><ele>502.0</ele><time>2026-04-18T11:18:55.749Z</time></trkpt><trkpt lat="45.5178996" lon="11.1430229"><ele>502.0</ele><time>2026-04-18T11:18:56.749Z</time></trkpt><trkpt lat="45.5180794" lon="11.1429529"><ele>502.0</ele><time>2026-04-18T11:18:57.749Z</time></trkpt><trkpt lat="45.5182642" lon="11.1428835"><ele>504.6666666666667</ele><time>2026-04-18T11:18:58.749Z</time></trkpt><trkpt lat="45.5184392" lon="11.1428225"><ele>507.33333333333337</ele><time>2026-04-18T11:18:59.749Z</time></trkpt><trkpt lat="45.5186048" lon="11.1427607"><ele>510.0</ele><time>2026-04-18T11:19:00.749Z</time></trkpt><trkpt lat="45.5187744" lon="11.1426963"><ele>511.66666666666663</ele><time>2026-04-18T11:19:01.749Z</time></trkpt><trkpt lat="45.5189514" lon="11.1426314"><ele>513.3333333333333</ele><time>2026-04-18T11:19:02.749Z</time></trkpt><trkpt lat="45.5191296" lon="11.1425643"><ele>515.0</ele><time>2026-04-18T11:19:03.749Z</time></trkpt><trkpt lat="45.5193113" lon="11.1424964"><ele>515.0</ele><time>2026-04-18T11:19:04.749Z</time></trkpt><trkpt lat="45.5194997" lon="11.14243"><ele>515.0</ele><time>2026-04-18T11:19:05.749Z</time></trkpt><trkpt lat="45.5196896" lon="11.1423614"><ele>515.0</ele><time>2026-04-18T11:19:06.749Z</time></trkpt><trkpt lat="45.5198803" lon="11.1422932"><ele>515.3333333333333</ele><time>2026-04-18T11:19:07.749Z</time></trkpt><trkpt lat="45.5200747" lon="11.1422193"><ele>515.6666666666666</ele><time>2026-04-18T11:19:08.749Z</time></trkpt><trkpt lat="45.5202757" lon="11.1421456"><ele>516.0</ele><time>2026-04-18T11:19:09.75Z</time></trkpt><trkpt lat="45.5204786" lon="11.1420699"><ele>520.0</ele><time>2026-04-18T11:19:10.749Z</time></trkpt><trkpt lat="45.5206871" lon="11.1419939"><ele>524.0</ele><time>2026-04-18T11:19:11.749Z</time></trkpt><trkpt lat="45.5208973" lon="11.1419157"><ele>528.0</ele><time>2026-04-18T11:19:12.749Z</time></trkpt><trkpt lat="45.5211074" lon="11.1418385"><ele>531.3333333333334</ele><time>2026-04-18T11:19:13.749Z</time></trkpt><trkpt lat="45.5213219" lon="11.1417565"><ele>534.6666666666667</ele><time>2026-04-18T11:19:14.749Z</time></trkpt><trkpt lat="45.5215341" lon="11.1416751"><ele>538.0</ele><time>2026-04-18T11:19:15.749Z</time></trkpt><trkpt lat="45.5217449" lon="11.1415962"><ele>535.3333333333334</ele><time>2026-04-18T11:19:16.749Z</time></trkpt><trkpt lat="45.5219492" lon="11.1415013"><ele>532.6666666666666</ele><time>2026-04-18T11:19:17.75Z</time></trkpt><trkpt lat="45.5221479" lon="11.141382"><ele>530.0</ele><time>2026-04-18T11:19:18.749Z</time></trkpt><trkpt lat="45.5223372" lon="11.1412366"><ele>536.0</ele><time>2026-04-18T11:19:19.749Z</time></trkpt><trkpt lat="45.5225204" lon="11.1410713"><ele>542.0</ele><time>2026-04-18T11:19:20.749Z</time></trkpt><trkpt lat="45.5227028" lon="11.1408963"><ele>548.0</ele><time>2026-04-18T11:19:21.749Z</time></trkpt><trkpt lat="45.5228785" lon="11.1407279"><ele>550.3333333333333</ele><time>2026-04-18T11:19:22.749Z</time></trkpt><trkpt lat="45.5230444" lon="11.1405663"><ele>552.6666666666666</ele><time>2026-04-18T11:19:23.749Z</time></trkpt><trkpt lat="45.5231986" lon="11.1404158"><ele>555.0</ele><time>2026-04-18T11:19:24.749Z</time></trkpt><trkpt lat="45.523341" lon="11.1402805"><ele>555.0</ele><time>2026-04-18T11:19:25.749Z</time></trkpt><trkpt lat="45.5234676" lon="11.1401625"><ele>555.0</ele><time>2026-04-18T11:19:26.749Z</time></trkpt><trkpt lat="45.5235949" lon="11.1400566"><ele>555.0</ele><time>2026-04-18T11:19:27.749Z</time></trkpt><trkpt lat="45.5237434" lon="11.1399642"><ele>553.3333333333334</ele><time>2026-04-18T11:19:28.749Z</time></trkpt><trkpt lat="45.5239109" lon="11.1399039"><ele>551.6666666666667</ele><time>2026-04-18T11:19:29.749Z</time></trkpt><trkpt lat="45.5240934" lon="11.1398724"><ele>550.0</ele><time>2026-04-18T11:19:30.749Z</time></trkpt><trkpt lat="45.5242701" lon="11.1398522"><ele>550.0</ele><time>2026-04-18T11:19:31.749Z</time></trkpt><trkpt lat="45.5244318" lon="11.1398404"><ele>550.0</ele><time>2026-04-18T11:19:32.749Z</time></trkpt><trkpt lat="45.5245964" lon="11.1398038"><ele>550.0</ele><time>2026-04-18T11:19:33.749Z</time></trkpt><trkpt lat="45.5247607" lon="11.1397039"><ele>554.3333333333334</ele><time>2026-04-18T11:19:34.749Z</time></trkpt><trkpt lat="45.5249201" lon="11.1395666"><ele>558.6666666666666</ele><time>2026-04-18T11:19:35.749Z</time></trkpt><trkpt lat="45.5250748" lon="11.1394058"><ele>563.0</ele><time>2026-04-18T11:19:36.749Z</time></trkpt><trkpt lat="45.5252311" lon="11.1392354"><ele>563.0</ele><time>2026-04-18T11:19:37.749Z</time></trkpt><trkpt lat="45.5253748" lon="11.1390681"><ele>563.0</ele><time>2026-04-18T11:19:38.749Z</time></trkpt><trkpt lat="45.5255149" lon="11.1389075"><ele>563.0</ele><time>2026-04-18T11:19:39.749Z</time></trkpt><trkpt lat="45.5256485" lon="11.1387516"><ele>566.0</ele><time>2026-04-18T11:19:40.749Z</time></trkpt><trkpt lat="45.525775" lon="11.1386092"><ele>569.0</ele><time>2026-04-18T11:19:41.749Z</time></trkpt><trkpt lat="45.5259096" lon="11.1384677"><ele>572.0</ele><time>2026-04-18T11:19:42.749Z</time></trkpt><trkpt lat="45.5260617" lon="11.138337"><ele>572.0</ele><time>2026-04-18T11:19:43.749Z</time></trkpt><trkpt lat="45.5262258" lon="11.1382309"><ele>572.0</ele><time>2026-04-18T11:19:44.749Z</time></trkpt><trkpt lat="45.5264044" lon="11.1381516"><ele>572.0</ele><time>2026-04-18T11:19:45.75Z</time></trkpt><trkpt lat="45.5265918" lon="11.1380945"><ele>570.0</ele><time>2026-04-18T11:19:46.749Z</time></trkpt><trkpt lat="45.5267859" lon="11.1380557"><ele>568.0</ele><time>2026-04-18T11:19:47.749Z</time></trkpt><trkpt lat="45.5269812" lon="11.1380263"><ele>566.0</ele><time>2026-04-18T11:19:48.749Z</time></trkpt><trkpt lat="45.5271722" lon="11.1379935"><ele>570.0</ele><time>2026-04-18T11:19:49.749Z</time></trkpt><trkpt lat="45.5273505" lon="11.1379624"><ele>574.0</ele><time>2026-04-18T11:19:50.749Z</time></trkpt><trkpt lat="45.5275192" lon="11.1379349"><ele>578.0</ele><time>2026-04-18T11:19:51.749Z</time></trkpt><trkpt lat="45.5276773" lon="11.1379085"><ele>578.0</ele><time>2026-04-18T11:19:52.749Z</time></trkpt><trkpt lat="45.5278274" lon="11.1378907"><ele>578.0</ele><time>2026-04-18T11:19:53.749Z</time></trkpt><trkpt lat="45.5279627" lon="11.1378787"><ele>578.0</ele><time>2026-04-18T11:19:54.749Z</time></trkpt><trkpt lat="45.5280979" lon="11.1378798"><ele>578.0</ele><time>2026-04-18T11:19:55.749Z</time></trkpt><trkpt lat="45.5282391" lon="11.1378956"><ele>580.3333333333333</ele><time>2026-04-18T11:19:56.749Z</time></trkpt><trkpt lat="45.5283923" lon="11.1379383"><ele>582.6666666666666</ele><time>2026-04-18T11:19:57.749Z</time></trkpt><trkpt lat="45.5285613" lon="11.1379983"><ele>585.0</ele><time>2026-04-18T11:19:58.749Z</time></trkpt><trkpt lat="45.5287376" lon="11.1380643"><ele>585.3333333333334</ele><time>2026-04-18T11:19:59.749Z</time></trkpt><trkpt lat="45.528909" lon="11.1381291"><ele>585.6666666666667</ele><time>2026-04-18T11:20:00.749Z</time></trkpt><trkpt lat="45.529069" lon="11.138188"><ele>586.0</ele><time>2026-04-18T11:20:01.749Z</time></trkpt><trkpt lat="45.5292191" lon="11.1382389"><ele>586.0</ele><time>2026-04-18T11:20:02.749Z</time></trkpt><trkpt lat="45.5293597" lon="11.1382807"><ele>586.0</ele><time>2026-04-18T11:20:03.749Z</time></trkpt><trkpt lat="45.5294859" lon="11.138305"><ele>586.0</ele><time>2026-04-18T11:20:04.749Z</time></trkpt><trkpt lat="45.529587" lon="11.1383125"><ele>586.0</ele><time>2026-04-18T11:20:05.749Z</time></trkpt><trkpt lat="45.5296721" lon="11.1383201"><ele>586.3333333333334</ele><time>2026-04-18T11:20:06.749Z</time></trkpt><trkpt lat="45.5297423" lon="11.1383294"><ele>586.6666666666667</ele><time>2026-04-18T11:20:07.75Z</time></trkpt><trkpt lat="45.5298056" lon="11.1383463"><ele>587.0</ele><time>2026-04-18T11:20:08.749Z</time></trkpt><trkpt lat="45.529926" lon="11.1383596"><ele>587.3333333333334</ele><time>2026-04-18T11:20:10.749Z</time></trkpt><trkpt lat="45.5299909" lon="11.1383646"><ele>587.6666666666666</ele><time>2026-04-18T11:20:11.749Z</time></trkpt><trkpt lat="45.5300582" lon="11.1383699"><ele>588.0</ele><time>2026-04-18T11:20:12.749Z</time></trkpt><trkpt lat="45.5301833" lon="11.1383735"><ele>588.0</ele><time>2026-04-18T11:20:14.749Z</time></trkpt><trkpt lat="45.5302496" lon="11.1383817"><ele>588.0</ele><time>2026-04-18T11:20:15.749Z</time></trkpt><trkpt lat="45.5303181" lon="11.1383877"><ele>588.0</ele><time>2026-04-18T11:20:16.749Z</time></trkpt><trkpt lat="45.5303911" lon="11.1383952"><ele>588.0</ele><time>2026-04-18T11:20:17.749Z</time></trkpt><trkpt lat="45.5304631" lon="11.1384062"><ele>588.0</ele><time>2026-04-18T11:20:18.749Z</time></trkpt><trkpt lat="45.5305393" lon="11.1384181"><ele>588.0</ele><time>2026-04-18T11:20:19.749Z</time></trkpt><trkpt lat="45.530617" lon="11.1384297"><ele>588.0</ele><time>2026-04-18T11:20:20.749Z</time></trkpt><trkpt lat="45.5306938" lon="11.1384507"><ele>588.0</ele><time>2026-04-18T11:20:21.749Z</time></trkpt><trkpt lat="45.5307733" lon="11.1384708"><ele>588.0</ele><time>2026-04-18T11:20:22.749Z</time></trkpt><trkpt lat="45.5308529" lon="11.1384947"><ele>588.0</ele><time>2026-04-18T11:20:23.75Z</time></trkpt><trkpt lat="45.5309453" lon="11.1385337"><ele>588.0</ele><time>2026-04-18T11:20:24.749Z</time></trkpt><trkpt lat="45.5310432" lon="11.1385849"><ele>588.0</ele><time>2026-04-18T11:20:25.749Z</time></trkpt><trkpt lat="45.5311431" lon="11.1386372"><ele>589.6</ele><time>2026-04-18T11:20:26.749Z</time></trkpt><trkpt lat="45.5312474" lon="11.1386995"><ele>591.1999999999999</ele><time>2026-04-18T11:20:27.749Z</time></trkpt><trkpt lat="45.5313473" lon="11.1387593"><ele>592.8</ele><time>2026-04-18T11:20:28.749Z</time></trkpt><trkpt lat="45.531445" lon="11.1388138"><ele>594.4</ele><time>2026-04-18T11:20:29.749Z</time></trkpt><trkpt lat="45.5315381" lon="11.1388662"><ele>596.0</ele><time>2026-04-18T11:20:30.749Z</time></trkpt><trkpt lat="45.5316277" lon="11.1389168"><ele>596.0</ele><time>2026-04-18T11:20:31.749Z</time></trkpt><trkpt lat="45.5317156" lon="11.1389657"><ele>596.0</ele><time>2026-04-18T11:20:32.75Z</time></trkpt><trkpt lat="45.5317979" lon="11.1390052"><ele>596.0</ele><time>2026-04-18T11:20:33.749Z</time></trkpt><trkpt lat="45.5318732" lon="11.1390472"><ele>596.0</ele><time>2026-04-18T11:20:34.749Z</time></trkpt><trkpt lat="45.5319459" lon="11.13909"><ele>596.0</ele><time>2026-04-18T11:20:35.749Z</time></trkpt><trkpt lat="45.5320177" lon="11.1391387"><ele>596.0</ele><time>2026-04-18T11:20:36.749Z</time></trkpt><trkpt lat="45.5320898" lon="11.139222"><ele>593.0</ele><time>2026-04-18T11:20:37.749Z</time></trkpt><trkpt lat="45.5321685" lon="11.1393171"><ele>590.0</ele><time>2026-04-18T11:20:38.749Z</time></trkpt><trkpt lat="45.5322388" lon="11.1394078"><ele>587.0</ele><time>2026-04-18T11:20:39.749Z</time></trkpt><trkpt lat="45.5323042" lon="11.1394913"><ele>584.0</ele><time>2026-04-18T11:20:40.75Z</time></trkpt><trkpt lat="45.5323651" lon="11.1395673"><ele>581.0</ele><time>2026-04-18T11:20:41.749Z</time></trkpt><trkpt lat="45.5324271" lon="11.1396495"><ele>581.0</ele><time>2026-04-18T11:20:42.749Z</time></trkpt><trkpt lat="45.5325005" lon="11.1397381"><ele>581.0</ele><time>2026-04-18T11:20:43.749Z</time></trkpt><trkpt lat="45.5325777" lon="11.1398348"><ele>581.0</ele><time>2026-04-18T11:20:44.749Z</time></trkpt><trkpt lat="45.5326481" lon="11.1399268"><ele>581.0</ele><time>2026-04-18T11:20:45.749Z</time></trkpt><trkpt lat="45.5327157" lon="11.140017"><ele>581.0</ele><time>2026-04-18T11:20:46.749Z</time></trkpt><trkpt lat="45.5327748" lon="11.140103"><ele>578.4</ele><time>2026-04-18T11:20:47.749Z</time></trkpt><trkpt lat="45.5328194" lon="11.1402031"><ele>575.8</ele><time>2026-04-18T11:20:48.749Z</time></trkpt><trkpt lat="45.5328615" lon="11.1403358"><ele>573.1999999999999</ele><time>2026-04-18T11:20:49.749Z</time></trkpt><trkpt lat="45.5328982" lon="11.1404622"><ele>570.6</ele><time>2026-04-18T11:20:50.749Z</time></trkpt><trkpt lat="45.5329359" lon="11.1405785"><ele>568.0</ele><time>2026-04-18T11:20:51.749Z</time></trkpt><trkpt lat="45.5329708" lon="11.1406865"><ele>566.1999999999999</ele><time>2026-04-18T11:20:52.749Z</time></trkpt><trkpt lat="45.5329957" lon="11.1407963"><ele>564.4</ele><time>2026-04-18T11:20:53.75Z</time></trkpt><trkpt lat="45.5330096" lon="11.1409091"><ele>562.5999999999999</ele><time>2026-04-18T11:20:54.749Z</time></trkpt><trkpt lat="45.5330193" lon="11.1410402"><ele>560.8</ele><time>2026-04-18T11:20:55.749Z</time></trkpt><trkpt lat="45.533022" lon="11.141184"><ele>559.0</ele><time>2026-04-18T11:20:56.749Z</time></trkpt><trkpt lat="45.5330223" lon="11.1413224"><ele>559.0</ele><time>2026-04-18T11:20:57.749Z</time></trkpt><trkpt lat="45.5330243" lon="11.1414566"><ele>559.0</ele><time>2026-04-18T11:20:58.749Z</time></trkpt><trkpt lat="45.5330224" lon="11.1415876"><ele>559.0</ele><time>2026-04-18T11:20:59.749Z</time></trkpt><trkpt lat="45.5330165" lon="11.1417086"><ele>559.0</ele><time>2026-04-18T11:21:00.749Z</time></trkpt><trkpt lat="45.5330104" lon="11.1418127"><ele>559.0</ele><time>2026-04-18T11:21:01.749Z</time></trkpt><trkpt lat="45.5330082" lon="11.1419036"><ele>559.0</ele><time>2026-04-18T11:21:02.749Z</time></trkpt><trkpt lat="45.5329947" lon="11.1420005"><ele>558.0</ele><time>2026-04-18T11:21:04.749Z</time></trkpt><trkpt lat="45.5330471" lon="11.1420505"><ele>557.0</ele><time>2026-04-18T11:21:34.749Z</time></trkpt><trkpt lat="45.53313" lon="11.1419855"><ele>556.0</ele><time>2026-04-18T11:21:37.749Z</time></trkpt><trkpt lat="45.5331954" lon="11.14194"><ele>555.0</ele><time>2026-04-18T11:21:39.749Z</time></trkpt><trkpt lat="45.5332574" lon="11.1418838"><ele>554.0</ele><time>2026-04-18T11:21:41.749Z</time></trkpt><trkpt lat="45.5333233" lon="11.14181"><ele>553.0</ele><time>2026-04-18T11:21:43.749Z</time></trkpt><trkpt lat="45.5333962" lon="11.1417244"><ele>553.0</ele><time>2026-04-18T11:21:45.749Z</time></trkpt><trkpt lat="45.5334749" lon="11.1416346"><ele>553.0</ele><time>2026-04-18T11:21:47.749Z</time></trkpt><trkpt lat="45.5335556" lon="11.1415666"><ele>553.0</ele><time>2026-04-18T11:21:49.749Z</time></trkpt><trkpt lat="45.5336308" lon="11.1415048"><ele>553.0</ele><time>2026-04-18T11:21:51.749Z</time></trkpt><trkpt lat="45.5336926" lon="11.1414427"><ele>553.0</ele><time>2026-04-18T11:21:53.749Z</time></trkpt><trkpt lat="45.5337607" lon="11.1413523"><ele>550.6666666666667</ele><time>2026-04-18T11:21:55.749Z</time></trkpt><trkpt lat="45.5338236" lon="11.1412467"><ele>548.3333333333334</ele><time>2026-04-18T11:21:57.749Z</time></trkpt><trkpt lat="45.5338668" lon="11.1411704"><ele>546.0</ele><time>2026-04-18T11:21:59.749Z</time></trkpt><trkpt lat="45.5339037" lon="11.1410937"><ele>543.6666666666666</ele><time>2026-04-18T11:22:01.749Z</time></trkpt><trkpt lat="45.533955" lon="11.140983"><ele>541.3333333333333</ele><time>2026-04-18T11:22:04.749Z</time></trkpt><trkpt lat="45.5340077" lon="11.140874"><ele>539.0</ele><time>2026-04-18T11:22:07.749Z</time></trkpt><trkpt lat="45.5340535" lon="11.1407558"><ele>540.1666666666666</ele><time>2026-04-18T11:23:05.749Z</time></trkpt><trkpt lat="45.5340855" lon="11.140656"><ele>541.3333333333333</ele><time>2026-04-18T11:23:07.749Z</time></trkpt><trkpt lat="45.5341074" lon="11.1405674"><ele>542.5</ele><time>2026-04-18T11:23:09.749Z</time></trkpt><trkpt lat="45.5341324" lon="11.1404607"><ele>543.6666666666666</ele><time>2026-04-18T11:23:11.749Z</time></trkpt><trkpt lat="45.534163" lon="11.1403461"><ele>544.8333333333334</ele><time>2026-04-18T11:23:13.749Z</time></trkpt><trkpt lat="45.5341918" lon="11.1402241"><ele>546.0</ele><time>2026-04-18T11:23:15.749Z</time></trkpt><trkpt lat="45.5342086" lon="11.1401015"><ele>546.0</ele><time>2026-04-18T11:23:17.749Z</time></trkpt><trkpt lat="45.5342039" lon="11.1399545"><ele>546.0</ele><time>2026-04-18T11:23:19.749Z</time></trkpt><trkpt lat="45.5341905" lon="11.1398438"><ele>546.0</ele><time>2026-04-18T11:23:20.749Z</time></trkpt><trkpt lat="45.5341813" lon="11.1397489"><ele>546.0</ele><time>2026-04-18T11:23:21.749Z</time></trkpt><trkpt lat="45.5341715" lon="11.1396409"><ele>546.0</ele><time>2026-04-18T11:23:22.749Z</time></trkpt><trkpt lat="45.5341677" lon="11.1395488"><ele>546.0</ele><time>2026-04-18T11:23:23.749Z</time></trkpt><trkpt lat="45.5341928" lon="11.1394128"><ele>548.4</ele><time>2026-04-18T11:23:25.749Z</time></trkpt><trkpt lat="45.5342752" lon="11.139283"><ele>550.8</ele><time>2026-04-18T11:23:27.749Z</time></trkpt><trkpt lat="45.5343506" lon="11.1392083"><ele>553.1999999999999</ele><time>2026-04-18T11:23:28.749Z</time></trkpt><trkpt lat="45.5344158" lon="11.1391386"><ele>555.6</ele><time>2026-04-18T11:23:29.749Z</time></trkpt><trkpt lat="45.5344799" lon="11.1391053"><ele>558.0</ele><time>2026-04-18T11:23:30.749Z</time></trkpt><trkpt lat="45.5345789" lon="11.1389987"><ele>559.8</ele><time>2026-04-18T11:23:32.749Z</time></trkpt><trkpt lat="45.5346287" lon="11.1389171"><ele>561.5999999999999</ele><time>2026-04-18T11:23:33.749Z</time></trkpt><trkpt lat="45.5346782" lon="11.1388461"><ele>563.4000000000001</ele><time>2026-04-18T11:23:34.749Z</time></trkpt><trkpt lat="45.5347606" lon="11.1388089"><ele>565.2</ele><time>2026-04-18T11:23:36.75Z</time></trkpt><trkpt lat="45.534898" lon="11.1388594"><ele>567.0</ele><time>2026-04-18T11:23:38.749Z</time></trkpt><trkpt lat="45.5349812" lon="11.1388935"><ele>567.0</ele><time>2026-04-18T11:23:39.749Z</time></trkpt><trkpt lat="45.535077" lon="11.138917"><ele>567.0</ele><time>2026-04-18T11:23:40.749Z</time></trkpt><trkpt lat="45.5351626" lon="11.1389415"><ele>567.0</ele><time>2026-04-18T11:23:41.749Z</time></trkpt><trkpt lat="45.5352454" lon="11.1389528"><ele>567.0</ele><time>2026-04-18T11:23:42.75Z</time></trkpt><trkpt lat="45.53533" lon="11.1389512"><ele>567.0</ele><time>2026-04-18T11:23:43.749Z</time></trkpt><trkpt lat="45.5354128" lon="11.1389422"><ele>567.0</ele><time>2026-04-18T11:23:44.749Z</time></trkpt><trkpt lat="45.535475" lon="11.1389206"><ele>565.0</ele><time>2026-04-18T11:23:45.749Z</time></trkpt><trkpt lat="45.5355639" lon="11.138878"><ele>563.0</ele><time>2026-04-18T11:23:47.749Z</time></trkpt><trkpt lat="45.5356183" lon="11.1387999"><ele>561.0</ele><time>2026-04-18T11:23:49.749Z</time></trkpt><trkpt lat="45.5356663" lon="11.1386595"><ele>559.0</ele><time>2026-04-18T11:23:51.749Z</time></trkpt><trkpt lat="45.5356736" lon="11.1385288"><ele>557.0</ele><time>2026-04-18T11:23:53.749Z</time></trkpt><trkpt lat="45.5356368" lon="11.1383314"><ele>558.3333333333333</ele><time>2026-04-18T11:23:55.75Z</time></trkpt><trkpt lat="45.535609" lon="11.1382089"><ele>559.6666666666666</ele><time>2026-04-18T11:23:56.75Z</time></trkpt><trkpt lat="45.5355913" lon="11.138118"><ele>561.0</ele><time>2026-04-18T11:23:57.749Z</time></trkpt><trkpt lat="45.5355634" lon="11.1380214"><ele>562.3333333333334</ele><time>2026-04-18T11:23:58.749Z</time></trkpt><trkpt lat="45.5355354" lon="11.1379145"><ele>563.6666666666667</ele><time>2026-04-18T11:23:59.749Z</time></trkpt><trkpt lat="45.5355198" lon="11.137821"><ele>565.0</ele><time>2026-04-18T11:24:00.749Z</time></trkpt><trkpt lat="45.5355324" lon="11.1376949"><ele>565.0</ele><time>2026-04-18T11:24:02.749Z</time></trkpt><trkpt lat="45.5355911" lon="11.1376205"><ele>565.0</ele><time>2026-04-18T11:24:04.749Z</time></trkpt><trkpt lat="45.5356579" lon="11.1375407"><ele>565.0</ele><time>2026-04-18T11:24:06.749Z</time></trkpt><trkpt lat="45.535727" lon="11.1374378"><ele>565.0</ele><time>2026-04-18T11:24:08.749Z</time></trkpt><trkpt lat="45.5358017" lon="11.1373379"><ele>565.0</ele><time>2026-04-18T11:24:10.749Z</time></trkpt><trkpt lat="45.5358547" lon="11.137288"><ele>565.0</ele><time>2026-04-18T11:24:11.749Z</time></trkpt><trkpt lat="45.5359605" lon="11.1372272"><ele>565.1666666666667</ele><time>2026-04-18T11:24:13.75Z</time></trkpt><trkpt lat="45.5360544" lon="11.1371731"><ele>565.3333333333334</ele><time>2026-04-18T11:24:15.749Z</time></trkpt><trkpt lat="45.5361462" lon="11.1371133"><ele>565.5</ele><time>2026-04-18T11:24:17.749Z</time></trkpt><trkpt lat="45.5362209" lon="11.1370588"><ele>565.6666666666666</ele><time>2026-04-18T11:24:19.749Z</time></trkpt><trkpt lat="45.536272" lon="11.1369954"><ele>565.8333333333333</ele><time>2026-04-18T11:24:21.749Z</time></trkpt><trkpt lat="45.5362899" lon="11.1369021"><ele>566.0</ele><time>2026-04-18T11:24:23.749Z</time></trkpt><trkpt lat="45.5363135" lon="11.1367119"><ele>566.0</ele><time>2026-04-18T11:24:25.749Z</time></trkpt><trkpt lat="45.5363528" lon="11.1366128"><ele>566.0</ele><time>2026-04-18T11:24:26.749Z</time></trkpt><trkpt lat="45.5364016" lon="11.1365413"><ele>566.0</ele><time>2026-04-18T11:24:27.749Z</time></trkpt><trkpt lat="45.5364776" lon="11.1364743"><ele>566.0</ele><time>2026-04-18T11:24:28.749Z</time></trkpt><trkpt lat="45.5365542" lon="11.1364021"><ele>566.0</ele><time>2026-04-18T11:24:29.75Z</time></trkpt><trkpt lat="45.5366152" lon="11.1363407"><ele>566.0</ele><time>2026-04-18T11:24:30.749Z</time></trkpt><trkpt lat="45.5366836" lon="11.1362428"><ele>567.8</ele><time>2026-04-18T11:24:31.75Z</time></trkpt><trkpt lat="45.5367479" lon="11.1361365"><ele>569.6</ele><time>2026-04-18T11:24:32.749Z</time></trkpt><trkpt lat="45.5368136" lon="11.13604"><ele>571.4</ele><time>2026-04-18T11:24:33.749Z</time></trkpt><trkpt lat="45.5368983" lon="11.1359558"><ele>573.2</ele><time>2026-04-18T11:24:34.749Z</time></trkpt><trkpt lat="45.5369954" lon="11.1358802"><ele>575.0</ele><time>2026-04-18T11:24:35.749Z</time></trkpt><trkpt lat="45.5370744" lon="11.1358199"><ele>575.0</ele><time>2026-04-18T11:24:36.749Z</time></trkpt><trkpt lat="45.5371417" lon="11.1357415"><ele>575.0</ele><time>2026-04-18T11:24:37.749Z</time></trkpt><trkpt lat="45.5371912" lon="11.1356403"><ele>575.0</ele><time>2026-04-18T11:24:38.749Z</time></trkpt><trkpt lat="45.5372259" lon="11.135516"><ele>575.0</ele><time>2026-04-18T11:24:39.749Z</time></trkpt><trkpt lat="45.5372547" lon="11.1354045"><ele>575.0</ele><time>2026-04-18T11:24:40.749Z</time></trkpt><trkpt lat="45.5372837" lon="11.1353131"><ele>575.0</ele><time>2026-04-18T11:24:41.749Z</time></trkpt><trkpt lat="45.5373343" lon="11.1352505"><ele>577.6666666666666</ele><time>2026-04-18T11:24:42.749Z</time></trkpt><trkpt lat="45.5373967" lon="11.1352184"><ele>580.3333333333333</ele><time>2026-04-18T11:24:43.749Z</time></trkpt><trkpt lat="45.5374754" lon="11.1351965"><ele>583.0</ele><time>2026-04-18T11:24:44.749Z</time></trkpt><trkpt lat="45.5375468" lon="11.1351696"><ele>585.6666666666666</ele><time>2026-04-18T11:24:45.749Z</time></trkpt><trkpt lat="45.5376026" lon="11.1350748"><ele>588.3333333333334</ele><time>2026-04-18T11:24:47.749Z</time></trkpt><trkpt lat="45.5375601" lon="11.1349861"><ele>591.0</ele><time>2026-04-18T11:24:48.749Z</time></trkpt><trkpt lat="45.5375177" lon="11.1349095"><ele>592.5</ele><time>2026-04-18T11:24:49.749Z</time></trkpt><trkpt lat="45.5374492" lon="11.1348193"><ele>594.0</ele><time>2026-04-18T11:24:50.749Z</time></trkpt><trkpt lat="45.5373799" lon="11.1347444"><ele>595.5</ele><time>2026-04-18T11:24:51.749Z</time></trkpt><trkpt lat="45.5373119" lon="11.1346755"><ele>597.0</ele><time>2026-04-18T11:24:52.749Z</time></trkpt><trkpt lat="45.5372557" lon="11.1346167"><ele>598.5</ele><time>2026-04-18T11:24:53.749Z</time></trkpt><trkpt lat="45.5371863" lon="11.1344951"><ele>600.0</ele><time>2026-04-18T11:24:55.749Z</time></trkpt><trkpt lat="45.5371957" lon="11.1343752"><ele>600.0</ele><time>2026-04-18T11:24:57.749Z</time></trkpt><trkpt lat="45.5372856" lon="11.1343023"><ele>600.0</ele><time>2026-04-18T11:24:59.749Z</time></trkpt><trkpt lat="45.5373511" lon="11.1342653"><ele>600.0</ele><time>2026-04-18T11:25:00.749Z</time></trkpt><trkpt lat="45.5374297" lon="11.1342364"><ele>600.0</ele><time>2026-04-18T11:25:01.749Z</time></trkpt><trkpt lat="45.5374949" lon="11.1342146"><ele>600.0</ele><time>2026-04-18T11:25:02.749Z</time></trkpt><trkpt lat="45.5375845" lon="11.1341559"><ele>600.0</ele><time>2026-04-18T11:25:04.749Z</time></trkpt><trkpt lat="45.5376282" lon="11.1340785"><ele>599.2</ele><time>2026-04-18T11:25:07.749Z</time></trkpt><trkpt lat="45.5377115" lon="11.1340086"><ele>598.4</ele><time>2026-04-18T11:25:09.749Z</time></trkpt><trkpt lat="45.5377762" lon="11.1339701"><ele>597.6</ele><time>2026-04-18T11:25:10.749Z</time></trkpt><trkpt lat="45.5378818" lon="11.1339178"><ele>596.8</ele><time>2026-04-18T11:25:11.749Z</time></trkpt><trkpt lat="45.5379907" lon="11.1338522"><ele>596.0</ele><time>2026-04-18T11:25:12.749Z</time></trkpt><trkpt lat="45.5381008" lon="11.1337768"><ele>596.0</ele><time>2026-04-18T11:25:13.749Z</time></trkpt><trkpt lat="45.5382076" lon="11.1336932"><ele>596.0</ele><time>2026-04-18T11:25:14.749Z</time></trkpt><trkpt lat="45.5383119" lon="11.1335999"><ele>596.0</ele><time>2026-04-18T11:25:15.749Z</time></trkpt><trkpt lat="45.5384139" lon="11.1334957"><ele>596.0</ele><time>2026-04-18T11:25:16.749Z</time></trkpt><trkpt lat="45.5385107" lon="11.133388"><ele>596.0</ele><time>2026-04-18T11:25:17.75Z</time></trkpt><trkpt lat="45.5386073" lon="11.1332747"><ele>596.0</ele><time>2026-04-18T11:25:18.749Z</time></trkpt><trkpt lat="45.5387066" lon="11.1331706"><ele>596.0</ele><time>2026-04-18T11:25:19.749Z</time></trkpt><trkpt lat="45.5388021" lon="11.1330659"><ele>596.0</ele><time>2026-04-18T11:25:20.749Z</time></trkpt><trkpt lat="45.5388958" lon="11.132962"><ele>597.25</ele><time>2026-04-18T11:25:21.749Z</time></trkpt><trkpt lat="45.5389877" lon="11.1328501"><ele>598.5</ele><time>2026-04-18T11:25:22.749Z</time></trkpt><trkpt lat="45.5390787" lon="11.1327398"><ele>599.75</ele><time>2026-04-18T11:25:23.749Z</time></trkpt><trkpt lat="45.5391722" lon="11.1326351"><ele>601.0</ele><time>2026-04-18T11:25:24.749Z</time></trkpt><trkpt lat="45.5392687" lon="11.1325222"><ele>601.0</ele><time>2026-04-18T11:25:25.749Z</time></trkpt><trkpt lat="45.5393647" lon="11.1324248"><ele>601.0</ele><time>2026-04-18T11:25:26.749Z</time></trkpt><trkpt lat="45.5394512" lon="11.1323341"><ele>601.0</ele><time>2026-04-18T11:25:27.749Z</time></trkpt><trkpt lat="45.539534" lon="11.1322382"><ele>601.0</ele><time>2026-04-18T11:25:28.749Z</time></trkpt><trkpt lat="45.539615" lon="11.1321357"><ele>601.0</ele><time>2026-04-18T11:25:29.749Z</time></trkpt><trkpt lat="45.5396818" lon="11.1320079"><ele>607.75</ele><time>2026-04-18T11:25:30.749Z</time></trkpt><trkpt lat="45.5397273" lon="11.1318536"><ele>614.5</ele><time>2026-04-18T11:25:31.749Z</time></trkpt><trkpt lat="45.5397365" lon="11.1316678"><ele>621.25</ele><time>2026-04-18T11:25:32.749Z</time></trkpt><trkpt lat="45.539704" lon="11.1314636"><ele>628.0</ele><time>2026-04-18T11:25:33.749Z</time></trkpt><trkpt lat="45.539644" lon="11.1312533"><ele>626.3333333333334</ele><time>2026-04-18T11:25:34.749Z</time></trkpt><trkpt lat="45.5395761" lon="11.1310417"><ele>624.6666666666666</ele><time>2026-04-18T11:25:35.749Z</time></trkpt><trkpt lat="45.5394953" lon="11.1308243"><ele>623.0</ele><time>2026-04-18T11:25:36.749Z</time></trkpt><trkpt lat="45.5394011" lon="11.1306211"><ele>623.0</ele><time>2026-04-18T11:25:37.749Z</time></trkpt><trkpt lat="45.5393132" lon="11.1304437"><ele>623.0</ele><time>2026-04-18T11:25:38.749Z</time></trkpt><trkpt lat="45.5392324" lon="11.1302837"><ele>623.0</ele><time>2026-04-18T11:25:39.749Z</time></trkpt><trkpt lat="45.5391686" lon="11.1301352"><ele>623.0</ele><time>2026-04-18T11:25:40.749Z</time></trkpt><trkpt lat="45.5391267" lon="11.1299846"><ele>621.5</ele><time>2026-04-18T11:25:41.749Z</time></trkpt><trkpt lat="45.5391131" lon="11.1298294"><ele>620.0</ele><time>2026-04-18T11:25:42.749Z</time></trkpt><trkpt lat="45.5391364" lon="11.1296698"><ele>618.5</ele><time>2026-04-18T11:25:43.749Z</time></trkpt><trkpt lat="45.5392001" lon="11.1295183"><ele>617.0</ele><time>2026-04-18T11:25:44.749Z</time></trkpt><trkpt lat="45.5392868" lon="11.1293894"><ele>617.0</ele><time>2026-04-18T11:25:45.749Z</time></trkpt><trkpt lat="45.5393807" lon="11.1292715"><ele>617.0</ele><time>2026-04-18T11:25:46.749Z</time></trkpt><trkpt lat="45.5394764" lon="11.1291588"><ele>617.0</ele><time>2026-04-18T11:25:47.749Z</time></trkpt><trkpt lat="45.5395724" lon="11.1290518"><ele>617.0</ele><time>2026-04-18T11:25:48.749Z</time></trkpt><trkpt lat="45.539673" lon="11.1289439"><ele>620.25</ele><time>2026-04-18T11:25:49.749Z</time></trkpt><trkpt lat="45.5397844" lon="11.1288385"><ele>623.5</ele><time>2026-04-18T11:25:50.749Z</time></trkpt><trkpt lat="45.5399108" lon="11.128752"><ele>626.75</ele><time>2026-04-18T11:25:51.749Z</time></trkpt><trkpt lat="45.5400504" lon="11.1286956"><ele>630.0</ele><time>2026-04-18T11:25:52.75Z</time></trkpt><trkpt lat="45.5401866" lon="11.1286803"><ele>630.0</ele><time>2026-04-18T11:25:53.749Z</time></trkpt><trkpt lat="45.5403225" lon="11.1286926"><ele>630.0</ele><time>2026-04-18T11:25:54.749Z</time></trkpt><trkpt lat="45.5404634" lon="11.1287374"><ele>630.0</ele><time>2026-04-18T11:25:55.749Z</time></trkpt><trkpt lat="45.5406065" lon="11.1288192"><ele>630.0</ele><time>2026-04-18T11:25:56.749Z</time></trkpt><trkpt lat="45.5407478" lon="11.1289235"><ele>627.75</ele><time>2026-04-18T11:25:57.749Z</time></trkpt><trkpt lat="45.540881" lon="11.12901"><ele>625.5</ele><time>2026-04-18T11:25:58.749Z</time></trkpt><trkpt lat="45.5410098" lon="11.1290728"><ele>623.25</ele><time>2026-04-18T11:25:59.749Z</time></trkpt><trkpt lat="45.5411328" lon="11.1291139"><ele>621.0</ele><time>2026-04-18T11:26:00.749Z</time></trkpt><trkpt lat="45.5412587" lon="11.1291287"><ele>621.75</ele><time>2026-04-18T11:26:01.749Z</time></trkpt><trkpt lat="45.5413961" lon="11.1291151"><ele>622.5</ele><time>2026-04-18T11:26:02.75Z</time></trkpt><trkpt lat="45.5415357" lon="11.1290843"><ele>623.25</ele><time>2026-04-18T11:26:03.749Z</time></trkpt><trkpt lat="45.5416785" lon="11.1290451"><ele>624.0</ele><time>2026-04-18T11:26:04.749Z</time></trkpt><trkpt lat="45.5418292" lon="11.1290017"><ele>624.0</ele><time>2026-04-18T11:26:05.749Z</time></trkpt><trkpt lat="45.5419786" lon="11.1289658"><ele>624.0</ele><time>2026-04-18T11:26:06.749Z</time></trkpt><trkpt lat="45.5421172" lon="11.1289288"><ele>624.0</ele><time>2026-04-18T11:26:07.749Z</time></trkpt><trkpt lat="45.54225" lon="11.1288921"><ele>624.0</ele><time>2026-04-18T11:26:08.749Z</time></trkpt><trkpt lat="45.5423754" lon="11.1288565"><ele>626.5</ele><time>2026-04-18T11:26:09.749Z</time></trkpt><trkpt lat="45.542494" lon="11.1288184"><ele>629.0</ele><time>2026-04-18T11:26:10.749Z</time></trkpt><trkpt lat="45.5426102" lon="11.1287532"><ele>631.5</ele><time>2026-04-18T11:26:11.749Z</time></trkpt><trkpt lat="45.5427147" lon="11.1286298"><ele>634.0</ele><time>2026-04-18T11:26:12.75Z</time></trkpt><trkpt lat="45.5428011" lon="11.1284486"><ele>631.0</ele><time>2026-04-18T11:26:13.749Z</time></trkpt><trkpt lat="45.5428589" lon="11.1282249"><ele>628.0</ele><time>2026-04-18T11:26:14.749Z</time></trkpt><trkpt lat="45.5429026" lon="11.1280039"><ele>625.0</ele><time>2026-04-18T11:26:15.749Z</time></trkpt><trkpt lat="45.5429509" lon="11.1278068"><ele>627.5</ele><time>2026-04-18T11:26:16.749Z</time></trkpt><trkpt lat="45.543" lon="11.1276248"><ele>630.0</ele><time>2026-04-18T11:26:17.749Z</time></trkpt><trkpt lat="45.5430619" lon="11.1274695"><ele>632.5</ele><time>2026-04-18T11:26:18.749Z</time></trkpt><trkpt lat="45.5431587" lon="11.127333"><ele>635.0</ele><time>2026-04-18T11:26:19.749Z</time></trkpt><trkpt lat="45.5432897" lon="11.1272148"><ele>635.0</ele><time>2026-04-18T11:26:20.749Z</time></trkpt><trkpt lat="45.5434501" lon="11.1271255"><ele>635.0</ele><time>2026-04-18T11:26:21.749Z</time></trkpt><trkpt lat="45.543624" lon="11.1270455"><ele>635.0</ele><time>2026-04-18T11:26:22.749Z</time></trkpt><trkpt lat="45.5437849" lon="11.1269793"><ele>638.6666666666666</ele><time>2026-04-18T11:26:23.749Z</time></trkpt><trkpt lat="45.5439429" lon="11.126916"><ele>642.3333333333334</ele><time>2026-04-18T11:26:24.749Z</time></trkpt><trkpt lat="45.544089" lon="11.1268521"><ele>646.0</ele><time>2026-04-18T11:26:25.749Z</time></trkpt><trkpt lat="45.5442279" lon="11.1267869"><ele>646.0</ele><time>2026-04-18T11:26:26.75Z</time></trkpt><trkpt lat="45.5443634" lon="11.1267305"><ele>646.0</ele><time>2026-04-18T11:26:27.749Z</time></trkpt><trkpt lat="45.5444869" lon="11.1266706"><ele>646.0</ele><time>2026-04-18T11:26:28.749Z</time></trkpt><trkpt lat="45.5445972" lon="11.1266126"><ele>646.0</ele><time>2026-04-18T11:26:29.749Z</time></trkpt><trkpt lat="45.5447024" lon="11.1265407"><ele>646.5</ele><time>2026-04-18T11:26:30.749Z</time></trkpt><trkpt lat="45.5448129" lon="11.1264332"><ele>647.0</ele><time>2026-04-18T11:26:31.749Z</time></trkpt><trkpt lat="45.544902" lon="11.1263072"><ele>647.5</ele><time>2026-04-18T11:26:32.749Z</time></trkpt><trkpt lat="45.5449711" lon="11.1261665"><ele>648.0</ele><time>2026-04-18T11:26:33.749Z</time></trkpt><trkpt lat="45.5450239" lon="11.1260222"><ele>648.0</ele><time>2026-04-18T11:26:34.75Z</time></trkpt><trkpt lat="45.5450647" lon="11.1258757"><ele>648.0</ele><time>2026-04-18T11:26:35.749Z</time></trkpt><trkpt lat="45.545088" lon="11.1257275"><ele>648.0</ele><time>2026-04-18T11:26:36.749Z</time></trkpt><trkpt lat="45.5450968" lon="11.1255796"><ele>648.0</ele><time>2026-04-18T11:26:37.749Z</time></trkpt><trkpt lat="45.5450923" lon="11.1254236"><ele>648.0</ele><time>2026-04-18T11:26:38.749Z</time></trkpt><trkpt lat="45.5450724" lon="11.1252703"><ele>648.75</ele><time>2026-04-18T11:26:39.749Z</time></trkpt><trkpt lat="45.5450346" lon="11.12512"><ele>649.5</ele><time>2026-04-18T11:26:40.749Z</time></trkpt><trkpt lat="45.5449852" lon="11.1249724"><ele>650.25</ele><time>2026-04-18T11:26:41.749Z</time></trkpt><trkpt lat="45.5449226" lon="11.1248309"><ele>651.0</ele><time>2026-04-18T11:26:42.749Z</time></trkpt><trkpt lat="45.5448582" lon="11.1246981"><ele>651.8</ele><time>2026-04-18T11:26:43.749Z</time></trkpt><trkpt lat="45.5448003" lon="11.124571"><ele>652.5999999999999</ele><time>2026-04-18T11:26:44.749Z</time></trkpt><trkpt lat="45.5447477" lon="11.1244562"><ele>653.4</ele><time>2026-04-18T11:26:45.749Z</time></trkpt><trkpt lat="45.5447031" lon="11.1243456"><ele>654.2</ele><time>2026-04-18T11:26:46.749Z</time></trkpt><trkpt lat="45.5446622" lon="11.1242229"><ele>655.0</ele><time>2026-04-18T11:26:47.749Z</time></trkpt><trkpt lat="45.5446306" lon="11.1240858"><ele>655.25</ele><time>2026-04-18T11:26:48.749Z</time></trkpt><trkpt lat="45.5446136" lon="11.1239361"><ele>655.5</ele><time>2026-04-18T11:26:49.749Z</time></trkpt><trkpt lat="45.5446235" lon="11.123783"><ele>655.75</ele><time>2026-04-18T11:26:50.749Z</time></trkpt><trkpt lat="45.5446582" lon="11.1236364"><ele>656.0</ele><time>2026-04-18T11:26:51.75Z</time></trkpt><trkpt lat="45.5447554" lon="11.1234703"><ele>656.0</ele><time>2026-04-18T11:26:52.749Z</time></trkpt><trkpt lat="45.544869" lon="11.1233162"><ele>656.0</ele><time>2026-04-18T11:26:53.749Z</time></trkpt><trkpt lat="45.5449925" lon="11.1231657"><ele>656.0</ele><time>2026-04-18T11:26:54.749Z</time></trkpt><trkpt lat="45.5451161" lon="11.1230193"><ele>654.3333333333333</ele><time>2026-04-18T11:26:55.749Z</time></trkpt><trkpt lat="45.5452416" lon="11.1228645"><ele>652.6666666666666</ele><time>2026-04-18T11:26:56.749Z</time></trkpt><trkpt lat="45.5453623" lon="11.1227124"><ele>651.0</ele><time>2026-04-18T11:26:57.749Z</time></trkpt><trkpt lat="45.5454799" lon="11.1225641"><ele>653.0</ele><time>2026-04-18T11:26:58.749Z</time></trkpt><trkpt lat="45.5456134" lon="11.122428"><ele>655.0</ele><time>2026-04-18T11:26:59.749Z</time></trkpt><trkpt lat="45.5457853" lon="11.1223259"><ele>657.0</ele><time>2026-04-18T11:27:00.749Z</time></trkpt><trkpt lat="45.5459671" lon="11.1222449"><ele>657.0</ele><time>2026-04-18T11:27:01.749Z</time></trkpt><trkpt lat="45.5461432" lon="11.122178"><ele>657.0</ele><time>2026-04-18T11:27:02.749Z</time></trkpt><trkpt lat="45.5463161" lon="11.1221167"><ele>657.0</ele><time>2026-04-18T11:27:03.749Z</time></trkpt><trkpt lat="45.5464802" lon="11.1220523"><ele>661.3333333333334</ele><time>2026-04-18T11:27:04.749Z</time></trkpt><trkpt lat="45.5466351" lon="11.1219931"><ele>665.6666666666667</ele><time>2026-04-18T11:27:05.749Z</time></trkpt><trkpt lat="45.5467817" lon="11.1219413"><ele>670.0</ele><time>2026-04-18T11:27:06.749Z</time></trkpt><trkpt lat="45.5469296" lon="11.1218859"><ele>672.0</ele><time>2026-04-18T11:27:07.749Z</time></trkpt><trkpt lat="45.5470784" lon="11.1218306"><ele>674.0</ele><time>2026-04-18T11:27:08.749Z</time></trkpt><trkpt lat="45.5472251" lon="11.1217718"><ele>676.0</ele><time>2026-04-18T11:27:09.749Z</time></trkpt><trkpt lat="45.5473726" lon="11.1217165"><ele>676.0</ele><time>2026-04-18T11:27:10.749Z</time></trkpt><trkpt lat="45.5475223" lon="11.1216615"><ele>676.0</ele><time>2026-04-18T11:27:11.749Z</time></trkpt><trkpt lat="45.5476674" lon="11.1216005"><ele>676.0</ele><time>2026-04-18T11:27:12.749Z</time></trkpt><trkpt lat="45.5478132" lon="11.1215449"><ele>677.6666666666667</ele><time>2026-04-18T11:27:13.749Z</time></trkpt><trkpt lat="45.547964" lon="11.1214867"><ele>679.3333333333334</ele><time>2026-04-18T11:27:14.749Z</time></trkpt><trkpt lat="45.5481159" lon="11.1214232"><ele>681.0</ele><time>2026-04-18T11:27:15.749Z</time></trkpt><trkpt lat="45.5482716" lon="11.1213649"><ele>681.0</ele><time>2026-04-18T11:27:16.749Z</time></trkpt><trkpt lat="45.5484353" lon="11.1213017"><ele>681.0</ele><time>2026-04-18T11:27:17.749Z</time></trkpt><trkpt lat="45.5486018" lon="11.121232"><ele>681.0</ele><time>2026-04-18T11:27:18.749Z</time></trkpt><trkpt lat="45.5487687" lon="11.121165"><ele>681.6666666666666</ele><time>2026-04-18T11:27:19.749Z</time></trkpt><trkpt lat="45.5489406" lon="11.1210983"><ele>682.3333333333333</ele><time>2026-04-18T11:27:20.749Z</time></trkpt><trkpt lat="45.5491102" lon="11.1210341"><ele>683.0</ele><time>2026-04-18T11:27:21.749Z</time></trkpt><trkpt lat="45.5492813" lon="11.1209673"><ele>683.0</ele><time>2026-04-18T11:27:22.749Z</time></trkpt><trkpt lat="45.5494457" lon="11.1209032"><ele>683.0</ele><time>2026-04-18T11:27:23.749Z</time></trkpt><trkpt lat="45.5495969" lon="11.1208411"><ele>683.0</ele><time>2026-04-18T11:27:24.75Z</time></trkpt><trkpt lat="45.5497424" lon="11.1207789"><ele>683.0</ele><time>2026-04-18T11:27:25.749Z</time></trkpt><trkpt lat="45.5498883" lon="11.1207225"><ele>683.0</ele><time>2026-04-18T11:27:26.749Z</time></trkpt><trkpt lat="45.550031" lon="11.1206686"><ele>683.0</ele><time>2026-04-18T11:27:27.749Z</time></trkpt><trkpt lat="45.5501708" lon="11.1206236"><ele>683.0</ele><time>2026-04-18T11:27:28.749Z</time></trkpt><trkpt lat="45.5503051" lon="11.1205728"><ele>686.0</ele><time>2026-04-18T11:27:29.749Z</time></trkpt><trkpt lat="45.5504388" lon="11.1205279"><ele>689.0</ele><time>2026-04-18T11:27:30.749Z</time></trkpt><trkpt lat="45.5505705" lon="11.1204797"><ele>692.0</ele><time>2026-04-18T11:27:31.749Z</time></trkpt><trkpt lat="45.5506989" lon="11.1204331"><ele>695.0</ele><time>2026-04-18T11:27:32.749Z</time></trkpt><trkpt lat="45.550825" lon="11.1203849"><ele>695.0</ele><time>2026-04-18T11:27:33.749Z</time></trkpt><trkpt lat="45.5509501" lon="11.120331"><ele>695.0</ele><time>2026-04-18T11:27:34.749Z</time></trkpt><trkpt lat="45.5510753" lon="11.1202592"><ele>695.0</ele><time>2026-04-18T11:27:35.749Z</time></trkpt><trkpt lat="45.5512023" lon="11.1201441"><ele>695.0</ele><time>2026-04-18T11:27:36.749Z</time></trkpt><trkpt lat="45.5513383" lon="11.1199796"><ele>698.3333333333333</ele><time>2026-04-18T11:27:37.749Z</time></trkpt><trkpt lat="45.5514737" lon="11.1197745"><ele>701.6666666666666</ele><time>2026-04-18T11:27:38.749Z</time></trkpt><trkpt lat="45.5515917" lon="11.1195482"><ele>705.0</ele><time>2026-04-18T11:27:39.749Z</time></trkpt><trkpt lat="45.5516909" lon="11.119337"><ele>705.0</ele><time>2026-04-18T11:27:40.749Z</time></trkpt><trkpt lat="45.5517773" lon="11.1191419"><ele>705.0</ele><time>2026-04-18T11:27:41.75Z</time></trkpt><trkpt lat="45.5518401" lon="11.1189428"><ele>705.0</ele><time>2026-04-18T11:27:42.749Z</time></trkpt><trkpt lat="45.5518676" lon="11.1187098"><ele>704.6666666666666</ele><time>2026-04-18T11:27:43.749Z</time></trkpt><trkpt lat="45.5518719" lon="11.1184478"><ele>704.3333333333333</ele><time>2026-04-18T11:27:44.749Z</time></trkpt><trkpt lat="45.551874" lon="11.1182032"><ele>704.0</ele><time>2026-04-18T11:27:45.749Z</time></trkpt><trkpt lat="45.5518708" lon="11.1179801"><ele>704.75</ele><time>2026-04-18T11:27:46.749Z</time></trkpt><trkpt lat="45.551875" lon="11.117776"><ele>705.5</ele><time>2026-04-18T11:27:47.749Z</time></trkpt><trkpt lat="45.5518769" lon="11.1175848"><ele>706.25</ele><time>2026-04-18T11:27:48.749Z</time></trkpt><trkpt lat="45.5518929" lon="11.1173958"><ele>707.0</ele><time>2026-04-18T11:27:49.749Z</time></trkpt><trkpt lat="45.5519336" lon="11.1172074"><ele>707.5</ele><time>2026-04-18T11:27:50.749Z</time></trkpt><trkpt lat="45.5520016" lon="11.1170143"><ele>708.0</ele><time>2026-04-18T11:27:51.749Z</time></trkpt><trkpt lat="45.5520764" lon="11.1168625"><ele>708.5</ele><time>2026-04-18T11:27:52.749Z</time></trkpt><trkpt lat="45.5521575" lon="11.116732"><ele>709.0</ele><time>2026-04-18T11:27:53.749Z</time></trkpt><trkpt lat="45.552241" lon="11.116651"><ele>711.2</ele><time>2026-04-18T11:27:54.749Z</time></trkpt><trkpt lat="45.5523262" lon="11.1166121"><ele>713.4000000000001</ele><time>2026-04-18T11:27:55.749Z</time></trkpt><trkpt lat="45.5524064" lon="11.1166218"><ele>715.6</ele><time>2026-04-18T11:27:56.749Z</time></trkpt><trkpt lat="45.5524999" lon="11.1166976"><ele>717.8</ele><time>2026-04-18T11:27:57.749Z</time></trkpt><trkpt lat="45.5525908" lon="11.1168276"><ele>720.0</ele><time>2026-04-18T11:27:58.749Z</time></trkpt><trkpt lat="45.5526907" lon="11.1169958"><ele>720.0</ele><time>2026-04-18T11:27:59.749Z</time></trkpt><trkpt lat="45.5527978" lon="11.1171768"><ele>720.0</ele><time>2026-04-18T11:28:00.749Z</time></trkpt><trkpt lat="45.5529011" lon="11.1173248"><ele>720.0</ele><time>2026-04-18T11:28:01.749Z</time></trkpt><trkpt lat="45.5530197" lon="11.1174431"><ele>723.3333333333334</ele><time>2026-04-18T11:28:02.749Z</time></trkpt><trkpt lat="45.5531656" lon="11.1175209"><ele>726.6666666666667</ele><time>2026-04-18T11:28:03.75Z</time></trkpt><trkpt lat="45.5533172" lon="11.1175759"><ele>730.0</ele><time>2026-04-18T11:28:04.749Z</time></trkpt><trkpt lat="45.553452" lon="11.1176238"><ele>730.0</ele><time>2026-04-18T11:28:05.749Z</time></trkpt><trkpt lat="45.5535655" lon="11.1176625"><ele>730.0</ele><time>2026-04-18T11:28:06.749Z</time></trkpt><trkpt lat="45.5536553" lon="11.1176918"><ele>730.0</ele><time>2026-04-18T11:28:07.749Z</time></trkpt><trkpt lat="45.5537313" lon="11.1177179"><ele>730.0</ele><time>2026-04-18T11:28:08.749Z</time></trkpt><trkpt lat="45.5538035" lon="11.1177477"><ele>730.0</ele><time>2026-04-18T11:28:09.749Z</time></trkpt><trkpt lat="45.5538749" lon="11.1177911"><ele>730.0</ele><time>2026-04-18T11:28:10.749Z</time></trkpt><trkpt lat="45.5539372" lon="11.1178423"><ele>730.2</ele><time>2026-04-18T11:28:11.749Z</time></trkpt><trkpt lat="45.5540237" lon="11.1179415"><ele>730.4</ele><time>2026-04-18T11:28:13.75Z</time></trkpt><trkpt lat="45.5540911" lon="11.1179657"><ele>730.5999999999999</ele><time>2026-04-18T11:28:15.749Z</time></trkpt><trkpt lat="45.5541928" lon="11.1179928"><ele>730.8</ele><time>2026-04-18T11:28:32.749Z</time></trkpt><trkpt lat="45.5542963" lon="11.1180131"><ele>731.0</ele><time>2026-04-18T11:28:34.749Z</time></trkpt><trkpt lat="45.5543785" lon="11.1180301"><ele>731.0</ele><time>2026-04-18T11:28:36.749Z</time></trkpt><trkpt lat="45.5544704" lon="11.1180384"><ele>731.0</ele><time>2026-04-18T11:28:38.749Z</time></trkpt><trkpt lat="45.5545539" lon="11.1180413"><ele>731.0</ele><time>2026-04-18T11:28:40.749Z</time></trkpt><trkpt lat="45.554634" lon="11.1180728"><ele>731.0</ele><time>2026-04-18T11:28:52.75Z</time></trkpt><trkpt lat="45.5547056" lon="11.1180844"><ele>731.0</ele><time>2026-04-18T11:29:01.749Z</time></trkpt><trkpt lat="45.5547734" lon="11.1181798"><ele>731.0</ele><time>2026-04-18T11:29:03.749Z</time></trkpt><trkpt lat="45.554784" lon="11.1182818"><ele>734.6666666666666</ele><time>2026-04-18T11:29:04.75Z</time></trkpt><trkpt lat="45.5547753" lon="11.1183955"><ele>738.3333333333333</ele><time>2026-04-18T11:29:05.749Z</time></trkpt><trkpt lat="45.5547593" lon="11.1185081"><ele>742.0</ele><time>2026-04-18T11:29:06.749Z</time></trkpt><trkpt lat="45.5547528" lon="11.118628"><ele>745.6666666666666</ele><time>2026-04-18T11:29:07.749Z</time></trkpt><trkpt lat="45.5547695" lon="11.1187598"><ele>749.3333333333334</ele><time>2026-04-18T11:29:08.749Z</time></trkpt><trkpt lat="45.5548067" lon="11.1188898"><ele>753.0</ele><time>2026-04-18T11:29:09.75Z</time></trkpt><trkpt lat="45.5548644" lon="11.1190032"><ele>754.5999999999999</ele><time>2026-04-18T11:29:10.749Z</time></trkpt><trkpt lat="45.5549332" lon="11.1190937"><ele>756.1999999999999</ele><time>2026-04-18T11:29:11.749Z</time></trkpt><trkpt lat="45.5550174" lon="11.1191585"><ele>757.8</ele><time>2026-04-18T11:29:12.749Z</time></trkpt><trkpt lat="45.5551136" lon="11.1191987"><ele>759.4</ele><time>2026-04-18T11:29:13.749Z</time></trkpt><trkpt lat="45.5552211" lon="11.1192161"><ele>761.0</ele><time>2026-04-18T11:29:14.749Z</time></trkpt><trkpt lat="45.5553284" lon="11.1192186"><ele>763.0</ele><time>2026-04-18T11:29:15.749Z</time></trkpt><trkpt lat="45.5554313" lon="11.1192181"><ele>765.0</ele><time>2026-04-18T11:29:16.749Z</time></trkpt><trkpt lat="45.5555138" lon="11.1192201"><ele>767.0</ele><time>2026-04-18T11:29:17.749Z</time></trkpt><trkpt lat="45.5555788" lon="11.1192266"><ele>769.0</ele><time>2026-04-18T11:29:18.749Z</time></trkpt><trkpt lat="45.5556684" lon="11.1192433"><ele>771.0</ele><time>2026-04-18T11:29:20.749Z</time></trkpt><trkpt lat="45.5557835" lon="11.1191741"><ele>771.0</ele><time>2026-04-18T11:29:22.749Z</time></trkpt><trkpt lat="45.5558427" lon="11.119091"><ele>771.0</ele><time>2026-04-18T11:29:23.749Z</time></trkpt><trkpt lat="45.5559067" lon="11.1189852"><ele>771.0</ele><time>2026-04-18T11:29:24.749Z</time></trkpt><trkpt lat="45.5559767" lon="11.1188586"><ele>771.0</ele><time>2026-04-18T11:29:25.749Z</time></trkpt><trkpt lat="45.5560477" lon="11.1187242"><ele>771.0</ele><time>2026-04-18T11:29:26.749Z</time></trkpt><trkpt lat="45.5561195" lon="11.1185914"><ele>769.75</ele><time>2026-04-18T11:29:27.749Z</time></trkpt><trkpt lat="45.5561954" lon="11.1184568"><ele>768.5</ele><time>2026-04-18T11:29:28.749Z</time></trkpt><trkpt lat="45.556273" lon="11.1183306"><ele>767.25</ele><time>2026-04-18T11:29:29.749Z</time></trkpt><trkpt lat="45.5563451" lon="11.1182102"><ele>766.0</ele><time>2026-04-18T11:29:30.749Z</time></trkpt><trkpt lat="45.5564143" lon="11.1180995"><ele>765.8</ele><time>2026-04-18T11:29:31.749Z</time></trkpt><trkpt lat="45.5564827" lon="11.1179918"><ele>765.5999999999999</ele><time>2026-04-18T11:29:32.749Z</time></trkpt><trkpt lat="45.5565601" lon="11.117882"><ele>765.4</ele><time>2026-04-18T11:29:33.749Z</time></trkpt><trkpt lat="45.5566334" lon="11.117768"><ele>765.2</ele><time>2026-04-18T11:29:34.75Z</time></trkpt><trkpt lat="45.5566943" lon="11.1176497"><ele>765.0</ele><time>2026-04-18T11:29:35.749Z</time></trkpt><trkpt lat="45.5567409" lon="11.1175237"><ele>763.0</ele><time>2026-04-18T11:29:36.749Z</time></trkpt><trkpt lat="45.5567847" lon="11.1174002"><ele>761.0</ele><time>2026-04-18T11:29:37.749Z</time></trkpt><trkpt lat="45.5568287" lon="11.1172832"><ele>759.0</ele><time>2026-04-18T11:29:38.749Z</time></trkpt><trkpt lat="45.5568838" lon="11.1171769"><ele>757.0</ele><time>2026-04-18T11:29:39.749Z</time></trkpt><trkpt lat="45.5569501" lon="11.1170709"><ele>755.0</ele><time>2026-04-18T11:29:40.749Z</time></trkpt><trkpt lat="45.5570258" lon="11.1169802"><ele>758.1666666666666</ele><time>2026-04-18T11:29:41.749Z</time></trkpt><trkpt lat="45.5571112" lon="11.1168998"><ele>761.3333333333333</ele><time>2026-04-18T11:29:42.749Z</time></trkpt><trkpt lat="45.5571956" lon="11.1168289"><ele>764.5</ele><time>2026-04-18T11:29:43.749Z</time></trkpt><trkpt lat="45.5572617" lon="11.116791"><ele>767.6666666666666</ele><time>2026-04-18T11:29:44.749Z</time></trkpt><trkpt lat="45.5573273" lon="11.1167702"><ele>770.8333333333334</ele><time>2026-04-18T11:29:45.749Z</time></trkpt><trkpt lat="45.5573953" lon="11.1167637"><ele>774.0</ele><time>2026-04-18T11:29:46.749Z</time></trkpt><trkpt lat="45.5574654" lon="11.116775"><ele>774.0</ele><time>2026-04-18T11:29:47.749Z</time></trkpt><trkpt lat="45.5575627" lon="11.1168149"><ele>774.0</ele><time>2026-04-18T11:29:48.749Z</time></trkpt><trkpt lat="45.557651" lon="11.1168526"><ele>774.0</ele><time>2026-04-18T11:29:49.749Z</time></trkpt><trkpt lat="45.557748" lon="11.1168708"><ele>774.0</ele><time>2026-04-18T11:29:50.749Z</time></trkpt><trkpt lat="45.5578436" lon="11.1168777"><ele>774.0</ele><time>2026-04-18T11:29:51.749Z</time></trkpt><trkpt lat="45.5579429" lon="11.1168622"><ele>776.6</ele><time>2026-04-18T11:29:52.749Z</time></trkpt><trkpt lat="45.5580564" lon="11.1168242"><ele>779.2</ele><time>2026-04-18T11:29:53.749Z</time></trkpt><trkpt lat="45.5581713" lon="11.1167829"><ele>781.8000000000001</ele><time>2026-04-18T11:29:54.749Z</time></trkpt><trkpt lat="45.5582736" lon="11.1167515"><ele>784.4000000000001</ele><time>2026-04-18T11:29:55.749Z</time></trkpt><trkpt lat="45.5583711" lon="11.1167174"><ele>787.0</ele><time>2026-04-18T11:29:56.749Z</time></trkpt><trkpt lat="45.5584475" lon="11.1166867"><ele>786.9999999999999</ele><time>2026-04-18T11:29:57.749Z</time></trkpt><trkpt lat="45.5585251" lon="11.1166596"><ele>787.0</ele><time>2026-04-18T11:29:58.749Z</time></trkpt><trkpt lat="45.5586004" lon="11.1166381"><ele>787.0</ele><time>2026-04-18T11:29:59.749Z</time></trkpt><trkpt lat="45.5586686" lon="11.1166442"><ele>787.0</ele><time>2026-04-18T11:30:00.749Z</time></trkpt><trkpt lat="45.5587384" lon="11.1166577"><ele>786.9999999999999</ele><time>2026-04-18T11:30:01.749Z</time></trkpt><trkpt lat="45.5588031" lon="11.1166705"><ele>787.0</ele><time>2026-04-18T11:30:02.749Z</time></trkpt><trkpt lat="45.5589119" lon="11.1166992"><ele>787.8</ele><time>2026-04-18T11:30:04.749Z</time></trkpt><trkpt lat="45.5590034" lon="11.1167315"><ele>788.6</ele><time>2026-04-18T11:30:06.749Z</time></trkpt><trkpt lat="45.5591015" lon="11.1167562"><ele>789.4</ele><time>2026-04-18T11:30:08.749Z</time></trkpt><trkpt lat="45.5592011" lon="11.1167735"><ele>790.1999999999999</ele><time>2026-04-18T11:30:10.749Z</time></trkpt><trkpt lat="45.5593215" lon="11.1167847"><ele>791.0</ele><time>2026-04-18T11:30:12.749Z</time></trkpt><trkpt lat="45.5594475" lon="11.1167912"><ele>790.5999999999999</ele><time>2026-04-18T11:30:14.749Z</time></trkpt><trkpt lat="45.5595581" lon="11.1168264"><ele>790.2</ele><time>2026-04-18T11:30:16.749Z</time></trkpt><trkpt lat="45.5596187" lon="11.1168521"><ele>789.8</ele><time>2026-04-18T11:30:17.749Z</time></trkpt><trkpt lat="45.5597326" lon="11.1168876"><ele>789.4000000000001</ele><time>2026-04-18T11:30:19.749Z</time></trkpt><trkpt lat="45.5598521" lon="11.1169304"><ele>789.0</ele><time>2026-04-18T11:30:21.749Z</time></trkpt><trkpt lat="45.5599154" lon="11.1169603"><ele>789.0</ele><time>2026-04-18T11:30:22.749Z</time></trkpt><trkpt lat="45.5600196" lon="11.1170328"><ele>789.0</ele><time>2026-04-18T11:30:24.75Z</time></trkpt><trkpt lat="45.5600826" lon="11.1170763"><ele>789.0</ele><time>2026-04-18T11:30:25.749Z</time></trkpt><trkpt lat="45.5601762" lon="11.1171752"><ele>789.0</ele><time>2026-04-18T11:30:27.749Z</time></trkpt><trkpt lat="45.5602529" lon="11.1172838"><ele>789.0</ele><time>2026-04-18T11:30:29.749Z</time></trkpt><trkpt lat="45.5603325" lon="11.1174008"><ele>791.25</ele><time>2026-04-18T11:30:31.749Z</time></trkpt><trkpt lat="45.5604029" lon="11.117521"><ele>793.5</ele><time>2026-04-18T11:30:33.749Z</time></trkpt><trkpt lat="45.5604946" lon="11.1176425"><ele>795.75</ele><time>2026-04-18T11:30:35.749Z</time></trkpt><trkpt lat="45.5605808" lon="11.1177466"><ele>798.0</ele><time>2026-04-18T11:30:37.749Z</time></trkpt><trkpt lat="45.5606702" lon="11.1178279"><ele>798.0</ele><time>2026-04-18T11:30:39.749Z</time></trkpt><trkpt lat="45.5607725" lon="11.1178893"><ele>798.0</ele><time>2026-04-18T11:30:41.749Z</time></trkpt><trkpt lat="45.5608827" lon="11.1179313"><ele>798.0</ele><time>2026-04-18T11:30:43.749Z</time></trkpt><trkpt lat="45.5609927" lon="11.1179496"><ele>798.0</ele><time>2026-04-18T11:30:45.749Z</time></trkpt><trkpt lat="45.5611227" lon="11.1179906"><ele>798.0</ele><time>2026-04-18T11:30:47.749Z</time></trkpt><trkpt lat="45.5611885" lon="11.1180153"><ele>798.0</ele><time>2026-04-18T11:30:48.749Z</time></trkpt><trkpt lat="45.5612685" lon="11.118043"><ele>798.0</ele><time>2026-04-18T11:30:49.749Z</time></trkpt><trkpt lat="45.5613557" lon="11.1180665"><ele>798.0</ele><time>2026-04-18T11:30:50.749Z</time></trkpt><trkpt lat="45.5614394" lon="11.1180898"><ele>798.0</ele><time>2026-04-18T11:30:51.749Z</time></trkpt><trkpt lat="45.5615287" lon="11.1181145"><ele>798.0</ele><time>2026-04-18T11:30:52.749Z</time></trkpt><trkpt lat="45.5616154" lon="11.1181156"><ele>797.2</ele><time>2026-04-18T11:30:53.749Z</time></trkpt><trkpt lat="45.5616965" lon="11.1181246"><ele>796.4</ele><time>2026-04-18T11:30:54.749Z</time></trkpt><trkpt lat="45.5617737" lon="11.1181265"><ele>795.6</ele><time>2026-04-18T11:30:55.749Z</time></trkpt><trkpt lat="45.5618958" lon="11.1181251"><ele>794.8000000000001</ele><time>2026-04-18T11:30:57.749Z</time></trkpt><trkpt lat="45.5620297" lon="11.118135"><ele>794.0</ele><time>2026-04-18T11:30:59.749Z</time></trkpt><trkpt lat="45.5621023" lon="11.1181654"><ele>798.8000000000001</ele><time>2026-04-18T11:31:00.75Z</time></trkpt><trkpt lat="45.5621704" lon="11.1181758"><ele>803.6</ele><time>2026-04-18T11:31:01.749Z</time></trkpt><trkpt lat="45.5622841" lon="11.1182162"><ele>808.4</ele><time>2026-04-18T11:31:03.749Z</time></trkpt><trkpt lat="45.5623952" lon="11.1182765"><ele>813.2</ele><time>2026-04-18T11:31:05.749Z</time></trkpt><trkpt lat="45.5624586" lon="11.1183271"><ele>818.0</ele><time>2026-04-18T11:31:06.749Z</time></trkpt><trkpt lat="45.5625656" lon="11.1184144"><ele>818.0</ele><time>2026-04-18T11:31:08.749Z</time></trkpt><trkpt lat="45.5626603" lon="11.1184556"><ele>818.0</ele><time>2026-04-18T11:31:10.749Z</time></trkpt><trkpt lat="45.5627288" lon="11.1184348"><ele>818.0</ele><time>2026-04-18T11:31:12.749Z</time></trkpt><trkpt lat="45.5627669" lon="11.118337"><ele>818.0</ele><time>2026-04-18T11:31:14.749Z</time></trkpt><trkpt lat="45.5628053" lon="11.1181833"><ele>818.0</ele><time>2026-04-18T11:31:16.749Z</time></trkpt><trkpt lat="45.5628433" lon="11.118038"><ele>821.1666666666667</ele><time>2026-04-18T11:31:18.749Z</time></trkpt><trkpt lat="45.5628802" lon="11.1179099"><ele>824.3333333333334</ele><time>2026-04-18T11:31:20.749Z</time></trkpt><trkpt lat="45.5629184" lon="11.1178091"><ele>827.5</ele><time>2026-04-18T11:31:22.749Z</time></trkpt><trkpt lat="45.5629522" lon="11.1177324"><ele>830.6666666666667</ele><time>2026-04-18T11:31:24.749Z</time></trkpt><trkpt lat="45.5629819" lon="11.1176517"><ele>833.8333333333334</ele><time>2026-04-18T11:31:26.749Z</time></trkpt><trkpt lat="45.5630389" lon="11.1175614"><ele>837.0</ele><time>2026-04-18T11:31:28.749Z</time></trkpt><trkpt lat="45.5630854" lon="11.1174942"><ele>833.8</ele><time>2026-04-18T11:31:29.749Z</time></trkpt><trkpt lat="45.5631747" lon="11.117402"><ele>830.6</ele><time>2026-04-18T11:31:31.75Z</time></trkpt><trkpt lat="45.5632614" lon="11.1173378"><ele>827.4</ele><time>2026-04-18T11:31:33.749Z</time></trkpt><trkpt lat="45.5633747" lon="11.1173157"><ele>824.1999999999999</ele><time>2026-04-18T11:31:35.749Z</time></trkpt><trkpt lat="45.5634454" lon="11.117311"><ele>821.0</ele><time>2026-04-18T11:31:36.75Z</time></trkpt><trkpt lat="45.563517" lon="11.1173134"><ele>821.0000000000001</ele><time>2026-04-18T11:31:37.749Z</time></trkpt><trkpt lat="45.5636071" lon="11.1173181"><ele>821.0</ele><time>2026-04-18T11:31:39.749Z</time></trkpt><trkpt lat="45.5635919" lon="11.1174204"><ele>821.0</ele><time>2026-04-18T11:31:50.749Z</time></trkpt><trkpt lat="45.5635371" lon="11.117492"><ele>821.0</ele><time>2026-04-18T11:31:52.749Z</time></trkpt><trkpt lat="45.5634819" lon="11.1175724"><ele>821.0000000000001</ele><time>2026-04-18T11:31:54.749Z</time></trkpt><trkpt lat="45.5634212" lon="11.117671"><ele>821.0</ele><time>2026-04-18T11:31:56.749Z</time></trkpt><trkpt lat="45.5633633" lon="11.1177733"><ele>824.1999999999999</ele><time>2026-04-18T11:31:58.749Z</time></trkpt><trkpt lat="45.5632993" lon="11.1178988"><ele>827.4</ele><time>2026-04-18T11:32:00.749Z</time></trkpt><trkpt lat="45.5632561" lon="11.1180396"><ele>830.6</ele><time>2026-04-18T11:32:02.749Z</time></trkpt><trkpt lat="45.5632298" lon="11.1181801"><ele>833.8</ele><time>2026-04-18T11:32:04.749Z</time></trkpt><trkpt lat="45.5632138" lon="11.118329"><ele>837.0</ele><time>2026-04-18T11:32:06.749Z</time></trkpt><trkpt lat="45.5632044" lon="11.1184625"><ele>841.0</ele><time>2026-04-18T11:32:08.749Z</time></trkpt><trkpt lat="45.5631879" lon="11.1186076"><ele>845.0</ele><time>2026-04-18T11:32:10.749Z</time></trkpt><trkpt lat="45.5631454" lon="11.1187427"><ele>849.0</ele><time>2026-04-18T11:32:12.749Z</time></trkpt><trkpt lat="45.5631115" lon="11.1188301"><ele>853.0</ele><time>2026-04-18T11:32:13.749Z</time></trkpt><trkpt lat="45.5630784" lon="11.1189116"><ele>857.0</ele><time>2026-04-18T11:32:14.749Z</time></trkpt><trkpt lat="45.5630489" lon="11.1189919"><ele>861.0</ele><time>2026-04-18T11:32:15.749Z</time></trkpt><trkpt lat="45.5629707" lon="11.1191297"><ele>863.1666666666666</ele><time>2026-04-18T11:32:17.749Z</time></trkpt><trkpt lat="45.5629197" lon="11.1192151"><ele>865.3333333333333</ele><time>2026-04-18T11:32:19.749Z</time></trkpt><trkpt lat="45.5628323" lon="11.1192638"><ele>867.5</ele><time>2026-04-18T11:32:21.749Z</time></trkpt><trkpt lat="45.5627339" lon="11.1192634"><ele>869.6666666666666</ele><time>2026-04-18T11:32:23.749Z</time></trkpt><trkpt lat="45.562644" lon="11.1192464"><ele>871.8333333333333</ele><time>2026-04-18T11:32:25.749Z</time></trkpt><trkpt lat="45.5625805" lon="11.1192467"><ele>874.0</ele><time>2026-04-18T11:32:51.749Z</time></trkpt><trkpt lat="45.5624721" lon="11.1192613"><ele>873.9999999999999</ele><time>2026-04-18T11:32:53.749Z</time></trkpt><trkpt lat="45.5623981" lon="11.1193084"><ele>874.0</ele><time>2026-04-18T11:32:55.749Z</time></trkpt><trkpt lat="45.5623057" lon="11.1193602"><ele>874.0</ele><time>2026-04-18T11:32:57.75Z</time></trkpt><trkpt lat="45.5622234" lon="11.119446"><ele>874.0</ele><time>2026-04-18T11:32:59.749Z</time></trkpt><trkpt lat="45.5621743" lon="11.1195296"><ele>873.9999999999999</ele><time>2026-04-18T11:33:01.749Z</time></trkpt><trkpt lat="45.5621687" lon="11.1196486"><ele>874.0</ele><time>2026-04-18T11:33:04.749Z</time></trkpt><trkpt lat="45.5622616" lon="11.1196667"><ele>873.9999999999999</ele><time>2026-04-18T11:33:08.749Z</time></trkpt><trkpt lat="45.5623673" lon="11.1196143"><ele>874.0</ele><time>2026-04-18T11:33:10.749Z</time></trkpt><trkpt lat="45.5624312" lon="11.1195911"><ele>874.0</ele><time>2026-04-18T11:33:11.749Z</time></trkpt><trkpt lat="45.5624976" lon="11.1195767"><ele>874.0</ele><time>2026-04-18T11:33:12.749Z</time></trkpt><trkpt lat="45.5625886" lon="11.1195463"><ele>873.9999999999999</ele><time>2026-04-18T11:33:14.749Z</time></trkpt><trkpt lat="45.5626715" lon="11.1195359"><ele>874.0</ele><time>2026-04-18T11:33:40.749Z</time></trkpt><trkpt lat="45.5627466" lon="11.1195566"><ele>873.9999999999999</ele><time>2026-04-18T11:33:43.749Z</time></trkpt><trkpt lat="45.5628174" lon="11.1195913"><ele>874.0</ele><time>2026-04-18T11:33:46.749Z</time></trkpt><trkpt lat="45.5628865" lon="11.1195803"><ele>874.0</ele><time>2026-04-18T11:33:49.749Z</time></trkpt><trkpt lat="45.5629574" lon="11.1195423"><ele>874.0</ele><time>2026-04-18T11:33:51.749Z</time></trkpt><trkpt lat="45.5630335" lon="11.1194863"><ele>873.9999999999999</ele><time>2026-04-18T11:33:53.749Z</time></trkpt><trkpt lat="45.563119" lon="11.1194236"><ele>874.0</ele><time>2026-04-18T11:33:55.749Z</time></trkpt><trkpt lat="45.5632012" lon="11.1193752"><ele>876.8000000000001</ele><time>2026-04-18T11:33:57.749Z</time></trkpt><trkpt lat="45.5632976" lon="11.1193087"><ele>879.6000000000001</ele><time>2026-04-18T11:33:59.749Z</time></trkpt><trkpt lat="45.5633973" lon="11.1192344"><ele>882.4</ele><time>2026-04-18T11:34:01.749Z</time></trkpt><trkpt lat="45.5634754" lon="11.1191765"><ele>885.2</ele><time>2026-04-18T11:34:02.749Z</time></trkpt><trkpt lat="45.5635699" lon="11.1191194"><ele>888.0</ele><time>2026-04-18T11:34:03.749Z</time></trkpt><trkpt lat="45.5636464" lon="11.1190734"><ele>886.6666666666666</ele><time>2026-04-18T11:34:04.749Z</time></trkpt><trkpt lat="45.5637213" lon="11.1190335"><ele>885.3333333333333</ele><time>2026-04-18T11:34:05.749Z</time></trkpt><trkpt lat="45.5637923" lon="11.119004"><ele>884.0</ele><time>2026-04-18T11:34:06.749Z</time></trkpt><trkpt lat="45.5638846" lon="11.1189788"><ele>882.6666666666666</ele><time>2026-04-18T11:34:07.749Z</time></trkpt><trkpt lat="45.5639779" lon="11.1189523"><ele>881.3333333333333</ele><time>2026-04-18T11:34:08.749Z</time></trkpt><trkpt lat="45.5640776" lon="11.1189164"><ele>880.0</ele><time>2026-04-18T11:34:09.749Z</time></trkpt><trkpt lat="45.5641901" lon="11.1188737"><ele>880.0</ele><time>2026-04-18T11:34:10.749Z</time></trkpt><trkpt lat="45.5642969" lon="11.1188303"><ele>880.0</ele><time>2026-04-18T11:34:11.749Z</time></trkpt><trkpt lat="45.5644073" lon="11.118792"><ele>880.0</ele><time>2026-04-18T11:34:12.749Z</time></trkpt><trkpt lat="45.564503" lon="11.1187585"><ele>880.0</ele><time>2026-04-18T11:34:13.749Z</time></trkpt><trkpt lat="45.5645997" lon="11.1187285"><ele>880.0</ele><time>2026-04-18T11:34:14.749Z</time></trkpt><trkpt lat="45.5646851" lon="11.1186993"><ele>882.6666666666666</ele><time>2026-04-18T11:34:15.749Z</time></trkpt><trkpt lat="45.5647701" lon="11.118667"><ele>885.3333333333333</ele><time>2026-04-18T11:34:16.749Z</time></trkpt><trkpt lat="45.5648359" lon="11.1186275"><ele>888.0</ele><time>2026-04-18T11:34:17.749Z</time></trkpt><trkpt lat="45.5649489" lon="11.1185753"><ele>890.6666666666667</ele><time>2026-04-18T11:34:19.749Z</time></trkpt><trkpt lat="45.5650133" lon="11.1185508"><ele>893.3333333333334</ele><time>2026-04-18T11:34:20.749Z</time></trkpt><trkpt lat="45.5651013" lon="11.1185418"><ele>896.0</ele><time>2026-04-18T11:34:21.749Z</time></trkpt><trkpt lat="45.5651999" lon="11.1185382"><ele>896.0000000000001</ele><time>2026-04-18T11:34:22.749Z</time></trkpt><trkpt lat="45.5653036" lon="11.1185295"><ele>896.0</ele><time>2026-04-18T11:34:23.749Z</time></trkpt><trkpt lat="45.565387" lon="11.1185241"><ele>896.0</ele><time>2026-04-18T11:34:24.749Z</time></trkpt><trkpt lat="45.5654666" lon="11.1185147"><ele>896.0</ele><time>2026-04-18T11:34:25.749Z</time></trkpt><trkpt lat="45.5655414" lon="11.1185011"><ele>896.0000000000001</ele><time>2026-04-18T11:34:26.749Z</time></trkpt><trkpt lat="45.5656191" lon="11.1184561"><ele>896.0</ele><time>2026-04-18T11:34:27.749Z</time></trkpt><trkpt lat="45.5656992" lon="11.1183858"><ele>898.1666666666667</ele><time>2026-04-18T11:34:28.749Z</time></trkpt><trkpt lat="45.5657816" lon="11.1183186"><ele>900.3333333333334</ele><time>2026-04-18T11:34:29.749Z</time></trkpt><trkpt lat="45.5658517" lon="11.1182561"><ele>902.5</ele><time>2026-04-18T11:34:30.749Z</time></trkpt><trkpt lat="45.5659251" lon="11.1182143"><ele>904.6666666666667</ele><time>2026-04-18T11:34:31.749Z</time></trkpt><trkpt lat="45.5660053" lon="11.1181795"><ele>906.8333333333334</ele><time>2026-04-18T11:34:32.749Z</time></trkpt><trkpt lat="45.5660936" lon="11.1181461"><ele>909.0</ele><time>2026-04-18T11:34:33.749Z</time></trkpt><trkpt lat="45.5661913" lon="11.1181278"><ele>905.5</ele><time>2026-04-18T11:34:34.749Z</time></trkpt><trkpt lat="45.566281" lon="11.1181196"><ele>902.0</ele><time>2026-04-18T11:34:35.749Z</time></trkpt><trkpt lat="45.5663661" lon="11.1181108"><ele>898.5</ele><time>2026-04-18T11:34:36.75Z</time></trkpt><trkpt lat="45.5664428" lon="11.1181177"><ele>895.0</ele><time>2026-04-18T11:34:37.749Z</time></trkpt><trkpt lat="45.5665192" lon="11.1181173"><ele>891.5</ele><time>2026-04-18T11:34:38.749Z</time></trkpt><trkpt lat="45.5666261" lon="11.1181422"><ele>888.0</ele><time>2026-04-18T11:34:39.749Z</time></trkpt><trkpt lat="45.5667581" lon="11.1181983"><ele>892.5999999999999</ele><time>2026-04-18T11:34:40.749Z</time></trkpt><trkpt lat="45.5668694" lon="11.1182467"><ele>897.1999999999999</ele><time>2026-04-18T11:34:41.749Z</time></trkpt><trkpt lat="45.5669784" lon="11.1182884"><ele>901.8</ele><time>2026-04-18T11:34:42.749Z</time></trkpt><trkpt lat="45.5670786" lon="11.118329"><ele>906.4</ele><time>2026-04-18T11:34:43.749Z</time></trkpt><trkpt lat="45.5671703" lon="11.1183509"><ele>911.0</ele><time>2026-04-18T11:34:44.749Z</time></trkpt><trkpt lat="45.5672518" lon="11.1183666"><ele>911.0000000000001</ele><time>2026-04-18T11:34:45.749Z</time></trkpt><trkpt lat="45.5673365" lon="11.1183773"><ele>911.0</ele><time>2026-04-18T11:34:46.749Z</time></trkpt><trkpt lat="45.5674162" lon="11.1183649"><ele>911.0</ele><time>2026-04-18T11:34:47.749Z</time></trkpt><trkpt lat="45.5675065" lon="11.1183299"><ele>911.0</ele><time>2026-04-18T11:34:48.749Z</time></trkpt><trkpt lat="45.5676006" lon="11.1182742"><ele>911.0000000000001</ele><time>2026-04-18T11:34:49.749Z</time></trkpt><trkpt lat="45.5676832" lon="11.1182284"><ele>911.0</ele><time>2026-04-18T11:34:50.749Z</time></trkpt><trkpt lat="45.5677621" lon="11.1181855"><ele>908.1428571428572</ele><time>2026-04-18T11:34:51.749Z</time></trkpt><trkpt lat="45.5678342" lon="11.1181557"><ele>905.2857142857142</ele><time>2026-04-18T11:34:52.749Z</time></trkpt><trkpt lat="45.5678996" lon="11.118135"><ele>902.4285714285714</ele><time>2026-04-18T11:34:53.749Z</time></trkpt><trkpt lat="45.5679632" lon="11.1181338"><ele>899.5714285714287</ele><time>2026-04-18T11:34:54.749Z</time></trkpt><trkpt lat="45.5680553" lon="11.1181533"><ele>896.7142857142858</ele><time>2026-04-18T11:34:56.749Z</time></trkpt><trkpt lat="45.5681243" lon="11.1181599"><ele>893.8571428571429</ele><time>2026-04-18T11:34:58.749Z</time></trkpt><trkpt lat="45.5681914" lon="11.1181853"><ele>891.0</ele><time>2026-04-18T11:35:23.749Z</time></trkpt><trkpt lat="45.5683013" lon="11.1181893"><ele>891.0</ele><time>2026-04-18T11:35:49.749Z</time></trkpt><trkpt lat="45.5683779" lon="11.1182"><ele>891.0</ele><time>2026-04-18T11:35:50.749Z</time></trkpt><trkpt lat="45.5684553" lon="11.1182211"><ele>891.0</ele><time>2026-04-18T11:35:51.749Z</time></trkpt><trkpt lat="45.5685443" lon="11.118252"><ele>891.0</ele><time>2026-04-18T11:35:52.75Z</time></trkpt><trkpt lat="45.5686383" lon="11.1182835"><ele>891.0</ele><time>2026-04-18T11:35:53.749Z</time></trkpt><trkpt lat="45.5687276" lon="11.1183115"><ele>891.0</ele><time>2026-04-18T11:35:54.749Z</time></trkpt><trkpt lat="45.5688076" lon="11.1183354"><ele>892.8333333333334</ele><time>2026-04-18T11:35:55.749Z</time></trkpt><trkpt lat="45.568883" lon="11.1183574"><ele>894.6666666666667</ele><time>2026-04-18T11:35:56.749Z</time></trkpt><trkpt lat="45.5689562" lon="11.1183846"><ele>896.5</ele><time>2026-04-18T11:35:57.749Z</time></trkpt><trkpt lat="45.569038" lon="11.1184055"><ele>898.3333333333334</ele><time>2026-04-18T11:35:58.749Z</time></trkpt><trkpt lat="45.5691231" lon="11.1184275"><ele>900.1666666666667</ele><time>2026-04-18T11:35:59.749Z</time></trkpt><trkpt lat="45.5692177" lon="11.1184535"><ele>902.0</ele><time>2026-04-18T11:36:00.75Z</time></trkpt><trkpt lat="45.5693186" lon="11.1184932"><ele>902.0</ele><time>2026-04-18T11:36:01.749Z</time></trkpt><trkpt lat="45.5694211" lon="11.1185488"><ele>902.0</ele><time>2026-04-18T11:36:02.749Z</time></trkpt><trkpt lat="45.5695173" lon="11.1186086"><ele>902.0</ele><time>2026-04-18T11:36:03.749Z</time></trkpt><trkpt lat="45.5696195" lon="11.1186793"><ele>902.0</ele><time>2026-04-18T11:36:04.749Z</time></trkpt><trkpt lat="45.569742" lon="11.1187451"><ele>898.25</ele><time>2026-04-18T11:36:05.749Z</time></trkpt><trkpt lat="45.5698563" lon="11.1188042"><ele>894.5</ele><time>2026-04-18T11:36:06.749Z</time></trkpt><trkpt lat="45.5699637" lon="11.1188704"><ele>890.75</ele><time>2026-04-18T11:36:07.749Z</time></trkpt><trkpt lat="45.5700836" lon="11.1189519"><ele>887.0</ele><time>2026-04-18T11:36:08.749Z</time></trkpt><trkpt lat="45.5702012" lon="11.1190451"><ele>890.0</ele><time>2026-04-18T11:36:09.749Z</time></trkpt><trkpt lat="45.5703062" lon="11.1191399"><ele>893.0</ele><time>2026-04-18T11:36:10.749Z</time></trkpt><trkpt lat="45.570399" lon="11.119235"><ele>896.0</ele><time>2026-04-18T11:36:11.749Z</time></trkpt><trkpt lat="45.5704904" lon="11.1193562"><ele>899.0</ele><time>2026-04-18T11:36:12.75Z</time></trkpt><trkpt lat="45.5705824" lon="11.1194903"><ele>898.8000000000001</ele><time>2026-04-18T11:36:13.749Z</time></trkpt><trkpt lat="45.5706686" lon="11.1196185"><ele>898.6000000000001</ele><time>2026-04-18T11:36:14.749Z</time></trkpt><trkpt lat="45.5707457" lon="11.1197265"><ele>898.4</ele><time>2026-04-18T11:36:15.749Z</time></trkpt><trkpt lat="45.5708249" lon="11.1198237"><ele>898.2</ele><time>2026-04-18T11:36:16.749Z</time></trkpt><trkpt lat="45.5709029" lon="11.119929"><ele>898.0</ele><time>2026-04-18T11:36:17.749Z</time></trkpt><trkpt lat="45.5709846" lon="11.1200308"><ele>898.0</ele><time>2026-04-18T11:36:18.749Z</time></trkpt><trkpt lat="45.5710692" lon="11.1201177"><ele>898.0</ele><time>2026-04-18T11:36:19.749Z</time></trkpt><trkpt lat="45.5711714" lon="11.1201755"><ele>898.0</ele><time>2026-04-18T11:36:20.749Z</time></trkpt><trkpt lat="45.5712697" lon="11.1202276"><ele>898.0</ele><time>2026-04-18T11:36:21.749Z</time></trkpt><trkpt lat="45.5713774" lon="11.1202519"><ele>898.0</ele><time>2026-04-18T11:36:22.749Z</time></trkpt><trkpt lat="45.5714937" lon="11.1202676"><ele>898.75</ele><time>2026-04-18T11:36:23.749Z</time></trkpt><trkpt lat="45.5716229" lon="11.1202697"><ele>899.5</ele><time>2026-04-18T11:36:24.749Z</time></trkpt><trkpt lat="45.5717508" lon="11.1202707"><ele>900.25</ele><time>2026-04-18T11:36:25.749Z</time></trkpt><trkpt lat="45.5718911" lon="11.1202538"><ele>901.0</ele><time>2026-04-18T11:36:26.749Z</time></trkpt><trkpt lat="45.5720233" lon="11.1202267"><ele>899.5999999999999</ele><time>2026-04-18T11:36:27.749Z</time></trkpt><trkpt lat="45.5721486" lon="11.1201964"><ele>898.1999999999999</ele><time>2026-04-18T11:36:28.749Z</time></trkpt><trkpt lat="45.5722653" lon="11.1201727"><ele>896.8000000000001</ele><time>2026-04-18T11:36:29.749Z</time></trkpt><trkpt lat="45.5723625" lon="11.1201577"><ele>895.4000000000001</ele><time>2026-04-18T11:36:30.749Z</time></trkpt><trkpt lat="45.5724375" lon="11.1201441"><ele>894.0</ele><time>2026-04-18T11:36:31.749Z</time></trkpt><trkpt lat="45.572515" lon="11.120119"><ele>894.0</ele><time>2026-04-18T11:36:33.75Z</time></trkpt><trkpt lat="45.5726041" lon="11.120128"><ele>894.0000000000001</ele><time>2026-04-18T11:36:35.749Z</time></trkpt><trkpt lat="45.5726832" lon="11.1201636"><ele>894.0000000000001</ele><time>2026-04-18T11:36:36.749Z</time></trkpt><trkpt lat="45.5727814" lon="11.1201915"><ele>894.0</ele><time>2026-04-18T11:36:37.749Z</time></trkpt><trkpt lat="45.5728751" lon="11.1202202"><ele>894.0</ele><time>2026-04-18T11:36:38.749Z</time></trkpt><trkpt lat="45.5729777" lon="11.1202537"><ele>894.0</ele><time>2026-04-18T11:36:39.749Z</time></trkpt><trkpt lat="45.5730937" lon="11.1202869"><ele>894.0</ele><time>2026-04-18T11:36:40.749Z</time></trkpt><trkpt lat="45.5732182" lon="11.1203499"><ele>894.0</ele><time>2026-04-18T11:36:41.75Z</time></trkpt><trkpt lat="45.5733545" lon="11.1204315"><ele>894.0</ele><time>2026-04-18T11:36:42.749Z</time></trkpt><trkpt lat="45.5734908" lon="11.1205302"><ele>894.0</ele><time>2026-04-18T11:36:43.749Z</time></trkpt><trkpt lat="45.573621" lon="11.1206326"><ele>894.0</ele><time>2026-04-18T11:36:44.749Z</time></trkpt><trkpt lat="45.5737562" lon="11.1207335"><ele>894.0</ele><time>2026-04-18T11:36:45.749Z</time></trkpt><trkpt lat="45.5738908" lon="11.1208347"><ele>898.6666666666667</ele><time>2026-04-18T11:36:46.75Z</time></trkpt><trkpt lat="45.5740263" lon="11.1209356"><ele>903.3333333333334</ele><time>2026-04-18T11:36:47.749Z</time></trkpt><trkpt lat="45.5741716" lon="11.1210199"><ele>908.0</ele><time>2026-04-18T11:36:48.749Z</time></trkpt><trkpt lat="45.5743065" lon="11.1210855"><ele>908.0</ele><time>2026-04-18T11:36:49.749Z</time></trkpt><trkpt lat="45.5744318" lon="11.1211343"><ele>908.0</ele><time>2026-04-18T11:36:50.749Z</time></trkpt><trkpt lat="45.574567" lon="11.1211481"><ele>908.0</ele><time>2026-04-18T11:36:51.749Z</time></trkpt><trkpt lat="45.5747111" lon="11.1211257"><ele>908.0</ele><time>2026-04-18T11:36:52.75Z</time></trkpt><trkpt lat="45.5748497" lon="11.1210805"><ele>909.5</ele><time>2026-04-18T11:36:53.75Z</time></trkpt><trkpt lat="45.5749811" lon="11.1210022"><ele>911.0</ele><time>2026-04-18T11:36:54.749Z</time></trkpt><trkpt lat="45.5751068" lon="11.1209079"><ele>912.5</ele><time>2026-04-18T11:36:55.749Z</time></trkpt><trkpt lat="45.5752232" lon="11.1207862"><ele>914.0</ele><time>2026-04-18T11:36:56.749Z</time></trkpt><trkpt lat="45.575335" lon="11.1206288"><ele>916.0</ele><time>2026-04-18T11:36:57.749Z</time></trkpt><trkpt lat="45.5754423" lon="11.120438"><ele>918.0</ele><time>2026-04-18T11:36:58.749Z</time></trkpt><trkpt lat="45.5755517" lon="11.1202299"><ele>920.0</ele><time>2026-04-18T11:36:59.749Z</time></trkpt><trkpt lat="45.5756607" lon="11.1200129"><ele>923.3333333333334</ele><time>2026-04-18T11:37:00.749Z</time></trkpt><trkpt lat="45.5757593" lon="11.1198083"><ele>926.6666666666667</ele><time>2026-04-18T11:37:01.749Z</time></trkpt><trkpt lat="45.5758463" lon="11.119621"><ele>930.0</ele><time>2026-04-18T11:37:02.749Z</time></trkpt><trkpt lat="45.575934" lon="11.1194524"><ele>930.0</ele><time>2026-04-18T11:37:03.749Z</time></trkpt><trkpt lat="45.5760393" lon="11.1192775"><ele>930.0</ele><time>2026-04-18T11:37:04.749Z</time></trkpt><trkpt lat="45.5761657" lon="11.1191135"><ele>930.0</ele><time>2026-04-18T11:37:05.75Z</time></trkpt><trkpt lat="45.5763197" lon="11.1189501"><ele>931.6666666666667</ele><time>2026-04-18T11:37:06.749Z</time></trkpt><trkpt lat="45.5764929" lon="11.118791"><ele>933.3333333333334</ele><time>2026-04-18T11:37:07.749Z</time></trkpt><trkpt lat="45.5766779" lon="11.1186368"><ele>935.0</ele><time>2026-04-18T11:37:08.749Z</time></trkpt><trkpt lat="45.5768505" lon="11.1184949"><ele>935.0</ele><time>2026-04-18T11:37:09.749Z</time></trkpt><trkpt lat="45.5770074" lon="11.1183678"><ele>935.0</ele><time>2026-04-18T11:37:10.75Z</time></trkpt><trkpt lat="45.577157" lon="11.11825"><ele>935.0</ele><time>2026-04-18T11:37:11.749Z</time></trkpt><trkpt lat="45.5773135" lon="11.118122"><ele>935.6666666666667</ele><time>2026-04-18T11:37:12.749Z</time></trkpt><trkpt lat="45.5774704" lon="11.1179789"><ele>936.3333333333333</ele><time>2026-04-18T11:37:13.749Z</time></trkpt><trkpt lat="45.5776319" lon="11.1178192"><ele>937.0</ele><time>2026-04-18T11:37:14.749Z</time></trkpt><trkpt lat="45.5777978" lon="11.1176451"><ele>937.0</ele><time>2026-04-18T11:37:15.749Z</time></trkpt><trkpt lat="45.5779561" lon="11.117481"><ele>937.0</ele><time>2026-04-18T11:37:16.749Z</time></trkpt><trkpt lat="45.5781043" lon="11.1173262"><ele>937.0</ele><time>2026-04-18T11:37:17.749Z</time></trkpt><trkpt lat="45.5782453" lon="11.1171778"><ele>937.0</ele><time>2026-04-18T11:37:18.749Z</time></trkpt><trkpt lat="45.5783788" lon="11.1170334"><ele>937.0</ele><time>2026-04-18T11:37:19.749Z</time></trkpt><trkpt lat="45.578509" lon="11.1168978"><ele>937.0</ele><time>2026-04-18T11:37:20.749Z</time></trkpt><trkpt lat="45.5786288" lon="11.1167659"><ele>936.4000000000001</ele><time>2026-04-18T11:37:21.749Z</time></trkpt><trkpt lat="45.5787298" lon="11.1166606"><ele>935.8000000000001</ele><time>2026-04-18T11:37:22.749Z</time></trkpt><trkpt lat="45.5788122" lon="11.1165763"><ele>935.2</ele><time>2026-04-18T11:37:23.749Z</time></trkpt><trkpt lat="45.578879" lon="11.1165128"><ele>934.6</ele><time>2026-04-18T11:37:24.749Z</time></trkpt><trkpt lat="45.5789505" lon="11.1164016"><ele>934.0</ele><time>2026-04-18T11:37:26.749Z</time></trkpt><trkpt lat="45.5789775" lon="11.1162725"><ele>934.0</ele><time>2026-04-18T11:37:28.75Z</time></trkpt><trkpt lat="45.5790134" lon="11.116143"><ele>934.0000000000001</ele><time>2026-04-18T11:37:30.749Z</time></trkpt><trkpt lat="45.5790677" lon="11.1159893"><ele>934.0000000000001</ele><time>2026-04-18T11:37:32.749Z</time></trkpt><trkpt lat="45.5791223" lon="11.1158441"><ele>934.0</ele><time>2026-04-18T11:37:34.749Z</time></trkpt><trkpt lat="45.5791695" lon="11.1157077"><ele>934.0</ele><time>2026-04-18T11:37:36.749Z</time></trkpt><trkpt lat="45.5792157" lon="11.1155708"><ele>931.0</ele><time>2026-04-18T11:37:38.749Z</time></trkpt><trkpt lat="45.5792653" lon="11.1154295"><ele>928.0</ele><time>2026-04-18T11:37:40.749Z</time></trkpt><trkpt lat="45.5793417" lon="11.1153008"><ele>925.0</ele><time>2026-04-18T11:37:42.75Z</time></trkpt><trkpt lat="45.5794276" lon="11.1151761"><ele>922.0</ele><time>2026-04-18T11:37:44.749Z</time></trkpt><trkpt lat="45.5795164" lon="11.1150653"><ele>922.8</ele><time>2026-04-18T11:37:46.749Z</time></trkpt><trkpt lat="45.5796049" lon="11.1149429"><ele>923.6</ele><time>2026-04-18T11:37:48.749Z</time></trkpt><trkpt lat="45.5796492" lon="11.1148705"><ele>924.3999999999999</ele><time>2026-04-18T11:37:49.75Z</time></trkpt><trkpt lat="45.5796933" lon="11.1147902"><ele>925.1999999999999</ele><time>2026-04-18T11:37:50.749Z</time></trkpt><trkpt lat="45.5797671" lon="11.1146389"><ele>926.0</ele><time>2026-04-18T11:37:52.749Z</time></trkpt><trkpt lat="45.5798316" lon="11.1144957"><ele>926.0</ele><time>2026-04-18T11:37:54.749Z</time></trkpt><trkpt lat="45.5798838" lon="11.1143515"><ele>925.9999999999999</ele><time>2026-04-18T11:37:56.749Z</time></trkpt><trkpt lat="45.5799196" lon="11.1141961"><ele>925.9999999999999</ele><time>2026-04-18T11:37:58.749Z</time></trkpt><trkpt lat="45.5799351" lon="11.114097"><ele>926.0</ele><time>2026-04-18T11:37:59.749Z</time></trkpt><trkpt lat="45.5799431" lon="11.1139868"><ele>926.0</ele><time>2026-04-18T11:38:00.749Z</time></trkpt><trkpt lat="45.5799539" lon="11.1138664"><ele>924.8333333333334</ele><time>2026-04-18T11:38:01.749Z</time></trkpt><trkpt lat="45.5799608" lon="11.1137572"><ele>923.6666666666667</ele><time>2026-04-18T11:38:02.749Z</time></trkpt><trkpt lat="45.5799682" lon="11.1136533"><ele>922.5</ele><time>2026-04-18T11:38:03.749Z</time></trkpt><trkpt lat="45.5799942" lon="11.1134868"><ele>921.3333333333333</ele><time>2026-04-18T11:38:05.749Z</time></trkpt><trkpt lat="45.5800069" lon="11.1133876"><ele>920.1666666666666</ele><time>2026-04-18T11:38:06.75Z</time></trkpt><trkpt lat="45.5800245" lon="11.1132905"><ele>919.0</ele><time>2026-04-18T11:38:07.749Z</time></trkpt><trkpt lat="45.5800461" lon="11.1131755"><ele>918.6666666666666</ele><time>2026-04-18T11:38:08.749Z</time></trkpt><trkpt lat="45.5800607" lon="11.1130613"><ele>918.3333333333333</ele><time>2026-04-18T11:38:09.75Z</time></trkpt><trkpt lat="45.5800703" lon="11.1129333"><ele>918.0</ele><time>2026-04-18T11:38:10.749Z</time></trkpt><trkpt lat="45.5800831" lon="11.1128184"><ele>917.6666666666667</ele><time>2026-04-18T11:38:11.749Z</time></trkpt><trkpt lat="45.5800941" lon="11.1127246"><ele>917.3333333333334</ele><time>2026-04-18T11:38:12.749Z</time></trkpt><trkpt lat="45.5800946" lon="11.1126266"><ele>917.0</ele><time>2026-04-18T11:38:13.749Z</time></trkpt><trkpt lat="45.5800935" lon="11.1125328"><ele>917.0000000000001</ele><time>2026-04-18T11:38:14.749Z</time></trkpt><trkpt lat="45.5800765" lon="11.1124319"><ele>917.0</ele><time>2026-04-18T11:38:15.749Z</time></trkpt><trkpt lat="45.5800691" lon="11.1123409"><ele>917.0</ele><time>2026-04-18T11:38:16.749Z</time></trkpt><trkpt lat="45.5800701" lon="11.1122447"><ele>917.0</ele><time>2026-04-18T11:38:17.749Z</time></trkpt><trkpt lat="45.5800593" lon="11.1120986"><ele>917.0000000000001</ele><time>2026-04-18T11:38:19.749Z</time></trkpt><trkpt lat="45.5800656" lon="11.1120079"><ele>917.0</ele><time>2026-04-18T11:38:22.749Z</time></trkpt><trkpt lat="45.5801485" lon="11.112041"><ele>917.3333333333334</ele><time>2026-04-18T11:38:26.749Z</time></trkpt><trkpt lat="45.5802257" lon="11.1120916"><ele>917.6666666666667</ele><time>2026-04-18T11:38:29.749Z</time></trkpt><trkpt lat="45.5803166" lon="11.1120752"><ele>918.0</ele><time>2026-04-18T11:38:31.749Z</time></trkpt><trkpt lat="45.5804182" lon="11.112078"><ele>918.3333333333333</ele><time>2026-04-18T11:38:33.749Z</time></trkpt><trkpt lat="45.5805218" lon="11.112093"><ele>918.6666666666666</ele><time>2026-04-18T11:38:35.749Z</time></trkpt><trkpt lat="45.5805848" lon="11.1120959"><ele>919.0</ele><time>2026-04-18T11:38:36.749Z</time></trkpt><trkpt lat="45.5806608" lon="11.1120646"><ele>918.9999999999999</ele><time>2026-04-18T11:38:37.749Z</time></trkpt><trkpt lat="45.5807242" lon="11.1120047"><ele>919.0</ele><time>2026-04-18T11:38:38.749Z</time></trkpt><trkpt lat="45.5807753" lon="11.1119278"><ele>919.0</ele><time>2026-04-18T11:38:39.749Z</time></trkpt><trkpt lat="45.5808109" lon="11.1118167"><ele>919.0</ele><time>2026-04-18T11:38:40.749Z</time></trkpt><trkpt lat="45.5808429" lon="11.1116826"><ele>918.9999999999999</ele><time>2026-04-18T11:38:41.749Z</time></trkpt><trkpt lat="45.5808808" lon="11.1115402"><ele>919.0</ele><time>2026-04-18T11:38:42.749Z</time></trkpt><trkpt lat="45.5809159" lon="11.1114141"><ele>919.2</ele><time>2026-04-18T11:38:43.749Z</time></trkpt><trkpt lat="45.5809388" lon="11.1113273"><ele>919.4000000000001</ele><time>2026-04-18T11:38:44.749Z</time></trkpt><trkpt lat="45.5809987" lon="11.1111988"><ele>919.6</ele><time>2026-04-18T11:38:46.749Z</time></trkpt><trkpt lat="45.5810933" lon="11.1111109"><ele>919.8</ele><time>2026-04-18T11:38:48.749Z</time></trkpt><trkpt lat="45.5811596" lon="11.1110745"><ele>920.0</ele><time>2026-04-18T11:38:49.749Z</time></trkpt><trkpt lat="45.5812528" lon="11.1110453"><ele>920.0000000000001</ele><time>2026-04-18T11:38:50.749Z</time></trkpt><trkpt lat="45.5813344" lon="11.1110268"><ele>920.0</ele><time>2026-04-18T11:38:51.749Z</time></trkpt><trkpt lat="45.5814089" lon="11.1110095"><ele>920.0</ele><time>2026-04-18T11:38:52.749Z</time></trkpt><trkpt lat="45.5814938" lon="11.110999"><ele>920.0</ele><time>2026-04-18T11:38:53.749Z</time></trkpt><trkpt lat="45.5815691" lon="11.1110012"><ele>920.0000000000001</ele><time>2026-04-18T11:38:54.749Z</time></trkpt><trkpt lat="45.581639" lon="11.1110131"><ele>920.0</ele><time>2026-04-18T11:38:55.749Z</time></trkpt><trkpt lat="45.5817058" lon="11.1110394"><ele>920.0</ele><time>2026-04-18T11:38:56.749Z</time></trkpt><trkpt lat="45.5817673" lon="11.1110693"><ele>920.0</ele><time>2026-04-18T11:38:57.749Z</time></trkpt><trkpt lat="45.5818762" lon="11.111156"><ele>920.0</ele><time>2026-04-18T11:38:59.749Z</time></trkpt><trkpt lat="45.5819719" lon="11.1112404"><ele>920.0</ele><time>2026-04-18T11:39:01.749Z</time></trkpt><trkpt lat="45.5820474" lon="11.1113401"><ele>920.0</ele><time>2026-04-18T11:39:03.749Z</time></trkpt><trkpt lat="45.5820848" lon="11.111414"><ele>919.8333333333334</ele><time>2026-04-18T11:39:04.749Z</time></trkpt><trkpt lat="45.5821112" lon="11.1115083"><ele>919.6666666666667</ele><time>2026-04-18T11:39:05.749Z</time></trkpt><trkpt lat="45.5821348" lon="11.1115968"><ele>919.5</ele><time>2026-04-18T11:39:06.749Z</time></trkpt><trkpt lat="45.582126" lon="11.1116929"><ele>919.3333333333333</ele><time>2026-04-18T11:39:07.749Z</time></trkpt><trkpt lat="45.582121" lon="11.1118157"><ele>919.1666666666666</ele><time>2026-04-18T11:39:08.749Z</time></trkpt><trkpt lat="45.5820881" lon="11.1119317"><ele>919.0</ele><time>2026-04-18T11:39:09.749Z</time></trkpt><trkpt lat="45.5820713" lon="11.1120451"><ele>918.9999999999999</ele><time>2026-04-18T11:39:10.749Z</time></trkpt><trkpt lat="45.5820541" lon="11.1121562"><ele>919.0</ele><time>2026-04-18T11:39:11.75Z</time></trkpt><trkpt lat="45.5820437" lon="11.112267"><ele>919.0</ele><time>2026-04-18T11:39:12.749Z</time></trkpt><trkpt lat="45.5820292" lon="11.1123688"><ele>919.0</ele><time>2026-04-18T11:39:13.749Z</time></trkpt><trkpt lat="45.5820309" lon="11.1124685"><ele>918.9999999999999</ele><time>2026-04-18T11:39:14.749Z</time></trkpt><trkpt lat="45.5820393" lon="11.1125775"><ele>919.0</ele><time>2026-04-18T11:39:15.749Z</time></trkpt><trkpt lat="45.582075" lon="11.1126906"><ele>918.9999999999999</ele><time>2026-04-18T11:39:16.749Z</time></trkpt><trkpt lat="45.5821141" lon="11.1128027"><ele>919.0</ele><time>2026-04-18T11:39:17.749Z</time></trkpt><trkpt lat="45.5821575" lon="11.1128891"><ele>919.0</ele><time>2026-04-18T11:39:18.749Z</time></trkpt><trkpt lat="45.5822228" lon="11.1129732"><ele>919.0</ele><time>2026-04-18T11:39:19.749Z</time></trkpt><trkpt lat="45.5822816" lon="11.1130298"><ele>918.9999999999999</ele><time>2026-04-18T11:39:20.749Z</time></trkpt><trkpt lat="45.5823445" lon="11.1130685"><ele>919.0</ele><time>2026-04-18T11:39:21.749Z</time></trkpt><trkpt lat="45.5824484" lon="11.1131365"><ele>919.0</ele><time>2026-04-18T11:39:23.749Z</time></trkpt><trkpt lat="45.5825346" lon="11.1132311"><ele>919.0000000000001</ele><time>2026-04-18T11:39:25.749Z</time></trkpt><trkpt lat="45.5825873" lon="11.1133829"><ele>919.0000000000001</ele><time>2026-04-18T11:39:27.749Z</time></trkpt><trkpt lat="45.5825954" lon="11.1134905"><ele>919.0</ele><time>2026-04-18T11:39:28.749Z</time></trkpt><trkpt lat="45.5826034" lon="11.1135887"><ele>919.0</ele><time>2026-04-18T11:39:29.749Z</time></trkpt><trkpt lat="45.5826603" lon="11.1137314"><ele>919.2</ele><time>2026-04-18T11:39:31.749Z</time></trkpt><trkpt lat="45.58278" lon="11.1138001"><ele>919.4000000000001</ele><time>2026-04-18T11:39:33.749Z</time></trkpt><trkpt lat="45.5828453" lon="11.113824"><ele>919.6</ele><time>2026-04-18T11:39:34.749Z</time></trkpt><trkpt lat="45.5829488" lon="11.1139037"><ele>919.8</ele><time>2026-04-18T11:39:36.749Z</time></trkpt><trkpt lat="45.583001" lon="11.1139722"><ele>920.0</ele><time>2026-04-18T11:39:37.749Z</time></trkpt><trkpt lat="45.5831083" lon="11.1140354"><ele>920.6</ele><time>2026-04-18T11:39:39.749Z</time></trkpt><trkpt lat="45.5832" lon="11.1140576"><ele>921.2</ele><time>2026-04-18T11:39:41.749Z</time></trkpt><trkpt lat="45.5832648" lon="11.114057"><ele>921.8</ele><time>2026-04-18T11:39:42.749Z</time></trkpt><trkpt lat="45.5833819" lon="11.1140877"><ele>922.4</ele><time>2026-04-18T11:39:44.749Z</time></trkpt><trkpt lat="45.5834822" lon="11.114187"><ele>923.0</ele><time>2026-04-18T11:39:46.749Z</time></trkpt><trkpt lat="45.5835484" lon="11.1142877"><ele>923.0000000000001</ele><time>2026-04-18T11:39:47.749Z</time></trkpt><trkpt lat="45.5836207" lon="11.1143994"><ele>923.0</ele><time>2026-04-18T11:39:48.749Z</time></trkpt><trkpt lat="45.5836809" lon="11.1145069"><ele>923.0</ele><time>2026-04-18T11:39:49.749Z</time></trkpt><trkpt lat="45.5837244" lon="11.1145994"><ele>923.0</ele><time>2026-04-18T11:39:50.749Z</time></trkpt><trkpt lat="45.5837649" lon="11.1147102"><ele>923.0000000000001</ele><time>2026-04-18T11:39:52.749Z</time></trkpt><trkpt lat="45.5838072" lon="11.1147834"><ele>923.0</ele><time>2026-04-18T11:39:59.75Z</time></trkpt><trkpt lat="45.5839216" lon="11.114782"><ele>923.2</ele><time>2026-04-18T11:40:01.749Z</time></trkpt><trkpt lat="45.5840026" lon="11.1147752"><ele>923.4</ele><time>2026-04-18T11:40:02.749Z</time></trkpt><trkpt lat="45.5840968" lon="11.1147671"><ele>923.6000000000001</ele><time>2026-04-18T11:40:03.749Z</time></trkpt><trkpt lat="45.5841909" lon="11.1147545"><ele>923.8000000000001</ele><time>2026-04-18T11:40:04.749Z</time></trkpt><trkpt lat="45.5842894" lon="11.1147388"><ele>924.0</ele><time>2026-04-18T11:40:05.749Z</time></trkpt><trkpt lat="45.5843976" lon="11.1147205"><ele>924.0</ele><time>2026-04-18T11:40:06.749Z</time></trkpt><trkpt lat="45.5845105" lon="11.1147066"><ele>924.0</ele><time>2026-04-18T11:40:07.749Z</time></trkpt><trkpt lat="45.5846256" lon="11.1146917"><ele>924.0</ele><time>2026-04-18T11:40:08.749Z</time></trkpt><trkpt lat="45.5847431" lon="11.1146717"><ele>924.0</ele><time>2026-04-18T11:40:09.749Z</time></trkpt><trkpt lat="45.5848672" lon="11.1146555"><ele>923.3333333333333</ele><time>2026-04-18T11:40:10.749Z</time></trkpt><trkpt lat="45.5850091" lon="11.1146366"><ele>922.6666666666666</ele><time>2026-04-18T11:40:11.749Z</time></trkpt><trkpt lat="45.5851759" lon="11.1146087"><ele>922.0</ele><time>2026-04-18T11:40:12.749Z</time></trkpt><trkpt lat="45.5853531" lon="11.1145864"><ele>925.6666666666666</ele><time>2026-04-18T11:40:13.749Z</time></trkpt><trkpt lat="45.5855354" lon="11.1145514"><ele>929.3333333333333</ele><time>2026-04-18T11:40:14.749Z</time></trkpt><trkpt lat="45.5856977" lon="11.1145125"><ele>933.0</ele><time>2026-04-18T11:40:15.749Z</time></trkpt><trkpt lat="45.5858524" lon="11.1144638"><ele>933.0</ele><time>2026-04-18T11:40:16.749Z</time></trkpt><trkpt lat="45.5860156" lon="11.1144095"><ele>933.0</ele><time>2026-04-18T11:40:17.75Z</time></trkpt><trkpt lat="45.5861827" lon="11.1143519"><ele>933.0</ele><time>2026-04-18T11:40:18.749Z</time></trkpt><trkpt lat="45.586357" lon="11.114296"><ele>938.3333333333333</ele><time>2026-04-18T11:40:19.749Z</time></trkpt><trkpt lat="45.5865427" lon="11.114244"><ele>943.6666666666666</ele><time>2026-04-18T11:40:20.749Z</time></trkpt><trkpt lat="45.5867426" lon="11.1142023"><ele>949.0</ele><time>2026-04-18T11:40:21.749Z</time></trkpt><trkpt lat="45.5869578" lon="11.1141717"><ele>948.3333333333333</ele><time>2026-04-18T11:40:22.749Z</time></trkpt><trkpt lat="45.5871794" lon="11.1141325"><ele>947.6666666666667</ele><time>2026-04-18T11:40:23.749Z</time></trkpt><trkpt lat="45.5873737" lon="11.1140891"><ele>947.0</ele><time>2026-04-18T11:40:24.749Z</time></trkpt><trkpt lat="45.5875455" lon="11.1140361"><ele>947.0</ele><time>2026-04-18T11:40:25.749Z</time></trkpt><trkpt lat="45.5877014" lon="11.1139777"><ele>947.0</ele><time>2026-04-18T11:40:26.749Z</time></trkpt><trkpt lat="45.5878406" lon="11.1139187"><ele>947.0</ele><time>2026-04-18T11:40:27.749Z</time></trkpt><trkpt lat="45.5879774" lon="11.1138647"><ele>947.0</ele><time>2026-04-18T11:40:28.749Z</time></trkpt><trkpt lat="45.5881207" lon="11.1138078"><ele>951.5</ele><time>2026-04-18T11:40:29.749Z</time></trkpt><trkpt lat="45.5882716" lon="11.1137518"><ele>956.0</ele><time>2026-04-18T11:40:30.75Z</time></trkpt><trkpt lat="45.5884171" lon="11.1136933"><ele>960.5</ele><time>2026-04-18T11:40:31.749Z</time></trkpt><trkpt lat="45.5885516" lon="11.1136425"><ele>965.0</ele><time>2026-04-18T11:40:32.749Z</time></trkpt><trkpt lat="45.5886862" lon="11.1135988"><ele>966.0</ele><time>2026-04-18T11:40:33.749Z</time></trkpt><trkpt lat="45.5888292" lon="11.113562"><ele>967.0</ele><time>2026-04-18T11:40:34.749Z</time></trkpt><trkpt lat="45.5889846" lon="11.1135525"><ele>968.0</ele><time>2026-04-18T11:40:35.749Z</time></trkpt><trkpt lat="45.5891327" lon="11.1135643"><ele>969.0</ele><time>2026-04-18T11:40:36.749Z</time></trkpt><trkpt lat="45.5892705" lon="11.1135864"><ele>969.0</ele><time>2026-04-18T11:40:37.749Z</time></trkpt><trkpt lat="45.5893907" lon="11.1136033"><ele>969.0</ele><time>2026-04-18T11:40:38.749Z</time></trkpt><trkpt lat="45.5895044" lon="11.1135998"><ele>969.0</ele><time>2026-04-18T11:40:39.749Z</time></trkpt><trkpt lat="45.5896151" lon="11.1135431"><ele>969.0</ele><time>2026-04-18T11:40:40.749Z</time></trkpt><trkpt lat="45.5897187" lon="11.1134238"><ele>970.0</ele><time>2026-04-18T11:40:41.749Z</time></trkpt><trkpt lat="45.5897962" lon="11.1132661"><ele>971.0</ele><time>2026-04-18T11:40:42.749Z</time></trkpt><trkpt lat="45.5898618" lon="11.1131226"><ele>972.0</ele><time>2026-04-18T11:40:43.749Z</time></trkpt><trkpt lat="45.5899465" lon="11.1129918"><ele>973.0</ele><time>2026-04-18T11:40:44.749Z</time></trkpt><trkpt lat="45.5900776" lon="11.1129169"><ele>973.0</ele><time>2026-04-18T11:40:45.749Z</time></trkpt><trkpt lat="45.5902087" lon="11.1128609"><ele>973.0</ele><time>2026-04-18T11:40:46.749Z</time></trkpt><trkpt lat="45.5903795" lon="11.1128378"><ele>973.0</ele><time>2026-04-18T11:40:47.749Z</time></trkpt><trkpt lat="45.590573" lon="11.1128245"><ele>973.0</ele><time>2026-04-18T11:40:48.749Z</time></trkpt><trkpt lat="45.5907653" lon="11.1128093"><ele>973.0</ele><time>2026-04-18T11:40:49.749Z</time></trkpt><trkpt lat="45.590938" lon="11.1127979"><ele>973.0</ele><time>2026-04-18T11:40:50.749Z</time></trkpt><trkpt lat="45.5910977" lon="11.1127971"><ele>974.5</ele><time>2026-04-18T11:40:51.749Z</time></trkpt><trkpt lat="45.5912422" lon="11.1128067"><ele>976.0</ele><time>2026-04-18T11:40:52.749Z</time></trkpt><trkpt lat="45.5913723" lon="11.112836"><ele>977.5</ele><time>2026-04-18T11:40:53.75Z</time></trkpt><trkpt lat="45.5914907" lon="11.1128667"><ele>979.0</ele><time>2026-04-18T11:40:54.749Z</time></trkpt><trkpt lat="45.5916013" lon="11.1128906"><ele>979.0</ele><time>2026-04-18T11:40:55.749Z</time></trkpt><trkpt lat="45.5917067" lon="11.1128889"><ele>979.0</ele><time>2026-04-18T11:40:56.749Z</time></trkpt><trkpt lat="45.591821" lon="11.1128301"><ele>979.0</ele><time>2026-04-18T11:40:57.749Z</time></trkpt><trkpt lat="45.5919278" lon="11.1127042"><ele>979.0</ele><time>2026-04-18T11:40:58.749Z</time></trkpt><trkpt lat="45.592007" lon="11.1125479"><ele>978.0</ele><time>2026-04-18T11:40:59.749Z</time></trkpt><trkpt lat="45.5920592" lon="11.1123942"><ele>977.0000000000001</ele><time>2026-04-18T11:41:00.749Z</time></trkpt><trkpt lat="45.5921089" lon="11.1122705"><ele>976.0000000000001</ele><time>2026-04-18T11:41:01.749Z</time></trkpt><trkpt lat="45.592182" lon="11.1121876"><ele>975.0</ele><time>2026-04-18T11:41:02.749Z</time></trkpt><trkpt lat="45.5922881" lon="11.1121296"><ele>974.0</ele><time>2026-04-18T11:41:03.749Z</time></trkpt><trkpt lat="45.5924304" lon="11.1121166"><ele>974.0</ele><time>2026-04-18T11:41:04.749Z</time></trkpt><trkpt lat="45.5925928" lon="11.112138"><ele>974.0</ele><time>2026-04-18T11:41:05.749Z</time></trkpt><trkpt lat="45.5927567" lon="11.1121781"><ele>974.0</ele><time>2026-04-18T11:41:06.749Z</time></trkpt><trkpt lat="45.5928969" lon="11.1122505"><ele>974.5</ele><time>2026-04-18T11:41:07.749Z</time></trkpt><trkpt lat="45.5930324" lon="11.1122837"><ele>975.0</ele><time>2026-04-18T11:41:08.749Z</time></trkpt><trkpt lat="45.5931785" lon="11.1122907"><ele>975.5</ele><time>2026-04-18T11:41:09.749Z</time></trkpt><trkpt lat="45.5933301" lon="11.1122495"><ele>976.0</ele><time>2026-04-18T11:41:10.749Z</time></trkpt><trkpt lat="45.5934763" lon="11.1121911"><ele>976.0</ele><time>2026-04-18T11:41:11.749Z</time></trkpt><trkpt lat="45.5936064" lon="11.1121122"><ele>976.0</ele><time>2026-04-18T11:41:12.749Z</time></trkpt><trkpt lat="45.5937207" lon="11.1120272"><ele>976.0</ele><time>2026-04-18T11:41:13.749Z</time></trkpt><trkpt lat="45.5938135" lon="11.111928"><ele>976.0</ele><time>2026-04-18T11:41:14.749Z</time></trkpt><trkpt lat="45.593889" lon="11.1118073"><ele>975.25</ele><time>2026-04-18T11:41:15.749Z</time></trkpt><trkpt lat="45.5939483" lon="11.1116676"><ele>974.5</ele><time>2026-04-18T11:41:16.749Z</time></trkpt><trkpt lat="45.593988" lon="11.1115179"><ele>973.75</ele><time>2026-04-18T11:41:17.749Z</time></trkpt><trkpt lat="45.5939935" lon="11.1113392"><ele>973.0</ele><time>2026-04-18T11:41:18.749Z</time></trkpt><trkpt lat="45.5939687" lon="11.1111343"><ele>973.0</ele><time>2026-04-18T11:41:19.749Z</time></trkpt><trkpt lat="45.5939328" lon="11.1109136"><ele>973.0</ele><time>2026-04-18T11:41:20.749Z</time></trkpt><trkpt lat="45.5939035" lon="11.1106667"><ele>973.0</ele><time>2026-04-18T11:41:21.749Z</time></trkpt><trkpt lat="45.5938946" lon="11.1104051"><ele>973.0</ele><time>2026-04-18T11:41:22.749Z</time></trkpt><trkpt lat="45.5939057" lon="11.1101337"><ele>973.0</ele><time>2026-04-18T11:41:23.749Z</time></trkpt><trkpt lat="45.5939387" lon="11.1098514"><ele>973.0</ele><time>2026-04-18T11:41:24.749Z</time></trkpt><trkpt lat="45.5939907" lon="11.109553"><ele>973.0</ele><time>2026-04-18T11:41:25.749Z</time></trkpt><trkpt lat="45.5940692" lon="11.1092544"><ele>973.0</ele><time>2026-04-18T11:41:26.749Z</time></trkpt><trkpt lat="45.5941722" lon="11.1089549"><ele>974.5</ele><time>2026-04-18T11:41:27.749Z</time></trkpt><trkpt lat="45.5942976" lon="11.1086585"><ele>976.0</ele><time>2026-04-18T11:41:28.749Z</time></trkpt><trkpt lat="45.5944263" lon="11.1083554"><ele>984.5</ele><time>2026-04-18T11:41:29.749Z</time></trkpt><trkpt lat="45.5945554" lon="11.1080361"><ele>993.0</ele><time>2026-04-18T11:41:30.749Z</time></trkpt><trkpt lat="45.5946814" lon="11.1077427"><ele>993.0</ele><time>2026-04-18T11:41:31.749Z</time></trkpt><trkpt lat="45.5947944" lon="11.1074748"><ele>993.0</ele><time>2026-04-18T11:41:32.749Z</time></trkpt><trkpt lat="45.5949026" lon="11.1072254"><ele>993.0</ele><time>2026-04-18T11:41:33.749Z</time></trkpt><trkpt lat="45.5950024" lon="11.1070044"><ele>997.3333333333333</ele><time>2026-04-18T11:41:34.749Z</time></trkpt><trkpt lat="45.5950944" lon="11.106798"><ele>1001.6666666666666</ele><time>2026-04-18T11:41:35.749Z</time></trkpt><trkpt lat="45.5951957" lon="11.1066038"><ele>1006.0</ele><time>2026-04-18T11:41:36.749Z</time></trkpt><trkpt lat="45.5953163" lon="11.1064188"><ele>1010.0</ele><time>2026-04-18T11:41:37.749Z</time></trkpt><trkpt lat="45.5954588" lon="11.1062757"><ele>1014.0</ele><time>2026-04-18T11:41:38.749Z</time></trkpt><trkpt lat="45.5955973" lon="11.1061705"><ele>1018.0</ele><time>2026-04-18T11:41:39.749Z</time></trkpt><trkpt lat="45.595722" lon="11.1060872"><ele>1018.0</ele><time>2026-04-18T11:41:40.75Z</time></trkpt><trkpt lat="45.5958615" lon="11.1060287"><ele>1018.0</ele><time>2026-04-18T11:41:41.749Z</time></trkpt><trkpt lat="45.5959921" lon="11.1059687"><ele>1018.0</ele><time>2026-04-18T11:41:42.749Z</time></trkpt><trkpt lat="45.5961108" lon="11.1059122"><ele>1018.0</ele><time>2026-04-18T11:41:43.75Z</time></trkpt><trkpt lat="45.5962018" lon="11.1058216"><ele>1017.0</ele><time>2026-04-18T11:41:44.75Z</time></trkpt><trkpt lat="45.5963096" lon="11.1057038"><ele>1016.0</ele><time>2026-04-18T11:41:45.749Z</time></trkpt><trkpt lat="45.5964084" lon="11.105546"><ele>1015.0</ele><time>2026-04-18T11:41:46.749Z</time></trkpt><trkpt lat="45.596495" lon="11.1053819"><ele>1014.0</ele><time>2026-04-18T11:41:47.749Z</time></trkpt><trkpt lat="45.5965652" lon="11.1052042"><ele>1014.0</ele><time>2026-04-18T11:41:48.749Z</time></trkpt><trkpt lat="45.5966135" lon="11.1049886"><ele>1014.0</ele><time>2026-04-18T11:41:49.749Z</time></trkpt><trkpt lat="45.5966307" lon="11.1047345"><ele>1014.0</ele><time>2026-04-18T11:41:50.75Z</time></trkpt><trkpt lat="45.5966326" lon="11.1044485"><ele>1017.6666666666667</ele><time>2026-04-18T11:41:51.749Z</time></trkpt><trkpt lat="45.5966433" lon="11.1041497"><ele>1021.3333333333334</ele><time>2026-04-18T11:41:52.75Z</time></trkpt><trkpt lat="45.5966628" lon="11.103881"><ele>1025.0</ele><time>2026-04-18T11:41:53.749Z</time></trkpt><trkpt lat="45.5966829" lon="11.1036269"><ele>1025.25</ele><time>2026-04-18T11:41:54.749Z</time></trkpt><trkpt lat="45.596704" lon="11.1033979"><ele>1025.5</ele><time>2026-04-18T11:41:55.749Z</time></trkpt><trkpt lat="45.596728" lon="11.1032048"><ele>1025.75</ele><time>2026-04-18T11:41:56.749Z</time></trkpt><trkpt lat="45.5967593" lon="11.1030474"><ele>1026.0</ele><time>2026-04-18T11:41:57.749Z</time></trkpt><trkpt lat="45.5968186" lon="11.102928"><ele>1026.0</ele><time>2026-04-18T11:41:58.749Z</time></trkpt><trkpt lat="45.5969181" lon="11.102832"><ele>1026.0</ele><time>2026-04-18T11:41:59.749Z</time></trkpt><trkpt lat="45.5970618" lon="11.1027574"><ele>1026.0</ele><time>2026-04-18T11:42:00.749Z</time></trkpt><trkpt lat="45.5972101" lon="11.1026945"><ele>1026.0</ele><time>2026-04-18T11:42:01.749Z</time></trkpt><trkpt lat="45.5973301" lon="11.1026264"><ele>1027.0</ele><time>2026-04-18T11:42:02.749Z</time></trkpt><trkpt lat="45.5974414" lon="11.102528"><ele>1028.0</ele><time>2026-04-18T11:42:03.75Z</time></trkpt><trkpt lat="45.5975459" lon="11.1023997"><ele>1029.0</ele><time>2026-04-18T11:42:04.749Z</time></trkpt><trkpt lat="45.5976477" lon="11.1022559"><ele>1030.0</ele><time>2026-04-18T11:42:05.749Z</time></trkpt><trkpt lat="45.5977329" lon="11.1020571"><ele>1030.5</ele><time>2026-04-18T11:42:06.749Z</time></trkpt><trkpt lat="45.5978024" lon="11.1018747"><ele>1031.0</ele><time>2026-04-18T11:42:07.749Z</time></trkpt><trkpt lat="45.5978649" lon="11.1017004"><ele>1031.5</ele><time>2026-04-18T11:42:08.749Z</time></trkpt><trkpt lat="45.5979202" lon="11.101533"><ele>1032.0</ele><time>2026-04-18T11:42:09.749Z</time></trkpt><trkpt lat="45.5979712" lon="11.1013818"><ele>1032.0</ele><time>2026-04-18T11:42:10.749Z</time></trkpt><trkpt lat="45.5980113" lon="11.1012351"><ele>1032.0</ele><time>2026-04-18T11:42:11.749Z</time></trkpt><trkpt lat="45.598043" lon="11.1010929"><ele>1032.0</ele><time>2026-04-18T11:42:12.749Z</time></trkpt><trkpt lat="45.5980413" lon="11.1009522"><ele>1032.0</ele><time>2026-04-18T11:42:13.75Z</time></trkpt><trkpt lat="45.5980314" lon="11.1008102"><ele>1032.0</ele><time>2026-04-18T11:42:14.749Z</time></trkpt><trkpt lat="45.5980262" lon="11.1006878"><ele>1033.6666666666667</ele><time>2026-04-18T11:42:15.749Z</time></trkpt><trkpt lat="45.598026" lon="11.1005966"><ele>1035.3333333333333</ele><time>2026-04-18T11:42:16.749Z</time></trkpt><trkpt lat="45.598053" lon="11.1004849"><ele>1037.0</ele><time>2026-04-18T11:42:18.749Z</time></trkpt><trkpt lat="45.5980604" lon="11.1003742"><ele>1038.6666666666665</ele><time>2026-04-18T11:43:00.749Z</time></trkpt><trkpt lat="45.5980628" lon="11.10026"><ele>1040.3333333333333</ele><time>2026-04-18T11:43:03.749Z</time></trkpt><trkpt lat="45.5981916" lon="11.100263"><ele>1042.0</ele><time>2026-04-18T11:43:07.75Z</time></trkpt><trkpt lat="45.598272" lon="11.1003044"><ele>1042.0</ele><time>2026-04-18T11:43:08.749Z</time></trkpt><trkpt lat="45.5983719" lon="11.1003281"><ele>1042.0</ele><time>2026-04-18T11:43:09.749Z</time></trkpt><trkpt lat="45.5984806" lon="11.1003362"><ele>1042.0</ele><time>2026-04-18T11:43:10.749Z</time></trkpt><trkpt lat="45.5986063" lon="11.1003296"><ele>1042.0</ele><time>2026-04-18T11:43:11.749Z</time></trkpt><trkpt lat="45.5987423" lon="11.1002949"><ele>1040.6666666666665</ele><time>2026-04-18T11:43:12.749Z</time></trkpt><trkpt lat="45.5988774" lon="11.1002217"><ele>1039.3333333333333</ele><time>2026-04-18T11:43:13.749Z</time></trkpt><trkpt lat="45.5990177" lon="11.100094"><ele>1038.0</ele><time>2026-04-18T11:43:14.749Z</time></trkpt><trkpt lat="45.5991686" lon="11.0999309"><ele>1040.3333333333333</ele><time>2026-04-18T11:43:15.749Z</time></trkpt><trkpt lat="45.5993198" lon="11.0997723"><ele>1042.6666666666665</ele><time>2026-04-18T11:43:16.749Z</time></trkpt><trkpt lat="45.5994864" lon="11.0996135"><ele>1045.0</ele><time>2026-04-18T11:43:17.749Z</time></trkpt><trkpt lat="45.599648" lon="11.0994546"><ele>1045.0</ele><time>2026-04-18T11:43:18.749Z</time></trkpt><trkpt lat="45.5997968" lon="11.0993038"><ele>1045.0</ele><time>2026-04-18T11:43:19.749Z</time></trkpt><trkpt lat="45.5999306" lon="11.0991638"><ele>1045.0</ele><time>2026-04-18T11:43:20.749Z</time></trkpt><trkpt lat="45.6000645" lon="11.099024"><ele>1050.6666666666665</ele><time>2026-04-18T11:43:21.75Z</time></trkpt><trkpt lat="45.6002084" lon="11.0989011"><ele>1056.3333333333333</ele><time>2026-04-18T11:43:22.749Z</time></trkpt><trkpt lat="45.6003597" lon="11.0988009"><ele>1062.0</ele><time>2026-04-18T11:43:23.749Z</time></trkpt><trkpt lat="45.6005435" lon="11.0987343"><ele>1062.0</ele><time>2026-04-18T11:43:24.749Z</time></trkpt><trkpt lat="45.600743" lon="11.0987016"><ele>1062.0</ele><time>2026-04-18T11:43:25.749Z</time></trkpt><trkpt lat="45.6009464" lon="11.0987102"><ele>1062.0</ele><time>2026-04-18T11:43:26.75Z</time></trkpt><trkpt lat="45.6011346" lon="11.0987467"><ele>1065.6666666666667</ele><time>2026-04-18T11:43:27.749Z</time></trkpt><trkpt lat="45.6013074" lon="11.0988036"><ele>1069.3333333333335</ele><time>2026-04-18T11:43:28.749Z</time></trkpt><trkpt lat="45.6014642" lon="11.0988649"><ele>1073.0</ele><time>2026-04-18T11:43:29.749Z</time></trkpt><trkpt lat="45.601609" lon="11.0989545"><ele>1066.3333333333335</ele><time>2026-04-18T11:43:30.749Z</time></trkpt><trkpt lat="45.6017483" lon="11.0990959"><ele>1059.6666666666667</ele><time>2026-04-18T11:43:31.749Z</time></trkpt><trkpt lat="45.6018718" lon="11.0992846"><ele>1053.0</ele><time>2026-04-18T11:43:32.749Z</time></trkpt><trkpt lat="45.60197" lon="11.099499"><ele>1054.75</ele><time>2026-04-18T11:43:33.749Z</time></trkpt><trkpt lat="45.6020454" lon="11.0996883"><ele>1056.5</ele><time>2026-04-18T11:43:34.75Z</time></trkpt><trkpt lat="45.6021149" lon="11.0998435"><ele>1058.25</ele><time>2026-04-18T11:43:35.749Z</time></trkpt><trkpt lat="45.6022043" lon="11.0999679"><ele>1060.0</ele><time>2026-04-18T11:43:36.749Z</time></trkpt><trkpt lat="45.6023214" lon="11.1000513"><ele>1060.0</ele><time>2026-04-18T11:43:37.749Z</time></trkpt><trkpt lat="45.6024599" lon="11.1000797"><ele>1060.0</ele><time>2026-04-18T11:43:38.749Z</time></trkpt><trkpt lat="45.6025818" lon="11.1000521"><ele>1060.0</ele><time>2026-04-18T11:43:39.749Z</time></trkpt><trkpt lat="45.6026958" lon="11.0999608"><ele>1060.0</ele><time>2026-04-18T11:43:40.749Z</time></trkpt><trkpt lat="45.6027927" lon="11.0998105"><ele>1061.0</ele><time>2026-04-18T11:43:41.749Z</time></trkpt><trkpt lat="45.6028629" lon="11.0995979"><ele>1062.0</ele><time>2026-04-18T11:43:42.749Z</time></trkpt><trkpt lat="45.6029298" lon="11.0993448"><ele>1063.0</ele><time>2026-04-18T11:43:43.749Z</time></trkpt><trkpt lat="45.6030053" lon="11.0990617"><ele>1063.6666666666665</ele><time>2026-04-18T11:43:44.749Z</time></trkpt><trkpt lat="45.6030772" lon="11.0987791"><ele>1064.3333333333333</ele><time>2026-04-18T11:43:45.749Z</time></trkpt><trkpt lat="45.6031443" lon="11.0985141"><ele>1065.0</ele><time>2026-04-18T11:43:46.749Z</time></trkpt><trkpt lat="45.6032055" lon="11.0982432"><ele>1066.3333333333333</ele><time>2026-04-18T11:43:47.749Z</time></trkpt><trkpt lat="45.6032467" lon="11.0979628"><ele>1067.6666666666665</ele><time>2026-04-18T11:43:48.749Z</time></trkpt><trkpt lat="45.603271" lon="11.0976943"><ele>1069.0</ele><time>2026-04-18T11:43:49.749Z</time></trkpt><trkpt lat="45.6032864" lon="11.0974481"><ele>1069.0</ele><time>2026-04-18T11:43:50.75Z</time></trkpt><trkpt lat="45.6032907" lon="11.0972186"><ele>1069.0</ele><time>2026-04-18T11:43:51.749Z</time></trkpt><trkpt lat="45.6032619" lon="11.0969916"><ele>1069.0</ele><time>2026-04-18T11:43:52.749Z</time></trkpt><trkpt lat="45.6032008" lon="11.0967578"><ele>1069.75</ele><time>2026-04-18T11:43:53.749Z</time></trkpt><trkpt lat="45.6031087" lon="11.0965553"><ele>1070.5</ele><time>2026-04-18T11:43:54.749Z</time></trkpt><trkpt lat="45.6030196" lon="11.096392"><ele>1071.25</ele><time>2026-04-18T11:43:55.75Z</time></trkpt><trkpt lat="45.6029459" lon="11.0962495"><ele>1072.0</ele><time>2026-04-18T11:43:56.749Z</time></trkpt><trkpt lat="45.6028812" lon="11.0961218"><ele>1072.0</ele><time>2026-04-18T11:43:57.749Z</time></trkpt><trkpt lat="45.6028525" lon="11.0960014"><ele>1072.0</ele><time>2026-04-18T11:43:58.749Z</time></trkpt><trkpt lat="45.6028662" lon="11.0958777"><ele>1072.0</ele><time>2026-04-18T11:43:59.75Z</time></trkpt><trkpt lat="45.6029273" lon="11.0957696"><ele>1072.0</ele><time>2026-04-18T11:44:00.749Z</time></trkpt><trkpt lat="45.6030303" lon="11.0956812"><ele>1072.0</ele><time>2026-04-18T11:44:01.749Z</time></trkpt><trkpt lat="45.6031821" lon="11.0955956"><ele>1076.6666666666665</ele><time>2026-04-18T11:44:02.749Z</time></trkpt><trkpt lat="45.6033207" lon="11.0954594"><ele>1081.3333333333333</ele><time>2026-04-18T11:44:03.749Z</time></trkpt><trkpt lat="45.6034379" lon="11.0953223"><ele>1086.0</ele><time>2026-04-18T11:44:04.749Z</time></trkpt><trkpt lat="45.6035412" lon="11.0951941"><ele>1086.0</ele><time>2026-04-18T11:44:05.749Z</time></trkpt><trkpt lat="45.6036443" lon="11.0950731"><ele>1086.0</ele><time>2026-04-18T11:44:06.749Z</time></trkpt><trkpt lat="45.6037401" lon="11.0950252"><ele>1086.0</ele><time>2026-04-18T11:44:07.749Z</time></trkpt><trkpt lat="45.6038305" lon="11.0949839"><ele>1086.0</ele><time>2026-04-18T11:44:08.749Z</time></trkpt><trkpt lat="45.6039221" lon="11.0949791"><ele>1086.0</ele><time>2026-04-18T11:44:09.749Z</time></trkpt><trkpt lat="45.6040014" lon="11.0949789"><ele>1084.5</ele><time>2026-04-18T11:44:10.749Z</time></trkpt><trkpt lat="45.604079" lon="11.0949795"><ele>1083.0</ele><time>2026-04-18T11:44:11.75Z</time></trkpt><trkpt lat="45.6041494" lon="11.0949765"><ele>1081.5</ele><time>2026-04-18T11:44:12.749Z</time></trkpt><trkpt lat="45.6042239" lon="11.0949747"><ele>1080.0</ele><time>2026-04-18T11:44:13.749Z</time></trkpt><trkpt lat="45.6042983" lon="11.0949746"><ele>1078.5</ele><time>2026-04-18T11:44:14.749Z</time></trkpt><trkpt lat="45.6043803" lon="11.094976"><ele>1077.0</ele><time>2026-04-18T11:44:15.749Z</time></trkpt><trkpt lat="45.6044613" lon="11.0949801"><ele>1077.8</ele><time>2026-04-18T11:44:16.749Z</time></trkpt><trkpt lat="45.6045497" lon="11.0949826"><ele>1078.6</ele><time>2026-04-18T11:44:17.749Z</time></trkpt><trkpt lat="45.6046409" lon="11.094984"><ele>1079.3999999999999</ele><time>2026-04-18T11:44:18.749Z</time></trkpt><trkpt lat="45.6047371" lon="11.0949864"><ele>1080.2</ele><time>2026-04-18T11:44:19.749Z</time></trkpt><trkpt lat="45.6048336" lon="11.0949922"><ele>1081.0</ele><time>2026-04-18T11:44:20.75Z</time></trkpt><trkpt lat="45.6049332" lon="11.0950009"><ele>1081.0</ele><time>2026-04-18T11:44:21.749Z</time></trkpt><trkpt lat="45.6050352" lon="11.0950116"><ele>1081.0</ele><time>2026-04-18T11:44:22.749Z</time></trkpt><trkpt lat="45.6051386" lon="11.0950327"><ele>1081.0</ele><time>2026-04-18T11:44:23.749Z</time></trkpt><trkpt lat="45.6052428" lon="11.0950646"><ele>1081.0</ele><time>2026-04-18T11:44:24.749Z</time></trkpt><trkpt lat="45.6053529" lon="11.0951057"><ele>1081.0</ele><time>2026-04-18T11:44:25.749Z</time></trkpt><trkpt lat="45.6054537" lon="11.0951561"><ele>1078.75</ele><time>2026-04-18T11:44:26.749Z</time></trkpt><trkpt lat="45.605563" lon="11.0952171"><ele>1076.5</ele><time>2026-04-18T11:44:27.749Z</time></trkpt><trkpt lat="45.6056846" lon="11.0953001"><ele>1074.25</ele><time>2026-04-18T11:44:28.75Z</time></trkpt><trkpt lat="45.6058161" lon="11.0954165"><ele>1072.0</ele><time>2026-04-18T11:44:29.749Z</time></trkpt><trkpt lat="45.6059529" lon="11.0955444"><ele>1072.0</ele><time>2026-04-18T11:44:30.749Z</time></trkpt><trkpt lat="45.6060773" lon="11.0956647"><ele>1072.0</ele><time>2026-04-18T11:44:31.749Z</time></trkpt><trkpt lat="45.6061936" lon="11.0957796"><ele>1072.0</ele><time>2026-04-18T11:44:32.75Z</time></trkpt><trkpt lat="45.6062987" lon="11.0958787"><ele>1072.0</ele><time>2026-04-18T11:44:33.749Z</time></trkpt><trkpt lat="45.6063885" lon="11.0959528"><ele>1073.3333333333333</ele><time>2026-04-18T11:44:34.749Z</time></trkpt><trkpt lat="45.606465" lon="11.0960108"><ele>1074.6666666666665</ele><time>2026-04-18T11:44:35.749Z</time></trkpt><trkpt lat="45.6065367" lon="11.0960439"><ele>1076.0</ele><time>2026-04-18T11:44:36.75Z</time></trkpt><trkpt lat="45.6066536" lon="11.0960505"><ele>1077.3333333333333</ele><time>2026-04-18T11:44:38.749Z</time></trkpt><trkpt lat="45.6067176" lon="11.0960277"><ele>1078.6666666666667</ele><time>2026-04-18T11:44:39.749Z</time></trkpt><trkpt lat="45.6067814" lon="11.0959744"><ele>1080.0</ele><time>2026-04-18T11:44:40.749Z</time></trkpt><trkpt lat="45.6068439" lon="11.0959106"><ele>1080.0</ele><time>2026-04-18T11:44:41.749Z</time></trkpt><trkpt lat="45.6069133" lon="11.0958383"><ele>1080.0</ele><time>2026-04-18T11:44:42.749Z</time></trkpt><trkpt lat="45.6069817" lon="11.0957603"><ele>1080.0</ele><time>2026-04-18T11:44:43.749Z</time></trkpt><trkpt lat="45.6070538" lon="11.0956752"><ele>1080.0</ele><time>2026-04-18T11:44:44.75Z</time></trkpt><trkpt lat="45.6071315" lon="11.0956006"><ele>1080.0</ele><time>2026-04-18T11:44:45.749Z</time></trkpt><trkpt lat="45.6072227" lon="11.0955467"><ele>1076.0</ele><time>2026-04-18T11:44:46.749Z</time></trkpt><trkpt lat="45.6073406" lon="11.095517"><ele>1072.0</ele><time>2026-04-18T11:44:47.749Z</time></trkpt><trkpt lat="45.6074816" lon="11.0955294"><ele>1068.0</ele><time>2026-04-18T11:44:48.749Z</time></trkpt><trkpt lat="45.6076286" lon="11.0955839"><ele>1064.0</ele><time>2026-04-18T11:44:49.749Z</time></trkpt><trkpt lat="45.607763" lon="11.0956552"><ele>1064.4</ele><time>2026-04-18T11:44:50.749Z</time></trkpt><trkpt lat="45.6078848" lon="11.0957292"><ele>1064.8000000000002</ele><time>2026-04-18T11:44:51.749Z</time></trkpt><trkpt lat="45.6079891" lon="11.0957848"><ele>1065.1999999999998</ele><time>2026-04-18T11:44:52.749Z</time></trkpt><trkpt lat="45.6080891" lon="11.0958161"><ele>1065.6</ele><time>2026-04-18T11:44:53.749Z</time></trkpt><trkpt lat="45.6081894" lon="11.0958176"><ele>1066.0</ele><time>2026-04-18T11:44:54.749Z</time></trkpt><trkpt lat="45.6082894" lon="11.0957817"><ele>1066.0</ele><time>2026-04-18T11:44:55.749Z</time></trkpt><trkpt lat="45.6083851" lon="11.0957098"><ele>1066.0</ele><time>2026-04-18T11:44:56.749Z</time></trkpt><trkpt lat="45.6084957" lon="11.0955946"><ele>1066.0</ele><time>2026-04-18T11:44:57.749Z</time></trkpt><trkpt lat="45.6086074" lon="11.0954459"><ele>1066.0</ele><time>2026-04-18T11:44:58.749Z</time></trkpt><trkpt lat="45.6087138" lon="11.0953127"><ele>1069.25</ele><time>2026-04-18T11:44:59.749Z</time></trkpt><trkpt lat="45.6088251" lon="11.0951922"><ele>1072.5</ele><time>2026-04-18T11:45:00.749Z</time></trkpt><trkpt lat="45.6089505" lon="11.0950866"><ele>1075.75</ele><time>2026-04-18T11:45:01.749Z</time></trkpt><trkpt lat="45.6091032" lon="11.0950062"><ele>1079.0</ele><time>2026-04-18T11:45:02.749Z</time></trkpt><trkpt lat="45.6092841" lon="11.0949376"><ele>1080.6666666666667</ele><time>2026-04-18T11:45:03.749Z</time></trkpt><trkpt lat="45.6094747" lon="11.0948901"><ele>1082.3333333333333</ele><time>2026-04-18T11:45:04.749Z</time></trkpt><trkpt lat="45.6096452" lon="11.0948516"><ele>1084.0</ele><time>2026-04-18T11:45:05.749Z</time></trkpt><trkpt lat="45.6098038" lon="11.0948099"><ele>1083.75</ele><time>2026-04-18T11:45:06.749Z</time></trkpt><trkpt lat="45.609943" lon="11.0947796"><ele>1083.5</ele><time>2026-04-18T11:45:07.749Z</time></trkpt><trkpt lat="45.6100732" lon="11.0947538"><ele>1083.25</ele><time>2026-04-18T11:45:08.749Z</time></trkpt><trkpt lat="45.6102001" lon="11.0947389"><ele>1083.0</ele><time>2026-04-18T11:45:09.749Z</time></trkpt><trkpt lat="45.6103352" lon="11.0947385"><ele>1083.0</ele><time>2026-04-18T11:45:10.749Z</time></trkpt><trkpt lat="45.6104837" lon="11.0947822"><ele>1083.0</ele><time>2026-04-18T11:45:11.749Z</time></trkpt><trkpt lat="45.6106312" lon="11.0948425"><ele>1083.0</ele><time>2026-04-18T11:45:12.75Z</time></trkpt><trkpt lat="45.6107516" lon="11.0949229"><ele>1083.0</ele><time>2026-04-18T11:45:13.75Z</time></trkpt><trkpt lat="45.6108717" lon="11.0949682"><ele>1083.0</ele><time>2026-04-18T11:45:14.749Z</time></trkpt><trkpt lat="45.6109993" lon="11.0949626"><ele>1083.0</ele><time>2026-04-18T11:45:15.749Z</time></trkpt><trkpt lat="45.6111222" lon="11.094898"><ele>1083.0</ele><time>2026-04-18T11:45:16.749Z</time></trkpt><trkpt lat="45.6112332" lon="11.094768"><ele>1083.0</ele><time>2026-04-18T11:45:17.749Z</time></trkpt><trkpt lat="45.611331" lon="11.0945873"><ele>1083.0</ele><time>2026-04-18T11:45:18.749Z</time></trkpt><trkpt lat="45.6114094" lon="11.0944202"><ele>1083.0</ele><time>2026-04-18T11:45:19.749Z</time></trkpt><trkpt lat="45.6114783" lon="11.094277"><ele>1083.0</ele><time>2026-04-18T11:45:20.749Z</time></trkpt><trkpt lat="45.611555" lon="11.0941608"><ele>1083.0</ele><time>2026-04-18T11:45:21.749Z</time></trkpt><trkpt lat="45.6116563" lon="11.0940755"><ele>1083.0</ele><time>2026-04-18T11:45:22.749Z</time></trkpt><trkpt lat="45.6117797" lon="11.0940436"><ele>1083.0</ele><time>2026-04-18T11:45:23.749Z</time></trkpt><trkpt lat="45.6119004" lon="11.0940637"><ele>1083.0</ele><time>2026-04-18T11:45:24.749Z</time></trkpt><trkpt lat="45.6120212" lon="11.0941512"><ele>1083.0</ele><time>2026-04-18T11:45:25.749Z</time></trkpt><trkpt lat="45.6121208" lon="11.0942882"><ele>1085.5</ele><time>2026-04-18T11:45:26.749Z</time></trkpt><trkpt lat="45.6122039" lon="11.0944098"><ele>1088.0</ele><time>2026-04-18T11:45:27.749Z</time></trkpt><trkpt lat="45.6123114" lon="11.0944895"><ele>1090.5</ele><time>2026-04-18T11:45:28.749Z</time></trkpt><trkpt lat="45.6124522" lon="11.0945228"><ele>1093.0</ele><time>2026-04-18T11:45:29.749Z</time></trkpt><trkpt lat="45.6126147" lon="11.0945275"><ele>1093.0</ele><time>2026-04-18T11:45:30.749Z</time></trkpt><trkpt lat="45.6127849" lon="11.0945102"><ele>1093.0</ele><time>2026-04-18T11:45:31.75Z</time></trkpt><trkpt lat="45.6129349" lon="11.09445"><ele>1093.0</ele><time>2026-04-18T11:45:32.749Z</time></trkpt><trkpt lat="45.6130607" lon="11.0943657"><ele>1094.5</ele><time>2026-04-18T11:45:33.749Z</time></trkpt><trkpt lat="45.6131735" lon="11.0942918"><ele>1096.0</ele><time>2026-04-18T11:45:34.749Z</time></trkpt><trkpt lat="45.6132928" lon="11.0942483"><ele>1097.5</ele><time>2026-04-18T11:45:35.749Z</time></trkpt><trkpt lat="45.6134407" lon="11.0942363"><ele>1099.0</ele><time>2026-04-18T11:45:36.749Z</time></trkpt><trkpt lat="45.6136144" lon="11.0942701"><ele>1099.0</ele><time>2026-04-18T11:45:37.749Z</time></trkpt><trkpt lat="45.6138002" lon="11.0943346"><ele>1099.0</ele><time>2026-04-18T11:45:38.749Z</time></trkpt><trkpt lat="45.6139831" lon="11.0943999"><ele>1099.0</ele><time>2026-04-18T11:45:39.749Z</time></trkpt><trkpt lat="45.6141579" lon="11.0944496"><ele>1099.0</ele><time>2026-04-18T11:45:40.749Z</time></trkpt><trkpt lat="45.6143234" lon="11.0944824"><ele>1099.0</ele><time>2026-04-18T11:45:41.749Z</time></trkpt><trkpt lat="45.6144462" lon="11.0944893"><ele>1099.0</ele><time>2026-04-18T11:45:42.749Z</time></trkpt><trkpt lat="45.6145676" lon="11.0944951"><ele>1099.0</ele><time>2026-04-18T11:45:43.749Z</time></trkpt><trkpt lat="45.6146846" lon="11.0944955"><ele>1099.5</ele><time>2026-04-18T11:45:44.749Z</time></trkpt><trkpt lat="45.6148067" lon="11.0944956"><ele>1100.0</ele><time>2026-04-18T11:45:45.749Z</time></trkpt><trkpt lat="45.6149249" lon="11.0944904"><ele>1100.5</ele><time>2026-04-18T11:45:46.749Z</time></trkpt><trkpt lat="45.6150354" lon="11.0944862"><ele>1101.0</ele><time>2026-04-18T11:45:47.749Z</time></trkpt><trkpt lat="45.6151344" lon="11.0944844"><ele>1101.0</ele><time>2026-04-18T11:45:48.75Z</time></trkpt><trkpt lat="45.6152239" lon="11.0944809"><ele>1101.0</ele><time>2026-04-18T11:45:49.749Z</time></trkpt><trkpt lat="45.6153103" lon="11.094476"><ele>1101.0</ele><time>2026-04-18T11:45:50.749Z</time></trkpt><trkpt lat="45.6153911" lon="11.0944683"><ele>1101.0</ele><time>2026-04-18T11:45:51.749Z</time></trkpt><trkpt lat="45.6154583" lon="11.0944664"><ele>1101.0</ele><time>2026-04-18T11:45:52.749Z</time></trkpt><trkpt lat="45.615549" lon="11.0944866"><ele>1101.0</ele><time>2026-04-18T11:45:54.749Z</time></trkpt><trkpt lat="45.6155972" lon="11.0945786"><ele>1101.6</ele><time>2026-04-18T11:45:56.749Z</time></trkpt><trkpt lat="45.6156303" lon="11.0946561"><ele>1102.1999999999998</ele><time>2026-04-18T11:45:57.749Z</time></trkpt><trkpt lat="45.6156801" lon="11.094755"><ele>1102.8000000000002</ele><time>2026-04-18T11:45:58.749Z</time></trkpt><trkpt lat="45.6157428" lon="11.094869"><ele>1103.4</ele><time>2026-04-18T11:45:59.75Z</time></trkpt><trkpt lat="45.6158259" lon="11.0949863"><ele>1104.0</ele><time>2026-04-18T11:46:00.749Z</time></trkpt><trkpt lat="45.6159182" lon="11.095099"><ele>1104.0</ele><time>2026-04-18T11:46:01.749Z</time></trkpt><trkpt lat="45.6159978" lon="11.0952148"><ele>1104.0</ele><time>2026-04-18T11:46:02.75Z</time></trkpt><trkpt lat="45.6160579" lon="11.0953368"><ele>1104.0</ele><time>2026-04-18T11:46:03.749Z</time></trkpt><trkpt lat="45.616113" lon="11.0954841"><ele>1104.0</ele><time>2026-04-18T11:46:04.749Z</time></trkpt><trkpt lat="45.6161559" lon="11.0956629"><ele>1107.25</ele><time>2026-04-18T11:46:05.749Z</time></trkpt><trkpt lat="45.6162068" lon="11.095861"><ele>1110.5</ele><time>2026-04-18T11:46:06.749Z</time></trkpt><trkpt lat="45.6162532" lon="11.0960732"><ele>1113.75</ele><time>2026-04-18T11:46:07.749Z</time></trkpt><trkpt lat="45.61628" lon="11.0962774"><ele>1117.0</ele><time>2026-04-18T11:46:08.749Z</time></trkpt><trkpt lat="45.6162947" lon="11.0964561"><ele>1118.5</ele><time>2026-04-18T11:46:09.749Z</time></trkpt><trkpt lat="45.6163131" lon="11.0966102"><ele>1120.0</ele><time>2026-04-18T11:46:10.749Z</time></trkpt><trkpt lat="45.6163461" lon="11.0967577"><ele>1121.5</ele><time>2026-04-18T11:46:11.749Z</time></trkpt><trkpt lat="45.6163998" lon="11.0969195"><ele>1123.0</ele><time>2026-04-18T11:46:12.749Z</time></trkpt><trkpt lat="45.6164773" lon="11.097091"><ele>1123.0</ele><time>2026-04-18T11:46:13.749Z</time></trkpt><trkpt lat="45.6165834" lon="11.0972723"><ele>1123.0</ele><time>2026-04-18T11:46:14.749Z</time></trkpt><trkpt lat="45.616716" lon="11.097453"><ele>1123.0</ele><time>2026-04-18T11:46:15.749Z</time></trkpt><trkpt lat="45.6168634" lon="11.0976179"><ele>1128.0</ele><time>2026-04-18T11:46:16.749Z</time></trkpt><trkpt lat="45.6169927" lon="11.0977682"><ele>1133.0</ele><time>2026-04-18T11:46:17.749Z</time></trkpt><trkpt lat="45.6171073" lon="11.0979154"><ele>1138.0</ele><time>2026-04-18T11:46:18.749Z</time></trkpt><trkpt lat="45.6172054" lon="11.098052"><ele>1138.0</ele><time>2026-04-18T11:46:19.749Z</time></trkpt><trkpt lat="45.6172949" lon="11.0981697"><ele>1138.0</ele><time>2026-04-18T11:46:20.749Z</time></trkpt><trkpt lat="45.6173814" lon="11.0982655"><ele>1138.0</ele><time>2026-04-18T11:46:21.749Z</time></trkpt><trkpt lat="45.617472" lon="11.0983369"><ele>1138.0</ele><time>2026-04-18T11:46:22.749Z</time></trkpt><trkpt lat="45.6175645" lon="11.0983792"><ele>1138.0</ele><time>2026-04-18T11:46:23.749Z</time></trkpt><trkpt lat="45.6176646" lon="11.09839"><ele>1137.25</ele><time>2026-04-18T11:46:24.749Z</time></trkpt><trkpt lat="45.6177625" lon="11.0983609"><ele>1136.5</ele><time>2026-04-18T11:46:25.749Z</time></trkpt><trkpt lat="45.6178643" lon="11.09828"><ele>1135.75</ele><time>2026-04-18T11:46:26.749Z</time></trkpt><trkpt lat="45.6179678" lon="11.0981696"><ele>1135.0</ele><time>2026-04-18T11:46:27.749Z</time></trkpt><trkpt lat="45.6180627" lon="11.0980879"><ele>1141.75</ele><time>2026-04-18T11:46:28.749Z</time></trkpt><trkpt lat="45.6181656" lon="11.09806"><ele>1148.5</ele><time>2026-04-18T11:46:29.749Z</time></trkpt><trkpt lat="45.6182809" lon="11.0980785"><ele>1155.25</ele><time>2026-04-18T11:46:30.749Z</time></trkpt><trkpt lat="45.6183987" lon="11.0981461"><ele>1162.0</ele><time>2026-04-18T11:46:31.749Z</time></trkpt><trkpt lat="45.6185091" lon="11.0982449"><ele>1161.0</ele><time>2026-04-18T11:46:32.749Z</time></trkpt><trkpt lat="45.618599" lon="11.0983425"><ele>1160.0</ele><time>2026-04-18T11:46:33.749Z</time></trkpt><trkpt lat="45.6186855" lon="11.098436"><ele>1159.0</ele><time>2026-04-18T11:46:34.749Z</time></trkpt><trkpt lat="45.6187527" lon="11.0985065"><ele>1158.0</ele><time>2026-04-18T11:46:35.75Z</time></trkpt><trkpt lat="45.6188313" lon="11.0985882"><ele>1157.0</ele><time>2026-04-18T11:46:37.749Z</time></trkpt><trkpt lat="45.6189104" lon="11.0986273"><ele>1157.0</ele><time>2026-04-18T11:46:54.749Z</time></trkpt><trkpt lat="45.6190034" lon="11.0986615"><ele>1157.0</ele><time>2026-04-18T11:46:56.749Z</time></trkpt><trkpt lat="45.6190624" lon="11.098704"><ele>1157.0</ele><time>2026-04-18T11:46:57.749Z</time></trkpt><trkpt lat="45.619127" lon="11.0987523"><ele>1157.0</ele><time>2026-04-18T11:46:58.75Z</time></trkpt><trkpt lat="45.6191867" lon="11.0988085"><ele>1157.0</ele><time>2026-04-18T11:46:59.749Z</time></trkpt><trkpt lat="45.6192518" lon="11.0988556"><ele>1157.0</ele><time>2026-04-18T11:47:00.749Z</time></trkpt><trkpt lat="45.6193096" lon="11.0989056"><ele>1157.0</ele><time>2026-04-18T11:47:01.749Z</time></trkpt><trkpt lat="45.6193657" lon="11.0989624"><ele>1157.0</ele><time>2026-04-18T11:47:02.749Z</time></trkpt><trkpt lat="45.6194232" lon="11.0990103"><ele>1157.0</ele><time>2026-04-18T11:47:03.749Z</time></trkpt><trkpt lat="45.6194829" lon="11.0990467"><ele>1157.0</ele><time>2026-04-18T11:47:04.749Z</time></trkpt><trkpt lat="45.6195457" lon="11.0990831"><ele>1157.0</ele><time>2026-04-18T11:47:05.749Z</time></trkpt><trkpt lat="45.6196091" lon="11.099122"><ele>1157.0</ele><time>2026-04-18T11:47:06.749Z</time></trkpt><trkpt lat="45.6196772" lon="11.0991594"><ele>1157.0</ele><time>2026-04-18T11:47:07.749Z</time></trkpt><trkpt lat="45.6197969" lon="11.0991937"><ele>1156.2</ele><time>2026-04-18T11:47:09.749Z</time></trkpt><trkpt lat="45.6199022" lon="11.0992059"><ele>1155.4</ele><time>2026-04-18T11:47:11.749Z</time></trkpt><trkpt lat="45.6200183" lon="11.099198"><ele>1154.6</ele><time>2026-04-18T11:47:13.749Z</time></trkpt><trkpt lat="45.6201233" lon="11.0991995"><ele>1153.8</ele><time>2026-04-18T11:47:15.749Z</time></trkpt><trkpt lat="45.6201854" lon="11.0992195"><ele>1153.0</ele><time>2026-04-18T11:47:16.749Z</time></trkpt><trkpt lat="45.6202911" lon="11.0992947"><ele>1156.2</ele><time>2026-04-18T11:47:18.749Z</time></trkpt><trkpt lat="45.620389" lon="11.0993843"><ele>1159.4</ele><time>2026-04-18T11:47:20.749Z</time></trkpt><trkpt lat="45.6204448" lon="11.0994302"><ele>1162.6000000000001</ele><time>2026-04-18T11:47:21.75Z</time></trkpt><trkpt lat="45.6204985" lon="11.0994782"><ele>1165.8</ele><time>2026-04-18T11:47:22.75Z</time></trkpt><trkpt lat="45.6205847" lon="11.0995838"><ele>1169.0</ele><time>2026-04-18T11:47:24.749Z</time></trkpt><trkpt lat="45.6206702" lon="11.0997005"><ele>1169.0</ele><time>2026-04-18T11:47:26.749Z</time></trkpt><trkpt lat="45.6207499" lon="11.0998191"><ele>1169.0</ele><time>2026-04-18T11:47:28.75Z</time></trkpt><trkpt lat="45.6208384" lon="11.0999182"><ele>1169.0</ele><time>2026-04-18T11:47:30.749Z</time></trkpt><trkpt lat="45.6209327" lon="11.0999832"><ele>1169.0</ele><time>2026-04-18T11:47:32.749Z</time></trkpt><trkpt lat="45.6210406" lon="11.1000018"><ele>1169.0</ele><time>2026-04-18T11:47:34.749Z</time></trkpt><trkpt lat="45.6211452" lon="11.0999786"><ele>1167.0</ele><time>2026-04-18T11:47:36.749Z</time></trkpt><trkpt lat="45.6212133" lon="11.0999464"><ele>1165.0</ele><time>2026-04-18T11:47:38.749Z</time></trkpt><trkpt lat="45.6213061" lon="11.0998751"><ele>1163.0</ele><time>2026-04-18T11:47:41.749Z</time></trkpt><trkpt lat="45.6213751" lon="11.0998082"><ele>1161.0</ele><time>2026-04-18T11:47:43.749Z</time></trkpt><trkpt lat="45.6214792" lon="11.0997198"><ele>1159.0</ele><time>2026-04-18T11:47:45.749Z</time></trkpt><trkpt lat="45.6215745" lon="11.0996414"><ele>1163.8</ele><time>2026-04-18T11:47:47.75Z</time></trkpt><trkpt lat="45.621666" lon="11.0995682"><ele>1168.6000000000001</ele><time>2026-04-18T11:47:49.749Z</time></trkpt><trkpt lat="45.6217761" lon="11.0995217"><ele>1173.4</ele><time>2026-04-18T11:47:51.749Z</time></trkpt><trkpt lat="45.6218919" lon="11.0995051"><ele>1178.2</ele><time>2026-04-18T11:47:53.749Z</time></trkpt><trkpt lat="45.6219671" lon="11.0995382"><ele>1183.0</ele><time>2026-04-18T11:47:55.749Z</time></trkpt><trkpt lat="45.6220424" lon="11.0995764"><ele>1184.2</ele><time>2026-04-18T11:47:57.749Z</time></trkpt><trkpt lat="45.6221469" lon="11.0996351"><ele>1185.4</ele><time>2026-04-18T11:47:59.749Z</time></trkpt><trkpt lat="45.6222465" lon="11.0996758"><ele>1186.6000000000001</ele><time>2026-04-18T11:48:01.749Z</time></trkpt><trkpt lat="45.6223571" lon="11.0997049"><ele>1187.8</ele><time>2026-04-18T11:48:03.749Z</time></trkpt><trkpt lat="45.6224739" lon="11.0997128"><ele>1189.0</ele><time>2026-04-18T11:48:05.749Z</time></trkpt><trkpt lat="45.6226002" lon="11.0997265"><ele>1189.0</ele><time>2026-04-18T11:48:07.749Z</time></trkpt><trkpt lat="45.6227044" lon="11.0997292"><ele>1189.0</ele><time>2026-04-18T11:48:09.749Z</time></trkpt><trkpt lat="45.6227853" lon="11.099775"><ele>1189.0</ele><time>2026-04-18T11:48:11.749Z</time></trkpt><trkpt lat="45.6228396" lon="11.0998736"><ele>1189.0</ele><time>2026-04-18T11:48:13.749Z</time></trkpt><trkpt lat="45.6228642" lon="11.1000107"><ele>1189.0</ele><time>2026-04-18T11:48:15.749Z</time></trkpt><trkpt lat="45.6228574" lon="11.1001633"><ele>1185.1666666666665</ele><time>2026-04-18T11:48:17.749Z</time></trkpt><trkpt lat="45.6228418" lon="11.1003329"><ele>1181.3333333333333</ele><time>2026-04-18T11:48:19.749Z</time></trkpt><trkpt lat="45.6228251" lon="11.100472"><ele>1177.5</ele><time>2026-04-18T11:48:21.749Z</time></trkpt><trkpt lat="45.6228368" lon="11.1005863"><ele>1173.6666666666667</ele><time>2026-04-18T11:48:23.75Z</time></trkpt><trkpt lat="45.6229039" lon="11.1006262"><ele>1169.8333333333335</ele><time>2026-04-18T11:48:25.749Z</time></trkpt><trkpt lat="45.6229695" lon="11.1005842"><ele>1166.0</ele><time>2026-04-18T11:48:27.749Z</time></trkpt><trkpt lat="45.6230359" lon="11.1005192"><ele>1166.0</ele><time>2026-04-18T11:48:29.749Z</time></trkpt><trkpt lat="45.6231014" lon="11.1004813"><ele>1166.0</ele><time>2026-04-18T11:48:31.749Z</time></trkpt><trkpt lat="45.6231682" lon="11.1004486"><ele>1166.0</ele><time>2026-04-18T11:48:33.75Z</time></trkpt><trkpt lat="45.6232327" lon="11.1004257"><ele>1166.0</ele><time>2026-04-18T11:48:35.749Z</time></trkpt><trkpt lat="45.6232974" lon="11.100406"><ele>1166.0</ele><time>2026-04-18T11:48:37.749Z</time></trkpt><trkpt lat="45.623387" lon="11.1003561"><ele>1166.0</ele><time>2026-04-18T11:48:39.749Z</time></trkpt><trkpt lat="45.6234664" lon="11.1002732"><ele>1166.0</ele><time>2026-04-18T11:48:41.749Z</time></trkpt><trkpt lat="45.6235379" lon="11.1001985"><ele>1166.0</ele><time>2026-04-18T11:48:43.749Z</time></trkpt><trkpt lat="45.6236012" lon="11.1000913"><ele>1166.0</ele><time>2026-04-18T11:48:45.749Z</time></trkpt><trkpt lat="45.6236513" lon="11.099953"><ele>1166.0</ele><time>2026-04-18T11:48:47.749Z</time></trkpt><trkpt lat="45.6236894" lon="11.0998307"><ele>1166.0</ele><time>2026-04-18T11:48:49.749Z</time></trkpt><trkpt lat="45.6237318" lon="11.0997166"><ele>1171.0</ele><time>2026-04-18T11:48:51.749Z</time></trkpt><trkpt lat="45.6238132" lon="11.0996067"><ele>1176.0</ele><time>2026-04-18T11:48:53.749Z</time></trkpt><trkpt lat="45.6238767" lon="11.0995354"><ele>1181.0</ele><time>2026-04-18T11:48:54.749Z</time></trkpt><trkpt lat="45.6239321" lon="11.0994754"><ele>1186.0</ele><time>2026-04-18T11:48:55.749Z</time></trkpt><trkpt lat="45.6240205" lon="11.0993847"><ele>1191.0</ele><time>2026-04-18T11:48:57.75Z</time></trkpt><trkpt lat="45.6240952" lon="11.0993249"><ele>1191.0</ele><time>2026-04-18T11:48:59.749Z</time></trkpt><trkpt lat="45.6241498" lon="11.0992749"><ele>1191.0</ele><time>2026-04-18T11:49:01.749Z</time></trkpt><trkpt lat="45.6242359" lon="11.0992362"><ele>1191.0</ele><time>2026-04-18T11:49:03.749Z</time></trkpt><trkpt lat="45.6243318" lon="11.0991962"><ele>1191.0</ele><time>2026-04-18T11:49:05.749Z</time></trkpt><trkpt lat="45.6244501" lon="11.0991308"><ele>1191.0</ele><time>2026-04-18T11:49:07.749Z</time></trkpt><trkpt lat="45.6245583" lon="11.0990865"><ele>1192.3999999999999</ele><time>2026-04-18T11:49:09.749Z</time></trkpt><trkpt lat="45.624668" lon="11.0990735"><ele>1193.8</ele><time>2026-04-18T11:49:11.749Z</time></trkpt><trkpt lat="45.6247873" lon="11.0990915"><ele>1195.1999999999998</ele><time>2026-04-18T11:49:13.75Z</time></trkpt><trkpt lat="45.6248839" lon="11.0991387"><ele>1196.6</ele><time>2026-04-18T11:49:15.749Z</time></trkpt><trkpt lat="45.6249819" lon="11.0991918"><ele>1198.0</ele><time>2026-04-18T11:49:17.749Z</time></trkpt><trkpt lat="45.6250623" lon="11.0992382"><ele>1195.6666666666665</ele><time>2026-04-18T11:49:19.749Z</time></trkpt><trkpt lat="45.6251316" lon="11.0992665"><ele>1193.3333333333333</ele><time>2026-04-18T11:49:21.749Z</time></trkpt><trkpt lat="45.6252219" lon="11.0993054"><ele>1191.0</ele><time>2026-04-18T11:49:23.749Z</time></trkpt><trkpt lat="45.6253266" lon="11.0993488"><ele>1188.6666666666667</ele><time>2026-04-18T11:49:25.749Z</time></trkpt><trkpt lat="45.6254266" lon="11.0993803"><ele>1186.3333333333335</ele><time>2026-04-18T11:49:27.749Z</time></trkpt><trkpt lat="45.6254911" lon="11.0994"><ele>1184.0</ele><time>2026-04-18T11:49:29.749Z</time></trkpt><trkpt lat="45.6254583" lon="11.0992848"><ele>1184.0</ele><time>2026-04-18T11:49:49.749Z</time></trkpt><trkpt lat="45.6253575" lon="11.0991963"><ele>1184.0</ele><time>2026-04-18T11:49:51.749Z</time></trkpt><trkpt lat="45.6252534" lon="11.0991095"><ele>1184.0</ele><time>2026-04-18T11:49:53.749Z</time></trkpt><trkpt lat="45.6251596" lon="11.0990037"><ele>1184.0</ele><time>2026-04-18T11:49:55.749Z</time></trkpt><trkpt lat="45.6250813" lon="11.098897"><ele>1186.3333333333335</ele><time>2026-04-18T11:49:57.749Z</time></trkpt><trkpt lat="45.6250216" lon="11.098798"><ele>1188.6666666666667</ele><time>2026-04-18T11:49:59.75Z</time></trkpt><trkpt lat="45.6250049" lon="11.0986865"><ele>1191.0</ele><time>2026-04-18T11:50:01.749Z</time></trkpt><trkpt lat="45.625029" lon="11.0985602"><ele>1193.3333333333333</ele><time>2026-04-18T11:50:03.749Z</time></trkpt><trkpt lat="45.6250508" lon="11.0984483"><ele>1195.6666666666665</ele><time>2026-04-18T11:50:05.749Z</time></trkpt><trkpt lat="45.6250909" lon="11.0983228"><ele>1198.0</ele><time>2026-04-18T11:50:07.749Z</time></trkpt><trkpt lat="45.6251155" lon="11.0982325"><ele>1199.3333333333333</ele><time>2026-04-18T11:50:08.749Z</time></trkpt><trkpt lat="45.6251449" lon="11.0981226"><ele>1200.6666666666665</ele><time>2026-04-18T11:50:09.75Z</time></trkpt><trkpt lat="45.6251676" lon="11.0980304"><ele>1202.0</ele><time>2026-04-18T11:50:10.749Z</time></trkpt><trkpt lat="45.6252033" lon="11.0978976"><ele>1203.3333333333333</ele><time>2026-04-18T11:50:12.749Z</time></trkpt><trkpt lat="45.6252199" lon="11.0977782"><ele>1204.6666666666667</ele><time>2026-04-18T11:50:14.749Z</time></trkpt><trkpt lat="45.6252321" lon="11.0976681"><ele>1206.0</ele><time>2026-04-18T11:50:16.749Z</time></trkpt><trkpt lat="45.6252573" lon="11.0975695"><ele>1206.0</ele><time>2026-04-18T11:50:17.749Z</time></trkpt><trkpt lat="45.6252866" lon="11.0974703"><ele>1206.0</ele><time>2026-04-18T11:50:18.749Z</time></trkpt><trkpt lat="45.6253161" lon="11.0973702"><ele>1206.0</ele><time>2026-04-18T11:50:19.749Z</time></trkpt><trkpt lat="45.6253431" lon="11.0972722"><ele>1206.0</ele><time>2026-04-18T11:50:20.749Z</time></trkpt><trkpt lat="45.6253711" lon="11.0971724"><ele>1206.0</ele><time>2026-04-18T11:50:21.749Z</time></trkpt><trkpt lat="45.6253954" lon="11.0970728"><ele>1206.0</ele><time>2026-04-18T11:50:22.749Z</time></trkpt><trkpt lat="45.6254203" lon="11.0969843"><ele>1206.0</ele><time>2026-04-18T11:50:23.749Z</time></trkpt><trkpt lat="45.6254472" lon="11.0968989"><ele>1203.5</ele><time>2026-04-18T11:50:24.749Z</time></trkpt><trkpt lat="45.6254718" lon="11.0968065"><ele>1201.0</ele><time>2026-04-18T11:50:25.749Z</time></trkpt><trkpt lat="45.6254941" lon="11.0967137"><ele>1198.5</ele><time>2026-04-18T11:50:26.749Z</time></trkpt><trkpt lat="45.6255134" lon="11.0965425"><ele>1196.0</ele><time>2026-04-18T11:50:28.749Z</time></trkpt><trkpt lat="45.6255153" lon="11.0964396"><ele>1193.5</ele><time>2026-04-18T11:50:29.749Z</time></trkpt><trkpt lat="45.6255124" lon="11.0963179"><ele>1191.0</ele><time>2026-04-18T11:50:30.749Z</time></trkpt><trkpt lat="45.6255117" lon="11.0961835"><ele>1191.3333333333333</ele><time>2026-04-18T11:50:31.749Z</time></trkpt><trkpt lat="45.625508" lon="11.0960522"><ele>1191.6666666666667</ele><time>2026-04-18T11:50:32.749Z</time></trkpt><trkpt lat="45.6255041" lon="11.095928"><ele>1192.0</ele><time>2026-04-18T11:50:33.749Z</time></trkpt><trkpt lat="45.6254967" lon="11.0958229"><ele>1192.3333333333335</ele><time>2026-04-18T11:50:34.749Z</time></trkpt><trkpt lat="45.6254837" lon="11.0957077"><ele>1192.6666666666667</ele><time>2026-04-18T11:50:35.749Z</time></trkpt><trkpt lat="45.625462" lon="11.0955497"><ele>1193.0</ele><time>2026-04-18T11:50:36.749Z</time></trkpt><trkpt lat="45.6254182" lon="11.0953599"><ele>1193.0</ele><time>2026-04-18T11:50:37.749Z</time></trkpt><trkpt lat="45.6253583" lon="11.0951419"><ele>1193.0</ele><time>2026-04-18T11:50:38.749Z</time></trkpt><trkpt lat="45.6252966" lon="11.0949402"><ele>1193.0</ele><time>2026-04-18T11:50:39.749Z</time></trkpt><trkpt lat="45.6252299" lon="11.0947568"><ele>1189.0</ele><time>2026-04-18T11:50:40.749Z</time></trkpt><trkpt lat="45.6251619" lon="11.0945842"><ele>1185.0</ele><time>2026-04-18T11:50:41.749Z</time></trkpt><trkpt lat="45.6250917" lon="11.0944199"><ele>1181.0</ele><time>2026-04-18T11:50:42.749Z</time></trkpt><trkpt lat="45.6250201" lon="11.0942646"><ele>1177.0</ele><time>2026-04-18T11:50:43.749Z</time></trkpt><trkpt lat="45.6249527" lon="11.0941189"><ele>1176.2</ele><time>2026-04-18T11:50:44.749Z</time></trkpt><trkpt lat="45.6248964" lon="11.0939798"><ele>1175.4</ele><time>2026-04-18T11:50:45.749Z</time></trkpt><trkpt lat="45.6248492" lon="11.0938465"><ele>1174.6</ele><time>2026-04-18T11:50:46.749Z</time></trkpt><trkpt lat="45.624811" lon="11.0937215"><ele>1173.8</ele><time>2026-04-18T11:50:47.749Z</time></trkpt><trkpt lat="45.6247859" lon="11.093598"><ele>1173.0</ele><time>2026-04-18T11:50:48.749Z</time></trkpt><trkpt lat="45.6247811" lon="11.0934808"><ele>1173.0</ele><time>2026-04-18T11:50:49.749Z</time></trkpt><trkpt lat="45.624793" lon="11.093338"><ele>1173.0</ele><time>2026-04-18T11:50:50.749Z</time></trkpt><trkpt lat="45.6248288" lon="11.0931677"><ele>1173.0</ele><time>2026-04-18T11:50:51.749Z</time></trkpt><trkpt lat="45.6248714" lon="11.0929709"><ele>1173.0</ele><time>2026-04-18T11:50:52.749Z</time></trkpt><trkpt lat="45.6249078" lon="11.0927747"><ele>1172.75</ele><time>2026-04-18T11:50:53.749Z</time></trkpt><trkpt lat="45.6249389" lon="11.0925898"><ele>1172.5</ele><time>2026-04-18T11:50:54.749Z</time></trkpt><trkpt lat="45.6249694" lon="11.0924102"><ele>1172.25</ele><time>2026-04-18T11:50:55.749Z</time></trkpt><trkpt lat="45.6249984" lon="11.0922362"><ele>1172.0</ele><time>2026-04-18T11:50:56.749Z</time></trkpt><trkpt lat="45.625027" lon="11.0920578"><ele>1172.0</ele><time>2026-04-18T11:50:57.749Z</time></trkpt><trkpt lat="45.6250539" lon="11.0918904"><ele>1172.0</ele><time>2026-04-18T11:50:58.749Z</time></trkpt><trkpt lat="45.6250941" lon="11.0917387"><ele>1172.0</ele><time>2026-04-18T11:50:59.749Z</time></trkpt><trkpt lat="45.6251498" lon="11.0915692"><ele>1172.0</ele><time>2026-04-18T11:51:00.749Z</time></trkpt><trkpt lat="45.6252044" lon="11.0914003"><ele>1171.0</ele><time>2026-04-18T11:51:01.749Z</time></trkpt><trkpt lat="45.6252533" lon="11.0911959"><ele>1170.0</ele><time>2026-04-18T11:51:02.749Z</time></trkpt><trkpt lat="45.6253008" lon="11.0909666"><ele>1169.0</ele><time>2026-04-18T11:51:03.749Z</time></trkpt><trkpt lat="45.6253426" lon="11.0907456"><ele>1169.0</ele><time>2026-04-18T11:51:04.749Z</time></trkpt><trkpt lat="45.6253798" lon="11.0905397"><ele>1169.0</ele><time>2026-04-18T11:51:05.749Z</time></trkpt><trkpt lat="45.6254164" lon="11.0903498"><ele>1169.0</ele><time>2026-04-18T11:51:06.749Z</time></trkpt><trkpt lat="45.625451" lon="11.0901628"><ele>1169.0</ele><time>2026-04-18T11:51:07.749Z</time></trkpt><trkpt lat="45.6254817" lon="11.0899838"><ele>1167.6000000000001</ele><time>2026-04-18T11:51:08.749Z</time></trkpt><trkpt lat="45.6255095" lon="11.0898201"><ele>1166.2</ele><time>2026-04-18T11:51:09.749Z</time></trkpt><trkpt lat="45.6255335" lon="11.0896638"><ele>1164.8000000000002</ele><time>2026-04-18T11:51:10.749Z</time></trkpt><trkpt lat="45.6255544" lon="11.0895193"><ele>1163.4</ele><time>2026-04-18T11:51:11.749Z</time></trkpt><trkpt lat="45.6255727" lon="11.0894015"><ele>1162.0</ele><time>2026-04-18T11:51:12.749Z</time></trkpt><trkpt lat="45.6255891" lon="11.0893065"><ele>1162.0</ele><time>2026-04-18T11:51:13.749Z</time></trkpt><trkpt lat="45.6256142" lon="11.0891744"><ele>1162.0</ele><time>2026-04-18T11:51:15.749Z</time></trkpt><trkpt lat="45.6256877" lon="11.0890807"><ele>1162.0</ele><time>2026-04-18T11:51:17.749Z</time></trkpt><trkpt lat="45.6257708" lon="11.0890516"><ele>1162.0</ele><time>2026-04-18T11:51:18.749Z</time></trkpt><trkpt lat="45.6258886" lon="11.0890193"><ele>1162.0</ele><time>2026-04-18T11:51:19.749Z</time></trkpt><trkpt lat="45.6260233" lon="11.0889827"><ele>1162.75</ele><time>2026-04-18T11:51:20.749Z</time></trkpt><trkpt lat="45.6261603" lon="11.0889398"><ele>1163.5</ele><time>2026-04-18T11:51:21.749Z</time></trkpt><trkpt lat="45.6262872" lon="11.0888975"><ele>1164.25</ele><time>2026-04-18T11:51:22.749Z</time></trkpt><trkpt lat="45.6264048" lon="11.0888449"><ele>1165.0</ele><time>2026-04-18T11:51:23.749Z</time></trkpt><trkpt lat="45.626503" lon="11.088781"><ele>1165.0</ele><time>2026-04-18T11:51:24.749Z</time></trkpt><trkpt lat="45.6265824" lon="11.0887065"><ele>1165.0</ele><time>2026-04-18T11:51:25.749Z</time></trkpt><trkpt lat="45.6266476" lon="11.0886311"><ele>1165.0</ele><time>2026-04-18T11:51:26.749Z</time></trkpt><trkpt lat="45.6267186" lon="11.0885503"><ele>1165.0</ele><time>2026-04-18T11:51:27.749Z</time></trkpt><trkpt lat="45.6267681" lon="11.0884924"><ele>1165.0</ele><time>2026-04-18T11:51:28.749Z</time></trkpt><trkpt lat="45.6268426" lon="11.0884138"><ele>1165.0</ele><time>2026-04-18T11:51:30.749Z</time></trkpt><trkpt lat="45.6269079" lon="11.0883728"><ele>1165.6</ele><time>2026-04-18T11:51:32.749Z</time></trkpt><trkpt lat="45.6269919" lon="11.0883768"><ele>1166.2</ele><time>2026-04-18T11:51:35.749Z</time></trkpt><trkpt lat="45.6270764" lon="11.0883592"><ele>1166.8</ele><time>2026-04-18T11:51:37.749Z</time></trkpt><trkpt lat="45.6272147" lon="11.0883501"><ele>1167.4</ele><time>2026-04-18T11:51:39.749Z</time></trkpt><trkpt lat="45.6273014" lon="11.0883418"><ele>1168.0</ele><time>2026-04-18T11:51:40.749Z</time></trkpt><trkpt lat="45.6273979" lon="11.0883265"><ele>1168.0</ele><time>2026-04-18T11:51:41.749Z</time></trkpt><trkpt lat="45.6274963" lon="11.0883147"><ele>1168.0</ele><time>2026-04-18T11:51:42.749Z</time></trkpt><trkpt lat="45.6275937" lon="11.0883019"><ele>1168.0</ele><time>2026-04-18T11:51:43.749Z</time></trkpt><trkpt lat="45.6276907" lon="11.0882953"><ele>1168.0</ele><time>2026-04-18T11:51:44.749Z</time></trkpt><trkpt lat="45.6277875" lon="11.0882846"><ele>1168.0</ele><time>2026-04-18T11:51:45.749Z</time></trkpt><trkpt lat="45.6278801" lon="11.0882747"><ele>1169.0</ele><time>2026-04-18T11:51:46.749Z</time></trkpt><trkpt lat="45.6279595" lon="11.0882629"><ele>1170.0</ele><time>2026-04-18T11:51:47.749Z</time></trkpt><trkpt lat="45.6280452" lon="11.0882449"><ele>1171.0</ele><time>2026-04-18T11:51:48.749Z</time></trkpt><trkpt lat="45.6281297" lon="11.0882267"><ele>1172.0</ele><time>2026-04-18T11:51:49.75Z</time></trkpt><trkpt lat="45.6282211" lon="11.0881772"><ele>1173.0</ele><time>2026-04-18T11:51:50.749Z</time></trkpt><trkpt lat="45.628329" lon="11.0880591"><ele>1173.25</ele><time>2026-04-18T11:51:51.749Z</time></trkpt><trkpt lat="45.628439" lon="11.087956"><ele>1173.5</ele><time>2026-04-18T11:51:52.749Z</time></trkpt><trkpt lat="45.6285669" lon="11.08786"><ele>1173.75</ele><time>2026-04-18T11:51:53.749Z</time></trkpt><trkpt lat="45.6286854" lon="11.0877734"><ele>1174.0</ele><time>2026-04-18T11:51:54.749Z</time></trkpt><trkpt lat="45.6288245" lon="11.087701"><ele>1175.6666666666665</ele><time>2026-04-18T11:51:55.75Z</time></trkpt><trkpt lat="45.6289832" lon="11.0876567"><ele>1177.3333333333333</ele><time>2026-04-18T11:51:56.749Z</time></trkpt><trkpt lat="45.6291492" lon="11.0876348"><ele>1179.0</ele><time>2026-04-18T11:51:57.749Z</time></trkpt><trkpt lat="45.6293245" lon="11.0876093"><ele>1182.0</ele><time>2026-04-18T11:51:58.749Z</time></trkpt><trkpt lat="45.6294997" lon="11.0875916"><ele>1185.0</ele><time>2026-04-18T11:51:59.75Z</time></trkpt><trkpt lat="45.6296723" lon="11.0875732"><ele>1188.0</ele><time>2026-04-18T11:52:00.749Z</time></trkpt><trkpt lat="45.6298487" lon="11.0875585"><ele>1188.0</ele><time>2026-04-18T11:52:01.749Z</time></trkpt><trkpt lat="45.6300425" lon="11.0875606"><ele>1188.0</ele><time>2026-04-18T11:52:02.749Z</time></trkpt><trkpt lat="45.6302489" lon="11.0875894"><ele>1188.0</ele><time>2026-04-18T11:52:03.75Z</time></trkpt><trkpt lat="45.6304755" lon="11.0876473"><ele>1192.5</ele><time>2026-04-18T11:52:04.749Z</time></trkpt><trkpt lat="45.6307183" lon="11.0877129"><ele>1197.0</ele><time>2026-04-18T11:52:05.749Z</time></trkpt><trkpt lat="45.6309746" lon="11.0877805"><ele>1201.0</ele><time>2026-04-18T11:52:06.749Z</time></trkpt><trkpt lat="45.631227" lon="11.0878406"><ele>1205.0</ele><time>2026-04-18T11:52:07.749Z</time></trkpt><trkpt lat="45.6314523" lon="11.0878923"><ele>1205.0</ele><time>2026-04-18T11:52:08.749Z</time></trkpt><trkpt lat="45.6316576" lon="11.0879434"><ele>1205.0</ele><time>2026-04-18T11:52:09.749Z</time></trkpt><trkpt lat="45.6318432" lon="11.0879888"><ele>1205.0</ele><time>2026-04-18T11:52:10.749Z</time></trkpt><trkpt lat="45.6320308" lon="11.088051"><ele>1204.6666666666667</ele><time>2026-04-18T11:52:11.749Z</time></trkpt><trkpt lat="45.6322247" lon="11.0881271"><ele>1204.3333333333333</ele><time>2026-04-18T11:52:12.749Z</time></trkpt><trkpt lat="45.6324048" lon="11.0882022"><ele>1204.0</ele><time>2026-04-18T11:52:13.749Z</time></trkpt><trkpt lat="45.6325768" lon="11.0882695"><ele>1210.3333333333333</ele><time>2026-04-18T11:52:14.749Z</time></trkpt><trkpt lat="45.6327527" lon="11.0883549"><ele>1216.6666666666667</ele><time>2026-04-18T11:52:15.749Z</time></trkpt><trkpt lat="45.6329233" lon="11.0884744"><ele>1223.0</ele><time>2026-04-18T11:52:16.749Z</time></trkpt><trkpt lat="45.6330708" lon="11.0885938"><ele>1223.0</ele><time>2026-04-18T11:52:17.749Z</time></trkpt><trkpt lat="45.6332097" lon="11.0886995"><ele>1223.0</ele><time>2026-04-18T11:52:18.749Z</time></trkpt><trkpt lat="45.6333768" lon="11.0887908"><ele>1223.0</ele><time>2026-04-18T11:52:19.75Z</time></trkpt><trkpt lat="45.6335516" lon="11.0888321"><ele>1227.3333333333335</ele><time>2026-04-18T11:52:20.749Z</time></trkpt><trkpt lat="45.6337082" lon="11.0888525"><ele>1231.6666666666667</ele><time>2026-04-18T11:52:21.749Z</time></trkpt><trkpt lat="45.6338599" lon="11.0888826"><ele>1236.0</ele><time>2026-04-18T11:52:22.749Z</time></trkpt><trkpt lat="45.6340105" lon="11.0889556"><ele>1236.0</ele><time>2026-04-18T11:52:23.749Z</time></trkpt><trkpt lat="45.6341559" lon="11.0890622"><ele>1236.0</ele><time>2026-04-18T11:52:24.749Z</time></trkpt><trkpt lat="45.6342733" lon="11.0891723"><ele>1236.0</ele><time>2026-04-18T11:52:25.749Z</time></trkpt><trkpt lat="45.6343808" lon="11.0892678"><ele>1236.0</ele><time>2026-04-18T11:52:26.749Z</time></trkpt><trkpt lat="45.634474" lon="11.0893352"><ele>1240.0</ele><time>2026-04-18T11:52:27.749Z</time></trkpt><trkpt lat="45.6345681" lon="11.0893539"><ele>1244.0</ele><time>2026-04-18T11:52:28.749Z</time></trkpt><trkpt lat="45.6346571" lon="11.0893089"><ele>1248.0</ele><time>2026-04-18T11:52:29.749Z</time></trkpt><trkpt lat="45.6347291" lon="11.089197"><ele>1252.0</ele><time>2026-04-18T11:52:30.749Z</time></trkpt><trkpt lat="45.6347939" lon="11.0890051"><ele>1256.0</ele><time>2026-04-18T11:52:31.749Z</time></trkpt><trkpt lat="45.6348543" lon="11.0887966"><ele>1256.0</ele><time>2026-04-18T11:52:32.749Z</time></trkpt><trkpt lat="45.6348925" lon="11.0885626"><ele>1256.0</ele><time>2026-04-18T11:52:33.749Z</time></trkpt><trkpt lat="45.6348936" lon="11.0883026"><ele>1256.0</ele><time>2026-04-18T11:52:34.749Z</time></trkpt><trkpt lat="45.6348544" lon="11.0880321"><ele>1258.3333333333335</ele><time>2026-04-18T11:52:35.749Z</time></trkpt><trkpt lat="45.6347962" lon="11.0878028"><ele>1260.6666666666667</ele><time>2026-04-18T11:52:36.749Z</time></trkpt><trkpt lat="45.6347393" lon="11.087605"><ele>1263.0</ele><time>2026-04-18T11:52:37.749Z</time></trkpt><trkpt lat="45.6346966" lon="11.0874285"><ele>1265.0</ele><time>2026-04-18T11:52:38.749Z</time></trkpt><trkpt lat="45.6346739" lon="11.0872492"><ele>1267.0</ele><time>2026-04-18T11:52:39.749Z</time></trkpt><trkpt lat="45.6346745" lon="11.0870481"><ele>1269.0</ele><time>2026-04-18T11:52:40.749Z</time></trkpt><trkpt lat="45.6347137" lon="11.0868143"><ele>1271.0</ele><time>2026-04-18T11:52:41.749Z</time></trkpt><trkpt lat="45.6347775" lon="11.0865675"><ele>1271.3333333333335</ele><time>2026-04-18T11:52:42.749Z</time></trkpt><trkpt lat="45.6348505" lon="11.0863232"><ele>1271.6666666666667</ele><time>2026-04-18T11:52:43.749Z</time></trkpt><trkpt lat="45.6349138" lon="11.086098"><ele>1272.0</ele><time>2026-04-18T11:52:44.749Z</time></trkpt><trkpt lat="45.6349671" lon="11.085891"><ele>1269.6666666666667</ele><time>2026-04-18T11:52:45.749Z</time></trkpt><trkpt lat="45.6350272" lon="11.0856911"><ele>1267.3333333333335</ele><time>2026-04-18T11:52:46.749Z</time></trkpt><trkpt lat="45.6351315" lon="11.0854986"><ele>1265.0</ele><time>2026-04-18T11:52:47.749Z</time></trkpt><trkpt lat="45.6352401" lon="11.0853387"><ele>1265.75</ele><time>2026-04-18T11:52:48.749Z</time></trkpt><trkpt lat="45.6353392" lon="11.085194"><ele>1266.5</ele><time>2026-04-18T11:52:49.749Z</time></trkpt><trkpt lat="45.6354311" lon="11.0850653"><ele>1267.25</ele><time>2026-04-18T11:52:50.749Z</time></trkpt><trkpt lat="45.6355217" lon="11.0849486"><ele>1268.0</ele><time>2026-04-18T11:52:51.749Z</time></trkpt><trkpt lat="45.6356256" lon="11.0848457"><ele>1268.0</ele><time>2026-04-18T11:52:52.75Z</time></trkpt><trkpt lat="45.6357432" lon="11.0847709"><ele>1268.0</ele><time>2026-04-18T11:52:53.749Z</time></trkpt><trkpt lat="45.6358564" lon="11.0847475"><ele>1268.0</ele><time>2026-04-18T11:52:54.749Z</time></trkpt><trkpt lat="45.6359804" lon="11.0847708"><ele>1268.0</ele><time>2026-04-18T11:52:55.75Z</time></trkpt><trkpt lat="45.6361124" lon="11.0848559"><ele>1270.3333333333335</ele><time>2026-04-18T11:52:56.749Z</time></trkpt><trkpt lat="45.6362508" lon="11.0849864"><ele>1272.6666666666667</ele><time>2026-04-18T11:52:57.749Z</time></trkpt><trkpt lat="45.6363925" lon="11.0851458"><ele>1275.0</ele><time>2026-04-18T11:52:58.749Z</time></trkpt><trkpt lat="45.6365369" lon="11.0853513"><ele>1275.0</ele><time>2026-04-18T11:52:59.749Z</time></trkpt><trkpt lat="45.6366645" lon="11.0855626"><ele>1275.0</ele><time>2026-04-18T11:53:00.749Z</time></trkpt><trkpt lat="45.6367799" lon="11.0857608"><ele>1275.0</ele><time>2026-04-18T11:53:01.749Z</time></trkpt><trkpt lat="45.6368869" lon="11.0859399"><ele>1279.0</ele><time>2026-04-18T11:53:02.749Z</time></trkpt><trkpt lat="45.6369835" lon="11.0860943"><ele>1283.0</ele><time>2026-04-18T11:53:03.749Z</time></trkpt><trkpt lat="45.6370621" lon="11.0862208"><ele>1287.0</ele><time>2026-04-18T11:53:04.749Z</time></trkpt><trkpt lat="45.6371396" lon="11.0863169"><ele>1291.0</ele><time>2026-04-18T11:53:05.749Z</time></trkpt><trkpt lat="45.6372387" lon="11.0863591"><ele>1291.0</ele><time>2026-04-18T11:53:06.749Z</time></trkpt><trkpt lat="45.6373542" lon="11.0863376"><ele>1291.0</ele><time>2026-04-18T11:53:07.749Z</time></trkpt><trkpt lat="45.6374682" lon="11.0862513"><ele>1291.0</ele><time>2026-04-18T11:53:08.749Z</time></trkpt><trkpt lat="45.6375625" lon="11.0861034"><ele>1291.0</ele><time>2026-04-18T11:53:09.749Z</time></trkpt><trkpt lat="45.6376128" lon="11.0859295"><ele>1290.0</ele><time>2026-04-18T11:53:10.749Z</time></trkpt><trkpt lat="45.6376228" lon="11.0857247"><ele>1289.0</ele><time>2026-04-18T11:53:11.75Z</time></trkpt><trkpt lat="45.6376203" lon="11.0855303"><ele>1288.0</ele><time>2026-04-18T11:53:12.75Z</time></trkpt><trkpt lat="45.6376461" lon="11.0853498"><ele>1287.0</ele><time>2026-04-18T11:53:13.749Z</time></trkpt><trkpt lat="45.6377089" lon="11.0851774"><ele>1287.0</ele><time>2026-04-18T11:53:14.749Z</time></trkpt><trkpt lat="45.6377914" lon="11.0850415"><ele>1287.0</ele><time>2026-04-18T11:53:15.749Z</time></trkpt><trkpt lat="45.6378857" lon="11.0849459"><ele>1287.0</ele><time>2026-04-18T11:53:16.749Z</time></trkpt><trkpt lat="45.6379906" lon="11.0849066"><ele>1287.0</ele><time>2026-04-18T11:53:17.749Z</time></trkpt><trkpt lat="45.6381172" lon="11.084922"><ele>1290.6666666666667</ele><time>2026-04-18T11:53:18.749Z</time></trkpt><trkpt lat="45.6382577" lon="11.0849877"><ele>1294.3333333333335</ele><time>2026-04-18T11:53:19.749Z</time></trkpt><trkpt lat="45.6384075" lon="11.0850828"><ele>1298.0</ele><time>2026-04-18T11:53:20.749Z</time></trkpt><trkpt lat="45.6385715" lon="11.0852153"><ele>1295.0</ele><time>2026-04-18T11:53:21.749Z</time></trkpt><trkpt lat="45.6387341" lon="11.085403"><ele>1292.0</ele><time>2026-04-18T11:53:22.749Z</time></trkpt><trkpt lat="45.6388796" lon="11.085586"><ele>1289.0</ele><time>2026-04-18T11:53:23.749Z</time></trkpt><trkpt lat="45.6390083" lon="11.0857562"><ele>1292.25</ele><time>2026-04-18T11:53:24.749Z</time></trkpt><trkpt lat="45.6391277" lon="11.0859071"><ele>1295.5</ele><time>2026-04-18T11:53:25.749Z</time></trkpt><trkpt lat="45.6392275" lon="11.0860388"><ele>1298.75</ele><time>2026-04-18T11:53:26.749Z</time></trkpt><trkpt lat="45.6393234" lon="11.0861733"><ele>1302.0</ele><time>2026-04-18T11:53:27.749Z</time></trkpt><trkpt lat="45.6394159" lon="11.0863355"><ele>1302.0</ele><time>2026-04-18T11:53:28.749Z</time></trkpt><trkpt lat="45.63949" lon="11.0865465"><ele>1302.0</ele><time>2026-04-18T11:53:29.749Z</time></trkpt><trkpt lat="45.6395417" lon="11.0867903"><ele>1302.0</ele><time>2026-04-18T11:53:30.749Z</time></trkpt><trkpt lat="45.6395696" lon="11.0870384"><ele>1302.0</ele><time>2026-04-18T11:53:31.749Z</time></trkpt><trkpt lat="45.6395714" lon="11.087291"><ele>1302.0</ele><time>2026-04-18T11:53:32.749Z</time></trkpt><trkpt lat="45.6395352" lon="11.0875558"><ele>1302.0</ele><time>2026-04-18T11:53:33.75Z</time></trkpt><trkpt lat="45.6394821" lon="11.087799"><ele>1307.5</ele><time>2026-04-18T11:53:34.749Z</time></trkpt><trkpt lat="45.6394193" lon="11.0879965"><ele>1313.0</ele><time>2026-04-18T11:53:35.75Z</time></trkpt><trkpt lat="45.6393705" lon="11.0881729"><ele>1318.5</ele><time>2026-04-18T11:53:36.749Z</time></trkpt><trkpt lat="45.639334" lon="11.0883323"><ele>1324.0</ele><time>2026-04-18T11:53:37.749Z</time></trkpt><trkpt lat="45.6393192" lon="11.0884776"><ele>1323.75</ele><time>2026-04-18T11:53:38.749Z</time></trkpt><trkpt lat="45.6393457" lon="11.0886207"><ele>1323.5</ele><time>2026-04-18T11:53:39.749Z</time></trkpt><trkpt lat="45.6394141" lon="11.088754"><ele>1323.25</ele><time>2026-04-18T11:53:40.75Z</time></trkpt><trkpt lat="45.6395232" lon="11.0888535"><ele>1323.0</ele><time>2026-04-18T11:53:41.749Z</time></trkpt><trkpt lat="45.6396719" lon="11.0889115"><ele>1323.0</ele><time>2026-04-18T11:53:42.749Z</time></trkpt><trkpt lat="45.6398344" lon="11.0889186"><ele>1323.0</ele><time>2026-04-18T11:53:43.749Z</time></trkpt><trkpt lat="45.6399737" lon="11.0888912"><ele>1323.0</ele><time>2026-04-18T11:53:44.749Z</time></trkpt><trkpt lat="45.6400934" lon="11.0888546"><ele>1323.0</ele><time>2026-04-18T11:53:45.749Z</time></trkpt><trkpt lat="45.640192" lon="11.0888336"><ele>1323.0</ele><time>2026-04-18T11:53:46.749Z</time></trkpt><trkpt lat="45.640292" lon="11.0888602"><ele>1323.0</ele><time>2026-04-18T11:53:47.749Z</time></trkpt><trkpt lat="45.6403778" lon="11.0889459"><ele>1323.0</ele><time>2026-04-18T11:53:48.749Z</time></trkpt><trkpt lat="45.6404304" lon="11.0890883"><ele>1323.0</ele><time>2026-04-18T11:53:49.749Z</time></trkpt><trkpt lat="45.6404524" lon="11.0892802"><ele>1324.75</ele><time>2026-04-18T11:53:50.749Z</time></trkpt><trkpt lat="45.6404691" lon="11.0894573"><ele>1326.5</ele><time>2026-04-18T11:53:51.749Z</time></trkpt><trkpt lat="45.6404892" lon="11.0896237"><ele>1328.25</ele><time>2026-04-18T11:53:52.749Z</time></trkpt><trkpt lat="45.6405277" lon="11.089797"><ele>1330.0</ele><time>2026-04-18T11:53:53.749Z</time></trkpt><trkpt lat="45.6406057" lon="11.0899445"><ele>1334.3333333333333</ele><time>2026-04-18T11:53:54.749Z</time></trkpt><trkpt lat="45.6407224" lon="11.0900536"><ele>1338.6666666666667</ele><time>2026-04-18T11:53:55.749Z</time></trkpt><trkpt lat="45.6408788" lon="11.0901507"><ele>1343.0</ele><time>2026-04-18T11:53:56.749Z</time></trkpt><trkpt lat="45.6410564" lon="11.0902655"><ele>1345.0</ele><time>2026-04-18T11:53:57.749Z</time></trkpt><trkpt lat="45.6412421" lon="11.0903803"><ele>1347.0</ele><time>2026-04-18T11:53:58.749Z</time></trkpt><trkpt lat="45.6414427" lon="11.0904975"><ele>1349.0</ele><time>2026-04-18T11:53:59.749Z</time></trkpt><trkpt lat="45.6416473" lon="11.0906119"><ele>1349.0</ele><time>2026-04-18T11:54:00.749Z</time></trkpt><trkpt lat="45.6418678" lon="11.0907099"><ele>1349.0</ele><time>2026-04-18T11:54:01.749Z</time></trkpt><trkpt lat="45.6421054" lon="11.090776"><ele>1355.5</ele><time>2026-04-18T11:54:02.749Z</time></trkpt><trkpt lat="45.6423485" lon="11.0908209"><ele>1362.0</ele><time>2026-04-18T11:54:03.749Z</time></trkpt><trkpt lat="45.6425669" lon="11.090863"><ele>1362.0</ele><time>2026-04-18T11:54:04.749Z</time></trkpt><trkpt lat="45.6427677" lon="11.0909126"><ele>1362.0</ele><time>2026-04-18T11:54:05.749Z</time></trkpt><trkpt lat="45.6429721" lon="11.0909809"><ele>1362.0</ele><time>2026-04-18T11:54:06.749Z</time></trkpt><trkpt lat="45.6431922" lon="11.0910696"><ele>1366.0</ele><time>2026-04-18T11:54:07.749Z</time></trkpt><trkpt lat="45.6434115" lon="11.0911682"><ele>1370.0</ele><time>2026-04-18T11:54:08.749Z</time></trkpt><trkpt lat="45.6436115" lon="11.0912582"><ele>1374.0</ele><time>2026-04-18T11:54:09.749Z</time></trkpt><trkpt lat="45.6437858" lon="11.0913415"><ele>1377.0</ele><time>2026-04-18T11:54:10.749Z</time></trkpt><trkpt lat="45.6439415" lon="11.0914169"><ele>1380.0</ele><time>2026-04-18T11:54:11.749Z</time></trkpt><trkpt lat="45.6440816" lon="11.0914802"><ele>1383.0</ele><time>2026-04-18T11:54:12.749Z</time></trkpt><trkpt lat="45.6442139" lon="11.0915221"><ele>1386.0</ele><time>2026-04-18T11:54:13.75Z</time></trkpt><trkpt lat="45.644354" lon="11.0915479"><ele>1386.0</ele><time>2026-04-18T11:54:14.749Z</time></trkpt><trkpt lat="45.6444945" lon="11.0915717"><ele>1386.0</ele><time>2026-04-18T11:54:15.749Z</time></trkpt><trkpt lat="45.6446214" lon="11.091609"><ele>1386.0</ele><time>2026-04-18T11:54:16.749Z</time></trkpt><trkpt lat="45.6447306" lon="11.0916672"><ele>1386.0</ele><time>2026-04-18T11:54:17.749Z</time></trkpt><trkpt lat="45.6448254" lon="11.0917439"><ele>1387.6</ele><time>2026-04-18T11:54:18.749Z</time></trkpt><trkpt lat="45.6449145" lon="11.0918354"><ele>1389.1999999999998</ele><time>2026-04-18T11:54:19.749Z</time></trkpt><trkpt lat="45.6450103" lon="11.0919492"><ele>1390.8000000000002</ele><time>2026-04-18T11:54:20.749Z</time></trkpt><trkpt lat="45.6450808" lon="11.0920624"><ele>1392.4</ele><time>2026-04-18T11:54:21.749Z</time></trkpt><trkpt lat="45.645141" lon="11.0921709"><ele>1394.0</ele><time>2026-04-18T11:54:22.749Z</time></trkpt><trkpt lat="45.6451859" lon="11.0922555"><ele>1394.0</ele><time>2026-04-18T11:54:23.75Z</time></trkpt><trkpt lat="45.6452518" lon="11.092381"><ele>1394.0</ele><time>2026-04-18T11:54:25.749Z</time></trkpt><trkpt lat="45.6452875" lon="11.0924622"><ele>1394.0</ele><time>2026-04-18T11:54:27.749Z</time></trkpt><trkpt lat="45.6453312" lon="11.0925331"><ele>1394.0</ele><time>2026-04-18T11:54:54.749Z</time></trkpt><trkpt lat="45.6453662" lon="11.0926087"><ele>1394.0</ele><time>2026-04-18T11:54:55.749Z</time></trkpt><trkpt lat="45.6454154" lon="11.0927094"><ele>1394.0</ele><time>2026-04-18T11:54:56.749Z</time></trkpt><trkpt lat="45.6454711" lon="11.0928277"><ele>1393.75</ele><time>2026-04-18T11:54:57.749Z</time></trkpt><trkpt lat="45.6455298" lon="11.0929545"><ele>1393.5</ele><time>2026-04-18T11:54:58.749Z</time></trkpt><trkpt lat="45.6456116" lon="11.0930944"><ele>1393.25</ele><time>2026-04-18T11:54:59.749Z</time></trkpt><trkpt lat="45.6456928" lon="11.0932325"><ele>1393.0</ele><time>2026-04-18T11:55:00.749Z</time></trkpt><trkpt lat="45.6457809" lon="11.0933652"><ele>1393.25</ele><time>2026-04-18T11:55:01.749Z</time></trkpt><trkpt lat="45.6458788" lon="11.09349"><ele>1393.5</ele><time>2026-04-18T11:55:02.749Z</time></trkpt><trkpt lat="45.6459721" lon="11.0936119"><ele>1393.75</ele><time>2026-04-18T11:55:03.749Z</time></trkpt><trkpt lat="45.646063" lon="11.0937324"><ele>1394.0</ele><time>2026-04-18T11:55:04.749Z</time></trkpt><trkpt lat="45.6461421" lon="11.0938539"><ele>1394.0</ele><time>2026-04-18T11:55:05.749Z</time></trkpt><trkpt lat="45.6462174" lon="11.0939856"><ele>1394.0</ele><time>2026-04-18T11:55:06.749Z</time></trkpt><trkpt lat="45.6462808" lon="11.0941429"><ele>1394.0</ele><time>2026-04-18T11:55:07.749Z</time></trkpt><trkpt lat="45.6463298" lon="11.0943056"><ele>1394.0</ele><time>2026-04-18T11:55:08.75Z</time></trkpt><trkpt lat="45.6463785" lon="11.0944572"><ele>1394.25</ele><time>2026-04-18T11:55:09.749Z</time></trkpt><trkpt lat="45.6464351" lon="11.094598"><ele>1394.5</ele><time>2026-04-18T11:55:10.749Z</time></trkpt><trkpt lat="45.6465143" lon="11.0947275"><ele>1394.75</ele><time>2026-04-18T11:55:11.75Z</time></trkpt><trkpt lat="45.6466312" lon="11.0948226"><ele>1395.0</ele><time>2026-04-18T11:55:12.749Z</time></trkpt><trkpt lat="45.6467796" lon="11.0948735"><ele>1395.0</ele><time>2026-04-18T11:55:13.749Z</time></trkpt><trkpt lat="45.646953" lon="11.0948773"><ele>1395.0</ele><time>2026-04-18T11:55:14.749Z</time></trkpt><trkpt lat="45.6471244" lon="11.0948714"><ele>1395.0</ele><time>2026-04-18T11:55:15.749Z</time></trkpt><trkpt lat="45.6472879" lon="11.0948594"><ele>1391.3333333333333</ele><time>2026-04-18T11:55:16.749Z</time></trkpt><trkpt lat="45.6474575" lon="11.0948444"><ele>1387.6666666666665</ele><time>2026-04-18T11:55:17.749Z</time></trkpt><trkpt lat="45.6476294" lon="11.0948472"><ele>1384.0</ele><time>2026-04-18T11:55:18.749Z</time></trkpt><trkpt lat="45.6477955" lon="11.0948695"><ele>1384.0</ele><time>2026-04-18T11:55:19.749Z</time></trkpt><trkpt lat="45.6479604" lon="11.094913"><ele>1384.0</ele><time>2026-04-18T11:55:20.749Z</time></trkpt><trkpt lat="45.6481252" lon="11.0949579"><ele>1384.0</ele><time>2026-04-18T11:55:21.749Z</time></trkpt><trkpt lat="45.6482917" lon="11.0949969"><ele>1384.3333333333333</ele><time>2026-04-18T11:55:22.749Z</time></trkpt><trkpt lat="45.6484739" lon="11.0950109"><ele>1384.6666666666667</ele><time>2026-04-18T11:55:23.749Z</time></trkpt><trkpt lat="45.6486756" lon="11.0949855"><ele>1385.0</ele><time>2026-04-18T11:55:24.749Z</time></trkpt><trkpt lat="45.6488843" lon="11.0949251"><ele>1384.6666666666667</ele><time>2026-04-18T11:55:25.749Z</time></trkpt><trkpt lat="45.6490901" lon="11.094858"><ele>1384.3333333333333</ele><time>2026-04-18T11:55:26.749Z</time></trkpt><trkpt lat="45.6492822" lon="11.0947988"><ele>1384.0</ele><time>2026-04-18T11:55:27.749Z</time></trkpt><trkpt lat="45.6494632" lon="11.0947484"><ele>1387.3333333333333</ele><time>2026-04-18T11:55:28.749Z</time></trkpt><trkpt lat="45.6496365" lon="11.0947253"><ele>1390.6666666666667</ele><time>2026-04-18T11:55:29.749Z</time></trkpt><trkpt lat="45.6498032" lon="11.0947397"><ele>1394.0</ele><time>2026-04-18T11:55:30.749Z</time></trkpt><trkpt lat="45.6499603" lon="11.0947852"><ele>1394.0</ele><time>2026-04-18T11:55:31.749Z</time></trkpt><trkpt lat="45.6501003" lon="11.0948427"><ele>1394.0</ele><time>2026-04-18T11:55:32.749Z</time></trkpt><trkpt lat="45.6502291" lon="11.0948895"><ele>1394.0</ele><time>2026-04-18T11:55:33.749Z</time></trkpt><trkpt lat="45.6503456" lon="11.0949284"><ele>1394.0</ele><time>2026-04-18T11:55:34.749Z</time></trkpt><trkpt lat="45.6504556" lon="11.0949403"><ele>1394.2</ele><time>2026-04-18T11:55:35.749Z</time></trkpt><trkpt lat="45.650562" lon="11.0949241"><ele>1394.4</ele><time>2026-04-18T11:55:36.749Z</time></trkpt><trkpt lat="45.65066" lon="11.0948784"><ele>1394.6</ele><time>2026-04-18T11:55:37.749Z</time></trkpt><trkpt lat="45.6507486" lon="11.0948093"><ele>1394.8</ele><time>2026-04-18T11:55:38.749Z</time></trkpt><trkpt lat="45.6508269" lon="11.0947308"><ele>1395.0</ele><time>2026-04-18T11:55:39.749Z</time></trkpt><trkpt lat="45.6508962" lon="11.0946618"><ele>1396.2</ele><time>2026-04-18T11:55:40.749Z</time></trkpt><trkpt lat="45.6509659" lon="11.0945936"><ele>1397.4</ele><time>2026-04-18T11:55:41.749Z</time></trkpt><trkpt lat="45.6510429" lon="11.094519"><ele>1398.6</ele><time>2026-04-18T11:55:42.749Z</time></trkpt><trkpt lat="45.6511298" lon="11.0944529"><ele>1399.8</ele><time>2026-04-18T11:55:43.749Z</time></trkpt><trkpt lat="45.6512238" lon="11.0944029"><ele>1401.0</ele><time>2026-04-18T11:55:44.749Z</time></trkpt><trkpt lat="45.6513337" lon="11.0943732"><ele>1402.3333333333333</ele><time>2026-04-18T11:55:45.749Z</time></trkpt><trkpt lat="45.6514678" lon="11.0943709"><ele>1403.6666666666665</ele><time>2026-04-18T11:55:46.749Z</time></trkpt><trkpt lat="45.6516233" lon="11.0943893"><ele>1405.0</ele><time>2026-04-18T11:55:47.749Z</time></trkpt><trkpt lat="45.6517912" lon="11.0944186"><ele>1405.0</ele><time>2026-04-18T11:55:48.749Z</time></trkpt><trkpt lat="45.6519657" lon="11.0944389"><ele>1405.0</ele><time>2026-04-18T11:55:49.749Z</time></trkpt><trkpt lat="45.6521579" lon="11.0944497"><ele>1405.0</ele><time>2026-04-18T11:55:50.749Z</time></trkpt><trkpt lat="45.6523556" lon="11.0944445"><ele>1405.0</ele><time>2026-04-18T11:55:51.749Z</time></trkpt><trkpt lat="45.6525698" lon="11.0944274"><ele>1405.0</ele><time>2026-04-18T11:55:52.749Z</time></trkpt><trkpt lat="45.6527799" lon="11.0944079"><ele>1405.0</ele><time>2026-04-18T11:55:53.749Z</time></trkpt><trkpt lat="45.6529758" lon="11.0943844"><ele>1404.3333333333333</ele><time>2026-04-18T11:55:54.75Z</time></trkpt><trkpt lat="45.6531708" lon="11.0943689"><ele>1403.6666666666667</ele><time>2026-04-18T11:55:55.749Z</time></trkpt><trkpt lat="45.6533649" lon="11.0943569"><ele>1403.0</ele><time>2026-04-18T11:55:56.749Z</time></trkpt><trkpt lat="45.6535618" lon="11.0943377"><ele>1404.3333333333335</ele><time>2026-04-18T11:55:57.749Z</time></trkpt><trkpt lat="45.6537612" lon="11.0942882"><ele>1405.6666666666667</ele><time>2026-04-18T11:55:58.749Z</time></trkpt><trkpt lat="45.6539532" lon="11.0942187"><ele>1407.0</ele><time>2026-04-18T11:55:59.749Z</time></trkpt><trkpt lat="45.6541336" lon="11.0941291"><ele>1405.6666666666667</ele><time>2026-04-18T11:56:00.749Z</time></trkpt><trkpt lat="45.6543148" lon="11.0940293"><ele>1404.3333333333335</ele><time>2026-04-18T11:56:01.749Z</time></trkpt><trkpt lat="45.6544804" lon="11.0939349"><ele>1403.0</ele><time>2026-04-18T11:56:02.749Z</time></trkpt><trkpt lat="45.654641" lon="11.093847"><ele>1403.0</ele><time>2026-04-18T11:56:03.749Z</time></trkpt><trkpt lat="45.6547867" lon="11.0937683"><ele>1403.0</ele><time>2026-04-18T11:56:04.749Z</time></trkpt><trkpt lat="45.6549196" lon="11.093691"><ele>1403.0</ele><time>2026-04-18T11:56:05.749Z</time></trkpt><trkpt lat="45.655039" lon="11.0936202"><ele>1403.0</ele><time>2026-04-18T11:56:06.749Z</time></trkpt><trkpt lat="45.6551451" lon="11.0935091"><ele>1403.0</ele><time>2026-04-18T11:56:07.749Z</time></trkpt><trkpt lat="45.6552258" lon="11.0933486"><ele>1403.0</ele><time>2026-04-18T11:56:08.749Z</time></trkpt><trkpt lat="45.6552704" lon="11.0931428"><ele>1403.0</ele><time>2026-04-18T11:56:09.749Z</time></trkpt><trkpt lat="45.6552961" lon="11.0929364"><ele>1403.0</ele><time>2026-04-18T11:56:10.749Z</time></trkpt><trkpt lat="45.6553128" lon="11.0927596"><ele>1403.5</ele><time>2026-04-18T11:56:11.749Z</time></trkpt><trkpt lat="45.6553394" lon="11.0925834"><ele>1404.0</ele><time>2026-04-18T11:56:12.749Z</time></trkpt><trkpt lat="45.6553892" lon="11.0924146"><ele>1404.5</ele><time>2026-04-18T11:56:13.749Z</time></trkpt><trkpt lat="45.6554625" lon="11.0922735"><ele>1405.0</ele><time>2026-04-18T11:56:14.749Z</time></trkpt><trkpt lat="45.6555523" lon="11.0921513"><ele>1402.0</ele><time>2026-04-18T11:56:15.749Z</time></trkpt><trkpt lat="45.6556595" lon="11.0920525"><ele>1399.0</ele><time>2026-04-18T11:56:16.749Z</time></trkpt><trkpt lat="45.6557746" lon="11.0919816"><ele>1396.0</ele><time>2026-04-18T11:56:17.749Z</time></trkpt><trkpt lat="45.6559076" lon="11.0919469"><ele>1393.0</ele><time>2026-04-18T11:56:18.749Z</time></trkpt><trkpt lat="45.6560531" lon="11.0919569"><ele>1390.6666666666665</ele><time>2026-04-18T11:56:19.749Z</time></trkpt><trkpt lat="45.6562007" lon="11.0920055"><ele>1388.3333333333333</ele><time>2026-04-18T11:56:20.749Z</time></trkpt><trkpt lat="45.656362" lon="11.0920755"><ele>1386.0</ele><time>2026-04-18T11:56:21.749Z</time></trkpt><trkpt lat="45.6565199" lon="11.0921046"><ele>1386.0</ele><time>2026-04-18T11:56:22.749Z</time></trkpt><trkpt lat="45.6566717" lon="11.0921179"><ele>1386.0</ele><time>2026-04-18T11:56:23.749Z</time></trkpt><trkpt lat="45.6568221" lon="11.0921356"><ele>1386.0</ele><time>2026-04-18T11:56:24.749Z</time></trkpt><trkpt lat="45.6569692" lon="11.092171"><ele>1382.6666666666667</ele><time>2026-04-18T11:56:25.749Z</time></trkpt><trkpt lat="45.657112" lon="11.0922322"><ele>1379.3333333333335</ele><time>2026-04-18T11:56:26.75Z</time></trkpt><trkpt lat="45.6572514" lon="11.0923146"><ele>1376.0</ele><time>2026-04-18T11:56:27.749Z</time></trkpt><trkpt lat="45.6573872" lon="11.0924051"><ele>1378.0</ele><time>2026-04-18T11:56:28.749Z</time></trkpt><trkpt lat="45.6575175" lon="11.0924969"><ele>1380.0</ele><time>2026-04-18T11:56:29.749Z</time></trkpt><trkpt lat="45.6576394" lon="11.0925848"><ele>1382.0</ele><time>2026-04-18T11:56:30.749Z</time></trkpt><trkpt lat="45.6577521" lon="11.0926527"><ele>1384.0</ele><time>2026-04-18T11:56:31.749Z</time></trkpt><trkpt lat="45.6578645" lon="11.0926921"><ele>1384.0</ele><time>2026-04-18T11:56:32.749Z</time></trkpt><trkpt lat="45.6579807" lon="11.0926764"><ele>1384.0</ele><time>2026-04-18T11:56:33.749Z</time></trkpt><trkpt lat="45.6580916" lon="11.0926014"><ele>1384.0</ele><time>2026-04-18T11:56:34.749Z</time></trkpt><trkpt lat="45.6581838" lon="11.0924757"><ele>1384.0</ele><time>2026-04-18T11:56:35.749Z</time></trkpt><trkpt lat="45.6582429" lon="11.0923062"><ele>1384.6666666666665</ele><time>2026-04-18T11:56:36.749Z</time></trkpt><trkpt lat="45.6582614" lon="11.092099"><ele>1385.3333333333333</ele><time>2026-04-18T11:56:37.749Z</time></trkpt><trkpt lat="45.6582401" lon="11.0918603"><ele>1386.0</ele><time>2026-04-18T11:56:38.749Z</time></trkpt><trkpt lat="45.6582011" lon="11.0915713"><ele>1386.0</ele><time>2026-04-18T11:56:39.749Z</time></trkpt><trkpt lat="45.6581716" lon="11.0912709"><ele>1386.0</ele><time>2026-04-18T11:56:40.749Z</time></trkpt><trkpt lat="45.6581382" lon="11.0909478"><ele>1386.0</ele><time>2026-04-18T11:56:41.749Z</time></trkpt><trkpt lat="45.6580989" lon="11.0906245"><ele>1390.5</ele><time>2026-04-18T11:56:42.75Z</time></trkpt><trkpt lat="45.658041" lon="11.0902912"><ele>1395.0</ele><time>2026-04-18T11:56:43.749Z</time></trkpt><trkpt lat="45.6579758" lon="11.0899934"><ele>1397.0</ele><time>2026-04-18T11:56:44.749Z</time></trkpt><trkpt lat="45.6579099" lon="11.0897209"><ele>1399.0</ele><time>2026-04-18T11:56:45.749Z</time></trkpt><trkpt lat="45.6578458" lon="11.0894704"><ele>1401.0</ele><time>2026-04-18T11:56:46.75Z</time></trkpt><trkpt lat="45.6577897" lon="11.0892393"><ele>1397.75</ele><time>2026-04-18T11:56:47.749Z</time></trkpt><trkpt lat="45.6577375" lon="11.0890319"><ele>1394.5</ele><time>2026-04-18T11:56:48.749Z</time></trkpt><trkpt lat="45.657707" lon="11.0888302"><ele>1391.25</ele><time>2026-04-18T11:56:49.749Z</time></trkpt><trkpt lat="45.657707" lon="11.0886191"><ele>1388.0</ele><time>2026-04-18T11:56:50.749Z</time></trkpt><trkpt lat="45.6577409" lon="11.0884057"><ele>1387.3333333333335</ele><time>2026-04-18T11:56:51.749Z</time></trkpt><trkpt lat="45.6577979" lon="11.0882159"><ele>1386.6666666666667</ele><time>2026-04-18T11:56:52.749Z</time></trkpt><trkpt lat="45.6578785" lon="11.0880451"><ele>1386.0</ele><time>2026-04-18T11:56:53.749Z</time></trkpt><trkpt lat="45.657992" lon="11.0878765"><ele>1386.0</ele><time>2026-04-18T11:56:54.749Z</time></trkpt><trkpt lat="45.6581122" lon="11.0877147"><ele>1386.0</ele><time>2026-04-18T11:56:55.749Z</time></trkpt><trkpt lat="45.6582339" lon="11.0875559"><ele>1386.0</ele><time>2026-04-18T11:56:56.749Z</time></trkpt><trkpt lat="45.6583762" lon="11.0873878"><ele>1385.3333333333333</ele><time>2026-04-18T11:56:57.749Z</time></trkpt><trkpt lat="45.6585493" lon="11.087218"><ele>1384.6666666666665</ele><time>2026-04-18T11:56:58.749Z</time></trkpt><trkpt lat="45.6587527" lon="11.0870481"><ele>1384.0</ele><time>2026-04-18T11:56:59.749Z</time></trkpt><trkpt lat="45.658962" lon="11.0868581"><ele>1384.0</ele><time>2026-04-18T11:57:00.749Z</time></trkpt><trkpt lat="45.6591676" lon="11.0866737"><ele>1384.0</ele><time>2026-04-18T11:57:01.749Z</time></trkpt><trkpt lat="45.6593628" lon="11.0865039"><ele>1385.6666666666665</ele><time>2026-04-18T11:57:02.749Z</time></trkpt><trkpt lat="45.6595456" lon="11.0863484"><ele>1387.3333333333333</ele><time>2026-04-18T11:57:03.749Z</time></trkpt><trkpt lat="45.6597155" lon="11.0861984"><ele>1389.0</ele><time>2026-04-18T11:57:04.749Z</time></trkpt><trkpt lat="45.659874" lon="11.0860641"><ele>1389.0</ele><time>2026-04-18T11:57:05.749Z</time></trkpt><trkpt lat="45.6600249" lon="11.0859279"><ele>1389.0</ele><time>2026-04-18T11:57:06.749Z</time></trkpt><trkpt lat="45.6601646" lon="11.0858018"><ele>1389.0</ele><time>2026-04-18T11:57:07.749Z</time></trkpt><trkpt lat="45.6602976" lon="11.0856902"><ele>1389.0</ele><time>2026-04-18T11:57:08.749Z</time></trkpt><trkpt lat="45.6604382" lon="11.0855836"><ele>1389.0</ele><time>2026-04-18T11:57:09.749Z</time></trkpt><trkpt lat="45.6605957" lon="11.0854779"><ele>1389.0</ele><time>2026-04-18T11:57:10.749Z</time></trkpt><trkpt lat="45.6607488" lon="11.0853711"><ele>1389.0</ele><time>2026-04-18T11:57:11.749Z</time></trkpt><trkpt lat="45.6608872" lon="11.0852704"><ele>1389.0</ele><time>2026-04-18T11:57:12.749Z</time></trkpt><trkpt lat="45.6610179" lon="11.0851791"><ele>1389.0</ele><time>2026-04-18T11:57:13.749Z</time></trkpt><trkpt lat="45.6611533" lon="11.0851074"><ele>1389.0</ele><time>2026-04-18T11:57:14.749Z</time></trkpt><trkpt lat="45.661313" lon="11.0850647"><ele>1388.6666666666667</ele><time>2026-04-18T11:57:15.749Z</time></trkpt><trkpt lat="45.6615011" lon="11.085055"><ele>1388.3333333333335</ele><time>2026-04-18T11:57:16.749Z</time></trkpt><trkpt lat="45.6617105" lon="11.085062"><ele>1388.0</ele><time>2026-04-18T11:57:17.749Z</time></trkpt><trkpt lat="45.6619387" lon="11.0850771"><ele>1384.0</ele><time>2026-04-18T11:57:18.749Z</time></trkpt><trkpt lat="45.6621857" lon="11.0851039"><ele>1380.0</ele><time>2026-04-18T11:57:19.749Z</time></trkpt><trkpt lat="45.6624386" lon="11.0851393"><ele>1380.0</ele><time>2026-04-18T11:57:20.749Z</time></trkpt><trkpt lat="45.6627066" lon="11.0851744"><ele>1380.0</ele><time>2026-04-18T11:57:21.749Z</time></trkpt><trkpt lat="45.6629829" lon="11.0852185"><ele>1378.0</ele><time>2026-04-18T11:57:22.749Z</time></trkpt><trkpt lat="45.6632684" lon="11.0852587"><ele>1376.0</ele><time>2026-04-18T11:57:23.749Z</time></trkpt><trkpt lat="45.6635551" lon="11.0853027"><ele>1373.5</ele><time>2026-04-18T11:57:24.749Z</time></trkpt><trkpt lat="45.6638502" lon="11.0853465"><ele>1371.0</ele><time>2026-04-18T11:57:25.749Z</time></trkpt><trkpt lat="45.6641503" lon="11.0853856"><ele>1369.0</ele><time>2026-04-18T11:57:26.749Z</time></trkpt><trkpt lat="45.6644531" lon="11.085432"><ele>1367.0</ele><time>2026-04-18T11:57:27.749Z</time></trkpt><trkpt lat="45.6647553" lon="11.0854798"><ele>1367.0</ele><time>2026-04-18T11:57:28.749Z</time></trkpt><trkpt lat="45.6650601" lon="11.0855276"><ele>1367.0</ele><time>2026-04-18T11:57:29.749Z</time></trkpt><trkpt lat="45.6653538" lon="11.0855717"><ele>1362.5</ele><time>2026-04-18T11:57:30.749Z</time></trkpt><trkpt lat="45.665633" lon="11.0856178"><ele>1358.0</ele><time>2026-04-18T11:57:31.749Z</time></trkpt><trkpt lat="45.6658997" lon="11.0856546"><ele>1355.5</ele><time>2026-04-18T11:57:32.749Z</time></trkpt><trkpt lat="45.6661536" lon="11.0856892"><ele>1353.0</ele><time>2026-04-18T11:57:33.749Z</time></trkpt><trkpt lat="45.6663992" lon="11.085726"><ele>1353.0</ele><time>2026-04-18T11:57:34.749Z</time></trkpt><trkpt lat="45.6666371" lon="11.0857615"><ele>1353.0</ele><time>2026-04-18T11:57:35.749Z</time></trkpt><trkpt lat="45.6668654" lon="11.0857963"><ele>1358.0</ele><time>2026-04-18T11:57:36.749Z</time></trkpt><trkpt lat="45.6670897" lon="11.0858295"><ele>1363.0</ele><time>2026-04-18T11:57:37.749Z</time></trkpt><trkpt lat="45.6673112" lon="11.0858633"><ele>1368.0</ele><time>2026-04-18T11:57:38.749Z</time></trkpt><trkpt lat="45.6675358" lon="11.0858954"><ele>1368.0</ele><time>2026-04-18T11:57:39.749Z</time></trkpt><trkpt lat="45.6677733" lon="11.0859129"><ele>1368.0</ele><time>2026-04-18T11:57:40.749Z</time></trkpt><trkpt lat="45.668026" lon="11.0858984"><ele>1367.5</ele><time>2026-04-18T11:57:41.749Z</time></trkpt><trkpt lat="45.6682657" lon="11.0858635"><ele>1367.0</ele><time>2026-04-18T11:57:42.749Z</time></trkpt><trkpt lat="45.6684908" lon="11.0858349"><ele>1368.3333333333335</ele><time>2026-04-18T11:57:43.749Z</time></trkpt><trkpt lat="45.6687047" lon="11.085811"><ele>1369.6666666666667</ele><time>2026-04-18T11:57:44.75Z</time></trkpt><trkpt lat="45.6689009" lon="11.0857826"><ele>1371.0</ele><time>2026-04-18T11:57:45.749Z</time></trkpt><trkpt lat="45.6690788" lon="11.0857602"><ele>1371.0</ele><time>2026-04-18T11:57:46.749Z</time></trkpt><trkpt lat="45.6692386" lon="11.085743"><ele>1371.0</ele><time>2026-04-18T11:57:47.749Z</time></trkpt><trkpt lat="45.6694067" lon="11.085758"><ele>1371.0</ele><time>2026-04-18T11:57:48.749Z</time></trkpt><trkpt lat="45.6695952" lon="11.0858113"><ele>1371.0</ele><time>2026-04-18T11:57:49.749Z</time></trkpt><trkpt lat="45.6697958" lon="11.0859085"><ele>1371.0</ele><time>2026-04-18T11:57:50.749Z</time></trkpt><trkpt lat="45.670012" lon="11.0860221"><ele>1371.0</ele><time>2026-04-18T11:57:51.749Z</time></trkpt><trkpt lat="45.670242" lon="11.086148"><ele>1373.0</ele><time>2026-04-18T11:57:52.749Z</time></trkpt><trkpt lat="45.6704765" lon="11.0862772"><ele>1375.0</ele><time>2026-04-18T11:57:53.749Z</time></trkpt><trkpt lat="45.6707151" lon="11.0864047"><ele>1375.0</ele><time>2026-04-18T11:57:54.749Z</time></trkpt><trkpt lat="45.6709645" lon="11.0865461"><ele>1375.0</ele><time>2026-04-18T11:57:55.749Z</time></trkpt><trkpt lat="45.6711916" lon="11.0866715"><ele>1377.3333333333333</ele><time>2026-04-18T11:57:56.749Z</time></trkpt><trkpt lat="45.6714049" lon="11.0867755"><ele>1379.6666666666667</ele><time>2026-04-18T11:57:57.749Z</time></trkpt><trkpt lat="45.6716006" lon="11.0868588"><ele>1382.0</ele><time>2026-04-18T11:57:58.749Z</time></trkpt><trkpt lat="45.6717941" lon="11.0869296"><ele>1381.6666666666667</ele><time>2026-04-18T11:57:59.749Z</time></trkpt><trkpt lat="45.6719768" lon="11.0869946"><ele>1381.3333333333333</ele><time>2026-04-18T11:58:00.749Z</time></trkpt><trkpt lat="45.6721408" lon="11.0870519"><ele>1381.0</ele><time>2026-04-18T11:58:01.749Z</time></trkpt><trkpt lat="45.6722975" lon="11.0871137"><ele>1381.0</ele><time>2026-04-18T11:58:02.749Z</time></trkpt><trkpt lat="45.6724378" lon="11.0872028"><ele>1381.0</ele><time>2026-04-18T11:58:03.749Z</time></trkpt><trkpt lat="45.6725681" lon="11.0873392"><ele>1381.0</ele><time>2026-04-18T11:58:04.749Z</time></trkpt><trkpt lat="45.6726834" lon="11.0875333"><ele>1384.75</ele><time>2026-04-18T11:58:05.749Z</time></trkpt><trkpt lat="45.6727732" lon="11.08773"><ele>1388.5</ele><time>2026-04-18T11:58:06.749Z</time></trkpt><trkpt lat="45.6728523" lon="11.0879025"><ele>1392.25</ele><time>2026-04-18T11:58:07.749Z</time></trkpt><trkpt lat="45.6729438" lon="11.0880361"><ele>1396.0</ele><time>2026-04-18T11:58:08.749Z</time></trkpt><trkpt lat="45.6730427" lon="11.0881264"><ele>1396.0</ele><time>2026-04-18T11:58:09.749Z</time></trkpt><trkpt lat="45.6731733" lon="11.08818"><ele>1396.0</ele><time>2026-04-18T11:58:10.749Z</time></trkpt><trkpt lat="45.6733233" lon="11.0881991"><ele>1396.0</ele><time>2026-04-18T11:58:11.749Z</time></trkpt><trkpt lat="45.673482" lon="11.0882088"><ele>1396.0</ele><time>2026-04-18T11:58:12.749Z</time></trkpt><trkpt lat="45.6736213" lon="11.0882025"><ele>1398.6666666666665</ele><time>2026-04-18T11:58:13.749Z</time></trkpt><trkpt lat="45.6737655" lon="11.0882036"><ele>1401.3333333333333</ele><time>2026-04-18T11:58:14.749Z</time></trkpt><trkpt lat="45.6739233" lon="11.0882376"><ele>1404.0</ele><time>2026-04-18T11:58:15.749Z</time></trkpt><trkpt lat="45.6740876" lon="11.0883003"><ele>1407.6666666666667</ele><time>2026-04-18T11:58:16.749Z</time></trkpt><trkpt lat="45.6742679" lon="11.0883863"><ele>1411.3333333333335</ele><time>2026-04-18T11:58:17.749Z</time></trkpt><trkpt lat="45.6744553" lon="11.0884977"><ele>1415.0</ele><time>2026-04-18T11:58:18.749Z</time></trkpt><trkpt lat="45.6746565" lon="11.0886391"><ele>1415.5</ele><time>2026-04-18T11:58:19.75Z</time></trkpt><trkpt lat="45.6748692" lon="11.0887854"><ele>1416.0</ele><time>2026-04-18T11:58:20.749Z</time></trkpt><trkpt lat="45.6750819" lon="11.0889227"><ele>1415.3333333333333</ele><time>2026-04-18T11:58:21.749Z</time></trkpt><trkpt lat="45.6752714" lon="11.0890505"><ele>1414.6666666666665</ele><time>2026-04-18T11:58:22.749Z</time></trkpt><trkpt lat="45.6754475" lon="11.0891646"><ele>1414.0</ele><time>2026-04-18T11:58:23.749Z</time></trkpt><trkpt lat="45.6756133" lon="11.0892492"><ele>1418.6666666666665</ele><time>2026-04-18T11:58:24.749Z</time></trkpt><trkpt lat="45.6757934" lon="11.0892956"><ele>1423.3333333333333</ele><time>2026-04-18T11:58:25.749Z</time></trkpt><trkpt lat="45.6759924" lon="11.0892944"><ele>1428.0</ele><time>2026-04-18T11:58:26.749Z</time></trkpt><trkpt lat="45.6761814" lon="11.0892638"><ele>1429.6666666666667</ele><time>2026-04-18T11:58:27.749Z</time></trkpt><trkpt lat="45.6763533" lon="11.0892346"><ele>1431.3333333333335</ele><time>2026-04-18T11:58:28.749Z</time></trkpt><trkpt lat="45.6765136" lon="11.0892159"><ele>1433.0</ele><time>2026-04-18T11:58:29.749Z</time></trkpt><trkpt lat="45.6766736" lon="11.0892076"><ele>1433.0</ele><time>2026-04-18T11:58:30.749Z</time></trkpt><trkpt lat="45.6768536" lon="11.0892284"><ele>1433.0</ele><time>2026-04-18T11:58:31.749Z</time></trkpt><trkpt lat="45.6770563" lon="11.0892828"><ele>1433.0</ele><time>2026-04-18T11:58:32.749Z</time></trkpt><trkpt lat="45.6772757" lon="11.0893646"><ele>1433.6666666666667</ele><time>2026-04-18T11:58:33.749Z</time></trkpt><trkpt lat="45.67749" lon="11.0894445"><ele>1434.3333333333333</ele><time>2026-04-18T11:58:34.749Z</time></trkpt><trkpt lat="45.6776851" lon="11.0895181"><ele>1435.0</ele><time>2026-04-18T11:58:35.749Z</time></trkpt><trkpt lat="45.6778648" lon="11.0895821"><ele>1436.3333333333333</ele><time>2026-04-18T11:58:36.749Z</time></trkpt><trkpt lat="45.6780285" lon="11.0896415"><ele>1437.6666666666667</ele><time>2026-04-18T11:58:37.75Z</time></trkpt><trkpt lat="45.6781922" lon="11.0896851"><ele>1439.0</ele><time>2026-04-18T11:58:38.749Z</time></trkpt><trkpt lat="45.6783667" lon="11.0896955"><ele>1439.0</ele><time>2026-04-18T11:58:39.749Z</time></trkpt><trkpt lat="45.6785538" lon="11.089657"><ele>1439.0</ele><time>2026-04-18T11:58:40.749Z</time></trkpt><trkpt lat="45.6787564" lon="11.0895724"><ele>1439.0</ele><time>2026-04-18T11:58:41.749Z</time></trkpt><trkpt lat="45.6789747" lon="11.0894397"><ele>1443.0</ele><time>2026-04-18T11:58:42.749Z</time></trkpt><trkpt lat="45.6792141" lon="11.089293"><ele>1447.0</ele><time>2026-04-18T11:58:43.749Z</time></trkpt><trkpt lat="45.6794576" lon="11.0891171"><ele>1448.5</ele><time>2026-04-18T11:58:44.749Z</time></trkpt><trkpt lat="45.6797082" lon="11.0889342"><ele>1450.0</ele><time>2026-04-18T11:58:45.749Z</time></trkpt><trkpt lat="45.6799492" lon="11.0887846"><ele>1450.0</ele><time>2026-04-18T11:58:46.749Z</time></trkpt><trkpt lat="45.6801757" lon="11.0886592"><ele>1450.0</ele><time>2026-04-18T11:58:47.749Z</time></trkpt><trkpt lat="45.6803928" lon="11.0885446"><ele>1451.6666666666665</ele><time>2026-04-18T11:58:48.749Z</time></trkpt><trkpt lat="45.6806085" lon="11.0884323"><ele>1453.3333333333333</ele><time>2026-04-18T11:58:49.749Z</time></trkpt><trkpt lat="45.6808135" lon="11.0883252"><ele>1455.0</ele><time>2026-04-18T11:58:50.749Z</time></trkpt><trkpt lat="45.681025" lon="11.0882177"><ele>1458.0</ele><time>2026-04-18T11:58:51.749Z</time></trkpt><trkpt lat="45.6812291" lon="11.0881187"><ele>1461.0</ele><time>2026-04-18T11:58:52.749Z</time></trkpt><trkpt lat="45.6814099" lon="11.0880326"><ele>1464.0</ele><time>2026-04-18T11:58:53.749Z</time></trkpt><trkpt lat="45.6815808" lon="11.0879481"><ele>1464.0</ele><time>2026-04-18T11:58:54.749Z</time></trkpt><trkpt lat="45.6817531" lon="11.087848"><ele>1464.0</ele><time>2026-04-18T11:58:55.749Z</time></trkpt><trkpt lat="45.6819293" lon="11.0877158"><ele>1464.0</ele><time>2026-04-18T11:58:56.749Z</time></trkpt><trkpt lat="45.6821004" lon="11.0875318"><ele>1465.0</ele><time>2026-04-18T11:58:57.749Z</time></trkpt><trkpt lat="45.6822716" lon="11.087321"><ele>1466.0</ele><time>2026-04-18T11:58:58.749Z</time></trkpt><trkpt lat="45.6824335" lon="11.0871276"><ele>1467.0</ele><time>2026-04-18T11:58:59.749Z</time></trkpt><trkpt lat="45.682587" lon="11.086946"><ele>1467.0</ele><time>2026-04-18T11:59:00.749Z</time></trkpt><trkpt lat="45.6827289" lon="11.0867707"><ele>1467.0</ele><time>2026-04-18T11:59:01.749Z</time></trkpt><trkpt lat="45.6828705" lon="11.0865722"><ele>1467.0</ele><time>2026-04-18T11:59:02.749Z</time></trkpt><trkpt lat="45.6830034" lon="11.0863342"><ele>1468.6666666666667</ele><time>2026-04-18T11:59:03.75Z</time></trkpt><trkpt lat="45.6831336" lon="11.0860681"><ele>1470.3333333333335</ele><time>2026-04-18T11:59:04.749Z</time></trkpt><trkpt lat="45.6832536" lon="11.0858154"><ele>1472.0</ele><time>2026-04-18T11:59:05.749Z</time></trkpt><trkpt lat="45.6833607" lon="11.0855825"><ele>1475.3333333333335</ele><time>2026-04-18T11:59:06.749Z</time></trkpt><trkpt lat="45.6834537" lon="11.0853793"><ele>1478.6666666666667</ele><time>2026-04-18T11:59:07.749Z</time></trkpt><trkpt lat="45.6835405" lon="11.0852028"><ele>1482.0</ele><time>2026-04-18T11:59:08.749Z</time></trkpt><trkpt lat="45.6836303" lon="11.0850397"><ele>1488.3333333333333</ele><time>2026-04-18T11:59:09.749Z</time></trkpt><trkpt lat="45.6837499" lon="11.0848816"><ele>1494.6666666666665</ele><time>2026-04-18T11:59:10.749Z</time></trkpt><trkpt lat="45.6839003" lon="11.0847355"><ele>1501.0</ele><time>2026-04-18T11:59:11.749Z</time></trkpt><trkpt lat="45.6840749" lon="11.0845979"><ele>1501.0</ele><time>2026-04-18T11:59:12.749Z</time></trkpt><trkpt lat="45.6842405" lon="11.0844802"><ele>1501.0</ele><time>2026-04-18T11:59:13.749Z</time></trkpt><trkpt lat="45.6843845" lon="11.0843842"><ele>1501.0</ele><time>2026-04-18T11:59:14.749Z</time></trkpt><trkpt lat="45.6844901" lon="11.0843151"><ele>1501.0</ele><time>2026-04-18T11:59:15.749Z</time></trkpt><trkpt lat="45.6845762" lon="11.0842673"><ele>1501.0</ele><time>2026-04-18T11:59:16.749Z</time></trkpt><trkpt lat="45.6846451" lon="11.0842541"><ele>1501.0</ele><time>2026-04-18T11:59:17.749Z</time></trkpt><trkpt lat="45.6847241" lon="11.0842607"><ele>1501.0</ele><time>2026-04-18T11:59:19.749Z</time></trkpt><trkpt lat="45.6848392" lon="11.0842142"><ele>1501.0</ele><time>2026-04-18T11:59:39.749Z</time></trkpt><trkpt lat="45.6849041" lon="11.0841533"><ele>1501.0</ele><time>2026-04-18T11:59:40.749Z</time></trkpt><trkpt lat="45.6849673" lon="11.0840838"><ele>1501.1999999999998</ele><time>2026-04-18T11:59:41.749Z</time></trkpt><trkpt lat="45.6850348" lon="11.0840056"><ele>1501.3999999999999</ele><time>2026-04-18T11:59:42.749Z</time></trkpt><trkpt lat="45.6850982" lon="11.0839317"><ele>1501.6</ele><time>2026-04-18T11:59:43.749Z</time></trkpt><trkpt lat="45.6851712" lon="11.0838431"><ele>1501.8</ele><time>2026-04-18T11:59:44.749Z</time></trkpt><trkpt lat="45.6852507" lon="11.0837433"><ele>1502.0</ele><time>2026-04-18T11:59:45.749Z</time></trkpt><trkpt lat="45.6853289" lon="11.0836397"><ele>1502.0</ele><time>2026-04-18T11:59:46.75Z</time></trkpt><trkpt lat="45.6854046" lon="11.0835292"><ele>1502.0</ele><time>2026-04-18T11:59:47.749Z</time></trkpt><trkpt lat="45.6854776" lon="11.0834145"><ele>1502.0</ele><time>2026-04-18T11:59:48.749Z</time></trkpt><trkpt lat="45.6855448" lon="11.0832945"><ele>1502.0</ele><time>2026-04-18T11:59:49.749Z</time></trkpt><trkpt lat="45.6856064" lon="11.0831817"><ele>1502.0</ele><time>2026-04-18T11:59:50.749Z</time></trkpt><trkpt lat="45.6856605" lon="11.0830757"><ele>1503.0</ele><time>2026-04-18T11:59:51.749Z</time></trkpt><trkpt lat="45.6857079" lon="11.0829704"><ele>1504.0</ele><time>2026-04-18T11:59:52.749Z</time></trkpt><trkpt lat="45.6857496" lon="11.0828741"><ele>1505.0</ele><time>2026-04-18T11:59:53.75Z</time></trkpt><trkpt lat="45.685793" lon="11.0827755"><ele>1506.0</ele><time>2026-04-18T11:59:54.749Z</time></trkpt><trkpt lat="45.6858317" lon="11.0826672"><ele>1507.0</ele><time>2026-04-18T11:59:55.749Z</time></trkpt><trkpt lat="45.6858665" lon="11.0825572"><ele>1508.0</ele><time>2026-04-18T11:59:56.749Z</time></trkpt><trkpt lat="45.6858983" lon="11.0824413"><ele>1509.0</ele><time>2026-04-18T11:59:57.749Z</time></trkpt><trkpt lat="45.6859215" lon="11.0823103"><ele>1510.0</ele><time>2026-04-18T11:59:58.749Z</time></trkpt><trkpt lat="45.685937" lon="11.0821813"><ele>1511.0</ele><time>2026-04-18T11:59:59.75Z</time></trkpt><trkpt lat="45.6859447" lon="11.0820511"><ele>1512.0</ele><time>2026-04-18T12:00:00.749Z</time></trkpt><trkpt lat="45.6859407" lon="11.0819161"><ele>1513.0</ele><time>2026-04-18T12:00:01.749Z</time></trkpt><trkpt lat="45.6859231" lon="11.0817831"><ele>1513.0</ele><time>2026-04-18T12:00:02.749Z</time></trkpt><trkpt lat="45.6858991" lon="11.0816443"><ele>1513.0</ele><time>2026-04-18T12:00:03.749Z</time></trkpt><trkpt lat="45.6858736" lon="11.081503"><ele>1513.0</ele><time>2026-04-18T12:00:04.749Z</time></trkpt><trkpt lat="45.6858438" lon="11.0813572"><ele>1513.0</ele><time>2026-04-18T12:00:05.75Z</time></trkpt><trkpt lat="45.6858204" lon="11.0812106"><ele>1513.0</ele><time>2026-04-18T12:00:06.749Z</time></trkpt><trkpt lat="45.6857973" lon="11.0810598"><ele>1514.0</ele><time>2026-04-18T12:00:07.749Z</time></trkpt><trkpt lat="45.6857841" lon="11.0809006"><ele>1515.0</ele><time>2026-04-18T12:00:08.749Z</time></trkpt><trkpt lat="45.6857825" lon="11.0807434"><ele>1516.0</ele><time>2026-04-18T12:00:09.749Z</time></trkpt><trkpt lat="45.6857959" lon="11.0805856"><ele>1517.0</ele><time>2026-04-18T12:00:10.749Z</time></trkpt><trkpt lat="45.6858283" lon="11.0804266"><ele>1518.0</ele><time>2026-04-18T12:00:11.749Z</time></trkpt><trkpt lat="45.6858922" lon="11.0802664"><ele>1519.0</ele><time>2026-04-18T12:00:12.749Z</time></trkpt><trkpt lat="45.6859913" lon="11.0801133"><ele>1520.0</ele><time>2026-04-18T12:00:13.749Z</time></trkpt><trkpt lat="45.6861284" lon="11.0799631"><ele>1521.0</ele><time>2026-04-18T12:00:14.749Z</time></trkpt><trkpt lat="45.6862925" lon="11.0798123"><ele>1524.6666666666667</ele><time>2026-04-18T12:00:15.749Z</time></trkpt><trkpt lat="45.6864758" lon="11.0796504"><ele>1528.3333333333335</ele><time>2026-04-18T12:00:16.749Z</time></trkpt><trkpt lat="45.6866454" lon="11.0795051"><ele>1532.0</ele><time>2026-04-18T12:00:17.749Z</time></trkpt><trkpt lat="45.6867976" lon="11.0793771"><ele>1531.75</ele><time>2026-04-18T12:00:18.749Z</time></trkpt><trkpt lat="45.6869345" lon="11.0792621"><ele>1531.5</ele><time>2026-04-18T12:00:19.749Z</time></trkpt><trkpt lat="45.6870498" lon="11.0791612"><ele>1531.25</ele><time>2026-04-18T12:00:20.749Z</time></trkpt><trkpt lat="45.6871519" lon="11.079071"><ele>1531.0</ele><time>2026-04-18T12:00:21.749Z</time></trkpt><trkpt lat="45.6872543" lon="11.078987"><ele>1533.25</ele><time>2026-04-18T12:00:22.749Z</time></trkpt><trkpt lat="45.6873574" lon="11.0788779"><ele>1535.5</ele><time>2026-04-18T12:00:23.749Z</time></trkpt><trkpt lat="45.6874577" lon="11.0787303"><ele>1537.75</ele><time>2026-04-18T12:00:24.749Z</time></trkpt><trkpt lat="45.6875411" lon="11.07854"><ele>1540.0</ele><time>2026-04-18T12:00:25.749Z</time></trkpt><trkpt lat="45.6875987" lon="11.078326"><ele>1540.3333333333335</ele><time>2026-04-18T12:00:26.749Z</time></trkpt><trkpt lat="45.6876289" lon="11.0780911"><ele>1540.6666666666665</ele><time>2026-04-18T12:00:27.749Z</time></trkpt><trkpt lat="45.6876325" lon="11.077866"><ele>1541.0</ele><time>2026-04-18T12:00:28.749Z</time></trkpt><trkpt lat="45.6876059" lon="11.0776397"><ele>1541.75</ele><time>2026-04-18T12:00:29.749Z</time></trkpt><trkpt lat="45.6875512" lon="11.0774303"><ele>1542.5</ele><time>2026-04-18T12:00:30.749Z</time></trkpt><trkpt lat="45.6874782" lon="11.0772598"><ele>1543.25</ele><time>2026-04-18T12:00:31.749Z</time></trkpt><trkpt lat="45.6873891" lon="11.0771219"><ele>1544.0</ele><time>2026-04-18T12:00:32.749Z</time></trkpt><trkpt lat="45.6872933" lon="11.0770128"><ele>1544.0</ele><time>2026-04-18T12:00:33.749Z</time></trkpt><trkpt lat="45.6872104" lon="11.0769306"><ele>1544.0</ele><time>2026-04-18T12:00:34.749Z</time></trkpt><trkpt lat="45.6871425" lon="11.0768721"><ele>1544.0</ele><time>2026-04-18T12:00:35.749Z</time></trkpt><trkpt lat="45.6870545" lon="11.0767985"><ele>1544.0</ele><time>2026-04-18T12:00:37.749Z</time></trkpt><trkpt lat="45.6869865" lon="11.0767489"><ele>1544.0</ele><time>2026-04-18T12:01:00.749Z</time></trkpt><trkpt lat="45.6870718" lon="11.0768635"><ele>1543.9999999999998</ele><time>2026-04-18T12:01:06.75Z</time></trkpt><trkpt lat="45.6871551" lon="11.0769467"><ele>1544.0</ele><time>2026-04-18T12:01:08.749Z</time></trkpt><trkpt lat="45.6871914" lon="11.0770338"><ele>1544.0</ele><time>2026-04-18T12:01:10.749Z</time></trkpt><trkpt lat="45.6871847" lon="11.0771475"><ele>1544.0</ele><time>2026-04-18T12:01:12.749Z</time></trkpt><trkpt lat="45.6871295" lon="11.0772814"><ele>1543.9999999999998</ele><time>2026-04-18T12:01:14.749Z</time></trkpt><trkpt lat="45.6870785" lon="11.0773491"><ele>1544.0</ele><time>2026-04-18T12:01:15.749Z</time></trkpt><trkpt lat="45.6870099" lon="11.0774328"><ele>1543.4</ele><time>2026-04-18T12:01:16.749Z</time></trkpt><trkpt lat="45.6869357" lon="11.0775181"><ele>1542.8000000000002</ele><time>2026-04-18T12:01:17.749Z</time></trkpt><trkpt lat="45.6868639" lon="11.0775836"><ele>1542.1999999999998</ele><time>2026-04-18T12:01:18.749Z</time></trkpt><trkpt lat="45.6867821" lon="11.0776454"><ele>1541.6</ele><time>2026-04-18T12:01:19.749Z</time></trkpt><trkpt lat="45.68668" lon="11.0777011"><ele>1541.0</ele><time>2026-04-18T12:01:20.749Z</time></trkpt><trkpt lat="45.6865769" lon="11.0777448"><ele>1541.0</ele><time>2026-04-18T12:01:21.749Z</time></trkpt><trkpt lat="45.6864778" lon="11.077774"><ele>1541.0</ele><time>2026-04-18T12:01:22.749Z</time></trkpt><trkpt lat="45.6863799" lon="11.0777882"><ele>1541.0</ele><time>2026-04-18T12:01:23.749Z</time></trkpt><trkpt lat="45.6862823" lon="11.0778043"><ele>1541.0</ele><time>2026-04-18T12:01:24.75Z</time></trkpt><trkpt lat="45.6861975" lon="11.0778267"><ele>1541.0</ele><time>2026-04-18T12:01:25.749Z</time></trkpt><trkpt lat="45.6861209" lon="11.07785"><ele>1540.8333333333333</ele><time>2026-04-18T12:01:26.749Z</time></trkpt><trkpt lat="45.6860543" lon="11.0778757"><ele>1540.6666666666665</ele><time>2026-04-18T12:01:27.749Z</time></trkpt><trkpt lat="45.685991" lon="11.0778908"><ele>1540.5</ele><time>2026-04-18T12:01:28.749Z</time></trkpt><trkpt lat="45.685883" lon="11.0779056"><ele>1540.3333333333335</ele><time>2026-04-18T12:01:30.749Z</time></trkpt><trkpt lat="45.6857918" lon="11.0778996"><ele>1540.1666666666667</ele><time>2026-04-18T12:01:32.75Z</time></trkpt><trkpt lat="45.685713" lon="11.077879"><ele>1540.0</ele><time>2026-04-18T12:01:34.749Z</time></trkpt><trkpt lat="45.6856597" lon="11.0777993"><ele>1540.0</ele><time>2026-04-18T12:01:37.749Z</time></trkpt><trkpt lat="45.6855963" lon="11.0777953"><ele>1540.0</ele><time>2026-04-18T12:03:10.749Z</time></trkpt><trkpt lat="45.6855293" lon="11.0778034"><ele>1540.0</ele><time>2026-04-18T12:03:21.749Z</time></trkpt><trkpt lat="45.6854652" lon="11.0778136"><ele>1540.0</ele><time>2026-04-18T12:03:34.749Z</time></trkpt></trkseg><trkseg><trkpt lat="45.6856838" lon="11.0777142"><ele>1540.0</ele><time>2026-04-18T13:23:07.735Z</time></trkpt><trkpt lat="45.6856147" lon="11.0777235"><ele>1540.0</ele><time>2026-04-18T13:24:00.735Z</time></trkpt><trkpt lat="45.6856525" lon="11.077832"><ele>1540.0</ele><time>2026-04-18T13:24:03.735Z</time></trkpt><trkpt lat="45.6857554" lon="11.0778723"><ele>1540.0</ele><time>2026-04-18T13:24:05.735Z</time></trkpt><trkpt lat="45.6858642" lon="11.0778957"><ele>1540.0</ele><time>2026-04-18T13:24:07.735Z</time></trkpt><trkpt lat="45.6859799" lon="11.0778732"><ele>1540.0</ele><time>2026-04-18T13:24:09.735Z</time></trkpt><trkpt lat="45.6860514" lon="11.0778698"><ele>1540.0</ele><time>2026-04-18T13:24:10.735Z</time></trkpt><trkpt lat="45.6861489" lon="11.0778531"><ele>1540.0</ele><time>2026-04-18T13:24:11.735Z</time></trkpt><trkpt lat="45.6862682" lon="11.0778287"><ele>1540.0</ele><time>2026-04-18T13:24:12.735Z</time></trkpt><trkpt lat="45.6863922" lon="11.0778127"><ele>1540.0</ele><time>2026-04-18T13:24:13.735Z</time></trkpt><trkpt lat="45.6864984" lon="11.0777911"><ele>1540.2</ele><time>2026-04-18T13:24:14.735Z</time></trkpt><trkpt lat="45.6865835" lon="11.0777695"><ele>1540.4</ele><time>2026-04-18T13:24:15.735Z</time></trkpt><trkpt lat="45.6866516" lon="11.0777485"><ele>1540.6</ele><time>2026-04-18T13:24:16.735Z</time></trkpt><trkpt lat="45.686765" lon="11.0776831"><ele>1540.8</ele><time>2026-04-18T13:24:18.735Z</time></trkpt><trkpt lat="45.6868331" lon="11.0776237"><ele>1541.0</ele><time>2026-04-18T13:24:19.735Z</time></trkpt><trkpt lat="45.6869132" lon="11.0775483"><ele>1540.9999999999998</ele><time>2026-04-18T13:24:20.736Z</time></trkpt><trkpt lat="45.6869857" lon="11.0774815"><ele>1541.0</ele><time>2026-04-18T13:24:21.735Z</time></trkpt><trkpt lat="45.6870463" lon="11.0774129"><ele>1541.0</ele><time>2026-04-18T13:24:22.735Z</time></trkpt><trkpt lat="45.6870998" lon="11.0773514"><ele>1541.0</ele><time>2026-04-18T13:24:23.735Z</time></trkpt><trkpt lat="45.687153" lon="11.0772974"><ele>1540.9999999999998</ele><time>2026-04-18T13:24:24.735Z</time></trkpt><trkpt lat="45.6872047" lon="11.0772009"><ele>1541.0</ele><time>2026-04-18T13:24:26.735Z</time></trkpt><trkpt lat="45.6872186" lon="11.0771045"><ele>1541.4</ele><time>2026-04-18T13:24:28.735Z</time></trkpt><trkpt lat="45.6872263" lon="11.0770022"><ele>1541.8</ele><time>2026-04-18T13:25:19.735Z</time></trkpt><trkpt lat="45.6871536" lon="11.0768873"><ele>1542.2</ele><time>2026-04-18T13:25:21.735Z</time></trkpt><trkpt lat="45.6870768" lon="11.0768173"><ele>1542.6000000000001</ele><time>2026-04-18T13:25:22.735Z</time></trkpt><trkpt lat="45.6869865" lon="11.0767425"><ele>1543.0</ele><time>2026-04-18T13:25:23.735Z</time></trkpt><trkpt lat="45.6868791" lon="11.0766627"><ele>1546.3333333333335</ele><time>2026-04-18T13:25:24.736Z</time></trkpt><trkpt lat="45.6867514" lon="11.0765755"><ele>1549.6666666666665</ele><time>2026-04-18T13:25:25.735Z</time></trkpt><trkpt lat="45.6866168" lon="11.0764757"><ele>1553.0</ele><time>2026-04-18T13:25:26.735Z</time></trkpt><trkpt lat="45.6864788" lon="11.0763701"><ele>1553.0</ele><time>2026-04-18T13:25:27.735Z</time></trkpt><trkpt lat="45.6863322" lon="11.0762593"><ele>1553.0</ele><time>2026-04-18T13:25:28.736Z</time></trkpt><trkpt lat="45.6861784" lon="11.0761424"><ele>1553.0</ele><time>2026-04-18T13:25:29.735Z</time></trkpt><trkpt lat="45.6860184" lon="11.0760207"><ele>1552.3333333333333</ele><time>2026-04-18T13:25:30.735Z</time></trkpt><trkpt lat="45.6858504" lon="11.0758981"><ele>1551.6666666666665</ele><time>2026-04-18T13:25:31.735Z</time></trkpt><trkpt lat="45.6856773" lon="11.0757715"><ele>1551.0</ele><time>2026-04-18T13:25:32.736Z</time></trkpt><trkpt lat="45.6855036" lon="11.0756415"><ele>1554.0</ele><time>2026-04-18T13:25:33.735Z</time></trkpt><trkpt lat="45.6853294" lon="11.0755105"><ele>1557.0</ele><time>2026-04-18T13:25:34.736Z</time></trkpt><trkpt lat="45.685144" lon="11.0753758"><ele>1560.0</ele><time>2026-04-18T13:25:35.735Z</time></trkpt><trkpt lat="45.6849461" lon="11.0752318"><ele>1560.0</ele><time>2026-04-18T13:25:36.735Z</time></trkpt><trkpt lat="45.6847419" lon="11.0750807"><ele>1560.0</ele><time>2026-04-18T13:25:37.735Z</time></trkpt><trkpt lat="45.6845264" lon="11.074929"><ele>1563.0</ele><time>2026-04-18T13:25:38.735Z</time></trkpt><trkpt lat="45.6843057" lon="11.0747707"><ele>1566.0</ele><time>2026-04-18T13:25:39.735Z</time></trkpt><trkpt lat="45.6840827" lon="11.0746089"><ele>1566.0</ele><time>2026-04-18T13:25:40.735Z</time></trkpt><trkpt lat="45.6838668" lon="11.0744472"><ele>1566.0</ele><time>2026-04-18T13:25:41.735Z</time></trkpt><trkpt lat="45.6836616" lon="11.0742974"><ele>1558.5</ele><time>2026-04-18T13:25:42.735Z</time></trkpt><trkpt lat="45.683452" lon="11.074148"><ele>1551.0</ele><time>2026-04-18T13:25:43.735Z</time></trkpt><trkpt lat="45.6832348" lon="11.0739864"><ele>1551.0</ele><time>2026-04-18T13:25:44.735Z</time></trkpt><trkpt lat="45.6830261" lon="11.0738227"><ele>1551.0</ele><time>2026-04-18T13:25:45.735Z</time></trkpt><trkpt lat="45.6828174" lon="11.0736684"><ele>1551.0</ele><time>2026-04-18T13:25:46.735Z</time></trkpt><trkpt lat="45.6826067" lon="11.0735151"><ele>1551.0</ele><time>2026-04-18T13:25:47.735Z</time></trkpt><trkpt lat="45.6824123" lon="11.0733772"><ele>1556.6666666666665</ele><time>2026-04-18T13:25:48.735Z</time></trkpt><trkpt lat="45.6822439" lon="11.0732549"><ele>1562.3333333333333</ele><time>2026-04-18T13:25:49.735Z</time></trkpt><trkpt lat="45.6820925" lon="11.0731469"><ele>1568.0</ele><time>2026-04-18T13:25:50.735Z</time></trkpt><trkpt lat="45.6819589" lon="11.0730464"><ele>1566.25</ele><time>2026-04-18T13:25:51.735Z</time></trkpt><trkpt lat="45.6818408" lon="11.0729473"><ele>1564.5</ele><time>2026-04-18T13:25:52.735Z</time></trkpt><trkpt lat="45.6817361" lon="11.0728308"><ele>1562.75</ele><time>2026-04-18T13:25:53.735Z</time></trkpt><trkpt lat="45.6816495" lon="11.0726864"><ele>1561.0</ele><time>2026-04-18T13:25:54.735Z</time></trkpt><trkpt lat="45.6815775" lon="11.072513"><ele>1564.6666666666667</ele><time>2026-04-18T13:25:55.735Z</time></trkpt><trkpt lat="45.6815246" lon="11.0723246"><ele>1568.3333333333335</ele><time>2026-04-18T13:25:56.735Z</time></trkpt><trkpt lat="45.6814904" lon="11.0721128"><ele>1572.0</ele><time>2026-04-18T13:25:57.735Z</time></trkpt><trkpt lat="45.6814725" lon="11.0718738"><ele>1573.0</ele><time>2026-04-18T13:25:58.735Z</time></trkpt><trkpt lat="45.6814717" lon="11.0716061"><ele>1574.0</ele><time>2026-04-18T13:25:59.735Z</time></trkpt><trkpt lat="45.681474" lon="11.0713201"><ele>1575.0</ele><time>2026-04-18T13:26:00.735Z</time></trkpt><trkpt lat="45.6814802" lon="11.0710312"><ele>1576.0</ele><time>2026-04-18T13:26:01.735Z</time></trkpt><trkpt lat="45.6814851" lon="11.0707636"><ele>1577.0</ele><time>2026-04-18T13:26:02.735Z</time></trkpt><trkpt lat="45.681486" lon="11.0705239"><ele>1578.0</ele><time>2026-04-18T13:26:03.735Z</time></trkpt><trkpt lat="45.6814912" lon="11.0702923"><ele>1578.0</ele><time>2026-04-18T13:26:04.735Z</time></trkpt><trkpt lat="45.6814961" lon="11.0700578"><ele>1578.0</ele><time>2026-04-18T13:26:05.735Z</time></trkpt><trkpt lat="45.681502" lon="11.0698531"><ele>1578.0</ele><time>2026-04-18T13:26:06.735Z</time></trkpt><trkpt lat="45.6815003" lon="11.0696636"><ele>1578.0</ele><time>2026-04-18T13:26:07.735Z</time></trkpt><trkpt lat="45.6814951" lon="11.0694873"><ele>1578.6000000000001</ele><time>2026-04-18T13:26:08.735Z</time></trkpt><trkpt lat="45.6814781" lon="11.0693316"><ele>1579.2</ele><time>2026-04-18T13:26:09.735Z</time></trkpt><trkpt lat="45.6814334" lon="11.0691928"><ele>1579.8</ele><time>2026-04-18T13:26:10.735Z</time></trkpt><trkpt lat="45.6813671" lon="11.0690837"><ele>1580.4</ele><time>2026-04-18T13:26:11.735Z</time></trkpt><trkpt lat="45.6812828" lon="11.0690168"><ele>1581.0</ele><time>2026-04-18T13:26:12.735Z</time></trkpt><trkpt lat="45.6811833" lon="11.0689881"><ele>1580.75</ele><time>2026-04-18T13:26:13.735Z</time></trkpt><trkpt lat="45.6810755" lon="11.0690043"><ele>1580.5</ele><time>2026-04-18T13:26:14.735Z</time></trkpt><trkpt lat="45.680956" lon="11.0690638"><ele>1580.25</ele><time>2026-04-18T13:26:15.735Z</time></trkpt><trkpt lat="45.6808313" lon="11.069167"><ele>1580.0</ele><time>2026-04-18T13:26:16.735Z</time></trkpt><trkpt lat="45.6807215" lon="11.0692713"><ele>1579.9999999999998</ele><time>2026-04-18T13:26:17.735Z</time></trkpt><trkpt lat="45.6806239" lon="11.0693648"><ele>1580.0</ele><time>2026-04-18T13:26:18.735Z</time></trkpt><trkpt lat="45.680544" lon="11.0694398"><ele>1580.0</ele><time>2026-04-18T13:26:19.735Z</time></trkpt><trkpt lat="45.6804839" lon="11.0694935"><ele>1580.0</ele><time>2026-04-18T13:26:20.735Z</time></trkpt><trkpt lat="45.6804092" lon="11.0695488"><ele>1579.9999999999998</ele><time>2026-04-18T13:26:22.735Z</time></trkpt><trkpt lat="45.6803936" lon="11.0694396"><ele>1580.0</ele><time>2026-04-18T13:26:26.736Z</time></trkpt><trkpt lat="45.6804581" lon="11.069358"><ele>1579.9999999999998</ele><time>2026-04-18T13:26:28.735Z</time></trkpt><trkpt lat="45.6805248" lon="11.0692998"><ele>1580.0</ele><time>2026-04-18T13:26:29.735Z</time></trkpt><trkpt lat="45.6805771" lon="11.0692484"><ele>1580.0</ele><time>2026-04-18T13:26:30.735Z</time></trkpt><trkpt lat="45.6806299" lon="11.0691774"><ele>1580.0</ele><time>2026-04-18T13:26:31.735Z</time></trkpt><trkpt lat="45.6806826" lon="11.0690895"><ele>1579.9999999999998</ele><time>2026-04-18T13:26:32.735Z</time></trkpt><trkpt lat="45.6807296" lon="11.0689906"><ele>1580.0</ele><time>2026-04-18T13:26:33.735Z</time></trkpt><trkpt lat="45.6807762" lon="11.0688823"><ele>1582.0</ele><time>2026-04-18T13:26:34.735Z</time></trkpt><trkpt lat="45.6808288" lon="11.0687668"><ele>1584.0</ele><time>2026-04-18T13:26:35.735Z</time></trkpt><trkpt lat="45.6808803" lon="11.0686438"><ele>1586.0</ele><time>2026-04-18T13:26:36.735Z</time></trkpt><trkpt lat="45.6809241" lon="11.0685117"><ele>1588.0</ele><time>2026-04-18T13:26:37.735Z</time></trkpt><trkpt lat="45.6809603" lon="11.0683702"><ele>1590.0</ele><time>2026-04-18T13:26:38.735Z</time></trkpt><trkpt lat="45.6809909" lon="11.0682152"><ele>1590.2</ele><time>2026-04-18T13:26:39.735Z</time></trkpt><trkpt lat="45.6810211" lon="11.0680646"><ele>1590.4</ele><time>2026-04-18T13:26:40.735Z</time></trkpt><trkpt lat="45.6810458" lon="11.0679299"><ele>1590.6</ele><time>2026-04-18T13:26:41.735Z</time></trkpt><trkpt lat="45.6810723" lon="11.0678128"><ele>1590.8</ele><time>2026-04-18T13:26:42.735Z</time></trkpt><trkpt lat="45.6811103" lon="11.0676997"><ele>1591.0</ele><time>2026-04-18T13:26:43.735Z</time></trkpt><trkpt lat="45.6811534" lon="11.0676074"><ele>1591.0000000000002</ele><time>2026-04-18T13:26:44.735Z</time></trkpt><trkpt lat="45.6812068" lon="11.0675176"><ele>1591.0</ele><time>2026-04-18T13:26:45.735Z</time></trkpt><trkpt lat="45.681264" lon="11.067437"><ele>1591.0</ele><time>2026-04-18T13:26:46.735Z</time></trkpt><trkpt lat="45.6813145" lon="11.0673558"><ele>1591.0</ele><time>2026-04-18T13:26:47.735Z</time></trkpt><trkpt lat="45.6813562" lon="11.0672625"><ele>1591.0000000000002</ele><time>2026-04-18T13:26:48.736Z</time></trkpt><trkpt lat="45.681388" lon="11.0671588"><ele>1591.0</ele><time>2026-04-18T13:26:49.735Z</time></trkpt><trkpt lat="45.6814157" lon="11.0670545"><ele>1591.0</ele><time>2026-04-18T13:26:50.735Z</time></trkpt><trkpt lat="45.6814459" lon="11.0669479"><ele>1591.0</ele><time>2026-04-18T13:26:51.735Z</time></trkpt><trkpt lat="45.6814781" lon="11.0668478"><ele>1591.0</ele><time>2026-04-18T13:26:52.735Z</time></trkpt><trkpt lat="45.6815177" lon="11.0667304"><ele>1591.0</ele><time>2026-04-18T13:26:53.735Z</time></trkpt><trkpt lat="45.6815667" lon="11.0665937"><ele>1591.0</ele><time>2026-04-18T13:26:54.735Z</time></trkpt><trkpt lat="45.6816195" lon="11.0664587"><ele>1591.0</ele><time>2026-04-18T13:26:55.735Z</time></trkpt><trkpt lat="45.6816764" lon="11.0663093"><ele>1591.0</ele><time>2026-04-18T13:26:56.735Z</time></trkpt><trkpt lat="45.6817355" lon="11.0661562"><ele>1591.0</ele><time>2026-04-18T13:26:57.735Z</time></trkpt><trkpt lat="45.6817895" lon="11.0660072"><ele>1591.0</ele><time>2026-04-18T13:26:58.735Z</time></trkpt><trkpt lat="45.6818387" lon="11.0658747"><ele>1589.1999999999998</ele><time>2026-04-18T13:26:59.735Z</time></trkpt><trkpt lat="45.6818923" lon="11.0657374"><ele>1587.3999999999999</ele><time>2026-04-18T13:27:00.735Z</time></trkpt><trkpt lat="45.6819422" lon="11.065616"><ele>1585.6</ele><time>2026-04-18T13:27:01.735Z</time></trkpt><trkpt lat="45.6819992" lon="11.0654864"><ele>1583.8</ele><time>2026-04-18T13:27:02.735Z</time></trkpt><trkpt lat="45.6820544" lon="11.0653598"><ele>1582.0</ele><time>2026-04-18T13:27:03.735Z</time></trkpt><trkpt lat="45.68211" lon="11.0652304"><ele>1586.0</ele><time>2026-04-18T13:27:04.735Z</time></trkpt><trkpt lat="45.6821821" lon="11.0651053"><ele>1590.0</ele><time>2026-04-18T13:27:05.735Z</time></trkpt><trkpt lat="45.6822567" lon="11.0649789"><ele>1594.0</ele><time>2026-04-18T13:27:06.735Z</time></trkpt><trkpt lat="45.6823179" lon="11.0648575"><ele>1598.0</ele><time>2026-04-18T13:27:07.735Z</time></trkpt><trkpt lat="45.6823742" lon="11.0647286"><ele>1602.0</ele><time>2026-04-18T13:27:08.735Z</time></trkpt><trkpt lat="45.6824186" lon="11.0646092"><ele>1602.0</ele><time>2026-04-18T13:27:09.736Z</time></trkpt><trkpt lat="45.6824622" lon="11.0644906"><ele>1602.0</ele><time>2026-04-18T13:27:10.735Z</time></trkpt><trkpt lat="45.6825033" lon="11.0643932"><ele>1602.0</ele><time>2026-04-18T13:27:11.735Z</time></trkpt><trkpt lat="45.6825451" lon="11.0642995"><ele>1602.0</ele><time>2026-04-18T13:27:12.735Z</time></trkpt><trkpt lat="45.6825886" lon="11.0642148"><ele>1602.0</ele><time>2026-04-18T13:27:13.735Z</time></trkpt><trkpt lat="45.6826349" lon="11.0641399"><ele>1602.0</ele><time>2026-04-18T13:27:14.735Z</time></trkpt><trkpt lat="45.6827347" lon="11.0640227"><ele>1604.3333333333333</ele><time>2026-04-18T13:27:16.735Z</time></trkpt><trkpt lat="45.6828035" lon="11.0639648"><ele>1606.6666666666665</ele><time>2026-04-18T13:27:17.735Z</time></trkpt><trkpt lat="45.6828775" lon="11.063915"><ele>1609.0</ele><time>2026-04-18T13:27:18.735Z</time></trkpt><trkpt lat="45.6829453" lon="11.0638627"><ele>1611.3333333333333</ele><time>2026-04-18T13:27:19.735Z</time></trkpt><trkpt lat="45.6830071" lon="11.0637908"><ele>1613.6666666666665</ele><time>2026-04-18T13:27:20.735Z</time></trkpt><trkpt lat="45.6830658" lon="11.0636938"><ele>1616.0</ele><time>2026-04-18T13:27:21.735Z</time></trkpt><trkpt lat="45.6831134" lon="11.0635943"><ele>1615.9999999999998</ele><time>2026-04-18T13:27:22.735Z</time></trkpt><trkpt lat="45.6831586" lon="11.0634894"><ele>1616.0</ele><time>2026-04-18T13:27:23.735Z</time></trkpt><trkpt lat="45.6832093" lon="11.0633822"><ele>1616.0</ele><time>2026-04-18T13:27:24.735Z</time></trkpt><trkpt lat="45.6832634" lon="11.0632834"><ele>1616.0</ele><time>2026-04-18T13:27:25.735Z</time></trkpt><trkpt lat="45.6833209" lon="11.0631835"><ele>1615.9999999999998</ele><time>2026-04-18T13:27:26.735Z</time></trkpt><trkpt lat="45.6833773" lon="11.063078"><ele>1616.0</ele><time>2026-04-18T13:27:27.736Z</time></trkpt><trkpt lat="45.6834362" lon="11.0629802"><ele>1613.6</ele><time>2026-04-18T13:27:28.735Z</time></trkpt><trkpt lat="45.6834995" lon="11.0628877"><ele>1611.1999999999998</ele><time>2026-04-18T13:27:29.735Z</time></trkpt><trkpt lat="45.6835643" lon="11.0627952"><ele>1608.8000000000002</ele><time>2026-04-18T13:27:30.735Z</time></trkpt><trkpt lat="45.6836397" lon="11.0627097"><ele>1606.4</ele><time>2026-04-18T13:27:31.735Z</time></trkpt><trkpt lat="45.6837157" lon="11.0626286"><ele>1604.0</ele><time>2026-04-18T13:27:32.735Z</time></trkpt><trkpt lat="45.6837831" lon="11.0625567"><ele>1607.5714285714287</ele><time>2026-04-18T13:27:33.735Z</time></trkpt><trkpt lat="45.6838403" lon="11.0624977"><ele>1611.1428571428573</ele><time>2026-04-18T13:27:34.735Z</time></trkpt><trkpt lat="45.6838936" lon="11.0624246"><ele>1614.7142857142858</ele><time>2026-04-18T13:27:35.735Z</time></trkpt><trkpt lat="45.6839235" lon="11.0623403"><ele>1618.2857142857142</ele><time>2026-04-18T13:27:36.735Z</time></trkpt><trkpt lat="45.6839395" lon="11.0622403"><ele>1621.857142857143</ele><time>2026-04-18T13:27:37.735Z</time></trkpt><trkpt lat="45.6839307" lon="11.062133"><ele>1625.4285714285713</ele><time>2026-04-18T13:27:38.735Z</time></trkpt><trkpt lat="45.6839125" lon="11.0620113"><ele>1629.0</ele><time>2026-04-18T13:27:39.735Z</time></trkpt><trkpt lat="45.6838971" lon="11.0618901"><ele>1629.1666666666667</ele><time>2026-04-18T13:27:40.735Z</time></trkpt><trkpt lat="45.6838791" lon="11.0617696"><ele>1629.3333333333335</ele><time>2026-04-18T13:27:41.735Z</time></trkpt><trkpt lat="45.6838682" lon="11.0616441"><ele>1629.5</ele><time>2026-04-18T13:27:42.735Z</time></trkpt><trkpt lat="45.6838644" lon="11.061509"><ele>1629.6666666666667</ele><time>2026-04-18T13:27:43.735Z</time></trkpt><trkpt lat="45.6838648" lon="11.0613902"><ele>1629.8333333333335</ele><time>2026-04-18T13:27:44.735Z</time></trkpt><trkpt lat="45.6838733" lon="11.0612623"><ele>1630.0</ele><time>2026-04-18T13:27:45.735Z</time></trkpt><trkpt lat="45.6838896" lon="11.061137"><ele>1630.3333333333335</ele><time>2026-04-18T13:27:46.735Z</time></trkpt><trkpt lat="45.6839088" lon="11.0610269"><ele>1630.6666666666667</ele><time>2026-04-18T13:27:47.735Z</time></trkpt><trkpt lat="45.6839359" lon="11.0609135"><ele>1631.0</ele><time>2026-04-18T13:27:48.735Z</time></trkpt><trkpt lat="45.6839722" lon="11.0607984"><ele>1631.3333333333335</ele><time>2026-04-18T13:27:49.735Z</time></trkpt><trkpt lat="45.6840189" lon="11.0606925"><ele>1631.6666666666667</ele><time>2026-04-18T13:27:50.735Z</time></trkpt><trkpt lat="45.6840793" lon="11.0605891"><ele>1632.0</ele><time>2026-04-18T13:27:51.736Z</time></trkpt><trkpt lat="45.6841279" lon="11.0605067"><ele>1632.0</ele><time>2026-04-18T13:27:52.735Z</time></trkpt><trkpt lat="45.6841709" lon="11.0604275"><ele>1632.0</ele><time>2026-04-18T13:27:53.735Z</time></trkpt><trkpt lat="45.6842046" lon="11.0603421"><ele>1632.0</ele><time>2026-04-18T13:27:54.735Z</time></trkpt><trkpt lat="45.6842164" lon="11.0602534"><ele>1632.0</ele><time>2026-04-18T13:27:55.735Z</time></trkpt><trkpt lat="45.6841957" lon="11.0600982"><ele>1632.0</ele><time>2026-04-18T13:27:57.735Z</time></trkpt><trkpt lat="45.6841583" lon="11.0599685"><ele>1632.0</ele><time>2026-04-18T13:27:59.735Z</time></trkpt><trkpt lat="45.6841127" lon="11.0598195"><ele>1632.0</ele><time>2026-04-18T13:28:01.735Z</time></trkpt><trkpt lat="45.6840906" lon="11.0597265"><ele>1632.0</ele><time>2026-04-18T13:28:02.735Z</time></trkpt><trkpt lat="45.6840807" lon="11.0596374"><ele>1632.0</ele><time>2026-04-18T13:28:03.736Z</time></trkpt><trkpt lat="45.684082" lon="11.0594717"><ele>1632.0</ele><time>2026-04-18T13:28:05.735Z</time></trkpt><trkpt lat="45.6841206" lon="11.0593312"><ele>1632.0</ele><time>2026-04-18T13:28:07.735Z</time></trkpt><trkpt lat="45.6841887" lon="11.0592321"><ele>1632.0</ele><time>2026-04-18T13:28:09.735Z</time></trkpt><trkpt lat="45.6842677" lon="11.0591505"><ele>1632.0</ele><time>2026-04-18T13:28:11.735Z</time></trkpt><trkpt lat="45.6843334" lon="11.05912"><ele>1632.0</ele><time>2026-04-18T13:28:12.735Z</time></trkpt><trkpt lat="45.6844075" lon="11.0591047"><ele>1632.0</ele><time>2026-04-18T13:28:13.735Z</time></trkpt><trkpt lat="45.6844843" lon="11.0590776"><ele>1632.0</ele><time>2026-04-18T13:28:14.735Z</time></trkpt><trkpt lat="45.6845511" lon="11.0590466"><ele>1632.0</ele><time>2026-04-18T13:28:15.735Z</time></trkpt><trkpt lat="45.6846193" lon="11.0590017"><ele>1632.1999999999998</ele><time>2026-04-18T13:28:16.735Z</time></trkpt><trkpt lat="45.684689" lon="11.0589455"><ele>1632.4</ele><time>2026-04-18T13:28:17.735Z</time></trkpt><trkpt lat="45.6847528" lon="11.0588725"><ele>1632.6</ele><time>2026-04-18T13:28:18.735Z</time></trkpt><trkpt lat="45.6848245" lon="11.0587678"><ele>1632.8000000000002</ele><time>2026-04-18T13:28:19.735Z</time></trkpt><trkpt lat="45.6849023" lon="11.0586598"><ele>1633.0</ele><time>2026-04-18T13:28:20.735Z</time></trkpt><trkpt lat="45.6849661" lon="11.0585601"><ele>1633.0000000000002</ele><time>2026-04-18T13:28:21.735Z</time></trkpt><trkpt lat="45.6850249" lon="11.0584652"><ele>1633.0</ele><time>2026-04-18T13:28:22.735Z</time></trkpt><trkpt lat="45.6850814" lon="11.0583856"><ele>1633.0</ele><time>2026-04-18T13:28:23.735Z</time></trkpt><trkpt lat="45.685132" lon="11.058306"><ele>1633.0</ele><time>2026-04-18T13:28:24.735Z</time></trkpt><trkpt lat="45.6851806" lon="11.058239"><ele>1633.0000000000002</ele><time>2026-04-18T13:28:25.735Z</time></trkpt><trkpt lat="45.6852864" lon="11.0581542"><ele>1633.0</ele><time>2026-04-18T13:28:27.735Z</time></trkpt><trkpt lat="45.6853559" lon="11.0581383"><ele>1632.8000000000002</ele><time>2026-04-18T13:28:28.735Z</time></trkpt><trkpt lat="45.6854381" lon="11.0581458"><ele>1632.6</ele><time>2026-04-18T13:28:29.735Z</time></trkpt><trkpt lat="45.6855399" lon="11.0581711"><ele>1632.4</ele><time>2026-04-18T13:28:30.735Z</time></trkpt><trkpt lat="45.6856358" lon="11.0581971"><ele>1632.1999999999998</ele><time>2026-04-18T13:28:31.735Z</time></trkpt><trkpt lat="45.6857322" lon="11.0582029"><ele>1632.0</ele><time>2026-04-18T13:28:32.735Z</time></trkpt><trkpt lat="45.6858258" lon="11.0581965"><ele>1632.0</ele><time>2026-04-18T13:28:33.735Z</time></trkpt><trkpt lat="45.685913" lon="11.0582003"><ele>1632.0</ele><time>2026-04-18T13:28:34.735Z</time></trkpt><trkpt lat="45.6860049" lon="11.0582176"><ele>1632.0</ele><time>2026-04-18T13:28:35.735Z</time></trkpt><trkpt lat="45.6860911" lon="11.0582348"><ele>1632.0</ele><time>2026-04-18T13:28:36.735Z</time></trkpt><trkpt lat="45.6861711" lon="11.0582365"><ele>1632.0</ele><time>2026-04-18T13:28:37.735Z</time></trkpt><trkpt lat="45.6862464" lon="11.0582249"><ele>1632.0</ele><time>2026-04-18T13:28:38.735Z</time></trkpt><trkpt lat="45.6863148" lon="11.0582047"><ele>1636.0</ele><time>2026-04-18T13:28:39.735Z</time></trkpt><trkpt lat="45.6864128" lon="11.0581324"><ele>1640.0</ele><time>2026-04-18T13:28:41.735Z</time></trkpt><trkpt lat="45.6864448" lon="11.0579998"><ele>1644.0</ele><time>2026-04-18T13:28:43.735Z</time></trkpt><trkpt lat="45.6863979" lon="11.0578675"><ele>1648.0</ele><time>2026-04-18T13:28:45.735Z</time></trkpt><trkpt lat="45.6863349" lon="11.0577308"><ele>1652.0</ele><time>2026-04-18T13:28:47.735Z</time></trkpt><trkpt lat="45.6862965" lon="11.0576466"><ele>1651.9999999999998</ele><time>2026-04-18T13:28:48.735Z</time></trkpt><trkpt lat="45.6862623" lon="11.0575593"><ele>1652.0</ele><time>2026-04-18T13:28:49.735Z</time></trkpt><trkpt lat="45.6862361" lon="11.0574678"><ele>1652.0</ele><time>2026-04-18T13:28:50.735Z</time></trkpt><trkpt lat="45.6862147" lon="11.0573602"><ele>1652.0</ele><time>2026-04-18T13:28:51.735Z</time></trkpt><trkpt lat="45.6861947" lon="11.0572469"><ele>1651.9999999999998</ele><time>2026-04-18T13:28:52.735Z</time></trkpt><trkpt lat="45.6861709" lon="11.0571305"><ele>1652.0</ele><time>2026-04-18T13:28:53.735Z</time></trkpt><trkpt lat="45.6861558" lon="11.0570059"><ele>1651.6666666666665</ele><time>2026-04-18T13:28:54.735Z</time></trkpt><trkpt lat="45.6861497" lon="11.0568682"><ele>1651.3333333333333</ele><time>2026-04-18T13:28:55.735Z</time></trkpt><trkpt lat="45.6861459" lon="11.0567371"><ele>1651.0</ele><time>2026-04-18T13:28:56.735Z</time></trkpt><trkpt lat="45.6861452" lon="11.056619"><ele>1650.6666666666665</ele><time>2026-04-18T13:28:57.735Z</time></trkpt><trkpt lat="45.6861563" lon="11.0565144"><ele>1650.3333333333333</ele><time>2026-04-18T13:28:58.735Z</time></trkpt><trkpt lat="45.6861719" lon="11.0564117"><ele>1650.0</ele><time>2026-04-18T13:28:59.735Z</time></trkpt><trkpt lat="45.6861936" lon="11.0563056"><ele>1649.0</ele><time>2026-04-18T13:29:00.735Z</time></trkpt><trkpt lat="45.6862276" lon="11.0562094"><ele>1648.0</ele><time>2026-04-18T13:29:01.735Z</time></trkpt><trkpt lat="45.6862705" lon="11.0561147"><ele>1647.0</ele><time>2026-04-18T13:29:02.735Z</time></trkpt><trkpt lat="45.6863088" lon="11.0560313"><ele>1646.0</ele><time>2026-04-18T13:29:03.735Z</time></trkpt><trkpt lat="45.686397" lon="11.0559247"><ele>1645.0</ele><time>2026-04-18T13:29:05.735Z</time></trkpt><trkpt lat="45.6864999" lon="11.0558864"><ele>1644.0</ele><time>2026-04-18T13:29:07.735Z</time></trkpt><trkpt lat="45.6866034" lon="11.0559084"><ele>1644.0</ele><time>2026-04-18T13:29:09.735Z</time></trkpt><trkpt lat="45.6866793" lon="11.05591"><ele>1644.0</ele><time>2026-04-18T13:29:11.735Z</time></trkpt><trkpt lat="45.6867607" lon="11.0558295"><ele>1644.0</ele><time>2026-04-18T13:30:06.735Z</time></trkpt><trkpt lat="45.6868029" lon="11.0557614"><ele>1644.0</ele><time>2026-04-18T13:30:07.735Z</time></trkpt><trkpt lat="45.6868509" lon="11.0556988"><ele>1644.0</ele><time>2026-04-18T13:30:08.735Z</time></trkpt><trkpt lat="45.6869777" lon="11.0556275"><ele>1644.0</ele><time>2026-04-18T13:30:10.735Z</time></trkpt><trkpt lat="45.6870444" lon="11.0555945"><ele>1644.6</ele><time>2026-04-18T13:30:11.735Z</time></trkpt><trkpt lat="45.6871038" lon="11.0555327"><ele>1645.2</ele><time>2026-04-18T13:30:12.735Z</time></trkpt><trkpt lat="45.6871448" lon="11.0554504"><ele>1645.8</ele><time>2026-04-18T13:30:13.735Z</time></trkpt><trkpt lat="45.6871869" lon="11.0553273"><ele>1646.3999999999999</ele><time>2026-04-18T13:30:14.736Z</time></trkpt><trkpt lat="45.6872304" lon="11.0551964"><ele>1647.0</ele><time>2026-04-18T13:30:15.735Z</time></trkpt><trkpt lat="45.6872922" lon="11.0550508"><ele>1645.8</ele><time>2026-04-18T13:30:16.735Z</time></trkpt><trkpt lat="45.6873547" lon="11.0549119"><ele>1644.6</ele><time>2026-04-18T13:30:17.735Z</time></trkpt><trkpt lat="45.6874106" lon="11.0547868"><ele>1643.3999999999999</ele><time>2026-04-18T13:30:18.736Z</time></trkpt><trkpt lat="45.6874704" lon="11.0546671"><ele>1642.1999999999998</ele><time>2026-04-18T13:30:19.735Z</time></trkpt><trkpt lat="45.6875271" lon="11.0545556"><ele>1641.0</ele><time>2026-04-18T13:30:20.735Z</time></trkpt><trkpt lat="45.687602" lon="11.054452"><ele>1641.0</ele><time>2026-04-18T13:30:21.735Z</time></trkpt><trkpt lat="45.6876942" lon="11.0543417"><ele>1641.0</ele><time>2026-04-18T13:30:22.735Z</time></trkpt><trkpt lat="45.6877775" lon="11.0542522"><ele>1641.0</ele><time>2026-04-18T13:30:23.735Z</time></trkpt><trkpt lat="45.6878629" lon="11.0541635"><ele>1641.0</ele><time>2026-04-18T13:30:24.735Z</time></trkpt><trkpt lat="45.6879391" lon="11.054071"><ele>1641.0</ele><time>2026-04-18T13:30:25.736Z</time></trkpt><trkpt lat="45.6880007" lon="11.0539637"><ele>1642.4</ele><time>2026-04-18T13:30:26.735Z</time></trkpt><trkpt lat="45.6880463" lon="11.0538393"><ele>1643.8</ele><time>2026-04-18T13:30:27.735Z</time></trkpt><trkpt lat="45.6880786" lon="11.05369"><ele>1645.2</ele><time>2026-04-18T13:30:28.735Z</time></trkpt><trkpt lat="45.6880965" lon="11.0535616"><ele>1646.6000000000001</ele><time>2026-04-18T13:30:29.735Z</time></trkpt><trkpt lat="45.6881027" lon="11.0534434"><ele>1648.0</ele><time>2026-04-18T13:30:30.735Z</time></trkpt><trkpt lat="45.6881073" lon="11.0533367"><ele>1646.5000000000002</ele><time>2026-04-18T13:30:31.735Z</time></trkpt><trkpt lat="45.6881196" lon="11.0532384"><ele>1645.0</ele><time>2026-04-18T13:30:32.735Z</time></trkpt><trkpt lat="45.6881448" lon="11.053139"><ele>1643.5</ele><time>2026-04-18T13:30:33.735Z</time></trkpt><trkpt lat="45.6881861" lon="11.0530503"><ele>1642.0</ele><time>2026-04-18T13:30:34.735Z</time></trkpt><trkpt lat="45.6882413" lon="11.0529706"><ele>1640.5000000000002</ele><time>2026-04-18T13:30:35.735Z</time></trkpt><trkpt lat="45.6883167" lon="11.0528921"><ele>1639.0</ele><time>2026-04-18T13:30:37.735Z</time></trkpt><trkpt lat="45.6883849" lon="11.0528319"><ele>1639.0</ele><time>2026-04-18T13:30:39.735Z</time></trkpt><trkpt lat="45.6884454" lon="11.052771"><ele>1639.0</ele><time>2026-04-18T13:30:40.735Z</time></trkpt><trkpt lat="45.6885248" lon="11.0527028"><ele>1639.0</ele><time>2026-04-18T13:30:41.735Z</time></trkpt><trkpt lat="45.6886172" lon="11.0526306"><ele>1639.0</ele><time>2026-04-18T13:30:42.735Z</time></trkpt><trkpt lat="45.6887116" lon="11.0525662"><ele>1639.0</ele><time>2026-04-18T13:30:43.735Z</time></trkpt><trkpt lat="45.6887962" lon="11.0525185"><ele>1640.5</ele><time>2026-04-18T13:30:44.735Z</time></trkpt><trkpt lat="45.6888843" lon="11.0524903"><ele>1642.0</ele><time>2026-04-18T13:30:45.735Z</time></trkpt><trkpt lat="45.6889884" lon="11.0524718"><ele>1643.5</ele><time>2026-04-18T13:30:46.735Z</time></trkpt><trkpt lat="45.6891101" lon="11.0524655"><ele>1645.0</ele><time>2026-04-18T13:30:47.735Z</time></trkpt><trkpt lat="45.6892517" lon="11.0524722"><ele>1645.0</ele><time>2026-04-18T13:30:48.735Z</time></trkpt><trkpt lat="45.6893951" lon="11.0524845"><ele>1645.0</ele><time>2026-04-18T13:30:49.735Z</time></trkpt><trkpt lat="45.6895248" lon="11.0524826"><ele>1645.0</ele><time>2026-04-18T13:30:50.735Z</time></trkpt><trkpt lat="45.6896348" lon="11.0524763"><ele>1645.0</ele><time>2026-04-18T13:30:51.735Z</time></trkpt><trkpt lat="45.6897277" lon="11.052472"><ele>1646.8333333333335</ele><time>2026-04-18T13:30:52.735Z</time></trkpt><trkpt lat="45.6898115" lon="11.0524589"><ele>1648.6666666666667</ele><time>2026-04-18T13:30:53.735Z</time></trkpt><trkpt lat="45.6898818" lon="11.0524243"><ele>1650.5</ele><time>2026-04-18T13:30:54.735Z</time></trkpt><trkpt lat="45.6899453" lon="11.0523653"><ele>1652.3333333333335</ele><time>2026-04-18T13:30:55.735Z</time></trkpt><trkpt lat="45.6899899" lon="11.052293"><ele>1654.1666666666667</ele><time>2026-04-18T13:30:56.735Z</time></trkpt><trkpt lat="45.6900329" lon="11.0522003"><ele>1656.0</ele><time>2026-04-18T13:30:57.735Z</time></trkpt><trkpt lat="45.6900689" lon="11.0520893"><ele>1656.1666666666667</ele><time>2026-04-18T13:30:58.735Z</time></trkpt><trkpt lat="45.6900957" lon="11.0519646"><ele>1656.3333333333335</ele><time>2026-04-18T13:30:59.735Z</time></trkpt><trkpt lat="45.6901031" lon="11.0518521"><ele>1656.5</ele><time>2026-04-18T13:31:00.735Z</time></trkpt><trkpt lat="45.6900907" lon="11.0517375"><ele>1656.6666666666667</ele><time>2026-04-18T13:31:01.735Z</time></trkpt><trkpt lat="45.6900634" lon="11.0516363"><ele>1656.8333333333335</ele><time>2026-04-18T13:31:02.735Z</time></trkpt><trkpt lat="45.6900155" lon="11.0515404"><ele>1657.0</ele><time>2026-04-18T13:31:03.735Z</time></trkpt><trkpt lat="45.6899485" lon="11.0514421"><ele>1659.5</ele><time>2026-04-18T13:31:04.735Z</time></trkpt><trkpt lat="45.6898547" lon="11.0513439"><ele>1662.0</ele><time>2026-04-18T13:31:05.735Z</time></trkpt><trkpt lat="45.6897431" lon="11.0512391"><ele>1664.5</ele><time>2026-04-18T13:31:06.736Z</time></trkpt><trkpt lat="45.6896376" lon="11.0511274"><ele>1667.0</ele><time>2026-04-18T13:31:07.736Z</time></trkpt><trkpt lat="45.6895483" lon="11.0510178"><ele>1666.9999999999998</ele><time>2026-04-18T13:31:08.735Z</time></trkpt><trkpt lat="45.6894712" lon="11.0509257"><ele>1667.0</ele><time>2026-04-18T13:31:09.735Z</time></trkpt><trkpt lat="45.6894029" lon="11.0508471"><ele>1667.0</ele><time>2026-04-18T13:31:10.735Z</time></trkpt><trkpt lat="45.6893451" lon="11.0507842"><ele>1667.0</ele><time>2026-04-18T13:31:11.735Z</time></trkpt><trkpt lat="45.6892926" lon="11.0507045"><ele>1666.9999999999998</ele><time>2026-04-18T13:31:12.735Z</time></trkpt><trkpt lat="45.6892408" lon="11.0506105"><ele>1667.0</ele><time>2026-04-18T13:31:13.735Z</time></trkpt><trkpt lat="45.6891997" lon="11.0505156"><ele>1665.7142857142858</ele><time>2026-04-18T13:31:14.735Z</time></trkpt><trkpt lat="45.6891748" lon="11.0504277"><ele>1664.4285714285716</ele><time>2026-04-18T13:31:15.735Z</time></trkpt><trkpt lat="45.6891667" lon="11.0503343"><ele>1663.142857142857</ele><time>2026-04-18T13:31:16.735Z</time></trkpt><trkpt lat="45.6891937" lon="11.0502094"><ele>1661.857142857143</ele><time>2026-04-18T13:31:18.735Z</time></trkpt><trkpt lat="45.6892529" lon="11.0501576"><ele>1660.5714285714284</ele><time>2026-04-18T13:31:20.735Z</time></trkpt><trkpt lat="45.6893175" lon="11.0501623"><ele>1659.2857142857142</ele><time>2026-04-18T13:31:22.735Z</time></trkpt><trkpt lat="45.689352" lon="11.0502543"><ele>1658.0</ele><time>2026-04-18T13:31:40.736Z</time></trkpt><trkpt lat="45.6894052" lon="11.0503335"><ele>1659.4999999999998</ele><time>2026-04-18T13:32:28.735Z</time></trkpt><trkpt lat="45.6894423" lon="11.0504327"><ele>1661.0</ele><time>2026-04-18T13:32:36.735Z</time></trkpt><trkpt lat="45.6894809" lon="11.0505443"><ele>1662.5</ele><time>2026-04-18T13:32:39.735Z</time></trkpt><trkpt lat="45.6895456" lon="11.0505942"><ele>1664.0</ele><time>2026-04-18T13:40:03.735Z</time></trkpt><trkpt lat="45.689623" lon="11.0506895"><ele>1665.4999999999998</ele><time>2026-04-18T13:40:09.735Z</time></trkpt><trkpt lat="45.689687" lon="11.0507494"><ele>1667.0</ele><time>2026-04-18T13:40:10.735Z</time></trkpt><trkpt lat="45.6897798" lon="11.0508109"><ele>1666.9999999999998</ele><time>2026-04-18T13:40:11.735Z</time></trkpt><trkpt lat="45.6898719" lon="11.0508729"><ele>1667.0</ele><time>2026-04-18T13:40:12.735Z</time></trkpt><trkpt lat="45.6899532" lon="11.0509289"><ele>1667.0</ele><time>2026-04-18T13:40:13.735Z</time></trkpt><trkpt lat="45.6900262" lon="11.0509881"><ele>1667.0</ele><time>2026-04-18T13:40:14.735Z</time></trkpt><trkpt lat="45.6900977" lon="11.0510477"><ele>1666.9999999999998</ele><time>2026-04-18T13:40:15.735Z</time></trkpt><trkpt lat="45.6901775" lon="11.0510982"><ele>1667.0</ele><time>2026-04-18T13:40:16.736Z</time></trkpt><trkpt lat="45.6902531" lon="11.0511553"><ele>1667.6</ele><time>2026-04-18T13:40:17.735Z</time></trkpt><trkpt lat="45.6903664" lon="11.0511708"><ele>1668.1999999999998</ele><time>2026-04-18T13:40:18.736Z</time></trkpt><trkpt lat="45.6904772" lon="11.0511855"><ele>1668.8</ele><time>2026-04-18T13:40:19.735Z</time></trkpt><trkpt lat="45.6905757" lon="11.0512028"><ele>1669.4</ele><time>2026-04-18T13:40:20.735Z</time></trkpt><trkpt lat="45.6906697" lon="11.0512353"><ele>1670.0</ele><time>2026-04-18T13:40:21.735Z</time></trkpt><trkpt lat="45.6907672" lon="11.0512896"><ele>1670.0</ele><time>2026-04-18T13:40:22.735Z</time></trkpt><trkpt lat="45.6908633" lon="11.051352"><ele>1670.0</ele><time>2026-04-18T13:40:23.735Z</time></trkpt><trkpt lat="45.6909524" lon="11.0514066"><ele>1670.0</ele><time>2026-04-18T13:40:24.735Z</time></trkpt><trkpt lat="45.6910433" lon="11.051451"><ele>1670.0</ele><time>2026-04-18T13:40:25.735Z</time></trkpt><trkpt lat="45.6911242" lon="11.0514781"><ele>1670.0</ele><time>2026-04-18T13:40:26.735Z</time></trkpt><trkpt lat="45.6911989" lon="11.0514926"><ele>1670.1666666666665</ele><time>2026-04-18T13:40:27.735Z</time></trkpt><trkpt lat="45.691273" lon="11.0515071"><ele>1670.3333333333333</ele><time>2026-04-18T13:40:28.736Z</time></trkpt><trkpt lat="45.6913574" lon="11.051524"><ele>1670.5</ele><time>2026-04-18T13:40:29.735Z</time></trkpt><trkpt lat="45.6914469" lon="11.0515456"><ele>1670.6666666666665</ele><time>2026-04-18T13:40:30.735Z</time></trkpt><trkpt lat="45.6915405" lon="11.0515597"><ele>1670.8333333333333</ele><time>2026-04-18T13:40:31.735Z</time></trkpt><trkpt lat="45.6916328" lon="11.051561"><ele>1671.0</ele><time>2026-04-18T13:40:32.735Z</time></trkpt><trkpt lat="45.691716" lon="11.0515493"><ele>1671.0</ele><time>2026-04-18T13:40:33.735Z</time></trkpt><trkpt lat="45.6917902" lon="11.0515343"><ele>1671.0</ele><time>2026-04-18T13:40:34.735Z</time></trkpt><trkpt lat="45.6918545" lon="11.0515048"><ele>1671.0</ele><time>2026-04-18T13:40:35.736Z</time></trkpt><trkpt lat="45.6919267" lon="11.0514662"><ele>1671.0</ele><time>2026-04-18T13:40:36.736Z</time></trkpt><trkpt lat="45.6920027" lon="11.0514187"><ele>1671.0</ele><time>2026-04-18T13:40:37.735Z</time></trkpt><trkpt lat="45.6920717" lon="11.0513773"><ele>1671.0</ele><time>2026-04-18T13:40:38.735Z</time></trkpt><trkpt lat="45.6921324" lon="11.0513367"><ele>1671.0</ele><time>2026-04-18T13:40:39.735Z</time></trkpt><trkpt lat="45.6922005" lon="11.0513044"><ele>1671.7142857142856</ele><time>2026-04-18T13:40:40.736Z</time></trkpt><trkpt lat="45.692273" lon="11.051295"><ele>1672.4285714285716</ele><time>2026-04-18T13:40:41.735Z</time></trkpt><trkpt lat="45.6923426" lon="11.0513099"><ele>1673.142857142857</ele><time>2026-04-18T13:40:42.735Z</time></trkpt><trkpt lat="45.6924104" lon="11.0513495"><ele>1673.8571428571427</ele><time>2026-04-18T13:40:43.735Z</time></trkpt><trkpt lat="45.6924721" lon="11.0514075"><ele>1674.5714285714284</ele><time>2026-04-18T13:40:44.735Z</time></trkpt><trkpt lat="45.6925235" lon="11.0514722"><ele>1675.2857142857142</ele><time>2026-04-18T13:40:45.735Z</time></trkpt><trkpt lat="45.6925651" lon="11.0515498"><ele>1676.0</ele><time>2026-04-18T13:40:46.735Z</time></trkpt><trkpt lat="45.6926016" lon="11.0516363"><ele>1677.1666666666665</ele><time>2026-04-18T13:40:47.735Z</time></trkpt><trkpt lat="45.6926306" lon="11.0517297"><ele>1678.3333333333333</ele><time>2026-04-18T13:40:48.735Z</time></trkpt><trkpt lat="45.6926601" lon="11.0518838"><ele>1679.5</ele><time>2026-04-18T13:40:50.735Z</time></trkpt><trkpt lat="45.692666" lon="11.0519899"><ele>1680.6666666666665</ele><time>2026-04-18T13:40:52.735Z</time></trkpt><trkpt lat="45.6927062" lon="11.0520985"><ele>1681.8333333333333</ele><time>2026-04-18T13:41:03.736Z</time></trkpt><trkpt lat="45.6926834" lon="11.0519531"><ele>1683.0</ele><time>2026-04-18T13:41:57.735Z</time></trkpt><trkpt lat="45.6926448" lon="11.0517765"><ele>1682.9999999999998</ele><time>2026-04-18T13:41:59.736Z</time></trkpt><trkpt lat="45.6926183" lon="11.0516786"><ele>1683.0</ele><time>2026-04-18T13:42:00.735Z</time></trkpt><trkpt lat="45.6925893" lon="11.0515927"><ele>1683.0</ele><time>2026-04-18T13:42:01.735Z</time></trkpt><trkpt lat="45.6925468" lon="11.051504"><ele>1683.0</ele><time>2026-04-18T13:42:02.735Z</time></trkpt><trkpt lat="45.6924952" lon="11.0514269"><ele>1683.0</ele><time>2026-04-18T13:42:03.735Z</time></trkpt><trkpt lat="45.6924375" lon="11.0513764"><ele>1682.9999999999998</ele><time>2026-04-18T13:42:04.735Z</time></trkpt><trkpt lat="45.6923695" lon="11.0513397"><ele>1683.0</ele><time>2026-04-18T13:42:05.735Z</time></trkpt><trkpt lat="45.6922968" lon="11.0513146"><ele>1681.8333333333333</ele><time>2026-04-18T13:42:06.735Z</time></trkpt><trkpt lat="45.6922167" lon="11.051309"><ele>1680.6666666666665</ele><time>2026-04-18T13:42:07.736Z</time></trkpt><trkpt lat="45.6921362" lon="11.0513233"><ele>1679.5</ele><time>2026-04-18T13:42:08.735Z</time></trkpt><trkpt lat="45.6920704" lon="11.0513432"><ele>1678.3333333333333</ele><time>2026-04-18T13:42:09.735Z</time></trkpt><trkpt lat="45.6920031" lon="11.0513668"><ele>1677.1666666666665</ele><time>2026-04-18T13:42:10.736Z</time></trkpt><trkpt lat="45.6919105" lon="11.0514571"><ele>1676.0</ele><time>2026-04-18T13:42:12.735Z</time></trkpt><trkpt lat="45.6917916" lon="11.0515184"><ele>1675.2857142857142</ele><time>2026-04-18T13:42:14.735Z</time></trkpt><trkpt lat="45.6917274" lon="11.0515396"><ele>1674.5714285714284</ele><time>2026-04-18T13:42:15.735Z</time></trkpt><trkpt lat="45.6916541" lon="11.0515471"><ele>1673.8571428571427</ele><time>2026-04-18T13:42:16.735Z</time></trkpt><trkpt lat="45.6915773" lon="11.0515518"><ele>1673.142857142857</ele><time>2026-04-18T13:42:17.735Z</time></trkpt><trkpt lat="45.6915009" lon="11.0515458"><ele>1672.4285714285716</ele><time>2026-04-18T13:42:18.735Z</time></trkpt><trkpt lat="45.6914262" lon="11.0515326"><ele>1671.7142857142856</ele><time>2026-04-18T13:42:19.735Z</time></trkpt><trkpt lat="45.6913471" lon="11.0515183"><ele>1671.0</ele><time>2026-04-18T13:42:20.735Z</time></trkpt><trkpt lat="45.6912574" lon="11.0515085"><ele>1671.0</ele><time>2026-04-18T13:42:21.735Z</time></trkpt><trkpt lat="45.691173" lon="11.0514896"><ele>1671.0</ele><time>2026-04-18T13:42:22.735Z</time></trkpt><trkpt lat="45.6910879" lon="11.0514592"><ele>1671.0</ele><time>2026-04-18T13:42:23.735Z</time></trkpt><trkpt lat="45.6909815" lon="11.0514082"><ele>1671.0</ele><time>2026-04-18T13:42:24.735Z</time></trkpt><trkpt lat="45.690878" lon="11.0513409"><ele>1671.0</ele><time>2026-04-18T13:42:25.735Z</time></trkpt><trkpt lat="45.6907864" lon="11.0512725"><ele>1670.8</ele><time>2026-04-18T13:42:26.735Z</time></trkpt><trkpt lat="45.6906892" lon="11.0512189"><ele>1670.6</ele><time>2026-04-18T13:42:27.735Z</time></trkpt><trkpt lat="45.6905958" lon="11.0511894"><ele>1670.4</ele><time>2026-04-18T13:42:28.735Z</time></trkpt><trkpt lat="45.690503" lon="11.0511707"><ele>1670.2</ele><time>2026-04-18T13:42:29.735Z</time></trkpt><trkpt lat="45.6904126" lon="11.0511592"><ele>1670.0</ele><time>2026-04-18T13:42:30.736Z</time></trkpt><trkpt lat="45.6903332" lon="11.0511488"><ele>1669.9999999999998</ele><time>2026-04-18T13:42:31.735Z</time></trkpt><trkpt lat="45.6902598" lon="11.0511239"><ele>1670.0</ele><time>2026-04-18T13:42:32.735Z</time></trkpt><trkpt lat="45.6901817" lon="11.0510879"><ele>1670.0</ele><time>2026-04-18T13:42:33.735Z</time></trkpt><trkpt lat="45.690103" lon="11.0510325"><ele>1670.0</ele><time>2026-04-18T13:42:34.736Z</time></trkpt><trkpt lat="45.6900226" lon="11.0509655"><ele>1669.9999999999998</ele><time>2026-04-18T13:42:35.735Z</time></trkpt><trkpt lat="45.6899465" lon="11.0509079"><ele>1670.0</ele><time>2026-04-18T13:42:36.735Z</time></trkpt><trkpt lat="45.6898748" lon="11.0508555"><ele>1670.1666666666665</ele><time>2026-04-18T13:42:37.735Z</time></trkpt><trkpt lat="45.6898122" lon="11.0508069"><ele>1670.3333333333333</ele><time>2026-04-18T13:42:38.735Z</time></trkpt><trkpt lat="45.6897515" lon="11.0507688"><ele>1670.5</ele><time>2026-04-18T13:42:39.735Z</time></trkpt><trkpt lat="45.6896582" lon="11.0506971"><ele>1670.6666666666665</ele><time>2026-04-18T13:42:41.735Z</time></trkpt><trkpt lat="45.6895946" lon="11.0506259"><ele>1670.8333333333333</ele><time>2026-04-18T13:42:43.735Z</time></trkpt><trkpt lat="45.6895235" lon="11.0505757"><ele>1671.0</ele><time>2026-04-18T13:44:09.735Z</time></trkpt><trkpt lat="45.6894676" lon="11.0505009"><ele>1671.0</ele><time>2026-04-18T13:44:12.735Z</time></trkpt><trkpt lat="45.6894307" lon="11.0504234"><ele>1671.0</ele><time>2026-04-18T13:44:15.735Z</time></trkpt><trkpt lat="45.6893949" lon="11.0503277"><ele>1671.0</ele><time>2026-04-18T13:44:19.735Z</time></trkpt><trkpt lat="45.6893583" lon="11.0502387"><ele>1671.0</ele><time>2026-04-18T13:44:24.735Z</time></trkpt><trkpt lat="45.6893129" lon="11.0501468"><ele>1671.0</ele><time>2026-04-18T13:44:29.735Z</time></trkpt><trkpt lat="45.6892246" lon="11.0501682"><ele>1671.0</ele><time>2026-04-18T13:45:46.735Z</time></trkpt><trkpt lat="45.6891663" lon="11.0502804"><ele>1668.4</ele><time>2026-04-18T13:45:48.735Z</time></trkpt><trkpt lat="45.6891603" lon="11.0504291"><ele>1665.8</ele><time>2026-04-18T13:45:50.735Z</time></trkpt><trkpt lat="45.6892135" lon="11.0505923"><ele>1663.2</ele><time>2026-04-18T13:45:52.735Z</time></trkpt><trkpt lat="45.6892918" lon="11.0507333"><ele>1660.6000000000001</ele><time>2026-04-18T13:45:54.735Z</time></trkpt><trkpt lat="45.6893458" lon="11.0508022"><ele>1658.0</ele><time>2026-04-18T13:45:55.735Z</time></trkpt><trkpt lat="45.6894067" lon="11.0508825"><ele>1659.4999999999998</ele><time>2026-04-18T13:45:56.735Z</time></trkpt><trkpt lat="45.689466" lon="11.0509596"><ele>1661.0</ele><time>2026-04-18T13:45:57.735Z</time></trkpt><trkpt lat="45.6895222" lon="11.0510299"><ele>1662.5</ele><time>2026-04-18T13:45:58.735Z</time></trkpt><trkpt lat="45.6895941" lon="11.0511154"><ele>1664.0</ele><time>2026-04-18T13:45:59.735Z</time></trkpt><trkpt lat="45.6896658" lon="11.0511982"><ele>1665.4999999999998</ele><time>2026-04-18T13:46:00.735Z</time></trkpt><trkpt lat="45.6897336" lon="11.0512715"><ele>1667.0</ele><time>2026-04-18T13:46:01.735Z</time></trkpt><trkpt lat="45.6898602" lon="11.0513981"><ele>1667.0</ele><time>2026-04-18T13:46:03.735Z</time></trkpt><trkpt lat="45.6899132" lon="11.0514571"><ele>1667.0</ele><time>2026-04-18T13:46:04.735Z</time></trkpt><trkpt lat="45.690006" lon="11.0515593"><ele>1667.0</ele><time>2026-04-18T13:46:06.736Z</time></trkpt><trkpt lat="45.6900761" lon="11.0516662"><ele>1667.0</ele><time>2026-04-18T13:46:08.735Z</time></trkpt><trkpt lat="45.6901075" lon="11.0518223"><ele>1667.0</ele><time>2026-04-18T13:46:10.735Z</time></trkpt><trkpt lat="45.6901015" lon="11.0519283"><ele>1665.3333333333333</ele><time>2026-04-18T13:46:11.735Z</time></trkpt><trkpt lat="45.6900839" lon="11.0520389"><ele>1663.6666666666665</ele><time>2026-04-18T13:46:12.735Z</time></trkpt><trkpt lat="45.6900612" lon="11.0521321"><ele>1662.0</ele><time>2026-04-18T13:46:13.735Z</time></trkpt><trkpt lat="45.6900148" lon="11.0522667"><ele>1660.3333333333335</ele><time>2026-04-18T13:46:15.735Z</time></trkpt><trkpt lat="45.6899413" lon="11.0523637"><ele>1658.6666666666667</ele><time>2026-04-18T13:46:17.735Z</time></trkpt><trkpt lat="45.6898547" lon="11.0524171"><ele>1657.0</ele><time>2026-04-18T13:46:19.735Z</time></trkpt><trkpt lat="45.6897435" lon="11.0524389"><ele>1657.0000000000002</ele><time>2026-04-18T13:46:21.735Z</time></trkpt><trkpt lat="45.6896794" lon="11.0524521"><ele>1657.0</ele><time>2026-04-18T13:46:22.735Z</time></trkpt><trkpt lat="45.6896115" lon="11.0524619"><ele>1657.0</ele><time>2026-04-18T13:46:23.735Z</time></trkpt><trkpt lat="45.6895417" lon="11.0524706"><ele>1657.0</ele><time>2026-04-18T13:46:24.736Z</time></trkpt><trkpt lat="45.6894697" lon="11.0524728"><ele>1657.0000000000002</ele><time>2026-04-18T13:46:25.735Z</time></trkpt><trkpt lat="45.6893845" lon="11.0524646"><ele>1657.0</ele><time>2026-04-18T13:46:26.735Z</time></trkpt><trkpt lat="45.6892874" lon="11.0524474"><ele>1654.5000000000002</ele><time>2026-04-18T13:46:27.735Z</time></trkpt><trkpt lat="45.6891969" lon="11.0524273"><ele>1652.0</ele><time>2026-04-18T13:46:28.735Z</time></trkpt><trkpt lat="45.6891153" lon="11.0524144"><ele>1649.5</ele><time>2026-04-18T13:46:29.735Z</time></trkpt><trkpt lat="45.6890426" lon="11.0524079"><ele>1647.0</ele><time>2026-04-18T13:46:30.735Z</time></trkpt><trkpt lat="45.6889759" lon="11.0524007"><ele>1644.5000000000002</ele><time>2026-04-18T13:46:31.735Z</time></trkpt><trkpt lat="45.6888516" lon="11.0524059"><ele>1642.0</ele><time>2026-04-18T13:46:33.735Z</time></trkpt><trkpt lat="45.6887686" lon="11.0524325"><ele>1642.5000000000002</ele><time>2026-04-18T13:46:34.735Z</time></trkpt><trkpt lat="45.6886765" lon="11.0524741"><ele>1643.0</ele><time>2026-04-18T13:46:35.735Z</time></trkpt><trkpt lat="45.6885868" lon="11.0525209"><ele>1643.5</ele><time>2026-04-18T13:46:36.735Z</time></trkpt><trkpt lat="45.688508" lon="11.0525672"><ele>1644.0</ele><time>2026-04-18T13:46:37.735Z</time></trkpt><trkpt lat="45.6884374" lon="11.0526105"><ele>1644.5000000000002</ele><time>2026-04-18T13:46:38.735Z</time></trkpt><trkpt lat="45.6883703" lon="11.0526396"><ele>1645.0</ele><time>2026-04-18T13:46:39.736Z</time></trkpt><trkpt lat="45.6883028" lon="11.0526549"><ele>1644.142857142857</ele><time>2026-04-18T13:46:40.735Z</time></trkpt><trkpt lat="45.6882302" lon="11.0526597"><ele>1643.2857142857142</ele><time>2026-04-18T13:46:41.735Z</time></trkpt><trkpt lat="45.6881629" lon="11.0526584"><ele>1642.4285714285716</ele><time>2026-04-18T13:46:42.735Z</time></trkpt><trkpt lat="45.6880997" lon="11.0526441"><ele>1641.5714285714284</ele><time>2026-04-18T13:46:43.735Z</time></trkpt><trkpt lat="45.688037" lon="11.0526127"><ele>1640.7142857142858</ele><time>2026-04-18T13:46:44.735Z</time></trkpt><trkpt lat="45.6879795" lon="11.0525637"><ele>1639.857142857143</ele><time>2026-04-18T13:46:45.735Z</time></trkpt><trkpt lat="45.6879283" lon="11.0525091"><ele>1639.0</ele><time>2026-04-18T13:46:46.735Z</time></trkpt><trkpt lat="45.6878715" lon="11.0524625"><ele>1637.8000000000002</ele><time>2026-04-18T13:46:47.735Z</time></trkpt><trkpt lat="45.6877604" lon="11.0524233"><ele>1636.6000000000001</ele><time>2026-04-18T13:46:49.735Z</time></trkpt><trkpt lat="45.6876427" lon="11.0524505"><ele>1635.4</ele><time>2026-04-18T13:46:51.735Z</time></trkpt><trkpt lat="45.6875444" lon="11.0525597"><ele>1634.2</ele><time>2026-04-18T13:46:53.735Z</time></trkpt><trkpt lat="45.6875067" lon="11.0526337"><ele>1633.0</ele><time>2026-04-18T13:46:54.736Z</time></trkpt><trkpt lat="45.6874828" lon="11.0527185"><ele>1633.0</ele><time>2026-04-18T13:46:55.735Z</time></trkpt><trkpt lat="45.6874584" lon="11.052803"><ele>1633.0</ele><time>2026-04-18T13:46:56.735Z</time></trkpt><trkpt lat="45.6874234" lon="11.052886"><ele>1633.0</ele><time>2026-04-18T13:46:57.735Z</time></trkpt><trkpt lat="45.6873841" lon="11.0529589"><ele>1633.0</ele><time>2026-04-18T13:46:58.735Z</time></trkpt><trkpt lat="45.6873319" lon="11.0530302"><ele>1633.0</ele><time>2026-04-18T13:46:59.735Z</time></trkpt><trkpt lat="45.6872713" lon="11.0530866"><ele>1633.0</ele><time>2026-04-18T13:47:00.735Z</time></trkpt><trkpt lat="45.6872043" lon="11.0531416"><ele>1633.0</ele><time>2026-04-18T13:47:01.735Z</time></trkpt><trkpt lat="45.687142" lon="11.0531773"><ele>1633.0000000000002</ele><time>2026-04-18T13:47:02.735Z</time></trkpt><trkpt lat="45.6870796" lon="11.0532045"><ele>1633.0</ele><time>2026-04-18T13:47:03.735Z</time></trkpt><trkpt lat="45.6869677" lon="11.0532377"><ele>1633.0</ele><time>2026-04-18T13:47:05.735Z</time></trkpt><trkpt lat="45.6868893" lon="11.0532597"><ele>1633.0</ele><time>2026-04-18T13:47:06.735Z</time></trkpt><trkpt lat="45.686806" lon="11.0532838"><ele>1633.0000000000002</ele><time>2026-04-18T13:47:07.735Z</time></trkpt><trkpt lat="45.6867305" lon="11.053301"><ele>1633.0</ele><time>2026-04-18T13:47:08.735Z</time></trkpt><trkpt lat="45.6866546" lon="11.0533083"><ele>1632.1666666666667</ele><time>2026-04-18T13:47:09.735Z</time></trkpt><trkpt lat="45.6865782" lon="11.0533056"><ele>1631.3333333333335</ele><time>2026-04-18T13:47:10.735Z</time></trkpt><trkpt lat="45.6865071" lon="11.0532923"><ele>1630.5</ele><time>2026-04-18T13:47:11.735Z</time></trkpt><trkpt lat="45.6864311" lon="11.0532792"><ele>1629.6666666666665</ele><time>2026-04-18T13:47:12.735Z</time></trkpt><trkpt lat="45.6863629" lon="11.0532773"><ele>1628.8333333333333</ele><time>2026-04-18T13:47:13.735Z</time></trkpt><trkpt lat="45.6862504" lon="11.0533243"><ele>1628.0</ele><time>2026-04-18T13:47:15.735Z</time></trkpt><trkpt lat="45.6861751" lon="11.0534483"><ele>1627.9999999999998</ele><time>2026-04-18T13:47:17.735Z</time></trkpt><trkpt lat="45.6861514" lon="11.0535321"><ele>1628.0</ele><time>2026-04-18T13:47:18.735Z</time></trkpt><trkpt lat="45.6861377" lon="11.0536318"><ele>1628.0</ele><time>2026-04-18T13:47:19.735Z</time></trkpt><trkpt lat="45.6861263" lon="11.0537318"><ele>1628.0</ele><time>2026-04-18T13:47:20.735Z</time></trkpt><trkpt lat="45.6861155" lon="11.0538207"><ele>1627.9999999999998</ele><time>2026-04-18T13:47:21.735Z</time></trkpt><trkpt lat="45.6860823" lon="11.0539818"><ele>1628.0</ele><time>2026-04-18T13:47:23.736Z</time></trkpt><trkpt lat="45.6860194" lon="11.054082"><ele>1627.2</ele><time>2026-04-18T13:47:25.735Z</time></trkpt><trkpt lat="45.6859433" lon="11.054123"><ele>1626.4</ele><time>2026-04-18T13:47:27.735Z</time></trkpt><trkpt lat="45.685843" lon="11.0540882"><ele>1625.6000000000001</ele><time>2026-04-18T13:47:29.735Z</time></trkpt><trkpt lat="45.6857601" lon="11.0540418"><ele>1624.8000000000002</ele><time>2026-04-18T13:47:30.736Z</time></trkpt><trkpt lat="45.6856571" lon="11.0539876"><ele>1624.0</ele><time>2026-04-18T13:47:31.735Z</time></trkpt><trkpt lat="45.6855648" lon="11.0539398"><ele>1623.5000000000002</ele><time>2026-04-18T13:47:32.735Z</time></trkpt><trkpt lat="45.6854806" lon="11.0538984"><ele>1623.0</ele><time>2026-04-18T13:47:33.735Z</time></trkpt><trkpt lat="45.6853993" lon="11.0538572"><ele>1622.5</ele><time>2026-04-18T13:47:34.735Z</time></trkpt><trkpt lat="45.6853229" lon="11.0538145"><ele>1622.0</ele><time>2026-04-18T13:47:35.735Z</time></trkpt><trkpt lat="45.6852438" lon="11.053767"><ele>1621.5000000000002</ele><time>2026-04-18T13:47:36.735Z</time></trkpt><trkpt lat="45.6851661" lon="11.0537283"><ele>1621.0</ele><time>2026-04-18T13:47:37.735Z</time></trkpt><trkpt lat="45.6850913" lon="11.0537007"><ele>1619.5000000000002</ele><time>2026-04-18T13:47:38.735Z</time></trkpt><trkpt lat="45.6850168" lon="11.0536852"><ele>1618.0</ele><time>2026-04-18T13:47:39.735Z</time></trkpt><trkpt lat="45.684935" lon="11.0536844"><ele>1616.5</ele><time>2026-04-18T13:47:40.735Z</time></trkpt><trkpt lat="45.6848592" lon="11.0536989"><ele>1615.0</ele><time>2026-04-18T13:47:41.735Z</time></trkpt><trkpt lat="45.6847764" lon="11.0537291"><ele>1613.5000000000002</ele><time>2026-04-18T13:47:42.735Z</time></trkpt><trkpt lat="45.684685" lon="11.0537854"><ele>1612.0</ele><time>2026-04-18T13:47:43.735Z</time></trkpt><trkpt lat="45.684599" lon="11.0538514"><ele>1612.0000000000002</ele><time>2026-04-18T13:47:44.735Z</time></trkpt><trkpt lat="45.6845193" lon="11.0539159"><ele>1612.0</ele><time>2026-04-18T13:47:45.735Z</time></trkpt><trkpt lat="45.6844423" lon="11.053971"><ele>1612.0</ele><time>2026-04-18T13:47:46.735Z</time></trkpt><trkpt lat="45.6843694" lon="11.0540162"><ele>1612.0</ele><time>2026-04-18T13:47:47.735Z</time></trkpt><trkpt lat="45.6842935" lon="11.0540536"><ele>1612.0000000000002</ele><time>2026-04-18T13:47:48.735Z</time></trkpt><trkpt lat="45.6842023" lon="11.0540998"><ele>1612.0</ele><time>2026-04-18T13:47:49.735Z</time></trkpt><trkpt lat="45.6841105" lon="11.0541422"><ele>1610.3999999999999</ele><time>2026-04-18T13:47:50.735Z</time></trkpt><trkpt lat="45.6840242" lon="11.0541815"><ele>1608.8</ele><time>2026-04-18T13:47:51.735Z</time></trkpt><trkpt lat="45.6839389" lon="11.0542116"><ele>1607.2</ele><time>2026-04-18T13:47:52.735Z</time></trkpt><trkpt lat="45.6838446" lon="11.0542406"><ele>1605.6</ele><time>2026-04-18T13:47:53.735Z</time></trkpt><trkpt lat="45.6837497" lon="11.054269"><ele>1604.0</ele><time>2026-04-18T13:47:54.735Z</time></trkpt><trkpt lat="45.6836358" lon="11.0543137"><ele>1604.0</ele><time>2026-04-18T13:47:55.735Z</time></trkpt><trkpt lat="45.6835283" lon="11.054357"><ele>1604.0</ele><time>2026-04-18T13:47:56.735Z</time></trkpt><trkpt lat="45.6834285" lon="11.0543937"><ele>1604.0</ele><time>2026-04-18T13:47:57.735Z</time></trkpt><trkpt lat="45.683331" lon="11.0544224"><ele>1604.0</ele><time>2026-04-18T13:47:58.735Z</time></trkpt><trkpt lat="45.6832425" lon="11.05445"><ele>1604.0</ele><time>2026-04-18T13:47:59.735Z</time></trkpt><trkpt lat="45.6831567" lon="11.0544813"><ele>1603.9999999999998</ele><time>2026-04-18T13:48:00.735Z</time></trkpt><trkpt lat="45.6830782" lon="11.0545051"><ele>1604.0</ele><time>2026-04-18T13:48:01.735Z</time></trkpt><trkpt lat="45.6829948" lon="11.0545223"><ele>1604.0</ele><time>2026-04-18T13:48:02.735Z</time></trkpt><trkpt lat="45.6829148" lon="11.0545383"><ele>1604.0</ele><time>2026-04-18T13:48:03.735Z</time></trkpt><trkpt lat="45.6828255" lon="11.0545382"><ele>1603.9999999999998</ele><time>2026-04-18T13:48:04.735Z</time></trkpt><trkpt lat="45.6827196" lon="11.054524"><ele>1604.0</ele><time>2026-04-18T13:48:05.735Z</time></trkpt><trkpt lat="45.6826242" lon="11.0544904"><ele>1603.4</ele><time>2026-04-18T13:48:06.735Z</time></trkpt><trkpt lat="45.6825315" lon="11.0544553"><ele>1602.8000000000002</ele><time>2026-04-18T13:48:07.735Z</time></trkpt><trkpt lat="45.6824356" lon="11.0544299"><ele>1602.1999999999998</ele><time>2026-04-18T13:48:08.736Z</time></trkpt><trkpt lat="45.6823388" lon="11.0544048"><ele>1601.6</ele><time>2026-04-18T13:48:09.735Z</time></trkpt><trkpt lat="45.6822267" lon="11.0543711"><ele>1601.0</ele><time>2026-04-18T13:48:10.735Z</time></trkpt><trkpt lat="45.6821265" lon="11.0543376"><ele>1600.9999999999998</ele><time>2026-04-18T13:48:11.735Z</time></trkpt><trkpt lat="45.6820312" lon="11.0543016"><ele>1601.0</ele><time>2026-04-18T13:48:12.735Z</time></trkpt><trkpt lat="45.6819485" lon="11.0542677"><ele>1601.0</ele><time>2026-04-18T13:48:13.735Z</time></trkpt><trkpt lat="45.6818718" lon="11.0542322"><ele>1601.0</ele><time>2026-04-18T13:48:14.735Z</time></trkpt><trkpt lat="45.6817998" lon="11.0541968"><ele>1600.9999999999998</ele><time>2026-04-18T13:48:15.735Z</time></trkpt><trkpt lat="45.6817366" lon="11.0541524"><ele>1601.0</ele><time>2026-04-18T13:48:16.735Z</time></trkpt><trkpt lat="45.6816801" lon="11.0541019"><ele>1600.1666666666665</ele><time>2026-04-18T13:48:17.735Z</time></trkpt><trkpt lat="45.6816267" lon="11.0540535"><ele>1599.3333333333333</ele><time>2026-04-18T13:48:18.735Z</time></trkpt><trkpt lat="45.681534" lon="11.053941"><ele>1598.5</ele><time>2026-04-18T13:48:20.735Z</time></trkpt><trkpt lat="45.6814924" lon="11.0538669"><ele>1597.6666666666665</ele><time>2026-04-18T13:48:21.735Z</time></trkpt><trkpt lat="45.681429" lon="11.0537074"><ele>1596.8333333333333</ele><time>2026-04-18T13:48:23.736Z</time></trkpt><trkpt lat="45.6813955" lon="11.0536299"><ele>1596.0</ele><time>2026-04-18T13:48:24.736Z</time></trkpt><trkpt lat="45.6813535" lon="11.0535555"><ele>1596.0</ele><time>2026-04-18T13:48:25.735Z</time></trkpt><trkpt lat="45.6813087" lon="11.0534855"><ele>1596.0</ele><time>2026-04-18T13:48:26.735Z</time></trkpt><trkpt lat="45.6812589" lon="11.0534168"><ele>1596.0</ele><time>2026-04-18T13:48:27.735Z</time></trkpt><trkpt lat="45.6812086" lon="11.0533515"><ele>1596.0</ele><time>2026-04-18T13:48:28.735Z</time></trkpt><trkpt lat="45.6811562" lon="11.0532994"><ele>1596.0</ele><time>2026-04-18T13:48:29.735Z</time></trkpt><trkpt lat="45.6810926" lon="11.0532458"><ele>1596.0</ele><time>2026-04-18T13:48:30.735Z</time></trkpt><trkpt lat="45.6810211" lon="11.0531927"><ele>1596.0</ele><time>2026-04-18T13:48:31.736Z</time></trkpt><trkpt lat="45.6809317" lon="11.0531445"><ele>1592.1999999999998</ele><time>2026-04-18T13:48:32.735Z</time></trkpt><trkpt lat="45.6808411" lon="11.0531112"><ele>1588.3999999999999</ele><time>2026-04-18T13:48:33.735Z</time></trkpt><trkpt lat="45.6807434" lon="11.0530908"><ele>1584.6</ele><time>2026-04-18T13:48:34.735Z</time></trkpt><trkpt lat="45.6806551" lon="11.0530824"><ele>1580.8</ele><time>2026-04-18T13:48:35.735Z</time></trkpt><trkpt lat="45.6805629" lon="11.0530814"><ele>1577.0</ele><time>2026-04-18T13:48:36.735Z</time></trkpt><trkpt lat="45.6804827" lon="11.053074"><ele>1576.9999999999998</ele><time>2026-04-18T13:48:37.735Z</time></trkpt><trkpt lat="45.6803932" lon="11.0530578"><ele>1577.0</ele><time>2026-04-18T13:48:38.735Z</time></trkpt><trkpt lat="45.6803179" lon="11.0530244"><ele>1577.0</ele><time>2026-04-18T13:48:39.735Z</time></trkpt><trkpt lat="45.6802482" lon="11.0529728"><ele>1577.0</ele><time>2026-04-18T13:48:40.735Z</time></trkpt><trkpt lat="45.6801817" lon="11.0528972"><ele>1576.9999999999998</ele><time>2026-04-18T13:48:41.735Z</time></trkpt><trkpt lat="45.6801231" lon="11.0527983"><ele>1577.0</ele><time>2026-04-18T13:48:42.735Z</time></trkpt><trkpt lat="45.6800699" lon="11.0526837"><ele>1577.8</ele><time>2026-04-18T13:48:43.735Z</time></trkpt><trkpt lat="45.6800334" lon="11.0525651"><ele>1578.6</ele><time>2026-04-18T13:48:44.735Z</time></trkpt><trkpt lat="45.680002" lon="11.0524228"><ele>1579.3999999999999</ele><time>2026-04-18T13:48:45.735Z</time></trkpt><trkpt lat="45.6799822" lon="11.0522943"><ele>1580.1999999999998</ele><time>2026-04-18T13:48:46.735Z</time></trkpt><trkpt lat="45.6799615" lon="11.0521673"><ele>1581.0</ele><time>2026-04-18T13:48:47.735Z</time></trkpt><trkpt lat="45.679937" lon="11.0520453"><ele>1579.0</ele><time>2026-04-18T13:48:48.736Z</time></trkpt><trkpt lat="45.6799084" lon="11.051925"><ele>1577.0</ele><time>2026-04-18T13:48:49.735Z</time></trkpt><trkpt lat="45.6798749" lon="11.0517957"><ele>1575.0</ele><time>2026-04-18T13:48:50.735Z</time></trkpt><trkpt lat="45.6798401" lon="11.0516762"><ele>1573.0</ele><time>2026-04-18T13:48:51.735Z</time></trkpt><trkpt lat="45.6798027" lon="11.0515633"><ele>1571.0</ele><time>2026-04-18T13:48:52.735Z</time></trkpt><trkpt lat="45.6797634" lon="11.0514432"><ele>1569.3333333333333</ele><time>2026-04-18T13:48:53.735Z</time></trkpt><trkpt lat="45.6797236" lon="11.0513388"><ele>1567.6666666666665</ele><time>2026-04-18T13:48:54.735Z</time></trkpt><trkpt lat="45.6796794" lon="11.0512359"><ele>1566.0</ele><time>2026-04-18T13:48:55.735Z</time></trkpt><trkpt lat="45.679626" lon="11.0511324"><ele>1564.3333333333335</ele><time>2026-04-18T13:48:56.736Z</time></trkpt><trkpt lat="45.6795791" lon="11.0510453"><ele>1562.6666666666667</ele><time>2026-04-18T13:48:57.735Z</time></trkpt><trkpt lat="45.6795334" lon="11.0509683"><ele>1561.0</ele><time>2026-04-18T13:48:58.735Z</time></trkpt><trkpt lat="45.679482" lon="11.0509013"><ele>1560.1666666666667</ele><time>2026-04-18T13:48:59.735Z</time></trkpt><trkpt lat="45.6794252" lon="11.050848"><ele>1559.3333333333335</ele><time>2026-04-18T13:49:00.735Z</time></trkpt><trkpt lat="45.679364" lon="11.0508113"><ele>1558.5</ele><time>2026-04-18T13:49:01.735Z</time></trkpt><trkpt lat="45.6792898" lon="11.0507878"><ele>1557.6666666666665</ele><time>2026-04-18T13:49:02.735Z</time></trkpt><trkpt lat="45.6792017" lon="11.0507839"><ele>1556.8333333333333</ele><time>2026-04-18T13:49:03.735Z</time></trkpt><trkpt lat="45.6791014" lon="11.0507912"><ele>1556.0</ele><time>2026-04-18T13:49:04.735Z</time></trkpt><trkpt lat="45.6789921" lon="11.050816"><ele>1557.75</ele><time>2026-04-18T13:49:05.735Z</time></trkpt><trkpt lat="45.6788695" lon="11.0508699"><ele>1559.5</ele><time>2026-04-18T13:49:06.735Z</time></trkpt><trkpt lat="45.6787502" lon="11.050926"><ele>1561.25</ele><time>2026-04-18T13:49:07.735Z</time></trkpt><trkpt lat="45.6786389" lon="11.0509816"><ele>1563.0</ele><time>2026-04-18T13:49:08.735Z</time></trkpt><trkpt lat="45.6785328" lon="11.0510269"><ele>1563.0</ele><time>2026-04-18T13:49:09.735Z</time></trkpt><trkpt lat="45.6784408" lon="11.0510586"><ele>1563.0</ele><time>2026-04-18T13:49:10.735Z</time></trkpt><trkpt lat="45.6783531" lon="11.0510942"><ele>1563.0</ele><time>2026-04-18T13:49:11.736Z</time></trkpt><trkpt lat="45.6782637" lon="11.0511394"><ele>1563.0</ele><time>2026-04-18T13:49:12.735Z</time></trkpt><trkpt lat="45.6781642" lon="11.0512097"><ele>1563.0</ele><time>2026-04-18T13:49:13.735Z</time></trkpt><trkpt lat="45.6780666" lon="11.0512802"><ele>1563.0</ele><time>2026-04-18T13:49:14.735Z</time></trkpt><trkpt lat="45.677983" lon="11.0513385"><ele>1563.0</ele><time>2026-04-18T13:49:15.736Z</time></trkpt><trkpt lat="45.6779115" lon="11.0513822"><ele>1563.0</ele><time>2026-04-18T13:49:16.735Z</time></trkpt><trkpt lat="45.6778482" lon="11.0514146"><ele>1563.0</ele><time>2026-04-18T13:49:17.735Z</time></trkpt><trkpt lat="45.6777318" lon="11.0514241"><ele>1563.0</ele><time>2026-04-18T13:49:19.736Z</time></trkpt><trkpt lat="45.6776449" lon="11.0513276"><ele>1561.4285714285716</ele><time>2026-04-18T13:49:21.735Z</time></trkpt><trkpt lat="45.6776162" lon="11.0512468"><ele>1559.8571428571427</ele><time>2026-04-18T13:49:22.735Z</time></trkpt><trkpt lat="45.6775917" lon="11.0511581"><ele>1558.2857142857142</ele><time>2026-04-18T13:49:23.735Z</time></trkpt><trkpt lat="45.6775645" lon="11.0510635"><ele>1556.7142857142858</ele><time>2026-04-18T13:49:24.735Z</time></trkpt><trkpt lat="45.677531" lon="11.0509663"><ele>1555.1428571428573</ele><time>2026-04-18T13:49:25.735Z</time></trkpt><trkpt lat="45.6774932" lon="11.0508773"><ele>1553.5714285714284</ele><time>2026-04-18T13:49:26.736Z</time></trkpt><trkpt lat="45.6774579" lon="11.0508006"><ele>1552.0</ele><time>2026-04-18T13:49:27.735Z</time></trkpt><trkpt lat="45.6773929" lon="11.0506674"><ele>1551.6</ele><time>2026-04-18T13:49:29.735Z</time></trkpt><trkpt lat="45.677343" lon="11.050607"><ele>1551.1999999999998</ele><time>2026-04-18T13:49:32.735Z</time></trkpt><trkpt lat="45.6772392" lon="11.0505615"><ele>1550.8</ele><time>2026-04-18T13:50:32.735Z</time></trkpt><trkpt lat="45.6771113" lon="11.0505698"><ele>1550.4</ele><time>2026-04-18T13:50:34.735Z</time></trkpt><trkpt lat="45.6770399" lon="11.0505803"><ele>1550.0</ele><time>2026-04-18T13:50:35.735Z</time></trkpt><trkpt lat="45.676959" lon="11.0505802"><ele>1548.6</ele><time>2026-04-18T13:50:36.735Z</time></trkpt><trkpt lat="45.6768693" lon="11.0505679"><ele>1547.2</ele><time>2026-04-18T13:50:37.735Z</time></trkpt><trkpt lat="45.6767711" lon="11.0505431"><ele>1545.8000000000002</ele><time>2026-04-18T13:50:38.735Z</time></trkpt><trkpt lat="45.6766683" lon="11.0505126"><ele>1544.4</ele><time>2026-04-18T13:50:39.735Z</time></trkpt><trkpt lat="45.6765554" lon="11.0504629"><ele>1543.0</ele><time>2026-04-18T13:50:40.735Z</time></trkpt><trkpt lat="45.6764494" lon="11.0503917"><ele>1543.0</ele><time>2026-04-18T13:50:41.735Z</time></trkpt><trkpt lat="45.6763533" lon="11.0502993"><ele>1543.0</ele><time>2026-04-18T13:50:42.735Z</time></trkpt><trkpt lat="45.676259" lon="11.0501941"><ele>1543.0</ele><time>2026-04-18T13:50:43.735Z</time></trkpt><trkpt lat="45.6761596" lon="11.0500814"><ele>1543.0</ele><time>2026-04-18T13:50:44.735Z</time></trkpt><trkpt lat="45.6760648" lon="11.0499699"><ele>1540.8000000000002</ele><time>2026-04-18T13:50:45.735Z</time></trkpt><trkpt lat="45.6759755" lon="11.0498619"><ele>1538.6</ele><time>2026-04-18T13:50:46.735Z</time></trkpt><trkpt lat="45.6758939" lon="11.0497585"><ele>1536.4</ele><time>2026-04-18T13:50:47.735Z</time></trkpt><trkpt lat="45.6758154" lon="11.0496429"><ele>1534.1999999999998</ele><time>2026-04-18T13:50:48.735Z</time></trkpt><trkpt lat="45.6757431" lon="11.0495287"><ele>1532.0</ele><time>2026-04-18T13:50:49.735Z</time></trkpt><trkpt lat="45.6756761" lon="11.0493827"><ele>1532.0</ele><time>2026-04-18T13:50:50.735Z</time></trkpt><trkpt lat="45.6756368" lon="11.0492421"><ele>1532.0</ele><time>2026-04-18T13:50:51.735Z</time></trkpt><trkpt lat="45.6756006" lon="11.0491014"><ele>1532.0</ele><time>2026-04-18T13:50:52.735Z</time></trkpt><trkpt lat="45.6755655" lon="11.0489617"><ele>1532.0</ele><time>2026-04-18T13:50:53.735Z</time></trkpt><trkpt lat="45.6755283" lon="11.0488237"><ele>1532.0</ele><time>2026-04-18T13:50:54.735Z</time></trkpt><trkpt lat="45.6754841" lon="11.048696"><ele>1532.1999999999998</ele><time>2026-04-18T13:50:55.735Z</time></trkpt><trkpt lat="45.6754358" lon="11.0485765"><ele>1532.4</ele><time>2026-04-18T13:50:56.736Z</time></trkpt><trkpt lat="45.6753786" lon="11.0484744"><ele>1532.6</ele><time>2026-04-18T13:50:57.735Z</time></trkpt><trkpt lat="45.6753101" lon="11.0483922"><ele>1532.8000000000002</ele><time>2026-04-18T13:50:58.735Z</time></trkpt><trkpt lat="45.6752325" lon="11.0483317"><ele>1533.0</ele><time>2026-04-18T13:50:59.735Z</time></trkpt><trkpt lat="45.6751421" lon="11.0482892"><ele>1533.0</ele><time>2026-04-18T13:51:00.735Z</time></trkpt><trkpt lat="45.6750329" lon="11.0482477"><ele>1533.0</ele><time>2026-04-18T13:51:01.735Z</time></trkpt><trkpt lat="45.6749043" lon="11.0481991"><ele>1533.0</ele><time>2026-04-18T13:51:02.735Z</time></trkpt><trkpt lat="45.6747808" lon="11.0481475"><ele>1533.0</ele><time>2026-04-18T13:51:03.735Z</time></trkpt><trkpt lat="45.6746555" lon="11.048103"><ele>1533.0</ele><time>2026-04-18T13:51:04.735Z</time></trkpt><trkpt lat="45.6745306" lon="11.0480716"><ele>1533.0</ele><time>2026-04-18T13:51:05.735Z</time></trkpt><trkpt lat="45.6744026" lon="11.0480672"><ele>1533.0</ele><time>2026-04-18T13:51:06.735Z</time></trkpt><trkpt lat="45.6742582" lon="11.0480863"><ele>1533.0</ele><time>2026-04-18T13:51:07.735Z</time></trkpt><trkpt lat="45.6741213" lon="11.0481254"><ele>1534.0</ele><time>2026-04-18T13:51:08.736Z</time></trkpt><trkpt lat="45.6739966" lon="11.0481703"><ele>1535.0</ele><time>2026-04-18T13:51:09.735Z</time></trkpt><trkpt lat="45.6738827" lon="11.0482148"><ele>1536.0</ele><time>2026-04-18T13:51:10.735Z</time></trkpt><trkpt lat="45.673784" lon="11.0482522"><ele>1537.0</ele><time>2026-04-18T13:51:11.735Z</time></trkpt><trkpt lat="45.6736998" lon="11.0482819"><ele>1538.0</ele><time>2026-04-18T13:51:12.735Z</time></trkpt><trkpt lat="45.6736282" lon="11.0483031"><ele>1534.1666666666665</ele><time>2026-04-18T13:51:13.736Z</time></trkpt><trkpt lat="45.6735567" lon="11.0483237"><ele>1530.3333333333333</ele><time>2026-04-18T13:51:14.735Z</time></trkpt><trkpt lat="45.6734836" lon="11.048343"><ele>1526.5</ele><time>2026-04-18T13:51:15.735Z</time></trkpt><trkpt lat="45.6734065" lon="11.0483658"><ele>1522.6666666666665</ele><time>2026-04-18T13:51:16.735Z</time></trkpt><trkpt lat="45.6733235" lon="11.0484036"><ele>1518.8333333333333</ele><time>2026-04-18T13:51:17.735Z</time></trkpt><trkpt lat="45.6732345" lon="11.0484592"><ele>1515.0</ele><time>2026-04-18T13:51:18.736Z</time></trkpt><trkpt lat="45.6731484" lon="11.0485331"><ele>1515.0</ele><time>2026-04-18T13:51:19.735Z</time></trkpt><trkpt lat="45.673066" lon="11.0486142"><ele>1515.0</ele><time>2026-04-18T13:51:20.735Z</time></trkpt><trkpt lat="45.6729875" lon="11.0486967"><ele>1515.0</ele><time>2026-04-18T13:51:21.735Z</time></trkpt><trkpt lat="45.6729102" lon="11.0487745"><ele>1515.0</ele><time>2026-04-18T13:51:22.735Z</time></trkpt><trkpt lat="45.6728306" lon="11.0488502"><ele>1515.0</ele><time>2026-04-18T13:51:23.735Z</time></trkpt><trkpt lat="45.6727526" lon="11.0489191"><ele>1515.6</ele><time>2026-04-18T13:51:24.735Z</time></trkpt><trkpt lat="45.6726678" lon="11.0489831"><ele>1516.2</ele><time>2026-04-18T13:51:25.735Z</time></trkpt><trkpt lat="45.6725801" lon="11.0490368"><ele>1516.8000000000002</ele><time>2026-04-18T13:51:26.735Z</time></trkpt><trkpt lat="45.6724885" lon="11.0490832"><ele>1517.4</ele><time>2026-04-18T13:51:27.735Z</time></trkpt><trkpt lat="45.6723939" lon="11.0491173"><ele>1518.0</ele><time>2026-04-18T13:51:28.735Z</time></trkpt><trkpt lat="45.6722982" lon="11.0491279"><ele>1518.0</ele><time>2026-04-18T13:51:29.735Z</time></trkpt><trkpt lat="45.6721941" lon="11.0491065"><ele>1518.0</ele><time>2026-04-18T13:51:30.735Z</time></trkpt><trkpt lat="45.672093" lon="11.049071"><ele>1518.0</ele><time>2026-04-18T13:51:31.735Z</time></trkpt><trkpt lat="45.6719901" lon="11.049059"><ele>1518.0</ele><time>2026-04-18T13:51:32.735Z</time></trkpt><trkpt lat="45.6718859" lon="11.0490749"><ele>1518.0</ele><time>2026-04-18T13:51:33.735Z</time></trkpt><trkpt lat="45.6717863" lon="11.0491192"><ele>1515.0</ele><time>2026-04-18T13:51:34.736Z</time></trkpt><trkpt lat="45.6716917" lon="11.0491966"><ele>1512.0</ele><time>2026-04-18T13:51:35.735Z</time></trkpt><trkpt lat="45.671604" lon="11.0492878"><ele>1509.0</ele><time>2026-04-18T13:51:36.735Z</time></trkpt><trkpt lat="45.671526" lon="11.0493917"><ele>1506.0</ele><time>2026-04-18T13:51:37.735Z</time></trkpt><trkpt lat="45.6714583" lon="11.0494987"><ele>1503.0</ele><time>2026-04-18T13:51:38.735Z</time></trkpt><trkpt lat="45.6713968" lon="11.0496052"><ele>1503.0</ele><time>2026-04-18T13:51:39.735Z</time></trkpt><trkpt lat="45.6713352" lon="11.0497005"><ele>1503.0</ele><time>2026-04-18T13:51:40.735Z</time></trkpt><trkpt lat="45.6712689" lon="11.0497863"><ele>1503.0</ele><time>2026-04-18T13:51:41.735Z</time></trkpt><trkpt lat="45.6711982" lon="11.0498637"><ele>1503.0</ele><time>2026-04-18T13:51:42.735Z</time></trkpt><trkpt lat="45.6711213" lon="11.0499206"><ele>1503.0</ele><time>2026-04-18T13:51:43.735Z</time></trkpt><trkpt lat="45.6710335" lon="11.049965"><ele>1503.0</ele><time>2026-04-18T13:51:44.735Z</time></trkpt><trkpt lat="45.6709444" lon="11.049997"><ele>1500.5</ele><time>2026-04-18T13:51:45.735Z</time></trkpt><trkpt lat="45.670858" lon="11.0500266"><ele>1498.0</ele><time>2026-04-18T13:51:46.735Z</time></trkpt><trkpt lat="45.6707838" lon="11.0500542"><ele>1495.5</ele><time>2026-04-18T13:51:47.735Z</time></trkpt><trkpt lat="45.6707193" lon="11.0500902"><ele>1493.0</ele><time>2026-04-18T13:51:48.735Z</time></trkpt><trkpt lat="45.6706618" lon="11.0502181"><ele>1490.5</ele><time>2026-04-18T13:51:50.735Z</time></trkpt><trkpt lat="45.670723" lon="11.0503142"><ele>1488.0</ele><time>2026-04-18T13:51:52.735Z</time></trkpt><trkpt lat="45.6708666" lon="11.0502878"><ele>1488.0</ele><time>2026-04-18T13:51:54.735Z</time></trkpt><trkpt lat="45.6709766" lon="11.0502342"><ele>1488.0</ele><time>2026-04-18T13:51:55.735Z</time></trkpt><trkpt lat="45.6711037" lon="11.0501793"><ele>1488.0</ele><time>2026-04-18T13:51:56.735Z</time></trkpt><trkpt lat="45.6712218" lon="11.0501413"><ele>1488.0</ele><time>2026-04-18T13:51:57.735Z</time></trkpt><trkpt lat="45.6713367" lon="11.0501036"><ele>1486.6000000000001</ele><time>2026-04-18T13:51:58.735Z</time></trkpt><trkpt lat="45.6714483" lon="11.0500694"><ele>1485.2</ele><time>2026-04-18T13:51:59.735Z</time></trkpt><trkpt lat="45.6715487" lon="11.0500441"><ele>1483.8</ele><time>2026-04-18T13:52:00.735Z</time></trkpt><trkpt lat="45.6716374" lon="11.0500394"><ele>1482.4</ele><time>2026-04-18T13:52:01.735Z</time></trkpt><trkpt lat="45.6717219" lon="11.0500696"><ele>1481.0</ele><time>2026-04-18T13:52:02.735Z</time></trkpt><trkpt lat="45.6717974" lon="11.0501349"><ele>1481.0</ele><time>2026-04-18T13:52:03.735Z</time></trkpt><trkpt lat="45.6718516" lon="11.0502398"><ele>1481.0</ele><time>2026-04-18T13:52:04.735Z</time></trkpt><trkpt lat="45.6718776" lon="11.0503734"><ele>1481.0</ele><time>2026-04-18T13:52:05.735Z</time></trkpt><trkpt lat="45.6718894" lon="11.0505446"><ele>1481.0</ele><time>2026-04-18T13:52:06.735Z</time></trkpt><trkpt lat="45.6719018" lon="11.0507214"><ele>1481.0</ele><time>2026-04-18T13:52:07.735Z</time></trkpt><trkpt lat="45.6719085" lon="11.0508861"><ele>1478.25</ele><time>2026-04-18T13:52:08.735Z</time></trkpt><trkpt lat="45.6718995" lon="11.0510511"><ele>1475.5</ele><time>2026-04-18T13:52:09.735Z</time></trkpt><trkpt lat="45.6718718" lon="11.051214"><ele>1472.75</ele><time>2026-04-18T13:52:10.735Z</time></trkpt><trkpt lat="45.6718286" lon="11.0513697"><ele>1470.0</ele><time>2026-04-18T13:52:11.735Z</time></trkpt><trkpt lat="45.6717855" lon="11.0515185"><ele>1468.6</ele><time>2026-04-18T13:52:12.735Z</time></trkpt><trkpt lat="45.6717476" lon="11.0516647"><ele>1467.2</ele><time>2026-04-18T13:52:13.735Z</time></trkpt><trkpt lat="45.6717205" lon="11.0518042"><ele>1465.8000000000002</ele><time>2026-04-18T13:52:14.735Z</time></trkpt><trkpt lat="45.671709" lon="11.0519453"><ele>1464.4</ele><time>2026-04-18T13:52:15.735Z</time></trkpt><trkpt lat="45.6717244" lon="11.0521001"><ele>1463.0</ele><time>2026-04-18T13:52:16.735Z</time></trkpt><trkpt lat="45.6717628" lon="11.0522666"><ele>1463.0</ele><time>2026-04-18T13:52:17.735Z</time></trkpt><trkpt lat="45.6718177" lon="11.0524281"><ele>1463.0</ele><time>2026-04-18T13:52:18.736Z</time></trkpt><trkpt lat="45.6718821" lon="11.0525764"><ele>1463.0</ele><time>2026-04-18T13:52:19.735Z</time></trkpt><trkpt lat="45.6719669" lon="11.0527204"><ele>1463.0</ele><time>2026-04-18T13:52:20.735Z</time></trkpt><trkpt lat="45.672065" lon="11.0528502"><ele>1461.4</ele><time>2026-04-18T13:52:21.735Z</time></trkpt><trkpt lat="45.6721654" lon="11.0529606"><ele>1459.8000000000002</ele><time>2026-04-18T13:52:22.735Z</time></trkpt><trkpt lat="45.6722547" lon="11.0530522"><ele>1458.2</ele><time>2026-04-18T13:52:23.735Z</time></trkpt><trkpt lat="45.6723308" lon="11.0531401"><ele>1456.6</ele><time>2026-04-18T13:52:24.735Z</time></trkpt><trkpt lat="45.672387" lon="11.0532423"><ele>1455.0</ele><time>2026-04-18T13:52:25.736Z</time></trkpt><trkpt lat="45.6724179" lon="11.0533758"><ele>1455.0</ele><time>2026-04-18T13:52:26.735Z</time></trkpt><trkpt lat="45.6724173" lon="11.0535268"><ele>1455.0</ele><time>2026-04-18T13:52:27.736Z</time></trkpt><trkpt lat="45.6723858" lon="11.0536722"><ele>1455.0</ele><time>2026-04-18T13:52:28.736Z</time></trkpt><trkpt lat="45.6723327" lon="11.0537977"><ele>1455.0</ele><time>2026-04-18T13:52:29.735Z</time></trkpt><trkpt lat="45.6722645" lon="11.0538923"><ele>1455.0</ele><time>2026-04-18T13:52:30.735Z</time></trkpt><trkpt lat="45.6721805" lon="11.053956"><ele>1455.0</ele><time>2026-04-18T13:52:31.735Z</time></trkpt><trkpt lat="45.6720857" lon="11.0539812"><ele>1455.0</ele><time>2026-04-18T13:52:32.735Z</time></trkpt><trkpt lat="45.6719871" lon="11.0539565"><ele>1455.0</ele><time>2026-04-18T13:52:33.735Z</time></trkpt><trkpt lat="45.6718898" lon="11.0538932"><ele>1455.0</ele><time>2026-04-18T13:52:34.735Z</time></trkpt><trkpt lat="45.6717755" lon="11.0538338"><ele>1455.0</ele><time>2026-04-18T13:52:35.735Z</time></trkpt><trkpt lat="45.6716509" lon="11.0537808"><ele>1451.25</ele><time>2026-04-18T13:52:36.735Z</time></trkpt><trkpt lat="45.6715318" lon="11.0537289"><ele>1447.5</ele><time>2026-04-18T13:52:37.735Z</time></trkpt><trkpt lat="45.671413" lon="11.0536784"><ele>1443.75</ele><time>2026-04-18T13:52:38.735Z</time></trkpt><trkpt lat="45.6713016" lon="11.0536243"><ele>1440.0</ele><time>2026-04-18T13:52:39.735Z</time></trkpt><trkpt lat="45.6711952" lon="11.0535696"><ele>1436.0</ele><time>2026-04-18T13:52:40.735Z</time></trkpt><trkpt lat="45.6710886" lon="11.0535317"><ele>1432.0</ele><time>2026-04-18T13:52:41.735Z</time></trkpt><trkpt lat="45.6709944" lon="11.0535168"><ele>1428.0</ele><time>2026-04-18T13:52:42.735Z</time></trkpt><trkpt lat="45.670906" lon="11.0535275"><ele>1424.0</ele><time>2026-04-18T13:52:43.736Z</time></trkpt><trkpt lat="45.6708331" lon="11.053574"><ele>1420.0</ele><time>2026-04-18T13:52:44.735Z</time></trkpt><trkpt lat="45.6707767" lon="11.0536631"><ele>1420.0</ele><time>2026-04-18T13:52:45.735Z</time></trkpt><trkpt lat="45.6707372" lon="11.053793"><ele>1420.0</ele><time>2026-04-18T13:52:46.735Z</time></trkpt><trkpt lat="45.6706868" lon="11.0539541"><ele>1420.0</ele><time>2026-04-18T13:52:47.735Z</time></trkpt><trkpt lat="45.6706273" lon="11.0541136"><ele>1420.0</ele><time>2026-04-18T13:52:48.735Z</time></trkpt><trkpt lat="45.6705593" lon="11.054242"><ele>1422.4</ele><time>2026-04-18T13:52:49.735Z</time></trkpt><trkpt lat="45.6704943" lon="11.0543474"><ele>1424.8</ele><time>2026-04-18T13:52:50.735Z</time></trkpt><trkpt lat="45.6704415" lon="11.0544536"><ele>1427.1999999999998</ele><time>2026-04-18T13:52:51.735Z</time></trkpt><trkpt lat="45.6704113" lon="11.0545763"><ele>1429.6</ele><time>2026-04-18T13:52:52.735Z</time></trkpt><trkpt lat="45.6704099" lon="11.0547228"><ele>1432.0</ele><time>2026-04-18T13:52:53.735Z</time></trkpt><trkpt lat="45.6704199" lon="11.054861"><ele>1432.5</ele><time>2026-04-18T13:52:54.735Z</time></trkpt><trkpt lat="45.6704216" lon="11.054981"><ele>1433.0</ele><time>2026-04-18T13:52:55.735Z</time></trkpt><trkpt lat="45.6704015" lon="11.0550947"><ele>1433.5</ele><time>2026-04-18T13:52:56.735Z</time></trkpt><trkpt lat="45.6703571" lon="11.0551789"><ele>1434.0</ele><time>2026-04-18T13:52:57.735Z</time></trkpt><trkpt lat="45.6702956" lon="11.055222"><ele>1434.5</ele><time>2026-04-18T13:52:58.735Z</time></trkpt><trkpt lat="45.6702152" lon="11.0552318"><ele>1435.0</ele><time>2026-04-18T13:52:59.735Z</time></trkpt><trkpt lat="45.6701255" lon="11.0552082"><ele>1431.0</ele><time>2026-04-18T13:53:00.735Z</time></trkpt><trkpt lat="45.6700225" lon="11.0551762"><ele>1427.0</ele><time>2026-04-18T13:53:01.735Z</time></trkpt><trkpt lat="45.6699193" lon="11.0551501"><ele>1423.0</ele><time>2026-04-18T13:53:02.735Z</time></trkpt><trkpt lat="45.6698214" lon="11.055133"><ele>1419.0</ele><time>2026-04-18T13:53:03.735Z</time></trkpt><trkpt lat="45.6697281" lon="11.0551312"><ele>1415.0</ele><time>2026-04-18T13:53:04.735Z</time></trkpt><trkpt lat="45.669637" lon="11.0551656"><ele>1415.0</ele><time>2026-04-18T13:53:05.735Z</time></trkpt><trkpt lat="45.669538" lon="11.0552494"><ele>1415.0</ele><time>2026-04-18T13:53:06.736Z</time></trkpt><trkpt lat="45.6694319" lon="11.055346"><ele>1415.0</ele><time>2026-04-18T13:53:07.735Z</time></trkpt><trkpt lat="45.6693306" lon="11.0554409"><ele>1415.0</ele><time>2026-04-18T13:53:08.735Z</time></trkpt><trkpt lat="45.669232" lon="11.0555252"><ele>1413.0</ele><time>2026-04-18T13:53:09.735Z</time></trkpt><trkpt lat="45.6691399" lon="11.0556056"><ele>1411.0</ele><time>2026-04-18T13:53:10.735Z</time></trkpt><trkpt lat="45.6690593" lon="11.055674"><ele>1409.0</ele><time>2026-04-18T13:53:11.735Z</time></trkpt><trkpt lat="45.6689896" lon="11.0557364"><ele>1407.0</ele><time>2026-04-18T13:53:12.735Z</time></trkpt><trkpt lat="45.6688972" lon="11.0558315"><ele>1405.0</ele><time>2026-04-18T13:53:14.735Z</time></trkpt><trkpt lat="45.6688457" lon="11.0558927"><ele>1405.0</ele><time>2026-04-18T13:53:16.735Z</time></trkpt></trkseg></trk></gpx>